<?xml version="1.0" encoding="UTF-8" standalone="no" ?>
<gpx xmlns="http://www.topografix.com/GPX/1/1" xmlns:xsi="http://www.w3.org/2001/XMLSchema-instance" xsi:schemaLocation="http://www.topografix.com/GPX/1/1 http://www.topografix.com/GPX/1/1/gpx.xsd" version="1.1" creator="VisuGPX - https://www.visugpx.com">
  <metadata>
    <name>Mtp_St_Clement_Prade_26092020</name>
  </metadata>
  <trk>
    <name><![CDATA[Move]]></name>
    <trkseg>
      <trkpt lat="43.61149" lon="3.8774">
        <ele>78.5</ele>
        <time>2020-09-26T08:10:58.000Z</time>
      </trkpt>
      <trkpt lat="43.6115" lon="3.87722">
        <ele>92</ele>
        <time>2020-09-26T08:12:47.000Z</time>
      </trkpt>
      <trkpt lat="43.6115" lon="3.8772">
        <ele>47.1</ele>
        <time>2020-09-26T08:12:48.000Z</time>
      </trkpt>
      <trkpt lat="43.61152" lon="3.87716">
        <ele>47.1</ele>
        <time>2020-09-26T08:12:50.000Z</time>
      </trkpt>
      <trkpt lat="43.61154" lon="3.87713">
        <ele>47.1</ele>
        <time>2020-09-26T08:12:52.000Z</time>
      </trkpt>
      <trkpt lat="43.61156" lon="3.87711">
        <ele>47.2</ele>
        <time>2020-09-26T08:12:53.000Z</time>
      </trkpt>
      <trkpt lat="43.61158" lon="3.87708">
        <ele>47.2</ele>
        <time>2020-09-26T08:12:55.000Z</time>
      </trkpt>
      <trkpt lat="43.6116" lon="3.87706">
        <ele>47.1</ele>
        <time>2020-09-26T08:12:56.000Z</time>
      </trkpt>
      <trkpt lat="43.61161" lon="3.87702">
        <ele>47.1</ele>
        <time>2020-09-26T08:12:57.000Z</time>
      </trkpt>
      <trkpt lat="43.61163" lon="3.87699">
        <ele>84.63070852723</ele>
        <time>2020-09-26T08:12:58.000Z</time>
      </trkpt>
      <trkpt lat="43.61164" lon="3.87695">
        <ele>84.241981970551</ele>
        <time>2020-09-26T08:12:59.000Z</time>
      </trkpt>
      <trkpt lat="43.61166" lon="3.87691">
        <ele>83.853255413873</ele>
        <time>2020-09-26T08:13:00.000Z</time>
      </trkpt>
      <trkpt lat="43.61169" lon="3.87688">
        <ele>83.464528857194</ele>
        <time>2020-09-26T08:13:01.000Z</time>
      </trkpt>
      <trkpt lat="43.6117" lon="3.87684">
        <ele>83.075802300515</ele>
        <time>2020-09-26T08:13:02.000Z</time>
      </trkpt>
      <trkpt lat="43.61171" lon="3.8768">
        <ele>82.687075743836</ele>
        <time>2020-09-26T08:13:03.000Z</time>
      </trkpt>
      <trkpt lat="43.61171" lon="3.87675">
        <ele>82.298349187157</ele>
        <time>2020-09-26T08:13:04.000Z</time>
      </trkpt>
      <trkpt lat="43.61172" lon="3.87671">
        <ele>81.909622630478</ele>
        <time>2020-09-26T08:13:05.000Z</time>
      </trkpt>
      <trkpt lat="43.61173" lon="3.87666">
        <ele>81.5208960738</ele>
        <time>2020-09-26T08:13:06.000Z</time>
      </trkpt>
      <trkpt lat="43.61173" lon="3.87661">
        <ele>81.132169517121</ele>
        <time>2020-09-26T08:13:07.000Z</time>
      </trkpt>
      <trkpt lat="43.61174" lon="3.87656">
        <ele>80.796507558975</ele>
        <time>2020-09-26T08:13:08.000Z</time>
      </trkpt>
      <trkpt lat="43.61174" lon="3.8765">
        <ele>80.488182688816</ele>
        <time>2020-09-26T08:13:09.000Z</time>
      </trkpt>
      <trkpt lat="43.61171" lon="3.87634">
        <ele>79.563208078342</ele>
        <time>2020-09-26T08:13:12.000Z</time>
      </trkpt>
      <trkpt lat="43.61167" lon="3.8763">
        <ele>78.946558338025</ele>
        <time>2020-09-26T08:13:14.000Z</time>
      </trkpt>
      <trkpt lat="43.61165" lon="3.87628">
        <ele>78.329908597709</ele>
        <time>2020-09-26T08:13:16.000Z</time>
      </trkpt>
      <trkpt lat="43.61163" lon="3.87626">
        <ele>77.813627776274</ele>
        <time>2020-09-26T08:13:18.000Z</time>
      </trkpt>
      <trkpt lat="43.6116" lon="3.8762">
        <ele>77.212424985924</ele>
        <time>2020-09-26T08:13:21.000Z</time>
      </trkpt>
      <trkpt lat="43.61153" lon="3.8761">
        <ele>76.21042033534</ele>
        <time>2020-09-26T08:13:26.000Z</time>
      </trkpt>
      <trkpt lat="43.61147" lon="3.876">
        <ele>75.40999936</ele>
        <time>2020-09-26T08:13:30.000Z</time>
      </trkpt>
      <trkpt lat="43.61145" lon="3.87598">
        <ele>75.20999936</ele>
        <time>2020-09-26T08:13:31.000Z</time>
      </trkpt>
      <trkpt lat="43.61143" lon="3.87595">
        <ele>75.00999936</ele>
        <time>2020-09-26T08:13:32.000Z</time>
      </trkpt>
      <trkpt lat="43.61141" lon="3.87593">
        <ele>74.80999936</ele>
        <time>2020-09-26T08:13:33.000Z</time>
      </trkpt>
      <trkpt lat="43.61139" lon="3.8759">
        <ele>74.60999936</ele>
        <time>2020-09-26T08:13:34.000Z</time>
      </trkpt>
      <trkpt lat="43.61138" lon="3.87587">
        <ele>74.40999936</ele>
        <time>2020-09-26T08:13:35.000Z</time>
      </trkpt>
      <trkpt lat="43.61137" lon="3.87584">
        <ele>74.20999936</ele>
        <time>2020-09-26T08:13:36.000Z</time>
      </trkpt>
      <trkpt lat="43.61136" lon="3.8758">
        <ele>74.00999936</ele>
        <time>2020-09-26T08:13:37.000Z</time>
      </trkpt>
      <trkpt lat="43.61136" lon="3.87577">
        <ele>73.81018911015</ele>
        <time>2020-09-26T08:13:38.000Z</time>
      </trkpt>
      <trkpt lat="43.61133" lon="3.87562">
        <ele>73.010988055461</ele>
        <time>2020-09-26T08:13:42.000Z</time>
      </trkpt>
      <trkpt lat="43.61129" lon="3.8755">
        <ele>72.411587264443</ele>
        <time>2020-09-26T08:13:45.000Z</time>
      </trkpt>
      <trkpt lat="43.61129" lon="3.87533">
        <ele>71.811810590811</ele>
        <time>2020-09-26T08:13:48.000Z</time>
      </trkpt>
      <trkpt lat="43.6113" lon="3.87527">
        <ele>71.611610454739</ele>
        <time>2020-09-26T08:13:49.000Z</time>
      </trkpt>
      <trkpt lat="43.61131" lon="3.87523">
        <ele>71.411410318667</ele>
        <time>2020-09-26T08:13:50.000Z</time>
      </trkpt>
      <trkpt lat="43.61133" lon="3.8751">
        <ele>70.810809910451</ele>
        <time>2020-09-26T08:13:53.000Z</time>
      </trkpt>
      <trkpt lat="43.61133" lon="3.87506">
        <ele>70.610609774379</ele>
        <time>2020-09-26T08:13:54.000Z</time>
      </trkpt>
      <trkpt lat="43.61134" lon="3.87501">
        <ele>70.410409638307</ele>
        <time>2020-09-26T08:13:55.000Z</time>
      </trkpt>
      <trkpt lat="43.61134" lon="3.87496">
        <ele>70.210209502235</ele>
        <time>2020-09-26T08:13:56.000Z</time>
      </trkpt>
      <trkpt lat="43.61135" lon="3.87488">
        <ele>69.90499968</ele>
        <time>2020-09-26T08:13:58.000Z</time>
      </trkpt>
      <trkpt lat="43.61138" lon="3.87481">
        <ele>69.70499968</ele>
        <time>2020-09-26T08:14:00.000Z</time>
      </trkpt>
      <trkpt lat="43.6114" lon="3.87477">
        <ele>69.60499968</ele>
        <time>2020-09-26T08:14:01.000Z</time>
      </trkpt>
      <trkpt lat="43.61144" lon="3.87465">
        <ele>69.30499968</ele>
        <time>2020-09-26T08:14:04.000Z</time>
      </trkpt>
      <trkpt lat="43.61148" lon="3.87451">
        <ele>69.00499968</ele>
        <time>2020-09-26T08:14:07.000Z</time>
      </trkpt>
      <trkpt lat="43.61152" lon="3.87438">
        <ele>69.59000064</ele>
        <time>2020-09-26T08:14:10.000Z</time>
      </trkpt>
      <trkpt lat="43.61154" lon="3.87427">
        <ele>69.99000064</ele>
        <time>2020-09-26T08:14:12.000Z</time>
      </trkpt>
      <trkpt lat="43.61155" lon="3.87422">
        <ele>70.19000064</ele>
        <time>2020-09-26T08:14:13.000Z</time>
      </trkpt>
      <trkpt lat="43.61156" lon="3.87417">
        <ele>70.39000064</ele>
        <time>2020-09-26T08:14:14.000Z</time>
      </trkpt>
      <trkpt lat="43.61156" lon="3.87413">
        <ele>70.59000064</ele>
        <time>2020-09-26T08:14:15.000Z</time>
      </trkpt>
      <trkpt lat="43.61156" lon="3.87409">
        <ele>70.79000064</ele>
        <time>2020-09-26T08:14:16.000Z</time>
      </trkpt>
      <trkpt lat="43.61157" lon="3.87404">
        <ele>70.99000064</ele>
        <time>2020-09-26T08:14:17.000Z</time>
      </trkpt>
      <trkpt lat="43.61157" lon="3.874">
        <ele>70.90499968</ele>
        <time>2020-09-26T08:14:18.000Z</time>
      </trkpt>
      <trkpt lat="43.61156" lon="3.87395">
        <ele>70.80499968</ele>
        <time>2020-09-26T08:14:19.000Z</time>
      </trkpt>
      <trkpt lat="43.61156" lon="3.8739">
        <ele>70.70499968</ele>
        <time>2020-09-26T08:14:20.000Z</time>
      </trkpt>
      <trkpt lat="43.61156" lon="3.87386">
        <ele>70.60499968</ele>
        <time>2020-09-26T08:14:21.000Z</time>
      </trkpt>
      <trkpt lat="43.61156" lon="3.87381">
        <ele>70.50499968</ele>
        <time>2020-09-26T08:14:22.000Z</time>
      </trkpt>
      <trkpt lat="43.61155" lon="3.87376">
        <ele>70.40499968</ele>
        <time>2020-09-26T08:14:23.000Z</time>
      </trkpt>
      <trkpt lat="43.61154" lon="3.87372">
        <ele>70.30499968</ele>
        <time>2020-09-26T08:14:24.000Z</time>
      </trkpt>
      <trkpt lat="43.61151" lon="3.87368">
        <ele>70.20499968</ele>
        <time>2020-09-26T08:14:25.000Z</time>
      </trkpt>
      <trkpt lat="43.61149" lon="3.87365">
        <ele>70.10499968</ele>
        <time>2020-09-26T08:14:26.000Z</time>
      </trkpt>
      <trkpt lat="43.61148" lon="3.87363">
        <ele>70.00499968</ele>
        <time>2020-09-26T08:14:27.000Z</time>
      </trkpt>
      <trkpt lat="43.61146" lon="3.87362">
        <ele>69.90499968</ele>
        <time>2020-09-26T08:14:28.000Z</time>
      </trkpt>
      <trkpt lat="43.61144" lon="3.8736">
        <ele>69.80499968</ele>
        <time>2020-09-26T08:14:29.000Z</time>
      </trkpt>
      <trkpt lat="43.61142" lon="3.87357">
        <ele>69.70499968</ele>
        <time>2020-09-26T08:14:30.000Z</time>
      </trkpt>
      <trkpt lat="43.61139" lon="3.87356">
        <ele>69.60499968</ele>
        <time>2020-09-26T08:14:31.000Z</time>
      </trkpt>
      <trkpt lat="43.61136" lon="3.87355">
        <ele>69.50499968</ele>
        <time>2020-09-26T08:14:32.000Z</time>
      </trkpt>
      <trkpt lat="43.61132" lon="3.87355">
        <ele>69.40499968</ele>
        <time>2020-09-26T08:14:33.000Z</time>
      </trkpt>
      <trkpt lat="43.61129" lon="3.87355">
        <ele>69.30499968</ele>
        <time>2020-09-26T08:14:34.000Z</time>
      </trkpt>
      <trkpt lat="43.61126" lon="3.87355">
        <ele>69.20499968</ele>
        <time>2020-09-26T08:14:35.000Z</time>
      </trkpt>
      <trkpt lat="43.61123" lon="3.87354">
        <ele>69.10499968</ele>
        <time>2020-09-26T08:14:36.000Z</time>
      </trkpt>
      <trkpt lat="43.6112" lon="3.87353">
        <ele>69.00499968</ele>
        <time>2020-09-26T08:14:37.000Z</time>
      </trkpt>
      <trkpt lat="43.61117" lon="3.87351">
        <ele>68.80999936</ele>
        <time>2020-09-26T08:14:38.000Z</time>
      </trkpt>
      <trkpt lat="43.61115" lon="3.8735">
        <ele>68.60999936</ele>
        <time>2020-09-26T08:14:39.000Z</time>
      </trkpt>
      <trkpt lat="43.61114" lon="3.87348">
        <ele>68.40999936</ele>
        <time>2020-09-26T08:14:40.000Z</time>
      </trkpt>
      <trkpt lat="43.61113" lon="3.87344">
        <ele>68.20999936</ele>
        <time>2020-09-26T08:14:41.000Z</time>
      </trkpt>
      <trkpt lat="43.61113" lon="3.87341">
        <ele>68.00999936</ele>
        <time>2020-09-26T08:14:42.000Z</time>
      </trkpt>
      <trkpt lat="43.61113" lon="3.87337">
        <ele>67.80999936</ele>
        <time>2020-09-26T08:14:43.000Z</time>
      </trkpt>
      <trkpt lat="43.61114" lon="3.87334">
        <ele>67.60999936</ele>
        <time>2020-09-26T08:14:44.000Z</time>
      </trkpt>
      <trkpt lat="43.61114" lon="3.8733">
        <ele>67.40999936</ele>
        <time>2020-09-26T08:14:45.000Z</time>
      </trkpt>
      <trkpt lat="43.61114" lon="3.87327">
        <ele>67.20999936</ele>
        <time>2020-09-26T08:14:46.000Z</time>
      </trkpt>
      <trkpt lat="43.61114" lon="3.87324">
        <ele>67.00999936</ele>
        <time>2020-09-26T08:14:47.000Z</time>
      </trkpt>
      <trkpt lat="43.61114" lon="3.8732">
        <ele>66.80999936</ele>
        <time>2020-09-26T08:14:48.000Z</time>
      </trkpt>
      <trkpt lat="43.61114" lon="3.87316">
        <ele>66.60999936</ele>
        <time>2020-09-26T08:14:49.000Z</time>
      </trkpt>
      <trkpt lat="43.61114" lon="3.87312">
        <ele>66.40999936</ele>
        <time>2020-09-26T08:14:50.000Z</time>
      </trkpt>
      <trkpt lat="43.61114" lon="3.87307">
        <ele>66.20999936</ele>
        <time>2020-09-26T08:14:51.000Z</time>
      </trkpt>
      <trkpt lat="43.61115" lon="3.87303">
        <ele>66.00999936</ele>
        <time>2020-09-26T08:14:52.000Z</time>
      </trkpt>
      <trkpt lat="43.61115" lon="3.87298">
        <ele>65.80999936</ele>
        <time>2020-09-26T08:14:53.000Z</time>
      </trkpt>
      <trkpt lat="43.61115" lon="3.87294">
        <ele>65.60999936</ele>
        <time>2020-09-26T08:14:54.000Z</time>
      </trkpt>
      <trkpt lat="43.61115" lon="3.87289">
        <ele>65.40999936</ele>
        <time>2020-09-26T08:14:55.000Z</time>
      </trkpt>
      <trkpt lat="43.61116" lon="3.87284">
        <ele>65.20999936</ele>
        <time>2020-09-26T08:14:56.000Z</time>
      </trkpt>
      <trkpt lat="43.61117" lon="3.87279">
        <ele>65.00999936</ele>
        <time>2020-09-26T08:14:57.000Z</time>
      </trkpt>
      <trkpt lat="43.61117" lon="3.87275">
        <ele>64.80999936</ele>
        <time>2020-09-26T08:14:58.000Z</time>
      </trkpt>
      <trkpt lat="43.61118" lon="3.8727">
        <ele>64.60999936</ele>
        <time>2020-09-26T08:14:59.000Z</time>
      </trkpt>
      <trkpt lat="43.61118" lon="3.87265">
        <ele>64.40999936</ele>
        <time>2020-09-26T08:15:00.000Z</time>
      </trkpt>
      <trkpt lat="43.61119" lon="3.8726">
        <ele>64.20999936</ele>
        <time>2020-09-26T08:15:01.000Z</time>
      </trkpt>
      <trkpt lat="43.6112" lon="3.87255">
        <ele>64.00999936</ele>
        <time>2020-09-26T08:15:02.000Z</time>
      </trkpt>
      <trkpt lat="43.6112" lon="3.87251">
        <ele>63.80999936</ele>
        <time>2020-09-26T08:15:03.000Z</time>
      </trkpt>
      <trkpt lat="43.61121" lon="3.87246">
        <ele>63.60999936</ele>
        <time>2020-09-26T08:15:04.000Z</time>
      </trkpt>
      <trkpt lat="43.61122" lon="3.87242">
        <ele>63.40999936</ele>
        <time>2020-09-26T08:15:05.000Z</time>
      </trkpt>
      <trkpt lat="43.61122" lon="3.87237">
        <ele>63.20999936</ele>
        <time>2020-09-26T08:15:06.000Z</time>
      </trkpt>
      <trkpt lat="43.61122" lon="3.87232">
        <ele>63.00999936</ele>
        <time>2020-09-26T08:15:07.000Z</time>
      </trkpt>
      <trkpt lat="43.61124" lon="3.87227">
        <ele>62.5249984</ele>
        <time>2020-09-26T08:15:08.000Z</time>
      </trkpt>
      <trkpt lat="43.61124" lon="3.87222">
        <ele>62.0249984</ele>
        <time>2020-09-26T08:15:09.000Z</time>
      </trkpt>
      <trkpt lat="43.61125" lon="3.87217">
        <ele>61.5249984</ele>
        <time>2020-09-26T08:15:10.000Z</time>
      </trkpt>
      <trkpt lat="43.61124" lon="3.87212">
        <ele>61.0249984</ele>
        <time>2020-09-26T08:15:11.000Z</time>
      </trkpt>
      <trkpt lat="43.61125" lon="3.87207">
        <ele>60.5249984</ele>
        <time>2020-09-26T08:15:12.000Z</time>
      </trkpt>
      <trkpt lat="43.61127" lon="3.87203">
        <ele>60.0249984</ele>
        <time>2020-09-26T08:15:13.000Z</time>
      </trkpt>
      <trkpt lat="43.61131" lon="3.87201">
        <ele>59.5249984</ele>
        <time>2020-09-26T08:15:14.000Z</time>
      </trkpt>
      <trkpt lat="43.61135" lon="3.872">
        <ele>59.0249984</ele>
        <time>2020-09-26T08:15:15.000Z</time>
      </trkpt>
      <trkpt lat="43.61139" lon="3.872">
        <ele>58.5249984</ele>
        <time>2020-09-26T08:15:16.000Z</time>
      </trkpt>
      <trkpt lat="43.61143" lon="3.872">
        <ele>58.0249984</ele>
        <time>2020-09-26T08:15:17.000Z</time>
      </trkpt>
      <trkpt lat="43.61148" lon="3.87201">
        <ele>57.5249984</ele>
        <time>2020-09-26T08:15:18.000Z</time>
      </trkpt>
      <trkpt lat="43.61153" lon="3.87201">
        <ele>57.0249984</ele>
        <time>2020-09-26T08:15:19.000Z</time>
      </trkpt>
      <trkpt lat="43.61159" lon="3.87201">
        <ele>56.5249984</ele>
        <time>2020-09-26T08:15:20.000Z</time>
      </trkpt>
      <trkpt lat="43.61164" lon="3.87201">
        <ele>56.0249984</ele>
        <time>2020-09-26T08:15:21.000Z</time>
      </trkpt>
      <trkpt lat="43.6117" lon="3.87201">
        <ele>55.5249984</ele>
        <time>2020-09-26T08:15:22.000Z</time>
      </trkpt>
      <trkpt lat="43.61176" lon="3.872">
        <ele>55.0249984</ele>
        <time>2020-09-26T08:15:23.000Z</time>
      </trkpt>
      <trkpt lat="43.61181" lon="3.87199">
        <ele>54.5249984</ele>
        <time>2020-09-26T08:15:24.000Z</time>
      </trkpt>
      <trkpt lat="43.61185" lon="3.87198">
        <ele>54.0249984</ele>
        <time>2020-09-26T08:15:25.000Z</time>
      </trkpt>
      <trkpt lat="43.61188" lon="3.87198">
        <ele>53.5249984</ele>
        <time>2020-09-26T08:15:26.000Z</time>
      </trkpt>
      <trkpt lat="43.61191" lon="3.87196">
        <ele>53.0249984</ele>
        <time>2020-09-26T08:15:27.000Z</time>
      </trkpt>
      <trkpt lat="43.61194" lon="3.87193">
        <ele>52.80999936</ele>
        <time>2020-09-26T08:15:28.000Z</time>
      </trkpt>
      <trkpt lat="43.61195" lon="3.87189">
        <ele>52.60999936</ele>
        <time>2020-09-26T08:15:29.000Z</time>
      </trkpt>
      <trkpt lat="43.61197" lon="3.87184">
        <ele>52.40999936</ele>
        <time>2020-09-26T08:15:30.000Z</time>
      </trkpt>
      <trkpt lat="43.61197" lon="3.87178">
        <ele>52.20999936</ele>
        <time>2020-09-26T08:15:31.000Z</time>
      </trkpt>
      <trkpt lat="43.61198" lon="3.87172">
        <ele>52.00999936</ele>
        <time>2020-09-26T08:15:32.000Z</time>
      </trkpt>
      <trkpt lat="43.61198" lon="3.87165">
        <ele>51.80999936</ele>
        <time>2020-09-26T08:15:33.000Z</time>
      </trkpt>
      <trkpt lat="43.61199" lon="3.87158">
        <ele>51.60999936</ele>
        <time>2020-09-26T08:15:34.000Z</time>
      </trkpt>
      <trkpt lat="43.612" lon="3.87151">
        <ele>51.40999936</ele>
        <time>2020-09-26T08:15:35.000Z</time>
      </trkpt>
      <trkpt lat="43.612" lon="3.87144">
        <ele>51.20999936</ele>
        <time>2020-09-26T08:15:36.000Z</time>
      </trkpt>
      <trkpt lat="43.61201" lon="3.87138">
        <ele>51.00999936</ele>
        <time>2020-09-26T08:15:37.000Z</time>
      </trkpt>
      <trkpt lat="43.61202" lon="3.87131">
        <ele>50.90499968</ele>
        <time>2020-09-26T08:15:38.000Z</time>
      </trkpt>
      <trkpt lat="43.61202" lon="3.87124">
        <ele>50.80499968</ele>
        <time>2020-09-26T08:15:39.000Z</time>
      </trkpt>
      <trkpt lat="43.61203" lon="3.87117">
        <ele>50.70499968</ele>
        <time>2020-09-26T08:15:40.000Z</time>
      </trkpt>
      <trkpt lat="43.61203" lon="3.87109">
        <ele>50.60499968</ele>
        <time>2020-09-26T08:15:41.000Z</time>
      </trkpt>
      <trkpt lat="43.61204" lon="3.87102">
        <ele>50.50499968</ele>
        <time>2020-09-26T08:15:42.000Z</time>
      </trkpt>
      <trkpt lat="43.61205" lon="3.87094">
        <ele>50.40499968</ele>
        <time>2020-09-26T08:15:43.000Z</time>
      </trkpt>
      <trkpt lat="43.61206" lon="3.87087">
        <ele>50.30499968</ele>
        <time>2020-09-26T08:15:44.000Z</time>
      </trkpt>
      <trkpt lat="43.61206" lon="3.87079">
        <ele>50.20499968</ele>
        <time>2020-09-26T08:15:45.000Z</time>
      </trkpt>
      <trkpt lat="43.61207" lon="3.87072">
        <ele>50.10499968</ele>
        <time>2020-09-26T08:15:46.000Z</time>
      </trkpt>
      <trkpt lat="43.61208" lon="3.87064">
        <ele>50.00499968</ele>
        <time>2020-09-26T08:15:47.000Z</time>
      </trkpt>
      <trkpt lat="43.61208" lon="3.87057">
        <ele>49.905094555075</ele>
        <time>2020-09-26T08:15:48.000Z</time>
      </trkpt>
      <trkpt lat="43.61209" lon="3.87049">
        <ele>49.805194423239</ele>
        <time>2020-09-26T08:15:49.000Z</time>
      </trkpt>
      <trkpt lat="43.6121" lon="3.87042">
        <ele>49.705294291403</ele>
        <time>2020-09-26T08:15:50.000Z</time>
      </trkpt>
      <trkpt lat="43.6121" lon="3.87035">
        <ele>49.605394159567</ele>
        <time>2020-09-26T08:15:51.000Z</time>
      </trkpt>
      <trkpt lat="43.61211" lon="3.87027">
        <ele>49.50549402773</ele>
        <time>2020-09-26T08:15:52.000Z</time>
      </trkpt>
      <trkpt lat="43.61211" lon="3.8702">
        <ele>49.405593895894</ele>
        <time>2020-09-26T08:15:53.000Z</time>
      </trkpt>
      <trkpt lat="43.61211" lon="3.87013">
        <ele>49.305693764058</ele>
        <time>2020-09-26T08:15:54.000Z</time>
      </trkpt>
      <trkpt lat="43.61212" lon="3.87005">
        <ele>49.205793632222</ele>
        <time>2020-09-26T08:15:55.000Z</time>
      </trkpt>
      <trkpt lat="43.61212" lon="3.86998">
        <ele>49.105893500385</ele>
        <time>2020-09-26T08:15:56.000Z</time>
      </trkpt>
      <trkpt lat="43.61213" lon="3.86991">
        <ele>49.005993368549</ele>
        <time>2020-09-26T08:15:57.000Z</time>
      </trkpt>
      <trkpt lat="43.61213" lon="3.86983">
        <ele>48.908559802572</ele>
        <time>2020-09-26T08:15:58.000Z</time>
      </trkpt>
      <trkpt lat="43.61214" lon="3.86976">
        <ele>48.811283659102</ele>
        <time>2020-09-26T08:15:59.000Z</time>
      </trkpt>
      <trkpt lat="43.61215" lon="3.86969">
        <ele>48.714007515633</ele>
        <time>2020-09-26T08:16:00.000Z</time>
      </trkpt>
      <trkpt lat="43.61215" lon="3.86961">
        <ele>48.616731372163</ele>
        <time>2020-09-26T08:16:01.000Z</time>
      </trkpt>
      <trkpt lat="43.61216" lon="3.86954">
        <ele>48.519455228694</ele>
        <time>2020-09-26T08:16:02.000Z</time>
      </trkpt>
      <trkpt lat="43.61216" lon="3.86947">
        <ele>48.422179085224</ele>
        <time>2020-09-26T08:16:03.000Z</time>
      </trkpt>
      <trkpt lat="43.61217" lon="3.86939">
        <ele>48.324902941755</ele>
        <time>2020-09-26T08:16:04.000Z</time>
      </trkpt>
      <trkpt lat="43.61217" lon="3.86932">
        <ele>48.227626798286</ele>
        <time>2020-09-26T08:16:05.000Z</time>
      </trkpt>
      <trkpt lat="43.61217" lon="3.86925">
        <ele>48.130350654816</ele>
        <time>2020-09-26T08:16:06.000Z</time>
      </trkpt>
      <trkpt lat="43.61218" lon="3.86917">
        <ele>48.033074511347</ele>
        <time>2020-09-26T08:16:07.000Z</time>
      </trkpt>
      <trkpt lat="43.61218" lon="3.8691">
        <ele>47.93400064</ele>
        <time>2020-09-26T08:16:08.000Z</time>
      </trkpt>
      <trkpt lat="43.61219" lon="3.86902">
        <ele>47.83400064</ele>
        <time>2020-09-26T08:16:09.000Z</time>
      </trkpt>
      <trkpt lat="43.61219" lon="3.86895">
        <ele>47.73400064</ele>
        <time>2020-09-26T08:16:10.000Z</time>
      </trkpt>
      <trkpt lat="43.61219" lon="3.86887">
        <ele>47.63400064</ele>
        <time>2020-09-26T08:16:11.000Z</time>
      </trkpt>
      <trkpt lat="43.6122" lon="3.8688">
        <ele>47.53400064</ele>
        <time>2020-09-26T08:16:12.000Z</time>
      </trkpt>
      <trkpt lat="43.6122" lon="3.86873">
        <ele>47.43400064</ele>
        <time>2020-09-26T08:16:13.000Z</time>
      </trkpt>
      <trkpt lat="43.61221" lon="3.86866">
        <ele>47.33400064</ele>
        <time>2020-09-26T08:16:14.000Z</time>
      </trkpt>
      <trkpt lat="43.61221" lon="3.86858">
        <ele>47.23400064</ele>
        <time>2020-09-26T08:16:15.000Z</time>
      </trkpt>
      <trkpt lat="43.61222" lon="3.86851">
        <ele>47.13400064</ele>
        <time>2020-09-26T08:16:16.000Z</time>
      </trkpt>
      <trkpt lat="43.61222" lon="3.86844">
        <ele>47.03400064</ele>
        <time>2020-09-26T08:16:17.000Z</time>
      </trkpt>
      <trkpt lat="43.61222" lon="3.86837">
        <ele>46.86405885633</ele>
        <time>2020-09-26T08:16:18.000Z</time>
      </trkpt>
      <trkpt lat="43.61222" lon="3.8683">
        <ele>46.658085429209</ele>
        <time>2020-09-26T08:16:19.000Z</time>
      </trkpt>
      <trkpt lat="43.61221" lon="3.86822">
        <ele>46.452112002088</ele>
        <time>2020-09-26T08:16:20.000Z</time>
      </trkpt>
      <trkpt lat="43.61221" lon="3.86815">
        <ele>46.246138574967</ele>
        <time>2020-09-26T08:16:21.000Z</time>
      </trkpt>
      <trkpt lat="43.61221" lon="3.86807">
        <ele>46.040165147846</ele>
        <time>2020-09-26T08:16:22.000Z</time>
      </trkpt>
      <trkpt lat="43.61218" lon="3.868">
        <ele>45.834191720725</ele>
        <time>2020-09-26T08:16:23.000Z</time>
      </trkpt>
      <trkpt lat="43.61215" lon="3.86793">
        <ele>45.628218293604</ele>
        <time>2020-09-26T08:16:24.000Z</time>
      </trkpt>
      <trkpt lat="43.61211" lon="3.86786">
        <ele>45.422244866483</ele>
        <time>2020-09-26T08:16:25.000Z</time>
      </trkpt>
      <trkpt lat="43.61208" lon="3.86778">
        <ele>45.216271439362</ele>
        <time>2020-09-26T08:16:26.000Z</time>
      </trkpt>
      <trkpt lat="43.61207" lon="3.8677">
        <ele>45.010298012241</ele>
        <time>2020-09-26T08:16:27.000Z</time>
      </trkpt>
      <trkpt lat="43.61206" lon="3.86761">
        <ele>44.90499968</ele>
        <time>2020-09-26T08:16:28.000Z</time>
      </trkpt>
      <trkpt lat="43.61206" lon="3.86752">
        <ele>44.80499968</ele>
        <time>2020-09-26T08:16:29.000Z</time>
      </trkpt>
      <trkpt lat="43.61206" lon="3.86744">
        <ele>44.70499968</ele>
        <time>2020-09-26T08:16:30.000Z</time>
      </trkpt>
      <trkpt lat="43.61206" lon="3.86735">
        <ele>44.60499968</ele>
        <time>2020-09-26T08:16:31.000Z</time>
      </trkpt>
      <trkpt lat="43.61207" lon="3.86727">
        <ele>44.50499968</ele>
        <time>2020-09-26T08:16:32.000Z</time>
      </trkpt>
      <trkpt lat="43.61207" lon="3.86718">
        <ele>44.40499968</ele>
        <time>2020-09-26T08:16:33.000Z</time>
      </trkpt>
      <trkpt lat="43.61207" lon="3.8671">
        <ele>44.30499968</ele>
        <time>2020-09-26T08:16:34.000Z</time>
      </trkpt>
      <trkpt lat="43.61207" lon="3.86702">
        <ele>44.20499968</ele>
        <time>2020-09-26T08:16:35.000Z</time>
      </trkpt>
      <trkpt lat="43.61208" lon="3.86695">
        <ele>44.10499968</ele>
        <time>2020-09-26T08:16:36.000Z</time>
      </trkpt>
      <trkpt lat="43.61208" lon="3.8669">
        <ele>44.00499968</ele>
        <time>2020-09-26T08:16:37.000Z</time>
      </trkpt>
      <trkpt lat="43.61208" lon="3.86687">
        <ele>44</ele>
        <time>2020-09-26T08:16:38.000Z</time>
      </trkpt>
      <trkpt lat="43.61209" lon="3.86684">
        <ele>44</ele>
        <time>2020-09-26T08:16:41.000Z</time>
      </trkpt>
      <trkpt lat="43.6121" lon="3.86679">
        <ele>44</ele>
        <time>2020-09-26T08:16:43.000Z</time>
      </trkpt>
      <trkpt lat="43.61209" lon="3.86675">
        <ele>44</ele>
        <time>2020-09-26T08:16:44.000Z</time>
      </trkpt>
      <trkpt lat="43.61208" lon="3.86672">
        <ele>44</ele>
        <time>2020-09-26T08:16:45.000Z</time>
      </trkpt>
      <trkpt lat="43.61206" lon="3.86667">
        <ele>44</ele>
        <time>2020-09-26T08:16:46.000Z</time>
      </trkpt>
      <trkpt lat="43.61205" lon="3.86663">
        <ele>44</ele>
        <time>2020-09-26T08:16:47.000Z</time>
      </trkpt>
      <trkpt lat="43.61203" lon="3.86659">
        <ele>43.80999936</ele>
        <time>2020-09-26T08:16:48.000Z</time>
      </trkpt>
      <trkpt lat="43.61201" lon="3.86656">
        <ele>43.60999936</ele>
        <time>2020-09-26T08:16:49.000Z</time>
      </trkpt>
      <trkpt lat="43.61197" lon="3.86654">
        <ele>43.40999936</ele>
        <time>2020-09-26T08:16:50.000Z</time>
      </trkpt>
      <trkpt lat="43.61193" lon="3.86654">
        <ele>43.20999936</ele>
        <time>2020-09-26T08:16:51.000Z</time>
      </trkpt>
      <trkpt lat="43.6119" lon="3.86654">
        <ele>43.00999936</ele>
        <time>2020-09-26T08:16:52.000Z</time>
      </trkpt>
      <trkpt lat="43.61186" lon="3.86654">
        <ele>42.80999936</ele>
        <time>2020-09-26T08:16:53.000Z</time>
      </trkpt>
      <trkpt lat="43.61183" lon="3.86653">
        <ele>42.60999936</ele>
        <time>2020-09-26T08:16:54.000Z</time>
      </trkpt>
      <trkpt lat="43.6118" lon="3.86652">
        <ele>42.40999936</ele>
        <time>2020-09-26T08:16:55.000Z</time>
      </trkpt>
      <trkpt lat="43.61176" lon="3.86652">
        <ele>42.20999936</ele>
        <time>2020-09-26T08:16:56.000Z</time>
      </trkpt>
      <trkpt lat="43.61172" lon="3.86652">
        <ele>42.00999936</ele>
        <time>2020-09-26T08:16:57.000Z</time>
      </trkpt>
      <trkpt lat="43.61168" lon="3.86652">
        <ele>42</ele>
        <time>2020-09-26T08:16:58.000Z</time>
      </trkpt>
      <trkpt lat="43.61164" lon="3.86651">
        <ele>42</ele>
        <time>2020-09-26T08:16:59.000Z</time>
      </trkpt>
      <trkpt lat="43.61161" lon="3.86651">
        <ele>42</ele>
        <time>2020-09-26T08:17:00.000Z</time>
      </trkpt>
      <trkpt lat="43.61157" lon="3.86651">
        <ele>42</ele>
        <time>2020-09-26T08:17:01.000Z</time>
      </trkpt>
      <trkpt lat="43.61153" lon="3.86651">
        <ele>42</ele>
        <time>2020-09-26T08:17:02.000Z</time>
      </trkpt>
      <trkpt lat="43.6115" lon="3.86649">
        <ele>42</ele>
        <time>2020-09-26T08:17:03.000Z</time>
      </trkpt>
      <trkpt lat="43.61148" lon="3.86646">
        <ele>42</ele>
        <time>2020-09-26T08:17:04.000Z</time>
      </trkpt>
      <trkpt lat="43.61146" lon="3.86641">
        <ele>42</ele>
        <time>2020-09-26T08:17:05.000Z</time>
      </trkpt>
      <trkpt lat="43.61146" lon="3.86636">
        <ele>42</ele>
        <time>2020-09-26T08:17:06.000Z</time>
      </trkpt>
      <trkpt lat="43.61146" lon="3.86632">
        <ele>42</ele>
        <time>2020-09-26T08:17:07.000Z</time>
      </trkpt>
      <trkpt lat="43.61146" lon="3.86627">
        <ele>42</ele>
        <time>2020-09-26T08:17:08.000Z</time>
      </trkpt>
      <trkpt lat="43.61146" lon="3.86622">
        <ele>42</ele>
        <time>2020-09-26T08:17:09.000Z</time>
      </trkpt>
      <trkpt lat="43.61147" lon="3.86618">
        <ele>42</ele>
        <time>2020-09-26T08:17:10.000Z</time>
      </trkpt>
      <trkpt lat="43.61147" lon="3.86613">
        <ele>42</ele>
        <time>2020-09-26T08:17:11.000Z</time>
      </trkpt>
      <trkpt lat="43.61147" lon="3.8661">
        <ele>42</ele>
        <time>2020-09-26T08:17:12.000Z</time>
      </trkpt>
      <trkpt lat="43.61147" lon="3.86607">
        <ele>42</ele>
        <time>2020-09-26T08:17:13.000Z</time>
      </trkpt>
      <trkpt lat="43.61147" lon="3.86603">
        <ele>42</ele>
        <time>2020-09-26T08:17:14.000Z</time>
      </trkpt>
      <trkpt lat="43.61147" lon="3.86599">
        <ele>42</ele>
        <time>2020-09-26T08:17:15.000Z</time>
      </trkpt>
      <trkpt lat="43.61147" lon="3.86595">
        <ele>42</ele>
        <time>2020-09-26T08:17:16.000Z</time>
      </trkpt>
      <trkpt lat="43.61147" lon="3.86591">
        <ele>42</ele>
        <time>2020-09-26T08:17:17.000Z</time>
      </trkpt>
      <trkpt lat="43.61147" lon="3.86586">
        <ele>42</ele>
        <time>2020-09-26T08:17:18.000Z</time>
      </trkpt>
      <trkpt lat="43.61148" lon="3.86581">
        <ele>42</ele>
        <time>2020-09-26T08:17:19.000Z</time>
      </trkpt>
      <trkpt lat="43.61148" lon="3.86577">
        <ele>42</ele>
        <time>2020-09-26T08:17:20.000Z</time>
      </trkpt>
      <trkpt lat="43.61149" lon="3.86572">
        <ele>42</ele>
        <time>2020-09-26T08:17:21.000Z</time>
      </trkpt>
      <trkpt lat="43.61149" lon="3.86567">
        <ele>42</ele>
        <time>2020-09-26T08:17:22.000Z</time>
      </trkpt>
      <trkpt lat="43.61149" lon="3.86563">
        <ele>42</ele>
        <time>2020-09-26T08:17:23.000Z</time>
      </trkpt>
      <trkpt lat="43.6115" lon="3.86558">
        <ele>42</ele>
        <time>2020-09-26T08:17:24.000Z</time>
      </trkpt>
      <trkpt lat="43.6115" lon="3.86554">
        <ele>42</ele>
        <time>2020-09-26T08:17:25.000Z</time>
      </trkpt>
      <trkpt lat="43.6115" lon="3.86549">
        <ele>42</ele>
        <time>2020-09-26T08:17:26.000Z</time>
      </trkpt>
      <trkpt lat="43.6115" lon="3.86544">
        <ele>42</ele>
        <time>2020-09-26T08:17:27.000Z</time>
      </trkpt>
      <trkpt lat="43.6115" lon="3.86539">
        <ele>42.092157374548</ele>
        <time>2020-09-26T08:17:28.000Z</time>
      </trkpt>
      <trkpt lat="43.6115" lon="3.86534">
        <ele>42.190196467204</ele>
        <time>2020-09-26T08:17:29.000Z</time>
      </trkpt>
      <trkpt lat="43.61151" lon="3.86529">
        <ele>42.288235559861</ele>
        <time>2020-09-26T08:17:30.000Z</time>
      </trkpt>
      <trkpt lat="43.61151" lon="3.86525">
        <ele>42.386274652518</ele>
        <time>2020-09-26T08:17:31.000Z</time>
      </trkpt>
      <trkpt lat="43.61151" lon="3.8652">
        <ele>42.484313745175</ele>
        <time>2020-09-26T08:17:32.000Z</time>
      </trkpt>
      <trkpt lat="43.61151" lon="3.86516">
        <ele>42.582352837832</ele>
        <time>2020-09-26T08:17:33.000Z</time>
      </trkpt>
      <trkpt lat="43.61152" lon="3.86512">
        <ele>42.680391930489</ele>
        <time>2020-09-26T08:17:34.000Z</time>
      </trkpt>
      <trkpt lat="43.61152" lon="3.8651">
        <ele>42.778431023145</ele>
        <time>2020-09-26T08:17:35.000Z</time>
      </trkpt>
      <trkpt lat="43.61153" lon="3.86506">
        <ele>42.974509208459</ele>
        <time>2020-09-26T08:17:37.000Z</time>
      </trkpt>
      <trkpt lat="43.61154" lon="3.86503">
        <ele>43.355463801068</ele>
        <time>2020-09-26T08:17:39.000Z</time>
      </trkpt>
      <trkpt lat="43.61155" lon="3.86499">
        <ele>43.76404438558</ele>
        <time>2020-09-26T08:17:41.000Z</time>
      </trkpt>
      <trkpt lat="43.61155" lon="3.86494">
        <ele>44.172624970092</ele>
        <time>2020-09-26T08:17:43.000Z</time>
      </trkpt>
      <trkpt lat="43.61155" lon="3.86492">
        <ele>44.376915262348</ele>
        <time>2020-09-26T08:17:44.000Z</time>
      </trkpt>
      <trkpt lat="43.61156" lon="3.86488">
        <ele>44.581205554604</ele>
        <time>2020-09-26T08:17:45.000Z</time>
      </trkpt>
      <trkpt lat="43.61156" lon="3.86484">
        <ele>44.78549584686</ele>
        <time>2020-09-26T08:17:46.000Z</time>
      </trkpt>
      <trkpt lat="43.61156" lon="3.8648">
        <ele>44.989786139116</ele>
        <time>2020-09-26T08:17:47.000Z</time>
      </trkpt>
      <trkpt lat="43.61157" lon="3.86476">
        <ele>45.09500032</ele>
        <time>2020-09-26T08:17:48.000Z</time>
      </trkpt>
      <trkpt lat="43.61157" lon="3.86473">
        <ele>45.19500032</ele>
        <time>2020-09-26T08:17:49.000Z</time>
      </trkpt>
      <trkpt lat="43.61157" lon="3.86469">
        <ele>45.29500032</ele>
        <time>2020-09-26T08:17:50.000Z</time>
      </trkpt>
      <trkpt lat="43.61158" lon="3.86464">
        <ele>45.39500032</ele>
        <time>2020-09-26T08:17:51.000Z</time>
      </trkpt>
      <trkpt lat="43.61159" lon="3.86459">
        <ele>45.49500032</ele>
        <time>2020-09-26T08:17:52.000Z</time>
      </trkpt>
      <trkpt lat="43.61159" lon="3.86454">
        <ele>45.59500032</ele>
        <time>2020-09-26T08:17:53.000Z</time>
      </trkpt>
      <trkpt lat="43.61159" lon="3.86449">
        <ele>45.69500032</ele>
        <time>2020-09-26T08:17:54.000Z</time>
      </trkpt>
      <trkpt lat="43.6116" lon="3.86444">
        <ele>45.79500032</ele>
        <time>2020-09-26T08:17:55.000Z</time>
      </trkpt>
      <trkpt lat="43.6116" lon="3.8644">
        <ele>45.89500032</ele>
        <time>2020-09-26T08:17:56.000Z</time>
      </trkpt>
      <trkpt lat="43.6116" lon="3.86434">
        <ele>45.99500032</ele>
        <time>2020-09-26T08:17:57.000Z</time>
      </trkpt>
      <trkpt lat="43.6116" lon="3.86429">
        <ele>46</ele>
        <time>2020-09-26T08:17:58.000Z</time>
      </trkpt>
      <trkpt lat="43.6116" lon="3.86424">
        <ele>46</ele>
        <time>2020-09-26T08:17:59.000Z</time>
      </trkpt>
      <trkpt lat="43.61161" lon="3.86419">
        <ele>46</ele>
        <time>2020-09-26T08:18:00.000Z</time>
      </trkpt>
      <trkpt lat="43.61162" lon="3.86413">
        <ele>46</ele>
        <time>2020-09-26T08:18:01.000Z</time>
      </trkpt>
      <trkpt lat="43.61162" lon="3.86408">
        <ele>46</ele>
        <time>2020-09-26T08:18:02.000Z</time>
      </trkpt>
      <trkpt lat="43.61163" lon="3.86403">
        <ele>46</ele>
        <time>2020-09-26T08:18:03.000Z</time>
      </trkpt>
      <trkpt lat="43.61164" lon="3.86398">
        <ele>46</ele>
        <time>2020-09-26T08:18:04.000Z</time>
      </trkpt>
      <trkpt lat="43.61166" lon="3.86393">
        <ele>46</ele>
        <time>2020-09-26T08:18:05.000Z</time>
      </trkpt>
      <trkpt lat="43.61166" lon="3.86388">
        <ele>46</ele>
        <time>2020-09-26T08:18:06.000Z</time>
      </trkpt>
      <trkpt lat="43.61165" lon="3.86383">
        <ele>46</ele>
        <time>2020-09-26T08:18:07.000Z</time>
      </trkpt>
      <trkpt lat="43.61165" lon="3.86378">
        <ele>46</ele>
        <time>2020-09-26T08:18:08.000Z</time>
      </trkpt>
      <trkpt lat="43.61165" lon="3.86372">
        <ele>46</ele>
        <time>2020-09-26T08:18:09.000Z</time>
      </trkpt>
      <trkpt lat="43.61165" lon="3.86367">
        <ele>46</ele>
        <time>2020-09-26T08:18:10.000Z</time>
      </trkpt>
      <trkpt lat="43.61165" lon="3.86362">
        <ele>46</ele>
        <time>2020-09-26T08:18:11.000Z</time>
      </trkpt>
      <trkpt lat="43.61165" lon="3.86357">
        <ele>46</ele>
        <time>2020-09-26T08:18:12.000Z</time>
      </trkpt>
      <trkpt lat="43.61166" lon="3.86352">
        <ele>46</ele>
        <time>2020-09-26T08:18:13.000Z</time>
      </trkpt>
      <trkpt lat="43.61166" lon="3.86347">
        <ele>46</ele>
        <time>2020-09-26T08:18:14.000Z</time>
      </trkpt>
      <trkpt lat="43.61167" lon="3.86342">
        <ele>46</ele>
        <time>2020-09-26T08:18:15.000Z</time>
      </trkpt>
      <trkpt lat="43.61167" lon="3.86337">
        <ele>46</ele>
        <time>2020-09-26T08:18:16.000Z</time>
      </trkpt>
      <trkpt lat="43.61167" lon="3.86332">
        <ele>46</ele>
        <time>2020-09-26T08:18:17.000Z</time>
      </trkpt>
      <trkpt lat="43.61168" lon="3.86327">
        <ele>46</ele>
        <time>2020-09-26T08:18:18.000Z</time>
      </trkpt>
      <trkpt lat="43.61168" lon="3.86322">
        <ele>46</ele>
        <time>2020-09-26T08:18:19.000Z</time>
      </trkpt>
      <trkpt lat="43.61168" lon="3.86317">
        <ele>46</ele>
        <time>2020-09-26T08:18:20.000Z</time>
      </trkpt>
      <trkpt lat="43.61169" lon="3.86312">
        <ele>46</ele>
        <time>2020-09-26T08:18:21.000Z</time>
      </trkpt>
      <trkpt lat="43.6117" lon="3.86308">
        <ele>46</ele>
        <time>2020-09-26T08:18:22.000Z</time>
      </trkpt>
      <trkpt lat="43.61171" lon="3.86304">
        <ele>46</ele>
        <time>2020-09-26T08:18:23.000Z</time>
      </trkpt>
      <trkpt lat="43.61171" lon="3.86299">
        <ele>46</ele>
        <time>2020-09-26T08:18:24.000Z</time>
      </trkpt>
      <trkpt lat="43.61171" lon="3.86294">
        <ele>46</ele>
        <time>2020-09-26T08:18:25.000Z</time>
      </trkpt>
      <trkpt lat="43.61171" lon="3.86289">
        <ele>46</ele>
        <time>2020-09-26T08:18:26.000Z</time>
      </trkpt>
      <trkpt lat="43.61171" lon="3.86284">
        <ele>46</ele>
        <time>2020-09-26T08:18:27.000Z</time>
      </trkpt>
      <trkpt lat="43.61172" lon="3.86279">
        <ele>46.092322868192</ele>
        <time>2020-09-26T08:18:28.000Z</time>
      </trkpt>
      <trkpt lat="43.61173" lon="3.86274">
        <ele>46.189504507362</ele>
        <time>2020-09-26T08:18:29.000Z</time>
      </trkpt>
      <trkpt lat="43.61173" lon="3.8627">
        <ele>46.286686146532</ele>
        <time>2020-09-26T08:18:30.000Z</time>
      </trkpt>
      <trkpt lat="43.61174" lon="3.86266">
        <ele>46.383867785702</ele>
        <time>2020-09-26T08:18:31.000Z</time>
      </trkpt>
      <trkpt lat="43.61174" lon="3.86262">
        <ele>46.481049424871</ele>
        <time>2020-09-26T08:18:32.000Z</time>
      </trkpt>
      <trkpt lat="43.61175" lon="3.86257">
        <ele>46.578231064041</ele>
        <time>2020-09-26T08:18:33.000Z</time>
      </trkpt>
      <trkpt lat="43.61175" lon="3.86252">
        <ele>46.675412703211</ele>
        <time>2020-09-26T08:18:34.000Z</time>
      </trkpt>
      <trkpt lat="43.61175" lon="3.86247">
        <ele>46.77259434238</ele>
        <time>2020-09-26T08:18:35.000Z</time>
      </trkpt>
      <trkpt lat="43.61175" lon="3.86241">
        <ele>46.86977598155</ele>
        <time>2020-09-26T08:18:36.000Z</time>
      </trkpt>
      <trkpt lat="43.61175" lon="3.86236">
        <ele>46.96695762072</ele>
        <time>2020-09-26T08:18:37.000Z</time>
      </trkpt>
      <trkpt lat="43.61176" lon="3.86231">
        <ele>47.067970571835</ele>
        <time>2020-09-26T08:18:38.000Z</time>
      </trkpt>
      <trkpt lat="43.61176" lon="3.86226">
        <ele>47.170957285396</ele>
        <time>2020-09-26T08:18:39.000Z</time>
      </trkpt>
      <trkpt lat="43.61176" lon="3.8622">
        <ele>47.273943998956</ele>
        <time>2020-09-26T08:18:40.000Z</time>
      </trkpt>
      <trkpt lat="43.61177" lon="3.86215">
        <ele>47.376930712516</ele>
        <time>2020-09-26T08:18:41.000Z</time>
      </trkpt>
      <trkpt lat="43.61177" lon="3.86211">
        <ele>47.479917426077</ele>
        <time>2020-09-26T08:18:42.000Z</time>
      </trkpt>
      <trkpt lat="43.61176" lon="3.86206">
        <ele>47.582904139637</ele>
        <time>2020-09-26T08:18:43.000Z</time>
      </trkpt>
      <trkpt lat="43.61175" lon="3.86202">
        <ele>47.685890853198</ele>
        <time>2020-09-26T08:18:44.000Z</time>
      </trkpt>
      <trkpt lat="43.61173" lon="3.86197">
        <ele>47.788877566759</ele>
        <time>2020-09-26T08:18:45.000Z</time>
      </trkpt>
      <trkpt lat="43.61172" lon="3.86192">
        <ele>47.891864280319</ele>
        <time>2020-09-26T08:18:46.000Z</time>
      </trkpt>
      <trkpt lat="43.61171" lon="3.86187">
        <ele>47.99485099388</ele>
        <time>2020-09-26T08:18:47.000Z</time>
      </trkpt>
      <trkpt lat="43.6117" lon="3.86183">
        <ele>48.09500032</ele>
        <time>2020-09-26T08:18:48.000Z</time>
      </trkpt>
      <trkpt lat="43.61169" lon="3.86178">
        <ele>48.19500032</ele>
        <time>2020-09-26T08:18:49.000Z</time>
      </trkpt>
      <trkpt lat="43.61168" lon="3.86173">
        <ele>48.29500032</ele>
        <time>2020-09-26T08:18:50.000Z</time>
      </trkpt>
      <trkpt lat="43.61167" lon="3.86168">
        <ele>48.39500032</ele>
        <time>2020-09-26T08:18:51.000Z</time>
      </trkpt>
      <trkpt lat="43.61166" lon="3.86163">
        <ele>48.49500032</ele>
        <time>2020-09-26T08:18:52.000Z</time>
      </trkpt>
      <trkpt lat="43.61165" lon="3.86159">
        <ele>48.59500032</ele>
        <time>2020-09-26T08:18:53.000Z</time>
      </trkpt>
      <trkpt lat="43.61164" lon="3.86154">
        <ele>48.69500032</ele>
        <time>2020-09-26T08:18:54.000Z</time>
      </trkpt>
      <trkpt lat="43.61163" lon="3.8615">
        <ele>48.79500032</ele>
        <time>2020-09-26T08:18:55.000Z</time>
      </trkpt>
      <trkpt lat="43.61162" lon="3.86146">
        <ele>48.89500032</ele>
        <time>2020-09-26T08:18:56.000Z</time>
      </trkpt>
      <trkpt lat="43.61161" lon="3.86142">
        <ele>48.99500032</ele>
        <time>2020-09-26T08:18:57.000Z</time>
      </trkpt>
      <trkpt lat="43.6116" lon="3.86138">
        <ele>49</ele>
        <time>2020-09-26T08:18:58.000Z</time>
      </trkpt>
      <trkpt lat="43.61159" lon="3.86135">
        <ele>49</ele>
        <time>2020-09-26T08:18:59.000Z</time>
      </trkpt>
      <trkpt lat="43.61158" lon="3.86131">
        <ele>49</ele>
        <time>2020-09-26T08:19:00.000Z</time>
      </trkpt>
      <trkpt lat="43.61157" lon="3.86126">
        <ele>49</ele>
        <time>2020-09-26T08:19:01.000Z</time>
      </trkpt>
      <trkpt lat="43.61157" lon="3.86123">
        <ele>49</ele>
        <time>2020-09-26T08:19:02.000Z</time>
      </trkpt>
      <trkpt lat="43.61157" lon="3.8612">
        <ele>49</ele>
        <time>2020-09-26T08:19:03.000Z</time>
      </trkpt>
      <trkpt lat="43.61159" lon="3.86116">
        <ele>49</ele>
        <time>2020-09-26T08:19:04.000Z</time>
      </trkpt>
      <trkpt lat="43.61161" lon="3.86114">
        <ele>49</ele>
        <time>2020-09-26T08:19:05.000Z</time>
      </trkpt>
      <trkpt lat="43.61163" lon="3.86113">
        <ele>49</ele>
        <time>2020-09-26T08:19:06.000Z</time>
      </trkpt>
      <trkpt lat="43.61166" lon="3.86112">
        <ele>49</ele>
        <time>2020-09-26T08:19:07.000Z</time>
      </trkpt>
      <trkpt lat="43.61168" lon="3.86112">
        <ele>48.60999936</ele>
        <time>2020-09-26T08:19:09.000Z</time>
      </trkpt>
      <trkpt lat="43.6117" lon="3.86111">
        <ele>48.20999936</ele>
        <time>2020-09-26T08:19:11.000Z</time>
      </trkpt>
      <trkpt lat="43.61172" lon="3.8611">
        <ele>47.80999936</ele>
        <time>2020-09-26T08:19:13.000Z</time>
      </trkpt>
      <trkpt lat="43.61174" lon="3.8611">
        <ele>47.40999936</ele>
        <time>2020-09-26T08:19:15.000Z</time>
      </trkpt>
      <trkpt lat="43.61177" lon="3.86112">
        <ele>47.20999936</ele>
        <time>2020-09-26T08:19:16.000Z</time>
      </trkpt>
      <trkpt lat="43.61179" lon="3.86117">
        <ele>47.00999936</ele>
        <time>2020-09-26T08:19:17.000Z</time>
      </trkpt>
      <trkpt lat="43.61182" lon="3.86122">
        <ele>47</ele>
        <time>2020-09-26T08:19:18.000Z</time>
      </trkpt>
      <trkpt lat="43.61184" lon="3.86128">
        <ele>47</ele>
        <time>2020-09-26T08:19:19.000Z</time>
      </trkpt>
      <trkpt lat="43.61185" lon="3.86134">
        <ele>47</ele>
        <time>2020-09-26T08:19:20.000Z</time>
      </trkpt>
      <trkpt lat="43.61187" lon="3.8614">
        <ele>47</ele>
        <time>2020-09-26T08:19:21.000Z</time>
      </trkpt>
      <trkpt lat="43.61189" lon="3.86146">
        <ele>47</ele>
        <time>2020-09-26T08:19:22.000Z</time>
      </trkpt>
      <trkpt lat="43.61191" lon="3.86152">
        <ele>47</ele>
        <time>2020-09-26T08:19:23.000Z</time>
      </trkpt>
      <trkpt lat="43.61193" lon="3.86157">
        <ele>47</ele>
        <time>2020-09-26T08:19:24.000Z</time>
      </trkpt>
      <trkpt lat="43.61195" lon="3.86161">
        <ele>47</ele>
        <time>2020-09-26T08:19:25.000Z</time>
      </trkpt>
      <trkpt lat="43.61197" lon="3.86163">
        <ele>47</ele>
        <time>2020-09-26T08:19:26.000Z</time>
      </trkpt>
      <trkpt lat="43.61198" lon="3.86164">
        <ele>47</ele>
        <time>2020-09-26T08:19:29.000Z</time>
      </trkpt>
      <trkpt lat="43.61199" lon="3.86162">
        <ele>47</ele>
        <time>2020-09-26T08:19:31.000Z</time>
      </trkpt>
      <trkpt lat="43.61199" lon="3.86159">
        <ele>47</ele>
        <time>2020-09-26T08:19:32.000Z</time>
      </trkpt>
      <trkpt lat="43.61199" lon="3.86156">
        <ele>47</ele>
        <time>2020-09-26T08:19:33.000Z</time>
      </trkpt>
      <trkpt lat="43.612" lon="3.86153">
        <ele>47</ele>
        <time>2020-09-26T08:19:35.000Z</time>
      </trkpt>
      <trkpt lat="43.612" lon="3.86149">
        <ele>47</ele>
        <time>2020-09-26T08:19:37.000Z</time>
      </trkpt>
      <trkpt lat="43.61201" lon="3.86144">
        <ele>47</ele>
        <time>2020-09-26T08:19:39.000Z</time>
      </trkpt>
      <trkpt lat="43.61202" lon="3.86141">
        <ele>47</ele>
        <time>2020-09-26T08:19:40.000Z</time>
      </trkpt>
      <trkpt lat="43.61204" lon="3.86138">
        <ele>47</ele>
        <time>2020-09-26T08:19:41.000Z</time>
      </trkpt>
      <trkpt lat="43.61206" lon="3.86135">
        <ele>47</ele>
        <time>2020-09-26T08:19:42.000Z</time>
      </trkpt>
      <trkpt lat="43.61208" lon="3.86132">
        <ele>47</ele>
        <time>2020-09-26T08:19:43.000Z</time>
      </trkpt>
      <trkpt lat="43.61209" lon="3.86129">
        <ele>47</ele>
        <time>2020-09-26T08:19:44.000Z</time>
      </trkpt>
      <trkpt lat="43.6121" lon="3.86124">
        <ele>47</ele>
        <time>2020-09-26T08:19:45.000Z</time>
      </trkpt>
      <trkpt lat="43.61211" lon="3.86119">
        <ele>47</ele>
        <time>2020-09-26T08:19:46.000Z</time>
      </trkpt>
      <trkpt lat="43.61212" lon="3.86114">
        <ele>47</ele>
        <time>2020-09-26T08:19:47.000Z</time>
      </trkpt>
      <trkpt lat="43.61212" lon="3.86109">
        <ele>47.084934304529</ele>
        <time>2020-09-26T08:19:48.000Z</time>
      </trkpt>
      <trkpt lat="43.61213" lon="3.86105">
        <ele>47.186046571825</ele>
        <time>2020-09-26T08:19:49.000Z</time>
      </trkpt>
      <trkpt lat="43.61214" lon="3.861">
        <ele>47.287158839121</ele>
        <time>2020-09-26T08:19:50.000Z</time>
      </trkpt>
      <trkpt lat="43.61215" lon="3.86095">
        <ele>47.388271106417</ele>
        <time>2020-09-26T08:19:51.000Z</time>
      </trkpt>
      <trkpt lat="43.61216" lon="3.86091">
        <ele>47.489383373714</ele>
        <time>2020-09-26T08:19:52.000Z</time>
      </trkpt>
      <trkpt lat="43.61217" lon="3.86086">
        <ele>47.59049564101</ele>
        <time>2020-09-26T08:19:53.000Z</time>
      </trkpt>
      <trkpt lat="43.61219" lon="3.86081">
        <ele>47.691607908306</ele>
        <time>2020-09-26T08:19:54.000Z</time>
      </trkpt>
      <trkpt lat="43.61221" lon="3.86076">
        <ele>47.792720175602</ele>
        <time>2020-09-26T08:19:55.000Z</time>
      </trkpt>
      <trkpt lat="43.61222" lon="3.8607">
        <ele>47.893832442898</ele>
        <time>2020-09-26T08:19:56.000Z</time>
      </trkpt>
      <trkpt lat="43.61223" lon="3.86065">
        <ele>47.994944710194</ele>
        <time>2020-09-26T08:19:57.000Z</time>
      </trkpt>
      <trkpt lat="43.61225" lon="3.86059">
        <ele>48.09500032</ele>
        <time>2020-09-26T08:19:58.000Z</time>
      </trkpt>
      <trkpt lat="43.61227" lon="3.86054">
        <ele>48.19500032</ele>
        <time>2020-09-26T08:19:59.000Z</time>
      </trkpt>
      <trkpt lat="43.61229" lon="3.8605">
        <ele>48.29500032</ele>
        <time>2020-09-26T08:20:00.000Z</time>
      </trkpt>
      <trkpt lat="43.61231" lon="3.86045">
        <ele>48.39500032</ele>
        <time>2020-09-26T08:20:01.000Z</time>
      </trkpt>
      <trkpt lat="43.61233" lon="3.86041">
        <ele>48.49500032</ele>
        <time>2020-09-26T08:20:02.000Z</time>
      </trkpt>
      <trkpt lat="43.61236" lon="3.86038">
        <ele>48.59500032</ele>
        <time>2020-09-26T08:20:03.000Z</time>
      </trkpt>
      <trkpt lat="43.6124" lon="3.86034">
        <ele>48.69500032</ele>
        <time>2020-09-26T08:20:04.000Z</time>
      </trkpt>
      <trkpt lat="43.61243" lon="3.8603">
        <ele>48.79500032</ele>
        <time>2020-09-26T08:20:05.000Z</time>
      </trkpt>
      <trkpt lat="43.61245" lon="3.86025">
        <ele>48.89500032</ele>
        <time>2020-09-26T08:20:06.000Z</time>
      </trkpt>
      <trkpt lat="43.61247" lon="3.8602">
        <ele>48.99500032</ele>
        <time>2020-09-26T08:20:07.000Z</time>
      </trkpt>
      <trkpt lat="43.61249" lon="3.86016">
        <ele>49.09500032</ele>
        <time>2020-09-26T08:20:08.000Z</time>
      </trkpt>
      <trkpt lat="43.61251" lon="3.8601">
        <ele>49.19500032</ele>
        <time>2020-09-26T08:20:09.000Z</time>
      </trkpt>
      <trkpt lat="43.61253" lon="3.86005">
        <ele>49.29500032</ele>
        <time>2020-09-26T08:20:10.000Z</time>
      </trkpt>
      <trkpt lat="43.61255" lon="3.86">
        <ele>49.39500032</ele>
        <time>2020-09-26T08:20:11.000Z</time>
      </trkpt>
      <trkpt lat="43.61257" lon="3.85994">
        <ele>49.49500032</ele>
        <time>2020-09-26T08:20:12.000Z</time>
      </trkpt>
      <trkpt lat="43.61259" lon="3.85989">
        <ele>49.59500032</ele>
        <time>2020-09-26T08:20:13.000Z</time>
      </trkpt>
      <trkpt lat="43.61261" lon="3.85983">
        <ele>49.69500032</ele>
        <time>2020-09-26T08:20:14.000Z</time>
      </trkpt>
      <trkpt lat="43.61264" lon="3.85978">
        <ele>49.79500032</ele>
        <time>2020-09-26T08:20:15.000Z</time>
      </trkpt>
      <trkpt lat="43.61266" lon="3.85973">
        <ele>49.89500032</ele>
        <time>2020-09-26T08:20:16.000Z</time>
      </trkpt>
      <trkpt lat="43.61269" lon="3.85968">
        <ele>49.99500032</ele>
        <time>2020-09-26T08:20:17.000Z</time>
      </trkpt>
      <trkpt lat="43.61272" lon="3.85964">
        <ele>49.90499968</ele>
        <time>2020-09-26T08:20:18.000Z</time>
      </trkpt>
      <trkpt lat="43.61275" lon="3.85959">
        <ele>49.80499968</ele>
        <time>2020-09-26T08:20:19.000Z</time>
      </trkpt>
      <trkpt lat="43.61278" lon="3.85956">
        <ele>49.70499968</ele>
        <time>2020-09-26T08:20:20.000Z</time>
      </trkpt>
      <trkpt lat="43.61281" lon="3.85952">
        <ele>49.60499968</ele>
        <time>2020-09-26T08:20:21.000Z</time>
      </trkpt>
      <trkpt lat="43.61284" lon="3.85948">
        <ele>49.50499968</ele>
        <time>2020-09-26T08:20:22.000Z</time>
      </trkpt>
      <trkpt lat="43.61288" lon="3.85944">
        <ele>49.40499968</ele>
        <time>2020-09-26T08:20:23.000Z</time>
      </trkpt>
      <trkpt lat="43.61291" lon="3.8594">
        <ele>49.30499968</ele>
        <time>2020-09-26T08:20:24.000Z</time>
      </trkpt>
      <trkpt lat="43.61296" lon="3.85936">
        <ele>49.20499968</ele>
        <time>2020-09-26T08:20:25.000Z</time>
      </trkpt>
      <trkpt lat="43.613" lon="3.85933">
        <ele>49.10499968</ele>
        <time>2020-09-26T08:20:26.000Z</time>
      </trkpt>
      <trkpt lat="43.61304" lon="3.85929">
        <ele>49.00499968</ele>
        <time>2020-09-26T08:20:27.000Z</time>
      </trkpt>
      <trkpt lat="43.61307" lon="3.85926">
        <ele>48.80999936</ele>
        <time>2020-09-26T08:20:28.000Z</time>
      </trkpt>
      <trkpt lat="43.61311" lon="3.85922">
        <ele>48.60999936</ele>
        <time>2020-09-26T08:20:29.000Z</time>
      </trkpt>
      <trkpt lat="43.61314" lon="3.85918">
        <ele>48.40999936</ele>
        <time>2020-09-26T08:20:30.000Z</time>
      </trkpt>
      <trkpt lat="43.61318" lon="3.85914">
        <ele>48.20999936</ele>
        <time>2020-09-26T08:20:31.000Z</time>
      </trkpt>
      <trkpt lat="43.61321" lon="3.8591">
        <ele>48.00999936</ele>
        <time>2020-09-26T08:20:32.000Z</time>
      </trkpt>
      <trkpt lat="43.61325" lon="3.85906">
        <ele>47.80999936</ele>
        <time>2020-09-26T08:20:33.000Z</time>
      </trkpt>
      <trkpt lat="43.61328" lon="3.85902">
        <ele>47.60999936</ele>
        <time>2020-09-26T08:20:34.000Z</time>
      </trkpt>
      <trkpt lat="43.61332" lon="3.85898">
        <ele>47.40999936</ele>
        <time>2020-09-26T08:20:35.000Z</time>
      </trkpt>
      <trkpt lat="43.61335" lon="3.85894">
        <ele>47.20999936</ele>
        <time>2020-09-26T08:20:36.000Z</time>
      </trkpt>
      <trkpt lat="43.61339" lon="3.8589">
        <ele>47.00999936</ele>
        <time>2020-09-26T08:20:37.000Z</time>
      </trkpt>
      <trkpt lat="43.61342" lon="3.85887">
        <ele>46.909350839695</ele>
        <time>2020-09-26T08:20:38.000Z</time>
      </trkpt>
      <trkpt lat="43.61345" lon="3.85883">
        <ele>46.813930992366</ele>
        <time>2020-09-26T08:20:39.000Z</time>
      </trkpt>
      <trkpt lat="43.61348" lon="3.85879">
        <ele>46.718511145038</ele>
        <time>2020-09-26T08:20:40.000Z</time>
      </trkpt>
      <trkpt lat="43.61351" lon="3.85875">
        <ele>46.62309129771</ele>
        <time>2020-09-26T08:20:41.000Z</time>
      </trkpt>
      <trkpt lat="43.61354" lon="3.85872">
        <ele>46.527671450382</ele>
        <time>2020-09-26T08:20:42.000Z</time>
      </trkpt>
      <trkpt lat="43.61357" lon="3.85869">
        <ele>46.432251603053</ele>
        <time>2020-09-26T08:20:43.000Z</time>
      </trkpt>
      <trkpt lat="43.6136" lon="3.85866">
        <ele>46.336831755725</ele>
        <time>2020-09-26T08:20:44.000Z</time>
      </trkpt>
      <trkpt lat="43.61364" lon="3.85861">
        <ele>46.241411908397</ele>
        <time>2020-09-26T08:20:45.000Z</time>
      </trkpt>
      <trkpt lat="43.61368" lon="3.85857">
        <ele>46.145992061069</ele>
        <time>2020-09-26T08:20:46.000Z</time>
      </trkpt>
      <trkpt lat="43.61372" lon="3.85853">
        <ele>46.050572213741</ele>
        <time>2020-09-26T08:20:47.000Z</time>
      </trkpt>
      <trkpt lat="43.61376" lon="3.85849">
        <ele>46.049370084034</ele>
        <time>2020-09-26T08:20:48.000Z</time>
      </trkpt>
      <trkpt lat="43.6138" lon="3.85845">
        <ele>46.15441210084</ele>
        <time>2020-09-26T08:20:49.000Z</time>
      </trkpt>
      <trkpt lat="43.61383" lon="3.85841">
        <ele>46.259454117647</ele>
        <time>2020-09-26T08:20:50.000Z</time>
      </trkpt>
      <trkpt lat="43.61387" lon="3.85837">
        <ele>46.364496134454</ele>
        <time>2020-09-26T08:20:51.000Z</time>
      </trkpt>
      <trkpt lat="43.6139" lon="3.85833">
        <ele>46.469538151261</ele>
        <time>2020-09-26T08:20:52.000Z</time>
      </trkpt>
      <trkpt lat="43.61393" lon="3.8583">
        <ele>46.574580168067</ele>
        <time>2020-09-26T08:20:53.000Z</time>
      </trkpt>
      <trkpt lat="43.61396" lon="3.85826">
        <ele>46.679622184874</ele>
        <time>2020-09-26T08:20:54.000Z</time>
      </trkpt>
      <trkpt lat="43.61399" lon="3.85822">
        <ele>46.784664201681</ele>
        <time>2020-09-26T08:20:55.000Z</time>
      </trkpt>
      <trkpt lat="43.61402" lon="3.85818">
        <ele>46.889706218487</ele>
        <time>2020-09-26T08:20:56.000Z</time>
      </trkpt>
      <trkpt lat="43.61405" lon="3.85815">
        <ele>46.994748235294</ele>
        <time>2020-09-26T08:20:57.000Z</time>
      </trkpt>
      <trkpt lat="43.61409" lon="3.85811">
        <ele>47.09500032</ele>
        <time>2020-09-26T08:20:58.000Z</time>
      </trkpt>
      <trkpt lat="43.61412" lon="3.85807">
        <ele>47.19500032</ele>
        <time>2020-09-26T08:20:59.000Z</time>
      </trkpt>
      <trkpt lat="43.61416" lon="3.85803">
        <ele>47.29500032</ele>
        <time>2020-09-26T08:21:00.000Z</time>
      </trkpt>
      <trkpt lat="43.61419" lon="3.85799">
        <ele>47.39500032</ele>
        <time>2020-09-26T08:21:01.000Z</time>
      </trkpt>
      <trkpt lat="43.61422" lon="3.85795">
        <ele>47.49500032</ele>
        <time>2020-09-26T08:21:02.000Z</time>
      </trkpt>
      <trkpt lat="43.61426" lon="3.85791">
        <ele>47.59500032</ele>
        <time>2020-09-26T08:21:03.000Z</time>
      </trkpt>
      <trkpt lat="43.61429" lon="3.85788">
        <ele>47.69500032</ele>
        <time>2020-09-26T08:21:04.000Z</time>
      </trkpt>
      <trkpt lat="43.61432" lon="3.85783">
        <ele>47.79500032</ele>
        <time>2020-09-26T08:21:05.000Z</time>
      </trkpt>
      <trkpt lat="43.61435" lon="3.85779">
        <ele>47.89500032</ele>
        <time>2020-09-26T08:21:06.000Z</time>
      </trkpt>
      <trkpt lat="43.61439" lon="3.85775">
        <ele>47.99500032</ele>
        <time>2020-09-26T08:21:07.000Z</time>
      </trkpt>
      <trkpt lat="43.61442" lon="3.85771">
        <ele>48</ele>
        <time>2020-09-26T08:21:08.000Z</time>
      </trkpt>
      <trkpt lat="43.61446" lon="3.85767">
        <ele>48</ele>
        <time>2020-09-26T08:21:09.000Z</time>
      </trkpt>
      <trkpt lat="43.61449" lon="3.85763">
        <ele>48</ele>
        <time>2020-09-26T08:21:10.000Z</time>
      </trkpt>
      <trkpt lat="43.61452" lon="3.85759">
        <ele>48</ele>
        <time>2020-09-26T08:21:11.000Z</time>
      </trkpt>
      <trkpt lat="43.61456" lon="3.85755">
        <ele>48</ele>
        <time>2020-09-26T08:21:12.000Z</time>
      </trkpt>
      <trkpt lat="43.61459" lon="3.85751">
        <ele>48</ele>
        <time>2020-09-26T08:21:13.000Z</time>
      </trkpt>
      <trkpt lat="43.61463" lon="3.85747">
        <ele>48</ele>
        <time>2020-09-26T08:21:14.000Z</time>
      </trkpt>
      <trkpt lat="43.61466" lon="3.85743">
        <ele>48</ele>
        <time>2020-09-26T08:21:15.000Z</time>
      </trkpt>
      <trkpt lat="43.6147" lon="3.85739">
        <ele>48</ele>
        <time>2020-09-26T08:21:16.000Z</time>
      </trkpt>
      <trkpt lat="43.61473" lon="3.85735">
        <ele>48</ele>
        <time>2020-09-26T08:21:17.000Z</time>
      </trkpt>
      <trkpt lat="43.61477" lon="3.85731">
        <ele>47.906679508571</ele>
        <time>2020-09-26T08:21:18.000Z</time>
      </trkpt>
      <trkpt lat="43.6148" lon="3.85727">
        <ele>47.808447743216</ele>
        <time>2020-09-26T08:21:19.000Z</time>
      </trkpt>
      <trkpt lat="43.61483" lon="3.85723">
        <ele>47.71021597786</ele>
        <time>2020-09-26T08:21:20.000Z</time>
      </trkpt>
      <trkpt lat="43.61487" lon="3.85718">
        <ele>47.611984212505</ele>
        <time>2020-09-26T08:21:21.000Z</time>
      </trkpt>
      <trkpt lat="43.6149" lon="3.85715">
        <ele>47.51375244715</ele>
        <time>2020-09-26T08:21:22.000Z</time>
      </trkpt>
      <trkpt lat="43.61494" lon="3.85711">
        <ele>47.415520681794</ele>
        <time>2020-09-26T08:21:23.000Z</time>
      </trkpt>
      <trkpt lat="43.61497" lon="3.85707">
        <ele>47.317288916439</ele>
        <time>2020-09-26T08:21:24.000Z</time>
      </trkpt>
      <trkpt lat="43.615" lon="3.85703">
        <ele>47.219057151084</ele>
        <time>2020-09-26T08:21:25.000Z</time>
      </trkpt>
      <trkpt lat="43.61503" lon="3.85699">
        <ele>47.120825385729</ele>
        <time>2020-09-26T08:21:26.000Z</time>
      </trkpt>
      <trkpt lat="43.61506" lon="3.85695">
        <ele>47.022593620373</ele>
        <time>2020-09-26T08:21:27.000Z</time>
      </trkpt>
      <trkpt lat="43.61509" lon="3.85692">
        <ele>47.078411130533</ele>
        <time>2020-09-26T08:21:28.000Z</time>
      </trkpt>
      <trkpt lat="43.61512" lon="3.85688">
        <ele>47.180244190791</ele>
        <time>2020-09-26T08:21:29.000Z</time>
      </trkpt>
      <trkpt lat="43.61515" lon="3.85684">
        <ele>47.282077251048</ele>
        <time>2020-09-26T08:21:30.000Z</time>
      </trkpt>
      <trkpt lat="43.61518" lon="3.85679">
        <ele>47.383910311306</ele>
        <time>2020-09-26T08:21:31.000Z</time>
      </trkpt>
      <trkpt lat="43.61521" lon="3.85676">
        <ele>47.485743371564</ele>
        <time>2020-09-26T08:21:32.000Z</time>
      </trkpt>
      <trkpt lat="43.61524" lon="3.85672">
        <ele>47.587576431822</ele>
        <time>2020-09-26T08:21:33.000Z</time>
      </trkpt>
      <trkpt lat="43.61527" lon="3.85668">
        <ele>47.689409492079</ele>
        <time>2020-09-26T08:21:34.000Z</time>
      </trkpt>
      <trkpt lat="43.6153" lon="3.85664">
        <ele>47.791242552337</ele>
        <time>2020-09-26T08:21:35.000Z</time>
      </trkpt>
      <trkpt lat="43.61534" lon="3.8566">
        <ele>47.893075612595</ele>
        <time>2020-09-26T08:21:36.000Z</time>
      </trkpt>
      <trkpt lat="43.61537" lon="3.85657">
        <ele>47.994908672853</ele>
        <time>2020-09-26T08:21:37.000Z</time>
      </trkpt>
      <trkpt lat="43.6154" lon="3.85653">
        <ele>48</ele>
        <time>2020-09-26T08:21:38.000Z</time>
      </trkpt>
      <trkpt lat="43.61543" lon="3.8565">
        <ele>48</ele>
        <time>2020-09-26T08:21:39.000Z</time>
      </trkpt>
      <trkpt lat="43.61546" lon="3.85647">
        <ele>48</ele>
        <time>2020-09-26T08:21:40.000Z</time>
      </trkpt>
      <trkpt lat="43.61549" lon="3.85644">
        <ele>48</ele>
        <time>2020-09-26T08:21:41.000Z</time>
      </trkpt>
      <trkpt lat="43.61551" lon="3.85641">
        <ele>48</ele>
        <time>2020-09-26T08:21:42.000Z</time>
      </trkpt>
      <trkpt lat="43.61553" lon="3.85639">
        <ele>48</ele>
        <time>2020-09-26T08:21:43.000Z</time>
      </trkpt>
      <trkpt lat="43.61555" lon="3.85636">
        <ele>48</ele>
        <time>2020-09-26T08:21:44.000Z</time>
      </trkpt>
      <trkpt lat="43.61557" lon="3.85634">
        <ele>48</ele>
        <time>2020-09-26T08:21:45.000Z</time>
      </trkpt>
      <trkpt lat="43.61559" lon="3.85633">
        <ele>48</ele>
        <time>2020-09-26T08:21:46.000Z</time>
      </trkpt>
      <trkpt lat="43.61562" lon="3.85631">
        <ele>48.09500032</ele>
        <time>2020-09-26T08:21:48.000Z</time>
      </trkpt>
      <trkpt lat="43.61564" lon="3.85629">
        <ele>48.19500032</ele>
        <time>2020-09-26T08:21:49.000Z</time>
      </trkpt>
      <trkpt lat="43.61566" lon="3.85626">
        <ele>48.29500032</ele>
        <time>2020-09-26T08:21:50.000Z</time>
      </trkpt>
      <trkpt lat="43.61569" lon="3.85623">
        <ele>48.39500032</ele>
        <time>2020-09-26T08:21:51.000Z</time>
      </trkpt>
      <trkpt lat="43.61571" lon="3.8562">
        <ele>48.49500032</ele>
        <time>2020-09-26T08:21:52.000Z</time>
      </trkpt>
      <trkpt lat="43.61573" lon="3.85617">
        <ele>48.59500032</ele>
        <time>2020-09-26T08:21:53.000Z</time>
      </trkpt>
      <trkpt lat="43.61576" lon="3.85613">
        <ele>48.69500032</ele>
        <time>2020-09-26T08:21:54.000Z</time>
      </trkpt>
      <trkpt lat="43.61578" lon="3.85609">
        <ele>48.79500032</ele>
        <time>2020-09-26T08:21:55.000Z</time>
      </trkpt>
      <trkpt lat="43.61581" lon="3.85606">
        <ele>48.89500032</ele>
        <time>2020-09-26T08:21:56.000Z</time>
      </trkpt>
      <trkpt lat="43.61584" lon="3.85603">
        <ele>48.99500032</ele>
        <time>2020-09-26T08:21:57.000Z</time>
      </trkpt>
      <trkpt lat="43.61587" lon="3.856">
        <ele>49</ele>
        <time>2020-09-26T08:21:58.000Z</time>
      </trkpt>
      <trkpt lat="43.61589" lon="3.85596">
        <ele>49</ele>
        <time>2020-09-26T08:21:59.000Z</time>
      </trkpt>
      <trkpt lat="43.61592" lon="3.85593">
        <ele>49</ele>
        <time>2020-09-26T08:22:00.000Z</time>
      </trkpt>
      <trkpt lat="43.61595" lon="3.8559">
        <ele>49</ele>
        <time>2020-09-26T08:22:01.000Z</time>
      </trkpt>
      <trkpt lat="43.61598" lon="3.85587">
        <ele>49</ele>
        <time>2020-09-26T08:22:02.000Z</time>
      </trkpt>
      <trkpt lat="43.61601" lon="3.85584">
        <ele>49</ele>
        <time>2020-09-26T08:22:03.000Z</time>
      </trkpt>
      <trkpt lat="43.61604" lon="3.85581">
        <ele>49</ele>
        <time>2020-09-26T08:22:04.000Z</time>
      </trkpt>
      <trkpt lat="43.61606" lon="3.85578">
        <ele>49</ele>
        <time>2020-09-26T08:22:05.000Z</time>
      </trkpt>
      <trkpt lat="43.61609" lon="3.85575">
        <ele>49</ele>
        <time>2020-09-26T08:22:06.000Z</time>
      </trkpt>
      <trkpt lat="43.61612" lon="3.85572">
        <ele>49</ele>
        <time>2020-09-26T08:22:07.000Z</time>
      </trkpt>
      <trkpt lat="43.61614" lon="3.85568">
        <ele>49</ele>
        <time>2020-09-26T08:22:08.000Z</time>
      </trkpt>
      <trkpt lat="43.61616" lon="3.85565">
        <ele>49</ele>
        <time>2020-09-26T08:22:09.000Z</time>
      </trkpt>
      <trkpt lat="43.61619" lon="3.85562">
        <ele>49</ele>
        <time>2020-09-26T08:22:10.000Z</time>
      </trkpt>
      <trkpt lat="43.61622" lon="3.85558">
        <ele>49</ele>
        <time>2020-09-26T08:22:11.000Z</time>
      </trkpt>
      <trkpt lat="43.61624" lon="3.85555">
        <ele>49</ele>
        <time>2020-09-26T08:22:12.000Z</time>
      </trkpt>
      <trkpt lat="43.61627" lon="3.85552">
        <ele>49</ele>
        <time>2020-09-26T08:22:13.000Z</time>
      </trkpt>
      <trkpt lat="43.6163" lon="3.85549">
        <ele>49</ele>
        <time>2020-09-26T08:22:14.000Z</time>
      </trkpt>
      <trkpt lat="43.61633" lon="3.85546">
        <ele>49</ele>
        <time>2020-09-26T08:22:15.000Z</time>
      </trkpt>
      <trkpt lat="43.61636" lon="3.85542">
        <ele>49</ele>
        <time>2020-09-26T08:22:16.000Z</time>
      </trkpt>
      <trkpt lat="43.61639" lon="3.85539">
        <ele>49</ele>
        <time>2020-09-26T08:22:17.000Z</time>
      </trkpt>
      <trkpt lat="43.61641" lon="3.85536">
        <ele>49</ele>
        <time>2020-09-26T08:22:18.000Z</time>
      </trkpt>
      <trkpt lat="43.61644" lon="3.85533">
        <ele>49</ele>
        <time>2020-09-26T08:22:19.000Z</time>
      </trkpt>
      <trkpt lat="43.61647" lon="3.8553">
        <ele>49</ele>
        <time>2020-09-26T08:22:20.000Z</time>
      </trkpt>
      <trkpt lat="43.6165" lon="3.85527">
        <ele>49</ele>
        <time>2020-09-26T08:22:21.000Z</time>
      </trkpt>
      <trkpt lat="43.61653" lon="3.85523">
        <ele>49</ele>
        <time>2020-09-26T08:22:22.000Z</time>
      </trkpt>
      <trkpt lat="43.61656" lon="3.8552">
        <ele>49</ele>
        <time>2020-09-26T08:22:23.000Z</time>
      </trkpt>
      <trkpt lat="43.61658" lon="3.85516">
        <ele>49</ele>
        <time>2020-09-26T08:22:24.000Z</time>
      </trkpt>
      <trkpt lat="43.61661" lon="3.85513">
        <ele>49</ele>
        <time>2020-09-26T08:22:25.000Z</time>
      </trkpt>
      <trkpt lat="43.61664" lon="3.85509">
        <ele>49</ele>
        <time>2020-09-26T08:22:26.000Z</time>
      </trkpt>
      <trkpt lat="43.61667" lon="3.85506">
        <ele>49</ele>
        <time>2020-09-26T08:22:27.000Z</time>
      </trkpt>
      <trkpt lat="43.6167" lon="3.85503">
        <ele>49</ele>
        <time>2020-09-26T08:22:28.000Z</time>
      </trkpt>
      <trkpt lat="43.61673" lon="3.85499">
        <ele>49</ele>
        <time>2020-09-26T08:22:29.000Z</time>
      </trkpt>
      <trkpt lat="43.61675" lon="3.85496">
        <ele>49</ele>
        <time>2020-09-26T08:22:30.000Z</time>
      </trkpt>
      <trkpt lat="43.61678" lon="3.85493">
        <ele>49</ele>
        <time>2020-09-26T08:22:31.000Z</time>
      </trkpt>
      <trkpt lat="43.61681" lon="3.8549">
        <ele>49</ele>
        <time>2020-09-26T08:22:32.000Z</time>
      </trkpt>
      <trkpt lat="43.61684" lon="3.85486">
        <ele>49</ele>
        <time>2020-09-26T08:22:33.000Z</time>
      </trkpt>
      <trkpt lat="43.61686" lon="3.85483">
        <ele>49</ele>
        <time>2020-09-26T08:22:34.000Z</time>
      </trkpt>
      <trkpt lat="43.61689" lon="3.8548">
        <ele>49</ele>
        <time>2020-09-26T08:22:35.000Z</time>
      </trkpt>
      <trkpt lat="43.61692" lon="3.85477">
        <ele>49</ele>
        <time>2020-09-26T08:22:36.000Z</time>
      </trkpt>
      <trkpt lat="43.61695" lon="3.85474">
        <ele>49</ele>
        <time>2020-09-26T08:22:37.000Z</time>
      </trkpt>
      <trkpt lat="43.61697" lon="3.85471">
        <ele>49</ele>
        <time>2020-09-26T08:22:38.000Z</time>
      </trkpt>
      <trkpt lat="43.617" lon="3.85468">
        <ele>49</ele>
        <time>2020-09-26T08:22:39.000Z</time>
      </trkpt>
      <trkpt lat="43.61703" lon="3.85465">
        <ele>49</ele>
        <time>2020-09-26T08:22:40.000Z</time>
      </trkpt>
      <trkpt lat="43.61705" lon="3.85461">
        <ele>49</ele>
        <time>2020-09-26T08:22:41.000Z</time>
      </trkpt>
      <trkpt lat="43.61708" lon="3.85458">
        <ele>49</ele>
        <time>2020-09-26T08:22:42.000Z</time>
      </trkpt>
      <trkpt lat="43.61711" lon="3.85454">
        <ele>49</ele>
        <time>2020-09-26T08:22:43.000Z</time>
      </trkpt>
      <trkpt lat="43.61714" lon="3.8545">
        <ele>49</ele>
        <time>2020-09-26T08:22:44.000Z</time>
      </trkpt>
      <trkpt lat="43.61716" lon="3.85447">
        <ele>49</ele>
        <time>2020-09-26T08:22:45.000Z</time>
      </trkpt>
      <trkpt lat="43.61719" lon="3.85443">
        <ele>49</ele>
        <time>2020-09-26T08:22:46.000Z</time>
      </trkpt>
      <trkpt lat="43.61722" lon="3.8544">
        <ele>49</ele>
        <time>2020-09-26T08:22:47.000Z</time>
      </trkpt>
      <trkpt lat="43.61725" lon="3.85436">
        <ele>49</ele>
        <time>2020-09-26T08:22:48.000Z</time>
      </trkpt>
      <trkpt lat="43.61728" lon="3.85433">
        <ele>49</ele>
        <time>2020-09-26T08:22:49.000Z</time>
      </trkpt>
      <trkpt lat="43.61731" lon="3.8543">
        <ele>49</ele>
        <time>2020-09-26T08:22:50.000Z</time>
      </trkpt>
      <trkpt lat="43.61734" lon="3.85426">
        <ele>49</ele>
        <time>2020-09-26T08:22:51.000Z</time>
      </trkpt>
      <trkpt lat="43.61737" lon="3.85423">
        <ele>49</ele>
        <time>2020-09-26T08:22:52.000Z</time>
      </trkpt>
      <trkpt lat="43.61739" lon="3.85419">
        <ele>49</ele>
        <time>2020-09-26T08:22:53.000Z</time>
      </trkpt>
      <trkpt lat="43.61742" lon="3.85416">
        <ele>49</ele>
        <time>2020-09-26T08:22:54.000Z</time>
      </trkpt>
      <trkpt lat="43.61745" lon="3.85412">
        <ele>49</ele>
        <time>2020-09-26T08:22:55.000Z</time>
      </trkpt>
      <trkpt lat="43.61748" lon="3.85409">
        <ele>49</ele>
        <time>2020-09-26T08:22:56.000Z</time>
      </trkpt>
      <trkpt lat="43.61751" lon="3.85405">
        <ele>49</ele>
        <time>2020-09-26T08:22:57.000Z</time>
      </trkpt>
      <trkpt lat="43.61753" lon="3.85402">
        <ele>49.067970571835</ele>
        <time>2020-09-26T08:22:58.000Z</time>
      </trkpt>
      <trkpt lat="43.61756" lon="3.85398">
        <ele>49.170957285396</ele>
        <time>2020-09-26T08:22:59.000Z</time>
      </trkpt>
      <trkpt lat="43.61758" lon="3.85393">
        <ele>49.273943998956</ele>
        <time>2020-09-26T08:23:00.000Z</time>
      </trkpt>
      <trkpt lat="43.6176" lon="3.85389">
        <ele>49.376930712516</ele>
        <time>2020-09-26T08:23:01.000Z</time>
      </trkpt>
      <trkpt lat="43.61763" lon="3.85384">
        <ele>49.479917426077</ele>
        <time>2020-09-26T08:23:02.000Z</time>
      </trkpt>
      <trkpt lat="43.61765" lon="3.8538">
        <ele>49.582904139637</ele>
        <time>2020-09-26T08:23:03.000Z</time>
      </trkpt>
      <trkpt lat="43.61768" lon="3.85375">
        <ele>49.685890853198</ele>
        <time>2020-09-26T08:23:04.000Z</time>
      </trkpt>
      <trkpt lat="43.6177" lon="3.8537">
        <ele>49.788877566759</ele>
        <time>2020-09-26T08:23:05.000Z</time>
      </trkpt>
      <trkpt lat="43.61773" lon="3.85366">
        <ele>49.891864280319</ele>
        <time>2020-09-26T08:23:06.000Z</time>
      </trkpt>
      <trkpt lat="43.61776" lon="3.85362">
        <ele>49.99485099388</ele>
        <time>2020-09-26T08:23:07.000Z</time>
      </trkpt>
      <trkpt lat="43.6178" lon="3.85359">
        <ele>49.90499968</ele>
        <time>2020-09-26T08:23:08.000Z</time>
      </trkpt>
      <trkpt lat="43.61784" lon="3.85356">
        <ele>49.80499968</ele>
        <time>2020-09-26T08:23:09.000Z</time>
      </trkpt>
      <trkpt lat="43.61788" lon="3.85354">
        <ele>49.70499968</ele>
        <time>2020-09-26T08:23:10.000Z</time>
      </trkpt>
      <trkpt lat="43.61792" lon="3.85351">
        <ele>49.60499968</ele>
        <time>2020-09-26T08:23:11.000Z</time>
      </trkpt>
      <trkpt lat="43.61796" lon="3.85349">
        <ele>49.50499968</ele>
        <time>2020-09-26T08:23:12.000Z</time>
      </trkpt>
      <trkpt lat="43.61801" lon="3.85346">
        <ele>49.40499968</ele>
        <time>2020-09-26T08:23:13.000Z</time>
      </trkpt>
      <trkpt lat="43.61805" lon="3.85344">
        <ele>49.30499968</ele>
        <time>2020-09-26T08:23:14.000Z</time>
      </trkpt>
      <trkpt lat="43.61809" lon="3.85341">
        <ele>49.20499968</ele>
        <time>2020-09-26T08:23:15.000Z</time>
      </trkpt>
      <trkpt lat="43.61814" lon="3.85338">
        <ele>49.10499968</ele>
        <time>2020-09-26T08:23:16.000Z</time>
      </trkpt>
      <trkpt lat="43.61818" lon="3.85336">
        <ele>49.00499968</ele>
        <time>2020-09-26T08:23:17.000Z</time>
      </trkpt>
      <trkpt lat="43.61823" lon="3.85333">
        <ele>48.905094555075</ele>
        <time>2020-09-26T08:23:18.000Z</time>
      </trkpt>
      <trkpt lat="43.61827" lon="3.85329">
        <ele>48.805194423239</ele>
        <time>2020-09-26T08:23:19.000Z</time>
      </trkpt>
      <trkpt lat="43.61831" lon="3.85326">
        <ele>48.705294291403</ele>
        <time>2020-09-26T08:23:20.000Z</time>
      </trkpt>
      <trkpt lat="43.61836" lon="3.85323">
        <ele>48.605394159567</ele>
        <time>2020-09-26T08:23:21.000Z</time>
      </trkpt>
      <trkpt lat="43.6184" lon="3.8532">
        <ele>48.50549402773</ele>
        <time>2020-09-26T08:23:22.000Z</time>
      </trkpt>
      <trkpt lat="43.61844" lon="3.85316">
        <ele>48.405593895894</ele>
        <time>2020-09-26T08:23:23.000Z</time>
      </trkpt>
      <trkpt lat="43.61848" lon="3.85313">
        <ele>48.305693764058</ele>
        <time>2020-09-26T08:23:24.000Z</time>
      </trkpt>
      <trkpt lat="43.61852" lon="3.8531">
        <ele>48.205793632222</ele>
        <time>2020-09-26T08:23:25.000Z</time>
      </trkpt>
      <trkpt lat="43.61855" lon="3.85306">
        <ele>48.105893500385</ele>
        <time>2020-09-26T08:23:26.000Z</time>
      </trkpt>
      <trkpt lat="43.61859" lon="3.85303">
        <ele>48.005993368549</ele>
        <time>2020-09-26T08:23:27.000Z</time>
      </trkpt>
      <trkpt lat="43.61863" lon="3.85299">
        <ele>48.09400064</ele>
        <time>2020-09-26T08:23:28.000Z</time>
      </trkpt>
      <trkpt lat="43.61866" lon="3.85296">
        <ele>48.19400064</ele>
        <time>2020-09-26T08:23:29.000Z</time>
      </trkpt>
      <trkpt lat="43.6187" lon="3.85292">
        <ele>48.29400064</ele>
        <time>2020-09-26T08:23:30.000Z</time>
      </trkpt>
      <trkpt lat="43.61873" lon="3.85288">
        <ele>48.39400064</ele>
        <time>2020-09-26T08:23:31.000Z</time>
      </trkpt>
      <trkpt lat="43.61876" lon="3.85283">
        <ele>48.49400064</ele>
        <time>2020-09-26T08:23:32.000Z</time>
      </trkpt>
      <trkpt lat="43.61879" lon="3.85279">
        <ele>48.59400064</ele>
        <time>2020-09-26T08:23:33.000Z</time>
      </trkpt>
      <trkpt lat="43.61882" lon="3.85274">
        <ele>48.69400064</ele>
        <time>2020-09-26T08:23:34.000Z</time>
      </trkpt>
      <trkpt lat="43.61885" lon="3.8527">
        <ele>48.79400064</ele>
        <time>2020-09-26T08:23:35.000Z</time>
      </trkpt>
      <trkpt lat="43.61888" lon="3.85265">
        <ele>48.89400064</ele>
        <time>2020-09-26T08:23:36.000Z</time>
      </trkpt>
      <trkpt lat="43.61891" lon="3.8526">
        <ele>48.99400064</ele>
        <time>2020-09-26T08:23:37.000Z</time>
      </trkpt>
      <trkpt lat="43.61894" lon="3.85255">
        <ele>48.90599936</ele>
        <time>2020-09-26T08:23:38.000Z</time>
      </trkpt>
      <trkpt lat="43.61898" lon="3.8525">
        <ele>48.80599936</ele>
        <time>2020-09-26T08:23:39.000Z</time>
      </trkpt>
      <trkpt lat="43.61901" lon="3.85245">
        <ele>48.70599936</ele>
        <time>2020-09-26T08:23:40.000Z</time>
      </trkpt>
      <trkpt lat="43.61904" lon="3.8524">
        <ele>48.60599936</ele>
        <time>2020-09-26T08:23:41.000Z</time>
      </trkpt>
      <trkpt lat="43.61907" lon="3.85235">
        <ele>48.50599936</ele>
        <time>2020-09-26T08:23:42.000Z</time>
      </trkpt>
      <trkpt lat="43.61911" lon="3.85231">
        <ele>48.40599936</ele>
        <time>2020-09-26T08:23:43.000Z</time>
      </trkpt>
      <trkpt lat="43.61914" lon="3.85225">
        <ele>48.30599936</ele>
        <time>2020-09-26T08:23:44.000Z</time>
      </trkpt>
      <trkpt lat="43.61917" lon="3.8522">
        <ele>48.20599936</ele>
        <time>2020-09-26T08:23:45.000Z</time>
      </trkpt>
      <trkpt lat="43.6192" lon="3.85215">
        <ele>48.10599936</ele>
        <time>2020-09-26T08:23:46.000Z</time>
      </trkpt>
      <trkpt lat="43.61924" lon="3.85209">
        <ele>48.00599936</ele>
        <time>2020-09-26T08:23:47.000Z</time>
      </trkpt>
      <trkpt lat="43.61927" lon="3.85204">
        <ele>48</ele>
        <time>2020-09-26T08:23:48.000Z</time>
      </trkpt>
      <trkpt lat="43.6193" lon="3.85199">
        <ele>48</ele>
        <time>2020-09-26T08:23:49.000Z</time>
      </trkpt>
      <trkpt lat="43.61934" lon="3.85194">
        <ele>48</ele>
        <time>2020-09-26T08:23:50.000Z</time>
      </trkpt>
      <trkpt lat="43.61937" lon="3.85188">
        <ele>48</ele>
        <time>2020-09-26T08:23:51.000Z</time>
      </trkpt>
      <trkpt lat="43.61941" lon="3.85183">
        <ele>48</ele>
        <time>2020-09-26T08:23:52.000Z</time>
      </trkpt>
      <trkpt lat="43.61944" lon="3.85178">
        <ele>48</ele>
        <time>2020-09-26T08:23:53.000Z</time>
      </trkpt>
      <trkpt lat="43.61947" lon="3.85173">
        <ele>48</ele>
        <time>2020-09-26T08:23:54.000Z</time>
      </trkpt>
      <trkpt lat="43.61951" lon="3.85168">
        <ele>48</ele>
        <time>2020-09-26T08:23:55.000Z</time>
      </trkpt>
      <trkpt lat="43.61955" lon="3.85164">
        <ele>48</ele>
        <time>2020-09-26T08:23:56.000Z</time>
      </trkpt>
      <trkpt lat="43.61958" lon="3.85159">
        <ele>48</ele>
        <time>2020-09-26T08:23:57.000Z</time>
      </trkpt>
      <trkpt lat="43.61962" lon="3.85154">
        <ele>48</ele>
        <time>2020-09-26T08:23:58.000Z</time>
      </trkpt>
      <trkpt lat="43.61965" lon="3.8515">
        <ele>48</ele>
        <time>2020-09-26T08:23:59.000Z</time>
      </trkpt>
      <trkpt lat="43.61969" lon="3.85146">
        <ele>48</ele>
        <time>2020-09-26T08:24:00.000Z</time>
      </trkpt>
      <trkpt lat="43.61972" lon="3.85142">
        <ele>48</ele>
        <time>2020-09-26T08:24:01.000Z</time>
      </trkpt>
      <trkpt lat="43.61976" lon="3.85138">
        <ele>48</ele>
        <time>2020-09-26T08:24:02.000Z</time>
      </trkpt>
      <trkpt lat="43.6198" lon="3.85135">
        <ele>48</ele>
        <time>2020-09-26T08:24:03.000Z</time>
      </trkpt>
      <trkpt lat="43.61983" lon="3.85132">
        <ele>48</ele>
        <time>2020-09-26T08:24:04.000Z</time>
      </trkpt>
      <trkpt lat="43.61985" lon="3.85129">
        <ele>48</ele>
        <time>2020-09-26T08:24:05.000Z</time>
      </trkpt>
      <trkpt lat="43.61988" lon="3.85127">
        <ele>48</ele>
        <time>2020-09-26T08:24:06.000Z</time>
      </trkpt>
      <trkpt lat="43.6199" lon="3.85125">
        <ele>48</ele>
        <time>2020-09-26T08:24:07.000Z</time>
      </trkpt>
      <trkpt lat="43.61992" lon="3.85122">
        <ele>47.80580522737</ele>
        <time>2020-09-26T08:24:09.000Z</time>
      </trkpt>
      <trkpt lat="43.61994" lon="3.8512">
        <ele>47.605605091298</ele>
        <time>2020-09-26T08:24:11.000Z</time>
      </trkpt>
      <trkpt lat="43.61996" lon="3.8512">
        <ele>47.405404955226</ele>
        <time>2020-09-26T08:24:13.000Z</time>
      </trkpt>
      <trkpt lat="43.62" lon="3.8512">
        <ele>47.205204819154</ele>
        <time>2020-09-26T08:24:15.000Z</time>
      </trkpt>
      <trkpt lat="43.62003" lon="3.85119">
        <ele>47.105104751118</ele>
        <time>2020-09-26T08:24:16.000Z</time>
      </trkpt>
      <trkpt lat="43.62005" lon="3.85117">
        <ele>47.005004683082</ele>
        <time>2020-09-26T08:24:17.000Z</time>
      </trkpt>
      <trkpt lat="43.62008" lon="3.85114">
        <ele>47.094527591297</ele>
        <time>2020-09-26T08:24:18.000Z</time>
      </trkpt>
      <trkpt lat="43.6201" lon="3.8511">
        <ele>47.194029983812</ele>
        <time>2020-09-26T08:24:19.000Z</time>
      </trkpt>
      <trkpt lat="43.62012" lon="3.85105">
        <ele>47.293532376327</ele>
        <time>2020-09-26T08:24:20.000Z</time>
      </trkpt>
      <trkpt lat="43.62013" lon="3.851">
        <ele>47.393034768842</ele>
        <time>2020-09-26T08:24:21.000Z</time>
      </trkpt>
      <trkpt lat="43.62013" lon="3.85095">
        <ele>47.492537161357</ele>
        <time>2020-09-26T08:24:22.000Z</time>
      </trkpt>
      <trkpt lat="43.62013" lon="3.8509">
        <ele>47.592039553873</ele>
        <time>2020-09-26T08:24:23.000Z</time>
      </trkpt>
      <trkpt lat="43.62013" lon="3.85085">
        <ele>47.691541946388</ele>
        <time>2020-09-26T08:24:24.000Z</time>
      </trkpt>
      <trkpt lat="43.62012" lon="3.85081">
        <ele>47.791044338903</ele>
        <time>2020-09-26T08:24:25.000Z</time>
      </trkpt>
      <trkpt lat="43.62012" lon="3.85076">
        <ele>47.890546731418</ele>
        <time>2020-09-26T08:24:26.000Z</time>
      </trkpt>
      <trkpt lat="43.62012" lon="3.85071">
        <ele>47.990049123933</ele>
        <time>2020-09-26T08:24:27.000Z</time>
      </trkpt>
      <trkpt lat="43.62012" lon="3.85067">
        <ele>48</ele>
        <time>2020-09-26T08:24:28.000Z</time>
      </trkpt>
      <trkpt lat="43.62012" lon="3.85062">
        <ele>48</ele>
        <time>2020-09-26T08:24:29.000Z</time>
      </trkpt>
      <trkpt lat="43.62012" lon="3.85058">
        <ele>48</ele>
        <time>2020-09-26T08:24:30.000Z</time>
      </trkpt>
      <trkpt lat="43.62013" lon="3.85053">
        <ele>48</ele>
        <time>2020-09-26T08:24:31.000Z</time>
      </trkpt>
      <trkpt lat="43.62014" lon="3.85049">
        <ele>48</ele>
        <time>2020-09-26T08:24:32.000Z</time>
      </trkpt>
      <trkpt lat="43.62015" lon="3.85045">
        <ele>48</ele>
        <time>2020-09-26T08:24:33.000Z</time>
      </trkpt>
      <trkpt lat="43.62017" lon="3.85041">
        <ele>48</ele>
        <time>2020-09-26T08:24:34.000Z</time>
      </trkpt>
      <trkpt lat="43.62019" lon="3.85037">
        <ele>48</ele>
        <time>2020-09-26T08:24:35.000Z</time>
      </trkpt>
      <trkpt lat="43.62021" lon="3.85032">
        <ele>48</ele>
        <time>2020-09-26T08:24:36.000Z</time>
      </trkpt>
      <trkpt lat="43.62024" lon="3.85028">
        <ele>48</ele>
        <time>2020-09-26T08:24:37.000Z</time>
      </trkpt>
      <trkpt lat="43.62026" lon="3.85024">
        <ele>48</ele>
        <time>2020-09-26T08:24:38.000Z</time>
      </trkpt>
      <trkpt lat="43.62029" lon="3.85019">
        <ele>48</ele>
        <time>2020-09-26T08:24:39.000Z</time>
      </trkpt>
      <trkpt lat="43.62031" lon="3.85014">
        <ele>48</ele>
        <time>2020-09-26T08:24:40.000Z</time>
      </trkpt>
      <trkpt lat="43.62034" lon="3.8501">
        <ele>48</ele>
        <time>2020-09-26T08:24:41.000Z</time>
      </trkpt>
      <trkpt lat="43.62037" lon="3.85005">
        <ele>48</ele>
        <time>2020-09-26T08:24:42.000Z</time>
      </trkpt>
      <trkpt lat="43.62039" lon="3.85">
        <ele>48</ele>
        <time>2020-09-26T08:24:43.000Z</time>
      </trkpt>
      <trkpt lat="43.62042" lon="3.84995">
        <ele>48</ele>
        <time>2020-09-26T08:24:44.000Z</time>
      </trkpt>
      <trkpt lat="43.62045" lon="3.8499">
        <ele>48</ele>
        <time>2020-09-26T08:24:45.000Z</time>
      </trkpt>
      <trkpt lat="43.62048" lon="3.84984">
        <ele>48</ele>
        <time>2020-09-26T08:24:46.000Z</time>
      </trkpt>
      <trkpt lat="43.6205" lon="3.84979">
        <ele>48</ele>
        <time>2020-09-26T08:24:47.000Z</time>
      </trkpt>
      <trkpt lat="43.62053" lon="3.84974">
        <ele>48</ele>
        <time>2020-09-26T08:24:48.000Z</time>
      </trkpt>
      <trkpt lat="43.62056" lon="3.84968">
        <ele>48</ele>
        <time>2020-09-26T08:24:49.000Z</time>
      </trkpt>
      <trkpt lat="43.62059" lon="3.84963">
        <ele>48</ele>
        <time>2020-09-26T08:24:50.000Z</time>
      </trkpt>
      <trkpt lat="43.62062" lon="3.84958">
        <ele>48</ele>
        <time>2020-09-26T08:24:51.000Z</time>
      </trkpt>
      <trkpt lat="43.62064" lon="3.84953">
        <ele>48</ele>
        <time>2020-09-26T08:24:52.000Z</time>
      </trkpt>
      <trkpt lat="43.62067" lon="3.84948">
        <ele>48</ele>
        <time>2020-09-26T08:24:53.000Z</time>
      </trkpt>
      <trkpt lat="43.6207" lon="3.84943">
        <ele>48</ele>
        <time>2020-09-26T08:24:54.000Z</time>
      </trkpt>
      <trkpt lat="43.62073" lon="3.84938">
        <ele>48</ele>
        <time>2020-09-26T08:24:55.000Z</time>
      </trkpt>
      <trkpt lat="43.62076" lon="3.84932">
        <ele>48</ele>
        <time>2020-09-26T08:24:56.000Z</time>
      </trkpt>
      <trkpt lat="43.62079" lon="3.84927">
        <ele>48</ele>
        <time>2020-09-26T08:24:57.000Z</time>
      </trkpt>
      <trkpt lat="43.62082" lon="3.84921">
        <ele>48</ele>
        <time>2020-09-26T08:24:58.000Z</time>
      </trkpt>
      <trkpt lat="43.62085" lon="3.84916">
        <ele>48</ele>
        <time>2020-09-26T08:24:59.000Z</time>
      </trkpt>
      <trkpt lat="43.62088" lon="3.8491">
        <ele>48</ele>
        <time>2020-09-26T08:25:00.000Z</time>
      </trkpt>
      <trkpt lat="43.62091" lon="3.84904">
        <ele>48</ele>
        <time>2020-09-26T08:25:01.000Z</time>
      </trkpt>
      <trkpt lat="43.62095" lon="3.84898">
        <ele>48</ele>
        <time>2020-09-26T08:25:02.000Z</time>
      </trkpt>
      <trkpt lat="43.62098" lon="3.84892">
        <ele>48</ele>
        <time>2020-09-26T08:25:03.000Z</time>
      </trkpt>
      <trkpt lat="43.62101" lon="3.84887">
        <ele>48</ele>
        <time>2020-09-26T08:25:04.000Z</time>
      </trkpt>
      <trkpt lat="43.62105" lon="3.84881">
        <ele>48</ele>
        <time>2020-09-26T08:25:05.000Z</time>
      </trkpt>
      <trkpt lat="43.62108" lon="3.84875">
        <ele>48</ele>
        <time>2020-09-26T08:25:06.000Z</time>
      </trkpt>
      <trkpt lat="43.62112" lon="3.8487">
        <ele>48</ele>
        <time>2020-09-26T08:25:07.000Z</time>
      </trkpt>
      <trkpt lat="43.62115" lon="3.84864">
        <ele>48</ele>
        <time>2020-09-26T08:25:08.000Z</time>
      </trkpt>
      <trkpt lat="43.62118" lon="3.84858">
        <ele>48</ele>
        <time>2020-09-26T08:25:09.000Z</time>
      </trkpt>
      <trkpt lat="43.62121" lon="3.84852">
        <ele>48</ele>
        <time>2020-09-26T08:25:10.000Z</time>
      </trkpt>
      <trkpt lat="43.62124" lon="3.84847">
        <ele>48</ele>
        <time>2020-09-26T08:25:11.000Z</time>
      </trkpt>
      <trkpt lat="43.62128" lon="3.84841">
        <ele>48</ele>
        <time>2020-09-26T08:25:12.000Z</time>
      </trkpt>
      <trkpt lat="43.62131" lon="3.84835">
        <ele>48</ele>
        <time>2020-09-26T08:25:13.000Z</time>
      </trkpt>
      <trkpt lat="43.62134" lon="3.8483">
        <ele>48</ele>
        <time>2020-09-26T08:25:14.000Z</time>
      </trkpt>
      <trkpt lat="43.62136" lon="3.84825">
        <ele>48</ele>
        <time>2020-09-26T08:25:15.000Z</time>
      </trkpt>
      <trkpt lat="43.62139" lon="3.8482">
        <ele>48</ele>
        <time>2020-09-26T08:25:16.000Z</time>
      </trkpt>
      <trkpt lat="43.62142" lon="3.84815">
        <ele>48</ele>
        <time>2020-09-26T08:25:17.000Z</time>
      </trkpt>
      <trkpt lat="43.62145" lon="3.8481">
        <ele>48</ele>
        <time>2020-09-26T08:25:18.000Z</time>
      </trkpt>
      <trkpt lat="43.62148" lon="3.84805">
        <ele>48</ele>
        <time>2020-09-26T08:25:19.000Z</time>
      </trkpt>
      <trkpt lat="43.6215" lon="3.848">
        <ele>48</ele>
        <time>2020-09-26T08:25:20.000Z</time>
      </trkpt>
      <trkpt lat="43.62153" lon="3.84795">
        <ele>48</ele>
        <time>2020-09-26T08:25:21.000Z</time>
      </trkpt>
      <trkpt lat="43.62156" lon="3.8479">
        <ele>48</ele>
        <time>2020-09-26T08:25:22.000Z</time>
      </trkpt>
      <trkpt lat="43.6216" lon="3.84785">
        <ele>48</ele>
        <time>2020-09-26T08:25:23.000Z</time>
      </trkpt>
      <trkpt lat="43.62162" lon="3.8478">
        <ele>48</ele>
        <time>2020-09-26T08:25:24.000Z</time>
      </trkpt>
      <trkpt lat="43.62165" lon="3.84775">
        <ele>48</ele>
        <time>2020-09-26T08:25:25.000Z</time>
      </trkpt>
      <trkpt lat="43.62167" lon="3.8477">
        <ele>48</ele>
        <time>2020-09-26T08:25:26.000Z</time>
      </trkpt>
      <trkpt lat="43.62169" lon="3.84765">
        <ele>48</ele>
        <time>2020-09-26T08:25:27.000Z</time>
      </trkpt>
      <trkpt lat="43.62171" lon="3.84759">
        <ele>47.90499968</ele>
        <time>2020-09-26T08:25:28.000Z</time>
      </trkpt>
      <trkpt lat="43.62173" lon="3.84754">
        <ele>47.80499968</ele>
        <time>2020-09-26T08:25:29.000Z</time>
      </trkpt>
      <trkpt lat="43.62174" lon="3.84749">
        <ele>47.70499968</ele>
        <time>2020-09-26T08:25:30.000Z</time>
      </trkpt>
      <trkpt lat="43.62176" lon="3.84743">
        <ele>47.60499968</ele>
        <time>2020-09-26T08:25:31.000Z</time>
      </trkpt>
      <trkpt lat="43.62177" lon="3.84738">
        <ele>47.50499968</ele>
        <time>2020-09-26T08:25:32.000Z</time>
      </trkpt>
      <trkpt lat="43.62179" lon="3.84732">
        <ele>47.40499968</ele>
        <time>2020-09-26T08:25:33.000Z</time>
      </trkpt>
      <trkpt lat="43.6218" lon="3.84727">
        <ele>47.30499968</ele>
        <time>2020-09-26T08:25:34.000Z</time>
      </trkpt>
      <trkpt lat="43.62182" lon="3.84721">
        <ele>47.20499968</ele>
        <time>2020-09-26T08:25:35.000Z</time>
      </trkpt>
      <trkpt lat="43.62183" lon="3.84716">
        <ele>47.10499968</ele>
        <time>2020-09-26T08:25:36.000Z</time>
      </trkpt>
      <trkpt lat="43.62185" lon="3.84711">
        <ele>47.00499968</ele>
        <time>2020-09-26T08:25:37.000Z</time>
      </trkpt>
      <trkpt lat="43.62187" lon="3.84706">
        <ele>47</ele>
        <time>2020-09-26T08:25:38.000Z</time>
      </trkpt>
      <trkpt lat="43.62188" lon="3.847">
        <ele>47</ele>
        <time>2020-09-26T08:25:39.000Z</time>
      </trkpt>
      <trkpt lat="43.6219" lon="3.84696">
        <ele>47</ele>
        <time>2020-09-26T08:25:40.000Z</time>
      </trkpt>
      <trkpt lat="43.62191" lon="3.84691">
        <ele>47</ele>
        <time>2020-09-26T08:25:41.000Z</time>
      </trkpt>
      <trkpt lat="43.62193" lon="3.84686">
        <ele>47</ele>
        <time>2020-09-26T08:25:42.000Z</time>
      </trkpt>
      <trkpt lat="43.62194" lon="3.84682">
        <ele>47</ele>
        <time>2020-09-26T08:25:43.000Z</time>
      </trkpt>
      <trkpt lat="43.62195" lon="3.84678">
        <ele>47</ele>
        <time>2020-09-26T08:25:44.000Z</time>
      </trkpt>
      <trkpt lat="43.62196" lon="3.84673">
        <ele>47</ele>
        <time>2020-09-26T08:25:45.000Z</time>
      </trkpt>
      <trkpt lat="43.62197" lon="3.84669">
        <ele>47</ele>
        <time>2020-09-26T08:25:46.000Z</time>
      </trkpt>
      <trkpt lat="43.62198" lon="3.84665">
        <ele>47</ele>
        <time>2020-09-26T08:25:47.000Z</time>
      </trkpt>
      <trkpt lat="43.62199" lon="3.84661">
        <ele>47.094094704594</ele>
        <time>2020-09-26T08:25:48.000Z</time>
      </trkpt>
      <trkpt lat="43.622" lon="3.84657">
        <ele>47.19419477263</ele>
        <time>2020-09-26T08:25:49.000Z</time>
      </trkpt>
      <trkpt lat="43.62202" lon="3.84653">
        <ele>47.294294840666</ele>
        <time>2020-09-26T08:25:50.000Z</time>
      </trkpt>
      <trkpt lat="43.62203" lon="3.8465">
        <ele>47.394394908702</ele>
        <time>2020-09-26T08:25:51.000Z</time>
      </trkpt>
      <trkpt lat="43.62204" lon="3.84646">
        <ele>47.494494976738</ele>
        <time>2020-09-26T08:25:52.000Z</time>
      </trkpt>
      <trkpt lat="43.62206" lon="3.84642">
        <ele>47.594595044774</ele>
        <time>2020-09-26T08:25:53.000Z</time>
      </trkpt>
      <trkpt lat="43.62207" lon="3.84639">
        <ele>47.69469511281</ele>
        <time>2020-09-26T08:25:54.000Z</time>
      </trkpt>
      <trkpt lat="43.62208" lon="3.84635">
        <ele>47.794795180846</ele>
        <time>2020-09-26T08:25:55.000Z</time>
      </trkpt>
      <trkpt lat="43.6221" lon="3.84631">
        <ele>47.894895248882</ele>
        <time>2020-09-26T08:25:56.000Z</time>
      </trkpt>
      <trkpt lat="43.62212" lon="3.84628">
        <ele>47.994995316918</ele>
        <time>2020-09-26T08:25:57.000Z</time>
      </trkpt>
      <trkpt lat="43.62214" lon="3.84624">
        <ele>48.09500032</ele>
        <time>2020-09-26T08:25:58.000Z</time>
      </trkpt>
      <trkpt lat="43.62215" lon="3.84621">
        <ele>48.19500032</ele>
        <time>2020-09-26T08:25:59.000Z</time>
      </trkpt>
      <trkpt lat="43.62217" lon="3.84617">
        <ele>48.29500032</ele>
        <time>2020-09-26T08:26:00.000Z</time>
      </trkpt>
      <trkpt lat="43.62218" lon="3.84613">
        <ele>48.39500032</ele>
        <time>2020-09-26T08:26:01.000Z</time>
      </trkpt>
      <trkpt lat="43.62219" lon="3.8461">
        <ele>48.49500032</ele>
        <time>2020-09-26T08:26:02.000Z</time>
      </trkpt>
      <trkpt lat="43.6222" lon="3.84606">
        <ele>48.59500032</ele>
        <time>2020-09-26T08:26:03.000Z</time>
      </trkpt>
      <trkpt lat="43.62221" lon="3.84602">
        <ele>48.69500032</ele>
        <time>2020-09-26T08:26:04.000Z</time>
      </trkpt>
      <trkpt lat="43.62222" lon="3.84598">
        <ele>48.79500032</ele>
        <time>2020-09-26T08:26:05.000Z</time>
      </trkpt>
      <trkpt lat="43.62223" lon="3.84594">
        <ele>48.89500032</ele>
        <time>2020-09-26T08:26:06.000Z</time>
      </trkpt>
      <trkpt lat="43.62225" lon="3.84591">
        <ele>48.99500032</ele>
        <time>2020-09-26T08:26:07.000Z</time>
      </trkpt>
      <trkpt lat="43.62225" lon="3.84587">
        <ele>49.09500032</ele>
        <time>2020-09-26T08:26:08.000Z</time>
      </trkpt>
      <trkpt lat="43.62226" lon="3.84583">
        <ele>49.19500032</ele>
        <time>2020-09-26T08:26:09.000Z</time>
      </trkpt>
      <trkpt lat="43.62227" lon="3.84579">
        <ele>49.29500032</ele>
        <time>2020-09-26T08:26:10.000Z</time>
      </trkpt>
      <trkpt lat="43.62229" lon="3.84575">
        <ele>49.39500032</ele>
        <time>2020-09-26T08:26:11.000Z</time>
      </trkpt>
      <trkpt lat="43.62231" lon="3.84572">
        <ele>49.49500032</ele>
        <time>2020-09-26T08:26:12.000Z</time>
      </trkpt>
      <trkpt lat="43.62232" lon="3.84568">
        <ele>49.59500032</ele>
        <time>2020-09-26T08:26:13.000Z</time>
      </trkpt>
      <trkpt lat="43.62234" lon="3.84565">
        <ele>49.69500032</ele>
        <time>2020-09-26T08:26:14.000Z</time>
      </trkpt>
      <trkpt lat="43.62236" lon="3.84562">
        <ele>49.79500032</ele>
        <time>2020-09-26T08:26:15.000Z</time>
      </trkpt>
      <trkpt lat="43.62238" lon="3.84559">
        <ele>49.89500032</ele>
        <time>2020-09-26T08:26:16.000Z</time>
      </trkpt>
      <trkpt lat="43.6224" lon="3.84555">
        <ele>49.99500032</ele>
        <time>2020-09-26T08:26:17.000Z</time>
      </trkpt>
      <trkpt lat="43.62242" lon="3.84552">
        <ele>50</ele>
        <time>2020-09-26T08:26:18.000Z</time>
      </trkpt>
      <trkpt lat="43.62244" lon="3.84549">
        <ele>50</ele>
        <time>2020-09-26T08:26:19.000Z</time>
      </trkpt>
      <trkpt lat="43.62246" lon="3.84546">
        <ele>50</ele>
        <time>2020-09-26T08:26:20.000Z</time>
      </trkpt>
      <trkpt lat="43.62248" lon="3.84542">
        <ele>50</ele>
        <time>2020-09-26T08:26:21.000Z</time>
      </trkpt>
      <trkpt lat="43.62251" lon="3.84539">
        <ele>50</ele>
        <time>2020-09-26T08:26:22.000Z</time>
      </trkpt>
      <trkpt lat="43.62253" lon="3.84536">
        <ele>50</ele>
        <time>2020-09-26T08:26:23.000Z</time>
      </trkpt>
      <trkpt lat="43.62255" lon="3.84534">
        <ele>50</ele>
        <time>2020-09-26T08:26:24.000Z</time>
      </trkpt>
      <trkpt lat="43.62257" lon="3.84531">
        <ele>50</ele>
        <time>2020-09-26T08:26:25.000Z</time>
      </trkpt>
      <trkpt lat="43.62259" lon="3.84528">
        <ele>50</ele>
        <time>2020-09-26T08:26:26.000Z</time>
      </trkpt>
      <trkpt lat="43.62261" lon="3.84525">
        <ele>50</ele>
        <time>2020-09-26T08:26:27.000Z</time>
      </trkpt>
      <trkpt lat="43.62263" lon="3.84522">
        <ele>50</ele>
        <time>2020-09-26T08:26:28.000Z</time>
      </trkpt>
      <trkpt lat="43.62265" lon="3.84519">
        <ele>50</ele>
        <time>2020-09-26T08:26:29.000Z</time>
      </trkpt>
      <trkpt lat="43.62268" lon="3.84515">
        <ele>50</ele>
        <time>2020-09-26T08:26:30.000Z</time>
      </trkpt>
      <trkpt lat="43.6227" lon="3.84512">
        <ele>50</ele>
        <time>2020-09-26T08:26:31.000Z</time>
      </trkpt>
      <trkpt lat="43.62272" lon="3.84509">
        <ele>50</ele>
        <time>2020-09-26T08:26:32.000Z</time>
      </trkpt>
      <trkpt lat="43.62275" lon="3.84505">
        <ele>50</ele>
        <time>2020-09-26T08:26:33.000Z</time>
      </trkpt>
      <trkpt lat="43.62277" lon="3.84502">
        <ele>50</ele>
        <time>2020-09-26T08:26:34.000Z</time>
      </trkpt>
      <trkpt lat="43.62279" lon="3.84498">
        <ele>50</ele>
        <time>2020-09-26T08:26:35.000Z</time>
      </trkpt>
      <trkpt lat="43.62281" lon="3.84495">
        <ele>50</ele>
        <time>2020-09-26T08:26:36.000Z</time>
      </trkpt>
      <trkpt lat="43.62284" lon="3.84492">
        <ele>50</ele>
        <time>2020-09-26T08:26:37.000Z</time>
      </trkpt>
      <trkpt lat="43.62286" lon="3.84488">
        <ele>50</ele>
        <time>2020-09-26T08:26:38.000Z</time>
      </trkpt>
      <trkpt lat="43.62288" lon="3.84485">
        <ele>50</ele>
        <time>2020-09-26T08:26:39.000Z</time>
      </trkpt>
      <trkpt lat="43.6229" lon="3.84482">
        <ele>50</ele>
        <time>2020-09-26T08:26:40.000Z</time>
      </trkpt>
      <trkpt lat="43.62292" lon="3.84478">
        <ele>50</ele>
        <time>2020-09-26T08:26:41.000Z</time>
      </trkpt>
      <trkpt lat="43.62295" lon="3.84475">
        <ele>50</ele>
        <time>2020-09-26T08:26:42.000Z</time>
      </trkpt>
      <trkpt lat="43.62296" lon="3.84471">
        <ele>50</ele>
        <time>2020-09-26T08:26:43.000Z</time>
      </trkpt>
      <trkpt lat="43.62297" lon="3.84467">
        <ele>50</ele>
        <time>2020-09-26T08:26:44.000Z</time>
      </trkpt>
      <trkpt lat="43.62297" lon="3.84463">
        <ele>50</ele>
        <time>2020-09-26T08:26:45.000Z</time>
      </trkpt>
      <trkpt lat="43.62298" lon="3.84458">
        <ele>50</ele>
        <time>2020-09-26T08:26:46.000Z</time>
      </trkpt>
      <trkpt lat="43.62299" lon="3.84454">
        <ele>50</ele>
        <time>2020-09-26T08:26:47.000Z</time>
      </trkpt>
      <trkpt lat="43.623" lon="3.8445">
        <ele>50.09500032</ele>
        <time>2020-09-26T08:26:48.000Z</time>
      </trkpt>
      <trkpt lat="43.62302" lon="3.84446">
        <ele>50.19500032</ele>
        <time>2020-09-26T08:26:49.000Z</time>
      </trkpt>
      <trkpt lat="43.62305" lon="3.84443">
        <ele>50.29500032</ele>
        <time>2020-09-26T08:26:50.000Z</time>
      </trkpt>
      <trkpt lat="43.62307" lon="3.8444">
        <ele>50.39500032</ele>
        <time>2020-09-26T08:26:51.000Z</time>
      </trkpt>
      <trkpt lat="43.62309" lon="3.84437">
        <ele>50.49500032</ele>
        <time>2020-09-26T08:26:52.000Z</time>
      </trkpt>
      <trkpt lat="43.62311" lon="3.84434">
        <ele>50.59500032</ele>
        <time>2020-09-26T08:26:53.000Z</time>
      </trkpt>
      <trkpt lat="43.62314" lon="3.84431">
        <ele>50.69500032</ele>
        <time>2020-09-26T08:26:54.000Z</time>
      </trkpt>
      <trkpt lat="43.62316" lon="3.84427">
        <ele>50.79500032</ele>
        <time>2020-09-26T08:26:55.000Z</time>
      </trkpt>
      <trkpt lat="43.62318" lon="3.84424">
        <ele>50.89500032</ele>
        <time>2020-09-26T08:26:56.000Z</time>
      </trkpt>
      <trkpt lat="43.6232" lon="3.8442">
        <ele>50.99500032</ele>
        <time>2020-09-26T08:26:57.000Z</time>
      </trkpt>
      <trkpt lat="43.62322" lon="3.84417">
        <ele>51</ele>
        <time>2020-09-26T08:26:58.000Z</time>
      </trkpt>
      <trkpt lat="43.62324" lon="3.84414">
        <ele>51</ele>
        <time>2020-09-26T08:26:59.000Z</time>
      </trkpt>
      <trkpt lat="43.62326" lon="3.84411">
        <ele>51</ele>
        <time>2020-09-26T08:27:00.000Z</time>
      </trkpt>
      <trkpt lat="43.62329" lon="3.84408">
        <ele>51</ele>
        <time>2020-09-26T08:27:01.000Z</time>
      </trkpt>
      <trkpt lat="43.62331" lon="3.84405">
        <ele>51</ele>
        <time>2020-09-26T08:27:02.000Z</time>
      </trkpt>
      <trkpt lat="43.62333" lon="3.84402">
        <ele>51</ele>
        <time>2020-09-26T08:27:03.000Z</time>
      </trkpt>
      <trkpt lat="43.62336" lon="3.84399">
        <ele>51</ele>
        <time>2020-09-26T08:27:04.000Z</time>
      </trkpt>
      <trkpt lat="43.62338" lon="3.84396">
        <ele>51</ele>
        <time>2020-09-26T08:27:05.000Z</time>
      </trkpt>
      <trkpt lat="43.6234" lon="3.84393">
        <ele>51</ele>
        <time>2020-09-26T08:27:06.000Z</time>
      </trkpt>
      <trkpt lat="43.62342" lon="3.8439">
        <ele>51</ele>
        <time>2020-09-26T08:27:07.000Z</time>
      </trkpt>
      <trkpt lat="43.62344" lon="3.84387">
        <ele>51.081218300497</ele>
        <time>2020-09-26T08:27:08.000Z</time>
      </trkpt>
      <trkpt lat="43.62346" lon="3.84384">
        <ele>51.182741176119</ele>
        <time>2020-09-26T08:27:09.000Z</time>
      </trkpt>
      <trkpt lat="43.62348" lon="3.84381">
        <ele>51.284264051741</ele>
        <time>2020-09-26T08:27:10.000Z</time>
      </trkpt>
      <trkpt lat="43.6235" lon="3.84378">
        <ele>51.385786927362</ele>
        <time>2020-09-26T08:27:11.000Z</time>
      </trkpt>
      <trkpt lat="43.62352" lon="3.84375">
        <ele>51.487309802984</ele>
        <time>2020-09-26T08:27:12.000Z</time>
      </trkpt>
      <trkpt lat="43.62354" lon="3.84372">
        <ele>51.588832678605</ele>
        <time>2020-09-26T08:27:13.000Z</time>
      </trkpt>
      <trkpt lat="43.62356" lon="3.84369">
        <ele>51.690355554227</ele>
        <time>2020-09-26T08:27:14.000Z</time>
      </trkpt>
      <trkpt lat="43.62358" lon="3.84366">
        <ele>51.791878429849</ele>
        <time>2020-09-26T08:27:15.000Z</time>
      </trkpt>
      <trkpt lat="43.6236" lon="3.84363">
        <ele>51.89340130547</ele>
        <time>2020-09-26T08:27:16.000Z</time>
      </trkpt>
      <trkpt lat="43.62361" lon="3.8436">
        <ele>51.994924181092</ele>
        <time>2020-09-26T08:27:17.000Z</time>
      </trkpt>
      <trkpt lat="43.62362" lon="3.84357">
        <ele>52.19000064</ele>
        <time>2020-09-26T08:27:18.000Z</time>
      </trkpt>
      <trkpt lat="43.62363" lon="3.84353">
        <ele>52.39000064</ele>
        <time>2020-09-26T08:27:19.000Z</time>
      </trkpt>
      <trkpt lat="43.62363" lon="3.84349">
        <ele>52.59000064</ele>
        <time>2020-09-26T08:27:20.000Z</time>
      </trkpt>
      <trkpt lat="43.62363" lon="3.84345">
        <ele>52.79000064</ele>
        <time>2020-09-26T08:27:21.000Z</time>
      </trkpt>
      <trkpt lat="43.62363" lon="3.84341">
        <ele>52.99000064</ele>
        <time>2020-09-26T08:27:22.000Z</time>
      </trkpt>
      <trkpt lat="43.62362" lon="3.84337">
        <ele>53.19000064</ele>
        <time>2020-09-26T08:27:23.000Z</time>
      </trkpt>
      <trkpt lat="43.62362" lon="3.84333">
        <ele>53.39000064</ele>
        <time>2020-09-26T08:27:24.000Z</time>
      </trkpt>
      <trkpt lat="43.62363" lon="3.84329">
        <ele>53.59000064</ele>
        <time>2020-09-26T08:27:25.000Z</time>
      </trkpt>
      <trkpt lat="43.62363" lon="3.84326">
        <ele>53.79000064</ele>
        <time>2020-09-26T08:27:26.000Z</time>
      </trkpt>
      <trkpt lat="43.62365" lon="3.84322">
        <ele>53.99000064</ele>
        <time>2020-09-26T08:27:27.000Z</time>
      </trkpt>
      <trkpt lat="43.62367" lon="3.84319">
        <ele>54.09500032</ele>
        <time>2020-09-26T08:27:28.000Z</time>
      </trkpt>
      <trkpt lat="43.62368" lon="3.84315">
        <ele>54.19500032</ele>
        <time>2020-09-26T08:27:29.000Z</time>
      </trkpt>
      <trkpt lat="43.6237" lon="3.84312">
        <ele>54.29500032</ele>
        <time>2020-09-26T08:27:30.000Z</time>
      </trkpt>
      <trkpt lat="43.62372" lon="3.84309">
        <ele>54.39500032</ele>
        <time>2020-09-26T08:27:31.000Z</time>
      </trkpt>
      <trkpt lat="43.62373" lon="3.84306">
        <ele>54.49500032</ele>
        <time>2020-09-26T08:27:32.000Z</time>
      </trkpt>
      <trkpt lat="43.62375" lon="3.84302">
        <ele>54.59500032</ele>
        <time>2020-09-26T08:27:33.000Z</time>
      </trkpt>
      <trkpt lat="43.62377" lon="3.84299">
        <ele>54.69500032</ele>
        <time>2020-09-26T08:27:34.000Z</time>
      </trkpt>
      <trkpt lat="43.62379" lon="3.84297">
        <ele>54.79500032</ele>
        <time>2020-09-26T08:27:35.000Z</time>
      </trkpt>
      <trkpt lat="43.62381" lon="3.84294">
        <ele>54.89500032</ele>
        <time>2020-09-26T08:27:36.000Z</time>
      </trkpt>
      <trkpt lat="43.62383" lon="3.8429">
        <ele>54.99500032</ele>
        <time>2020-09-26T08:27:37.000Z</time>
      </trkpt>
      <trkpt lat="43.62384" lon="3.84287">
        <ele>55.19000064</ele>
        <time>2020-09-26T08:27:38.000Z</time>
      </trkpt>
      <trkpt lat="43.62385" lon="3.84283">
        <ele>55.39000064</ele>
        <time>2020-09-26T08:27:39.000Z</time>
      </trkpt>
      <trkpt lat="43.62385" lon="3.84279">
        <ele>55.59000064</ele>
        <time>2020-09-26T08:27:40.000Z</time>
      </trkpt>
      <trkpt lat="43.62386" lon="3.84276">
        <ele>55.79000064</ele>
        <time>2020-09-26T08:27:41.000Z</time>
      </trkpt>
      <trkpt lat="43.62386" lon="3.84272">
        <ele>55.99000064</ele>
        <time>2020-09-26T08:27:42.000Z</time>
      </trkpt>
      <trkpt lat="43.62385" lon="3.84269">
        <ele>56.19000064</ele>
        <time>2020-09-26T08:27:43.000Z</time>
      </trkpt>
      <trkpt lat="43.62384" lon="3.84265">
        <ele>56.39000064</ele>
        <time>2020-09-26T08:27:44.000Z</time>
      </trkpt>
      <trkpt lat="43.62383" lon="3.84262">
        <ele>56.59000064</ele>
        <time>2020-09-26T08:27:45.000Z</time>
      </trkpt>
      <trkpt lat="43.62381" lon="3.84258">
        <ele>56.79000064</ele>
        <time>2020-09-26T08:27:46.000Z</time>
      </trkpt>
      <trkpt lat="43.62379" lon="3.84255">
        <ele>56.99000064</ele>
        <time>2020-09-26T08:27:47.000Z</time>
      </trkpt>
      <trkpt lat="43.62377" lon="3.84252">
        <ele>57.19000064</ele>
        <time>2020-09-26T08:27:48.000Z</time>
      </trkpt>
      <trkpt lat="43.62376" lon="3.84248">
        <ele>57.39000064</ele>
        <time>2020-09-26T08:27:49.000Z</time>
      </trkpt>
      <trkpt lat="43.62374" lon="3.84245">
        <ele>57.59000064</ele>
        <time>2020-09-26T08:27:50.000Z</time>
      </trkpt>
      <trkpt lat="43.62373" lon="3.84241">
        <ele>57.79000064</ele>
        <time>2020-09-26T08:27:51.000Z</time>
      </trkpt>
      <trkpt lat="43.62372" lon="3.84236">
        <ele>57.99000064</ele>
        <time>2020-09-26T08:27:52.000Z</time>
      </trkpt>
      <trkpt lat="43.62373" lon="3.84233">
        <ele>58.19000064</ele>
        <time>2020-09-26T08:27:53.000Z</time>
      </trkpt>
      <trkpt lat="43.62375" lon="3.84231">
        <ele>58.39000064</ele>
        <time>2020-09-26T08:27:54.000Z</time>
      </trkpt>
      <trkpt lat="43.62378" lon="3.84231">
        <ele>58.59000064</ele>
        <time>2020-09-26T08:27:55.000Z</time>
      </trkpt>
      <trkpt lat="43.62381" lon="3.84229">
        <ele>58.79000064</ele>
        <time>2020-09-26T08:27:56.000Z</time>
      </trkpt>
      <trkpt lat="43.62384" lon="3.84228">
        <ele>58.99000064</ele>
        <time>2020-09-26T08:27:57.000Z</time>
      </trkpt>
      <trkpt lat="43.62388" lon="3.84226">
        <ele>59.276995824977</ele>
        <time>2020-09-26T08:27:58.000Z</time>
      </trkpt>
      <trkpt lat="43.62391" lon="3.84225">
        <ele>59.568569395443</ele>
        <time>2020-09-26T08:27:59.000Z</time>
      </trkpt>
      <trkpt lat="43.62393" lon="3.84222">
        <ele>59.860142965908</ele>
        <time>2020-09-26T08:28:00.000Z</time>
      </trkpt>
      <trkpt lat="43.62394" lon="3.8422">
        <ele>60.151716536373</ele>
        <time>2020-09-26T08:28:01.000Z</time>
      </trkpt>
      <trkpt lat="43.62393" lon="3.84216">
        <ele>60.443290106839</ele>
        <time>2020-09-26T08:28:02.000Z</time>
      </trkpt>
      <trkpt lat="43.62393" lon="3.84212">
        <ele>60.734863677304</ele>
        <time>2020-09-26T08:28:03.000Z</time>
      </trkpt>
      <trkpt lat="43.62392" lon="3.84208">
        <ele>61.026437247769</ele>
        <time>2020-09-26T08:28:04.000Z</time>
      </trkpt>
      <trkpt lat="43.62392" lon="3.84203">
        <ele>61.318010818235</ele>
        <time>2020-09-26T08:28:05.000Z</time>
      </trkpt>
      <trkpt lat="43.62391" lon="3.84199">
        <ele>61.6095843887</ele>
        <time>2020-09-26T08:28:06.000Z</time>
      </trkpt>
      <trkpt lat="43.62391" lon="3.84195">
        <ele>61.901157959165</ele>
        <time>2020-09-26T08:28:07.000Z</time>
      </trkpt>
      <trkpt lat="43.6239" lon="3.8419">
        <ele>62.068067623426</ele>
        <time>2020-09-26T08:28:08.000Z</time>
      </trkpt>
      <trkpt lat="43.62389" lon="3.84185">
        <ele>62.17104361305</ele>
        <time>2020-09-26T08:28:09.000Z</time>
      </trkpt>
      <trkpt lat="43.62389" lon="3.8418">
        <ele>62.274019602674</ele>
        <time>2020-09-26T08:28:10.000Z</time>
      </trkpt>
      <trkpt lat="43.62389" lon="3.84176">
        <ele>62.376995592298</ele>
        <time>2020-09-26T08:28:11.000Z</time>
      </trkpt>
      <trkpt lat="43.6239" lon="3.84172">
        <ele>62.479971581922</ele>
        <time>2020-09-26T08:28:12.000Z</time>
      </trkpt>
      <trkpt lat="43.62392" lon="3.84168">
        <ele>62.582947571546</ele>
        <time>2020-09-26T08:28:13.000Z</time>
      </trkpt>
      <trkpt lat="43.62393" lon="3.84164">
        <ele>62.68592356117</ele>
        <time>2020-09-26T08:28:14.000Z</time>
      </trkpt>
      <trkpt lat="43.62395" lon="3.8416">
        <ele>62.788899550794</ele>
        <time>2020-09-26T08:28:15.000Z</time>
      </trkpt>
      <trkpt lat="43.62398" lon="3.84157">
        <ele>62.891875540418</ele>
        <time>2020-09-26T08:28:16.000Z</time>
      </trkpt>
      <trkpt lat="43.62401" lon="3.84155">
        <ele>62.994851530042</ele>
        <time>2020-09-26T08:28:17.000Z</time>
      </trkpt>
      <trkpt lat="43.62404" lon="3.84154">
        <ele>63</ele>
        <time>2020-09-26T08:28:18.000Z</time>
      </trkpt>
      <trkpt lat="43.62408" lon="3.84153">
        <ele>63</ele>
        <time>2020-09-26T08:28:19.000Z</time>
      </trkpt>
      <trkpt lat="43.62411" lon="3.84152">
        <ele>63</ele>
        <time>2020-09-26T08:28:20.000Z</time>
      </trkpt>
      <trkpt lat="43.62414" lon="3.8415">
        <ele>63</ele>
        <time>2020-09-26T08:28:21.000Z</time>
      </trkpt>
      <trkpt lat="43.62417" lon="3.84149">
        <ele>63</ele>
        <time>2020-09-26T08:28:22.000Z</time>
      </trkpt>
      <trkpt lat="43.6242" lon="3.84147">
        <ele>63</ele>
        <time>2020-09-26T08:28:23.000Z</time>
      </trkpt>
      <trkpt lat="43.62423" lon="3.84146">
        <ele>63</ele>
        <time>2020-09-26T08:28:24.000Z</time>
      </trkpt>
      <trkpt lat="43.62427" lon="3.84144">
        <ele>63</ele>
        <time>2020-09-26T08:28:25.000Z</time>
      </trkpt>
      <trkpt lat="43.6243" lon="3.84142">
        <ele>63</ele>
        <time>2020-09-26T08:28:26.000Z</time>
      </trkpt>
      <trkpt lat="43.62433" lon="3.84139">
        <ele>63</ele>
        <time>2020-09-26T08:28:27.000Z</time>
      </trkpt>
      <trkpt lat="43.62435" lon="3.84136">
        <ele>63.09341234011</ele>
        <time>2020-09-26T08:28:28.000Z</time>
      </trkpt>
      <trkpt lat="43.62438" lon="3.84134">
        <ele>63.191740787962</ele>
        <time>2020-09-26T08:28:29.000Z</time>
      </trkpt>
      <trkpt lat="43.62441" lon="3.84133">
        <ele>63.290069235813</ele>
        <time>2020-09-26T08:28:30.000Z</time>
      </trkpt>
      <trkpt lat="43.62445" lon="3.84132">
        <ele>63.388397683665</ele>
        <time>2020-09-26T08:28:31.000Z</time>
      </trkpt>
      <trkpt lat="43.62448" lon="3.84132">
        <ele>63.486726131517</ele>
        <time>2020-09-26T08:28:32.000Z</time>
      </trkpt>
      <trkpt lat="43.62451" lon="3.84131">
        <ele>63.585054579368</ele>
        <time>2020-09-26T08:28:33.000Z</time>
      </trkpt>
      <trkpt lat="43.62454" lon="3.8413">
        <ele>63.68338302722</ele>
        <time>2020-09-26T08:28:34.000Z</time>
      </trkpt>
      <trkpt lat="43.62457" lon="3.84129">
        <ele>63.781711475072</ele>
        <time>2020-09-26T08:28:35.000Z</time>
      </trkpt>
      <trkpt lat="43.6246" lon="3.84128">
        <ele>63.880039922923</ele>
        <time>2020-09-26T08:28:36.000Z</time>
      </trkpt>
      <trkpt lat="43.62463" lon="3.84126">
        <ele>63.978368370775</ele>
        <time>2020-09-26T08:28:37.000Z</time>
      </trkpt>
      <trkpt lat="43.62466" lon="3.84123">
        <ele>64.079349557079</ele>
        <time>2020-09-26T08:28:38.000Z</time>
      </trkpt>
      <trkpt lat="43.62468" lon="3.8412">
        <ele>64.181078923759</ele>
        <time>2020-09-26T08:28:39.000Z</time>
      </trkpt>
      <trkpt lat="43.62471" lon="3.84117">
        <ele>64.282808290439</ele>
        <time>2020-09-26T08:28:40.000Z</time>
      </trkpt>
      <trkpt lat="43.62473" lon="3.84113">
        <ele>64.384537657119</ele>
        <time>2020-09-26T08:28:41.000Z</time>
      </trkpt>
      <trkpt lat="43.62475" lon="3.84109">
        <ele>64.486267023799</ele>
        <time>2020-09-26T08:28:42.000Z</time>
      </trkpt>
      <trkpt lat="43.62476" lon="3.84105">
        <ele>64.587996390479</ele>
        <time>2020-09-26T08:28:43.000Z</time>
      </trkpt>
      <trkpt lat="43.62478" lon="3.84102">
        <ele>64.689725757159</ele>
        <time>2020-09-26T08:28:44.000Z</time>
      </trkpt>
      <trkpt lat="43.6248" lon="3.84098">
        <ele>64.79145512384</ele>
        <time>2020-09-26T08:28:45.000Z</time>
      </trkpt>
      <trkpt lat="43.62481" lon="3.84094">
        <ele>64.89318449052</ele>
        <time>2020-09-26T08:28:46.000Z</time>
      </trkpt>
      <trkpt lat="43.62483" lon="3.8409">
        <ele>64.9949138572</ele>
        <time>2020-09-26T08:28:47.000Z</time>
      </trkpt>
      <trkpt lat="43.62484" lon="3.84086">
        <ele>65.092322868192</ele>
        <time>2020-09-26T08:28:48.000Z</time>
      </trkpt>
      <trkpt lat="43.62486" lon="3.84083">
        <ele>65.189504507362</ele>
        <time>2020-09-26T08:28:49.000Z</time>
      </trkpt>
      <trkpt lat="43.62487" lon="3.84079">
        <ele>65.286686146532</ele>
        <time>2020-09-26T08:28:50.000Z</time>
      </trkpt>
      <trkpt lat="43.62489" lon="3.84075">
        <ele>65.383867785702</ele>
        <time>2020-09-26T08:28:51.000Z</time>
      </trkpt>
      <trkpt lat="43.62491" lon="3.84072">
        <ele>65.481049424871</ele>
        <time>2020-09-26T08:28:52.000Z</time>
      </trkpt>
      <trkpt lat="43.62492" lon="3.84068">
        <ele>65.578231064041</ele>
        <time>2020-09-26T08:28:53.000Z</time>
      </trkpt>
      <trkpt lat="43.62494" lon="3.84064">
        <ele>65.675412703211</ele>
        <time>2020-09-26T08:28:54.000Z</time>
      </trkpt>
      <trkpt lat="43.62496" lon="3.84061">
        <ele>65.77259434238</ele>
        <time>2020-09-26T08:28:55.000Z</time>
      </trkpt>
      <trkpt lat="43.62498" lon="3.84056">
        <ele>65.86977598155</ele>
        <time>2020-09-26T08:28:56.000Z</time>
      </trkpt>
      <trkpt lat="43.62499" lon="3.84052">
        <ele>65.96695762072</ele>
        <time>2020-09-26T08:28:57.000Z</time>
      </trkpt>
      <trkpt lat="43.625" lon="3.84048">
        <ele>66.067970571835</ele>
        <time>2020-09-26T08:28:58.000Z</time>
      </trkpt>
      <trkpt lat="43.62502" lon="3.84044">
        <ele>66.170957285396</ele>
        <time>2020-09-26T08:28:59.000Z</time>
      </trkpt>
      <trkpt lat="43.62503" lon="3.8404">
        <ele>66.273943998956</ele>
        <time>2020-09-26T08:29:00.000Z</time>
      </trkpt>
      <trkpt lat="43.62505" lon="3.84036">
        <ele>66.376930712516</ele>
        <time>2020-09-26T08:29:01.000Z</time>
      </trkpt>
      <trkpt lat="43.62507" lon="3.84032">
        <ele>66.479917426077</ele>
        <time>2020-09-26T08:29:02.000Z</time>
      </trkpt>
      <trkpt lat="43.62508" lon="3.84028">
        <ele>66.582904139638</ele>
        <time>2020-09-26T08:29:03.000Z</time>
      </trkpt>
      <trkpt lat="43.6251" lon="3.84024">
        <ele>66.685890853198</ele>
        <time>2020-09-26T08:29:04.000Z</time>
      </trkpt>
      <trkpt lat="43.62512" lon="3.84021">
        <ele>66.788877566759</ele>
        <time>2020-09-26T08:29:05.000Z</time>
      </trkpt>
      <trkpt lat="43.62513" lon="3.84017">
        <ele>66.891864280319</ele>
        <time>2020-09-26T08:29:06.000Z</time>
      </trkpt>
      <trkpt lat="43.62514" lon="3.84014">
        <ele>66.994850993879</ele>
        <time>2020-09-26T08:29:07.000Z</time>
      </trkpt>
      <trkpt lat="43.62516" lon="3.84011">
        <ele>67.09500032</ele>
        <time>2020-09-26T08:29:08.000Z</time>
      </trkpt>
      <trkpt lat="43.62517" lon="3.84007">
        <ele>67.19500032</ele>
        <time>2020-09-26T08:29:09.000Z</time>
      </trkpt>
      <trkpt lat="43.62518" lon="3.84004">
        <ele>67.29500032</ele>
        <time>2020-09-26T08:29:10.000Z</time>
      </trkpt>
      <trkpt lat="43.62519" lon="3.84001">
        <ele>67.39500032</ele>
        <time>2020-09-26T08:29:11.000Z</time>
      </trkpt>
      <trkpt lat="43.6252" lon="3.83998">
        <ele>67.49500032</ele>
        <time>2020-09-26T08:29:12.000Z</time>
      </trkpt>
      <trkpt lat="43.6252" lon="3.83995">
        <ele>67.59500032</ele>
        <time>2020-09-26T08:29:13.000Z</time>
      </trkpt>
      <trkpt lat="43.62521" lon="3.83992">
        <ele>67.69500032</ele>
        <time>2020-09-26T08:29:14.000Z</time>
      </trkpt>
      <trkpt lat="43.62522" lon="3.83989">
        <ele>67.79500032</ele>
        <time>2020-09-26T08:29:15.000Z</time>
      </trkpt>
      <trkpt lat="43.62524" lon="3.83987">
        <ele>67.89500032</ele>
        <time>2020-09-26T08:29:16.000Z</time>
      </trkpt>
      <trkpt lat="43.62526" lon="3.83985">
        <ele>67.99500032</ele>
        <time>2020-09-26T08:29:17.000Z</time>
      </trkpt>
      <trkpt lat="43.62527" lon="3.83982">
        <ele>68.092322868192</ele>
        <time>2020-09-26T08:29:18.000Z</time>
      </trkpt>
      <trkpt lat="43.62529" lon="3.83979">
        <ele>68.189504507362</ele>
        <time>2020-09-26T08:29:19.000Z</time>
      </trkpt>
      <trkpt lat="43.62531" lon="3.83977">
        <ele>68.286686146532</ele>
        <time>2020-09-26T08:29:20.000Z</time>
      </trkpt>
      <trkpt lat="43.62532" lon="3.83974">
        <ele>68.383867785702</ele>
        <time>2020-09-26T08:29:21.000Z</time>
      </trkpt>
      <trkpt lat="43.62534" lon="3.83971">
        <ele>68.481049424871</ele>
        <time>2020-09-26T08:29:22.000Z</time>
      </trkpt>
      <trkpt lat="43.62535" lon="3.83968">
        <ele>68.578231064041</ele>
        <time>2020-09-26T08:29:23.000Z</time>
      </trkpt>
      <trkpt lat="43.62537" lon="3.83965">
        <ele>68.675412703211</ele>
        <time>2020-09-26T08:29:24.000Z</time>
      </trkpt>
      <trkpt lat="43.62538" lon="3.83961">
        <ele>68.77259434238</ele>
        <time>2020-09-26T08:29:25.000Z</time>
      </trkpt>
      <trkpt lat="43.62539" lon="3.83957">
        <ele>68.86977598155</ele>
        <time>2020-09-26T08:29:26.000Z</time>
      </trkpt>
      <trkpt lat="43.62539" lon="3.83954">
        <ele>68.96695762072</ele>
        <time>2020-09-26T08:29:27.000Z</time>
      </trkpt>
      <trkpt lat="43.6254" lon="3.8395">
        <ele>69.13594114367</ele>
        <time>2020-09-26T08:29:28.000Z</time>
      </trkpt>
      <trkpt lat="43.62541" lon="3.83946">
        <ele>69.341914570791</ele>
        <time>2020-09-26T08:29:29.000Z</time>
      </trkpt>
      <trkpt lat="43.62541" lon="3.83942">
        <ele>69.547887997912</ele>
        <time>2020-09-26T08:29:30.000Z</time>
      </trkpt>
      <trkpt lat="43.6254" lon="3.83939">
        <ele>69.753861425033</ele>
        <time>2020-09-26T08:29:31.000Z</time>
      </trkpt>
      <trkpt lat="43.6254" lon="3.83935">
        <ele>69.959834852154</ele>
        <time>2020-09-26T08:29:32.000Z</time>
      </trkpt>
      <trkpt lat="43.62539" lon="3.83931">
        <ele>70.165808279275</ele>
        <time>2020-09-26T08:29:33.000Z</time>
      </trkpt>
      <trkpt lat="43.62538" lon="3.83928">
        <ele>70.371781706396</ele>
        <time>2020-09-26T08:29:34.000Z</time>
      </trkpt>
      <trkpt lat="43.62538" lon="3.83924">
        <ele>70.577755133517</ele>
        <time>2020-09-26T08:29:35.000Z</time>
      </trkpt>
      <trkpt lat="43.62537" lon="3.83921">
        <ele>70.783728560638</ele>
        <time>2020-09-26T08:29:36.000Z</time>
      </trkpt>
      <trkpt lat="43.62536" lon="3.83917">
        <ele>70.989701987759</ele>
        <time>2020-09-26T08:29:37.000Z</time>
      </trkpt>
      <trkpt lat="43.62536" lon="3.83913">
        <ele>71</ele>
        <time>2020-09-26T08:29:38.000Z</time>
      </trkpt>
      <trkpt lat="43.62535" lon="3.8391">
        <ele>71</ele>
        <time>2020-09-26T08:29:39.000Z</time>
      </trkpt>
      <trkpt lat="43.62535" lon="3.83906">
        <ele>71</ele>
        <time>2020-09-26T08:29:40.000Z</time>
      </trkpt>
      <trkpt lat="43.62534" lon="3.83902">
        <ele>71</ele>
        <time>2020-09-26T08:29:41.000Z</time>
      </trkpt>
      <trkpt lat="43.62534" lon="3.83898">
        <ele>71</ele>
        <time>2020-09-26T08:29:42.000Z</time>
      </trkpt>
      <trkpt lat="43.62533" lon="3.83894">
        <ele>71</ele>
        <time>2020-09-26T08:29:43.000Z</time>
      </trkpt>
      <trkpt lat="43.62532" lon="3.8389">
        <ele>71</ele>
        <time>2020-09-26T08:29:44.000Z</time>
      </trkpt>
      <trkpt lat="43.62531" lon="3.83887">
        <ele>71</ele>
        <time>2020-09-26T08:29:45.000Z</time>
      </trkpt>
      <trkpt lat="43.6253" lon="3.83883">
        <ele>71</ele>
        <time>2020-09-26T08:29:46.000Z</time>
      </trkpt>
      <trkpt lat="43.62529" lon="3.83879">
        <ele>71</ele>
        <time>2020-09-26T08:29:47.000Z</time>
      </trkpt>
      <trkpt lat="43.62528" lon="3.83875">
        <ele>71.09500032</ele>
        <time>2020-09-26T08:29:48.000Z</time>
      </trkpt>
      <trkpt lat="43.62527" lon="3.83871">
        <ele>71.19500032</ele>
        <time>2020-09-26T08:29:49.000Z</time>
      </trkpt>
      <trkpt lat="43.62526" lon="3.83868">
        <ele>71.29500032</ele>
        <time>2020-09-26T08:29:50.000Z</time>
      </trkpt>
      <trkpt lat="43.62525" lon="3.83864">
        <ele>71.39500032</ele>
        <time>2020-09-26T08:29:51.000Z</time>
      </trkpt>
      <trkpt lat="43.62524" lon="3.8386">
        <ele>71.49500032</ele>
        <time>2020-09-26T08:29:52.000Z</time>
      </trkpt>
      <trkpt lat="43.62523" lon="3.83856">
        <ele>71.59500032</ele>
        <time>2020-09-26T08:29:53.000Z</time>
      </trkpt>
      <trkpt lat="43.62522" lon="3.83852">
        <ele>71.69500032</ele>
        <time>2020-09-26T08:29:54.000Z</time>
      </trkpt>
      <trkpt lat="43.62521" lon="3.83849">
        <ele>71.79500032</ele>
        <time>2020-09-26T08:29:55.000Z</time>
      </trkpt>
      <trkpt lat="43.62519" lon="3.83845">
        <ele>71.89500032</ele>
        <time>2020-09-26T08:29:56.000Z</time>
      </trkpt>
      <trkpt lat="43.62517" lon="3.83841">
        <ele>71.99500032</ele>
        <time>2020-09-26T08:29:57.000Z</time>
      </trkpt>
      <trkpt lat="43.62515" lon="3.83838">
        <ele>72.094905444925</ele>
        <time>2020-09-26T08:29:58.000Z</time>
      </trkpt>
      <trkpt lat="43.62512" lon="3.83835">
        <ele>72.194805576761</ele>
        <time>2020-09-26T08:29:59.000Z</time>
      </trkpt>
      <trkpt lat="43.6251" lon="3.83832">
        <ele>72.294705708597</ele>
        <time>2020-09-26T08:30:00.000Z</time>
      </trkpt>
      <trkpt lat="43.62507" lon="3.83829">
        <ele>72.394605840433</ele>
        <time>2020-09-26T08:30:01.000Z</time>
      </trkpt>
      <trkpt lat="43.62505" lon="3.83827">
        <ele>72.49450597227</ele>
        <time>2020-09-26T08:30:02.000Z</time>
      </trkpt>
      <trkpt lat="43.62502" lon="3.83824">
        <ele>72.594406104106</ele>
        <time>2020-09-26T08:30:03.000Z</time>
      </trkpt>
      <trkpt lat="43.62499" lon="3.83822">
        <ele>72.694306235942</ele>
        <time>2020-09-26T08:30:04.000Z</time>
      </trkpt>
      <trkpt lat="43.62496" lon="3.8382">
        <ele>72.794206367778</ele>
        <time>2020-09-26T08:30:05.000Z</time>
      </trkpt>
      <trkpt lat="43.62493" lon="3.83818">
        <ele>72.894106499614</ele>
        <time>2020-09-26T08:30:06.000Z</time>
      </trkpt>
      <trkpt lat="43.6249" lon="3.83816">
        <ele>72.994006631451</ele>
        <time>2020-09-26T08:30:07.000Z</time>
      </trkpt>
      <trkpt lat="43.62487" lon="3.83814">
        <ele>73.091440197429</ele>
        <time>2020-09-26T08:30:08.000Z</time>
      </trkpt>
      <trkpt lat="43.62484" lon="3.83812">
        <ele>73.188716340898</ele>
        <time>2020-09-26T08:30:09.000Z</time>
      </trkpt>
      <trkpt lat="43.62482" lon="3.8381">
        <ele>73.285992484367</ele>
        <time>2020-09-26T08:30:10.000Z</time>
      </trkpt>
      <trkpt lat="43.62479" lon="3.83807">
        <ele>73.383268627837</ele>
        <time>2020-09-26T08:30:11.000Z</time>
      </trkpt>
      <trkpt lat="43.62476" lon="3.83805">
        <ele>73.480544771306</ele>
        <time>2020-09-26T08:30:12.000Z</time>
      </trkpt>
      <trkpt lat="43.62473" lon="3.83803">
        <ele>73.577820914776</ele>
        <time>2020-09-26T08:30:13.000Z</time>
      </trkpt>
      <trkpt lat="43.6247" lon="3.83801">
        <ele>73.675097058245</ele>
        <time>2020-09-26T08:30:14.000Z</time>
      </trkpt>
      <trkpt lat="43.62467" lon="3.83799">
        <ele>73.772373201714</ele>
        <time>2020-09-26T08:30:15.000Z</time>
      </trkpt>
      <trkpt lat="43.62464" lon="3.83797">
        <ele>73.869649345184</ele>
        <time>2020-09-26T08:30:16.000Z</time>
      </trkpt>
      <trkpt lat="43.62461" lon="3.83794">
        <ele>73.966925488653</ele>
        <time>2020-09-26T08:30:17.000Z</time>
      </trkpt>
      <trkpt lat="43.62458" lon="3.83792">
        <ele>74</ele>
        <time>2020-09-26T08:30:18.000Z</time>
      </trkpt>
      <trkpt lat="43.62456" lon="3.83789">
        <ele>74</ele>
        <time>2020-09-26T08:30:19.000Z</time>
      </trkpt>
      <trkpt lat="43.62453" lon="3.83786">
        <ele>74</ele>
        <time>2020-09-26T08:30:20.000Z</time>
      </trkpt>
      <trkpt lat="43.62451" lon="3.83783">
        <ele>74</ele>
        <time>2020-09-26T08:30:21.000Z</time>
      </trkpt>
      <trkpt lat="43.62448" lon="3.8378">
        <ele>74</ele>
        <time>2020-09-26T08:30:22.000Z</time>
      </trkpt>
      <trkpt lat="43.62446" lon="3.83776">
        <ele>74</ele>
        <time>2020-09-26T08:30:23.000Z</time>
      </trkpt>
      <trkpt lat="43.62444" lon="3.83772">
        <ele>74</ele>
        <time>2020-09-26T08:30:24.000Z</time>
      </trkpt>
      <trkpt lat="43.62442" lon="3.83768">
        <ele>74</ele>
        <time>2020-09-26T08:30:25.000Z</time>
      </trkpt>
      <trkpt lat="43.62441" lon="3.83763">
        <ele>74</ele>
        <time>2020-09-26T08:30:26.000Z</time>
      </trkpt>
      <trkpt lat="43.6244" lon="3.83758">
        <ele>74</ele>
        <time>2020-09-26T08:30:27.000Z</time>
      </trkpt>
      <trkpt lat="43.62438" lon="3.83753">
        <ele>74.093186111863</ele>
        <time>2020-09-26T08:30:28.000Z</time>
      </trkpt>
      <trkpt lat="43.62437" lon="3.83747">
        <ele>74.193386576921</ele>
        <time>2020-09-26T08:30:29.000Z</time>
      </trkpt>
      <trkpt lat="43.62436" lon="3.83742">
        <ele>74.29358704198</ele>
        <time>2020-09-26T08:30:30.000Z</time>
      </trkpt>
      <trkpt lat="43.62435" lon="3.83736">
        <ele>74.393787507038</ele>
        <time>2020-09-26T08:30:31.000Z</time>
      </trkpt>
      <trkpt lat="43.62434" lon="3.8373">
        <ele>74.493987972097</ele>
        <time>2020-09-26T08:30:32.000Z</time>
      </trkpt>
      <trkpt lat="43.62433" lon="3.83725">
        <ele>74.594188437155</ele>
        <time>2020-09-26T08:30:33.000Z</time>
      </trkpt>
      <trkpt lat="43.62431" lon="3.83719">
        <ele>74.694388902213</ele>
        <time>2020-09-26T08:30:34.000Z</time>
      </trkpt>
      <trkpt lat="43.6243" lon="3.83714">
        <ele>74.794589367272</ele>
        <time>2020-09-26T08:30:35.000Z</time>
      </trkpt>
      <trkpt lat="43.62429" lon="3.83709">
        <ele>74.89478983233</ele>
        <time>2020-09-26T08:30:36.000Z</time>
      </trkpt>
      <trkpt lat="43.62428" lon="3.83704">
        <ele>74.994990297389</ele>
        <time>2020-09-26T08:30:37.000Z</time>
      </trkpt>
      <trkpt lat="43.62427" lon="3.837">
        <ele>75.09500032</ele>
        <time>2020-09-26T08:30:38.000Z</time>
      </trkpt>
      <trkpt lat="43.62425" lon="3.83697">
        <ele>75.19500032</ele>
        <time>2020-09-26T08:30:39.000Z</time>
      </trkpt>
      <trkpt lat="43.62422" lon="3.83695">
        <ele>75.29500032</ele>
        <time>2020-09-26T08:30:40.000Z</time>
      </trkpt>
      <trkpt lat="43.6242" lon="3.83693">
        <ele>75.39500032</ele>
        <time>2020-09-26T08:30:41.000Z</time>
      </trkpt>
      <trkpt lat="43.62419" lon="3.8369">
        <ele>75.49500032</ele>
        <time>2020-09-26T08:30:42.000Z</time>
      </trkpt>
      <trkpt lat="43.62419" lon="3.83686">
        <ele>75.69500032</ele>
        <time>2020-09-26T08:30:44.000Z</time>
      </trkpt>
      <trkpt lat="43.62418" lon="3.83683">
        <ele>75.89500032</ele>
        <time>2020-09-26T08:30:46.000Z</time>
      </trkpt>
      <trkpt lat="43.62416" lon="3.83679">
        <ele>76</ele>
        <time>2020-09-26T08:30:48.000Z</time>
      </trkpt>
      <trkpt lat="43.62415" lon="3.83676">
        <ele>76</ele>
        <time>2020-09-26T08:30:50.000Z</time>
      </trkpt>
      <trkpt lat="43.62413" lon="3.83678">
        <ele>76</ele>
        <time>2020-09-26T08:30:54.000Z</time>
      </trkpt>
      <trkpt lat="43.62415" lon="3.8368">
        <ele>76</ele>
        <time>2020-09-26T08:30:56.000Z</time>
      </trkpt>
      <trkpt lat="43.62417" lon="3.8368">
        <ele>76</ele>
        <time>2020-09-26T08:30:59.000Z</time>
      </trkpt>
      <trkpt lat="43.62419" lon="3.83681">
        <ele>76</ele>
        <time>2020-09-26T08:31:01.000Z</time>
      </trkpt>
      <trkpt lat="43.62421" lon="3.83683">
        <ele>76</ele>
        <time>2020-09-26T08:31:03.000Z</time>
      </trkpt>
      <trkpt lat="43.6242" lon="3.83685">
        <ele>76</ele>
        <time>2020-09-26T08:31:05.000Z</time>
      </trkpt>
      <trkpt lat="43.62417" lon="3.83684">
        <ele>76</ele>
        <time>2020-09-26T08:31:07.000Z</time>
      </trkpt>
      <trkpt lat="43.62416" lon="3.83681">
        <ele>76</ele>
        <time>2020-09-26T08:31:09.000Z</time>
      </trkpt>
      <trkpt lat="43.62417" lon="3.83678">
        <ele>76</ele>
        <time>2020-09-26T08:31:11.000Z</time>
      </trkpt>
      <trkpt lat="43.62419" lon="3.83678">
        <ele>76</ele>
        <time>2020-09-26T08:31:13.000Z</time>
      </trkpt>
      <trkpt lat="43.62418" lon="3.83678">
        <ele>76</ele>
        <time>2020-09-26T08:31:19.000Z</time>
      </trkpt>
      <trkpt lat="43.62418" lon="3.8368">
        <ele>76</ele>
        <time>2020-09-26T08:37:43.000Z</time>
      </trkpt>
      <trkpt lat="43.62419" lon="3.83681">
        <ele>75.497798060639</ele>
        <time>2020-09-26T08:37:47.000Z</time>
      </trkpt>
      <trkpt lat="43.62419" lon="3.83681">
        <ele>75</ele>
        <time>2020-09-26T08:37:51.000Z</time>
      </trkpt>
      <trkpt lat="43.62416" lon="3.83678">
        <ele>75</ele>
        <time>2020-09-26T08:38:05.000Z</time>
      </trkpt>
      <trkpt lat="43.62416" lon="3.83678">
        <ele>75</ele>
        <time>2020-09-26T08:38:09.000Z</time>
      </trkpt>
      <trkpt lat="43.6242" lon="3.83684">
        <ele>75</ele>
        <time>2020-09-26T08:43:05.000Z</time>
      </trkpt>
      <trkpt lat="43.62417" lon="3.83682">
        <ele>75.174257315322</ele>
        <time>2020-09-26T08:43:07.000Z</time>
      </trkpt>
      <trkpt lat="43.62417" lon="3.83679">
        <ele>75.273267153573</ele>
        <time>2020-09-26T08:43:08.000Z</time>
      </trkpt>
      <trkpt lat="43.62417" lon="3.83676">
        <ele>75.372276991825</ele>
        <time>2020-09-26T08:43:09.000Z</time>
      </trkpt>
      <trkpt lat="43.62418" lon="3.83673">
        <ele>75.471286830076</ele>
        <time>2020-09-26T08:43:10.000Z</time>
      </trkpt>
      <trkpt lat="43.6242" lon="3.8367">
        <ele>75.570296668327</ele>
        <time>2020-09-26T08:43:11.000Z</time>
      </trkpt>
      <trkpt lat="43.62422" lon="3.8367">
        <ele>75.669306506578</ele>
        <time>2020-09-26T08:43:12.000Z</time>
      </trkpt>
      <trkpt lat="43.62425" lon="3.8367">
        <ele>75.768316344829</ele>
        <time>2020-09-26T08:43:13.000Z</time>
      </trkpt>
      <trkpt lat="43.62429" lon="3.83669">
        <ele>75.86732618308</ele>
        <time>2020-09-26T08:43:14.000Z</time>
      </trkpt>
      <trkpt lat="43.62432" lon="3.83667">
        <ele>75.966336021332</ele>
        <time>2020-09-26T08:43:15.000Z</time>
      </trkpt>
      <trkpt lat="43.62435" lon="3.83666">
        <ele>76</ele>
        <time>2020-09-26T08:43:16.000Z</time>
      </trkpt>
      <trkpt lat="43.62438" lon="3.83664">
        <ele>76</ele>
        <time>2020-09-26T08:43:17.000Z</time>
      </trkpt>
      <trkpt lat="43.62441" lon="3.83663">
        <ele>76</ele>
        <time>2020-09-26T08:43:18.000Z</time>
      </trkpt>
      <trkpt lat="43.62444" lon="3.83662">
        <ele>76</ele>
        <time>2020-09-26T08:43:19.000Z</time>
      </trkpt>
      <trkpt lat="43.62447" lon="3.8366">
        <ele>76</ele>
        <time>2020-09-26T08:43:20.000Z</time>
      </trkpt>
      <trkpt lat="43.6245" lon="3.83659">
        <ele>76</ele>
        <time>2020-09-26T08:43:21.000Z</time>
      </trkpt>
      <trkpt lat="43.62453" lon="3.83658">
        <ele>76</ele>
        <time>2020-09-26T08:43:22.000Z</time>
      </trkpt>
      <trkpt lat="43.62456" lon="3.83657">
        <ele>76</ele>
        <time>2020-09-26T08:43:23.000Z</time>
      </trkpt>
      <trkpt lat="43.62459" lon="3.83656">
        <ele>76</ele>
        <time>2020-09-26T08:43:24.000Z</time>
      </trkpt>
      <trkpt lat="43.62461" lon="3.83655">
        <ele>76</ele>
        <time>2020-09-26T08:43:25.000Z</time>
      </trkpt>
      <trkpt lat="43.62464" lon="3.83654">
        <ele>76.06893037037</ele>
        <time>2020-09-26T08:43:26.000Z</time>
      </trkpt>
      <trkpt lat="43.62467" lon="3.83652">
        <ele>76.171811028807</ele>
        <time>2020-09-26T08:43:27.000Z</time>
      </trkpt>
      <trkpt lat="43.6247" lon="3.83651">
        <ele>76.274691687243</ele>
        <time>2020-09-26T08:43:28.000Z</time>
      </trkpt>
      <trkpt lat="43.62473" lon="3.8365">
        <ele>76.377572345679</ele>
        <time>2020-09-26T08:43:29.000Z</time>
      </trkpt>
      <trkpt lat="43.62476" lon="3.83649">
        <ele>76.480453004115</ele>
        <time>2020-09-26T08:43:30.000Z</time>
      </trkpt>
      <trkpt lat="43.62479" lon="3.83648">
        <ele>76.583333662551</ele>
        <time>2020-09-26T08:43:31.000Z</time>
      </trkpt>
      <trkpt lat="43.62482" lon="3.83647">
        <ele>76.686214320988</ele>
        <time>2020-09-26T08:43:32.000Z</time>
      </trkpt>
      <trkpt lat="43.62485" lon="3.83646">
        <ele>76.789094979424</ele>
        <time>2020-09-26T08:43:33.000Z</time>
      </trkpt>
      <trkpt lat="43.62488" lon="3.83644">
        <ele>76.89197563786</ele>
        <time>2020-09-26T08:43:34.000Z</time>
      </trkpt>
      <trkpt lat="43.6249" lon="3.83641">
        <ele>76.994856296296</ele>
        <time>2020-09-26T08:43:35.000Z</time>
      </trkpt>
      <trkpt lat="43.62491" lon="3.83638">
        <ele>76.907407153274</ele>
        <time>2020-09-26T08:43:36.000Z</time>
      </trkpt>
      <trkpt lat="43.62493" lon="3.83634">
        <ele>76.809941327132</ele>
        <time>2020-09-26T08:43:37.000Z</time>
      </trkpt>
      <trkpt lat="43.62494" lon="3.8363">
        <ele>76.71247550099</ele>
        <time>2020-09-26T08:43:38.000Z</time>
      </trkpt>
      <trkpt lat="43.62496" lon="3.83626">
        <ele>76.615009674848</ele>
        <time>2020-09-26T08:43:39.000Z</time>
      </trkpt>
      <trkpt lat="43.62497" lon="3.83623">
        <ele>76.517543848706</ele>
        <time>2020-09-26T08:43:40.000Z</time>
      </trkpt>
      <trkpt lat="43.62498" lon="3.83619">
        <ele>76.420078022563</ele>
        <time>2020-09-26T08:43:41.000Z</time>
      </trkpt>
      <trkpt lat="43.62499" lon="3.83616">
        <ele>76.322612196421</ele>
        <time>2020-09-26T08:43:42.000Z</time>
      </trkpt>
      <trkpt lat="43.62501" lon="3.83613">
        <ele>76.225146370279</ele>
        <time>2020-09-26T08:43:43.000Z</time>
      </trkpt>
      <trkpt lat="43.62503" lon="3.83611">
        <ele>76.127680544137</ele>
        <time>2020-09-26T08:43:44.000Z</time>
      </trkpt>
      <trkpt lat="43.62505" lon="3.83608">
        <ele>76.030214717995</ele>
        <time>2020-09-26T08:43:45.000Z</time>
      </trkpt>
      <trkpt lat="43.62508" lon="3.83606">
        <ele>76</ele>
        <time>2020-09-26T08:43:46.000Z</time>
      </trkpt>
      <trkpt lat="43.62511" lon="3.83604">
        <ele>76</ele>
        <time>2020-09-26T08:43:47.000Z</time>
      </trkpt>
      <trkpt lat="43.62514" lon="3.83603">
        <ele>76</ele>
        <time>2020-09-26T08:43:48.000Z</time>
      </trkpt>
      <trkpt lat="43.62518" lon="3.83603">
        <ele>76</ele>
        <time>2020-09-26T08:43:49.000Z</time>
      </trkpt>
      <trkpt lat="43.62521" lon="3.83603">
        <ele>76</ele>
        <time>2020-09-26T08:43:50.000Z</time>
      </trkpt>
      <trkpt lat="43.62525" lon="3.83604">
        <ele>76</ele>
        <time>2020-09-26T08:43:51.000Z</time>
      </trkpt>
      <trkpt lat="43.62528" lon="3.83606">
        <ele>76</ele>
        <time>2020-09-26T08:43:52.000Z</time>
      </trkpt>
      <trkpt lat="43.6253" lon="3.83607">
        <ele>76</ele>
        <time>2020-09-26T08:43:53.000Z</time>
      </trkpt>
      <trkpt lat="43.62532" lon="3.8361">
        <ele>76</ele>
        <time>2020-09-26T08:43:54.000Z</time>
      </trkpt>
      <trkpt lat="43.62534" lon="3.83612">
        <ele>76</ele>
        <time>2020-09-26T08:43:55.000Z</time>
      </trkpt>
      <trkpt lat="43.62537" lon="3.83614">
        <ele>75.90499968</ele>
        <time>2020-09-26T08:43:56.000Z</time>
      </trkpt>
      <trkpt lat="43.6254" lon="3.83616">
        <ele>75.80499968</ele>
        <time>2020-09-26T08:43:57.000Z</time>
      </trkpt>
      <trkpt lat="43.62543" lon="3.83618">
        <ele>75.70499968</ele>
        <time>2020-09-26T08:43:58.000Z</time>
      </trkpt>
      <trkpt lat="43.62545" lon="3.8362">
        <ele>75.60499968</ele>
        <time>2020-09-26T08:43:59.000Z</time>
      </trkpt>
      <trkpt lat="43.62548" lon="3.8362">
        <ele>75.50499968</ele>
        <time>2020-09-26T08:44:00.000Z</time>
      </trkpt>
      <trkpt lat="43.62551" lon="3.83619">
        <ele>75.40499968</ele>
        <time>2020-09-26T08:44:01.000Z</time>
      </trkpt>
      <trkpt lat="43.62554" lon="3.83618">
        <ele>75.30499968</ele>
        <time>2020-09-26T08:44:02.000Z</time>
      </trkpt>
      <trkpt lat="43.62557" lon="3.83617">
        <ele>75.20499968</ele>
        <time>2020-09-26T08:44:03.000Z</time>
      </trkpt>
      <trkpt lat="43.6256" lon="3.83616">
        <ele>75.10499968</ele>
        <time>2020-09-26T08:44:04.000Z</time>
      </trkpt>
      <trkpt lat="43.62562" lon="3.83615">
        <ele>75.00499968</ele>
        <time>2020-09-26T08:44:05.000Z</time>
      </trkpt>
      <trkpt lat="43.62565" lon="3.83614">
        <ele>75</ele>
        <time>2020-09-26T08:44:06.000Z</time>
      </trkpt>
      <trkpt lat="43.62567" lon="3.83613">
        <ele>75</ele>
        <time>2020-09-26T08:44:07.000Z</time>
      </trkpt>
      <trkpt lat="43.6257" lon="3.83612">
        <ele>75</ele>
        <time>2020-09-26T08:44:08.000Z</time>
      </trkpt>
      <trkpt lat="43.62572" lon="3.83611">
        <ele>75</ele>
        <time>2020-09-26T08:44:09.000Z</time>
      </trkpt>
      <trkpt lat="43.62574" lon="3.83609">
        <ele>75</ele>
        <time>2020-09-26T08:44:10.000Z</time>
      </trkpt>
      <trkpt lat="43.62575" lon="3.83605">
        <ele>75</ele>
        <time>2020-09-26T08:44:12.000Z</time>
      </trkpt>
      <trkpt lat="43.62574" lon="3.836">
        <ele>75</ele>
        <time>2020-09-26T08:44:14.000Z</time>
      </trkpt>
      <trkpt lat="43.62572" lon="3.83597">
        <ele>75</ele>
        <time>2020-09-26T08:44:16.000Z</time>
      </trkpt>
      <trkpt lat="43.62571" lon="3.83594">
        <ele>75</ele>
        <time>2020-09-26T08:44:17.000Z</time>
      </trkpt>
      <trkpt lat="43.6257" lon="3.83591">
        <ele>75</ele>
        <time>2020-09-26T08:44:18.000Z</time>
      </trkpt>
      <trkpt lat="43.62569" lon="3.83588">
        <ele>75</ele>
        <time>2020-09-26T08:44:19.000Z</time>
      </trkpt>
      <trkpt lat="43.62569" lon="3.83585">
        <ele>75</ele>
        <time>2020-09-26T08:44:20.000Z</time>
      </trkpt>
      <trkpt lat="43.62567" lon="3.83582">
        <ele>75</ele>
        <time>2020-09-26T08:44:21.000Z</time>
      </trkpt>
      <trkpt lat="43.62564" lon="3.83579">
        <ele>75</ele>
        <time>2020-09-26T08:44:22.000Z</time>
      </trkpt>
      <trkpt lat="43.62562" lon="3.83576">
        <ele>75</ele>
        <time>2020-09-26T08:44:23.000Z</time>
      </trkpt>
      <trkpt lat="43.62559" lon="3.83573">
        <ele>75</ele>
        <time>2020-09-26T08:44:24.000Z</time>
      </trkpt>
      <trkpt lat="43.62556" lon="3.8357">
        <ele>75</ele>
        <time>2020-09-26T08:44:25.000Z</time>
      </trkpt>
      <trkpt lat="43.62553" lon="3.83567">
        <ele>75</ele>
        <time>2020-09-26T08:44:26.000Z</time>
      </trkpt>
      <trkpt lat="43.6255" lon="3.83565">
        <ele>75</ele>
        <time>2020-09-26T08:44:27.000Z</time>
      </trkpt>
      <trkpt lat="43.62547" lon="3.83562">
        <ele>75</ele>
        <time>2020-09-26T08:44:28.000Z</time>
      </trkpt>
      <trkpt lat="43.62544" lon="3.8356">
        <ele>75</ele>
        <time>2020-09-26T08:44:29.000Z</time>
      </trkpt>
      <trkpt lat="43.6254" lon="3.83557">
        <ele>75</ele>
        <time>2020-09-26T08:44:30.000Z</time>
      </trkpt>
      <trkpt lat="43.62537" lon="3.83554">
        <ele>75</ele>
        <time>2020-09-26T08:44:31.000Z</time>
      </trkpt>
      <trkpt lat="43.62535" lon="3.83551">
        <ele>75</ele>
        <time>2020-09-26T08:44:32.000Z</time>
      </trkpt>
      <trkpt lat="43.62533" lon="3.83547">
        <ele>75</ele>
        <time>2020-09-26T08:44:33.000Z</time>
      </trkpt>
      <trkpt lat="43.62533" lon="3.83544">
        <ele>75</ele>
        <time>2020-09-26T08:44:34.000Z</time>
      </trkpt>
      <trkpt lat="43.62532" lon="3.8354">
        <ele>75</ele>
        <time>2020-09-26T08:44:35.000Z</time>
      </trkpt>
      <trkpt lat="43.62531" lon="3.83536">
        <ele>75.19000064</ele>
        <time>2020-09-26T08:44:36.000Z</time>
      </trkpt>
      <trkpt lat="43.6253" lon="3.83531">
        <ele>75.39000064</ele>
        <time>2020-09-26T08:44:37.000Z</time>
      </trkpt>
      <trkpt lat="43.62529" lon="3.83527">
        <ele>75.59000064</ele>
        <time>2020-09-26T08:44:38.000Z</time>
      </trkpt>
      <trkpt lat="43.62527" lon="3.83523">
        <ele>75.79000064</ele>
        <time>2020-09-26T08:44:39.000Z</time>
      </trkpt>
      <trkpt lat="43.62526" lon="3.83519">
        <ele>75.99000064</ele>
        <time>2020-09-26T08:44:40.000Z</time>
      </trkpt>
      <trkpt lat="43.62524" lon="3.83516">
        <ele>76.19000064</ele>
        <time>2020-09-26T08:44:41.000Z</time>
      </trkpt>
      <trkpt lat="43.62523" lon="3.83512">
        <ele>76.39000064</ele>
        <time>2020-09-26T08:44:42.000Z</time>
      </trkpt>
      <trkpt lat="43.62521" lon="3.83509">
        <ele>76.59000064</ele>
        <time>2020-09-26T08:44:43.000Z</time>
      </trkpt>
      <trkpt lat="43.6252" lon="3.83507">
        <ele>76.79000064</ele>
        <time>2020-09-26T08:44:44.000Z</time>
      </trkpt>
      <trkpt lat="43.62519" lon="3.83503">
        <ele>77</ele>
        <time>2020-09-26T08:44:46.000Z</time>
      </trkpt>
      <trkpt lat="43.62518" lon="3.83499">
        <ele>77</ele>
        <time>2020-09-26T08:44:48.000Z</time>
      </trkpt>
      <trkpt lat="43.62517" lon="3.83497">
        <ele>77</ele>
        <time>2020-09-26T08:44:49.000Z</time>
      </trkpt>
      <trkpt lat="43.62515" lon="3.83494">
        <ele>77</ele>
        <time>2020-09-26T08:44:50.000Z</time>
      </trkpt>
      <trkpt lat="43.62514" lon="3.83491">
        <ele>77</ele>
        <time>2020-09-26T08:44:51.000Z</time>
      </trkpt>
      <trkpt lat="43.62513" lon="3.83489">
        <ele>77</ele>
        <time>2020-09-26T08:44:52.000Z</time>
      </trkpt>
      <trkpt lat="43.62511" lon="3.83486">
        <ele>77</ele>
        <time>2020-09-26T08:44:53.000Z</time>
      </trkpt>
      <trkpt lat="43.6251" lon="3.83484">
        <ele>77</ele>
        <time>2020-09-26T08:44:54.000Z</time>
      </trkpt>
      <trkpt lat="43.62509" lon="3.83482">
        <ele>77</ele>
        <time>2020-09-26T08:44:55.000Z</time>
      </trkpt>
      <trkpt lat="43.62509" lon="3.83479">
        <ele>76.906495748032</ele>
        <time>2020-09-26T08:44:56.000Z</time>
      </trkpt>
      <trkpt lat="43.62509" lon="3.83474">
        <ele>76.709645354331</ele>
        <time>2020-09-26T08:44:58.000Z</time>
      </trkpt>
      <trkpt lat="43.62508" lon="3.83472">
        <ele>76.61122015748</ele>
        <time>2020-09-26T08:44:59.000Z</time>
      </trkpt>
      <trkpt lat="43.62506" lon="3.83469">
        <ele>76.51279496063</ele>
        <time>2020-09-26T08:45:00.000Z</time>
      </trkpt>
      <trkpt lat="43.62504" lon="3.83465">
        <ele>76.41436976378</ele>
        <time>2020-09-26T08:45:01.000Z</time>
      </trkpt>
      <trkpt lat="43.62503" lon="3.8346">
        <ele>76.315944566929</ele>
        <time>2020-09-26T08:45:02.000Z</time>
      </trkpt>
      <trkpt lat="43.62504" lon="3.83455">
        <ele>76.217519370079</ele>
        <time>2020-09-26T08:45:03.000Z</time>
      </trkpt>
      <trkpt lat="43.62506" lon="3.83449">
        <ele>76.119094173228</ele>
        <time>2020-09-26T08:45:04.000Z</time>
      </trkpt>
      <trkpt lat="43.62508" lon="3.83444">
        <ele>76.020668976378</ele>
        <time>2020-09-26T08:45:05.000Z</time>
      </trkpt>
      <trkpt lat="43.62509" lon="3.83439">
        <ele>76</ele>
        <time>2020-09-26T08:45:06.000Z</time>
      </trkpt>
      <trkpt lat="43.62511" lon="3.83434">
        <ele>76</ele>
        <time>2020-09-26T08:45:07.000Z</time>
      </trkpt>
      <trkpt lat="43.62512" lon="3.83429">
        <ele>76</ele>
        <time>2020-09-26T08:45:08.000Z</time>
      </trkpt>
      <trkpt lat="43.62514" lon="3.83424">
        <ele>76</ele>
        <time>2020-09-26T08:45:09.000Z</time>
      </trkpt>
      <trkpt lat="43.62515" lon="3.8342">
        <ele>76</ele>
        <time>2020-09-26T08:45:10.000Z</time>
      </trkpt>
      <trkpt lat="43.62516" lon="3.83415">
        <ele>76</ele>
        <time>2020-09-26T08:45:11.000Z</time>
      </trkpt>
      <trkpt lat="43.62516" lon="3.8341">
        <ele>76</ele>
        <time>2020-09-26T08:45:12.000Z</time>
      </trkpt>
      <trkpt lat="43.62517" lon="3.83405">
        <ele>76</ele>
        <time>2020-09-26T08:45:13.000Z</time>
      </trkpt>
      <trkpt lat="43.62517" lon="3.83399">
        <ele>76</ele>
        <time>2020-09-26T08:45:14.000Z</time>
      </trkpt>
      <trkpt lat="43.62519" lon="3.83394">
        <ele>76</ele>
        <time>2020-09-26T08:45:15.000Z</time>
      </trkpt>
      <trkpt lat="43.6252" lon="3.83389">
        <ele>76</ele>
        <time>2020-09-26T08:45:16.000Z</time>
      </trkpt>
      <trkpt lat="43.62522" lon="3.83384">
        <ele>76</ele>
        <time>2020-09-26T08:45:17.000Z</time>
      </trkpt>
      <trkpt lat="43.62523" lon="3.8338">
        <ele>76</ele>
        <time>2020-09-26T08:45:18.000Z</time>
      </trkpt>
      <trkpt lat="43.62525" lon="3.83376">
        <ele>76</ele>
        <time>2020-09-26T08:45:19.000Z</time>
      </trkpt>
      <trkpt lat="43.62526" lon="3.83371">
        <ele>76</ele>
        <time>2020-09-26T08:45:20.000Z</time>
      </trkpt>
      <trkpt lat="43.62527" lon="3.83367">
        <ele>76</ele>
        <time>2020-09-26T08:45:21.000Z</time>
      </trkpt>
      <trkpt lat="43.62528" lon="3.83363">
        <ele>76</ele>
        <time>2020-09-26T08:45:22.000Z</time>
      </trkpt>
      <trkpt lat="43.6253" lon="3.83358">
        <ele>76</ele>
        <time>2020-09-26T08:45:23.000Z</time>
      </trkpt>
      <trkpt lat="43.62531" lon="3.83354">
        <ele>76</ele>
        <time>2020-09-26T08:45:24.000Z</time>
      </trkpt>
      <trkpt lat="43.62532" lon="3.83349">
        <ele>76</ele>
        <time>2020-09-26T08:45:25.000Z</time>
      </trkpt>
      <trkpt lat="43.62534" lon="3.83345">
        <ele>76.09500032</ele>
        <time>2020-09-26T08:45:26.000Z</time>
      </trkpt>
      <trkpt lat="43.62535" lon="3.8334">
        <ele>76.19500032</ele>
        <time>2020-09-26T08:45:27.000Z</time>
      </trkpt>
      <trkpt lat="43.62537" lon="3.83336">
        <ele>76.29500032</ele>
        <time>2020-09-26T08:45:28.000Z</time>
      </trkpt>
      <trkpt lat="43.62539" lon="3.83332">
        <ele>76.39500032</ele>
        <time>2020-09-26T08:45:29.000Z</time>
      </trkpt>
      <trkpt lat="43.6254" lon="3.83327">
        <ele>76.49500032</ele>
        <time>2020-09-26T08:45:30.000Z</time>
      </trkpt>
      <trkpt lat="43.62542" lon="3.83323">
        <ele>76.59500032</ele>
        <time>2020-09-26T08:45:31.000Z</time>
      </trkpt>
      <trkpt lat="43.62543" lon="3.83318">
        <ele>76.69500032</ele>
        <time>2020-09-26T08:45:32.000Z</time>
      </trkpt>
      <trkpt lat="43.62544" lon="3.83314">
        <ele>76.79500032</ele>
        <time>2020-09-26T08:45:33.000Z</time>
      </trkpt>
      <trkpt lat="43.62545" lon="3.8331">
        <ele>76.89500032</ele>
        <time>2020-09-26T08:45:34.000Z</time>
      </trkpt>
      <trkpt lat="43.62547" lon="3.83306">
        <ele>76.99500032</ele>
        <time>2020-09-26T08:45:35.000Z</time>
      </trkpt>
      <trkpt lat="43.62548" lon="3.83302">
        <ele>77</ele>
        <time>2020-09-26T08:45:36.000Z</time>
      </trkpt>
      <trkpt lat="43.62549" lon="3.83298">
        <ele>77</ele>
        <time>2020-09-26T08:45:37.000Z</time>
      </trkpt>
      <trkpt lat="43.6255" lon="3.83294">
        <ele>77</ele>
        <time>2020-09-26T08:45:38.000Z</time>
      </trkpt>
      <trkpt lat="43.62551" lon="3.8329">
        <ele>77</ele>
        <time>2020-09-26T08:45:39.000Z</time>
      </trkpt>
      <trkpt lat="43.62552" lon="3.83287">
        <ele>77</ele>
        <time>2020-09-26T08:45:40.000Z</time>
      </trkpt>
      <trkpt lat="43.62553" lon="3.83283">
        <ele>77</ele>
        <time>2020-09-26T08:45:41.000Z</time>
      </trkpt>
      <trkpt lat="43.62554" lon="3.8328">
        <ele>77</ele>
        <time>2020-09-26T08:45:42.000Z</time>
      </trkpt>
      <trkpt lat="43.62556" lon="3.83276">
        <ele>77</ele>
        <time>2020-09-26T08:45:43.000Z</time>
      </trkpt>
      <trkpt lat="43.62557" lon="3.83273">
        <ele>77</ele>
        <time>2020-09-26T08:45:44.000Z</time>
      </trkpt>
      <trkpt lat="43.6256" lon="3.83271">
        <ele>77</ele>
        <time>2020-09-26T08:45:45.000Z</time>
      </trkpt>
      <trkpt lat="43.62562" lon="3.83269">
        <ele>77.09500032</ele>
        <time>2020-09-26T08:45:46.000Z</time>
      </trkpt>
      <trkpt lat="43.62565" lon="3.83267">
        <ele>77.19500032</ele>
        <time>2020-09-26T08:45:47.000Z</time>
      </trkpt>
      <trkpt lat="43.62569" lon="3.83266">
        <ele>77.29500032</ele>
        <time>2020-09-26T08:45:48.000Z</time>
      </trkpt>
      <trkpt lat="43.62572" lon="3.83264">
        <ele>77.39500032</ele>
        <time>2020-09-26T08:45:49.000Z</time>
      </trkpt>
      <trkpt lat="43.62575" lon="3.83262">
        <ele>77.49500032</ele>
        <time>2020-09-26T08:45:50.000Z</time>
      </trkpt>
      <trkpt lat="43.62578" lon="3.83259">
        <ele>77.59500032</ele>
        <time>2020-09-26T08:45:51.000Z</time>
      </trkpt>
      <trkpt lat="43.6258" lon="3.83256">
        <ele>77.69500032</ele>
        <time>2020-09-26T08:45:52.000Z</time>
      </trkpt>
      <trkpt lat="43.62582" lon="3.83252">
        <ele>77.79500032</ele>
        <time>2020-09-26T08:45:53.000Z</time>
      </trkpt>
      <trkpt lat="43.62584" lon="3.83247">
        <ele>77.89500032</ele>
        <time>2020-09-26T08:45:54.000Z</time>
      </trkpt>
      <trkpt lat="43.62585" lon="3.83243">
        <ele>77.99500032</ele>
        <time>2020-09-26T08:45:55.000Z</time>
      </trkpt>
      <trkpt lat="43.62587" lon="3.83239">
        <ele>78.09500032</ele>
        <time>2020-09-26T08:45:56.000Z</time>
      </trkpt>
      <trkpt lat="43.6259" lon="3.83235">
        <ele>78.19500032</ele>
        <time>2020-09-26T08:45:57.000Z</time>
      </trkpt>
      <trkpt lat="43.62592" lon="3.83232">
        <ele>78.29500032</ele>
        <time>2020-09-26T08:45:58.000Z</time>
      </trkpt>
      <trkpt lat="43.62595" lon="3.8323">
        <ele>78.39500032</ele>
        <time>2020-09-26T08:45:59.000Z</time>
      </trkpt>
      <trkpt lat="43.62598" lon="3.83228">
        <ele>78.49500032</ele>
        <time>2020-09-26T08:46:00.000Z</time>
      </trkpt>
      <trkpt lat="43.62601" lon="3.83226">
        <ele>78.59500032</ele>
        <time>2020-09-26T08:46:01.000Z</time>
      </trkpt>
      <trkpt lat="43.62604" lon="3.83224">
        <ele>78.69500032</ele>
        <time>2020-09-26T08:46:02.000Z</time>
      </trkpt>
      <trkpt lat="43.62607" lon="3.83222">
        <ele>78.79500032</ele>
        <time>2020-09-26T08:46:03.000Z</time>
      </trkpt>
      <trkpt lat="43.6261" lon="3.8322">
        <ele>78.89500032</ele>
        <time>2020-09-26T08:46:04.000Z</time>
      </trkpt>
      <trkpt lat="43.62613" lon="3.83219">
        <ele>78.99500032</ele>
        <time>2020-09-26T08:46:05.000Z</time>
      </trkpt>
      <trkpt lat="43.62615" lon="3.83218">
        <ele>79.09500032</ele>
        <time>2020-09-26T08:46:06.000Z</time>
      </trkpt>
      <trkpt lat="43.62618" lon="3.83217">
        <ele>79.19500032</ele>
        <time>2020-09-26T08:46:07.000Z</time>
      </trkpt>
      <trkpt lat="43.62621" lon="3.83215">
        <ele>79.29500032</ele>
        <time>2020-09-26T08:46:08.000Z</time>
      </trkpt>
      <trkpt lat="43.62623" lon="3.83213">
        <ele>79.39500032</ele>
        <time>2020-09-26T08:46:09.000Z</time>
      </trkpt>
      <trkpt lat="43.62626" lon="3.8321">
        <ele>79.49500032</ele>
        <time>2020-09-26T08:46:10.000Z</time>
      </trkpt>
      <trkpt lat="43.62628" lon="3.83208">
        <ele>79.59500032</ele>
        <time>2020-09-26T08:46:11.000Z</time>
      </trkpt>
      <trkpt lat="43.62631" lon="3.83206">
        <ele>79.69500032</ele>
        <time>2020-09-26T08:46:12.000Z</time>
      </trkpt>
      <trkpt lat="43.62634" lon="3.83204">
        <ele>79.79500032</ele>
        <time>2020-09-26T08:46:13.000Z</time>
      </trkpt>
      <trkpt lat="43.62637" lon="3.83202">
        <ele>79.89500032</ele>
        <time>2020-09-26T08:46:14.000Z</time>
      </trkpt>
      <trkpt lat="43.6264" lon="3.832">
        <ele>79.99500032</ele>
        <time>2020-09-26T08:46:15.000Z</time>
      </trkpt>
      <trkpt lat="43.62643" lon="3.83198">
        <ele>80.19000064</ele>
        <time>2020-09-26T08:46:16.000Z</time>
      </trkpt>
      <trkpt lat="43.62646" lon="3.83196">
        <ele>80.39000064</ele>
        <time>2020-09-26T08:46:17.000Z</time>
      </trkpt>
      <trkpt lat="43.62648" lon="3.83194">
        <ele>80.59000064</ele>
        <time>2020-09-26T08:46:18.000Z</time>
      </trkpt>
      <trkpt lat="43.62651" lon="3.83192">
        <ele>80.79000064</ele>
        <time>2020-09-26T08:46:19.000Z</time>
      </trkpt>
      <trkpt lat="43.62654" lon="3.8319">
        <ele>80.99000064</ele>
        <time>2020-09-26T08:46:20.000Z</time>
      </trkpt>
      <trkpt lat="43.62657" lon="3.83189">
        <ele>81.19000064</ele>
        <time>2020-09-26T08:46:21.000Z</time>
      </trkpt>
      <trkpt lat="43.62659" lon="3.83187">
        <ele>81.39000064</ele>
        <time>2020-09-26T08:46:22.000Z</time>
      </trkpt>
      <trkpt lat="43.62662" lon="3.83185">
        <ele>81.59000064</ele>
        <time>2020-09-26T08:46:23.000Z</time>
      </trkpt>
      <trkpt lat="43.62665" lon="3.83183">
        <ele>81.79000064</ele>
        <time>2020-09-26T08:46:24.000Z</time>
      </trkpt>
      <trkpt lat="43.62667" lon="3.83181">
        <ele>81.99000064</ele>
        <time>2020-09-26T08:46:25.000Z</time>
      </trkpt>
      <trkpt lat="43.6267" lon="3.83179">
        <ele>82.092322868192</ele>
        <time>2020-09-26T08:46:26.000Z</time>
      </trkpt>
      <trkpt lat="43.62672" lon="3.83177">
        <ele>82.189504507362</ele>
        <time>2020-09-26T08:46:27.000Z</time>
      </trkpt>
      <trkpt lat="43.62675" lon="3.83175">
        <ele>82.286686146532</ele>
        <time>2020-09-26T08:46:28.000Z</time>
      </trkpt>
      <trkpt lat="43.62677" lon="3.83172">
        <ele>82.383867785702</ele>
        <time>2020-09-26T08:46:29.000Z</time>
      </trkpt>
      <trkpt lat="43.62679" lon="3.83169">
        <ele>82.481049424871</ele>
        <time>2020-09-26T08:46:30.000Z</time>
      </trkpt>
      <trkpt lat="43.62681" lon="3.83166">
        <ele>82.578231064041</ele>
        <time>2020-09-26T08:46:31.000Z</time>
      </trkpt>
      <trkpt lat="43.62682" lon="3.83162">
        <ele>82.675412703211</ele>
        <time>2020-09-26T08:46:32.000Z</time>
      </trkpt>
      <trkpt lat="43.62684" lon="3.83159">
        <ele>82.77259434238</ele>
        <time>2020-09-26T08:46:33.000Z</time>
      </trkpt>
      <trkpt lat="43.62685" lon="3.83155">
        <ele>82.86977598155</ele>
        <time>2020-09-26T08:46:34.000Z</time>
      </trkpt>
      <trkpt lat="43.62687" lon="3.83153">
        <ele>82.96695762072</ele>
        <time>2020-09-26T08:46:35.000Z</time>
      </trkpt>
      <trkpt lat="43.62689" lon="3.83151">
        <ele>83.067970571835</ele>
        <time>2020-09-26T08:46:36.000Z</time>
      </trkpt>
      <trkpt lat="43.62691" lon="3.8315">
        <ele>83.170957285396</ele>
        <time>2020-09-26T08:46:37.000Z</time>
      </trkpt>
      <trkpt lat="43.62693" lon="3.83148">
        <ele>83.273943998956</ele>
        <time>2020-09-26T08:46:38.000Z</time>
      </trkpt>
      <trkpt lat="43.62696" lon="3.83147">
        <ele>83.376930712516</ele>
        <time>2020-09-26T08:46:39.000Z</time>
      </trkpt>
      <trkpt lat="43.62698" lon="3.83145">
        <ele>83.479917426077</ele>
        <time>2020-09-26T08:46:40.000Z</time>
      </trkpt>
      <trkpt lat="43.62701" lon="3.83144">
        <ele>83.582904139638</ele>
        <time>2020-09-26T08:46:41.000Z</time>
      </trkpt>
      <trkpt lat="43.62704" lon="3.83142">
        <ele>83.685890853198</ele>
        <time>2020-09-26T08:46:42.000Z</time>
      </trkpt>
      <trkpt lat="43.62706" lon="3.8314">
        <ele>83.788877566759</ele>
        <time>2020-09-26T08:46:43.000Z</time>
      </trkpt>
      <trkpt lat="43.62709" lon="3.83139">
        <ele>83.891864280319</ele>
        <time>2020-09-26T08:46:44.000Z</time>
      </trkpt>
      <trkpt lat="43.62712" lon="3.83137">
        <ele>83.994850993879</ele>
        <time>2020-09-26T08:46:45.000Z</time>
      </trkpt>
      <trkpt lat="43.62715" lon="3.83135">
        <ele>84</ele>
        <time>2020-09-26T08:46:46.000Z</time>
      </trkpt>
      <trkpt lat="43.62717" lon="3.83133">
        <ele>84</ele>
        <time>2020-09-26T08:46:47.000Z</time>
      </trkpt>
      <trkpt lat="43.6272" lon="3.83131">
        <ele>84</ele>
        <time>2020-09-26T08:46:48.000Z</time>
      </trkpt>
      <trkpt lat="43.62723" lon="3.83129">
        <ele>84</ele>
        <time>2020-09-26T08:46:49.000Z</time>
      </trkpt>
      <trkpt lat="43.62726" lon="3.83128">
        <ele>84</ele>
        <time>2020-09-26T08:46:50.000Z</time>
      </trkpt>
      <trkpt lat="43.62728" lon="3.83129">
        <ele>84</ele>
        <time>2020-09-26T08:46:51.000Z</time>
      </trkpt>
      <trkpt lat="43.62731" lon="3.8313">
        <ele>84</ele>
        <time>2020-09-26T08:46:52.000Z</time>
      </trkpt>
      <trkpt lat="43.62733" lon="3.83129">
        <ele>84</ele>
        <time>2020-09-26T08:46:53.000Z</time>
      </trkpt>
      <trkpt lat="43.62736" lon="3.83128">
        <ele>84</ele>
        <time>2020-09-26T08:46:54.000Z</time>
      </trkpt>
      <trkpt lat="43.62739" lon="3.83127">
        <ele>84</ele>
        <time>2020-09-26T08:46:55.000Z</time>
      </trkpt>
      <trkpt lat="43.62742" lon="3.83125">
        <ele>84.09500032</ele>
        <time>2020-09-26T08:46:56.000Z</time>
      </trkpt>
      <trkpt lat="43.62745" lon="3.83124">
        <ele>84.19500032</ele>
        <time>2020-09-26T08:46:57.000Z</time>
      </trkpt>
      <trkpt lat="43.62749" lon="3.83123">
        <ele>84.29500032</ele>
        <time>2020-09-26T08:46:58.000Z</time>
      </trkpt>
      <trkpt lat="43.62752" lon="3.83122">
        <ele>84.39500032</ele>
        <time>2020-09-26T08:46:59.000Z</time>
      </trkpt>
      <trkpt lat="43.62755" lon="3.8312">
        <ele>84.49500032</ele>
        <time>2020-09-26T08:47:00.000Z</time>
      </trkpt>
      <trkpt lat="43.62759" lon="3.83119">
        <ele>84.59500032</ele>
        <time>2020-09-26T08:47:01.000Z</time>
      </trkpt>
      <trkpt lat="43.62762" lon="3.83118">
        <ele>84.69500032</ele>
        <time>2020-09-26T08:47:02.000Z</time>
      </trkpt>
      <trkpt lat="43.62766" lon="3.83117">
        <ele>84.79500032</ele>
        <time>2020-09-26T08:47:03.000Z</time>
      </trkpt>
      <trkpt lat="43.62769" lon="3.83116">
        <ele>84.89500032</ele>
        <time>2020-09-26T08:47:04.000Z</time>
      </trkpt>
      <trkpt lat="43.62773" lon="3.83116">
        <ele>84.99500032</ele>
        <time>2020-09-26T08:47:05.000Z</time>
      </trkpt>
      <trkpt lat="43.62777" lon="3.83115">
        <ele>84.90499968</ele>
        <time>2020-09-26T08:47:06.000Z</time>
      </trkpt>
      <trkpt lat="43.62781" lon="3.83115">
        <ele>84.80499968</ele>
        <time>2020-09-26T08:47:07.000Z</time>
      </trkpt>
      <trkpt lat="43.62784" lon="3.83115">
        <ele>84.70499968</ele>
        <time>2020-09-26T08:47:08.000Z</time>
      </trkpt>
      <trkpt lat="43.62788" lon="3.83114">
        <ele>84.60499968</ele>
        <time>2020-09-26T08:47:09.000Z</time>
      </trkpt>
      <trkpt lat="43.62792" lon="3.83114">
        <ele>84.50499968</ele>
        <time>2020-09-26T08:47:10.000Z</time>
      </trkpt>
      <trkpt lat="43.62796" lon="3.83113">
        <ele>84.40499968</ele>
        <time>2020-09-26T08:47:11.000Z</time>
      </trkpt>
      <trkpt lat="43.628" lon="3.83113">
        <ele>84.30499968</ele>
        <time>2020-09-26T08:47:12.000Z</time>
      </trkpt>
      <trkpt lat="43.62804" lon="3.83112">
        <ele>84.20499968</ele>
        <time>2020-09-26T08:47:13.000Z</time>
      </trkpt>
      <trkpt lat="43.62808" lon="3.83112">
        <ele>84.10499968</ele>
        <time>2020-09-26T08:47:14.000Z</time>
      </trkpt>
      <trkpt lat="43.62812" lon="3.83111">
        <ele>84.00499968</ele>
        <time>2020-09-26T08:47:15.000Z</time>
      </trkpt>
      <trkpt lat="43.62816" lon="3.8311">
        <ele>84.09500032</ele>
        <time>2020-09-26T08:47:16.000Z</time>
      </trkpt>
      <trkpt lat="43.62819" lon="3.8311">
        <ele>84.19500032</ele>
        <time>2020-09-26T08:47:17.000Z</time>
      </trkpt>
      <trkpt lat="43.62822" lon="3.83109">
        <ele>84.29500032</ele>
        <time>2020-09-26T08:47:18.000Z</time>
      </trkpt>
      <trkpt lat="43.62826" lon="3.83108">
        <ele>84.39500032</ele>
        <time>2020-09-26T08:47:19.000Z</time>
      </trkpt>
      <trkpt lat="43.62829" lon="3.83108">
        <ele>84.49500032</ele>
        <time>2020-09-26T08:47:20.000Z</time>
      </trkpt>
      <trkpt lat="43.62833" lon="3.83107">
        <ele>84.59500032</ele>
        <time>2020-09-26T08:47:21.000Z</time>
      </trkpt>
      <trkpt lat="43.62836" lon="3.83107">
        <ele>84.69500032</ele>
        <time>2020-09-26T08:47:22.000Z</time>
      </trkpt>
      <trkpt lat="43.62839" lon="3.83106">
        <ele>84.79500032</ele>
        <time>2020-09-26T08:47:23.000Z</time>
      </trkpt>
      <trkpt lat="43.62842" lon="3.83106">
        <ele>84.89500032</ele>
        <time>2020-09-26T08:47:24.000Z</time>
      </trkpt>
      <trkpt lat="43.62846" lon="3.83105">
        <ele>84.99500032</ele>
        <time>2020-09-26T08:47:25.000Z</time>
      </trkpt>
      <trkpt lat="43.62849" lon="3.83105">
        <ele>85</ele>
        <time>2020-09-26T08:47:26.000Z</time>
      </trkpt>
      <trkpt lat="43.62852" lon="3.83105">
        <ele>85</ele>
        <time>2020-09-26T08:47:27.000Z</time>
      </trkpt>
      <trkpt lat="43.62855" lon="3.83104">
        <ele>85</ele>
        <time>2020-09-26T08:47:28.000Z</time>
      </trkpt>
      <trkpt lat="43.62859" lon="3.83104">
        <ele>85</ele>
        <time>2020-09-26T08:47:29.000Z</time>
      </trkpt>
      <trkpt lat="43.62862" lon="3.83104">
        <ele>85</ele>
        <time>2020-09-26T08:47:30.000Z</time>
      </trkpt>
      <trkpt lat="43.62866" lon="3.83104">
        <ele>85</ele>
        <time>2020-09-26T08:47:31.000Z</time>
      </trkpt>
      <trkpt lat="43.6287" lon="3.83103">
        <ele>85</ele>
        <time>2020-09-26T08:47:32.000Z</time>
      </trkpt>
      <trkpt lat="43.62873" lon="3.83103">
        <ele>85</ele>
        <time>2020-09-26T08:47:33.000Z</time>
      </trkpt>
      <trkpt lat="43.62877" lon="3.83103">
        <ele>85</ele>
        <time>2020-09-26T08:47:34.000Z</time>
      </trkpt>
      <trkpt lat="43.6288" lon="3.83103">
        <ele>85</ele>
        <time>2020-09-26T08:47:35.000Z</time>
      </trkpt>
      <trkpt lat="43.62884" lon="3.83103">
        <ele>84.905566342383</ele>
        <time>2020-09-26T08:47:36.000Z</time>
      </trkpt>
      <trkpt lat="43.62888" lon="3.83103">
        <ele>84.806162827093</ele>
        <time>2020-09-26T08:47:37.000Z</time>
      </trkpt>
      <trkpt lat="43.62893" lon="3.83104">
        <ele>84.706759311803</ele>
        <time>2020-09-26T08:47:38.000Z</time>
      </trkpt>
      <trkpt lat="43.62897" lon="3.83104">
        <ele>84.607355796513</ele>
        <time>2020-09-26T08:47:39.000Z</time>
      </trkpt>
      <trkpt lat="43.62902" lon="3.83106">
        <ele>84.507952281223</ele>
        <time>2020-09-26T08:47:40.000Z</time>
      </trkpt>
      <trkpt lat="43.62907" lon="3.83107">
        <ele>84.408548765933</ele>
        <time>2020-09-26T08:47:41.000Z</time>
      </trkpt>
      <trkpt lat="43.62911" lon="3.83108">
        <ele>84.309145250643</ele>
        <time>2020-09-26T08:47:42.000Z</time>
      </trkpt>
      <trkpt lat="43.62915" lon="3.83108">
        <ele>84.209741735353</ele>
        <time>2020-09-26T08:47:43.000Z</time>
      </trkpt>
      <trkpt lat="43.6292" lon="3.83109">
        <ele>84.110338220063</ele>
        <time>2020-09-26T08:47:44.000Z</time>
      </trkpt>
      <trkpt lat="43.62924" lon="3.8311">
        <ele>84.010934704773</ele>
        <time>2020-09-26T08:47:45.000Z</time>
      </trkpt>
      <trkpt lat="43.62928" lon="3.83112">
        <ele>84</ele>
        <time>2020-09-26T08:47:46.000Z</time>
      </trkpt>
      <trkpt lat="43.62932" lon="3.83113">
        <ele>84</ele>
        <time>2020-09-26T08:47:47.000Z</time>
      </trkpt>
      <trkpt lat="43.62936" lon="3.83114">
        <ele>84</ele>
        <time>2020-09-26T08:47:48.000Z</time>
      </trkpt>
      <trkpt lat="43.6294" lon="3.83115">
        <ele>84</ele>
        <time>2020-09-26T08:47:49.000Z</time>
      </trkpt>
      <trkpt lat="43.62944" lon="3.83116">
        <ele>84</ele>
        <time>2020-09-26T08:47:50.000Z</time>
      </trkpt>
      <trkpt lat="43.62948" lon="3.83118">
        <ele>84</ele>
        <time>2020-09-26T08:47:51.000Z</time>
      </trkpt>
      <trkpt lat="43.62951" lon="3.83119">
        <ele>84</ele>
        <time>2020-09-26T08:47:52.000Z</time>
      </trkpt>
      <trkpt lat="43.62955" lon="3.83119">
        <ele>84</ele>
        <time>2020-09-26T08:47:53.000Z</time>
      </trkpt>
      <trkpt lat="43.62958" lon="3.8312">
        <ele>84</ele>
        <time>2020-09-26T08:47:54.000Z</time>
      </trkpt>
      <trkpt lat="43.62962" lon="3.83121">
        <ele>84</ele>
        <time>2020-09-26T08:47:55.000Z</time>
      </trkpt>
      <trkpt lat="43.62966" lon="3.83123">
        <ele>83.90499968</ele>
        <time>2020-09-26T08:47:56.000Z</time>
      </trkpt>
      <trkpt lat="43.62969" lon="3.83124">
        <ele>83.80499968</ele>
        <time>2020-09-26T08:47:57.000Z</time>
      </trkpt>
      <trkpt lat="43.62973" lon="3.83125">
        <ele>83.70499968</ele>
        <time>2020-09-26T08:47:58.000Z</time>
      </trkpt>
      <trkpt lat="43.62977" lon="3.83126">
        <ele>83.60499968</ele>
        <time>2020-09-26T08:47:59.000Z</time>
      </trkpt>
      <trkpt lat="43.6298" lon="3.83127">
        <ele>83.50499968</ele>
        <time>2020-09-26T08:48:00.000Z</time>
      </trkpt>
      <trkpt lat="43.62983" lon="3.83128">
        <ele>83.40499968</ele>
        <time>2020-09-26T08:48:01.000Z</time>
      </trkpt>
      <trkpt lat="43.62987" lon="3.83129">
        <ele>83.30499968</ele>
        <time>2020-09-26T08:48:02.000Z</time>
      </trkpt>
      <trkpt lat="43.6299" lon="3.8313">
        <ele>83.20499968</ele>
        <time>2020-09-26T08:48:03.000Z</time>
      </trkpt>
      <trkpt lat="43.62993" lon="3.83131">
        <ele>83.10499968</ele>
        <time>2020-09-26T08:48:04.000Z</time>
      </trkpt>
      <trkpt lat="43.62997" lon="3.83132">
        <ele>83.00499968</ele>
        <time>2020-09-26T08:48:05.000Z</time>
      </trkpt>
      <trkpt lat="43.63" lon="3.83134">
        <ele>82.90499968</ele>
        <time>2020-09-26T08:48:06.000Z</time>
      </trkpt>
      <trkpt lat="43.63003" lon="3.83136">
        <ele>82.80499968</ele>
        <time>2020-09-26T08:48:07.000Z</time>
      </trkpt>
      <trkpt lat="43.63007" lon="3.83138">
        <ele>82.70499968</ele>
        <time>2020-09-26T08:48:08.000Z</time>
      </trkpt>
      <trkpt lat="43.63011" lon="3.83138">
        <ele>82.60499968</ele>
        <time>2020-09-26T08:48:09.000Z</time>
      </trkpt>
      <trkpt lat="43.63015" lon="3.83137">
        <ele>82.50499968</ele>
        <time>2020-09-26T08:48:10.000Z</time>
      </trkpt>
      <trkpt lat="43.63018" lon="3.83135">
        <ele>82.40499968</ele>
        <time>2020-09-26T08:48:11.000Z</time>
      </trkpt>
      <trkpt lat="43.63022" lon="3.83134">
        <ele>82.30499968</ele>
        <time>2020-09-26T08:48:12.000Z</time>
      </trkpt>
      <trkpt lat="43.63026" lon="3.83132">
        <ele>82.20499968</ele>
        <time>2020-09-26T08:48:13.000Z</time>
      </trkpt>
      <trkpt lat="43.63029" lon="3.83131">
        <ele>82.10499968</ele>
        <time>2020-09-26T08:48:14.000Z</time>
      </trkpt>
      <trkpt lat="43.63033" lon="3.8313">
        <ele>82.00499968</ele>
        <time>2020-09-26T08:48:15.000Z</time>
      </trkpt>
      <trkpt lat="43.63036" lon="3.8313">
        <ele>81.907587237354</ele>
        <time>2020-09-26T08:48:16.000Z</time>
      </trkpt>
      <trkpt lat="43.6304" lon="3.83129">
        <ele>81.810310972763</ele>
        <time>2020-09-26T08:48:17.000Z</time>
      </trkpt>
      <trkpt lat="43.63043" lon="3.83129">
        <ele>81.713034708171</ele>
        <time>2020-09-26T08:48:18.000Z</time>
      </trkpt>
      <trkpt lat="43.63047" lon="3.83129">
        <ele>81.61575844358</ele>
        <time>2020-09-26T08:48:19.000Z</time>
      </trkpt>
      <trkpt lat="43.63051" lon="3.83129">
        <ele>81.518482178988</ele>
        <time>2020-09-26T08:48:20.000Z</time>
      </trkpt>
      <trkpt lat="43.63055" lon="3.8313">
        <ele>81.421205914397</ele>
        <time>2020-09-26T08:48:21.000Z</time>
      </trkpt>
      <trkpt lat="43.63059" lon="3.8313">
        <ele>81.323929649806</ele>
        <time>2020-09-26T08:48:22.000Z</time>
      </trkpt>
      <trkpt lat="43.63063" lon="3.83132">
        <ele>81.226653385214</ele>
        <time>2020-09-26T08:48:23.000Z</time>
      </trkpt>
      <trkpt lat="43.63067" lon="3.83133">
        <ele>81.129377120623</ele>
        <time>2020-09-26T08:48:24.000Z</time>
      </trkpt>
      <trkpt lat="43.63071" lon="3.83135">
        <ele>81.032100856031</ele>
        <time>2020-09-26T08:48:25.000Z</time>
      </trkpt>
      <trkpt lat="43.63075" lon="3.83136">
        <ele>81</ele>
        <time>2020-09-26T08:48:26.000Z</time>
      </trkpt>
      <trkpt lat="43.63079" lon="3.83137">
        <ele>81</ele>
        <time>2020-09-26T08:48:27.000Z</time>
      </trkpt>
      <trkpt lat="43.63083" lon="3.83137">
        <ele>81</ele>
        <time>2020-09-26T08:48:28.000Z</time>
      </trkpt>
      <trkpt lat="43.63087" lon="3.83138">
        <ele>81</ele>
        <time>2020-09-26T08:48:29.000Z</time>
      </trkpt>
      <trkpt lat="43.63091" lon="3.83139">
        <ele>81</ele>
        <time>2020-09-26T08:48:30.000Z</time>
      </trkpt>
      <trkpt lat="43.63096" lon="3.83139">
        <ele>81</ele>
        <time>2020-09-26T08:48:31.000Z</time>
      </trkpt>
      <trkpt lat="43.631" lon="3.83139">
        <ele>81</ele>
        <time>2020-09-26T08:48:32.000Z</time>
      </trkpt>
      <trkpt lat="43.63105" lon="3.83139">
        <ele>81</ele>
        <time>2020-09-26T08:48:33.000Z</time>
      </trkpt>
      <trkpt lat="43.63109" lon="3.83139">
        <ele>81</ele>
        <time>2020-09-26T08:48:34.000Z</time>
      </trkpt>
      <trkpt lat="43.63113" lon="3.83138">
        <ele>81</ele>
        <time>2020-09-26T08:48:35.000Z</time>
      </trkpt>
      <trkpt lat="43.63117" lon="3.83137">
        <ele>80.93106962963</ele>
        <time>2020-09-26T08:48:36.000Z</time>
      </trkpt>
      <trkpt lat="43.63122" lon="3.83137">
        <ele>80.828188971193</ele>
        <time>2020-09-26T08:48:37.000Z</time>
      </trkpt>
      <trkpt lat="43.63126" lon="3.83136">
        <ele>80.725308312757</ele>
        <time>2020-09-26T08:48:38.000Z</time>
      </trkpt>
      <trkpt lat="43.63131" lon="3.83135">
        <ele>80.622427654321</ele>
        <time>2020-09-26T08:48:39.000Z</time>
      </trkpt>
      <trkpt lat="43.63135" lon="3.83133">
        <ele>80.519546995885</ele>
        <time>2020-09-26T08:48:40.000Z</time>
      </trkpt>
      <trkpt lat="43.6314" lon="3.83132">
        <ele>80.416666337449</ele>
        <time>2020-09-26T08:48:41.000Z</time>
      </trkpt>
      <trkpt lat="43.63145" lon="3.8313">
        <ele>80.313785679012</ele>
        <time>2020-09-26T08:48:42.000Z</time>
      </trkpt>
      <trkpt lat="43.63149" lon="3.83128">
        <ele>80.210905020576</ele>
        <time>2020-09-26T08:48:43.000Z</time>
      </trkpt>
      <trkpt lat="43.63154" lon="3.83127">
        <ele>80.10802436214</ele>
        <time>2020-09-26T08:48:44.000Z</time>
      </trkpt>
      <trkpt lat="43.63158" lon="3.83126">
        <ele>80.005143703704</ele>
        <time>2020-09-26T08:48:45.000Z</time>
      </trkpt>
      <trkpt lat="43.63163" lon="3.83125">
        <ele>80</ele>
        <time>2020-09-26T08:48:46.000Z</time>
      </trkpt>
      <trkpt lat="43.63167" lon="3.83124">
        <ele>80</ele>
        <time>2020-09-26T08:48:47.000Z</time>
      </trkpt>
      <trkpt lat="43.63172" lon="3.83123">
        <ele>80</ele>
        <time>2020-09-26T08:48:48.000Z</time>
      </trkpt>
      <trkpt lat="43.63176" lon="3.83121">
        <ele>80</ele>
        <time>2020-09-26T08:48:49.000Z</time>
      </trkpt>
      <trkpt lat="43.63181" lon="3.8312">
        <ele>80</ele>
        <time>2020-09-26T08:48:50.000Z</time>
      </trkpt>
      <trkpt lat="43.63185" lon="3.83118">
        <ele>80</ele>
        <time>2020-09-26T08:48:51.000Z</time>
      </trkpt>
      <trkpt lat="43.63189" lon="3.83116">
        <ele>80</ele>
        <time>2020-09-26T08:48:52.000Z</time>
      </trkpt>
      <trkpt lat="43.63194" lon="3.83115">
        <ele>80</ele>
        <time>2020-09-26T08:48:53.000Z</time>
      </trkpt>
      <trkpt lat="43.63198" lon="3.83113">
        <ele>80</ele>
        <time>2020-09-26T08:48:54.000Z</time>
      </trkpt>
      <trkpt lat="43.63202" lon="3.83112">
        <ele>80</ele>
        <time>2020-09-26T08:48:55.000Z</time>
      </trkpt>
      <trkpt lat="43.63207" lon="3.8311">
        <ele>80</ele>
        <time>2020-09-26T08:48:56.000Z</time>
      </trkpt>
      <trkpt lat="43.63211" lon="3.83108">
        <ele>80</ele>
        <time>2020-09-26T08:48:57.000Z</time>
      </trkpt>
      <trkpt lat="43.63215" lon="3.83106">
        <ele>80</ele>
        <time>2020-09-26T08:48:58.000Z</time>
      </trkpt>
      <trkpt lat="43.63219" lon="3.83105">
        <ele>80</ele>
        <time>2020-09-26T08:48:59.000Z</time>
      </trkpt>
      <trkpt lat="43.63223" lon="3.83103">
        <ele>80</ele>
        <time>2020-09-26T08:49:00.000Z</time>
      </trkpt>
      <trkpt lat="43.63226" lon="3.83101">
        <ele>80</ele>
        <time>2020-09-26T08:49:01.000Z</time>
      </trkpt>
      <trkpt lat="43.6323" lon="3.831">
        <ele>80</ele>
        <time>2020-09-26T08:49:02.000Z</time>
      </trkpt>
      <trkpt lat="43.63234" lon="3.83099">
        <ele>80</ele>
        <time>2020-09-26T08:49:03.000Z</time>
      </trkpt>
      <trkpt lat="43.63238" lon="3.83097">
        <ele>80</ele>
        <time>2020-09-26T08:49:04.000Z</time>
      </trkpt>
      <trkpt lat="43.63242" lon="3.83095">
        <ele>80</ele>
        <time>2020-09-26T08:49:05.000Z</time>
      </trkpt>
      <trkpt lat="43.63245" lon="3.83093">
        <ele>80.09500032</ele>
        <time>2020-09-26T08:49:06.000Z</time>
      </trkpt>
      <trkpt lat="43.63249" lon="3.83091">
        <ele>80.19500032</ele>
        <time>2020-09-26T08:49:07.000Z</time>
      </trkpt>
      <trkpt lat="43.63253" lon="3.83089">
        <ele>80.29500032</ele>
        <time>2020-09-26T08:49:08.000Z</time>
      </trkpt>
      <trkpt lat="43.63257" lon="3.83087">
        <ele>80.39500032</ele>
        <time>2020-09-26T08:49:09.000Z</time>
      </trkpt>
      <trkpt lat="43.63261" lon="3.83085">
        <ele>80.49500032</ele>
        <time>2020-09-26T08:49:10.000Z</time>
      </trkpt>
      <trkpt lat="43.63264" lon="3.83083">
        <ele>80.59500032</ele>
        <time>2020-09-26T08:49:11.000Z</time>
      </trkpt>
      <trkpt lat="43.63268" lon="3.8308">
        <ele>80.69500032</ele>
        <time>2020-09-26T08:49:12.000Z</time>
      </trkpt>
      <trkpt lat="43.63271" lon="3.83078">
        <ele>80.79500032</ele>
        <time>2020-09-26T08:49:13.000Z</time>
      </trkpt>
      <trkpt lat="43.63275" lon="3.83076">
        <ele>80.89500032</ele>
        <time>2020-09-26T08:49:14.000Z</time>
      </trkpt>
      <trkpt lat="43.63278" lon="3.83074">
        <ele>80.99500032</ele>
        <time>2020-09-26T08:49:15.000Z</time>
      </trkpt>
      <trkpt lat="43.63282" lon="3.83072">
        <ele>81.092322868192</ele>
        <time>2020-09-26T08:49:16.000Z</time>
      </trkpt>
      <trkpt lat="43.63285" lon="3.8307">
        <ele>81.189504507362</ele>
        <time>2020-09-26T08:49:17.000Z</time>
      </trkpt>
      <trkpt lat="43.63289" lon="3.83068">
        <ele>81.286686146532</ele>
        <time>2020-09-26T08:49:18.000Z</time>
      </trkpt>
      <trkpt lat="43.63292" lon="3.83066">
        <ele>81.383867785702</ele>
        <time>2020-09-26T08:49:19.000Z</time>
      </trkpt>
      <trkpt lat="43.63295" lon="3.83063">
        <ele>81.481049424871</ele>
        <time>2020-09-26T08:49:20.000Z</time>
      </trkpt>
      <trkpt lat="43.63298" lon="3.83061">
        <ele>81.578231064041</ele>
        <time>2020-09-26T08:49:21.000Z</time>
      </trkpt>
      <trkpt lat="43.63302" lon="3.83059">
        <ele>81.675412703211</ele>
        <time>2020-09-26T08:49:22.000Z</time>
      </trkpt>
      <trkpt lat="43.63305" lon="3.83057">
        <ele>81.77259434238</ele>
        <time>2020-09-26T08:49:23.000Z</time>
      </trkpt>
      <trkpt lat="43.63308" lon="3.83054">
        <ele>81.86977598155</ele>
        <time>2020-09-26T08:49:24.000Z</time>
      </trkpt>
      <trkpt lat="43.6331" lon="3.83052">
        <ele>81.96695762072</ele>
        <time>2020-09-26T08:49:25.000Z</time>
      </trkpt>
      <trkpt lat="43.63313" lon="3.8305">
        <ele>82.067970571835</ele>
        <time>2020-09-26T08:49:26.000Z</time>
      </trkpt>
      <trkpt lat="43.63316" lon="3.83048">
        <ele>82.170957285396</ele>
        <time>2020-09-26T08:49:27.000Z</time>
      </trkpt>
      <trkpt lat="43.63319" lon="3.83046">
        <ele>82.273943998956</ele>
        <time>2020-09-26T08:49:28.000Z</time>
      </trkpt>
      <trkpt lat="43.63322" lon="3.83044">
        <ele>82.376930712516</ele>
        <time>2020-09-26T08:49:29.000Z</time>
      </trkpt>
      <trkpt lat="43.63325" lon="3.83041">
        <ele>82.479917426077</ele>
        <time>2020-09-26T08:49:30.000Z</time>
      </trkpt>
      <trkpt lat="43.63328" lon="3.83038">
        <ele>82.582904139638</ele>
        <time>2020-09-26T08:49:31.000Z</time>
      </trkpt>
      <trkpt lat="43.63331" lon="3.83036">
        <ele>82.685890853198</ele>
        <time>2020-09-26T08:49:32.000Z</time>
      </trkpt>
      <trkpt lat="43.63334" lon="3.83033">
        <ele>82.788877566759</ele>
        <time>2020-09-26T08:49:33.000Z</time>
      </trkpt>
      <trkpt lat="43.63337" lon="3.83031">
        <ele>82.891864280319</ele>
        <time>2020-09-26T08:49:34.000Z</time>
      </trkpt>
      <trkpt lat="43.6334" lon="3.83028">
        <ele>82.994850993879</ele>
        <time>2020-09-26T08:49:35.000Z</time>
      </trkpt>
      <trkpt lat="43.63343" lon="3.83025">
        <ele>83.184645736385</ele>
        <time>2020-09-26T08:49:36.000Z</time>
      </trkpt>
      <trkpt lat="43.63346" lon="3.83022">
        <ele>83.379009014724</ele>
        <time>2020-09-26T08:49:37.000Z</time>
      </trkpt>
      <trkpt lat="43.63349" lon="3.8302">
        <ele>83.573372293064</ele>
        <time>2020-09-26T08:49:38.000Z</time>
      </trkpt>
      <trkpt lat="43.63352" lon="3.83017">
        <ele>83.767735571403</ele>
        <time>2020-09-26T08:49:39.000Z</time>
      </trkpt>
      <trkpt lat="43.63355" lon="3.83014">
        <ele>83.962098849743</ele>
        <time>2020-09-26T08:49:40.000Z</time>
      </trkpt>
      <trkpt lat="43.63358" lon="3.83012">
        <ele>84.156462128082</ele>
        <time>2020-09-26T08:49:41.000Z</time>
      </trkpt>
      <trkpt lat="43.63361" lon="3.83009">
        <ele>84.350825406421</ele>
        <time>2020-09-26T08:49:42.000Z</time>
      </trkpt>
      <trkpt lat="43.63364" lon="3.83006">
        <ele>84.545188684761</ele>
        <time>2020-09-26T08:49:43.000Z</time>
      </trkpt>
      <trkpt lat="43.63367" lon="3.83003">
        <ele>84.7395519631</ele>
        <time>2020-09-26T08:49:44.000Z</time>
      </trkpt>
      <trkpt lat="43.6337" lon="3.83">
        <ele>84.93391524144</ele>
        <time>2020-09-26T08:49:45.000Z</time>
      </trkpt>
      <trkpt lat="43.63372" lon="3.82997">
        <ele>85</ele>
        <time>2020-09-26T08:49:46.000Z</time>
      </trkpt>
      <trkpt lat="43.63375" lon="3.82994">
        <ele>85</ele>
        <time>2020-09-26T08:49:47.000Z</time>
      </trkpt>
      <trkpt lat="43.63378" lon="3.82991">
        <ele>85</ele>
        <time>2020-09-26T08:49:48.000Z</time>
      </trkpt>
      <trkpt lat="43.63381" lon="3.82989">
        <ele>85</ele>
        <time>2020-09-26T08:49:49.000Z</time>
      </trkpt>
      <trkpt lat="43.63384" lon="3.82986">
        <ele>85</ele>
        <time>2020-09-26T08:49:50.000Z</time>
      </trkpt>
      <trkpt lat="43.63387" lon="3.82983">
        <ele>85</ele>
        <time>2020-09-26T08:49:51.000Z</time>
      </trkpt>
      <trkpt lat="43.63389" lon="3.8298">
        <ele>85</ele>
        <time>2020-09-26T08:49:52.000Z</time>
      </trkpt>
      <trkpt lat="43.63392" lon="3.82977">
        <ele>85</ele>
        <time>2020-09-26T08:49:53.000Z</time>
      </trkpt>
      <trkpt lat="43.63395" lon="3.82974">
        <ele>85</ele>
        <time>2020-09-26T08:49:54.000Z</time>
      </trkpt>
      <trkpt lat="43.63398" lon="3.82971">
        <ele>85</ele>
        <time>2020-09-26T08:49:55.000Z</time>
      </trkpt>
      <trkpt lat="43.634" lon="3.82967">
        <ele>85.09500032</ele>
        <time>2020-09-26T08:49:56.000Z</time>
      </trkpt>
      <trkpt lat="43.63403" lon="3.82964">
        <ele>85.19500032</ele>
        <time>2020-09-26T08:49:57.000Z</time>
      </trkpt>
      <trkpt lat="43.63406" lon="3.82961">
        <ele>85.29500032</ele>
        <time>2020-09-26T08:49:58.000Z</time>
      </trkpt>
      <trkpt lat="43.63409" lon="3.82958">
        <ele>85.39500032</ele>
        <time>2020-09-26T08:49:59.000Z</time>
      </trkpt>
      <trkpt lat="43.63412" lon="3.82954">
        <ele>85.49500032</ele>
        <time>2020-09-26T08:50:00.000Z</time>
      </trkpt>
      <trkpt lat="43.63414" lon="3.82951">
        <ele>85.59500032</ele>
        <time>2020-09-26T08:50:01.000Z</time>
      </trkpt>
      <trkpt lat="43.63417" lon="3.82947">
        <ele>85.69500032</ele>
        <time>2020-09-26T08:50:02.000Z</time>
      </trkpt>
      <trkpt lat="43.6342" lon="3.82943">
        <ele>85.79500032</ele>
        <time>2020-09-26T08:50:03.000Z</time>
      </trkpt>
      <trkpt lat="43.63423" lon="3.8294">
        <ele>85.89500032</ele>
        <time>2020-09-26T08:50:04.000Z</time>
      </trkpt>
      <trkpt lat="43.63426" lon="3.82936">
        <ele>85.99500032</ele>
        <time>2020-09-26T08:50:05.000Z</time>
      </trkpt>
      <trkpt lat="43.63429" lon="3.82932">
        <ele>86</ele>
        <time>2020-09-26T08:50:06.000Z</time>
      </trkpt>
      <trkpt lat="43.63432" lon="3.82928">
        <ele>86</ele>
        <time>2020-09-26T08:50:07.000Z</time>
      </trkpt>
      <trkpt lat="43.63436" lon="3.82924">
        <ele>86</ele>
        <time>2020-09-26T08:50:08.000Z</time>
      </trkpt>
      <trkpt lat="43.63439" lon="3.8292">
        <ele>86</ele>
        <time>2020-09-26T08:50:09.000Z</time>
      </trkpt>
      <trkpt lat="43.63442" lon="3.82916">
        <ele>86</ele>
        <time>2020-09-26T08:50:10.000Z</time>
      </trkpt>
      <trkpt lat="43.63444" lon="3.82912">
        <ele>86</ele>
        <time>2020-09-26T08:50:11.000Z</time>
      </trkpt>
      <trkpt lat="43.63447" lon="3.82908">
        <ele>86</ele>
        <time>2020-09-26T08:50:12.000Z</time>
      </trkpt>
      <trkpt lat="43.6345" lon="3.82904">
        <ele>86</ele>
        <time>2020-09-26T08:50:13.000Z</time>
      </trkpt>
      <trkpt lat="43.63453" lon="3.829">
        <ele>86</ele>
        <time>2020-09-26T08:50:14.000Z</time>
      </trkpt>
      <trkpt lat="43.63456" lon="3.82895">
        <ele>86</ele>
        <time>2020-09-26T08:50:15.000Z</time>
      </trkpt>
      <trkpt lat="43.63459" lon="3.82891">
        <ele>86</ele>
        <time>2020-09-26T08:50:16.000Z</time>
      </trkpt>
      <trkpt lat="43.63462" lon="3.82886">
        <ele>86</ele>
        <time>2020-09-26T08:50:17.000Z</time>
      </trkpt>
      <trkpt lat="43.63465" lon="3.82882">
        <ele>86</ele>
        <time>2020-09-26T08:50:18.000Z</time>
      </trkpt>
      <trkpt lat="43.63468" lon="3.82878">
        <ele>86</ele>
        <time>2020-09-26T08:50:19.000Z</time>
      </trkpt>
      <trkpt lat="43.63472" lon="3.82873">
        <ele>86</ele>
        <time>2020-09-26T08:50:20.000Z</time>
      </trkpt>
      <trkpt lat="43.63475" lon="3.82869">
        <ele>86</ele>
        <time>2020-09-26T08:50:21.000Z</time>
      </trkpt>
      <trkpt lat="43.63478" lon="3.82865">
        <ele>86</ele>
        <time>2020-09-26T08:50:22.000Z</time>
      </trkpt>
      <trkpt lat="43.63482" lon="3.8286">
        <ele>86</ele>
        <time>2020-09-26T08:50:23.000Z</time>
      </trkpt>
      <trkpt lat="43.63485" lon="3.82856">
        <ele>86</ele>
        <time>2020-09-26T08:50:24.000Z</time>
      </trkpt>
      <trkpt lat="43.63488" lon="3.82852">
        <ele>86</ele>
        <time>2020-09-26T08:50:25.000Z</time>
      </trkpt>
      <trkpt lat="43.63492" lon="3.82849">
        <ele>86</ele>
        <time>2020-09-26T08:50:26.000Z</time>
      </trkpt>
      <trkpt lat="43.63496" lon="3.82845">
        <ele>86</ele>
        <time>2020-09-26T08:50:27.000Z</time>
      </trkpt>
      <trkpt lat="43.63499" lon="3.82841">
        <ele>86</ele>
        <time>2020-09-26T08:50:28.000Z</time>
      </trkpt>
      <trkpt lat="43.63503" lon="3.82837">
        <ele>86</ele>
        <time>2020-09-26T08:50:29.000Z</time>
      </trkpt>
      <trkpt lat="43.63507" lon="3.82834">
        <ele>86</ele>
        <time>2020-09-26T08:50:30.000Z</time>
      </trkpt>
      <trkpt lat="43.6351" lon="3.8283">
        <ele>86</ele>
        <time>2020-09-26T08:50:31.000Z</time>
      </trkpt>
      <trkpt lat="43.63514" lon="3.82827">
        <ele>86</ele>
        <time>2020-09-26T08:50:32.000Z</time>
      </trkpt>
      <trkpt lat="43.63518" lon="3.82824">
        <ele>86</ele>
        <time>2020-09-26T08:50:33.000Z</time>
      </trkpt>
      <trkpt lat="43.63521" lon="3.82821">
        <ele>86</ele>
        <time>2020-09-26T08:50:34.000Z</time>
      </trkpt>
      <trkpt lat="43.63525" lon="3.82818">
        <ele>86</ele>
        <time>2020-09-26T08:50:35.000Z</time>
      </trkpt>
      <trkpt lat="43.63529" lon="3.82815">
        <ele>85.905094555075</ele>
        <time>2020-09-26T08:50:36.000Z</time>
      </trkpt>
      <trkpt lat="43.63532" lon="3.82812">
        <ele>85.805194423239</ele>
        <time>2020-09-26T08:50:37.000Z</time>
      </trkpt>
      <trkpt lat="43.63536" lon="3.82809">
        <ele>85.705294291403</ele>
        <time>2020-09-26T08:50:38.000Z</time>
      </trkpt>
      <trkpt lat="43.6354" lon="3.82807">
        <ele>85.605394159567</ele>
        <time>2020-09-26T08:50:39.000Z</time>
      </trkpt>
      <trkpt lat="43.63544" lon="3.82804">
        <ele>85.50549402773</ele>
        <time>2020-09-26T08:50:40.000Z</time>
      </trkpt>
      <trkpt lat="43.63547" lon="3.82801">
        <ele>85.405593895894</ele>
        <time>2020-09-26T08:50:41.000Z</time>
      </trkpt>
      <trkpt lat="43.63552" lon="3.82799">
        <ele>85.305693764058</ele>
        <time>2020-09-26T08:50:42.000Z</time>
      </trkpt>
      <trkpt lat="43.63556" lon="3.82798">
        <ele>85.205793632222</ele>
        <time>2020-09-26T08:50:43.000Z</time>
      </trkpt>
      <trkpt lat="43.6356" lon="3.82797">
        <ele>85.105893500386</ele>
        <time>2020-09-26T08:50:44.000Z</time>
      </trkpt>
      <trkpt lat="43.63564" lon="3.82795">
        <ele>85.005993368549</ele>
        <time>2020-09-26T08:50:45.000Z</time>
      </trkpt>
      <trkpt lat="43.63569" lon="3.82794">
        <ele>84.90599936</ele>
        <time>2020-09-26T08:50:46.000Z</time>
      </trkpt>
      <trkpt lat="43.63573" lon="3.82793">
        <ele>84.80599936</ele>
        <time>2020-09-26T08:50:47.000Z</time>
      </trkpt>
      <trkpt lat="43.63578" lon="3.82792">
        <ele>84.70599936</ele>
        <time>2020-09-26T08:50:48.000Z</time>
      </trkpt>
      <trkpt lat="43.63582" lon="3.8279">
        <ele>84.60599936</ele>
        <time>2020-09-26T08:50:49.000Z</time>
      </trkpt>
      <trkpt lat="43.63586" lon="3.82788">
        <ele>84.50599936</ele>
        <time>2020-09-26T08:50:50.000Z</time>
      </trkpt>
      <trkpt lat="43.63591" lon="3.82787">
        <ele>84.40599936</ele>
        <time>2020-09-26T08:50:51.000Z</time>
      </trkpt>
      <trkpt lat="43.63596" lon="3.82786">
        <ele>84.30599936</ele>
        <time>2020-09-26T08:50:52.000Z</time>
      </trkpt>
      <trkpt lat="43.63602" lon="3.82784">
        <ele>84.20599936</ele>
        <time>2020-09-26T08:50:53.000Z</time>
      </trkpt>
      <trkpt lat="43.63607" lon="3.82783">
        <ele>84.10599936</ele>
        <time>2020-09-26T08:50:54.000Z</time>
      </trkpt>
      <trkpt lat="43.63613" lon="3.82782">
        <ele>84.00599936</ele>
        <time>2020-09-26T08:50:55.000Z</time>
      </trkpt>
      <trkpt lat="43.63618" lon="3.82781">
        <ele>83.811810590811</ele>
        <time>2020-09-26T08:50:56.000Z</time>
      </trkpt>
      <trkpt lat="43.63624" lon="3.8278">
        <ele>83.611610454739</ele>
        <time>2020-09-26T08:50:57.000Z</time>
      </trkpt>
      <trkpt lat="43.63629" lon="3.82779">
        <ele>83.411410318667</ele>
        <time>2020-09-26T08:50:58.000Z</time>
      </trkpt>
      <trkpt lat="43.63633" lon="3.82778">
        <ele>83.211210182595</ele>
        <time>2020-09-26T08:50:59.000Z</time>
      </trkpt>
      <trkpt lat="43.63637" lon="3.82777">
        <ele>83.011010046523</ele>
        <time>2020-09-26T08:51:00.000Z</time>
      </trkpt>
      <trkpt lat="43.63641" lon="3.82777">
        <ele>82.810809910451</ele>
        <time>2020-09-26T08:51:01.000Z</time>
      </trkpt>
      <trkpt lat="43.63646" lon="3.82776">
        <ele>82.610609774379</ele>
        <time>2020-09-26T08:51:02.000Z</time>
      </trkpt>
      <trkpt lat="43.63651" lon="3.82775">
        <ele>82.410409638307</ele>
        <time>2020-09-26T08:51:03.000Z</time>
      </trkpt>
      <trkpt lat="43.63656" lon="3.82774">
        <ele>82.210209502235</ele>
        <time>2020-09-26T08:51:04.000Z</time>
      </trkpt>
      <trkpt lat="43.63661" lon="3.82773">
        <ele>82.010009366163</ele>
        <time>2020-09-26T08:51:05.000Z</time>
      </trkpt>
      <trkpt lat="43.63666" lon="3.82772">
        <ele>81.90499968</ele>
        <time>2020-09-26T08:51:06.000Z</time>
      </trkpt>
      <trkpt lat="43.63671" lon="3.8277">
        <ele>81.80499968</ele>
        <time>2020-09-26T08:51:07.000Z</time>
      </trkpt>
      <trkpt lat="43.63676" lon="3.82769">
        <ele>81.70499968</ele>
        <time>2020-09-26T08:51:08.000Z</time>
      </trkpt>
      <trkpt lat="43.63681" lon="3.82768">
        <ele>81.60499968</ele>
        <time>2020-09-26T08:51:09.000Z</time>
      </trkpt>
      <trkpt lat="43.63686" lon="3.82767">
        <ele>81.50499968</ele>
        <time>2020-09-26T08:51:10.000Z</time>
      </trkpt>
      <trkpt lat="43.63691" lon="3.82766">
        <ele>81.40499968</ele>
        <time>2020-09-26T08:51:11.000Z</time>
      </trkpt>
      <trkpt lat="43.63696" lon="3.82765">
        <ele>81.30499968</ele>
        <time>2020-09-26T08:51:12.000Z</time>
      </trkpt>
      <trkpt lat="43.63701" lon="3.82764">
        <ele>81.20499968</ele>
        <time>2020-09-26T08:51:13.000Z</time>
      </trkpt>
      <trkpt lat="43.63706" lon="3.82763">
        <ele>81.10499968</ele>
        <time>2020-09-26T08:51:14.000Z</time>
      </trkpt>
      <trkpt lat="43.63711" lon="3.82762">
        <ele>81.00499968</ele>
        <time>2020-09-26T08:51:15.000Z</time>
      </trkpt>
      <trkpt lat="43.63715" lon="3.82761">
        <ele>81</ele>
        <time>2020-09-26T08:51:16.000Z</time>
      </trkpt>
      <trkpt lat="43.6372" lon="3.8276">
        <ele>81</ele>
        <time>2020-09-26T08:51:17.000Z</time>
      </trkpt>
      <trkpt lat="43.63725" lon="3.82759">
        <ele>81</ele>
        <time>2020-09-26T08:51:18.000Z</time>
      </trkpt>
      <trkpt lat="43.63729" lon="3.82758">
        <ele>81</ele>
        <time>2020-09-26T08:51:19.000Z</time>
      </trkpt>
      <trkpt lat="43.63734" lon="3.82757">
        <ele>81</ele>
        <time>2020-09-26T08:51:20.000Z</time>
      </trkpt>
      <trkpt lat="43.63739" lon="3.82756">
        <ele>81</ele>
        <time>2020-09-26T08:51:21.000Z</time>
      </trkpt>
      <trkpt lat="43.63743" lon="3.82755">
        <ele>81</ele>
        <time>2020-09-26T08:51:22.000Z</time>
      </trkpt>
      <trkpt lat="43.63748" lon="3.82754">
        <ele>81</ele>
        <time>2020-09-26T08:51:23.000Z</time>
      </trkpt>
      <trkpt lat="43.63752" lon="3.82753">
        <ele>81</ele>
        <time>2020-09-26T08:51:24.000Z</time>
      </trkpt>
      <trkpt lat="43.63756" lon="3.82752">
        <ele>81</ele>
        <time>2020-09-26T08:51:25.000Z</time>
      </trkpt>
      <trkpt lat="43.63761" lon="3.82751">
        <ele>81</ele>
        <time>2020-09-26T08:51:26.000Z</time>
      </trkpt>
      <trkpt lat="43.63765" lon="3.8275">
        <ele>81</ele>
        <time>2020-09-26T08:51:27.000Z</time>
      </trkpt>
      <trkpt lat="43.63769" lon="3.82749">
        <ele>81</ele>
        <time>2020-09-26T08:51:28.000Z</time>
      </trkpt>
      <trkpt lat="43.63773" lon="3.82748">
        <ele>81</ele>
        <time>2020-09-26T08:51:29.000Z</time>
      </trkpt>
      <trkpt lat="43.63777" lon="3.82746">
        <ele>81</ele>
        <time>2020-09-26T08:51:30.000Z</time>
      </trkpt>
      <trkpt lat="43.63781" lon="3.82745">
        <ele>81</ele>
        <time>2020-09-26T08:51:31.000Z</time>
      </trkpt>
      <trkpt lat="43.63785" lon="3.82744">
        <ele>81</ele>
        <time>2020-09-26T08:51:32.000Z</time>
      </trkpt>
      <trkpt lat="43.63788" lon="3.82743">
        <ele>81</ele>
        <time>2020-09-26T08:51:33.000Z</time>
      </trkpt>
      <trkpt lat="43.63792" lon="3.82742">
        <ele>81</ele>
        <time>2020-09-26T08:51:34.000Z</time>
      </trkpt>
      <trkpt lat="43.63796" lon="3.82742">
        <ele>81</ele>
        <time>2020-09-26T08:51:35.000Z</time>
      </trkpt>
      <trkpt lat="43.638" lon="3.8274">
        <ele>81.082595896195</ele>
        <time>2020-09-26T08:51:36.000Z</time>
      </trkpt>
      <trkpt lat="43.63804" lon="3.82738">
        <ele>81.180924344047</ele>
        <time>2020-09-26T08:51:37.000Z</time>
      </trkpt>
      <trkpt lat="43.63808" lon="3.82735">
        <ele>81.279252791899</ele>
        <time>2020-09-26T08:51:38.000Z</time>
      </trkpt>
      <trkpt lat="43.63813" lon="3.82731">
        <ele>81.37758123975</ele>
        <time>2020-09-26T08:51:39.000Z</time>
      </trkpt>
      <trkpt lat="43.63817" lon="3.82728">
        <ele>81.475909687602</ele>
        <time>2020-09-26T08:51:40.000Z</time>
      </trkpt>
      <trkpt lat="43.63822" lon="3.82726">
        <ele>81.574238135453</ele>
        <time>2020-09-26T08:51:41.000Z</time>
      </trkpt>
      <trkpt lat="43.63827" lon="3.82725">
        <ele>81.672566583305</ele>
        <time>2020-09-26T08:51:42.000Z</time>
      </trkpt>
      <trkpt lat="43.63831" lon="3.82724">
        <ele>81.770895031157</ele>
        <time>2020-09-26T08:51:43.000Z</time>
      </trkpt>
      <trkpt lat="43.63836" lon="3.82723">
        <ele>81.869223479008</ele>
        <time>2020-09-26T08:51:44.000Z</time>
      </trkpt>
      <trkpt lat="43.6384" lon="3.82721">
        <ele>81.96755192686</ele>
        <time>2020-09-26T08:51:45.000Z</time>
      </trkpt>
      <trkpt lat="43.63844" lon="3.8272">
        <ele>82.06893037037</ele>
        <time>2020-09-26T08:51:46.000Z</time>
      </trkpt>
      <trkpt lat="43.63848" lon="3.82719">
        <ele>82.171811028807</ele>
        <time>2020-09-26T08:51:47.000Z</time>
      </trkpt>
      <trkpt lat="43.63851" lon="3.82718">
        <ele>82.274691687243</ele>
        <time>2020-09-26T08:51:48.000Z</time>
      </trkpt>
      <trkpt lat="43.63855" lon="3.82717">
        <ele>82.377572345679</ele>
        <time>2020-09-26T08:51:49.000Z</time>
      </trkpt>
      <trkpt lat="43.63858" lon="3.82716">
        <ele>82.480453004115</ele>
        <time>2020-09-26T08:51:50.000Z</time>
      </trkpt>
      <trkpt lat="43.63861" lon="3.82715">
        <ele>82.583333662551</ele>
        <time>2020-09-26T08:51:51.000Z</time>
      </trkpt>
      <trkpt lat="43.63863" lon="3.82715">
        <ele>82.686214320988</ele>
        <time>2020-09-26T08:51:52.000Z</time>
      </trkpt>
      <trkpt lat="43.63865" lon="3.82714">
        <ele>82.789094979424</ele>
        <time>2020-09-26T08:51:53.000Z</time>
      </trkpt>
      <trkpt lat="43.63868" lon="3.82714">
        <ele>82.89197563786</ele>
        <time>2020-09-26T08:51:54.000Z</time>
      </trkpt>
      <trkpt lat="43.6387" lon="3.82714">
        <ele>82.994856296296</ele>
        <time>2020-09-26T08:51:55.000Z</time>
      </trkpt>
      <trkpt lat="43.63873" lon="3.82716">
        <ele>83</ele>
        <time>2020-09-26T08:51:56.000Z</time>
      </trkpt>
      <trkpt lat="43.63874" lon="3.8272">
        <ele>83</ele>
        <time>2020-09-26T08:51:57.000Z</time>
      </trkpt>
      <trkpt lat="43.63876" lon="3.82724">
        <ele>83</ele>
        <time>2020-09-26T08:51:58.000Z</time>
      </trkpt>
      <trkpt lat="43.63877" lon="3.82728">
        <ele>83</ele>
        <time>2020-09-26T08:51:59.000Z</time>
      </trkpt>
      <trkpt lat="43.63878" lon="3.82733">
        <ele>83</ele>
        <time>2020-09-26T08:52:00.000Z</time>
      </trkpt>
      <trkpt lat="43.6388" lon="3.82737">
        <ele>83</ele>
        <time>2020-09-26T08:52:01.000Z</time>
      </trkpt>
      <trkpt lat="43.63882" lon="3.82741">
        <ele>83</ele>
        <time>2020-09-26T08:52:02.000Z</time>
      </trkpt>
      <trkpt lat="43.63885" lon="3.82744">
        <ele>83</ele>
        <time>2020-09-26T08:52:03.000Z</time>
      </trkpt>
      <trkpt lat="43.63888" lon="3.82746">
        <ele>83</ele>
        <time>2020-09-26T08:52:04.000Z</time>
      </trkpt>
      <trkpt lat="43.63891" lon="3.82748">
        <ele>83</ele>
        <time>2020-09-26T08:52:05.000Z</time>
      </trkpt>
      <trkpt lat="43.63894" lon="3.82752">
        <ele>82.80999936</ele>
        <time>2020-09-26T08:52:06.000Z</time>
      </trkpt>
      <trkpt lat="43.63897" lon="3.82757">
        <ele>82.60999936</ele>
        <time>2020-09-26T08:52:07.000Z</time>
      </trkpt>
      <trkpt lat="43.63899" lon="3.82762">
        <ele>82.40999936</ele>
        <time>2020-09-26T08:52:08.000Z</time>
      </trkpt>
      <trkpt lat="43.63902" lon="3.82767">
        <ele>82.20999936</ele>
        <time>2020-09-26T08:52:09.000Z</time>
      </trkpt>
      <trkpt lat="43.63905" lon="3.82773">
        <ele>82.00999936</ele>
        <time>2020-09-26T08:52:10.000Z</time>
      </trkpt>
      <trkpt lat="43.63907" lon="3.82778">
        <ele>81.80999936</ele>
        <time>2020-09-26T08:52:11.000Z</time>
      </trkpt>
      <trkpt lat="43.63909" lon="3.82785">
        <ele>81.60999936</ele>
        <time>2020-09-26T08:52:12.000Z</time>
      </trkpt>
      <trkpt lat="43.63912" lon="3.82791">
        <ele>81.40999936</ele>
        <time>2020-09-26T08:52:13.000Z</time>
      </trkpt>
      <trkpt lat="43.63914" lon="3.82797">
        <ele>81.20999936</ele>
        <time>2020-09-26T08:52:14.000Z</time>
      </trkpt>
      <trkpt lat="43.63918" lon="3.82802">
        <ele>81.00999936</ele>
        <time>2020-09-26T08:52:15.000Z</time>
      </trkpt>
      <trkpt lat="43.63921" lon="3.82807">
        <ele>80.90499968</ele>
        <time>2020-09-26T08:52:16.000Z</time>
      </trkpt>
      <trkpt lat="43.63923" lon="3.82813">
        <ele>80.80499968</ele>
        <time>2020-09-26T08:52:17.000Z</time>
      </trkpt>
      <trkpt lat="43.63924" lon="3.82819">
        <ele>80.70499968</ele>
        <time>2020-09-26T08:52:18.000Z</time>
      </trkpt>
      <trkpt lat="43.63926" lon="3.82824">
        <ele>80.60499968</ele>
        <time>2020-09-26T08:52:19.000Z</time>
      </trkpt>
      <trkpt lat="43.63928" lon="3.82826">
        <ele>80.50499968</ele>
        <time>2020-09-26T08:52:20.000Z</time>
      </trkpt>
      <trkpt lat="43.63931" lon="3.82826">
        <ele>80.40499968</ele>
        <time>2020-09-26T08:52:21.000Z</time>
      </trkpt>
      <trkpt lat="43.63933" lon="3.82825">
        <ele>80.20499968</ele>
        <time>2020-09-26T08:52:23.000Z</time>
      </trkpt>
      <trkpt lat="43.63934" lon="3.82823">
        <ele>80</ele>
        <time>2020-09-26T08:52:29.000Z</time>
      </trkpt>
      <trkpt lat="43.63944" lon="3.82819">
        <ele>80</ele>
        <time>2020-09-26T08:52:35.000Z</time>
      </trkpt>
      <trkpt lat="43.63947" lon="3.82819">
        <ele>80</ele>
        <time>2020-09-26T08:52:36.000Z</time>
      </trkpt>
      <trkpt lat="43.6395" lon="3.82818">
        <ele>80</ele>
        <time>2020-09-26T08:52:37.000Z</time>
      </trkpt>
      <trkpt lat="43.63953" lon="3.82816">
        <ele>80</ele>
        <time>2020-09-26T08:52:38.000Z</time>
      </trkpt>
      <trkpt lat="43.63956" lon="3.82814">
        <ele>80</ele>
        <time>2020-09-26T08:52:39.000Z</time>
      </trkpt>
      <trkpt lat="43.63959" lon="3.82812">
        <ele>80</ele>
        <time>2020-09-26T08:52:40.000Z</time>
      </trkpt>
      <trkpt lat="43.63962" lon="3.82809">
        <ele>80</ele>
        <time>2020-09-26T08:52:41.000Z</time>
      </trkpt>
      <trkpt lat="43.63965" lon="3.82807">
        <ele>80</ele>
        <time>2020-09-26T08:52:42.000Z</time>
      </trkpt>
      <trkpt lat="43.63967" lon="3.82805">
        <ele>80</ele>
        <time>2020-09-26T08:52:43.000Z</time>
      </trkpt>
      <trkpt lat="43.63971" lon="3.82803">
        <ele>80</ele>
        <time>2020-09-26T08:52:44.000Z</time>
      </trkpt>
      <trkpt lat="43.63974" lon="3.82801">
        <ele>80.092322983035</ele>
        <time>2020-09-26T08:52:45.000Z</time>
      </trkpt>
      <trkpt lat="43.63977" lon="3.82799">
        <ele>80.189504743092</ele>
        <time>2020-09-26T08:52:46.000Z</time>
      </trkpt>
      <trkpt lat="43.6398" lon="3.82798">
        <ele>80.286686503148</ele>
        <time>2020-09-26T08:52:47.000Z</time>
      </trkpt>
      <trkpt lat="43.63984" lon="3.82797">
        <ele>80.383868263205</ele>
        <time>2020-09-26T08:52:48.000Z</time>
      </trkpt>
      <trkpt lat="43.63987" lon="3.82797">
        <ele>80.481050023261</ele>
        <time>2020-09-26T08:52:49.000Z</time>
      </trkpt>
      <trkpt lat="43.6399" lon="3.82796">
        <ele>80.578231783318</ele>
        <time>2020-09-26T08:52:50.000Z</time>
      </trkpt>
      <trkpt lat="43.63994" lon="3.82795">
        <ele>80.675413543375</ele>
        <time>2020-09-26T08:52:51.000Z</time>
      </trkpt>
      <trkpt lat="43.63997" lon="3.82795">
        <ele>80.772595303431</ele>
        <time>2020-09-26T08:52:52.000Z</time>
      </trkpt>
      <trkpt lat="43.64001" lon="3.82794">
        <ele>80.869777063488</ele>
        <time>2020-09-26T08:52:53.000Z</time>
      </trkpt>
      <trkpt lat="43.64004" lon="3.82794">
        <ele>80.966958823544</ele>
        <time>2020-09-26T08:52:54.000Z</time>
      </trkpt>
      <trkpt lat="43.64007" lon="3.82794">
        <ele>81</ele>
        <time>2020-09-26T08:52:55.000Z</time>
      </trkpt>
      <trkpt lat="43.6401" lon="3.82793">
        <ele>81</ele>
        <time>2020-09-26T08:52:56.000Z</time>
      </trkpt>
      <trkpt lat="43.64013" lon="3.82792">
        <ele>81</ele>
        <time>2020-09-26T08:52:57.000Z</time>
      </trkpt>
      <trkpt lat="43.64016" lon="3.82791">
        <ele>81</ele>
        <time>2020-09-26T08:52:58.000Z</time>
      </trkpt>
      <trkpt lat="43.64018" lon="3.8279">
        <ele>81</ele>
        <time>2020-09-26T08:52:59.000Z</time>
      </trkpt>
      <trkpt lat="43.64019" lon="3.82789">
        <ele>81</ele>
        <time>2020-09-26T08:53:00.000Z</time>
      </trkpt>
      <trkpt lat="43.6402" lon="3.82788">
        <ele>81</ele>
        <time>2020-09-26T08:53:06.000Z</time>
      </trkpt>
      <trkpt lat="43.64027" lon="3.82799">
        <ele>81.980761858226</ele>
        <time>2020-09-26T08:53:32.000Z</time>
      </trkpt>
      <trkpt lat="43.6403" lon="3.828">
        <ele>82.048830096006</ele>
        <time>2020-09-26T08:53:33.000Z</time>
      </trkpt>
      <trkpt lat="43.64034" lon="3.82799">
        <ele>82.150559462687</ele>
        <time>2020-09-26T08:53:34.000Z</time>
      </trkpt>
      <trkpt lat="43.64037" lon="3.82798">
        <ele>82.252288829367</ele>
        <time>2020-09-26T08:53:35.000Z</time>
      </trkpt>
      <trkpt lat="43.64041" lon="3.82795">
        <ele>82.354018196047</ele>
        <time>2020-09-26T08:53:36.000Z</time>
      </trkpt>
      <trkpt lat="43.64044" lon="3.82793">
        <ele>82.455747562727</ele>
        <time>2020-09-26T08:53:37.000Z</time>
      </trkpt>
      <trkpt lat="43.64047" lon="3.82792">
        <ele>82.557476929407</ele>
        <time>2020-09-26T08:53:38.000Z</time>
      </trkpt>
      <trkpt lat="43.64051" lon="3.82789">
        <ele>82.659206296088</ele>
        <time>2020-09-26T08:53:39.000Z</time>
      </trkpt>
      <trkpt lat="43.64054" lon="3.82787">
        <ele>82.760935662768</ele>
        <time>2020-09-26T08:53:40.000Z</time>
      </trkpt>
      <trkpt lat="43.64057" lon="3.82784">
        <ele>82.862665029448</ele>
        <time>2020-09-26T08:53:41.000Z</time>
      </trkpt>
      <trkpt lat="43.6406" lon="3.82782">
        <ele>82.964394396128</ele>
        <time>2020-09-26T08:53:42.000Z</time>
      </trkpt>
      <trkpt lat="43.64064" lon="3.82779">
        <ele>83.066940946013</ele>
        <time>2020-09-26T08:53:43.000Z</time>
      </trkpt>
      <trkpt lat="43.64067" lon="3.82777">
        <ele>83.169927523814</ele>
        <time>2020-09-26T08:53:44.000Z</time>
      </trkpt>
      <trkpt lat="43.6407" lon="3.82774">
        <ele>83.272914101614</ele>
        <time>2020-09-26T08:53:45.000Z</time>
      </trkpt>
      <trkpt lat="43.64073" lon="3.82771">
        <ele>83.375900679415</ele>
        <time>2020-09-26T08:53:46.000Z</time>
      </trkpt>
      <trkpt lat="43.64076" lon="3.82768">
        <ele>83.478887257215</ele>
        <time>2020-09-26T08:53:47.000Z</time>
      </trkpt>
      <trkpt lat="43.64079" lon="3.82766">
        <ele>83.581873835016</ele>
        <time>2020-09-26T08:53:48.000Z</time>
      </trkpt>
      <trkpt lat="43.64082" lon="3.82763">
        <ele>83.684860412816</ele>
        <time>2020-09-26T08:53:49.000Z</time>
      </trkpt>
      <trkpt lat="43.64085" lon="3.8276">
        <ele>83.787846990617</ele>
        <time>2020-09-26T08:53:50.000Z</time>
      </trkpt>
      <trkpt lat="43.64087" lon="3.82757">
        <ele>83.890833568417</ele>
        <time>2020-09-26T08:53:51.000Z</time>
      </trkpt>
      <trkpt lat="43.6409" lon="3.82754">
        <ele>83.993820146218</ele>
        <time>2020-09-26T08:53:52.000Z</time>
      </trkpt>
      <trkpt lat="43.64093" lon="3.82751">
        <ele>84.094093543874</ele>
        <time>2020-09-26T08:53:53.000Z</time>
      </trkpt>
      <trkpt lat="43.64095" lon="3.82748">
        <ele>84.194193740166</ele>
        <time>2020-09-26T08:53:54.000Z</time>
      </trkpt>
      <trkpt lat="43.64098" lon="3.82746">
        <ele>84.294293936459</ele>
        <time>2020-09-26T08:53:55.000Z</time>
      </trkpt>
      <trkpt lat="43.64101" lon="3.82743">
        <ele>84.394394132751</ele>
        <time>2020-09-26T08:53:56.000Z</time>
      </trkpt>
      <trkpt lat="43.64103" lon="3.82741">
        <ele>84.494494329044</ele>
        <time>2020-09-26T08:53:57.000Z</time>
      </trkpt>
      <trkpt lat="43.64106" lon="3.82738">
        <ele>84.594594525336</ele>
        <time>2020-09-26T08:53:58.000Z</time>
      </trkpt>
      <trkpt lat="43.64108" lon="3.82735">
        <ele>84.694694721629</ele>
        <time>2020-09-26T08:53:59.000Z</time>
      </trkpt>
      <trkpt lat="43.64111" lon="3.82733">
        <ele>84.794794917921</ele>
        <time>2020-09-26T08:54:00.000Z</time>
      </trkpt>
      <trkpt lat="43.64113" lon="3.8273">
        <ele>84.894895114213</ele>
        <time>2020-09-26T08:54:01.000Z</time>
      </trkpt>
      <trkpt lat="43.64116" lon="3.82728">
        <ele>84.994995310506</ele>
        <time>2020-09-26T08:54:02.000Z</time>
      </trkpt>
      <trkpt lat="43.64118" lon="3.82725">
        <ele>85.092412762646</ele>
        <time>2020-09-26T08:54:03.000Z</time>
      </trkpt>
      <trkpt lat="43.64121" lon="3.82722">
        <ele>85.189689027237</ele>
        <time>2020-09-26T08:54:04.000Z</time>
      </trkpt>
      <trkpt lat="43.64123" lon="3.8272">
        <ele>85.286965291829</ele>
        <time>2020-09-26T08:54:05.000Z</time>
      </trkpt>
      <trkpt lat="43.64126" lon="3.82717">
        <ele>85.38424155642</ele>
        <time>2020-09-26T08:54:06.000Z</time>
      </trkpt>
      <trkpt lat="43.64128" lon="3.82714">
        <ele>85.481517821012</ele>
        <time>2020-09-26T08:54:07.000Z</time>
      </trkpt>
      <trkpt lat="43.64131" lon="3.82712">
        <ele>85.578794085603</ele>
        <time>2020-09-26T08:54:08.000Z</time>
      </trkpt>
      <trkpt lat="43.64133" lon="3.82709">
        <ele>85.676070350194</ele>
        <time>2020-09-26T08:54:09.000Z</time>
      </trkpt>
      <trkpt lat="43.64135" lon="3.82707">
        <ele>85.773346614786</ele>
        <time>2020-09-26T08:54:10.000Z</time>
      </trkpt>
      <trkpt lat="43.64138" lon="3.82704">
        <ele>85.870622879377</ele>
        <time>2020-09-26T08:54:11.000Z</time>
      </trkpt>
      <trkpt lat="43.6414" lon="3.82701">
        <ele>85.967899143969</ele>
        <time>2020-09-26T08:54:12.000Z</time>
      </trkpt>
      <trkpt lat="43.64143" lon="3.82698">
        <ele>86.06893037037</ele>
        <time>2020-09-26T08:54:13.000Z</time>
      </trkpt>
      <trkpt lat="43.64146" lon="3.82695">
        <ele>86.171811028807</ele>
        <time>2020-09-26T08:54:14.000Z</time>
      </trkpt>
      <trkpt lat="43.64149" lon="3.82692">
        <ele>86.274691687243</ele>
        <time>2020-09-26T08:54:15.000Z</time>
      </trkpt>
      <trkpt lat="43.64151" lon="3.82689">
        <ele>86.377572345679</ele>
        <time>2020-09-26T08:54:16.000Z</time>
      </trkpt>
      <trkpt lat="43.64154" lon="3.82686">
        <ele>86.480453004115</ele>
        <time>2020-09-26T08:54:17.000Z</time>
      </trkpt>
      <trkpt lat="43.64157" lon="3.82683">
        <ele>86.583333662551</ele>
        <time>2020-09-26T08:54:18.000Z</time>
      </trkpt>
      <trkpt lat="43.6416" lon="3.8268">
        <ele>86.686214320988</ele>
        <time>2020-09-26T08:54:19.000Z</time>
      </trkpt>
      <trkpt lat="43.64162" lon="3.82677">
        <ele>86.789094979424</ele>
        <time>2020-09-26T08:54:20.000Z</time>
      </trkpt>
      <trkpt lat="43.64165" lon="3.82674">
        <ele>86.89197563786</ele>
        <time>2020-09-26T08:54:21.000Z</time>
      </trkpt>
      <trkpt lat="43.64167" lon="3.8267">
        <ele>86.994856296296</ele>
        <time>2020-09-26T08:54:22.000Z</time>
      </trkpt>
      <trkpt lat="43.6417" lon="3.82667">
        <ele>87.19000064</ele>
        <time>2020-09-26T08:54:23.000Z</time>
      </trkpt>
      <trkpt lat="43.64172" lon="3.82664">
        <ele>87.39000064</ele>
        <time>2020-09-26T08:54:24.000Z</time>
      </trkpt>
      <trkpt lat="43.64175" lon="3.82661">
        <ele>87.59000064</ele>
        <time>2020-09-26T08:54:25.000Z</time>
      </trkpt>
      <trkpt lat="43.64177" lon="3.82658">
        <ele>87.79000064</ele>
        <time>2020-09-26T08:54:26.000Z</time>
      </trkpt>
      <trkpt lat="43.64179" lon="3.82655">
        <ele>87.99000064</ele>
        <time>2020-09-26T08:54:27.000Z</time>
      </trkpt>
      <trkpt lat="43.64181" lon="3.82652">
        <ele>88.19000064</ele>
        <time>2020-09-26T08:54:28.000Z</time>
      </trkpt>
      <trkpt lat="43.64184" lon="3.82649">
        <ele>88.39000064</ele>
        <time>2020-09-26T08:54:29.000Z</time>
      </trkpt>
      <trkpt lat="43.64186" lon="3.82647">
        <ele>88.59000064</ele>
        <time>2020-09-26T08:54:30.000Z</time>
      </trkpt>
      <trkpt lat="43.64188" lon="3.82644">
        <ele>88.79000064</ele>
        <time>2020-09-26T08:54:31.000Z</time>
      </trkpt>
      <trkpt lat="43.6419" lon="3.82643">
        <ele>88.99000064</ele>
        <time>2020-09-26T08:54:32.000Z</time>
      </trkpt>
      <trkpt lat="43.64193" lon="3.82643">
        <ele>88.80499968</ele>
        <time>2020-09-26T08:54:34.000Z</time>
      </trkpt>
      <trkpt lat="43.64196" lon="3.82645">
        <ele>88.60499968</ele>
        <time>2020-09-26T08:54:36.000Z</time>
      </trkpt>
      <trkpt lat="43.64198" lon="3.82646">
        <ele>88.40499968</ele>
        <time>2020-09-26T08:54:38.000Z</time>
      </trkpt>
      <trkpt lat="43.64201" lon="3.82646">
        <ele>88.20499968</ele>
        <time>2020-09-26T08:54:40.000Z</time>
      </trkpt>
      <trkpt lat="43.64203" lon="3.82647">
        <ele>88.10499968</ele>
        <time>2020-09-26T08:54:41.000Z</time>
      </trkpt>
      <trkpt lat="43.64206" lon="3.82649">
        <ele>88.00499968</ele>
        <time>2020-09-26T08:54:42.000Z</time>
      </trkpt>
      <trkpt lat="43.64209" lon="3.82651">
        <ele>88</ele>
        <time>2020-09-26T08:54:43.000Z</time>
      </trkpt>
      <trkpt lat="43.64213" lon="3.82653">
        <ele>88</ele>
        <time>2020-09-26T08:54:44.000Z</time>
      </trkpt>
      <trkpt lat="43.64216" lon="3.82655">
        <ele>88</ele>
        <time>2020-09-26T08:54:45.000Z</time>
      </trkpt>
      <trkpt lat="43.64221" lon="3.82656">
        <ele>88</ele>
        <time>2020-09-26T08:54:46.000Z</time>
      </trkpt>
      <trkpt lat="43.64225" lon="3.82658">
        <ele>88</ele>
        <time>2020-09-26T08:54:47.000Z</time>
      </trkpt>
      <trkpt lat="43.6423" lon="3.82659">
        <ele>88</ele>
        <time>2020-09-26T08:54:48.000Z</time>
      </trkpt>
      <trkpt lat="43.64234" lon="3.82661">
        <ele>88</ele>
        <time>2020-09-26T08:54:49.000Z</time>
      </trkpt>
      <trkpt lat="43.64239" lon="3.82663">
        <ele>88</ele>
        <time>2020-09-26T08:54:50.000Z</time>
      </trkpt>
      <trkpt lat="43.64243" lon="3.82665">
        <ele>88</ele>
        <time>2020-09-26T08:54:51.000Z</time>
      </trkpt>
      <trkpt lat="43.64247" lon="3.82667">
        <ele>88</ele>
        <time>2020-09-26T08:54:52.000Z</time>
      </trkpt>
      <trkpt lat="43.64252" lon="3.8267">
        <ele>88.19000064</ele>
        <time>2020-09-26T08:54:53.000Z</time>
      </trkpt>
      <trkpt lat="43.64257" lon="3.82671">
        <ele>88.39000064</ele>
        <time>2020-09-26T08:54:54.000Z</time>
      </trkpt>
      <trkpt lat="43.64261" lon="3.82672">
        <ele>88.59000064</ele>
        <time>2020-09-26T08:54:55.000Z</time>
      </trkpt>
      <trkpt lat="43.64266" lon="3.82673">
        <ele>88.79000064</ele>
        <time>2020-09-26T08:54:56.000Z</time>
      </trkpt>
      <trkpt lat="43.6427" lon="3.82673">
        <ele>88.99000064</ele>
        <time>2020-09-26T08:54:57.000Z</time>
      </trkpt>
      <trkpt lat="43.64273" lon="3.82674">
        <ele>89.19000064</ele>
        <time>2020-09-26T08:54:58.000Z</time>
      </trkpt>
      <trkpt lat="43.64277" lon="3.82675">
        <ele>89.39000064</ele>
        <time>2020-09-26T08:54:59.000Z</time>
      </trkpt>
      <trkpt lat="43.6428" lon="3.82675">
        <ele>89.59000064</ele>
        <time>2020-09-26T08:55:00.000Z</time>
      </trkpt>
      <trkpt lat="43.64283" lon="3.82676">
        <ele>89.79000064</ele>
        <time>2020-09-26T08:55:01.000Z</time>
      </trkpt>
      <trkpt lat="43.64286" lon="3.82677">
        <ele>89.99000064</ele>
        <time>2020-09-26T08:55:02.000Z</time>
      </trkpt>
      <trkpt lat="43.64289" lon="3.82678">
        <ele>90.19000064</ele>
        <time>2020-09-26T08:55:03.000Z</time>
      </trkpt>
      <trkpt lat="43.64292" lon="3.82679">
        <ele>90.39000064</ele>
        <time>2020-09-26T08:55:04.000Z</time>
      </trkpt>
      <trkpt lat="43.64294" lon="3.8268">
        <ele>90.59000064</ele>
        <time>2020-09-26T08:55:05.000Z</time>
      </trkpt>
      <trkpt lat="43.64297" lon="3.82681">
        <ele>90.79000064</ele>
        <time>2020-09-26T08:55:06.000Z</time>
      </trkpt>
      <trkpt lat="43.64299" lon="3.82683">
        <ele>90.99000064</ele>
        <time>2020-09-26T08:55:07.000Z</time>
      </trkpt>
      <trkpt lat="43.64302" lon="3.82685">
        <ele>91.19000064</ele>
        <time>2020-09-26T08:55:08.000Z</time>
      </trkpt>
      <trkpt lat="43.64304" lon="3.82686">
        <ele>91.39000064</ele>
        <time>2020-09-26T08:55:09.000Z</time>
      </trkpt>
      <trkpt lat="43.64306" lon="3.82687">
        <ele>91.59000064</ele>
        <time>2020-09-26T08:55:10.000Z</time>
      </trkpt>
      <trkpt lat="43.64308" lon="3.82689">
        <ele>91.79000064</ele>
        <time>2020-09-26T08:55:11.000Z</time>
      </trkpt>
      <trkpt lat="43.6431" lon="3.82691">
        <ele>91.99000064</ele>
        <time>2020-09-26T08:55:12.000Z</time>
      </trkpt>
      <trkpt lat="43.64312" lon="3.82692">
        <ele>92.28500096</ele>
        <time>2020-09-26T08:55:13.000Z</time>
      </trkpt>
      <trkpt lat="43.64314" lon="3.82694">
        <ele>92.58500096</ele>
        <time>2020-09-26T08:55:14.000Z</time>
      </trkpt>
      <trkpt lat="43.64316" lon="3.82696">
        <ele>92.88500096</ele>
        <time>2020-09-26T08:55:15.000Z</time>
      </trkpt>
      <trkpt lat="43.64318" lon="3.82698">
        <ele>93.18500096</ele>
        <time>2020-09-26T08:55:16.000Z</time>
      </trkpt>
      <trkpt lat="43.6432" lon="3.82699">
        <ele>93.48500096</ele>
        <time>2020-09-26T08:55:17.000Z</time>
      </trkpt>
      <trkpt lat="43.64322" lon="3.827">
        <ele>93.78500096</ele>
        <time>2020-09-26T08:55:18.000Z</time>
      </trkpt>
      <trkpt lat="43.64324" lon="3.82701">
        <ele>94.08500096</ele>
        <time>2020-09-26T08:55:19.000Z</time>
      </trkpt>
      <trkpt lat="43.64325" lon="3.82703">
        <ele>94.38500096</ele>
        <time>2020-09-26T08:55:20.000Z</time>
      </trkpt>
      <trkpt lat="43.64327" lon="3.82704">
        <ele>94.68500096</ele>
        <time>2020-09-26T08:55:21.000Z</time>
      </trkpt>
      <trkpt lat="43.64329" lon="3.82705">
        <ele>94.98500096</ele>
        <time>2020-09-26T08:55:22.000Z</time>
      </trkpt>
      <trkpt lat="43.64331" lon="3.82706">
        <ele>95</ele>
        <time>2020-09-26T08:55:23.000Z</time>
      </trkpt>
      <trkpt lat="43.64334" lon="3.82706">
        <ele>95</ele>
        <time>2020-09-26T08:55:25.000Z</time>
      </trkpt>
      <trkpt lat="43.64337" lon="3.82708">
        <ele>95</ele>
        <time>2020-09-26T08:55:27.000Z</time>
      </trkpt>
      <trkpt lat="43.64338" lon="3.82712">
        <ele>95</ele>
        <time>2020-09-26T08:55:29.000Z</time>
      </trkpt>
      <trkpt lat="43.64337" lon="3.82716">
        <ele>95</ele>
        <time>2020-09-26T08:55:31.000Z</time>
      </trkpt>
      <trkpt lat="43.64336" lon="3.8272">
        <ele>94.90499968</ele>
        <time>2020-09-26T08:55:33.000Z</time>
      </trkpt>
      <trkpt lat="43.64334" lon="3.82723">
        <ele>94.80499968</ele>
        <time>2020-09-26T08:55:34.000Z</time>
      </trkpt>
      <trkpt lat="43.64333" lon="3.82726">
        <ele>94.70499968</ele>
        <time>2020-09-26T08:55:35.000Z</time>
      </trkpt>
      <trkpt lat="43.64332" lon="3.8273">
        <ele>94.60499968</ele>
        <time>2020-09-26T08:55:36.000Z</time>
      </trkpt>
      <trkpt lat="43.64331" lon="3.82735">
        <ele>94.50499968</ele>
        <time>2020-09-26T08:55:37.000Z</time>
      </trkpt>
      <trkpt lat="43.64329" lon="3.8274">
        <ele>94.40499968</ele>
        <time>2020-09-26T08:55:38.000Z</time>
      </trkpt>
      <trkpt lat="43.64327" lon="3.82745">
        <ele>94.30499968</ele>
        <time>2020-09-26T08:55:39.000Z</time>
      </trkpt>
      <trkpt lat="43.64325" lon="3.82748">
        <ele>94.20499968</ele>
        <time>2020-09-26T08:55:40.000Z</time>
      </trkpt>
      <trkpt lat="43.64323" lon="3.8275">
        <ele>94.10499968</ele>
        <time>2020-09-26T08:55:41.000Z</time>
      </trkpt>
      <trkpt lat="43.64321" lon="3.82752">
        <ele>94.00499968</ele>
        <time>2020-09-26T08:55:42.000Z</time>
      </trkpt>
      <trkpt lat="43.64319" lon="3.82755">
        <ele>93.80999936</ele>
        <time>2020-09-26T08:55:43.000Z</time>
      </trkpt>
      <trkpt lat="43.64318" lon="3.8276">
        <ele>93.60999936</ele>
        <time>2020-09-26T08:55:44.000Z</time>
      </trkpt>
      <trkpt lat="43.64316" lon="3.82765">
        <ele>93.40999936</ele>
        <time>2020-09-26T08:55:45.000Z</time>
      </trkpt>
      <trkpt lat="43.64315" lon="3.82772">
        <ele>93.20999936</ele>
        <time>2020-09-26T08:55:46.000Z</time>
      </trkpt>
      <trkpt lat="43.64313" lon="3.82778">
        <ele>93.00999936</ele>
        <time>2020-09-26T08:55:47.000Z</time>
      </trkpt>
      <trkpt lat="43.64312" lon="3.82786">
        <ele>92.80999936</ele>
        <time>2020-09-26T08:55:48.000Z</time>
      </trkpt>
      <trkpt lat="43.64311" lon="3.82793">
        <ele>92.60999936</ele>
        <time>2020-09-26T08:55:49.000Z</time>
      </trkpt>
      <trkpt lat="43.6431" lon="3.82802">
        <ele>92.40999936</ele>
        <time>2020-09-26T08:55:50.000Z</time>
      </trkpt>
      <trkpt lat="43.64309" lon="3.82811">
        <ele>92.20999936</ele>
        <time>2020-09-26T08:55:51.000Z</time>
      </trkpt>
      <trkpt lat="43.64308" lon="3.8282">
        <ele>92.00999936</ele>
        <time>2020-09-26T08:55:52.000Z</time>
      </trkpt>
      <trkpt lat="43.64308" lon="3.8283">
        <ele>91.71499904</ele>
        <time>2020-09-26T08:55:53.000Z</time>
      </trkpt>
      <trkpt lat="43.64309" lon="3.8284">
        <ele>91.41499904</ele>
        <time>2020-09-26T08:55:54.000Z</time>
      </trkpt>
      <trkpt lat="43.6431" lon="3.8285">
        <ele>91.11499904</ele>
        <time>2020-09-26T08:55:55.000Z</time>
      </trkpt>
      <trkpt lat="43.64311" lon="3.82859">
        <ele>90.81499904</ele>
        <time>2020-09-26T08:55:56.000Z</time>
      </trkpt>
      <trkpt lat="43.64312" lon="3.82867">
        <ele>90.51499904</ele>
        <time>2020-09-26T08:55:57.000Z</time>
      </trkpt>
      <trkpt lat="43.64314" lon="3.82874">
        <ele>90.21499904</ele>
        <time>2020-09-26T08:55:58.000Z</time>
      </trkpt>
      <trkpt lat="43.64315" lon="3.82882">
        <ele>89.91499904</ele>
        <time>2020-09-26T08:55:59.000Z</time>
      </trkpt>
      <trkpt lat="43.64317" lon="3.82888">
        <ele>89.61499904</ele>
        <time>2020-09-26T08:56:00.000Z</time>
      </trkpt>
      <trkpt lat="43.64319" lon="3.82894">
        <ele>89.31499904</ele>
        <time>2020-09-26T08:56:01.000Z</time>
      </trkpt>
      <trkpt lat="43.64321" lon="3.829">
        <ele>89.01499904</ele>
        <time>2020-09-26T08:56:02.000Z</time>
      </trkpt>
      <trkpt lat="43.64323" lon="3.82905">
        <ele>88.71499904</ele>
        <time>2020-09-26T08:56:03.000Z</time>
      </trkpt>
      <trkpt lat="43.64324" lon="3.82909">
        <ele>88.41499904</ele>
        <time>2020-09-26T08:56:04.000Z</time>
      </trkpt>
      <trkpt lat="43.64325" lon="3.82912">
        <ele>88.11499904</ele>
        <time>2020-09-26T08:56:05.000Z</time>
      </trkpt>
      <trkpt lat="43.64326" lon="3.82915">
        <ele>87.81499904</ele>
        <time>2020-09-26T08:56:06.000Z</time>
      </trkpt>
      <trkpt lat="43.64329" lon="3.82918">
        <ele>87.51499904</ele>
        <time>2020-09-26T08:56:07.000Z</time>
      </trkpt>
      <trkpt lat="43.64332" lon="3.82921">
        <ele>87.21499904</ele>
        <time>2020-09-26T08:56:08.000Z</time>
      </trkpt>
      <trkpt lat="43.64335" lon="3.82924">
        <ele>86.91499904</ele>
        <time>2020-09-26T08:56:09.000Z</time>
      </trkpt>
      <trkpt lat="43.64339" lon="3.82928">
        <ele>86.61499904</ele>
        <time>2020-09-26T08:56:10.000Z</time>
      </trkpt>
      <trkpt lat="43.64343" lon="3.82934">
        <ele>86.31499904</ele>
        <time>2020-09-26T08:56:11.000Z</time>
      </trkpt>
      <trkpt lat="43.64346" lon="3.82941">
        <ele>86.01499904</ele>
        <time>2020-09-26T08:56:12.000Z</time>
      </trkpt>
      <trkpt lat="43.64349" lon="3.82948">
        <ele>85.61999872</ele>
        <time>2020-09-26T08:56:13.000Z</time>
      </trkpt>
      <trkpt lat="43.64353" lon="3.82955">
        <ele>85.21999872</ele>
        <time>2020-09-26T08:56:14.000Z</time>
      </trkpt>
      <trkpt lat="43.64357" lon="3.82963">
        <ele>84.81999872</ele>
        <time>2020-09-26T08:56:15.000Z</time>
      </trkpt>
      <trkpt lat="43.64361" lon="3.82972">
        <ele>84.41999872</ele>
        <time>2020-09-26T08:56:16.000Z</time>
      </trkpt>
      <trkpt lat="43.64365" lon="3.82981">
        <ele>84.01999872</ele>
        <time>2020-09-26T08:56:17.000Z</time>
      </trkpt>
      <trkpt lat="43.64369" lon="3.8299">
        <ele>83.61999872</ele>
        <time>2020-09-26T08:56:18.000Z</time>
      </trkpt>
      <trkpt lat="43.64373" lon="3.83">
        <ele>83.21999872</ele>
        <time>2020-09-26T08:56:19.000Z</time>
      </trkpt>
      <trkpt lat="43.64376" lon="3.83009">
        <ele>82.81999872</ele>
        <time>2020-09-26T08:56:20.000Z</time>
      </trkpt>
      <trkpt lat="43.64379" lon="3.83018">
        <ele>82.41999872</ele>
        <time>2020-09-26T08:56:21.000Z</time>
      </trkpt>
      <trkpt lat="43.64383" lon="3.83027">
        <ele>82.01999872</ele>
        <time>2020-09-26T08:56:22.000Z</time>
      </trkpt>
      <trkpt lat="43.64387" lon="3.83035">
        <ele>81.71499904</ele>
        <time>2020-09-26T08:56:23.000Z</time>
      </trkpt>
      <trkpt lat="43.6439" lon="3.83043">
        <ele>81.41499904</ele>
        <time>2020-09-26T08:56:24.000Z</time>
      </trkpt>
      <trkpt lat="43.64393" lon="3.8305">
        <ele>81.11499904</ele>
        <time>2020-09-26T08:56:25.000Z</time>
      </trkpt>
      <trkpt lat="43.64396" lon="3.83058">
        <ele>80.81499904</ele>
        <time>2020-09-26T08:56:26.000Z</time>
      </trkpt>
      <trkpt lat="43.64397" lon="3.83065">
        <ele>80.51499904</ele>
        <time>2020-09-26T08:56:27.000Z</time>
      </trkpt>
      <trkpt lat="43.64398" lon="3.83072">
        <ele>80.21499904</ele>
        <time>2020-09-26T08:56:28.000Z</time>
      </trkpt>
      <trkpt lat="43.64399" lon="3.83077">
        <ele>79.91499904</ele>
        <time>2020-09-26T08:56:29.000Z</time>
      </trkpt>
      <trkpt lat="43.644" lon="3.8308">
        <ele>79.61499904</ele>
        <time>2020-09-26T08:56:30.000Z</time>
      </trkpt>
      <trkpt lat="43.64401" lon="3.83083">
        <ele>79.31499904</ele>
        <time>2020-09-26T08:56:31.000Z</time>
      </trkpt>
      <trkpt lat="43.64403" lon="3.83086">
        <ele>79.01499904</ele>
        <time>2020-09-26T08:56:32.000Z</time>
      </trkpt>
      <trkpt lat="43.64405" lon="3.83088">
        <ele>79</ele>
        <time>2020-09-26T08:56:33.000Z</time>
      </trkpt>
      <trkpt lat="43.64407" lon="3.8309">
        <ele>79</ele>
        <time>2020-09-26T08:56:34.000Z</time>
      </trkpt>
      <trkpt lat="43.64409" lon="3.83092">
        <ele>79</ele>
        <time>2020-09-26T08:56:35.000Z</time>
      </trkpt>
      <trkpt lat="43.64412" lon="3.83094">
        <ele>79</ele>
        <time>2020-09-26T08:56:36.000Z</time>
      </trkpt>
      <trkpt lat="43.64415" lon="3.83097">
        <ele>79</ele>
        <time>2020-09-26T08:56:37.000Z</time>
      </trkpt>
      <trkpt lat="43.64419" lon="3.83099">
        <ele>79</ele>
        <time>2020-09-26T08:56:38.000Z</time>
      </trkpt>
      <trkpt lat="43.64424" lon="3.83098">
        <ele>79</ele>
        <time>2020-09-26T08:56:39.000Z</time>
      </trkpt>
      <trkpt lat="43.64427" lon="3.83097">
        <ele>79</ele>
        <time>2020-09-26T08:56:40.000Z</time>
      </trkpt>
      <trkpt lat="43.64431" lon="3.83095">
        <ele>79</ele>
        <time>2020-09-26T08:56:41.000Z</time>
      </trkpt>
      <trkpt lat="43.64434" lon="3.83093">
        <ele>79</ele>
        <time>2020-09-26T08:56:42.000Z</time>
      </trkpt>
      <trkpt lat="43.64438" lon="3.83091">
        <ele>79</ele>
        <time>2020-09-26T08:56:43.000Z</time>
      </trkpt>
      <trkpt lat="43.64441" lon="3.83089">
        <ele>79</ele>
        <time>2020-09-26T08:56:44.000Z</time>
      </trkpt>
      <trkpt lat="43.64444" lon="3.83087">
        <ele>79</ele>
        <time>2020-09-26T08:56:45.000Z</time>
      </trkpt>
      <trkpt lat="43.64446" lon="3.83086">
        <ele>79</ele>
        <time>2020-09-26T08:56:46.000Z</time>
      </trkpt>
      <trkpt lat="43.64448" lon="3.83084">
        <ele>79</ele>
        <time>2020-09-26T08:56:47.000Z</time>
      </trkpt>
      <trkpt lat="43.6445" lon="3.83082">
        <ele>79</ele>
        <time>2020-09-26T08:56:48.000Z</time>
      </trkpt>
      <trkpt lat="43.64453" lon="3.83079">
        <ele>79</ele>
        <time>2020-09-26T08:56:49.000Z</time>
      </trkpt>
      <trkpt lat="43.64456" lon="3.83077">
        <ele>79</ele>
        <time>2020-09-26T08:56:50.000Z</time>
      </trkpt>
      <trkpt lat="43.6446" lon="3.83076">
        <ele>79</ele>
        <time>2020-09-26T08:56:51.000Z</time>
      </trkpt>
      <trkpt lat="43.64463" lon="3.83075">
        <ele>79</ele>
        <time>2020-09-26T08:56:52.000Z</time>
      </trkpt>
      <trkpt lat="43.64467" lon="3.83073">
        <ele>79.090643019504</ele>
        <time>2020-09-26T08:56:53.000Z</time>
      </trkpt>
      <trkpt lat="43.64471" lon="3.83071">
        <ele>79.188108967242</ele>
        <time>2020-09-26T08:56:54.000Z</time>
      </trkpt>
      <trkpt lat="43.64475" lon="3.83069">
        <ele>79.285574914978</ele>
        <time>2020-09-26T08:56:55.000Z</time>
      </trkpt>
      <trkpt lat="43.64478" lon="3.83067">
        <ele>79.383040862716</ele>
        <time>2020-09-26T08:56:56.000Z</time>
      </trkpt>
      <trkpt lat="43.64482" lon="3.83065">
        <ele>79.480506810453</ele>
        <time>2020-09-26T08:56:57.000Z</time>
      </trkpt>
      <trkpt lat="43.64486" lon="3.83062">
        <ele>79.57797275819</ele>
        <time>2020-09-26T08:56:58.000Z</time>
      </trkpt>
      <trkpt lat="43.6449" lon="3.8306">
        <ele>79.675438705927</ele>
        <time>2020-09-26T08:56:59.000Z</time>
      </trkpt>
      <trkpt lat="43.64494" lon="3.83058">
        <ele>79.772904653664</ele>
        <time>2020-09-26T08:57:00.000Z</time>
      </trkpt>
      <trkpt lat="43.64498" lon="3.83055">
        <ele>79.870370601401</ele>
        <time>2020-09-26T08:57:01.000Z</time>
      </trkpt>
      <trkpt lat="43.64502" lon="3.83053">
        <ele>79.967836549138</ele>
        <time>2020-09-26T08:57:02.000Z</time>
      </trkpt>
      <trkpt lat="43.64506" lon="3.83051">
        <ele>80</ele>
        <time>2020-09-26T08:57:03.000Z</time>
      </trkpt>
      <trkpt lat="43.64509" lon="3.83048">
        <ele>80</ele>
        <time>2020-09-26T08:57:04.000Z</time>
      </trkpt>
      <trkpt lat="43.64513" lon="3.83047">
        <ele>80</ele>
        <time>2020-09-26T08:57:05.000Z</time>
      </trkpt>
      <trkpt lat="43.64517" lon="3.83045">
        <ele>80</ele>
        <time>2020-09-26T08:57:06.000Z</time>
      </trkpt>
      <trkpt lat="43.64521" lon="3.83044">
        <ele>80</ele>
        <time>2020-09-26T08:57:07.000Z</time>
      </trkpt>
      <trkpt lat="43.64525" lon="3.83043">
        <ele>80</ele>
        <time>2020-09-26T08:57:08.000Z</time>
      </trkpt>
      <trkpt lat="43.64529" lon="3.83042">
        <ele>80</ele>
        <time>2020-09-26T08:57:09.000Z</time>
      </trkpt>
      <trkpt lat="43.64533" lon="3.83042">
        <ele>80</ele>
        <time>2020-09-26T08:57:10.000Z</time>
      </trkpt>
      <trkpt lat="43.64537" lon="3.83041">
        <ele>80</ele>
        <time>2020-09-26T08:57:11.000Z</time>
      </trkpt>
      <trkpt lat="43.64541" lon="3.83042">
        <ele>80</ele>
        <time>2020-09-26T08:57:12.000Z</time>
      </trkpt>
      <trkpt lat="43.64545" lon="3.83042">
        <ele>80</ele>
        <time>2020-09-26T08:57:13.000Z</time>
      </trkpt>
      <trkpt lat="43.64549" lon="3.83043">
        <ele>80</ele>
        <time>2020-09-26T08:57:14.000Z</time>
      </trkpt>
      <trkpt lat="43.64553" lon="3.83044">
        <ele>80</ele>
        <time>2020-09-26T08:57:15.000Z</time>
      </trkpt>
      <trkpt lat="43.64557" lon="3.83046">
        <ele>80</ele>
        <time>2020-09-26T08:57:16.000Z</time>
      </trkpt>
      <trkpt lat="43.64561" lon="3.83047">
        <ele>80</ele>
        <time>2020-09-26T08:57:17.000Z</time>
      </trkpt>
      <trkpt lat="43.64565" lon="3.8305">
        <ele>80</ele>
        <time>2020-09-26T08:57:18.000Z</time>
      </trkpt>
      <trkpt lat="43.64569" lon="3.83052">
        <ele>80</ele>
        <time>2020-09-26T08:57:19.000Z</time>
      </trkpt>
      <trkpt lat="43.64573" lon="3.83055">
        <ele>80</ele>
        <time>2020-09-26T08:57:20.000Z</time>
      </trkpt>
      <trkpt lat="43.64577" lon="3.83057">
        <ele>80</ele>
        <time>2020-09-26T08:57:21.000Z</time>
      </trkpt>
      <trkpt lat="43.6458" lon="3.83061">
        <ele>80</ele>
        <time>2020-09-26T08:57:22.000Z</time>
      </trkpt>
      <trkpt lat="43.64584" lon="3.83064">
        <ele>80</ele>
        <time>2020-09-26T08:57:23.000Z</time>
      </trkpt>
      <trkpt lat="43.64587" lon="3.83067">
        <ele>80</ele>
        <time>2020-09-26T08:57:24.000Z</time>
      </trkpt>
      <trkpt lat="43.6459" lon="3.83071">
        <ele>80</ele>
        <time>2020-09-26T08:57:25.000Z</time>
      </trkpt>
      <trkpt lat="43.64593" lon="3.83076">
        <ele>80</ele>
        <time>2020-09-26T08:57:26.000Z</time>
      </trkpt>
      <trkpt lat="43.64597" lon="3.8308">
        <ele>80</ele>
        <time>2020-09-26T08:57:27.000Z</time>
      </trkpt>
      <trkpt lat="43.646" lon="3.83084">
        <ele>80</ele>
        <time>2020-09-26T08:57:28.000Z</time>
      </trkpt>
      <trkpt lat="43.64603" lon="3.83088">
        <ele>80</ele>
        <time>2020-09-26T08:57:29.000Z</time>
      </trkpt>
      <trkpt lat="43.64607" lon="3.83092">
        <ele>80</ele>
        <time>2020-09-26T08:57:30.000Z</time>
      </trkpt>
      <trkpt lat="43.6461" lon="3.83096">
        <ele>80</ele>
        <time>2020-09-26T08:57:31.000Z</time>
      </trkpt>
      <trkpt lat="43.64614" lon="3.831">
        <ele>80</ele>
        <time>2020-09-26T08:57:32.000Z</time>
      </trkpt>
      <trkpt lat="43.64617" lon="3.83104">
        <ele>80</ele>
        <time>2020-09-26T08:57:33.000Z</time>
      </trkpt>
      <trkpt lat="43.6462" lon="3.83108">
        <ele>80</ele>
        <time>2020-09-26T08:57:34.000Z</time>
      </trkpt>
      <trkpt lat="43.64624" lon="3.83112">
        <ele>80</ele>
        <time>2020-09-26T08:57:35.000Z</time>
      </trkpt>
      <trkpt lat="43.64627" lon="3.83115">
        <ele>80</ele>
        <time>2020-09-26T08:57:36.000Z</time>
      </trkpt>
      <trkpt lat="43.64631" lon="3.83118">
        <ele>80</ele>
        <time>2020-09-26T08:57:37.000Z</time>
      </trkpt>
      <trkpt lat="43.64634" lon="3.83121">
        <ele>80</ele>
        <time>2020-09-26T08:57:38.000Z</time>
      </trkpt>
      <trkpt lat="43.64637" lon="3.83124">
        <ele>80</ele>
        <time>2020-09-26T08:57:39.000Z</time>
      </trkpt>
      <trkpt lat="43.64641" lon="3.83127">
        <ele>80</ele>
        <time>2020-09-26T08:57:40.000Z</time>
      </trkpt>
      <trkpt lat="43.64644" lon="3.8313">
        <ele>80</ele>
        <time>2020-09-26T08:57:41.000Z</time>
      </trkpt>
      <trkpt lat="43.64648" lon="3.83133">
        <ele>80</ele>
        <time>2020-09-26T08:57:42.000Z</time>
      </trkpt>
      <trkpt lat="43.64651" lon="3.83136">
        <ele>80</ele>
        <time>2020-09-26T08:57:43.000Z</time>
      </trkpt>
      <trkpt lat="43.64655" lon="3.83138">
        <ele>80</ele>
        <time>2020-09-26T08:57:44.000Z</time>
      </trkpt>
      <trkpt lat="43.64659" lon="3.8314">
        <ele>80</ele>
        <time>2020-09-26T08:57:45.000Z</time>
      </trkpt>
      <trkpt lat="43.64663" lon="3.83143">
        <ele>80</ele>
        <time>2020-09-26T08:57:46.000Z</time>
      </trkpt>
      <trkpt lat="43.64666" lon="3.83145">
        <ele>80</ele>
        <time>2020-09-26T08:57:47.000Z</time>
      </trkpt>
      <trkpt lat="43.6467" lon="3.83147">
        <ele>80</ele>
        <time>2020-09-26T08:57:48.000Z</time>
      </trkpt>
      <trkpt lat="43.64674" lon="3.8315">
        <ele>80</ele>
        <time>2020-09-26T08:57:49.000Z</time>
      </trkpt>
      <trkpt lat="43.64678" lon="3.83152">
        <ele>80</ele>
        <time>2020-09-26T08:57:50.000Z</time>
      </trkpt>
      <trkpt lat="43.64682" lon="3.83154">
        <ele>80</ele>
        <time>2020-09-26T08:57:51.000Z</time>
      </trkpt>
      <trkpt lat="43.64686" lon="3.83156">
        <ele>80</ele>
        <time>2020-09-26T08:57:52.000Z</time>
      </trkpt>
      <trkpt lat="43.6469" lon="3.83159">
        <ele>80</ele>
        <time>2020-09-26T08:57:53.000Z</time>
      </trkpt>
      <trkpt lat="43.64694" lon="3.83161">
        <ele>80</ele>
        <time>2020-09-26T08:57:54.000Z</time>
      </trkpt>
      <trkpt lat="43.64699" lon="3.83163">
        <ele>80</ele>
        <time>2020-09-26T08:57:55.000Z</time>
      </trkpt>
      <trkpt lat="43.64703" lon="3.83165">
        <ele>80</ele>
        <time>2020-09-26T08:57:56.000Z</time>
      </trkpt>
      <trkpt lat="43.64707" lon="3.83167">
        <ele>80</ele>
        <time>2020-09-26T08:57:57.000Z</time>
      </trkpt>
      <trkpt lat="43.64711" lon="3.83169">
        <ele>80</ele>
        <time>2020-09-26T08:57:58.000Z</time>
      </trkpt>
      <trkpt lat="43.64715" lon="3.83171">
        <ele>80</ele>
        <time>2020-09-26T08:57:59.000Z</time>
      </trkpt>
      <trkpt lat="43.64719" lon="3.83173">
        <ele>80</ele>
        <time>2020-09-26T08:58:00.000Z</time>
      </trkpt>
      <trkpt lat="43.64723" lon="3.83176">
        <ele>80</ele>
        <time>2020-09-26T08:58:01.000Z</time>
      </trkpt>
      <trkpt lat="43.64727" lon="3.83178">
        <ele>80</ele>
        <time>2020-09-26T08:58:02.000Z</time>
      </trkpt>
      <trkpt lat="43.64731" lon="3.8318">
        <ele>80.09500032</ele>
        <time>2020-09-26T08:58:03.000Z</time>
      </trkpt>
      <trkpt lat="43.64735" lon="3.83182">
        <ele>80.19500032</ele>
        <time>2020-09-26T08:58:04.000Z</time>
      </trkpt>
      <trkpt lat="43.64739" lon="3.83184">
        <ele>80.29500032</ele>
        <time>2020-09-26T08:58:05.000Z</time>
      </trkpt>
      <trkpt lat="43.64743" lon="3.83187">
        <ele>80.39500032</ele>
        <time>2020-09-26T08:58:06.000Z</time>
      </trkpt>
      <trkpt lat="43.64747" lon="3.83189">
        <ele>80.49500032</ele>
        <time>2020-09-26T08:58:07.000Z</time>
      </trkpt>
      <trkpt lat="43.64751" lon="3.83191">
        <ele>80.59500032</ele>
        <time>2020-09-26T08:58:08.000Z</time>
      </trkpt>
      <trkpt lat="43.64755" lon="3.83193">
        <ele>80.69500032</ele>
        <time>2020-09-26T08:58:09.000Z</time>
      </trkpt>
      <trkpt lat="43.64759" lon="3.83195">
        <ele>80.79500032</ele>
        <time>2020-09-26T08:58:10.000Z</time>
      </trkpt>
      <trkpt lat="43.64763" lon="3.83197">
        <ele>80.89500032</ele>
        <time>2020-09-26T08:58:11.000Z</time>
      </trkpt>
      <trkpt lat="43.64767" lon="3.832">
        <ele>80.99500032</ele>
        <time>2020-09-26T08:58:12.000Z</time>
      </trkpt>
      <trkpt lat="43.64771" lon="3.83202">
        <ele>81</ele>
        <time>2020-09-26T08:58:13.000Z</time>
      </trkpt>
      <trkpt lat="43.64775" lon="3.83204">
        <ele>81</ele>
        <time>2020-09-26T08:58:14.000Z</time>
      </trkpt>
      <trkpt lat="43.64779" lon="3.83206">
        <ele>81</ele>
        <time>2020-09-26T08:58:15.000Z</time>
      </trkpt>
      <trkpt lat="43.64783" lon="3.83208">
        <ele>81</ele>
        <time>2020-09-26T08:58:16.000Z</time>
      </trkpt>
      <trkpt lat="43.64786" lon="3.8321">
        <ele>81</ele>
        <time>2020-09-26T08:58:17.000Z</time>
      </trkpt>
      <trkpt lat="43.6479" lon="3.83212">
        <ele>81</ele>
        <time>2020-09-26T08:58:18.000Z</time>
      </trkpt>
      <trkpt lat="43.64794" lon="3.83214">
        <ele>81</ele>
        <time>2020-09-26T08:58:19.000Z</time>
      </trkpt>
      <trkpt lat="43.64798" lon="3.83216">
        <ele>81</ele>
        <time>2020-09-26T08:58:20.000Z</time>
      </trkpt>
      <trkpt lat="43.64802" lon="3.83219">
        <ele>81</ele>
        <time>2020-09-26T08:58:21.000Z</time>
      </trkpt>
      <trkpt lat="43.64805" lon="3.83223">
        <ele>81</ele>
        <time>2020-09-26T08:58:22.000Z</time>
      </trkpt>
      <trkpt lat="43.64808" lon="3.83228">
        <ele>81.09214383173</ele>
        <time>2020-09-26T08:58:23.000Z</time>
      </trkpt>
      <trkpt lat="43.64811" lon="3.83232">
        <ele>81.189137012101</ele>
        <time>2020-09-26T08:58:24.000Z</time>
      </trkpt>
      <trkpt lat="43.64814" lon="3.83236">
        <ele>81.286130192472</ele>
        <time>2020-09-26T08:58:25.000Z</time>
      </trkpt>
      <trkpt lat="43.64818" lon="3.83239">
        <ele>81.383123372842</ele>
        <time>2020-09-26T08:58:26.000Z</time>
      </trkpt>
      <trkpt lat="43.64822" lon="3.83241">
        <ele>81.480116553213</ele>
        <time>2020-09-26T08:58:27.000Z</time>
      </trkpt>
      <trkpt lat="43.64826" lon="3.83242">
        <ele>81.577109733584</ele>
        <time>2020-09-26T08:58:28.000Z</time>
      </trkpt>
      <trkpt lat="43.6483" lon="3.83243">
        <ele>81.674102913954</ele>
        <time>2020-09-26T08:58:29.000Z</time>
      </trkpt>
      <trkpt lat="43.64835" lon="3.83243">
        <ele>81.771096094325</ele>
        <time>2020-09-26T08:58:30.000Z</time>
      </trkpt>
      <trkpt lat="43.64839" lon="3.83243">
        <ele>81.868089274696</ele>
        <time>2020-09-26T08:58:31.000Z</time>
      </trkpt>
      <trkpt lat="43.64843" lon="3.83243">
        <ele>81.965082455067</ele>
        <time>2020-09-26T08:58:32.000Z</time>
      </trkpt>
      <trkpt lat="43.64848" lon="3.83244">
        <ele>82</ele>
        <time>2020-09-26T08:58:33.000Z</time>
      </trkpt>
      <trkpt lat="43.64852" lon="3.83245">
        <ele>82</ele>
        <time>2020-09-26T08:58:34.000Z</time>
      </trkpt>
      <trkpt lat="43.64857" lon="3.83248">
        <ele>82</ele>
        <time>2020-09-26T08:58:35.000Z</time>
      </trkpt>
      <trkpt lat="43.64861" lon="3.8325">
        <ele>82</ele>
        <time>2020-09-26T08:58:36.000Z</time>
      </trkpt>
      <trkpt lat="43.64865" lon="3.83252">
        <ele>82</ele>
        <time>2020-09-26T08:58:37.000Z</time>
      </trkpt>
      <trkpt lat="43.64869" lon="3.83255">
        <ele>82</ele>
        <time>2020-09-26T08:58:38.000Z</time>
      </trkpt>
      <trkpt lat="43.64873" lon="3.83257">
        <ele>82</ele>
        <time>2020-09-26T08:58:39.000Z</time>
      </trkpt>
      <trkpt lat="43.64876" lon="3.83259">
        <ele>82</ele>
        <time>2020-09-26T08:58:40.000Z</time>
      </trkpt>
      <trkpt lat="43.6488" lon="3.83261">
        <ele>82</ele>
        <time>2020-09-26T08:58:41.000Z</time>
      </trkpt>
      <trkpt lat="43.64884" lon="3.83263">
        <ele>82</ele>
        <time>2020-09-26T08:58:42.000Z</time>
      </trkpt>
      <trkpt lat="43.64887" lon="3.83265">
        <ele>82.09500032</ele>
        <time>2020-09-26T08:58:43.000Z</time>
      </trkpt>
      <trkpt lat="43.64891" lon="3.83267">
        <ele>82.19500032</ele>
        <time>2020-09-26T08:58:44.000Z</time>
      </trkpt>
      <trkpt lat="43.64895" lon="3.83269">
        <ele>82.29500032</ele>
        <time>2020-09-26T08:58:45.000Z</time>
      </trkpt>
      <trkpt lat="43.64899" lon="3.83271">
        <ele>82.39500032</ele>
        <time>2020-09-26T08:58:46.000Z</time>
      </trkpt>
      <trkpt lat="43.64902" lon="3.83273">
        <ele>82.49500032</ele>
        <time>2020-09-26T08:58:47.000Z</time>
      </trkpt>
      <trkpt lat="43.64906" lon="3.83275">
        <ele>82.59500032</ele>
        <time>2020-09-26T08:58:48.000Z</time>
      </trkpt>
      <trkpt lat="43.6491" lon="3.83278">
        <ele>82.69500032</ele>
        <time>2020-09-26T08:58:49.000Z</time>
      </trkpt>
      <trkpt lat="43.64913" lon="3.8328">
        <ele>82.79500032</ele>
        <time>2020-09-26T08:58:50.000Z</time>
      </trkpt>
      <trkpt lat="43.64916" lon="3.83283">
        <ele>82.89500032</ele>
        <time>2020-09-26T08:58:51.000Z</time>
      </trkpt>
      <trkpt lat="43.6492" lon="3.83285">
        <ele>82.99500032</ele>
        <time>2020-09-26T08:58:52.000Z</time>
      </trkpt>
      <trkpt lat="43.64923" lon="3.83287">
        <ele>83.092412762646</ele>
        <time>2020-09-26T08:58:53.000Z</time>
      </trkpt>
      <trkpt lat="43.64927" lon="3.8329">
        <ele>83.189689027237</ele>
        <time>2020-09-26T08:58:54.000Z</time>
      </trkpt>
      <trkpt lat="43.6493" lon="3.83293">
        <ele>83.286965291829</ele>
        <time>2020-09-26T08:58:55.000Z</time>
      </trkpt>
      <trkpt lat="43.64933" lon="3.83295">
        <ele>83.38424155642</ele>
        <time>2020-09-26T08:58:56.000Z</time>
      </trkpt>
      <trkpt lat="43.64936" lon="3.83298">
        <ele>83.481517821012</ele>
        <time>2020-09-26T08:58:57.000Z</time>
      </trkpt>
      <trkpt lat="43.64939" lon="3.83301">
        <ele>83.578794085603</ele>
        <time>2020-09-26T08:58:58.000Z</time>
      </trkpt>
      <trkpt lat="43.64943" lon="3.83304">
        <ele>83.676070350194</ele>
        <time>2020-09-26T08:58:59.000Z</time>
      </trkpt>
      <trkpt lat="43.64946" lon="3.83307">
        <ele>83.773346614786</ele>
        <time>2020-09-26T08:59:00.000Z</time>
      </trkpt>
      <trkpt lat="43.64949" lon="3.8331">
        <ele>83.870622879377</ele>
        <time>2020-09-26T08:59:01.000Z</time>
      </trkpt>
      <trkpt lat="43.64952" lon="3.83313">
        <ele>83.967899143969</ele>
        <time>2020-09-26T08:59:02.000Z</time>
      </trkpt>
      <trkpt lat="43.64955" lon="3.83316">
        <ele>84</ele>
        <time>2020-09-26T08:59:03.000Z</time>
      </trkpt>
      <trkpt lat="43.64958" lon="3.83319">
        <ele>84</ele>
        <time>2020-09-26T08:59:04.000Z</time>
      </trkpt>
      <trkpt lat="43.64961" lon="3.83322">
        <ele>84</ele>
        <time>2020-09-26T08:59:05.000Z</time>
      </trkpt>
      <trkpt lat="43.64964" lon="3.83326">
        <ele>84</ele>
        <time>2020-09-26T08:59:06.000Z</time>
      </trkpt>
      <trkpt lat="43.64967" lon="3.83329">
        <ele>84</ele>
        <time>2020-09-26T08:59:07.000Z</time>
      </trkpt>
      <trkpt lat="43.6497" lon="3.83332">
        <ele>84</ele>
        <time>2020-09-26T08:59:08.000Z</time>
      </trkpt>
      <trkpt lat="43.64973" lon="3.83336">
        <ele>84</ele>
        <time>2020-09-26T08:59:09.000Z</time>
      </trkpt>
      <trkpt lat="43.64976" lon="3.83339">
        <ele>84</ele>
        <time>2020-09-26T08:59:10.000Z</time>
      </trkpt>
      <trkpt lat="43.64979" lon="3.83343">
        <ele>84</ele>
        <time>2020-09-26T08:59:11.000Z</time>
      </trkpt>
      <trkpt lat="43.64982" lon="3.83346">
        <ele>84</ele>
        <time>2020-09-26T08:59:12.000Z</time>
      </trkpt>
      <trkpt lat="43.64985" lon="3.83349">
        <ele>84.094093543874</ele>
        <time>2020-09-26T08:59:13.000Z</time>
      </trkpt>
      <trkpt lat="43.64989" lon="3.83353">
        <ele>84.194193740166</ele>
        <time>2020-09-26T08:59:14.000Z</time>
      </trkpt>
      <trkpt lat="43.64992" lon="3.83357">
        <ele>84.294293936459</ele>
        <time>2020-09-26T08:59:15.000Z</time>
      </trkpt>
      <trkpt lat="43.64995" lon="3.8336">
        <ele>84.394394132751</ele>
        <time>2020-09-26T08:59:16.000Z</time>
      </trkpt>
      <trkpt lat="43.64998" lon="3.83364">
        <ele>84.494494329044</ele>
        <time>2020-09-26T08:59:17.000Z</time>
      </trkpt>
      <trkpt lat="43.65001" lon="3.83367">
        <ele>84.594594525336</ele>
        <time>2020-09-26T08:59:18.000Z</time>
      </trkpt>
      <trkpt lat="43.65004" lon="3.8337">
        <ele>84.694694721629</ele>
        <time>2020-09-26T08:59:19.000Z</time>
      </trkpt>
      <trkpt lat="43.65007" lon="3.83374">
        <ele>84.794794917921</ele>
        <time>2020-09-26T08:59:20.000Z</time>
      </trkpt>
      <trkpt lat="43.6501" lon="3.83377">
        <ele>84.894895114213</ele>
        <time>2020-09-26T08:59:21.000Z</time>
      </trkpt>
      <trkpt lat="43.65013" lon="3.8338">
        <ele>84.994995310506</ele>
        <time>2020-09-26T08:59:22.000Z</time>
      </trkpt>
      <trkpt lat="43.65016" lon="3.83384">
        <ele>85.187377238736</ele>
        <time>2020-09-26T08:59:23.000Z</time>
      </trkpt>
      <trkpt lat="43.65019" lon="3.83387">
        <ele>85.384615773024</ele>
        <time>2020-09-26T08:59:24.000Z</time>
      </trkpt>
      <trkpt lat="43.65022" lon="3.8339">
        <ele>85.581854307311</ele>
        <time>2020-09-26T08:59:25.000Z</time>
      </trkpt>
      <trkpt lat="43.65025" lon="3.83393">
        <ele>85.779092841598</ele>
        <time>2020-09-26T08:59:26.000Z</time>
      </trkpt>
      <trkpt lat="43.65028" lon="3.83397">
        <ele>85.976331375885</ele>
        <time>2020-09-26T08:59:27.000Z</time>
      </trkpt>
      <trkpt lat="43.65031" lon="3.834">
        <ele>86.173569910173</ele>
        <time>2020-09-26T08:59:28.000Z</time>
      </trkpt>
      <trkpt lat="43.65034" lon="3.83404">
        <ele>86.37080844446</ele>
        <time>2020-09-26T08:59:29.000Z</time>
      </trkpt>
      <trkpt lat="43.65037" lon="3.83407">
        <ele>86.568046978748</ele>
        <time>2020-09-26T08:59:30.000Z</time>
      </trkpt>
      <trkpt lat="43.6504" lon="3.83411">
        <ele>86.765285513035</ele>
        <time>2020-09-26T08:59:31.000Z</time>
      </trkpt>
      <trkpt lat="43.65042" lon="3.83414">
        <ele>86.962524047322</ele>
        <time>2020-09-26T08:59:32.000Z</time>
      </trkpt>
      <trkpt lat="43.65045" lon="3.83418">
        <ele>87.079881391641</ele>
        <time>2020-09-26T08:59:33.000Z</time>
      </trkpt>
      <trkpt lat="43.65048" lon="3.83421">
        <ele>87.178500783275</ele>
        <time>2020-09-26T08:59:34.000Z</time>
      </trkpt>
      <trkpt lat="43.65051" lon="3.83425">
        <ele>87.277120174908</ele>
        <time>2020-09-26T08:59:35.000Z</time>
      </trkpt>
      <trkpt lat="43.65055" lon="3.83428">
        <ele>87.375739566542</ele>
        <time>2020-09-26T08:59:36.000Z</time>
      </trkpt>
      <trkpt lat="43.65058" lon="3.83432">
        <ele>87.474358958175</ele>
        <time>2020-09-26T08:59:37.000Z</time>
      </trkpt>
      <trkpt lat="43.65061" lon="3.83435">
        <ele>87.572978349809</ele>
        <time>2020-09-26T08:59:38.000Z</time>
      </trkpt>
      <trkpt lat="43.65064" lon="3.83439">
        <ele>87.671597741442</ele>
        <time>2020-09-26T08:59:39.000Z</time>
      </trkpt>
      <trkpt lat="43.65067" lon="3.83442">
        <ele>87.770217133076</ele>
        <time>2020-09-26T08:59:40.000Z</time>
      </trkpt>
      <trkpt lat="43.65069" lon="3.83446">
        <ele>87.868836524709</ele>
        <time>2020-09-26T08:59:41.000Z</time>
      </trkpt>
      <trkpt lat="43.65072" lon="3.83449">
        <ele>87.967455916343</ele>
        <time>2020-09-26T08:59:42.000Z</time>
      </trkpt>
      <trkpt lat="43.65075" lon="3.83453">
        <ele>88.06893037037</ele>
        <time>2020-09-26T08:59:43.000Z</time>
      </trkpt>
      <trkpt lat="43.65078" lon="3.83457">
        <ele>88.171811028807</ele>
        <time>2020-09-26T08:59:44.000Z</time>
      </trkpt>
      <trkpt lat="43.65081" lon="3.8346">
        <ele>88.274691687243</ele>
        <time>2020-09-26T08:59:45.000Z</time>
      </trkpt>
      <trkpt lat="43.65085" lon="3.83464">
        <ele>88.377572345679</ele>
        <time>2020-09-26T08:59:46.000Z</time>
      </trkpt>
      <trkpt lat="43.65088" lon="3.83467">
        <ele>88.480453004115</ele>
        <time>2020-09-26T08:59:47.000Z</time>
      </trkpt>
      <trkpt lat="43.65091" lon="3.83471">
        <ele>88.583333662551</ele>
        <time>2020-09-26T08:59:48.000Z</time>
      </trkpt>
      <trkpt lat="43.65094" lon="3.83474">
        <ele>88.686214320988</ele>
        <time>2020-09-26T08:59:49.000Z</time>
      </trkpt>
      <trkpt lat="43.65097" lon="3.83478">
        <ele>88.789094979424</ele>
        <time>2020-09-26T08:59:50.000Z</time>
      </trkpt>
      <trkpt lat="43.651" lon="3.83481">
        <ele>88.89197563786</ele>
        <time>2020-09-26T08:59:51.000Z</time>
      </trkpt>
      <trkpt lat="43.65104" lon="3.83484">
        <ele>88.994856296296</ele>
        <time>2020-09-26T08:59:52.000Z</time>
      </trkpt>
      <trkpt lat="43.65107" lon="3.83488">
        <ele>89.09500032</ele>
        <time>2020-09-26T08:59:53.000Z</time>
      </trkpt>
      <trkpt lat="43.6511" lon="3.83491">
        <ele>89.19500032</ele>
        <time>2020-09-26T08:59:54.000Z</time>
      </trkpt>
      <trkpt lat="43.65113" lon="3.83494">
        <ele>89.29500032</ele>
        <time>2020-09-26T08:59:55.000Z</time>
      </trkpt>
      <trkpt lat="43.65117" lon="3.83496">
        <ele>89.39500032</ele>
        <time>2020-09-26T08:59:56.000Z</time>
      </trkpt>
      <trkpt lat="43.6512" lon="3.83499">
        <ele>89.49500032</ele>
        <time>2020-09-26T08:59:57.000Z</time>
      </trkpt>
      <trkpt lat="43.65123" lon="3.83502">
        <ele>89.59500032</ele>
        <time>2020-09-26T08:59:58.000Z</time>
      </trkpt>
      <trkpt lat="43.65126" lon="3.83504">
        <ele>89.69500032</ele>
        <time>2020-09-26T08:59:59.000Z</time>
      </trkpt>
      <trkpt lat="43.6513" lon="3.83507">
        <ele>89.79500032</ele>
        <time>2020-09-26T09:00:00.000Z</time>
      </trkpt>
      <trkpt lat="43.65133" lon="3.83509">
        <ele>89.89500032</ele>
        <time>2020-09-26T09:00:01.000Z</time>
      </trkpt>
      <trkpt lat="43.65136" lon="3.83512">
        <ele>89.99500032</ele>
        <time>2020-09-26T09:00:02.000Z</time>
      </trkpt>
      <trkpt lat="43.65139" lon="3.83514">
        <ele>90.184645966071</ele>
        <time>2020-09-26T09:00:03.000Z</time>
      </trkpt>
      <trkpt lat="43.65142" lon="3.83516">
        <ele>90.379009486184</ele>
        <time>2020-09-26T09:00:04.000Z</time>
      </trkpt>
      <trkpt lat="43.65145" lon="3.83519">
        <ele>90.573373006297</ele>
        <time>2020-09-26T09:00:05.000Z</time>
      </trkpt>
      <trkpt lat="43.65148" lon="3.83521">
        <ele>90.76773652641</ele>
        <time>2020-09-26T09:00:06.000Z</time>
      </trkpt>
      <trkpt lat="43.65151" lon="3.83523">
        <ele>90.962100046523</ele>
        <time>2020-09-26T09:00:07.000Z</time>
      </trkpt>
      <trkpt lat="43.65154" lon="3.83526">
        <ele>91.156463566636</ele>
        <time>2020-09-26T09:00:08.000Z</time>
      </trkpt>
      <trkpt lat="43.65157" lon="3.83528">
        <ele>91.350827086749</ele>
        <time>2020-09-26T09:00:09.000Z</time>
      </trkpt>
      <trkpt lat="43.6516" lon="3.8353">
        <ele>91.545190606862</ele>
        <time>2020-09-26T09:00:10.000Z</time>
      </trkpt>
      <trkpt lat="43.65163" lon="3.83533">
        <ele>91.739554126975</ele>
        <time>2020-09-26T09:00:11.000Z</time>
      </trkpt>
      <trkpt lat="43.65166" lon="3.83535">
        <ele>91.933917647088</ele>
        <time>2020-09-26T09:00:12.000Z</time>
      </trkpt>
      <trkpt lat="43.65169" lon="3.83537">
        <ele>92.067901803586</ele>
        <time>2020-09-26T09:00:13.000Z</time>
      </trkpt>
      <trkpt lat="43.65172" lon="3.8354">
        <ele>92.170782326542</ele>
        <time>2020-09-26T09:00:14.000Z</time>
      </trkpt>
      <trkpt lat="43.65175" lon="3.83542">
        <ele>92.273662849497</ele>
        <time>2020-09-26T09:00:15.000Z</time>
      </trkpt>
      <trkpt lat="43.65178" lon="3.83544">
        <ele>92.376543372453</ele>
        <time>2020-09-26T09:00:16.000Z</time>
      </trkpt>
      <trkpt lat="43.65181" lon="3.83547">
        <ele>92.479423895409</ele>
        <time>2020-09-26T09:00:17.000Z</time>
      </trkpt>
      <trkpt lat="43.65183" lon="3.83549">
        <ele>92.582304418365</ele>
        <time>2020-09-26T09:00:18.000Z</time>
      </trkpt>
      <trkpt lat="43.65186" lon="3.83551">
        <ele>92.68518494132</ele>
        <time>2020-09-26T09:00:19.000Z</time>
      </trkpt>
      <trkpt lat="43.65188" lon="3.83554">
        <ele>92.788065464276</ele>
        <time>2020-09-26T09:00:20.000Z</time>
      </trkpt>
      <trkpt lat="43.65191" lon="3.83556">
        <ele>92.890945987232</ele>
        <time>2020-09-26T09:00:21.000Z</time>
      </trkpt>
      <trkpt lat="43.65194" lon="3.83558">
        <ele>92.993826510187</ele>
        <time>2020-09-26T09:00:22.000Z</time>
      </trkpt>
      <trkpt lat="43.65197" lon="3.8356">
        <ele>93.094093543874</ele>
        <time>2020-09-26T09:00:23.000Z</time>
      </trkpt>
      <trkpt lat="43.65201" lon="3.83562">
        <ele>93.194193740166</ele>
        <time>2020-09-26T09:00:24.000Z</time>
      </trkpt>
      <trkpt lat="43.65204" lon="3.83564">
        <ele>93.294293936459</ele>
        <time>2020-09-26T09:00:25.000Z</time>
      </trkpt>
      <trkpt lat="43.65208" lon="3.83566">
        <ele>93.394394132751</ele>
        <time>2020-09-26T09:00:26.000Z</time>
      </trkpt>
      <trkpt lat="43.65212" lon="3.83568">
        <ele>93.494494329044</ele>
        <time>2020-09-26T09:00:27.000Z</time>
      </trkpt>
      <trkpt lat="43.65216" lon="3.8357">
        <ele>93.594594525336</ele>
        <time>2020-09-26T09:00:28.000Z</time>
      </trkpt>
      <trkpt lat="43.65219" lon="3.83572">
        <ele>93.694694721629</ele>
        <time>2020-09-26T09:00:29.000Z</time>
      </trkpt>
      <trkpt lat="43.65223" lon="3.83574">
        <ele>93.794794917921</ele>
        <time>2020-09-26T09:00:30.000Z</time>
      </trkpt>
      <trkpt lat="43.65226" lon="3.83575">
        <ele>93.894895114213</ele>
        <time>2020-09-26T09:00:31.000Z</time>
      </trkpt>
      <trkpt lat="43.6523" lon="3.83577">
        <ele>93.994995310506</ele>
        <time>2020-09-26T09:00:32.000Z</time>
      </trkpt>
      <trkpt lat="43.65233" lon="3.83579">
        <ele>94</ele>
        <time>2020-09-26T09:00:33.000Z</time>
      </trkpt>
      <trkpt lat="43.65236" lon="3.83581">
        <ele>94</ele>
        <time>2020-09-26T09:00:34.000Z</time>
      </trkpt>
      <trkpt lat="43.65239" lon="3.83582">
        <ele>94</ele>
        <time>2020-09-26T09:00:35.000Z</time>
      </trkpt>
      <trkpt lat="43.65242" lon="3.83584">
        <ele>94</ele>
        <time>2020-09-26T09:00:36.000Z</time>
      </trkpt>
      <trkpt lat="43.65244" lon="3.83586">
        <ele>94</ele>
        <time>2020-09-26T09:00:37.000Z</time>
      </trkpt>
      <trkpt lat="43.65246" lon="3.83587">
        <ele>94</ele>
        <time>2020-09-26T09:00:38.000Z</time>
      </trkpt>
      <trkpt lat="43.65248" lon="3.83588">
        <ele>94</ele>
        <time>2020-09-26T09:00:39.000Z</time>
      </trkpt>
      <trkpt lat="43.65251" lon="3.83587">
        <ele>94</ele>
        <time>2020-09-26T09:00:40.000Z</time>
      </trkpt>
      <trkpt lat="43.65255" lon="3.83587">
        <ele>94</ele>
        <time>2020-09-26T09:00:41.000Z</time>
      </trkpt>
      <trkpt lat="43.65258" lon="3.83586">
        <ele>94</ele>
        <time>2020-09-26T09:00:42.000Z</time>
      </trkpt>
      <trkpt lat="43.65262" lon="3.83586">
        <ele>94</ele>
        <time>2020-09-26T09:00:43.000Z</time>
      </trkpt>
      <trkpt lat="43.65266" lon="3.83587">
        <ele>94</ele>
        <time>2020-09-26T09:00:44.000Z</time>
      </trkpt>
      <trkpt lat="43.6527" lon="3.83588">
        <ele>94</ele>
        <time>2020-09-26T09:00:45.000Z</time>
      </trkpt>
      <trkpt lat="43.65273" lon="3.83588">
        <ele>94</ele>
        <time>2020-09-26T09:00:46.000Z</time>
      </trkpt>
      <trkpt lat="43.65277" lon="3.83589">
        <ele>94</ele>
        <time>2020-09-26T09:00:47.000Z</time>
      </trkpt>
      <trkpt lat="43.65281" lon="3.83588">
        <ele>94</ele>
        <time>2020-09-26T09:00:48.000Z</time>
      </trkpt>
      <trkpt lat="43.65285" lon="3.83588">
        <ele>94</ele>
        <time>2020-09-26T09:00:49.000Z</time>
      </trkpt>
      <trkpt lat="43.65289" lon="3.83587">
        <ele>94</ele>
        <time>2020-09-26T09:00:50.000Z</time>
      </trkpt>
      <trkpt lat="43.65293" lon="3.83586">
        <ele>94</ele>
        <time>2020-09-26T09:00:51.000Z</time>
      </trkpt>
      <trkpt lat="43.65296" lon="3.83585">
        <ele>94</ele>
        <time>2020-09-26T09:00:52.000Z</time>
      </trkpt>
      <trkpt lat="43.65299" lon="3.83583">
        <ele>94.07645285077</ele>
        <time>2020-09-26T09:00:53.000Z</time>
      </trkpt>
      <trkpt lat="43.65303" lon="3.83581">
        <ele>94.1783895502</ele>
        <time>2020-09-26T09:00:54.000Z</time>
      </trkpt>
      <trkpt lat="43.65306" lon="3.83579">
        <ele>94.28032624963</ele>
        <time>2020-09-26T09:00:55.000Z</time>
      </trkpt>
      <trkpt lat="43.65309" lon="3.83577">
        <ele>94.38226294906</ele>
        <time>2020-09-26T09:00:56.000Z</time>
      </trkpt>
      <trkpt lat="43.65312" lon="3.83574">
        <ele>94.48419964849</ele>
        <time>2020-09-26T09:00:57.000Z</time>
      </trkpt>
      <trkpt lat="43.65315" lon="3.83571">
        <ele>94.58613634792</ele>
        <time>2020-09-26T09:00:58.000Z</time>
      </trkpt>
      <trkpt lat="43.65318" lon="3.83569">
        <ele>94.68807304735</ele>
        <time>2020-09-26T09:00:59.000Z</time>
      </trkpt>
      <trkpt lat="43.65322" lon="3.83566">
        <ele>94.790009746779</ele>
        <time>2020-09-26T09:01:00.000Z</time>
      </trkpt>
      <trkpt lat="43.65325" lon="3.83564">
        <ele>94.891946446209</ele>
        <time>2020-09-26T09:01:01.000Z</time>
      </trkpt>
      <trkpt lat="43.65328" lon="3.83561">
        <ele>94.993883145639</ele>
        <time>2020-09-26T09:01:02.000Z</time>
      </trkpt>
      <trkpt lat="43.65331" lon="3.83559">
        <ele>95</ele>
        <time>2020-09-26T09:01:03.000Z</time>
      </trkpt>
      <trkpt lat="43.65334" lon="3.83556">
        <ele>95</ele>
        <time>2020-09-26T09:01:04.000Z</time>
      </trkpt>
      <trkpt lat="43.65337" lon="3.83554">
        <ele>95</ele>
        <time>2020-09-26T09:01:05.000Z</time>
      </trkpt>
      <trkpt lat="43.6534" lon="3.83551">
        <ele>95</ele>
        <time>2020-09-26T09:01:06.000Z</time>
      </trkpt>
      <trkpt lat="43.65343" lon="3.83549">
        <ele>95</ele>
        <time>2020-09-26T09:01:07.000Z</time>
      </trkpt>
      <trkpt lat="43.65346" lon="3.83547">
        <ele>95</ele>
        <time>2020-09-26T09:01:08.000Z</time>
      </trkpt>
      <trkpt lat="43.6535" lon="3.83544">
        <ele>95</ele>
        <time>2020-09-26T09:01:09.000Z</time>
      </trkpt>
      <trkpt lat="43.65353" lon="3.83541">
        <ele>95</ele>
        <time>2020-09-26T09:01:10.000Z</time>
      </trkpt>
      <trkpt lat="43.65356" lon="3.83539">
        <ele>95</ele>
        <time>2020-09-26T09:01:11.000Z</time>
      </trkpt>
      <trkpt lat="43.65359" lon="3.83536">
        <ele>95</ele>
        <time>2020-09-26T09:01:12.000Z</time>
      </trkpt>
      <trkpt lat="43.65362" lon="3.83533">
        <ele>95</ele>
        <time>2020-09-26T09:01:13.000Z</time>
      </trkpt>
      <trkpt lat="43.65365" lon="3.83531">
        <ele>95</ele>
        <time>2020-09-26T09:01:14.000Z</time>
      </trkpt>
      <trkpt lat="43.65368" lon="3.83529">
        <ele>95</ele>
        <time>2020-09-26T09:01:15.000Z</time>
      </trkpt>
      <trkpt lat="43.6537" lon="3.83526">
        <ele>95</ele>
        <time>2020-09-26T09:01:16.000Z</time>
      </trkpt>
      <trkpt lat="43.65373" lon="3.83523">
        <ele>95</ele>
        <time>2020-09-26T09:01:17.000Z</time>
      </trkpt>
      <trkpt lat="43.65377" lon="3.8352">
        <ele>95</ele>
        <time>2020-09-26T09:01:18.000Z</time>
      </trkpt>
      <trkpt lat="43.6538" lon="3.83517">
        <ele>95</ele>
        <time>2020-09-26T09:01:19.000Z</time>
      </trkpt>
      <trkpt lat="43.65383" lon="3.83514">
        <ele>95</ele>
        <time>2020-09-26T09:01:20.000Z</time>
      </trkpt>
      <trkpt lat="43.65387" lon="3.83511">
        <ele>95</ele>
        <time>2020-09-26T09:01:21.000Z</time>
      </trkpt>
      <trkpt lat="43.6539" lon="3.83508">
        <ele>95</ele>
        <time>2020-09-26T09:01:22.000Z</time>
      </trkpt>
      <trkpt lat="43.65393" lon="3.83505">
        <ele>94.90499968</ele>
        <time>2020-09-26T09:01:23.000Z</time>
      </trkpt>
      <trkpt lat="43.65396" lon="3.83502">
        <ele>94.80499968</ele>
        <time>2020-09-26T09:01:24.000Z</time>
      </trkpt>
      <trkpt lat="43.65399" lon="3.83499">
        <ele>94.70499968</ele>
        <time>2020-09-26T09:01:25.000Z</time>
      </trkpt>
      <trkpt lat="43.65402" lon="3.83495">
        <ele>94.60499968</ele>
        <time>2020-09-26T09:01:26.000Z</time>
      </trkpt>
      <trkpt lat="43.65405" lon="3.83492">
        <ele>94.50499968</ele>
        <time>2020-09-26T09:01:27.000Z</time>
      </trkpt>
      <trkpt lat="43.65408" lon="3.83489">
        <ele>94.40499968</ele>
        <time>2020-09-26T09:01:28.000Z</time>
      </trkpt>
      <trkpt lat="43.65411" lon="3.83486">
        <ele>94.30499968</ele>
        <time>2020-09-26T09:01:29.000Z</time>
      </trkpt>
      <trkpt lat="43.65414" lon="3.83483">
        <ele>94.20499968</ele>
        <time>2020-09-26T09:01:30.000Z</time>
      </trkpt>
      <trkpt lat="43.65417" lon="3.83481">
        <ele>94.10499968</ele>
        <time>2020-09-26T09:01:31.000Z</time>
      </trkpt>
      <trkpt lat="43.6542" lon="3.83478">
        <ele>94.00499968</ele>
        <time>2020-09-26T09:01:32.000Z</time>
      </trkpt>
      <trkpt lat="43.65423" lon="3.83475">
        <ele>94</ele>
        <time>2020-09-26T09:01:33.000Z</time>
      </trkpt>
      <trkpt lat="43.65426" lon="3.83472">
        <ele>94</ele>
        <time>2020-09-26T09:01:34.000Z</time>
      </trkpt>
      <trkpt lat="43.65429" lon="3.83469">
        <ele>94</ele>
        <time>2020-09-26T09:01:35.000Z</time>
      </trkpt>
      <trkpt lat="43.65432" lon="3.83466">
        <ele>94</ele>
        <time>2020-09-26T09:01:36.000Z</time>
      </trkpt>
      <trkpt lat="43.65435" lon="3.83463">
        <ele>94</ele>
        <time>2020-09-26T09:01:37.000Z</time>
      </trkpt>
      <trkpt lat="43.65438" lon="3.83461">
        <ele>94</ele>
        <time>2020-09-26T09:01:38.000Z</time>
      </trkpt>
      <trkpt lat="43.65441" lon="3.83458">
        <ele>94</ele>
        <time>2020-09-26T09:01:39.000Z</time>
      </trkpt>
      <trkpt lat="43.65443" lon="3.83456">
        <ele>94</ele>
        <time>2020-09-26T09:01:40.000Z</time>
      </trkpt>
      <trkpt lat="43.65445" lon="3.83454">
        <ele>94</ele>
        <time>2020-09-26T09:01:41.000Z</time>
      </trkpt>
      <trkpt lat="43.65447" lon="3.83453">
        <ele>94</ele>
        <time>2020-09-26T09:01:42.000Z</time>
      </trkpt>
      <trkpt lat="43.65449" lon="3.83454">
        <ele>94</ele>
        <time>2020-09-26T09:01:43.000Z</time>
      </trkpt>
      <trkpt lat="43.65452" lon="3.83454">
        <ele>94</ele>
        <time>2020-09-26T09:01:45.000Z</time>
      </trkpt>
      <trkpt lat="43.65455" lon="3.83456">
        <ele>94</ele>
        <time>2020-09-26T09:01:48.000Z</time>
      </trkpt>
      <trkpt lat="43.65457" lon="3.83458">
        <ele>94</ele>
        <time>2020-09-26T09:01:49.000Z</time>
      </trkpt>
      <trkpt lat="43.65458" lon="3.83462">
        <ele>94</ele>
        <time>2020-09-26T09:01:50.000Z</time>
      </trkpt>
      <trkpt lat="43.6546" lon="3.83465">
        <ele>94</ele>
        <time>2020-09-26T09:01:51.000Z</time>
      </trkpt>
      <trkpt lat="43.65462" lon="3.83468">
        <ele>94</ele>
        <time>2020-09-26T09:01:52.000Z</time>
      </trkpt>
      <trkpt lat="43.65465" lon="3.83471">
        <ele>93.931211215631</ele>
        <time>2020-09-26T09:01:53.000Z</time>
      </trkpt>
      <trkpt lat="43.65468" lon="3.83474">
        <ele>93.828541878576</ele>
        <time>2020-09-26T09:01:54.000Z</time>
      </trkpt>
      <trkpt lat="43.65471" lon="3.83477">
        <ele>93.725872541521</ele>
        <time>2020-09-26T09:01:55.000Z</time>
      </trkpt>
      <trkpt lat="43.65475" lon="3.83481">
        <ele>93.623203204466</ele>
        <time>2020-09-26T09:01:56.000Z</time>
      </trkpt>
      <trkpt lat="43.65478" lon="3.83484">
        <ele>93.520533867411</ele>
        <time>2020-09-26T09:01:57.000Z</time>
      </trkpt>
      <trkpt lat="43.65482" lon="3.83487">
        <ele>93.417864530356</ele>
        <time>2020-09-26T09:01:58.000Z</time>
      </trkpt>
      <trkpt lat="43.65485" lon="3.83491">
        <ele>93.315195193301</ele>
        <time>2020-09-26T09:01:59.000Z</time>
      </trkpt>
      <trkpt lat="43.65489" lon="3.83494">
        <ele>93.212525856246</ele>
        <time>2020-09-26T09:02:00.000Z</time>
      </trkpt>
      <trkpt lat="43.65492" lon="3.83497">
        <ele>93.109856519191</ele>
        <time>2020-09-26T09:02:01.000Z</time>
      </trkpt>
      <trkpt lat="43.65495" lon="3.835">
        <ele>93.007187182136</ele>
        <time>2020-09-26T09:02:02.000Z</time>
      </trkpt>
      <trkpt lat="43.65499" lon="3.83502">
        <ele>92.906813888137</ele>
        <time>2020-09-26T09:02:03.000Z</time>
      </trkpt>
      <trkpt lat="43.65502" lon="3.83506">
        <ele>92.806613423079</ele>
        <time>2020-09-26T09:02:04.000Z</time>
      </trkpt>
      <trkpt lat="43.65506" lon="3.83509">
        <ele>92.70641295802</ele>
        <time>2020-09-26T09:02:05.000Z</time>
      </trkpt>
      <trkpt lat="43.6551" lon="3.83513">
        <ele>92.606212492962</ele>
        <time>2020-09-26T09:02:06.000Z</time>
      </trkpt>
      <trkpt lat="43.65512" lon="3.83518">
        <ele>92.506012027903</ele>
        <time>2020-09-26T09:02:07.000Z</time>
      </trkpt>
      <trkpt lat="43.65515" lon="3.83524">
        <ele>92.405811562845</ele>
        <time>2020-09-26T09:02:08.000Z</time>
      </trkpt>
      <trkpt lat="43.65518" lon="3.8353">
        <ele>92.305611097787</ele>
        <time>2020-09-26T09:02:09.000Z</time>
      </trkpt>
      <trkpt lat="43.65521" lon="3.83536">
        <ele>92.205410632728</ele>
        <time>2020-09-26T09:02:10.000Z</time>
      </trkpt>
      <trkpt lat="43.65524" lon="3.83543">
        <ele>92.10521016767</ele>
        <time>2020-09-26T09:02:11.000Z</time>
      </trkpt>
      <trkpt lat="43.65528" lon="3.8355">
        <ele>92.005009702611</ele>
        <time>2020-09-26T09:02:12.000Z</time>
      </trkpt>
      <trkpt lat="43.65532" lon="3.83557">
        <ele>91.62075744782</ele>
        <time>2020-09-26T09:02:13.000Z</time>
      </trkpt>
      <trkpt lat="43.65536" lon="3.83565">
        <ele>91.221556105992</ele>
        <time>2020-09-26T09:02:14.000Z</time>
      </trkpt>
      <trkpt lat="43.65541" lon="3.83573">
        <ele>90.822354764165</ele>
        <time>2020-09-26T09:02:15.000Z</time>
      </trkpt>
      <trkpt lat="43.65545" lon="3.83581">
        <ele>90.423153422337</ele>
        <time>2020-09-26T09:02:16.000Z</time>
      </trkpt>
      <trkpt lat="43.65549" lon="3.8359">
        <ele>90.02395208051</ele>
        <time>2020-09-26T09:02:17.000Z</time>
      </trkpt>
      <trkpt lat="43.65554" lon="3.836">
        <ele>89.624750738682</ele>
        <time>2020-09-26T09:02:18.000Z</time>
      </trkpt>
      <trkpt lat="43.65557" lon="3.8361">
        <ele>89.225549396855</ele>
        <time>2020-09-26T09:02:19.000Z</time>
      </trkpt>
      <trkpt lat="43.65561" lon="3.8362">
        <ele>88.826348055027</ele>
        <time>2020-09-26T09:02:20.000Z</time>
      </trkpt>
      <trkpt lat="43.65565" lon="3.83629">
        <ele>88.4271467132</ele>
        <time>2020-09-26T09:02:21.000Z</time>
      </trkpt>
      <trkpt lat="43.65569" lon="3.83638">
        <ele>88.027945371372</ele>
        <time>2020-09-26T09:02:22.000Z</time>
      </trkpt>
      <trkpt lat="43.65572" lon="3.83646">
        <ele>87.906813888137</ele>
        <time>2020-09-26T09:02:23.000Z</time>
      </trkpt>
      <trkpt lat="43.65574" lon="3.83654">
        <ele>87.806613423079</ele>
        <time>2020-09-26T09:02:24.000Z</time>
      </trkpt>
      <trkpt lat="43.65576" lon="3.83661">
        <ele>87.70641295802</ele>
        <time>2020-09-26T09:02:25.000Z</time>
      </trkpt>
      <trkpt lat="43.65577" lon="3.83668">
        <ele>87.606212492962</ele>
        <time>2020-09-26T09:02:26.000Z</time>
      </trkpt>
      <trkpt lat="43.65578" lon="3.83672">
        <ele>87.506012027903</ele>
        <time>2020-09-26T09:02:27.000Z</time>
      </trkpt>
      <trkpt lat="43.65579" lon="3.83675">
        <ele>87.405811562845</ele>
        <time>2020-09-26T09:02:28.000Z</time>
      </trkpt>
      <trkpt lat="43.6558" lon="3.83678">
        <ele>87.205410632728</ele>
        <time>2020-09-26T09:02:30.000Z</time>
      </trkpt>
      <trkpt lat="43.6558" lon="3.83678">
        <ele>87</ele>
        <time>2020-09-26T09:02:36.000Z</time>
      </trkpt>
      <trkpt lat="43.65585" lon="3.83686">
        <ele>86.014277042478</ele>
        <time>2020-09-26T09:02:52.000Z</time>
      </trkpt>
      <trkpt lat="43.65584" lon="3.8369">
        <ele>85.895172367524</ele>
        <time>2020-09-26T09:02:53.000Z</time>
      </trkpt>
      <trkpt lat="43.65584" lon="3.83693">
        <ele>85.757241272162</ele>
        <time>2020-09-26T09:02:54.000Z</time>
      </trkpt>
      <trkpt lat="43.65584" lon="3.83694">
        <ele>85</ele>
        <time>2020-09-26T09:03:00.000Z</time>
      </trkpt>
      <trkpt lat="43.65582" lon="3.83707">
        <ele>84.932127212246</ele>
        <time>2020-09-26T09:06:53.000Z</time>
      </trkpt>
      <trkpt lat="43.65582" lon="3.83708">
        <ele>84.781297722451</ele>
        <time>2020-09-26T09:06:54.000Z</time>
      </trkpt>
      <trkpt lat="43.65582" lon="3.83708">
        <ele>84.027150273472</ele>
        <time>2020-09-26T09:06:59.000Z</time>
      </trkpt>
      <trkpt lat="43.65586" lon="3.83711">
        <ele>84</ele>
        <time>2020-09-26T09:07:14.000Z</time>
      </trkpt>
      <trkpt lat="43.65589" lon="3.83713">
        <ele>84</ele>
        <time>2020-09-26T09:07:16.000Z</time>
      </trkpt>
      <trkpt lat="43.65591" lon="3.83714">
        <ele>84</ele>
        <time>2020-09-26T09:07:18.000Z</time>
      </trkpt>
      <trkpt lat="43.65594" lon="3.83717">
        <ele>84</ele>
        <time>2020-09-26T09:07:20.000Z</time>
      </trkpt>
      <trkpt lat="43.65597" lon="3.83718">
        <ele>84</ele>
        <time>2020-09-26T09:07:21.000Z</time>
      </trkpt>
      <trkpt lat="43.656" lon="3.83719">
        <ele>84</ele>
        <time>2020-09-26T09:07:22.000Z</time>
      </trkpt>
      <trkpt lat="43.65603" lon="3.83719">
        <ele>84</ele>
        <time>2020-09-26T09:07:23.000Z</time>
      </trkpt>
      <trkpt lat="43.65605" lon="3.83719">
        <ele>84</ele>
        <time>2020-09-26T09:07:24.000Z</time>
      </trkpt>
      <trkpt lat="43.65607" lon="3.83719">
        <ele>83.723568504809</ele>
        <time>2020-09-26T09:07:25.000Z</time>
      </trkpt>
      <trkpt lat="43.6561" lon="3.8372">
        <ele>83.432588963697</ele>
        <time>2020-09-26T09:07:26.000Z</time>
      </trkpt>
      <trkpt lat="43.65615" lon="3.83722">
        <ele>83.141609422585</ele>
        <time>2020-09-26T09:07:27.000Z</time>
      </trkpt>
      <trkpt lat="43.65619" lon="3.83724">
        <ele>82.850629881473</ele>
        <time>2020-09-26T09:07:28.000Z</time>
      </trkpt>
      <trkpt lat="43.65624" lon="3.83725">
        <ele>82.559650340361</ele>
        <time>2020-09-26T09:07:29.000Z</time>
      </trkpt>
      <trkpt lat="43.6563" lon="3.83727">
        <ele>82.268670799249</ele>
        <time>2020-09-26T09:07:30.000Z</time>
      </trkpt>
      <trkpt lat="43.65635" lon="3.83729">
        <ele>81.977691258137</ele>
        <time>2020-09-26T09:07:31.000Z</time>
      </trkpt>
      <trkpt lat="43.65641" lon="3.83731">
        <ele>81.686711717024</ele>
        <time>2020-09-26T09:07:32.000Z</time>
      </trkpt>
      <trkpt lat="43.65648" lon="3.83732">
        <ele>81.395732175912</ele>
        <time>2020-09-26T09:07:33.000Z</time>
      </trkpt>
      <trkpt lat="43.65654" lon="3.83734">
        <ele>81.1047526348</ele>
        <time>2020-09-26T09:07:34.000Z</time>
      </trkpt>
      <trkpt lat="43.65661" lon="3.83736">
        <ele>80.801857519705</ele>
        <time>2020-09-26T09:07:35.000Z</time>
      </trkpt>
      <trkpt lat="43.65667" lon="3.83738">
        <ele>80.492259894245</ele>
        <time>2020-09-26T09:07:36.000Z</time>
      </trkpt>
      <trkpt lat="43.65674" lon="3.8374">
        <ele>80.182662268784</ele>
        <time>2020-09-26T09:07:37.000Z</time>
      </trkpt>
      <trkpt lat="43.65681" lon="3.83742">
        <ele>79.873064643324</ele>
        <time>2020-09-26T09:07:38.000Z</time>
      </trkpt>
      <trkpt lat="43.65688" lon="3.83744">
        <ele>79.563467017863</ele>
        <time>2020-09-26T09:07:39.000Z</time>
      </trkpt>
      <trkpt lat="43.65695" lon="3.83746">
        <ele>79.253869392403</ele>
        <time>2020-09-26T09:07:40.000Z</time>
      </trkpt>
      <trkpt lat="43.65702" lon="3.83748">
        <ele>78.944271766942</ele>
        <time>2020-09-26T09:07:41.000Z</time>
      </trkpt>
      <trkpt lat="43.65709" lon="3.8375">
        <ele>78.634674141482</ele>
        <time>2020-09-26T09:07:42.000Z</time>
      </trkpt>
      <trkpt lat="43.65717" lon="3.83752">
        <ele>78.325076516021</ele>
        <time>2020-09-26T09:07:43.000Z</time>
      </trkpt>
      <trkpt lat="43.65724" lon="3.83754">
        <ele>78.015478890561</ele>
        <time>2020-09-26T09:07:44.000Z</time>
      </trkpt>
      <trkpt lat="43.65731" lon="3.83756">
        <ele>77.720313179097</ele>
        <time>2020-09-26T09:07:45.000Z</time>
      </trkpt>
      <trkpt lat="43.65739" lon="3.83758">
        <ele>77.425906990883</ele>
        <time>2020-09-26T09:07:46.000Z</time>
      </trkpt>
      <trkpt lat="43.65746" lon="3.8376">
        <ele>77.131500802669</ele>
        <time>2020-09-26T09:07:47.000Z</time>
      </trkpt>
      <trkpt lat="43.65753" lon="3.83761">
        <ele>76.837094614455</ele>
        <time>2020-09-26T09:07:48.000Z</time>
      </trkpt>
      <trkpt lat="43.65761" lon="3.83762">
        <ele>76.542688426241</ele>
        <time>2020-09-26T09:07:49.000Z</time>
      </trkpt>
      <trkpt lat="43.65768" lon="3.83764">
        <ele>76.248282238027</ele>
        <time>2020-09-26T09:07:50.000Z</time>
      </trkpt>
      <trkpt lat="43.65775" lon="3.83765">
        <ele>75.953876049813</ele>
        <time>2020-09-26T09:07:51.000Z</time>
      </trkpt>
      <trkpt lat="43.65782" lon="3.83765">
        <ele>75.659469861599</ele>
        <time>2020-09-26T09:07:52.000Z</time>
      </trkpt>
      <trkpt lat="43.65789" lon="3.83765">
        <ele>75.365063673385</ele>
        <time>2020-09-26T09:07:53.000Z</time>
      </trkpt>
      <trkpt lat="43.65796" lon="3.83765">
        <ele>75.070657485171</ele>
        <time>2020-09-26T09:07:54.000Z</time>
      </trkpt>
      <trkpt lat="43.65803" lon="3.83765">
        <ele>74.922528007349</ele>
        <time>2020-09-26T09:07:55.000Z</time>
      </trkpt>
      <trkpt lat="43.6581" lon="3.83764">
        <ele>74.820591174912</ele>
        <time>2020-09-26T09:07:56.000Z</time>
      </trkpt>
      <trkpt lat="43.65817" lon="3.83764">
        <ele>74.718654342476</ele>
        <time>2020-09-26T09:07:57.000Z</time>
      </trkpt>
      <trkpt lat="43.65824" lon="3.83763">
        <ele>74.61671751004</ele>
        <time>2020-09-26T09:07:58.000Z</time>
      </trkpt>
      <trkpt lat="43.65831" lon="3.83762">
        <ele>74.514780677604</ele>
        <time>2020-09-26T09:07:59.000Z</time>
      </trkpt>
      <trkpt lat="43.65838" lon="3.83761">
        <ele>74.412843845168</ele>
        <time>2020-09-26T09:08:00.000Z</time>
      </trkpt>
      <trkpt lat="43.65845" lon="3.83761">
        <ele>74.310907012732</ele>
        <time>2020-09-26T09:08:01.000Z</time>
      </trkpt>
      <trkpt lat="43.65851" lon="3.8376">
        <ele>74.208970180296</ele>
        <time>2020-09-26T09:08:02.000Z</time>
      </trkpt>
      <trkpt lat="43.65858" lon="3.8376">
        <ele>74.10703334786</ele>
        <time>2020-09-26T09:08:03.000Z</time>
      </trkpt>
      <trkpt lat="43.65864" lon="3.8376">
        <ele>74.005096515424</ele>
        <time>2020-09-26T09:08:04.000Z</time>
      </trkpt>
      <trkpt lat="43.6587" lon="3.83761">
        <ele>73.90499968</ele>
        <time>2020-09-26T09:08:05.000Z</time>
      </trkpt>
      <trkpt lat="43.65876" lon="3.83761">
        <ele>73.80499968</ele>
        <time>2020-09-26T09:08:06.000Z</time>
      </trkpt>
      <trkpt lat="43.65882" lon="3.83762">
        <ele>73.70499968</ele>
        <time>2020-09-26T09:08:07.000Z</time>
      </trkpt>
      <trkpt lat="43.65887" lon="3.83762">
        <ele>73.60499968</ele>
        <time>2020-09-26T09:08:08.000Z</time>
      </trkpt>
      <trkpt lat="43.65892" lon="3.83763">
        <ele>73.50499968</ele>
        <time>2020-09-26T09:08:09.000Z</time>
      </trkpt>
      <trkpt lat="43.65897" lon="3.83763">
        <ele>73.40499968</ele>
        <time>2020-09-26T09:08:10.000Z</time>
      </trkpt>
      <trkpt lat="43.65902" lon="3.83764">
        <ele>73.30499968</ele>
        <time>2020-09-26T09:08:11.000Z</time>
      </trkpt>
      <trkpt lat="43.65906" lon="3.83766">
        <ele>73.20499968</ele>
        <time>2020-09-26T09:08:12.000Z</time>
      </trkpt>
      <trkpt lat="43.65911" lon="3.83767">
        <ele>73.10499968</ele>
        <time>2020-09-26T09:08:13.000Z</time>
      </trkpt>
      <trkpt lat="43.65915" lon="3.83768">
        <ele>73.00499968</ele>
        <time>2020-09-26T09:08:14.000Z</time>
      </trkpt>
      <trkpt lat="43.65918" lon="3.83769">
        <ele>73</ele>
        <time>2020-09-26T09:08:15.000Z</time>
      </trkpt>
      <trkpt lat="43.65922" lon="3.8377">
        <ele>73</ele>
        <time>2020-09-26T09:08:16.000Z</time>
      </trkpt>
      <trkpt lat="43.65926" lon="3.83771">
        <ele>73</ele>
        <time>2020-09-26T09:08:17.000Z</time>
      </trkpt>
      <trkpt lat="43.6593" lon="3.83773">
        <ele>73</ele>
        <time>2020-09-26T09:08:18.000Z</time>
      </trkpt>
      <trkpt lat="43.65934" lon="3.83774">
        <ele>73</ele>
        <time>2020-09-26T09:08:19.000Z</time>
      </trkpt>
      <trkpt lat="43.65937" lon="3.83776">
        <ele>73</ele>
        <time>2020-09-26T09:08:20.000Z</time>
      </trkpt>
      <trkpt lat="43.65941" lon="3.83777">
        <ele>73</ele>
        <time>2020-09-26T09:08:21.000Z</time>
      </trkpt>
      <trkpt lat="43.65944" lon="3.83778">
        <ele>73</ele>
        <time>2020-09-26T09:08:22.000Z</time>
      </trkpt>
      <trkpt lat="43.65947" lon="3.83779">
        <ele>73</ele>
        <time>2020-09-26T09:08:23.000Z</time>
      </trkpt>
      <trkpt lat="43.65951" lon="3.8378">
        <ele>73</ele>
        <time>2020-09-26T09:08:24.000Z</time>
      </trkpt>
      <trkpt lat="43.65955" lon="3.83781">
        <ele>73</ele>
        <time>2020-09-26T09:08:25.000Z</time>
      </trkpt>
      <trkpt lat="43.65958" lon="3.83782">
        <ele>73</ele>
        <time>2020-09-26T09:08:26.000Z</time>
      </trkpt>
      <trkpt lat="43.65963" lon="3.83781">
        <ele>73</ele>
        <time>2020-09-26T09:08:27.000Z</time>
      </trkpt>
      <trkpt lat="43.65967" lon="3.83779">
        <ele>73</ele>
        <time>2020-09-26T09:08:28.000Z</time>
      </trkpt>
      <trkpt lat="43.6597" lon="3.83776">
        <ele>73</ele>
        <time>2020-09-26T09:08:29.000Z</time>
      </trkpt>
      <trkpt lat="43.65974" lon="3.83772">
        <ele>73</ele>
        <time>2020-09-26T09:08:30.000Z</time>
      </trkpt>
      <trkpt lat="43.65977" lon="3.83769">
        <ele>73</ele>
        <time>2020-09-26T09:08:31.000Z</time>
      </trkpt>
      <trkpt lat="43.6598" lon="3.83767">
        <ele>73</ele>
        <time>2020-09-26T09:08:32.000Z</time>
      </trkpt>
      <trkpt lat="43.65983" lon="3.83764">
        <ele>73</ele>
        <time>2020-09-26T09:08:33.000Z</time>
      </trkpt>
      <trkpt lat="43.65986" lon="3.83763">
        <ele>73</ele>
        <time>2020-09-26T09:08:34.000Z</time>
      </trkpt>
      <trkpt lat="43.65988" lon="3.83761">
        <ele>73</ele>
        <time>2020-09-26T09:08:35.000Z</time>
      </trkpt>
      <trkpt lat="43.65991" lon="3.8376">
        <ele>73</ele>
        <time>2020-09-26T09:08:36.000Z</time>
      </trkpt>
      <trkpt lat="43.65994" lon="3.83758">
        <ele>73</ele>
        <time>2020-09-26T09:08:37.000Z</time>
      </trkpt>
      <trkpt lat="43.65997" lon="3.83756">
        <ele>73</ele>
        <time>2020-09-26T09:08:38.000Z</time>
      </trkpt>
      <trkpt lat="43.66" lon="3.83754">
        <ele>73</ele>
        <time>2020-09-26T09:08:39.000Z</time>
      </trkpt>
      <trkpt lat="43.66003" lon="3.83752">
        <ele>73</ele>
        <time>2020-09-26T09:08:40.000Z</time>
      </trkpt>
      <trkpt lat="43.66006" lon="3.8375">
        <ele>73</ele>
        <time>2020-09-26T09:08:41.000Z</time>
      </trkpt>
      <trkpt lat="43.66008" lon="3.83747">
        <ele>73</ele>
        <time>2020-09-26T09:08:42.000Z</time>
      </trkpt>
      <trkpt lat="43.66011" lon="3.83744">
        <ele>73</ele>
        <time>2020-09-26T09:08:43.000Z</time>
      </trkpt>
      <trkpt lat="43.66013" lon="3.83741">
        <ele>73</ele>
        <time>2020-09-26T09:08:44.000Z</time>
      </trkpt>
      <trkpt lat="43.66015" lon="3.83737">
        <ele>73.092683152219</ele>
        <time>2020-09-26T09:08:45.000Z</time>
      </trkpt>
      <trkpt lat="43.66017" lon="3.83734">
        <ele>73.190244036454</ele>
        <time>2020-09-26T09:08:46.000Z</time>
      </trkpt>
      <trkpt lat="43.66018" lon="3.8373">
        <ele>73.28780492069</ele>
        <time>2020-09-26T09:08:47.000Z</time>
      </trkpt>
      <trkpt lat="43.66019" lon="3.83726">
        <ele>73.385365804926</ele>
        <time>2020-09-26T09:08:48.000Z</time>
      </trkpt>
      <trkpt lat="43.6602" lon="3.83723">
        <ele>73.482926689161</ele>
        <time>2020-09-26T09:08:49.000Z</time>
      </trkpt>
      <trkpt lat="43.6602" lon="3.83719">
        <ele>73.580487573397</ele>
        <time>2020-09-26T09:08:50.000Z</time>
      </trkpt>
      <trkpt lat="43.6602" lon="3.83715">
        <ele>73.678048457633</ele>
        <time>2020-09-26T09:08:51.000Z</time>
      </trkpt>
      <trkpt lat="43.6602" lon="3.83711">
        <ele>73.775609341868</ele>
        <time>2020-09-26T09:08:52.000Z</time>
      </trkpt>
      <trkpt lat="43.66021" lon="3.83707">
        <ele>73.873170226104</ele>
        <time>2020-09-26T09:08:53.000Z</time>
      </trkpt>
      <trkpt lat="43.66021" lon="3.83703">
        <ele>73.97073111034</ele>
        <time>2020-09-26T09:08:54.000Z</time>
      </trkpt>
      <trkpt lat="43.66022" lon="3.83699">
        <ele>74.071794286074</ele>
        <time>2020-09-26T09:08:55.000Z</time>
      </trkpt>
      <trkpt lat="43.66024" lon="3.83695">
        <ele>74.174358489625</ele>
        <time>2020-09-26T09:08:56.000Z</time>
      </trkpt>
      <trkpt lat="43.66025" lon="3.83692">
        <ele>74.276922693175</ele>
        <time>2020-09-26T09:08:57.000Z</time>
      </trkpt>
      <trkpt lat="43.66027" lon="3.83688">
        <ele>74.379486896726</ele>
        <time>2020-09-26T09:08:58.000Z</time>
      </trkpt>
      <trkpt lat="43.66028" lon="3.83685">
        <ele>74.482051100276</ele>
        <time>2020-09-26T09:08:59.000Z</time>
      </trkpt>
      <trkpt lat="43.6603" lon="3.83682">
        <ele>74.584615303826</ele>
        <time>2020-09-26T09:09:00.000Z</time>
      </trkpt>
      <trkpt lat="43.66032" lon="3.83679">
        <ele>74.687179507377</ele>
        <time>2020-09-26T09:09:01.000Z</time>
      </trkpt>
      <trkpt lat="43.66034" lon="3.83677">
        <ele>74.789743710927</ele>
        <time>2020-09-26T09:09:02.000Z</time>
      </trkpt>
      <trkpt lat="43.66037" lon="3.83675">
        <ele>74.892307914477</ele>
        <time>2020-09-26T09:09:03.000Z</time>
      </trkpt>
      <trkpt lat="43.66039" lon="3.83673">
        <ele>74.994872118028</ele>
        <time>2020-09-26T09:09:04.000Z</time>
      </trkpt>
      <trkpt lat="43.66042" lon="3.83671">
        <ele>75.09500032</ele>
        <time>2020-09-26T09:09:05.000Z</time>
      </trkpt>
      <trkpt lat="43.66044" lon="3.83669">
        <ele>75.19500032</ele>
        <time>2020-09-26T09:09:06.000Z</time>
      </trkpt>
      <trkpt lat="43.66047" lon="3.83668">
        <ele>75.29500032</ele>
        <time>2020-09-26T09:09:07.000Z</time>
      </trkpt>
      <trkpt lat="43.66049" lon="3.83666">
        <ele>75.39500032</ele>
        <time>2020-09-26T09:09:08.000Z</time>
      </trkpt>
      <trkpt lat="43.66052" lon="3.83665">
        <ele>75.49500032</ele>
        <time>2020-09-26T09:09:09.000Z</time>
      </trkpt>
      <trkpt lat="43.66054" lon="3.83663">
        <ele>75.59500032</ele>
        <time>2020-09-26T09:09:10.000Z</time>
      </trkpt>
      <trkpt lat="43.66057" lon="3.83662">
        <ele>75.69500032</ele>
        <time>2020-09-26T09:09:11.000Z</time>
      </trkpt>
      <trkpt lat="43.6606" lon="3.83661">
        <ele>75.79500032</ele>
        <time>2020-09-26T09:09:12.000Z</time>
      </trkpt>
      <trkpt lat="43.66063" lon="3.8366">
        <ele>75.89500032</ele>
        <time>2020-09-26T09:09:13.000Z</time>
      </trkpt>
      <trkpt lat="43.66065" lon="3.8366">
        <ele>75.99500032</ele>
        <time>2020-09-26T09:09:14.000Z</time>
      </trkpt>
      <trkpt lat="43.66068" lon="3.83659">
        <ele>76.09500032</ele>
        <time>2020-09-26T09:09:15.000Z</time>
      </trkpt>
      <trkpt lat="43.6607" lon="3.83659">
        <ele>76.19500032</ele>
        <time>2020-09-26T09:09:16.000Z</time>
      </trkpt>
      <trkpt lat="43.66072" lon="3.83659">
        <ele>76.29500032</ele>
        <time>2020-09-26T09:09:17.000Z</time>
      </trkpt>
      <trkpt lat="43.66075" lon="3.83659">
        <ele>76.49500032</ele>
        <time>2020-09-26T09:09:19.000Z</time>
      </trkpt>
      <trkpt lat="43.66078" lon="3.8366">
        <ele>76.69500032</ele>
        <time>2020-09-26T09:09:21.000Z</time>
      </trkpt>
      <trkpt lat="43.6608" lon="3.8366">
        <ele>76.79500032</ele>
        <time>2020-09-26T09:09:22.000Z</time>
      </trkpt>
      <trkpt lat="43.66082" lon="3.8366">
        <ele>76.89500032</ele>
        <time>2020-09-26T09:09:23.000Z</time>
      </trkpt>
      <trkpt lat="43.66084" lon="3.83661">
        <ele>76.99500032</ele>
        <time>2020-09-26T09:09:24.000Z</time>
      </trkpt>
      <trkpt lat="43.66086" lon="3.83661">
        <ele>77.09500032</ele>
        <time>2020-09-26T09:09:25.000Z</time>
      </trkpt>
      <trkpt lat="43.66088" lon="3.83663">
        <ele>77.19500032</ele>
        <time>2020-09-26T09:09:26.000Z</time>
      </trkpt>
      <trkpt lat="43.6609" lon="3.83664">
        <ele>77.29500032</ele>
        <time>2020-09-26T09:09:27.000Z</time>
      </trkpt>
      <trkpt lat="43.66092" lon="3.83666">
        <ele>77.39500032</ele>
        <time>2020-09-26T09:09:28.000Z</time>
      </trkpt>
      <trkpt lat="43.66094" lon="3.83668">
        <ele>77.49500032</ele>
        <time>2020-09-26T09:09:29.000Z</time>
      </trkpt>
      <trkpt lat="43.66097" lon="3.8367">
        <ele>77.59500032</ele>
        <time>2020-09-26T09:09:30.000Z</time>
      </trkpt>
      <trkpt lat="43.66099" lon="3.83672">
        <ele>77.69500032</ele>
        <time>2020-09-26T09:09:31.000Z</time>
      </trkpt>
      <trkpt lat="43.66101" lon="3.83674">
        <ele>77.79500032</ele>
        <time>2020-09-26T09:09:32.000Z</time>
      </trkpt>
      <trkpt lat="43.66104" lon="3.83677">
        <ele>77.89500032</ele>
        <time>2020-09-26T09:09:33.000Z</time>
      </trkpt>
      <trkpt lat="43.66107" lon="3.83679">
        <ele>77.99500032</ele>
        <time>2020-09-26T09:09:34.000Z</time>
      </trkpt>
      <trkpt lat="43.6611" lon="3.83682">
        <ele>78.09500032</ele>
        <time>2020-09-26T09:09:35.000Z</time>
      </trkpt>
      <trkpt lat="43.66113" lon="3.83685">
        <ele>78.19500032</ele>
        <time>2020-09-26T09:09:36.000Z</time>
      </trkpt>
      <trkpt lat="43.66116" lon="3.83687">
        <ele>78.29500032</ele>
        <time>2020-09-26T09:09:37.000Z</time>
      </trkpt>
      <trkpt lat="43.6612" lon="3.8369">
        <ele>78.39500032</ele>
        <time>2020-09-26T09:09:38.000Z</time>
      </trkpt>
      <trkpt lat="43.66123" lon="3.83693">
        <ele>78.49500032</ele>
        <time>2020-09-26T09:09:39.000Z</time>
      </trkpt>
      <trkpt lat="43.66125" lon="3.83697">
        <ele>78.59500032</ele>
        <time>2020-09-26T09:09:40.000Z</time>
      </trkpt>
      <trkpt lat="43.66128" lon="3.837">
        <ele>78.69500032</ele>
        <time>2020-09-26T09:09:41.000Z</time>
      </trkpt>
      <trkpt lat="43.66131" lon="3.83703">
        <ele>78.79500032</ele>
        <time>2020-09-26T09:09:42.000Z</time>
      </trkpt>
      <trkpt lat="43.66134" lon="3.83706">
        <ele>78.89500032</ele>
        <time>2020-09-26T09:09:43.000Z</time>
      </trkpt>
      <trkpt lat="43.66137" lon="3.83709">
        <ele>78.99500032</ele>
        <time>2020-09-26T09:09:44.000Z</time>
      </trkpt>
      <trkpt lat="43.6614" lon="3.83713">
        <ele>79</ele>
        <time>2020-09-26T09:09:45.000Z</time>
      </trkpt>
      <trkpt lat="43.66144" lon="3.83716">
        <ele>79</ele>
        <time>2020-09-26T09:09:46.000Z</time>
      </trkpt>
      <trkpt lat="43.66147" lon="3.83719">
        <ele>79</ele>
        <time>2020-09-26T09:09:47.000Z</time>
      </trkpt>
      <trkpt lat="43.6615" lon="3.83722">
        <ele>79</ele>
        <time>2020-09-26T09:09:48.000Z</time>
      </trkpt>
      <trkpt lat="43.66152" lon="3.83725">
        <ele>79</ele>
        <time>2020-09-26T09:09:49.000Z</time>
      </trkpt>
      <trkpt lat="43.66154" lon="3.83727">
        <ele>79</ele>
        <time>2020-09-26T09:09:50.000Z</time>
      </trkpt>
      <trkpt lat="43.66157" lon="3.8373">
        <ele>79</ele>
        <time>2020-09-26T09:09:51.000Z</time>
      </trkpt>
      <trkpt lat="43.66159" lon="3.83732">
        <ele>79</ele>
        <time>2020-09-26T09:09:52.000Z</time>
      </trkpt>
      <trkpt lat="43.66162" lon="3.83734">
        <ele>79</ele>
        <time>2020-09-26T09:09:53.000Z</time>
      </trkpt>
      <trkpt lat="43.66164" lon="3.83737">
        <ele>79</ele>
        <time>2020-09-26T09:09:54.000Z</time>
      </trkpt>
      <trkpt lat="43.66166" lon="3.83739">
        <ele>79</ele>
        <time>2020-09-26T09:09:55.000Z</time>
      </trkpt>
      <trkpt lat="43.66169" lon="3.8374">
        <ele>79</ele>
        <time>2020-09-26T09:09:56.000Z</time>
      </trkpt>
      <trkpt lat="43.66171" lon="3.83742">
        <ele>79</ele>
        <time>2020-09-26T09:09:57.000Z</time>
      </trkpt>
      <trkpt lat="43.66173" lon="3.83744">
        <ele>79</ele>
        <time>2020-09-26T09:09:58.000Z</time>
      </trkpt>
      <trkpt lat="43.66175" lon="3.83746">
        <ele>79</ele>
        <time>2020-09-26T09:09:59.000Z</time>
      </trkpt>
      <trkpt lat="43.66177" lon="3.83748">
        <ele>79</ele>
        <time>2020-09-26T09:10:00.000Z</time>
      </trkpt>
      <trkpt lat="43.66179" lon="3.8375">
        <ele>79</ele>
        <time>2020-09-26T09:10:01.000Z</time>
      </trkpt>
      <trkpt lat="43.66181" lon="3.83752">
        <ele>79</ele>
        <time>2020-09-26T09:10:02.000Z</time>
      </trkpt>
      <trkpt lat="43.66184" lon="3.83755">
        <ele>79</ele>
        <time>2020-09-26T09:10:03.000Z</time>
      </trkpt>
      <trkpt lat="43.66187" lon="3.83757">
        <ele>79</ele>
        <time>2020-09-26T09:10:04.000Z</time>
      </trkpt>
      <trkpt lat="43.66189" lon="3.83759">
        <ele>78.90499968</ele>
        <time>2020-09-26T09:10:05.000Z</time>
      </trkpt>
      <trkpt lat="43.66192" lon="3.83761">
        <ele>78.80499968</ele>
        <time>2020-09-26T09:10:06.000Z</time>
      </trkpt>
      <trkpt lat="43.66196" lon="3.83763">
        <ele>78.70499968</ele>
        <time>2020-09-26T09:10:07.000Z</time>
      </trkpt>
      <trkpt lat="43.66199" lon="3.83765">
        <ele>78.60499968</ele>
        <time>2020-09-26T09:10:08.000Z</time>
      </trkpt>
      <trkpt lat="43.66203" lon="3.83767">
        <ele>78.50499968</ele>
        <time>2020-09-26T09:10:09.000Z</time>
      </trkpt>
      <trkpt lat="43.66206" lon="3.83768">
        <ele>78.40499968</ele>
        <time>2020-09-26T09:10:10.000Z</time>
      </trkpt>
      <trkpt lat="43.6621" lon="3.8377">
        <ele>78.30499968</ele>
        <time>2020-09-26T09:10:11.000Z</time>
      </trkpt>
      <trkpt lat="43.66213" lon="3.83772">
        <ele>78.20499968</ele>
        <time>2020-09-26T09:10:12.000Z</time>
      </trkpt>
      <trkpt lat="43.66216" lon="3.83773">
        <ele>78.10499968</ele>
        <time>2020-09-26T09:10:13.000Z</time>
      </trkpt>
      <trkpt lat="43.6622" lon="3.83775">
        <ele>78.00499968</ele>
        <time>2020-09-26T09:10:14.000Z</time>
      </trkpt>
      <trkpt lat="43.66223" lon="3.83776">
        <ele>78</ele>
        <time>2020-09-26T09:10:15.000Z</time>
      </trkpt>
      <trkpt lat="43.66226" lon="3.83778">
        <ele>78</ele>
        <time>2020-09-26T09:10:16.000Z</time>
      </trkpt>
      <trkpt lat="43.66229" lon="3.83779">
        <ele>78</ele>
        <time>2020-09-26T09:10:17.000Z</time>
      </trkpt>
      <trkpt lat="43.66232" lon="3.8378">
        <ele>78</ele>
        <time>2020-09-26T09:10:18.000Z</time>
      </trkpt>
      <trkpt lat="43.66236" lon="3.83782">
        <ele>78</ele>
        <time>2020-09-26T09:10:19.000Z</time>
      </trkpt>
      <trkpt lat="43.66239" lon="3.83784">
        <ele>78</ele>
        <time>2020-09-26T09:10:20.000Z</time>
      </trkpt>
      <trkpt lat="43.66243" lon="3.83785">
        <ele>78</ele>
        <time>2020-09-26T09:10:21.000Z</time>
      </trkpt>
      <trkpt lat="43.66247" lon="3.83787">
        <ele>78</ele>
        <time>2020-09-26T09:10:22.000Z</time>
      </trkpt>
      <trkpt lat="43.6625" lon="3.83789">
        <ele>78</ele>
        <time>2020-09-26T09:10:23.000Z</time>
      </trkpt>
      <trkpt lat="43.66253" lon="3.83792">
        <ele>78</ele>
        <time>2020-09-26T09:10:24.000Z</time>
      </trkpt>
      <trkpt lat="43.66256" lon="3.83793">
        <ele>77.90499968</ele>
        <time>2020-09-26T09:10:25.000Z</time>
      </trkpt>
      <trkpt lat="43.66259" lon="3.83795">
        <ele>77.80499968</ele>
        <time>2020-09-26T09:10:26.000Z</time>
      </trkpt>
      <trkpt lat="43.66262" lon="3.83797">
        <ele>77.70499968</ele>
        <time>2020-09-26T09:10:27.000Z</time>
      </trkpt>
      <trkpt lat="43.66265" lon="3.83798">
        <ele>77.60499968</ele>
        <time>2020-09-26T09:10:28.000Z</time>
      </trkpt>
      <trkpt lat="43.66268" lon="3.838">
        <ele>77.50499968</ele>
        <time>2020-09-26T09:10:29.000Z</time>
      </trkpt>
      <trkpt lat="43.66271" lon="3.83801">
        <ele>77.40499968</ele>
        <time>2020-09-26T09:10:30.000Z</time>
      </trkpt>
      <trkpt lat="43.66273" lon="3.83802">
        <ele>77.30499968</ele>
        <time>2020-09-26T09:10:31.000Z</time>
      </trkpt>
      <trkpt lat="43.66276" lon="3.83804">
        <ele>77.20499968</ele>
        <time>2020-09-26T09:10:32.000Z</time>
      </trkpt>
      <trkpt lat="43.66279" lon="3.83805">
        <ele>77.10499968</ele>
        <time>2020-09-26T09:10:33.000Z</time>
      </trkpt>
      <trkpt lat="43.66282" lon="3.83806">
        <ele>77.00499968</ele>
        <time>2020-09-26T09:10:34.000Z</time>
      </trkpt>
      <trkpt lat="43.66284" lon="3.83807">
        <ele>76.906311380632</ele>
        <time>2020-09-26T09:10:35.000Z</time>
      </trkpt>
      <trkpt lat="43.66288" lon="3.83807">
        <ele>76.807692113488</ele>
        <time>2020-09-26T09:10:36.000Z</time>
      </trkpt>
      <trkpt lat="43.66291" lon="3.83809">
        <ele>76.709072846345</ele>
        <time>2020-09-26T09:10:37.000Z</time>
      </trkpt>
      <trkpt lat="43.66294" lon="3.8381">
        <ele>76.610453579201</ele>
        <time>2020-09-26T09:10:38.000Z</time>
      </trkpt>
      <trkpt lat="43.66297" lon="3.83812">
        <ele>76.511834312057</ele>
        <time>2020-09-26T09:10:39.000Z</time>
      </trkpt>
      <trkpt lat="43.663" lon="3.83814">
        <ele>76.413215044914</ele>
        <time>2020-09-26T09:10:40.000Z</time>
      </trkpt>
      <trkpt lat="43.66302" lon="3.83815">
        <ele>76.31459577777</ele>
        <time>2020-09-26T09:10:41.000Z</time>
      </trkpt>
      <trkpt lat="43.66305" lon="3.83817">
        <ele>76.215976510626</ele>
        <time>2020-09-26T09:10:42.000Z</time>
      </trkpt>
      <trkpt lat="43.66308" lon="3.83819">
        <ele>76.117357243483</ele>
        <time>2020-09-26T09:10:43.000Z</time>
      </trkpt>
      <trkpt lat="43.66311" lon="3.83821">
        <ele>76.018737976339</ele>
        <time>2020-09-26T09:10:44.000Z</time>
      </trkpt>
      <trkpt lat="43.66313" lon="3.83823">
        <ele>75.917850169801</ele>
        <time>2020-09-26T09:10:45.000Z</time>
      </trkpt>
      <trkpt lat="43.66315" lon="3.83825">
        <ele>75.816430225675</ele>
        <time>2020-09-26T09:10:46.000Z</time>
      </trkpt>
      <trkpt lat="43.66318" lon="3.83826">
        <ele>75.715010281548</ele>
        <time>2020-09-26T09:10:47.000Z</time>
      </trkpt>
      <trkpt lat="43.6632" lon="3.83827">
        <ele>75.613590337422</ele>
        <time>2020-09-26T09:10:48.000Z</time>
      </trkpt>
      <trkpt lat="43.66322" lon="3.83829">
        <ele>75.512170393295</ele>
        <time>2020-09-26T09:10:49.000Z</time>
      </trkpt>
      <trkpt lat="43.66324" lon="3.83832">
        <ele>75.309330505042</ele>
        <time>2020-09-26T09:10:51.000Z</time>
      </trkpt>
      <trkpt lat="43.66326" lon="3.83835">
        <ele>75.106490616789</ele>
        <time>2020-09-26T09:10:53.000Z</time>
      </trkpt>
      <trkpt lat="43.66327" lon="3.8384">
        <ele>74.90499968</ele>
        <time>2020-09-26T09:10:55.000Z</time>
      </trkpt>
      <trkpt lat="43.66329" lon="3.83842">
        <ele>74.80499968</ele>
        <time>2020-09-26T09:10:56.000Z</time>
      </trkpt>
      <trkpt lat="43.6633" lon="3.83845">
        <ele>74.70499968</ele>
        <time>2020-09-26T09:10:57.000Z</time>
      </trkpt>
      <trkpt lat="43.66333" lon="3.83848">
        <ele>74.60499968</ele>
        <time>2020-09-26T09:10:58.000Z</time>
      </trkpt>
      <trkpt lat="43.66335" lon="3.83851">
        <ele>74.50499968</ele>
        <time>2020-09-26T09:10:59.000Z</time>
      </trkpt>
      <trkpt lat="43.66337" lon="3.83855">
        <ele>74.40499968</ele>
        <time>2020-09-26T09:11:00.000Z</time>
      </trkpt>
      <trkpt lat="43.66339" lon="3.8386">
        <ele>74.30499968</ele>
        <time>2020-09-26T09:11:01.000Z</time>
      </trkpt>
      <trkpt lat="43.6634" lon="3.83864">
        <ele>74.20499968</ele>
        <time>2020-09-26T09:11:02.000Z</time>
      </trkpt>
      <trkpt lat="43.66341" lon="3.83868">
        <ele>74.10499968</ele>
        <time>2020-09-26T09:11:03.000Z</time>
      </trkpt>
      <trkpt lat="43.66341" lon="3.83873">
        <ele>74.00499968</ele>
        <time>2020-09-26T09:11:04.000Z</time>
      </trkpt>
      <trkpt lat="43.66342" lon="3.83876">
        <ele>73.90499968</ele>
        <time>2020-09-26T09:11:05.000Z</time>
      </trkpt>
      <trkpt lat="43.66342" lon="3.8388">
        <ele>73.80499968</ele>
        <time>2020-09-26T09:11:06.000Z</time>
      </trkpt>
      <trkpt lat="43.66341" lon="3.83883">
        <ele>73.70499968</ele>
        <time>2020-09-26T09:11:07.000Z</time>
      </trkpt>
      <trkpt lat="43.66341" lon="3.83886">
        <ele>73.60499968</ele>
        <time>2020-09-26T09:11:08.000Z</time>
      </trkpt>
      <trkpt lat="43.66341" lon="3.8389">
        <ele>73.50499968</ele>
        <time>2020-09-26T09:11:09.000Z</time>
      </trkpt>
      <trkpt lat="43.6634" lon="3.83893">
        <ele>73.40499968</ele>
        <time>2020-09-26T09:11:10.000Z</time>
      </trkpt>
      <trkpt lat="43.6634" lon="3.83897">
        <ele>73.30499968</ele>
        <time>2020-09-26T09:11:11.000Z</time>
      </trkpt>
      <trkpt lat="43.66341" lon="3.83901">
        <ele>73.20499968</ele>
        <time>2020-09-26T09:11:12.000Z</time>
      </trkpt>
      <trkpt lat="43.66341" lon="3.83905">
        <ele>73.00499968</ele>
        <time>2020-09-26T09:11:14.000Z</time>
      </trkpt>
      <trkpt lat="43.6634" lon="3.83909">
        <ele>72.80499968</ele>
        <time>2020-09-26T09:11:16.000Z</time>
      </trkpt>
      <trkpt lat="43.66338" lon="3.83912">
        <ele>72.60499968</ele>
        <time>2020-09-26T09:11:18.000Z</time>
      </trkpt>
      <trkpt lat="43.66337" lon="3.83915">
        <ele>72.40499968</ele>
        <time>2020-09-26T09:11:20.000Z</time>
      </trkpt>
      <trkpt lat="43.66337" lon="3.83918">
        <ele>71.866759898893</ele>
        <time>2020-09-26T09:11:25.000Z</time>
      </trkpt>
      <trkpt lat="43.66337" lon="3.83917">
        <ele>71.025246305419</ele>
        <time>2020-09-26T09:11:31.000Z</time>
      </trkpt>
      <trkpt lat="43.66341" lon="3.83922">
        <ele>70.021385638554</ele>
        <time>2020-09-26T09:12:04.000Z</time>
      </trkpt>
      <trkpt lat="43.66343" lon="3.83919">
        <ele>70</ele>
        <time>2020-09-26T09:12:06.000Z</time>
      </trkpt>
      <trkpt lat="43.66343" lon="3.83917">
        <ele>70</ele>
        <time>2020-09-26T09:12:08.000Z</time>
      </trkpt>
      <trkpt lat="43.6634" lon="3.83917">
        <ele>70</ele>
        <time>2020-09-26T09:12:11.000Z</time>
      </trkpt>
      <trkpt lat="43.66339" lon="3.83915">
        <ele>70</ele>
        <time>2020-09-26T09:12:13.000Z</time>
      </trkpt>
      <trkpt lat="43.66341" lon="3.83912">
        <ele>70</ele>
        <time>2020-09-26T09:12:15.000Z</time>
      </trkpt>
      <trkpt lat="43.66343" lon="3.83912">
        <ele>70</ele>
        <time>2020-09-26T09:12:17.000Z</time>
      </trkpt>
      <trkpt lat="43.66345" lon="3.83912">
        <ele>70</ele>
        <time>2020-09-26T09:12:19.000Z</time>
      </trkpt>
      <trkpt lat="43.66345" lon="3.83915">
        <ele>70</ele>
        <time>2020-09-26T09:12:21.000Z</time>
      </trkpt>
      <trkpt lat="43.66343" lon="3.83915">
        <ele>70</ele>
        <time>2020-09-26T09:12:22.000Z</time>
      </trkpt>
      <trkpt lat="43.66341" lon="3.83915">
        <ele>70</ele>
        <time>2020-09-26T09:12:23.000Z</time>
      </trkpt>
      <trkpt lat="43.66339" lon="3.83917">
        <ele>69.93106962963</ele>
        <time>2020-09-26T09:12:25.000Z</time>
      </trkpt>
      <trkpt lat="43.66339" lon="3.83919">
        <ele>69.828188971193</ele>
        <time>2020-09-26T09:12:26.000Z</time>
      </trkpt>
      <trkpt lat="43.66342" lon="3.83919">
        <ele>69.622427654321</ele>
        <time>2020-09-26T09:12:28.000Z</time>
      </trkpt>
      <trkpt lat="43.66341" lon="3.83915">
        <ele>69.416666337449</ele>
        <time>2020-09-26T09:12:30.000Z</time>
      </trkpt>
      <trkpt lat="43.66342" lon="3.83912">
        <ele>69.313785679012</ele>
        <time>2020-09-26T09:12:31.000Z</time>
      </trkpt>
      <trkpt lat="43.66344" lon="3.83913">
        <ele>69.10802436214</ele>
        <time>2020-09-26T09:12:33.000Z</time>
      </trkpt>
      <trkpt lat="43.66342" lon="3.83917">
        <ele>69</ele>
        <time>2020-09-26T09:12:35.000Z</time>
      </trkpt>
      <trkpt lat="43.66344" lon="3.83919">
        <ele>69</ele>
        <time>2020-09-26T09:12:37.000Z</time>
      </trkpt>
      <trkpt lat="43.66345" lon="3.83915">
        <ele>69</ele>
        <time>2020-09-26T09:12:39.000Z</time>
      </trkpt>
      <trkpt lat="43.66342" lon="3.83913">
        <ele>69</ele>
        <time>2020-09-26T09:12:41.000Z</time>
      </trkpt>
      <trkpt lat="43.6634" lon="3.83914">
        <ele>69</ele>
        <time>2020-09-26T09:12:43.000Z</time>
      </trkpt>
      <trkpt lat="43.66342" lon="3.83917">
        <ele>68.780600209293</ele>
        <time>2020-09-26T09:12:45.000Z</time>
      </trkpt>
      <trkpt lat="43.66341" lon="3.83921">
        <ele>68.318707468917</ele>
        <time>2020-09-26T09:12:47.000Z</time>
      </trkpt>
      <trkpt lat="43.66339" lon="3.8392">
        <ele>68.087761098728</ele>
        <time>2020-09-26T09:12:48.000Z</time>
      </trkpt>
      <trkpt lat="43.66338" lon="3.83918">
        <ele>68.10934649907</ele>
        <time>2020-09-26T09:12:49.000Z</time>
      </trkpt>
      <trkpt lat="43.66341" lon="3.83915">
        <ele>68.462080782359</ele>
        <time>2020-09-26T09:12:51.000Z</time>
      </trkpt>
      <trkpt lat="43.66342" lon="3.83913">
        <ele>68.814815065648</ele>
        <time>2020-09-26T09:12:53.000Z</time>
      </trkpt>
      <trkpt lat="43.6634" lon="3.83914">
        <ele>69</ele>
        <time>2020-09-26T09:12:55.000Z</time>
      </trkpt>
      <trkpt lat="43.66341" lon="3.83918">
        <ele>69</ele>
        <time>2020-09-26T09:12:57.000Z</time>
      </trkpt>
      <trkpt lat="43.6634" lon="3.83921">
        <ele>69</ele>
        <time>2020-09-26T09:12:58.000Z</time>
      </trkpt>
      <trkpt lat="43.66338" lon="3.83921">
        <ele>69</ele>
        <time>2020-09-26T09:12:59.000Z</time>
      </trkpt>
      <trkpt lat="43.66337" lon="3.83919">
        <ele>69</ele>
        <time>2020-09-26T09:13:00.000Z</time>
      </trkpt>
      <trkpt lat="43.66337" lon="3.83916">
        <ele>69</ele>
        <time>2020-09-26T09:13:01.000Z</time>
      </trkpt>
      <trkpt lat="43.66338" lon="3.83915">
        <ele>69</ele>
        <time>2020-09-26T09:13:02.000Z</time>
      </trkpt>
      <trkpt lat="43.6634" lon="3.83917">
        <ele>69</ele>
        <time>2020-09-26T09:13:04.000Z</time>
      </trkpt>
      <trkpt lat="43.66343" lon="3.83919">
        <ele>69</ele>
        <time>2020-09-26T09:13:06.000Z</time>
      </trkpt>
      <trkpt lat="43.66342" lon="3.83914">
        <ele>69</ele>
        <time>2020-09-26T09:13:09.000Z</time>
      </trkpt>
      <trkpt lat="43.66344" lon="3.83912">
        <ele>69</ele>
        <time>2020-09-26T09:13:11.000Z</time>
      </trkpt>
      <trkpt lat="43.66344" lon="3.83915">
        <ele>69</ele>
        <time>2020-09-26T09:13:13.000Z</time>
      </trkpt>
      <trkpt lat="43.66345" lon="3.83918">
        <ele>68.90499968</ele>
        <time>2020-09-26T09:13:15.000Z</time>
      </trkpt>
      <trkpt lat="43.66348" lon="3.83917">
        <ele>68.70499968</ele>
        <time>2020-09-26T09:13:17.000Z</time>
      </trkpt>
      <trkpt lat="43.66347" lon="3.83914">
        <ele>68.50499968</ele>
        <time>2020-09-26T09:13:19.000Z</time>
      </trkpt>
      <trkpt lat="43.66343" lon="3.83913">
        <ele>68.30499968</ele>
        <time>2020-09-26T09:13:21.000Z</time>
      </trkpt>
      <trkpt lat="43.66341" lon="3.83913">
        <ele>68.10499968</ele>
        <time>2020-09-26T09:13:23.000Z</time>
      </trkpt>
      <trkpt lat="43.66338" lon="3.83914">
        <ele>68</ele>
        <time>2020-09-26T09:13:25.000Z</time>
      </trkpt>
      <trkpt lat="43.66338" lon="3.83914">
        <ele>68</ele>
        <time>2020-09-26T09:13:31.000Z</time>
      </trkpt>
      <trkpt lat="43.66342" lon="3.83919">
        <ele>68</ele>
        <time>2020-09-26T09:13:40.000Z</time>
      </trkpt>
      <trkpt lat="43.66344" lon="3.83919">
        <ele>68</ele>
        <time>2020-09-26T09:13:41.000Z</time>
      </trkpt>
      <trkpt lat="43.66346" lon="3.83918">
        <ele>68</ele>
        <time>2020-09-26T09:13:42.000Z</time>
      </trkpt>
      <trkpt lat="43.66349" lon="3.83917">
        <ele>68</ele>
        <time>2020-09-26T09:13:43.000Z</time>
      </trkpt>
      <trkpt lat="43.66351" lon="3.83916">
        <ele>68</ele>
        <time>2020-09-26T09:13:44.000Z</time>
      </trkpt>
      <trkpt lat="43.66353" lon="3.83914">
        <ele>68</ele>
        <time>2020-09-26T09:13:45.000Z</time>
      </trkpt>
      <trkpt lat="43.66356" lon="3.83913">
        <ele>68</ele>
        <time>2020-09-26T09:13:46.000Z</time>
      </trkpt>
      <trkpt lat="43.66358" lon="3.83912">
        <ele>68</ele>
        <time>2020-09-26T09:13:47.000Z</time>
      </trkpt>
      <trkpt lat="43.6636" lon="3.8391">
        <ele>68</ele>
        <time>2020-09-26T09:13:48.000Z</time>
      </trkpt>
      <trkpt lat="43.66362" lon="3.83909">
        <ele>68</ele>
        <time>2020-09-26T09:13:49.000Z</time>
      </trkpt>
      <trkpt lat="43.66364" lon="3.83907">
        <ele>68</ele>
        <time>2020-09-26T09:13:50.000Z</time>
      </trkpt>
      <trkpt lat="43.66366" lon="3.83906">
        <ele>68.184825525292</ele>
        <time>2020-09-26T09:13:51.000Z</time>
      </trkpt>
      <trkpt lat="43.66368" lon="3.83904">
        <ele>68.379378054475</ele>
        <time>2020-09-26T09:13:52.000Z</time>
      </trkpt>
      <trkpt lat="43.66371" lon="3.83902">
        <ele>68.573930583658</ele>
        <time>2020-09-26T09:13:53.000Z</time>
      </trkpt>
      <trkpt lat="43.66373" lon="3.839">
        <ele>68.76848311284</ele>
        <time>2020-09-26T09:13:54.000Z</time>
      </trkpt>
      <trkpt lat="43.66375" lon="3.83898">
        <ele>68.963035642023</ele>
        <time>2020-09-26T09:13:55.000Z</time>
      </trkpt>
      <trkpt lat="43.66378" lon="3.83897">
        <ele>69.157588171206</ele>
        <time>2020-09-26T09:13:56.000Z</time>
      </trkpt>
      <trkpt lat="43.6638" lon="3.83895">
        <ele>69.352140700389</ele>
        <time>2020-09-26T09:13:57.000Z</time>
      </trkpt>
      <trkpt lat="43.66382" lon="3.83893">
        <ele>69.546693229572</ele>
        <time>2020-09-26T09:13:58.000Z</time>
      </trkpt>
      <trkpt lat="43.66384" lon="3.83891">
        <ele>69.741245758755</ele>
        <time>2020-09-26T09:13:59.000Z</time>
      </trkpt>
      <trkpt lat="43.66386" lon="3.8389">
        <ele>69.935798287938</ele>
        <time>2020-09-26T09:14:00.000Z</time>
      </trkpt>
      <trkpt lat="43.66387" lon="3.83888">
        <ele>70.06893037037</ele>
        <time>2020-09-26T09:14:01.000Z</time>
      </trkpt>
      <trkpt lat="43.66389" lon="3.83887">
        <ele>70.171811028807</ele>
        <time>2020-09-26T09:14:02.000Z</time>
      </trkpt>
      <trkpt lat="43.66392" lon="3.83886">
        <ele>70.377572345679</ele>
        <time>2020-09-26T09:14:04.000Z</time>
      </trkpt>
      <trkpt lat="43.66395" lon="3.83887">
        <ele>70.583333662551</ele>
        <time>2020-09-26T09:14:06.000Z</time>
      </trkpt>
      <trkpt lat="43.66397" lon="3.83891">
        <ele>70.789094979424</ele>
        <time>2020-09-26T09:14:08.000Z</time>
      </trkpt>
      <trkpt lat="43.66397" lon="3.83895">
        <ele>70.994856296296</ele>
        <time>2020-09-26T09:14:10.000Z</time>
      </trkpt>
      <trkpt lat="43.66398" lon="3.83898">
        <ele>71</ele>
        <time>2020-09-26T09:14:11.000Z</time>
      </trkpt>
      <trkpt lat="43.66399" lon="3.83901">
        <ele>71</ele>
        <time>2020-09-26T09:14:12.000Z</time>
      </trkpt>
      <trkpt lat="43.66401" lon="3.83902">
        <ele>71</ele>
        <time>2020-09-26T09:14:13.000Z</time>
      </trkpt>
      <trkpt lat="43.66404" lon="3.83904">
        <ele>71</ele>
        <time>2020-09-26T09:14:14.000Z</time>
      </trkpt>
      <trkpt lat="43.66407" lon="3.83905">
        <ele>71</ele>
        <time>2020-09-26T09:14:15.000Z</time>
      </trkpt>
      <trkpt lat="43.66411" lon="3.83907">
        <ele>71</ele>
        <time>2020-09-26T09:14:16.000Z</time>
      </trkpt>
      <trkpt lat="43.66414" lon="3.83909">
        <ele>71</ele>
        <time>2020-09-26T09:14:17.000Z</time>
      </trkpt>
      <trkpt lat="43.66418" lon="3.83911">
        <ele>71</ele>
        <time>2020-09-26T09:14:18.000Z</time>
      </trkpt>
      <trkpt lat="43.66421" lon="3.83913">
        <ele>71</ele>
        <time>2020-09-26T09:14:19.000Z</time>
      </trkpt>
      <trkpt lat="43.66425" lon="3.83914">
        <ele>71</ele>
        <time>2020-09-26T09:14:20.000Z</time>
      </trkpt>
      <trkpt lat="43.66429" lon="3.83915">
        <ele>71</ele>
        <time>2020-09-26T09:14:21.000Z</time>
      </trkpt>
      <trkpt lat="43.66433" lon="3.83917">
        <ele>71</ele>
        <time>2020-09-26T09:14:22.000Z</time>
      </trkpt>
      <trkpt lat="43.66437" lon="3.83918">
        <ele>71</ele>
        <time>2020-09-26T09:14:23.000Z</time>
      </trkpt>
      <trkpt lat="43.66441" lon="3.8392">
        <ele>71</ele>
        <time>2020-09-26T09:14:24.000Z</time>
      </trkpt>
      <trkpt lat="43.66445" lon="3.83922">
        <ele>71</ele>
        <time>2020-09-26T09:14:25.000Z</time>
      </trkpt>
      <trkpt lat="43.66448" lon="3.83924">
        <ele>71</ele>
        <time>2020-09-26T09:14:26.000Z</time>
      </trkpt>
      <trkpt lat="43.66451" lon="3.83926">
        <ele>71</ele>
        <time>2020-09-26T09:14:27.000Z</time>
      </trkpt>
      <trkpt lat="43.66454" lon="3.83927">
        <ele>71</ele>
        <time>2020-09-26T09:14:28.000Z</time>
      </trkpt>
      <trkpt lat="43.66457" lon="3.83929">
        <ele>71</ele>
        <time>2020-09-26T09:14:29.000Z</time>
      </trkpt>
      <trkpt lat="43.6646" lon="3.83931">
        <ele>71</ele>
        <time>2020-09-26T09:14:30.000Z</time>
      </trkpt>
      <trkpt lat="43.66463" lon="3.83932">
        <ele>71</ele>
        <time>2020-09-26T09:14:31.000Z</time>
      </trkpt>
      <trkpt lat="43.66466" lon="3.83934">
        <ele>71</ele>
        <time>2020-09-26T09:14:32.000Z</time>
      </trkpt>
      <trkpt lat="43.66469" lon="3.83936">
        <ele>71</ele>
        <time>2020-09-26T09:14:33.000Z</time>
      </trkpt>
      <trkpt lat="43.66472" lon="3.83937">
        <ele>71</ele>
        <time>2020-09-26T09:14:34.000Z</time>
      </trkpt>
      <trkpt lat="43.66475" lon="3.83939">
        <ele>71</ele>
        <time>2020-09-26T09:14:35.000Z</time>
      </trkpt>
      <trkpt lat="43.66478" lon="3.83941">
        <ele>71</ele>
        <time>2020-09-26T09:14:36.000Z</time>
      </trkpt>
      <trkpt lat="43.66481" lon="3.83942">
        <ele>71</ele>
        <time>2020-09-26T09:14:37.000Z</time>
      </trkpt>
      <trkpt lat="43.66484" lon="3.83944">
        <ele>71</ele>
        <time>2020-09-26T09:14:38.000Z</time>
      </trkpt>
      <trkpt lat="43.66487" lon="3.83946">
        <ele>71</ele>
        <time>2020-09-26T09:14:39.000Z</time>
      </trkpt>
      <trkpt lat="43.6649" lon="3.83947">
        <ele>71</ele>
        <time>2020-09-26T09:14:40.000Z</time>
      </trkpt>
      <trkpt lat="43.66493" lon="3.83949">
        <ele>71</ele>
        <time>2020-09-26T09:14:41.000Z</time>
      </trkpt>
      <trkpt lat="43.66496" lon="3.83951">
        <ele>71</ele>
        <time>2020-09-26T09:14:42.000Z</time>
      </trkpt>
      <trkpt lat="43.66499" lon="3.83953">
        <ele>71</ele>
        <time>2020-09-26T09:14:43.000Z</time>
      </trkpt>
      <trkpt lat="43.66503" lon="3.83955">
        <ele>71</ele>
        <time>2020-09-26T09:14:44.000Z</time>
      </trkpt>
      <trkpt lat="43.66506" lon="3.83957">
        <ele>71</ele>
        <time>2020-09-26T09:14:45.000Z</time>
      </trkpt>
      <trkpt lat="43.66509" lon="3.83958">
        <ele>71</ele>
        <time>2020-09-26T09:14:46.000Z</time>
      </trkpt>
      <trkpt lat="43.66512" lon="3.83958">
        <ele>71</ele>
        <time>2020-09-26T09:14:47.000Z</time>
      </trkpt>
      <trkpt lat="43.66515" lon="3.83959">
        <ele>71</ele>
        <time>2020-09-26T09:14:48.000Z</time>
      </trkpt>
      <trkpt lat="43.66518" lon="3.83959">
        <ele>71</ele>
        <time>2020-09-26T09:14:49.000Z</time>
      </trkpt>
      <trkpt lat="43.6652" lon="3.8396">
        <ele>71</ele>
        <time>2020-09-26T09:14:50.000Z</time>
      </trkpt>
      <trkpt lat="43.66523" lon="3.83961">
        <ele>70.932028199538</ele>
        <time>2020-09-26T09:14:51.000Z</time>
      </trkpt>
      <trkpt lat="43.66526" lon="3.83962">
        <ele>70.829041621737</ele>
        <time>2020-09-26T09:14:52.000Z</time>
      </trkpt>
      <trkpt lat="43.66528" lon="3.83963">
        <ele>70.726055043936</ele>
        <time>2020-09-26T09:14:53.000Z</time>
      </trkpt>
      <trkpt lat="43.6653" lon="3.83965">
        <ele>70.623068466136</ele>
        <time>2020-09-26T09:14:54.000Z</time>
      </trkpt>
      <trkpt lat="43.66533" lon="3.83966">
        <ele>70.520081888335</ele>
        <time>2020-09-26T09:14:55.000Z</time>
      </trkpt>
      <trkpt lat="43.66535" lon="3.83968">
        <ele>70.417095310535</ele>
        <time>2020-09-26T09:14:56.000Z</time>
      </trkpt>
      <trkpt lat="43.66537" lon="3.83969">
        <ele>70.314108732734</ele>
        <time>2020-09-26T09:14:57.000Z</time>
      </trkpt>
      <trkpt lat="43.6654" lon="3.8397">
        <ele>70.108135577133</ele>
        <time>2020-09-26T09:14:59.000Z</time>
      </trkpt>
      <trkpt lat="43.66542" lon="3.83971">
        <ele>70.005148999333</ele>
        <time>2020-09-26T09:15:00.000Z</time>
      </trkpt>
      <trkpt lat="43.66544" lon="3.83972">
        <ele>70.09500032</ele>
        <time>2020-09-26T09:15:01.000Z</time>
      </trkpt>
      <trkpt lat="43.66546" lon="3.83972">
        <ele>70.19500032</ele>
        <time>2020-09-26T09:15:02.000Z</time>
      </trkpt>
      <trkpt lat="43.66549" lon="3.83974">
        <ele>70.29500032</ele>
        <time>2020-09-26T09:15:03.000Z</time>
      </trkpt>
      <trkpt lat="43.66551" lon="3.83975">
        <ele>70.39500032</ele>
        <time>2020-09-26T09:15:04.000Z</time>
      </trkpt>
      <trkpt lat="43.66553" lon="3.83976">
        <ele>70.49500032</ele>
        <time>2020-09-26T09:15:05.000Z</time>
      </trkpt>
      <trkpt lat="43.66555" lon="3.83977">
        <ele>70.59500032</ele>
        <time>2020-09-26T09:15:06.000Z</time>
      </trkpt>
      <trkpt lat="43.66557" lon="3.83976">
        <ele>70.69500032</ele>
        <time>2020-09-26T09:15:07.000Z</time>
      </trkpt>
      <trkpt lat="43.6656" lon="3.83976">
        <ele>70.79500032</ele>
        <time>2020-09-26T09:15:08.000Z</time>
      </trkpt>
      <trkpt lat="43.66562" lon="3.83976">
        <ele>70.89500032</ele>
        <time>2020-09-26T09:15:09.000Z</time>
      </trkpt>
      <trkpt lat="43.66564" lon="3.83975">
        <ele>70.99500032</ele>
        <time>2020-09-26T09:15:10.000Z</time>
      </trkpt>
      <trkpt lat="43.66567" lon="3.83974">
        <ele>71.09500032</ele>
        <time>2020-09-26T09:15:11.000Z</time>
      </trkpt>
      <trkpt lat="43.66569" lon="3.83973">
        <ele>71.19500032</ele>
        <time>2020-09-26T09:15:12.000Z</time>
      </trkpt>
      <trkpt lat="43.66571" lon="3.83973">
        <ele>71.29500032</ele>
        <time>2020-09-26T09:15:13.000Z</time>
      </trkpt>
      <trkpt lat="43.66573" lon="3.83974">
        <ele>71.39500032</ele>
        <time>2020-09-26T09:15:14.000Z</time>
      </trkpt>
      <trkpt lat="43.66575" lon="3.83975">
        <ele>71.49500032</ele>
        <time>2020-09-26T09:15:15.000Z</time>
      </trkpt>
      <trkpt lat="43.66578" lon="3.83977">
        <ele>71.59500032</ele>
        <time>2020-09-26T09:15:16.000Z</time>
      </trkpt>
      <trkpt lat="43.6658" lon="3.83978">
        <ele>71.69500032</ele>
        <time>2020-09-26T09:15:17.000Z</time>
      </trkpt>
      <trkpt lat="43.66582" lon="3.83979">
        <ele>71.79500032</ele>
        <time>2020-09-26T09:15:18.000Z</time>
      </trkpt>
      <trkpt lat="43.66584" lon="3.8398">
        <ele>71.89500032</ele>
        <time>2020-09-26T09:15:19.000Z</time>
      </trkpt>
      <trkpt lat="43.66586" lon="3.83982">
        <ele>71.99500032</ele>
        <time>2020-09-26T09:15:20.000Z</time>
      </trkpt>
      <trkpt lat="43.66588" lon="3.83983">
        <ele>72</ele>
        <time>2020-09-26T09:15:21.000Z</time>
      </trkpt>
      <trkpt lat="43.6659" lon="3.83985">
        <ele>72</ele>
        <time>2020-09-26T09:15:22.000Z</time>
      </trkpt>
      <trkpt lat="43.66592" lon="3.83987">
        <ele>72</ele>
        <time>2020-09-26T09:15:23.000Z</time>
      </trkpt>
      <trkpt lat="43.66593" lon="3.83989">
        <ele>72</ele>
        <time>2020-09-26T09:15:24.000Z</time>
      </trkpt>
      <trkpt lat="43.66595" lon="3.83992">
        <ele>72</ele>
        <time>2020-09-26T09:15:25.000Z</time>
      </trkpt>
      <trkpt lat="43.66596" lon="3.83995">
        <ele>72</ele>
        <time>2020-09-26T09:15:26.000Z</time>
      </trkpt>
      <trkpt lat="43.66597" lon="3.83998">
        <ele>72</ele>
        <time>2020-09-26T09:15:28.000Z</time>
      </trkpt>
      <trkpt lat="43.666" lon="3.84001">
        <ele>72</ele>
        <time>2020-09-26T09:15:30.000Z</time>
      </trkpt>
      <trkpt lat="43.66602" lon="3.84002">
        <ele>72</ele>
        <time>2020-09-26T09:15:31.000Z</time>
      </trkpt>
      <trkpt lat="43.66604" lon="3.84005">
        <ele>72</ele>
        <time>2020-09-26T09:15:33.000Z</time>
      </trkpt>
      <trkpt lat="43.66606" lon="3.84006">
        <ele>72</ele>
        <time>2020-09-26T09:15:35.000Z</time>
      </trkpt>
      <trkpt lat="43.66609" lon="3.84008">
        <ele>72</ele>
        <time>2020-09-26T09:15:37.000Z</time>
      </trkpt>
      <trkpt lat="43.6661" lon="3.84008">
        <ele>72</ele>
        <time>2020-09-26T09:15:43.000Z</time>
      </trkpt>
      <trkpt lat="43.66608" lon="3.84016">
        <ele>72</ele>
        <time>2020-09-26T09:16:10.000Z</time>
      </trkpt>
      <trkpt lat="43.66608" lon="3.84019">
        <ele>72</ele>
        <time>2020-09-26T09:16:12.000Z</time>
      </trkpt>
      <trkpt lat="43.66608" lon="3.84021">
        <ele>72</ele>
        <time>2020-09-26T09:16:15.000Z</time>
      </trkpt>
      <trkpt lat="43.66609" lon="3.84024">
        <ele>72</ele>
        <time>2020-09-26T09:16:19.000Z</time>
      </trkpt>
      <trkpt lat="43.66611" lon="3.84026">
        <ele>72</ele>
        <time>2020-09-26T09:16:23.000Z</time>
      </trkpt>
      <trkpt lat="43.66613" lon="3.84026">
        <ele>72</ele>
        <time>2020-09-26T09:16:25.000Z</time>
      </trkpt>
      <trkpt lat="43.66616" lon="3.84026">
        <ele>72</ele>
        <time>2020-09-26T09:16:27.000Z</time>
      </trkpt>
      <trkpt lat="43.66617" lon="3.84026">
        <ele>72</ele>
        <time>2020-09-26T09:16:34.000Z</time>
      </trkpt>
      <trkpt lat="43.66622" lon="3.84041">
        <ele>72</ele>
        <time>2020-09-26T09:17:02.000Z</time>
      </trkpt>
      <trkpt lat="43.66623" lon="3.84044">
        <ele>71.922528007349</ele>
        <time>2020-09-26T09:17:03.000Z</time>
      </trkpt>
      <trkpt lat="43.66624" lon="3.84047">
        <ele>71.820591174912</ele>
        <time>2020-09-26T09:17:04.000Z</time>
      </trkpt>
      <trkpt lat="43.66625" lon="3.8405">
        <ele>71.718654342476</ele>
        <time>2020-09-26T09:17:05.000Z</time>
      </trkpt>
      <trkpt lat="43.66625" lon="3.84053">
        <ele>71.61671751004</ele>
        <time>2020-09-26T09:17:06.000Z</time>
      </trkpt>
      <trkpt lat="43.66626" lon="3.84056">
        <ele>71.514780677604</ele>
        <time>2020-09-26T09:17:07.000Z</time>
      </trkpt>
      <trkpt lat="43.66627" lon="3.84058">
        <ele>71.412843845168</ele>
        <time>2020-09-26T09:17:08.000Z</time>
      </trkpt>
      <trkpt lat="43.66628" lon="3.84061">
        <ele>71.310907012732</ele>
        <time>2020-09-26T09:17:09.000Z</time>
      </trkpt>
      <trkpt lat="43.66629" lon="3.84063">
        <ele>71.208970180296</ele>
        <time>2020-09-26T09:17:10.000Z</time>
      </trkpt>
      <trkpt lat="43.66631" lon="3.84066">
        <ele>71.10703334786</ele>
        <time>2020-09-26T09:17:11.000Z</time>
      </trkpt>
      <trkpt lat="43.66632" lon="3.84068">
        <ele>71.005096515424</ele>
        <time>2020-09-26T09:17:12.000Z</time>
      </trkpt>
      <trkpt lat="43.66633" lon="3.8407">
        <ele>71</ele>
        <time>2020-09-26T09:17:13.000Z</time>
      </trkpt>
      <trkpt lat="43.66634" lon="3.84072">
        <ele>71</ele>
        <time>2020-09-26T09:17:14.000Z</time>
      </trkpt>
      <trkpt lat="43.66636" lon="3.84075">
        <ele>71</ele>
        <time>2020-09-26T09:17:16.000Z</time>
      </trkpt>
      <trkpt lat="43.66636" lon="3.84075">
        <ele>71</ele>
        <time>2020-09-26T09:17:21.000Z</time>
      </trkpt>
      <trkpt lat="43.66639" lon="3.8408">
        <ele>70.047917333333</ele>
        <time>2020-09-26T09:17:26.000Z</time>
      </trkpt>
      <trkpt lat="43.66641" lon="3.84082">
        <ele>69.820591174912</ele>
        <time>2020-09-26T09:17:28.000Z</time>
      </trkpt>
      <trkpt lat="43.66642" lon="3.84085">
        <ele>69.61671751004</ele>
        <time>2020-09-26T09:17:30.000Z</time>
      </trkpt>
      <trkpt lat="43.66644" lon="3.84087">
        <ele>69.412843845168</ele>
        <time>2020-09-26T09:17:32.000Z</time>
      </trkpt>
      <trkpt lat="43.66644" lon="3.84087">
        <ele>69</ele>
        <time>2020-09-26T09:17:38.000Z</time>
      </trkpt>
      <trkpt lat="43.66647" lon="3.84091">
        <ele>69</ele>
        <time>2020-09-26T09:17:46.000Z</time>
      </trkpt>
      <trkpt lat="43.66648" lon="3.84095">
        <ele>69</ele>
        <time>2020-09-26T09:17:48.000Z</time>
      </trkpt>
      <trkpt lat="43.66649" lon="3.84098">
        <ele>69</ele>
        <time>2020-09-26T09:17:50.000Z</time>
      </trkpt>
      <trkpt lat="43.66651" lon="3.841">
        <ele>69</ele>
        <time>2020-09-26T09:17:52.000Z</time>
      </trkpt>
      <trkpt lat="43.66653" lon="3.841">
        <ele>69</ele>
        <time>2020-09-26T09:17:58.000Z</time>
      </trkpt>
      <trkpt lat="43.66652" lon="3.841">
        <ele>69</ele>
        <time>2020-09-26T09:18:03.000Z</time>
      </trkpt>
      <trkpt lat="43.66653" lon="3.84104">
        <ele>69</ele>
        <time>2020-09-26T09:18:20.000Z</time>
      </trkpt>
      <trkpt lat="43.66652" lon="3.84102">
        <ele>68.999482376987</ele>
        <time>2020-09-26T09:18:28.000Z</time>
      </trkpt>
      <trkpt lat="43.66652" lon="3.84113">
        <ele>68.000258811506</ele>
        <time>2020-09-26T09:33:16.000Z</time>
      </trkpt>
      <trkpt lat="43.66653" lon="3.84115">
        <ele>68</ele>
        <time>2020-09-26T09:33:23.000Z</time>
      </trkpt>
      <trkpt lat="43.66654" lon="3.84115">
        <ele>68</ele>
        <time>2020-09-26T09:33:27.000Z</time>
      </trkpt>
      <trkpt lat="43.66655" lon="3.84116">
        <ele>68.987567398896</ele>
        <time>2020-09-26T09:33:46.000Z</time>
      </trkpt>
      <trkpt lat="43.66657" lon="3.84117">
        <ele>69</ele>
        <time>2020-09-26T09:33:48.000Z</time>
      </trkpt>
      <trkpt lat="43.66659" lon="3.84117">
        <ele>69</ele>
        <time>2020-09-26T09:33:49.000Z</time>
      </trkpt>
      <trkpt lat="43.66661" lon="3.84117">
        <ele>69</ele>
        <time>2020-09-26T09:33:50.000Z</time>
      </trkpt>
      <trkpt lat="43.66663" lon="3.84117">
        <ele>69</ele>
        <time>2020-09-26T09:33:51.000Z</time>
      </trkpt>
      <trkpt lat="43.66666" lon="3.84117">
        <ele>69</ele>
        <time>2020-09-26T09:33:52.000Z</time>
      </trkpt>
      <trkpt lat="43.66669" lon="3.84117">
        <ele>69</ele>
        <time>2020-09-26T09:33:53.000Z</time>
      </trkpt>
      <trkpt lat="43.66673" lon="3.84118">
        <ele>69</ele>
        <time>2020-09-26T09:33:54.000Z</time>
      </trkpt>
      <trkpt lat="43.66677" lon="3.84118">
        <ele>69</ele>
        <time>2020-09-26T09:33:55.000Z</time>
      </trkpt>
      <trkpt lat="43.6668" lon="3.84119">
        <ele>69</ele>
        <time>2020-09-26T09:33:56.000Z</time>
      </trkpt>
      <trkpt lat="43.66684" lon="3.84119">
        <ele>69.092322983035</ele>
        <time>2020-09-26T09:33:57.000Z</time>
      </trkpt>
      <trkpt lat="43.66689" lon="3.84119">
        <ele>69.189504743092</ele>
        <time>2020-09-26T09:33:58.000Z</time>
      </trkpt>
      <trkpt lat="43.66694" lon="3.84119">
        <ele>69.286686503148</ele>
        <time>2020-09-26T09:33:59.000Z</time>
      </trkpt>
      <trkpt lat="43.66698" lon="3.84118">
        <ele>69.383868263205</ele>
        <time>2020-09-26T09:34:00.000Z</time>
      </trkpt>
      <trkpt lat="43.66703" lon="3.84117">
        <ele>69.481050023261</ele>
        <time>2020-09-26T09:34:01.000Z</time>
      </trkpt>
      <trkpt lat="43.66708" lon="3.84115">
        <ele>69.578231783318</ele>
        <time>2020-09-26T09:34:02.000Z</time>
      </trkpt>
      <trkpt lat="43.66712" lon="3.84114">
        <ele>69.675413543375</ele>
        <time>2020-09-26T09:34:03.000Z</time>
      </trkpt>
      <trkpt lat="43.66717" lon="3.84113">
        <ele>69.772595303431</ele>
        <time>2020-09-26T09:34:04.000Z</time>
      </trkpt>
      <trkpt lat="43.66721" lon="3.84113">
        <ele>69.869777063488</ele>
        <time>2020-09-26T09:34:05.000Z</time>
      </trkpt>
      <trkpt lat="43.66726" lon="3.84112">
        <ele>69.966958823544</ele>
        <time>2020-09-26T09:34:06.000Z</time>
      </trkpt>
      <trkpt lat="43.66731" lon="3.84111">
        <ele>70.067971800462</ele>
        <time>2020-09-26T09:34:07.000Z</time>
      </trkpt>
      <trkpt lat="43.66736" lon="3.84109">
        <ele>70.170958378263</ele>
        <time>2020-09-26T09:34:08.000Z</time>
      </trkpt>
      <trkpt lat="43.6674" lon="3.84107">
        <ele>70.273944956064</ele>
        <time>2020-09-26T09:34:09.000Z</time>
      </trkpt>
      <trkpt lat="43.66745" lon="3.84106">
        <ele>70.376931533864</ele>
        <time>2020-09-26T09:34:10.000Z</time>
      </trkpt>
      <trkpt lat="43.6675" lon="3.84105">
        <ele>70.479918111665</ele>
        <time>2020-09-26T09:34:11.000Z</time>
      </trkpt>
      <trkpt lat="43.66755" lon="3.84103">
        <ele>70.582904689465</ele>
        <time>2020-09-26T09:34:12.000Z</time>
      </trkpt>
      <trkpt lat="43.66759" lon="3.84101">
        <ele>70.685891267266</ele>
        <time>2020-09-26T09:34:13.000Z</time>
      </trkpt>
      <trkpt lat="43.66763" lon="3.84099">
        <ele>70.788877845066</ele>
        <time>2020-09-26T09:34:14.000Z</time>
      </trkpt>
      <trkpt lat="43.66767" lon="3.84096">
        <ele>70.891864422867</ele>
        <time>2020-09-26T09:34:15.000Z</time>
      </trkpt>
      <trkpt lat="43.6677" lon="3.84094">
        <ele>70.994851000667</ele>
        <time>2020-09-26T09:34:16.000Z</time>
      </trkpt>
      <trkpt lat="43.66773" lon="3.84092">
        <ele>71.094716141267</ele>
        <time>2020-09-26T09:34:17.000Z</time>
      </trkpt>
      <trkpt lat="43.66776" lon="3.84091">
        <ele>71.194417006766</ele>
        <time>2020-09-26T09:34:18.000Z</time>
      </trkpt>
      <trkpt lat="43.66778" lon="3.8409">
        <ele>71.294117872266</ele>
        <time>2020-09-26T09:34:19.000Z</time>
      </trkpt>
      <trkpt lat="43.6678" lon="3.84088">
        <ele>71.493519603264</ele>
        <time>2020-09-26T09:34:21.000Z</time>
      </trkpt>
      <trkpt lat="43.66782" lon="3.84088">
        <ele>71.89799936</ele>
        <time>2020-09-26T09:34:28.000Z</time>
      </trkpt>
      <trkpt lat="43.66779" lon="3.84093">
        <ele>71.09799936</ele>
        <time>2020-09-26T09:34:32.000Z</time>
      </trkpt>
      <trkpt lat="43.66776" lon="3.84092">
        <ele>71</ele>
        <time>2020-09-26T09:34:33.000Z</time>
      </trkpt>
      <trkpt lat="43.66774" lon="3.84091">
        <ele>71</ele>
        <time>2020-09-26T09:34:34.000Z</time>
      </trkpt>
      <trkpt lat="43.66771" lon="3.84091">
        <ele>71</ele>
        <time>2020-09-26T09:34:35.000Z</time>
      </trkpt>
      <trkpt lat="43.66767" lon="3.84092">
        <ele>71</ele>
        <time>2020-09-26T09:34:36.000Z</time>
      </trkpt>
      <trkpt lat="43.66764" lon="3.84092">
        <ele>71</ele>
        <time>2020-09-26T09:34:37.000Z</time>
      </trkpt>
      <trkpt lat="43.66761" lon="3.84093">
        <ele>71</ele>
        <time>2020-09-26T09:34:38.000Z</time>
      </trkpt>
      <trkpt lat="43.66758" lon="3.84094">
        <ele>71</ele>
        <time>2020-09-26T09:34:39.000Z</time>
      </trkpt>
      <trkpt lat="43.66756" lon="3.84096">
        <ele>71</ele>
        <time>2020-09-26T09:34:40.000Z</time>
      </trkpt>
      <trkpt lat="43.66753" lon="3.84097">
        <ele>71</ele>
        <time>2020-09-26T09:34:41.000Z</time>
      </trkpt>
      <trkpt lat="43.6675" lon="3.84098">
        <ele>71</ele>
        <time>2020-09-26T09:34:42.000Z</time>
      </trkpt>
      <trkpt lat="43.66747" lon="3.84099">
        <ele>71</ele>
        <time>2020-09-26T09:34:43.000Z</time>
      </trkpt>
      <trkpt lat="43.66744" lon="3.84099">
        <ele>71</ele>
        <time>2020-09-26T09:34:44.000Z</time>
      </trkpt>
      <trkpt lat="43.66741" lon="3.84099">
        <ele>71</ele>
        <time>2020-09-26T09:34:45.000Z</time>
      </trkpt>
      <trkpt lat="43.66738" lon="3.84099">
        <ele>71</ele>
        <time>2020-09-26T09:34:46.000Z</time>
      </trkpt>
      <trkpt lat="43.66736" lon="3.84099">
        <ele>71</ele>
        <time>2020-09-26T09:34:47.000Z</time>
      </trkpt>
      <trkpt lat="43.66734" lon="3.84098">
        <ele>71</ele>
        <time>2020-09-26T09:34:48.000Z</time>
      </trkpt>
      <trkpt lat="43.66731" lon="3.84097">
        <ele>71</ele>
        <time>2020-09-26T09:34:49.000Z</time>
      </trkpt>
      <trkpt lat="43.66729" lon="3.84096">
        <ele>71</ele>
        <time>2020-09-26T09:34:50.000Z</time>
      </trkpt>
      <trkpt lat="43.66727" lon="3.84094">
        <ele>71</ele>
        <time>2020-09-26T09:34:51.000Z</time>
      </trkpt>
      <trkpt lat="43.66725" lon="3.84093">
        <ele>71</ele>
        <time>2020-09-26T09:34:52.000Z</time>
      </trkpt>
      <trkpt lat="43.66723" lon="3.84092">
        <ele>71.135943600925</ele>
        <time>2020-09-26T09:34:53.000Z</time>
      </trkpt>
      <trkpt lat="43.66721" lon="3.84091">
        <ele>71.341916756526</ele>
        <time>2020-09-26T09:34:54.000Z</time>
      </trkpt>
      <trkpt lat="43.66719" lon="3.8409">
        <ele>71.547889912127</ele>
        <time>2020-09-26T09:34:55.000Z</time>
      </trkpt>
      <trkpt lat="43.66717" lon="3.84089">
        <ele>71.753863067728</ele>
        <time>2020-09-26T09:34:56.000Z</time>
      </trkpt>
      <trkpt lat="43.66715" lon="3.84087">
        <ele>71.959836223329</ele>
        <time>2020-09-26T09:34:57.000Z</time>
      </trkpt>
      <trkpt lat="43.66712" lon="3.84085">
        <ele>72.371782534531</ele>
        <time>2020-09-26T09:34:59.000Z</time>
      </trkpt>
      <trkpt lat="43.66709" lon="3.84084">
        <ele>72.783728845733</ele>
        <time>2020-09-26T09:35:01.000Z</time>
      </trkpt>
      <trkpt lat="43.66707" lon="3.84083">
        <ele>72.989702001334</ele>
        <time>2020-09-26T09:35:02.000Z</time>
      </trkpt>
      <trkpt lat="43.66705" lon="3.84083">
        <ele>73.09500032</ele>
        <time>2020-09-26T09:35:03.000Z</time>
      </trkpt>
      <trkpt lat="43.66702" lon="3.84082">
        <ele>73.29500032</ele>
        <time>2020-09-26T09:35:05.000Z</time>
      </trkpt>
      <trkpt lat="43.66699" lon="3.84079">
        <ele>73.49500032</ele>
        <time>2020-09-26T09:35:07.000Z</time>
      </trkpt>
      <trkpt lat="43.66699" lon="3.84074">
        <ele>73.69500032</ele>
        <time>2020-09-26T09:35:09.000Z</time>
      </trkpt>
      <trkpt lat="43.667" lon="3.8407">
        <ele>73.89500032</ele>
        <time>2020-09-26T09:35:11.000Z</time>
      </trkpt>
      <trkpt lat="43.667" lon="3.84067">
        <ele>74.28500096</ele>
        <time>2020-09-26T09:35:13.000Z</time>
      </trkpt>
      <trkpt lat="43.66701" lon="3.84063">
        <ele>74.88500096</ele>
        <time>2020-09-26T09:35:15.000Z</time>
      </trkpt>
      <trkpt lat="43.66703" lon="3.8406">
        <ele>75.48500096</ele>
        <time>2020-09-26T09:35:17.000Z</time>
      </trkpt>
      <trkpt lat="43.66703" lon="3.84056">
        <ele>76.08500096</ele>
        <time>2020-09-26T09:35:19.000Z</time>
      </trkpt>
      <trkpt lat="43.66704" lon="3.84052">
        <ele>76.68500096</ele>
        <time>2020-09-26T09:35:21.000Z</time>
      </trkpt>
      <trkpt lat="43.66704" lon="3.84048">
        <ele>77.19000064</ele>
        <time>2020-09-26T09:35:23.000Z</time>
      </trkpt>
      <trkpt lat="43.66704" lon="3.84044">
        <ele>77.59000064</ele>
        <time>2020-09-26T09:35:25.000Z</time>
      </trkpt>
      <trkpt lat="43.66704" lon="3.84041">
        <ele>77.99000064</ele>
        <time>2020-09-26T09:35:27.000Z</time>
      </trkpt>
      <trkpt lat="43.66704" lon="3.84037">
        <ele>78.39000064</ele>
        <time>2020-09-26T09:35:29.000Z</time>
      </trkpt>
      <trkpt lat="43.66704" lon="3.84033">
        <ele>78.79000064</ele>
        <time>2020-09-26T09:35:31.000Z</time>
      </trkpt>
      <trkpt lat="43.66704" lon="3.8403">
        <ele>79.187747667984</ele>
        <time>2020-09-26T09:35:33.000Z</time>
      </trkpt>
      <trkpt lat="43.66704" lon="3.84026">
        <ele>79.58300458498</ele>
        <time>2020-09-26T09:35:35.000Z</time>
      </trkpt>
      <trkpt lat="43.66704" lon="3.84022">
        <ele>79.978261501976</ele>
        <time>2020-09-26T09:35:37.000Z</time>
      </trkpt>
      <trkpt lat="43.66704" lon="3.84019">
        <ele>80.373518418972</ele>
        <time>2020-09-26T09:35:39.000Z</time>
      </trkpt>
      <trkpt lat="43.66705" lon="3.84015">
        <ele>80.768775335968</ele>
        <time>2020-09-26T09:35:41.000Z</time>
      </trkpt>
      <trkpt lat="43.66706" lon="3.84012">
        <ele>81.168016842105</ele>
        <time>2020-09-26T09:35:43.000Z</time>
      </trkpt>
      <trkpt lat="43.66706" lon="3.84009">
        <ele>81.5728751417</ele>
        <time>2020-09-26T09:35:45.000Z</time>
      </trkpt>
      <trkpt lat="43.66706" lon="3.84005">
        <ele>81.977733441295</ele>
        <time>2020-09-26T09:35:47.000Z</time>
      </trkpt>
      <trkpt lat="43.66706" lon="3.84001">
        <ele>82.382591740891</ele>
        <time>2020-09-26T09:35:49.000Z</time>
      </trkpt>
      <trkpt lat="43.66706" lon="3.83997">
        <ele>82.787450040486</ele>
        <time>2020-09-26T09:35:51.000Z</time>
      </trkpt>
      <trkpt lat="43.66707" lon="3.83994">
        <ele>83.19000064</ele>
        <time>2020-09-26T09:35:53.000Z</time>
      </trkpt>
      <trkpt lat="43.66706" lon="3.8399">
        <ele>83.59000064</ele>
        <time>2020-09-26T09:35:55.000Z</time>
      </trkpt>
      <trkpt lat="43.66706" lon="3.83987">
        <ele>83.99000064</ele>
        <time>2020-09-26T09:35:57.000Z</time>
      </trkpt>
      <trkpt lat="43.66707" lon="3.83985">
        <ele>84.39000064</ele>
        <time>2020-09-26T09:35:59.000Z</time>
      </trkpt>
      <trkpt lat="43.66708" lon="3.83983">
        <ele>84.79000064</ele>
        <time>2020-09-26T09:36:01.000Z</time>
      </trkpt>
      <trkpt lat="43.66711" lon="3.83984">
        <ele>85</ele>
        <time>2020-09-26T09:36:04.000Z</time>
      </trkpt>
      <trkpt lat="43.66713" lon="3.83985">
        <ele>85</ele>
        <time>2020-09-26T09:36:07.000Z</time>
      </trkpt>
      <trkpt lat="43.66716" lon="3.83985">
        <ele>85</ele>
        <time>2020-09-26T09:36:10.000Z</time>
      </trkpt>
      <trkpt lat="43.66718" lon="3.83986">
        <ele>85</ele>
        <time>2020-09-26T09:36:12.000Z</time>
      </trkpt>
      <trkpt lat="43.66721" lon="3.83985">
        <ele>85</ele>
        <time>2020-09-26T09:36:14.000Z</time>
      </trkpt>
      <trkpt lat="43.66725" lon="3.83985">
        <ele>85</ele>
        <time>2020-09-26T09:36:16.000Z</time>
      </trkpt>
      <trkpt lat="43.66727" lon="3.83985">
        <ele>85</ele>
        <time>2020-09-26T09:36:17.000Z</time>
      </trkpt>
      <trkpt lat="43.6673" lon="3.83985">
        <ele>85</ele>
        <time>2020-09-26T09:36:18.000Z</time>
      </trkpt>
      <trkpt lat="43.66732" lon="3.83984">
        <ele>85</ele>
        <time>2020-09-26T09:36:19.000Z</time>
      </trkpt>
      <trkpt lat="43.66735" lon="3.83984">
        <ele>85</ele>
        <time>2020-09-26T09:36:20.000Z</time>
      </trkpt>
      <trkpt lat="43.66737" lon="3.83983">
        <ele>85</ele>
        <time>2020-09-26T09:36:21.000Z</time>
      </trkpt>
      <trkpt lat="43.66739" lon="3.83981">
        <ele>85</ele>
        <time>2020-09-26T09:36:22.000Z</time>
      </trkpt>
      <trkpt lat="43.66741" lon="3.8398">
        <ele>85</ele>
        <time>2020-09-26T09:36:23.000Z</time>
      </trkpt>
      <trkpt lat="43.66743" lon="3.8398">
        <ele>85</ele>
        <time>2020-09-26T09:36:24.000Z</time>
      </trkpt>
      <trkpt lat="43.66746" lon="3.83979">
        <ele>85</ele>
        <time>2020-09-26T09:36:25.000Z</time>
      </trkpt>
      <trkpt lat="43.66748" lon="3.8398">
        <ele>85</ele>
        <time>2020-09-26T09:36:26.000Z</time>
      </trkpt>
      <trkpt lat="43.66751" lon="3.8398">
        <ele>85</ele>
        <time>2020-09-26T09:36:27.000Z</time>
      </trkpt>
      <trkpt lat="43.66754" lon="3.83981">
        <ele>85</ele>
        <time>2020-09-26T09:36:28.000Z</time>
      </trkpt>
      <trkpt lat="43.66756" lon="3.83983">
        <ele>85</ele>
        <time>2020-09-26T09:36:29.000Z</time>
      </trkpt>
      <trkpt lat="43.66758" lon="3.83987">
        <ele>85</ele>
        <time>2020-09-26T09:36:30.000Z</time>
      </trkpt>
      <trkpt lat="43.66759" lon="3.83991">
        <ele>85</ele>
        <time>2020-09-26T09:36:31.000Z</time>
      </trkpt>
      <trkpt lat="43.6676" lon="3.83994">
        <ele>85</ele>
        <time>2020-09-26T09:36:32.000Z</time>
      </trkpt>
      <trkpt lat="43.66761" lon="3.83997">
        <ele>85</ele>
        <time>2020-09-26T09:36:33.000Z</time>
      </trkpt>
      <trkpt lat="43.66763" lon="3.84">
        <ele>85</ele>
        <time>2020-09-26T09:36:34.000Z</time>
      </trkpt>
      <trkpt lat="43.66765" lon="3.84003">
        <ele>85</ele>
        <time>2020-09-26T09:36:35.000Z</time>
      </trkpt>
      <trkpt lat="43.66767" lon="3.84006">
        <ele>85</ele>
        <time>2020-09-26T09:36:36.000Z</time>
      </trkpt>
      <trkpt lat="43.6677" lon="3.84009">
        <ele>85</ele>
        <time>2020-09-26T09:36:37.000Z</time>
      </trkpt>
      <trkpt lat="43.66772" lon="3.84013">
        <ele>85</ele>
        <time>2020-09-26T09:36:38.000Z</time>
      </trkpt>
      <trkpt lat="43.66774" lon="3.84015">
        <ele>85</ele>
        <time>2020-09-26T09:36:39.000Z</time>
      </trkpt>
      <trkpt lat="43.66776" lon="3.84016">
        <ele>85</ele>
        <time>2020-09-26T09:36:40.000Z</time>
      </trkpt>
      <trkpt lat="43.6678" lon="3.84016">
        <ele>85</ele>
        <time>2020-09-26T09:36:41.000Z</time>
      </trkpt>
      <trkpt lat="43.66783" lon="3.84016">
        <ele>85</ele>
        <time>2020-09-26T09:36:42.000Z</time>
      </trkpt>
      <trkpt lat="43.66787" lon="3.84016">
        <ele>84.910463040942</ele>
        <time>2020-09-26T09:36:43.000Z</time>
      </trkpt>
      <trkpt lat="43.6679" lon="3.84017">
        <ele>84.809859354437</ele>
        <time>2020-09-26T09:36:44.000Z</time>
      </trkpt>
      <trkpt lat="43.66793" lon="3.84019">
        <ele>84.709255667931</ele>
        <time>2020-09-26T09:36:45.000Z</time>
      </trkpt>
      <trkpt lat="43.66796" lon="3.84022">
        <ele>84.608651981426</ele>
        <time>2020-09-26T09:36:46.000Z</time>
      </trkpt>
      <trkpt lat="43.66799" lon="3.84025">
        <ele>84.50804829492</ele>
        <time>2020-09-26T09:36:47.000Z</time>
      </trkpt>
      <trkpt lat="43.66803" lon="3.84028">
        <ele>84.407444608415</ele>
        <time>2020-09-26T09:36:48.000Z</time>
      </trkpt>
      <trkpt lat="43.66806" lon="3.84031">
        <ele>84.30684092191</ele>
        <time>2020-09-26T09:36:49.000Z</time>
      </trkpt>
      <trkpt lat="43.66808" lon="3.84034">
        <ele>84.206237235404</ele>
        <time>2020-09-26T09:36:50.000Z</time>
      </trkpt>
      <trkpt lat="43.66811" lon="3.84037">
        <ele>84.105633548899</ele>
        <time>2020-09-26T09:36:51.000Z</time>
      </trkpt>
      <trkpt lat="43.66814" lon="3.8404">
        <ele>84.005029862393</ele>
        <time>2020-09-26T09:36:52.000Z</time>
      </trkpt>
      <trkpt lat="43.66817" lon="3.84042">
        <ele>83.90499968</ele>
        <time>2020-09-26T09:36:53.000Z</time>
      </trkpt>
      <trkpt lat="43.6682" lon="3.84043">
        <ele>83.80499968</ele>
        <time>2020-09-26T09:36:54.000Z</time>
      </trkpt>
      <trkpt lat="43.66823" lon="3.84044">
        <ele>83.70499968</ele>
        <time>2020-09-26T09:36:55.000Z</time>
      </trkpt>
      <trkpt lat="43.66826" lon="3.84044">
        <ele>83.60499968</ele>
        <time>2020-09-26T09:36:56.000Z</time>
      </trkpt>
      <trkpt lat="43.6683" lon="3.84045">
        <ele>83.50499968</ele>
        <time>2020-09-26T09:36:57.000Z</time>
      </trkpt>
      <trkpt lat="43.66833" lon="3.84046">
        <ele>83.40499968</ele>
        <time>2020-09-26T09:36:58.000Z</time>
      </trkpt>
      <trkpt lat="43.66836" lon="3.84047">
        <ele>83.30499968</ele>
        <time>2020-09-26T09:36:59.000Z</time>
      </trkpt>
      <trkpt lat="43.66839" lon="3.84046">
        <ele>83.20499968</ele>
        <time>2020-09-26T09:37:00.000Z</time>
      </trkpt>
      <trkpt lat="43.66842" lon="3.84047">
        <ele>83.10499968</ele>
        <time>2020-09-26T09:37:01.000Z</time>
      </trkpt>
      <trkpt lat="43.66846" lon="3.84048">
        <ele>83.00499968</ele>
        <time>2020-09-26T09:37:02.000Z</time>
      </trkpt>
      <trkpt lat="43.6685" lon="3.8405">
        <ele>82.80999936</ele>
        <time>2020-09-26T09:37:03.000Z</time>
      </trkpt>
      <trkpt lat="43.66854" lon="3.84052">
        <ele>82.60999936</ele>
        <time>2020-09-26T09:37:04.000Z</time>
      </trkpt>
      <trkpt lat="43.66857" lon="3.84053">
        <ele>82.40999936</ele>
        <time>2020-09-26T09:37:05.000Z</time>
      </trkpt>
      <trkpt lat="43.6686" lon="3.84054">
        <ele>82.20999936</ele>
        <time>2020-09-26T09:37:06.000Z</time>
      </trkpt>
      <trkpt lat="43.66864" lon="3.84054">
        <ele>82.00999936</ele>
        <time>2020-09-26T09:37:07.000Z</time>
      </trkpt>
      <trkpt lat="43.66868" lon="3.84055">
        <ele>81.80999936</ele>
        <time>2020-09-26T09:37:08.000Z</time>
      </trkpt>
      <trkpt lat="43.66871" lon="3.84056">
        <ele>81.60999936</ele>
        <time>2020-09-26T09:37:09.000Z</time>
      </trkpt>
      <trkpt lat="43.66873" lon="3.84058">
        <ele>81.40999936</ele>
        <time>2020-09-26T09:37:10.000Z</time>
      </trkpt>
      <trkpt lat="43.66876" lon="3.84061">
        <ele>81.20999936</ele>
        <time>2020-09-26T09:37:11.000Z</time>
      </trkpt>
      <trkpt lat="43.66878" lon="3.84062">
        <ele>81.00999936</ele>
        <time>2020-09-26T09:37:12.000Z</time>
      </trkpt>
      <trkpt lat="43.66881" lon="3.84064">
        <ele>80.80499968</ele>
        <time>2020-09-26T09:37:14.000Z</time>
      </trkpt>
      <trkpt lat="43.66884" lon="3.84065">
        <ele>80.60499968</ele>
        <time>2020-09-26T09:37:16.000Z</time>
      </trkpt>
      <trkpt lat="43.66887" lon="3.84064">
        <ele>80.40499968</ele>
        <time>2020-09-26T09:37:18.000Z</time>
      </trkpt>
      <trkpt lat="43.66889" lon="3.84064">
        <ele>80.20499968</ele>
        <time>2020-09-26T09:37:20.000Z</time>
      </trkpt>
      <trkpt lat="43.66891" lon="3.84064">
        <ele>80.10499968</ele>
        <time>2020-09-26T09:37:21.000Z</time>
      </trkpt>
      <trkpt lat="43.66894" lon="3.84065">
        <ele>80.00499968</ele>
        <time>2020-09-26T09:37:22.000Z</time>
      </trkpt>
      <trkpt lat="43.66898" lon="3.84065">
        <ele>79.61999872</ele>
        <time>2020-09-26T09:37:23.000Z</time>
      </trkpt>
      <trkpt lat="43.66907" lon="3.84052">
        <ele>78.41999872</ele>
        <time>2020-09-26T09:37:26.000Z</time>
      </trkpt>
      <trkpt lat="43.6691" lon="3.84048">
        <ele>78.01999872</ele>
        <time>2020-09-26T09:37:27.000Z</time>
      </trkpt>
      <trkpt lat="43.66912" lon="3.84044">
        <ele>77.61999872</ele>
        <time>2020-09-26T09:37:28.000Z</time>
      </trkpt>
      <trkpt lat="43.66914" lon="3.8404">
        <ele>77.21999872</ele>
        <time>2020-09-26T09:37:29.000Z</time>
      </trkpt>
      <trkpt lat="43.66915" lon="3.84037">
        <ele>76.81999872</ele>
        <time>2020-09-26T09:37:30.000Z</time>
      </trkpt>
      <trkpt lat="43.66915" lon="3.84034">
        <ele>76.41999872</ele>
        <time>2020-09-26T09:37:31.000Z</time>
      </trkpt>
      <trkpt lat="43.66916" lon="3.84031">
        <ele>76.01999872</ele>
        <time>2020-09-26T09:37:32.000Z</time>
      </trkpt>
      <trkpt lat="43.66916" lon="3.84028">
        <ele>75.80999936</ele>
        <time>2020-09-26T09:37:33.000Z</time>
      </trkpt>
      <trkpt lat="43.66916" lon="3.84025">
        <ele>75.60999936</ele>
        <time>2020-09-26T09:37:34.000Z</time>
      </trkpt>
      <trkpt lat="43.66916" lon="3.84021">
        <ele>75.20999936</ele>
        <time>2020-09-26T09:37:36.000Z</time>
      </trkpt>
      <trkpt lat="43.66915" lon="3.84019">
        <ele>75.00999936</ele>
        <time>2020-09-26T09:37:37.000Z</time>
      </trkpt>
      <trkpt lat="43.66915" lon="3.84016">
        <ele>74.80999936</ele>
        <time>2020-09-26T09:37:38.000Z</time>
      </trkpt>
      <trkpt lat="43.66916" lon="3.84013">
        <ele>74.60999936</ele>
        <time>2020-09-26T09:37:39.000Z</time>
      </trkpt>
      <trkpt lat="43.66917" lon="3.8401">
        <ele>74.40999936</ele>
        <time>2020-09-26T09:37:40.000Z</time>
      </trkpt>
      <trkpt lat="43.66918" lon="3.84006">
        <ele>74.20999936</ele>
        <time>2020-09-26T09:37:41.000Z</time>
      </trkpt>
      <trkpt lat="43.66918" lon="3.84002">
        <ele>74.00999936</ele>
        <time>2020-09-26T09:37:42.000Z</time>
      </trkpt>
      <trkpt lat="43.66918" lon="3.83999">
        <ele>74</ele>
        <time>2020-09-26T09:37:43.000Z</time>
      </trkpt>
      <trkpt lat="43.66918" lon="3.83994">
        <ele>74</ele>
        <time>2020-09-26T09:37:44.000Z</time>
      </trkpt>
      <trkpt lat="43.66917" lon="3.8399">
        <ele>74</ele>
        <time>2020-09-26T09:37:45.000Z</time>
      </trkpt>
      <trkpt lat="43.66916" lon="3.83987">
        <ele>74</ele>
        <time>2020-09-26T09:37:46.000Z</time>
      </trkpt>
      <trkpt lat="43.66916" lon="3.83983">
        <ele>74</ele>
        <time>2020-09-26T09:37:47.000Z</time>
      </trkpt>
      <trkpt lat="43.66915" lon="3.8398">
        <ele>74</ele>
        <time>2020-09-26T09:37:48.000Z</time>
      </trkpt>
      <trkpt lat="43.66914" lon="3.83977">
        <ele>74</ele>
        <time>2020-09-26T09:37:49.000Z</time>
      </trkpt>
      <trkpt lat="43.66912" lon="3.83974">
        <ele>74</ele>
        <time>2020-09-26T09:37:50.000Z</time>
      </trkpt>
      <trkpt lat="43.6691" lon="3.83971">
        <ele>74</ele>
        <time>2020-09-26T09:37:51.000Z</time>
      </trkpt>
      <trkpt lat="43.66908" lon="3.83968">
        <ele>74</ele>
        <time>2020-09-26T09:37:52.000Z</time>
      </trkpt>
      <trkpt lat="43.66906" lon="3.83966">
        <ele>74</ele>
        <time>2020-09-26T09:37:53.000Z</time>
      </trkpt>
      <trkpt lat="43.66904" lon="3.83964">
        <ele>74</ele>
        <time>2020-09-26T09:37:54.000Z</time>
      </trkpt>
      <trkpt lat="43.66902" lon="3.83962">
        <ele>74</ele>
        <time>2020-09-26T09:37:55.000Z</time>
      </trkpt>
      <trkpt lat="43.669" lon="3.83959">
        <ele>74</ele>
        <time>2020-09-26T09:37:56.000Z</time>
      </trkpt>
      <trkpt lat="43.66898" lon="3.83957">
        <ele>74</ele>
        <time>2020-09-26T09:37:57.000Z</time>
      </trkpt>
      <trkpt lat="43.66896" lon="3.83955">
        <ele>74</ele>
        <time>2020-09-26T09:37:58.000Z</time>
      </trkpt>
      <trkpt lat="43.66895" lon="3.83952">
        <ele>74</ele>
        <time>2020-09-26T09:37:59.000Z</time>
      </trkpt>
      <trkpt lat="43.66893" lon="3.8395">
        <ele>74</ele>
        <time>2020-09-26T09:38:00.000Z</time>
      </trkpt>
      <trkpt lat="43.66892" lon="3.83947">
        <ele>74</ele>
        <time>2020-09-26T09:38:01.000Z</time>
      </trkpt>
      <trkpt lat="43.66891" lon="3.83945">
        <ele>74</ele>
        <time>2020-09-26T09:38:02.000Z</time>
      </trkpt>
      <trkpt lat="43.6689" lon="3.83942">
        <ele>74</ele>
        <time>2020-09-26T09:38:03.000Z</time>
      </trkpt>
      <trkpt lat="43.66888" lon="3.83939">
        <ele>74</ele>
        <time>2020-09-26T09:38:04.000Z</time>
      </trkpt>
      <trkpt lat="43.66887" lon="3.83935">
        <ele>74</ele>
        <time>2020-09-26T09:38:05.000Z</time>
      </trkpt>
      <trkpt lat="43.66886" lon="3.83931">
        <ele>74</ele>
        <time>2020-09-26T09:38:06.000Z</time>
      </trkpt>
      <trkpt lat="43.66885" lon="3.83927">
        <ele>74</ele>
        <time>2020-09-26T09:38:07.000Z</time>
      </trkpt>
      <trkpt lat="43.66885" lon="3.83923">
        <ele>74</ele>
        <time>2020-09-26T09:38:08.000Z</time>
      </trkpt>
      <trkpt lat="43.66884" lon="3.83918">
        <ele>74</ele>
        <time>2020-09-26T09:38:09.000Z</time>
      </trkpt>
      <trkpt lat="43.66884" lon="3.83913">
        <ele>74</ele>
        <time>2020-09-26T09:38:10.000Z</time>
      </trkpt>
      <trkpt lat="43.66884" lon="3.83909">
        <ele>74</ele>
        <time>2020-09-26T09:38:11.000Z</time>
      </trkpt>
      <trkpt lat="43.66883" lon="3.83906">
        <ele>74</ele>
        <time>2020-09-26T09:38:12.000Z</time>
      </trkpt>
      <trkpt lat="43.66883" lon="3.83903">
        <ele>74.09500032</ele>
        <time>2020-09-26T09:38:13.000Z</time>
      </trkpt>
      <trkpt lat="43.66882" lon="3.839">
        <ele>74.19500032</ele>
        <time>2020-09-26T09:38:14.000Z</time>
      </trkpt>
      <trkpt lat="43.66882" lon="3.83896">
        <ele>74.29500032</ele>
        <time>2020-09-26T09:38:15.000Z</time>
      </trkpt>
      <trkpt lat="43.66881" lon="3.83893">
        <ele>74.39500032</ele>
        <time>2020-09-26T09:38:16.000Z</time>
      </trkpt>
      <trkpt lat="43.66881" lon="3.83889">
        <ele>74.49500032</ele>
        <time>2020-09-26T09:38:17.000Z</time>
      </trkpt>
      <trkpt lat="43.66881" lon="3.83886">
        <ele>74.59500032</ele>
        <time>2020-09-26T09:38:18.000Z</time>
      </trkpt>
      <trkpt lat="43.6688" lon="3.83882">
        <ele>74.69500032</ele>
        <time>2020-09-26T09:38:19.000Z</time>
      </trkpt>
      <trkpt lat="43.6688" lon="3.83879">
        <ele>74.79500032</ele>
        <time>2020-09-26T09:38:20.000Z</time>
      </trkpt>
      <trkpt lat="43.6688" lon="3.83875">
        <ele>74.89500032</ele>
        <time>2020-09-26T09:38:21.000Z</time>
      </trkpt>
      <trkpt lat="43.66879" lon="3.83872">
        <ele>74.99500032</ele>
        <time>2020-09-26T09:38:22.000Z</time>
      </trkpt>
      <trkpt lat="43.66879" lon="3.83868">
        <ele>75</ele>
        <time>2020-09-26T09:38:23.000Z</time>
      </trkpt>
      <trkpt lat="43.66879" lon="3.83864">
        <ele>75</ele>
        <time>2020-09-26T09:38:24.000Z</time>
      </trkpt>
      <trkpt lat="43.66879" lon="3.83861">
        <ele>75</ele>
        <time>2020-09-26T09:38:25.000Z</time>
      </trkpt>
      <trkpt lat="43.66879" lon="3.83857">
        <ele>75</ele>
        <time>2020-09-26T09:38:26.000Z</time>
      </trkpt>
      <trkpt lat="43.66879" lon="3.83854">
        <ele>75</ele>
        <time>2020-09-26T09:38:27.000Z</time>
      </trkpt>
      <trkpt lat="43.6688" lon="3.8385">
        <ele>75</ele>
        <time>2020-09-26T09:38:28.000Z</time>
      </trkpt>
      <trkpt lat="43.6688" lon="3.83847">
        <ele>75</ele>
        <time>2020-09-26T09:38:29.000Z</time>
      </trkpt>
      <trkpt lat="43.66881" lon="3.83844">
        <ele>75</ele>
        <time>2020-09-26T09:38:30.000Z</time>
      </trkpt>
      <trkpt lat="43.66881" lon="3.83841">
        <ele>75</ele>
        <time>2020-09-26T09:38:31.000Z</time>
      </trkpt>
      <trkpt lat="43.66882" lon="3.83838">
        <ele>75</ele>
        <time>2020-09-26T09:38:32.000Z</time>
      </trkpt>
      <trkpt lat="43.66882" lon="3.83835">
        <ele>75.094905323567</ele>
        <time>2020-09-26T09:38:33.000Z</time>
      </trkpt>
      <trkpt lat="43.66883" lon="3.83832">
        <ele>75.194805327659</ele>
        <time>2020-09-26T09:38:34.000Z</time>
      </trkpt>
      <trkpt lat="43.66883" lon="3.83828">
        <ele>75.294705331751</ele>
        <time>2020-09-26T09:38:35.000Z</time>
      </trkpt>
      <trkpt lat="43.66883" lon="3.83825">
        <ele>75.394605335843</ele>
        <time>2020-09-26T09:38:36.000Z</time>
      </trkpt>
      <trkpt lat="43.66883" lon="3.83821">
        <ele>75.494505339935</ele>
        <time>2020-09-26T09:38:37.000Z</time>
      </trkpt>
      <trkpt lat="43.66882" lon="3.83818">
        <ele>75.594405344027</ele>
        <time>2020-09-26T09:38:38.000Z</time>
      </trkpt>
      <trkpt lat="43.66881" lon="3.83815">
        <ele>75.694305348119</ele>
        <time>2020-09-26T09:38:39.000Z</time>
      </trkpt>
      <trkpt lat="43.6688" lon="3.83811">
        <ele>75.794205352211</ele>
        <time>2020-09-26T09:38:40.000Z</time>
      </trkpt>
      <trkpt lat="43.66878" lon="3.83808">
        <ele>75.894105356303</ele>
        <time>2020-09-26T09:38:41.000Z</time>
      </trkpt>
      <trkpt lat="43.66877" lon="3.83805">
        <ele>75.994005360394</ele>
        <time>2020-09-26T09:38:42.000Z</time>
      </trkpt>
      <trkpt lat="43.66876" lon="3.83802">
        <ele>76</ele>
        <time>2020-09-26T09:38:43.000Z</time>
      </trkpt>
      <trkpt lat="43.66874" lon="3.83799">
        <ele>76</ele>
        <time>2020-09-26T09:38:44.000Z</time>
      </trkpt>
      <trkpt lat="43.66873" lon="3.83796">
        <ele>76</ele>
        <time>2020-09-26T09:38:45.000Z</time>
      </trkpt>
      <trkpt lat="43.66872" lon="3.83793">
        <ele>76</ele>
        <time>2020-09-26T09:38:46.000Z</time>
      </trkpt>
      <trkpt lat="43.66871" lon="3.8379">
        <ele>76</ele>
        <time>2020-09-26T09:38:47.000Z</time>
      </trkpt>
      <trkpt lat="43.6687" lon="3.83787">
        <ele>76</ele>
        <time>2020-09-26T09:38:48.000Z</time>
      </trkpt>
      <trkpt lat="43.66869" lon="3.83784">
        <ele>76</ele>
        <time>2020-09-26T09:38:49.000Z</time>
      </trkpt>
      <trkpt lat="43.66869" lon="3.8378">
        <ele>76</ele>
        <time>2020-09-26T09:38:50.000Z</time>
      </trkpt>
      <trkpt lat="43.66868" lon="3.83777">
        <ele>76</ele>
        <time>2020-09-26T09:38:51.000Z</time>
      </trkpt>
      <trkpt lat="43.66868" lon="3.83774">
        <ele>76</ele>
        <time>2020-09-26T09:38:52.000Z</time>
      </trkpt>
      <trkpt lat="43.66868" lon="3.83772">
        <ele>76.092683152219</ele>
        <time>2020-09-26T09:38:53.000Z</time>
      </trkpt>
      <trkpt lat="43.66867" lon="3.83768">
        <ele>76.190244036454</ele>
        <time>2020-09-26T09:38:54.000Z</time>
      </trkpt>
      <trkpt lat="43.66867" lon="3.83765">
        <ele>76.28780492069</ele>
        <time>2020-09-26T09:38:55.000Z</time>
      </trkpt>
      <trkpt lat="43.66867" lon="3.83762">
        <ele>76.385365804926</ele>
        <time>2020-09-26T09:38:56.000Z</time>
      </trkpt>
      <trkpt lat="43.66866" lon="3.83759">
        <ele>76.482926689161</ele>
        <time>2020-09-26T09:38:57.000Z</time>
      </trkpt>
      <trkpt lat="43.66866" lon="3.83756">
        <ele>76.580487573397</ele>
        <time>2020-09-26T09:38:58.000Z</time>
      </trkpt>
      <trkpt lat="43.66866" lon="3.83753">
        <ele>76.678048457633</ele>
        <time>2020-09-26T09:38:59.000Z</time>
      </trkpt>
      <trkpt lat="43.66865" lon="3.8375">
        <ele>76.775609341868</ele>
        <time>2020-09-26T09:39:00.000Z</time>
      </trkpt>
      <trkpt lat="43.66864" lon="3.83746">
        <ele>76.873170226104</ele>
        <time>2020-09-26T09:39:01.000Z</time>
      </trkpt>
      <trkpt lat="43.66864" lon="3.83743">
        <ele>76.97073111034</ele>
        <time>2020-09-26T09:39:02.000Z</time>
      </trkpt>
      <trkpt lat="43.66864" lon="3.83739">
        <ele>77</ele>
        <time>2020-09-26T09:39:03.000Z</time>
      </trkpt>
      <trkpt lat="43.66865" lon="3.83736">
        <ele>77</ele>
        <time>2020-09-26T09:39:04.000Z</time>
      </trkpt>
      <trkpt lat="43.66866" lon="3.83733">
        <ele>77</ele>
        <time>2020-09-26T09:39:05.000Z</time>
      </trkpt>
      <trkpt lat="43.66867" lon="3.8373">
        <ele>77</ele>
        <time>2020-09-26T09:39:06.000Z</time>
      </trkpt>
      <trkpt lat="43.66868" lon="3.83726">
        <ele>77</ele>
        <time>2020-09-26T09:39:07.000Z</time>
      </trkpt>
      <trkpt lat="43.66869" lon="3.83723">
        <ele>77</ele>
        <time>2020-09-26T09:39:08.000Z</time>
      </trkpt>
      <trkpt lat="43.6687" lon="3.8372">
        <ele>77</ele>
        <time>2020-09-26T09:39:09.000Z</time>
      </trkpt>
      <trkpt lat="43.66872" lon="3.83717">
        <ele>77</ele>
        <time>2020-09-26T09:39:10.000Z</time>
      </trkpt>
      <trkpt lat="43.66873" lon="3.83713">
        <ele>77</ele>
        <time>2020-09-26T09:39:11.000Z</time>
      </trkpt>
      <trkpt lat="43.66874" lon="3.8371">
        <ele>77</ele>
        <time>2020-09-26T09:39:12.000Z</time>
      </trkpt>
      <trkpt lat="43.66875" lon="3.83707">
        <ele>77</ele>
        <time>2020-09-26T09:39:13.000Z</time>
      </trkpt>
      <trkpt lat="43.66875" lon="3.83703">
        <ele>77</ele>
        <time>2020-09-26T09:39:14.000Z</time>
      </trkpt>
      <trkpt lat="43.66876" lon="3.83699">
        <ele>77</ele>
        <time>2020-09-26T09:39:15.000Z</time>
      </trkpt>
      <trkpt lat="43.66876" lon="3.83695">
        <ele>77</ele>
        <time>2020-09-26T09:39:16.000Z</time>
      </trkpt>
      <trkpt lat="43.66876" lon="3.83691">
        <ele>77</ele>
        <time>2020-09-26T09:39:18.000Z</time>
      </trkpt>
      <trkpt lat="43.66877" lon="3.83688">
        <ele>77</ele>
        <time>2020-09-26T09:39:20.000Z</time>
      </trkpt>
      <trkpt lat="43.66877" lon="3.83682">
        <ele>77</ele>
        <time>2020-09-26T09:39:22.000Z</time>
      </trkpt>
      <trkpt lat="43.66878" lon="3.83679">
        <ele>77.06893037037</ele>
        <time>2020-09-26T09:39:23.000Z</time>
      </trkpt>
      <trkpt lat="43.66878" lon="3.83675">
        <ele>77.171811028807</ele>
        <time>2020-09-26T09:39:24.000Z</time>
      </trkpt>
      <trkpt lat="43.66878" lon="3.83672">
        <ele>77.274691687243</ele>
        <time>2020-09-26T09:39:25.000Z</time>
      </trkpt>
      <trkpt lat="43.66878" lon="3.83669">
        <ele>77.377572345679</ele>
        <time>2020-09-26T09:39:26.000Z</time>
      </trkpt>
      <trkpt lat="43.66878" lon="3.83666">
        <ele>77.480453004115</ele>
        <time>2020-09-26T09:39:27.000Z</time>
      </trkpt>
      <trkpt lat="43.66877" lon="3.83663">
        <ele>77.583333662551</ele>
        <time>2020-09-26T09:39:28.000Z</time>
      </trkpt>
      <trkpt lat="43.66877" lon="3.83661">
        <ele>77.686214320988</ele>
        <time>2020-09-26T09:39:29.000Z</time>
      </trkpt>
      <trkpt lat="43.66877" lon="3.83658">
        <ele>77.789094979424</ele>
        <time>2020-09-26T09:39:30.000Z</time>
      </trkpt>
      <trkpt lat="43.66877" lon="3.83655">
        <ele>77.89197563786</ele>
        <time>2020-09-26T09:39:31.000Z</time>
      </trkpt>
      <trkpt lat="43.66877" lon="3.83652">
        <ele>77.994856296296</ele>
        <time>2020-09-26T09:39:32.000Z</time>
      </trkpt>
      <trkpt lat="43.66877" lon="3.83649">
        <ele>78.09500032</ele>
        <time>2020-09-26T09:39:33.000Z</time>
      </trkpt>
      <trkpt lat="43.66876" lon="3.83647">
        <ele>78.19500032</ele>
        <time>2020-09-26T09:39:34.000Z</time>
      </trkpt>
      <trkpt lat="43.66876" lon="3.83644">
        <ele>78.29500032</ele>
        <time>2020-09-26T09:39:35.000Z</time>
      </trkpt>
      <trkpt lat="43.66876" lon="3.83641">
        <ele>78.39500032</ele>
        <time>2020-09-26T09:39:36.000Z</time>
      </trkpt>
      <trkpt lat="43.66876" lon="3.83638">
        <ele>78.49500032</ele>
        <time>2020-09-26T09:39:37.000Z</time>
      </trkpt>
      <trkpt lat="43.66875" lon="3.83635">
        <ele>78.59500032</ele>
        <time>2020-09-26T09:39:38.000Z</time>
      </trkpt>
      <trkpt lat="43.66875" lon="3.83632">
        <ele>78.69500032</ele>
        <time>2020-09-26T09:39:39.000Z</time>
      </trkpt>
      <trkpt lat="43.66874" lon="3.8363">
        <ele>78.79500032</ele>
        <time>2020-09-26T09:39:40.000Z</time>
      </trkpt>
      <trkpt lat="43.66873" lon="3.83627">
        <ele>78.89500032</ele>
        <time>2020-09-26T09:39:41.000Z</time>
      </trkpt>
      <trkpt lat="43.66872" lon="3.83625">
        <ele>78.99500032</ele>
        <time>2020-09-26T09:39:42.000Z</time>
      </trkpt>
      <trkpt lat="43.66871" lon="3.83622">
        <ele>79.09500032</ele>
        <time>2020-09-26T09:39:43.000Z</time>
      </trkpt>
      <trkpt lat="43.6687" lon="3.8362">
        <ele>79.19500032</ele>
        <time>2020-09-26T09:39:44.000Z</time>
      </trkpt>
      <trkpt lat="43.66868" lon="3.83619">
        <ele>79.29500032</ele>
        <time>2020-09-26T09:39:45.000Z</time>
      </trkpt>
      <trkpt lat="43.66866" lon="3.83616">
        <ele>79.49500032</ele>
        <time>2020-09-26T09:39:47.000Z</time>
      </trkpt>
      <trkpt lat="43.66863" lon="3.83612">
        <ele>79.69500032</ele>
        <time>2020-09-26T09:39:49.000Z</time>
      </trkpt>
      <trkpt lat="43.66861" lon="3.83609">
        <ele>79.89500032</ele>
        <time>2020-09-26T09:39:51.000Z</time>
      </trkpt>
      <trkpt lat="43.6686" lon="3.83607">
        <ele>79.99500032</ele>
        <time>2020-09-26T09:39:52.000Z</time>
      </trkpt>
      <trkpt lat="43.66857" lon="3.83603">
        <ele>80.19500032</ele>
        <time>2020-09-26T09:39:54.000Z</time>
      </trkpt>
      <trkpt lat="43.66856" lon="3.83601">
        <ele>80.29500032</ele>
        <time>2020-09-26T09:39:55.000Z</time>
      </trkpt>
      <trkpt lat="43.66855" lon="3.83599">
        <ele>80.39500032</ele>
        <time>2020-09-26T09:39:56.000Z</time>
      </trkpt>
      <trkpt lat="43.66853" lon="3.83597">
        <ele>80.49500032</ele>
        <time>2020-09-26T09:39:57.000Z</time>
      </trkpt>
      <trkpt lat="43.66851" lon="3.83595">
        <ele>80.59500032</ele>
        <time>2020-09-26T09:39:58.000Z</time>
      </trkpt>
      <trkpt lat="43.6685" lon="3.83593">
        <ele>80.69500032</ele>
        <time>2020-09-26T09:39:59.000Z</time>
      </trkpt>
      <trkpt lat="43.66848" lon="3.83591">
        <ele>80.79500032</ele>
        <time>2020-09-26T09:40:00.000Z</time>
      </trkpt>
      <trkpt lat="43.66846" lon="3.8359">
        <ele>80.89500032</ele>
        <time>2020-09-26T09:40:01.000Z</time>
      </trkpt>
      <trkpt lat="43.66844" lon="3.83588">
        <ele>80.99500032</ele>
        <time>2020-09-26T09:40:02.000Z</time>
      </trkpt>
      <trkpt lat="43.66843" lon="3.83587">
        <ele>81.09500032</ele>
        <time>2020-09-26T09:40:03.000Z</time>
      </trkpt>
      <trkpt lat="43.66841" lon="3.83586">
        <ele>81.19500032</ele>
        <time>2020-09-26T09:40:04.000Z</time>
      </trkpt>
      <trkpt lat="43.66839" lon="3.83585">
        <ele>81.29500032</ele>
        <time>2020-09-26T09:40:05.000Z</time>
      </trkpt>
      <trkpt lat="43.66837" lon="3.83584">
        <ele>81.39500032</ele>
        <time>2020-09-26T09:40:06.000Z</time>
      </trkpt>
      <trkpt lat="43.66835" lon="3.83584">
        <ele>81.49500032</ele>
        <time>2020-09-26T09:40:07.000Z</time>
      </trkpt>
      <trkpt lat="43.66833" lon="3.83584">
        <ele>81.59500032</ele>
        <time>2020-09-26T09:40:08.000Z</time>
      </trkpt>
      <trkpt lat="43.66831" lon="3.83583">
        <ele>81.69500032</ele>
        <time>2020-09-26T09:40:09.000Z</time>
      </trkpt>
      <trkpt lat="43.66829" lon="3.83584">
        <ele>81.79500032</ele>
        <time>2020-09-26T09:40:10.000Z</time>
      </trkpt>
      <trkpt lat="43.66827" lon="3.83584">
        <ele>81.89500032</ele>
        <time>2020-09-26T09:40:11.000Z</time>
      </trkpt>
      <trkpt lat="43.66826" lon="3.83585">
        <ele>81.99500032</ele>
        <time>2020-09-26T09:40:12.000Z</time>
      </trkpt>
      <trkpt lat="43.66824" lon="3.83586">
        <ele>82.18962127609</ele>
        <time>2020-09-26T09:40:13.000Z</time>
      </trkpt>
      <trkpt lat="43.66821" lon="3.83587">
        <ele>82.588822617918</ele>
        <time>2020-09-26T09:40:15.000Z</time>
      </trkpt>
      <trkpt lat="43.66818" lon="3.83588">
        <ele>82.988023959745</ele>
        <time>2020-09-26T09:40:17.000Z</time>
      </trkpt>
      <trkpt lat="43.66814" lon="3.83589">
        <ele>83.387225301573</ele>
        <time>2020-09-26T09:40:19.000Z</time>
      </trkpt>
      <trkpt lat="43.66812" lon="3.8359">
        <ele>83.7864266434</ele>
        <time>2020-09-26T09:40:21.000Z</time>
      </trkpt>
      <trkpt lat="43.66809" lon="3.83591">
        <ele>84.186185485907</ele>
        <time>2020-09-26T09:40:23.000Z</time>
      </trkpt>
      <trkpt lat="43.66806" lon="3.83591">
        <ele>84.586585758051</ele>
        <time>2020-09-26T09:40:25.000Z</time>
      </trkpt>
      <trkpt lat="43.66803" lon="3.83591">
        <ele>84.986986030195</ele>
        <time>2020-09-26T09:40:27.000Z</time>
      </trkpt>
      <trkpt lat="43.66801" lon="3.83593">
        <ele>85.387386302339</ele>
        <time>2020-09-26T09:40:29.000Z</time>
      </trkpt>
      <trkpt lat="43.66798" lon="3.83594">
        <ele>85.787786574483</ele>
        <time>2020-09-26T09:40:31.000Z</time>
      </trkpt>
      <trkpt lat="43.66795" lon="3.83593">
        <ele>86.188187087747</ele>
        <time>2020-09-26T09:40:33.000Z</time>
      </trkpt>
      <trkpt lat="43.66792" lon="3.83593">
        <ele>86.588587872917</ele>
        <time>2020-09-26T09:40:35.000Z</time>
      </trkpt>
      <trkpt lat="43.6679" lon="3.83593">
        <ele>86.988988658087</ele>
        <time>2020-09-26T09:40:37.000Z</time>
      </trkpt>
      <trkpt lat="43.66787" lon="3.83593">
        <ele>87.389389443257</ele>
        <time>2020-09-26T09:40:39.000Z</time>
      </trkpt>
      <trkpt lat="43.66784" lon="3.83593">
        <ele>87.789790228427</ele>
        <time>2020-09-26T09:40:41.000Z</time>
      </trkpt>
      <trkpt lat="43.66781" lon="3.83594">
        <ele>88.19000064</ele>
        <time>2020-09-26T09:40:43.000Z</time>
      </trkpt>
      <trkpt lat="43.66778" lon="3.83593">
        <ele>88.59000064</ele>
        <time>2020-09-26T09:40:45.000Z</time>
      </trkpt>
      <trkpt lat="43.66775" lon="3.83593">
        <ele>88.99000064</ele>
        <time>2020-09-26T09:40:47.000Z</time>
      </trkpt>
      <trkpt lat="43.66771" lon="3.83592">
        <ele>89.39000064</ele>
        <time>2020-09-26T09:40:49.000Z</time>
      </trkpt>
      <trkpt lat="43.66768" lon="3.8359">
        <ele>89.79000064</ele>
        <time>2020-09-26T09:40:51.000Z</time>
      </trkpt>
      <trkpt lat="43.66765" lon="3.83589">
        <ele>90.09500032</ele>
        <time>2020-09-26T09:40:53.000Z</time>
      </trkpt>
      <trkpt lat="43.66762" lon="3.83586">
        <ele>90.29500032</ele>
        <time>2020-09-26T09:40:55.000Z</time>
      </trkpt>
      <trkpt lat="43.66761" lon="3.83585">
        <ele>90.39500032</ele>
        <time>2020-09-26T09:40:56.000Z</time>
      </trkpt>
      <trkpt lat="43.66758" lon="3.83582">
        <ele>90.59500032</ele>
        <time>2020-09-26T09:40:58.000Z</time>
      </trkpt>
      <trkpt lat="43.66756" lon="3.83579">
        <ele>90.79500032</ele>
        <time>2020-09-26T09:41:00.000Z</time>
      </trkpt>
      <trkpt lat="43.66754" lon="3.83577">
        <ele>90.89500032</ele>
        <time>2020-09-26T09:41:01.000Z</time>
      </trkpt>
      <trkpt lat="43.66753" lon="3.83575">
        <ele>90.99500032</ele>
        <time>2020-09-26T09:41:02.000Z</time>
      </trkpt>
      <trkpt lat="43.66752" lon="3.83572">
        <ele>91.090649160305</ele>
        <time>2020-09-26T09:41:03.000Z</time>
      </trkpt>
      <trkpt lat="43.66751" lon="3.83569">
        <ele>91.186069007634</ele>
        <time>2020-09-26T09:41:04.000Z</time>
      </trkpt>
      <trkpt lat="43.6675" lon="3.83566">
        <ele>91.281488854962</ele>
        <time>2020-09-26T09:41:05.000Z</time>
      </trkpt>
      <trkpt lat="43.66749" lon="3.83561">
        <ele>91.37690870229</ele>
        <time>2020-09-26T09:41:06.000Z</time>
      </trkpt>
      <trkpt lat="43.66747" lon="3.83557">
        <ele>91.472328549618</ele>
        <time>2020-09-26T09:41:07.000Z</time>
      </trkpt>
      <trkpt lat="43.66746" lon="3.83553">
        <ele>91.567748396947</ele>
        <time>2020-09-26T09:41:08.000Z</time>
      </trkpt>
      <trkpt lat="43.66745" lon="3.8355">
        <ele>91.663168244275</ele>
        <time>2020-09-26T09:41:09.000Z</time>
      </trkpt>
      <trkpt lat="43.66744" lon="3.83546">
        <ele>91.758588091603</ele>
        <time>2020-09-26T09:41:10.000Z</time>
      </trkpt>
      <trkpt lat="43.66743" lon="3.83543">
        <ele>91.854007938931</ele>
        <time>2020-09-26T09:41:11.000Z</time>
      </trkpt>
      <trkpt lat="43.66742" lon="3.8354">
        <ele>91.94942778626</ele>
        <time>2020-09-26T09:41:12.000Z</time>
      </trkpt>
      <trkpt lat="43.66741" lon="3.83537">
        <ele>92</ele>
        <time>2020-09-26T09:41:13.000Z</time>
      </trkpt>
      <trkpt lat="43.66741" lon="3.83534">
        <ele>92</ele>
        <time>2020-09-26T09:41:14.000Z</time>
      </trkpt>
      <trkpt lat="43.6674" lon="3.83531">
        <ele>92</ele>
        <time>2020-09-26T09:41:15.000Z</time>
      </trkpt>
      <trkpt lat="43.6674" lon="3.83528">
        <ele>92</ele>
        <time>2020-09-26T09:41:16.000Z</time>
      </trkpt>
      <trkpt lat="43.6674" lon="3.83525">
        <ele>92</ele>
        <time>2020-09-26T09:41:17.000Z</time>
      </trkpt>
      <trkpt lat="43.6674" lon="3.83522">
        <ele>92</ele>
        <time>2020-09-26T09:41:18.000Z</time>
      </trkpt>
      <trkpt lat="43.66739" lon="3.83519">
        <ele>92</ele>
        <time>2020-09-26T09:41:19.000Z</time>
      </trkpt>
      <trkpt lat="43.66739" lon="3.83516">
        <ele>92</ele>
        <time>2020-09-26T09:41:20.000Z</time>
      </trkpt>
      <trkpt lat="43.66739" lon="3.83513">
        <ele>92</ele>
        <time>2020-09-26T09:41:21.000Z</time>
      </trkpt>
      <trkpt lat="43.66738" lon="3.8351">
        <ele>92</ele>
        <time>2020-09-26T09:41:22.000Z</time>
      </trkpt>
      <trkpt lat="43.66738" lon="3.83507">
        <ele>92.094716141267</ele>
        <time>2020-09-26T09:41:23.000Z</time>
      </trkpt>
      <trkpt lat="43.66738" lon="3.83504">
        <ele>92.194417006766</ele>
        <time>2020-09-26T09:41:24.000Z</time>
      </trkpt>
      <trkpt lat="43.66737" lon="3.835">
        <ele>92.294117872266</ele>
        <time>2020-09-26T09:41:25.000Z</time>
      </trkpt>
      <trkpt lat="43.66737" lon="3.83497">
        <ele>92.393818737765</ele>
        <time>2020-09-26T09:41:26.000Z</time>
      </trkpt>
      <trkpt lat="43.66736" lon="3.83494">
        <ele>92.493519603264</ele>
        <time>2020-09-26T09:41:27.000Z</time>
      </trkpt>
      <trkpt lat="43.66736" lon="3.83491">
        <ele>92.593220468763</ele>
        <time>2020-09-26T09:41:28.000Z</time>
      </trkpt>
      <trkpt lat="43.66735" lon="3.83488">
        <ele>92.692921334262</ele>
        <time>2020-09-26T09:41:29.000Z</time>
      </trkpt>
      <trkpt lat="43.66734" lon="3.83485">
        <ele>92.792622199762</ele>
        <time>2020-09-26T09:41:30.000Z</time>
      </trkpt>
      <trkpt lat="43.66734" lon="3.83482">
        <ele>92.892323065261</ele>
        <time>2020-09-26T09:41:31.000Z</time>
      </trkpt>
      <trkpt lat="43.66733" lon="3.83478">
        <ele>92.99202393076</ele>
        <time>2020-09-26T09:41:32.000Z</time>
      </trkpt>
      <trkpt lat="43.66733" lon="3.83475">
        <ele>93</ele>
        <time>2020-09-26T09:41:33.000Z</time>
      </trkpt>
      <trkpt lat="43.66732" lon="3.83472">
        <ele>93</ele>
        <time>2020-09-26T09:41:34.000Z</time>
      </trkpt>
      <trkpt lat="43.66732" lon="3.83469">
        <ele>93</ele>
        <time>2020-09-26T09:41:35.000Z</time>
      </trkpt>
      <trkpt lat="43.66731" lon="3.83465">
        <ele>93</ele>
        <time>2020-09-26T09:41:37.000Z</time>
      </trkpt>
      <trkpt lat="43.66731" lon="3.83462">
        <ele>93</ele>
        <time>2020-09-26T09:41:39.000Z</time>
      </trkpt>
      <trkpt lat="43.66731" lon="3.83458">
        <ele>93</ele>
        <time>2020-09-26T09:41:41.000Z</time>
      </trkpt>
      <trkpt lat="43.66731" lon="3.83456">
        <ele>93</ele>
        <time>2020-09-26T09:41:42.000Z</time>
      </trkpt>
      <trkpt lat="43.66731" lon="3.83452">
        <ele>93.09500032</ele>
        <time>2020-09-26T09:41:43.000Z</time>
      </trkpt>
      <trkpt lat="43.66732" lon="3.83449">
        <ele>93.19500032</ele>
        <time>2020-09-26T09:41:44.000Z</time>
      </trkpt>
      <trkpt lat="43.66732" lon="3.83445">
        <ele>93.29500032</ele>
        <time>2020-09-26T09:41:45.000Z</time>
      </trkpt>
      <trkpt lat="43.66732" lon="3.83441">
        <ele>93.39500032</ele>
        <time>2020-09-26T09:41:46.000Z</time>
      </trkpt>
      <trkpt lat="43.66732" lon="3.83438">
        <ele>93.49500032</ele>
        <time>2020-09-26T09:41:47.000Z</time>
      </trkpt>
      <trkpt lat="43.66732" lon="3.83434">
        <ele>93.59500032</ele>
        <time>2020-09-26T09:41:48.000Z</time>
      </trkpt>
      <trkpt lat="43.66733" lon="3.8343">
        <ele>93.69500032</ele>
        <time>2020-09-26T09:41:49.000Z</time>
      </trkpt>
      <trkpt lat="43.66733" lon="3.83426">
        <ele>93.79500032</ele>
        <time>2020-09-26T09:41:50.000Z</time>
      </trkpt>
      <trkpt lat="43.66734" lon="3.83422">
        <ele>93.89500032</ele>
        <time>2020-09-26T09:41:51.000Z</time>
      </trkpt>
      <trkpt lat="43.66734" lon="3.83419">
        <ele>93.99500032</ele>
        <time>2020-09-26T09:41:52.000Z</time>
      </trkpt>
      <trkpt lat="43.66735" lon="3.83415">
        <ele>94</ele>
        <time>2020-09-26T09:41:53.000Z</time>
      </trkpt>
      <trkpt lat="43.66736" lon="3.83411">
        <ele>94</ele>
        <time>2020-09-26T09:41:54.000Z</time>
      </trkpt>
      <trkpt lat="43.66736" lon="3.83407">
        <ele>94</ele>
        <time>2020-09-26T09:41:55.000Z</time>
      </trkpt>
      <trkpt lat="43.66737" lon="3.83403">
        <ele>94</ele>
        <time>2020-09-26T09:41:56.000Z</time>
      </trkpt>
      <trkpt lat="43.66737" lon="3.83399">
        <ele>94</ele>
        <time>2020-09-26T09:41:57.000Z</time>
      </trkpt>
      <trkpt lat="43.66738" lon="3.83396">
        <ele>94</ele>
        <time>2020-09-26T09:41:58.000Z</time>
      </trkpt>
      <trkpt lat="43.66739" lon="3.83392">
        <ele>94</ele>
        <time>2020-09-26T09:41:59.000Z</time>
      </trkpt>
      <trkpt lat="43.6674" lon="3.83389">
        <ele>94</ele>
        <time>2020-09-26T09:42:00.000Z</time>
      </trkpt>
      <trkpt lat="43.66742" lon="3.83386">
        <ele>94</ele>
        <time>2020-09-26T09:42:01.000Z</time>
      </trkpt>
      <trkpt lat="43.66743" lon="3.83382">
        <ele>94</ele>
        <time>2020-09-26T09:42:02.000Z</time>
      </trkpt>
      <trkpt lat="43.66744" lon="3.8338">
        <ele>94.094621832669</ele>
        <time>2020-09-26T09:42:03.000Z</time>
      </trkpt>
      <trkpt lat="43.66746" lon="3.83377">
        <ele>94.194223426295</ele>
        <time>2020-09-26T09:42:04.000Z</time>
      </trkpt>
      <trkpt lat="43.66748" lon="3.83374">
        <ele>94.29382501992</ele>
        <time>2020-09-26T09:42:05.000Z</time>
      </trkpt>
      <trkpt lat="43.66749" lon="3.83371">
        <ele>94.393426613546</ele>
        <time>2020-09-26T09:42:06.000Z</time>
      </trkpt>
      <trkpt lat="43.66751" lon="3.83369">
        <ele>94.493028207171</ele>
        <time>2020-09-26T09:42:07.000Z</time>
      </trkpt>
      <trkpt lat="43.66752" lon="3.83366">
        <ele>94.592629800797</ele>
        <time>2020-09-26T09:42:08.000Z</time>
      </trkpt>
      <trkpt lat="43.66754" lon="3.83364">
        <ele>94.692231394422</ele>
        <time>2020-09-26T09:42:09.000Z</time>
      </trkpt>
      <trkpt lat="43.66755" lon="3.83361">
        <ele>94.791832988048</ele>
        <time>2020-09-26T09:42:10.000Z</time>
      </trkpt>
      <trkpt lat="43.66756" lon="3.83359">
        <ele>94.891434581673</ele>
        <time>2020-09-26T09:42:11.000Z</time>
      </trkpt>
      <trkpt lat="43.66757" lon="3.83356">
        <ele>94.991036175299</ele>
        <time>2020-09-26T09:42:12.000Z</time>
      </trkpt>
      <trkpt lat="43.66758" lon="3.83354">
        <ele>95.091182626897</ele>
        <time>2020-09-26T09:42:13.000Z</time>
      </trkpt>
      <trkpt lat="43.66759" lon="3.83351">
        <ele>95.191382963442</ele>
        <time>2020-09-26T09:42:14.000Z</time>
      </trkpt>
      <trkpt lat="43.6676" lon="3.83349">
        <ele>95.291583299987</ele>
        <time>2020-09-26T09:42:15.000Z</time>
      </trkpt>
      <trkpt lat="43.66761" lon="3.83346">
        <ele>95.391783636531</ele>
        <time>2020-09-26T09:42:16.000Z</time>
      </trkpt>
      <trkpt lat="43.66761" lon="3.83344">
        <ele>95.491983973076</ele>
        <time>2020-09-26T09:42:17.000Z</time>
      </trkpt>
      <trkpt lat="43.66762" lon="3.83341">
        <ele>95.592184309621</ele>
        <time>2020-09-26T09:42:18.000Z</time>
      </trkpt>
      <trkpt lat="43.66763" lon="3.83339">
        <ele>95.692384646166</ele>
        <time>2020-09-26T09:42:19.000Z</time>
      </trkpt>
      <trkpt lat="43.66763" lon="3.83336">
        <ele>95.792584982711</ele>
        <time>2020-09-26T09:42:20.000Z</time>
      </trkpt>
      <trkpt lat="43.66765" lon="3.83331">
        <ele>95.992985655801</ele>
        <time>2020-09-26T09:42:22.000Z</time>
      </trkpt>
      <trkpt lat="43.66765" lon="3.83329">
        <ele>96.093186111863</ele>
        <time>2020-09-26T09:42:23.000Z</time>
      </trkpt>
      <trkpt lat="43.66766" lon="3.83326">
        <ele>96.193386576921</ele>
        <time>2020-09-26T09:42:24.000Z</time>
      </trkpt>
      <trkpt lat="43.66767" lon="3.83324">
        <ele>96.29358704198</ele>
        <time>2020-09-26T09:42:25.000Z</time>
      </trkpt>
      <trkpt lat="43.66768" lon="3.83322">
        <ele>96.393787507038</ele>
        <time>2020-09-26T09:42:26.000Z</time>
      </trkpt>
      <trkpt lat="43.66768" lon="3.83319">
        <ele>96.493987972097</ele>
        <time>2020-09-26T09:42:27.000Z</time>
      </trkpt>
      <trkpt lat="43.66769" lon="3.83314">
        <ele>96.694388902213</ele>
        <time>2020-09-26T09:42:29.000Z</time>
      </trkpt>
      <trkpt lat="43.66769" lon="3.8331">
        <ele>96.89478983233</ele>
        <time>2020-09-26T09:42:31.000Z</time>
      </trkpt>
      <trkpt lat="43.6677" lon="3.83305">
        <ele>97.189810647135</ele>
        <time>2020-09-26T09:42:33.000Z</time>
      </trkpt>
      <trkpt lat="43.66769" lon="3.833">
        <ele>97.589410663502</ele>
        <time>2020-09-26T09:42:35.000Z</time>
      </trkpt>
      <trkpt lat="43.66768" lon="3.83296">
        <ele>97.98901067987</ele>
        <time>2020-09-26T09:42:37.000Z</time>
      </trkpt>
      <trkpt lat="43.66767" lon="3.83291">
        <ele>98.388610696238</ele>
        <time>2020-09-26T09:42:39.000Z</time>
      </trkpt>
      <trkpt lat="43.66767" lon="3.83288">
        <ele>98.788210712605</ele>
        <time>2020-09-26T09:42:41.000Z</time>
      </trkpt>
      <trkpt lat="43.66766" lon="3.83285">
        <ele>99.094093543874</ele>
        <time>2020-09-26T09:42:43.000Z</time>
      </trkpt>
      <trkpt lat="43.66766" lon="3.83282">
        <ele>99.294293936459</ele>
        <time>2020-09-26T09:42:45.000Z</time>
      </trkpt>
      <trkpt lat="43.66766" lon="3.83279">
        <ele>99.494494329044</ele>
        <time>2020-09-26T09:42:47.000Z</time>
      </trkpt>
      <trkpt lat="43.66765" lon="3.83276">
        <ele>99.694694721629</ele>
        <time>2020-09-26T09:42:49.000Z</time>
      </trkpt>
      <trkpt lat="43.66763" lon="3.83272">
        <ele>99.894895114213</ele>
        <time>2020-09-26T09:42:51.000Z</time>
      </trkpt>
      <trkpt lat="43.66761" lon="3.83269">
        <ele>100.09500032</ele>
        <time>2020-09-26T09:42:53.000Z</time>
      </trkpt>
      <trkpt lat="43.66759" lon="3.83266">
        <ele>100.29500032</ele>
        <time>2020-09-26T09:42:55.000Z</time>
      </trkpt>
      <trkpt lat="43.66758" lon="3.83263">
        <ele>100.49500032</ele>
        <time>2020-09-26T09:42:57.000Z</time>
      </trkpt>
      <trkpt lat="43.66758" lon="3.8326">
        <ele>100.69500032</ele>
        <time>2020-09-26T09:42:59.000Z</time>
      </trkpt>
      <trkpt lat="43.66757" lon="3.83255">
        <ele>100.89500032</ele>
        <time>2020-09-26T09:43:01.000Z</time>
      </trkpt>
      <trkpt lat="43.66757" lon="3.83253">
        <ele>100.99500032</ele>
        <time>2020-09-26T09:43:02.000Z</time>
      </trkpt>
      <trkpt lat="43.66757" lon="3.8325">
        <ele>101.19000064</ele>
        <time>2020-09-26T09:43:03.000Z</time>
      </trkpt>
      <trkpt lat="43.66757" lon="3.83248">
        <ele>101.39000064</ele>
        <time>2020-09-26T09:43:04.000Z</time>
      </trkpt>
      <trkpt lat="43.66756" lon="3.83244">
        <ele>101.79000064</ele>
        <time>2020-09-26T09:43:06.000Z</time>
      </trkpt>
      <trkpt lat="43.66754" lon="3.83239">
        <ele>102.19000064</ele>
        <time>2020-09-26T09:43:08.000Z</time>
      </trkpt>
      <trkpt lat="43.66753" lon="3.83235">
        <ele>102.59000064</ele>
        <time>2020-09-26T09:43:10.000Z</time>
      </trkpt>
      <trkpt lat="43.66751" lon="3.83232">
        <ele>102.99000064</ele>
        <time>2020-09-26T09:43:12.000Z</time>
      </trkpt>
      <trkpt lat="43.6675" lon="3.83228">
        <ele>103.39000064</ele>
        <time>2020-09-26T09:43:14.000Z</time>
      </trkpt>
      <trkpt lat="43.66748" lon="3.83224">
        <ele>103.79000064</ele>
        <time>2020-09-26T09:43:16.000Z</time>
      </trkpt>
      <trkpt lat="43.66746" lon="3.83221">
        <ele>104.19000064</ele>
        <time>2020-09-26T09:43:18.000Z</time>
      </trkpt>
      <trkpt lat="43.66745" lon="3.83217">
        <ele>104.59000064</ele>
        <time>2020-09-26T09:43:20.000Z</time>
      </trkpt>
      <trkpt lat="43.66744" lon="3.83213">
        <ele>104.99000064</ele>
        <time>2020-09-26T09:43:22.000Z</time>
      </trkpt>
      <trkpt lat="43.66743" lon="3.83209">
        <ele>105.39000064</ele>
        <time>2020-09-26T09:43:24.000Z</time>
      </trkpt>
      <trkpt lat="43.66741" lon="3.83205">
        <ele>105.79000064</ele>
        <time>2020-09-26T09:43:26.000Z</time>
      </trkpt>
      <trkpt lat="43.6674" lon="3.83201">
        <ele>106.19000064</ele>
        <time>2020-09-26T09:43:28.000Z</time>
      </trkpt>
      <trkpt lat="43.66739" lon="3.83198">
        <ele>106.59000064</ele>
        <time>2020-09-26T09:43:30.000Z</time>
      </trkpt>
      <trkpt lat="43.66738" lon="3.83194">
        <ele>106.99000064</ele>
        <time>2020-09-26T09:43:32.000Z</time>
      </trkpt>
      <trkpt lat="43.66738" lon="3.83189">
        <ele>107.39000064</ele>
        <time>2020-09-26T09:43:34.000Z</time>
      </trkpt>
      <trkpt lat="43.66738" lon="3.83185">
        <ele>107.79000064</ele>
        <time>2020-09-26T09:43:36.000Z</time>
      </trkpt>
      <trkpt lat="43.66738" lon="3.83181">
        <ele>108.19000064</ele>
        <time>2020-09-26T09:43:38.000Z</time>
      </trkpt>
      <trkpt lat="43.66738" lon="3.83177">
        <ele>108.59000064</ele>
        <time>2020-09-26T09:43:40.000Z</time>
      </trkpt>
      <trkpt lat="43.66737" lon="3.83174">
        <ele>108.99000064</ele>
        <time>2020-09-26T09:43:42.000Z</time>
      </trkpt>
      <trkpt lat="43.66737" lon="3.8317">
        <ele>109.19500032</ele>
        <time>2020-09-26T09:43:44.000Z</time>
      </trkpt>
      <trkpt lat="43.66736" lon="3.83166">
        <ele>109.39500032</ele>
        <time>2020-09-26T09:43:46.000Z</time>
      </trkpt>
      <trkpt lat="43.66735" lon="3.83162">
        <ele>109.59500032</ele>
        <time>2020-09-26T09:43:48.000Z</time>
      </trkpt>
      <trkpt lat="43.66735" lon="3.83158">
        <ele>109.79500032</ele>
        <time>2020-09-26T09:43:50.000Z</time>
      </trkpt>
      <trkpt lat="43.66734" lon="3.83154">
        <ele>109.99500032</ele>
        <time>2020-09-26T09:43:52.000Z</time>
      </trkpt>
      <trkpt lat="43.66734" lon="3.83151">
        <ele>110.42253575817</ele>
        <time>2020-09-26T09:43:54.000Z</time>
      </trkpt>
      <trkpt lat="43.66733" lon="3.83148">
        <ele>110.85590505537</ele>
        <time>2020-09-26T09:43:56.000Z</time>
      </trkpt>
      <trkpt lat="43.66732" lon="3.83147">
        <ele>111.93932829839</ele>
        <time>2020-09-26T09:44:01.000Z</time>
      </trkpt>
      <trkpt lat="43.6673" lon="3.83144">
        <ele>112.03505090972</ele>
        <time>2020-09-26T09:44:05.000Z</time>
      </trkpt>
      <trkpt lat="43.6673" lon="3.83143">
        <ele>112.24123661277</ele>
        <time>2020-09-26T09:44:06.000Z</time>
      </trkpt>
      <trkpt lat="43.6673" lon="3.83144">
        <ele>113</ele>
        <time>2020-09-26T09:44:10.000Z</time>
      </trkpt>
      <trkpt lat="43.66726" lon="3.83143">
        <ele>113</ele>
        <time>2020-09-26T09:44:14.000Z</time>
      </trkpt>
      <trkpt lat="43.66722" lon="3.83142">
        <ele>113.12972977461</ele>
        <time>2020-09-26T09:44:16.000Z</time>
      </trkpt>
      <trkpt lat="43.6672" lon="3.83141">
        <ele>113.23783792012</ele>
        <time>2020-09-26T09:44:17.000Z</time>
      </trkpt>
      <trkpt lat="43.66718" lon="3.83141">
        <ele>113.34594606563</ele>
        <time>2020-09-26T09:44:18.000Z</time>
      </trkpt>
      <trkpt lat="43.66716" lon="3.8314">
        <ele>113.45405421113</ele>
        <time>2020-09-26T09:44:19.000Z</time>
      </trkpt>
      <trkpt lat="43.66715" lon="3.8314">
        <ele>113.56216235664</ele>
        <time>2020-09-26T09:44:20.000Z</time>
      </trkpt>
      <trkpt lat="43.66711" lon="3.8314">
        <ele>113.77837864766</ele>
        <time>2020-09-26T09:44:22.000Z</time>
      </trkpt>
      <trkpt lat="43.66708" lon="3.83139">
        <ele>113.99459493867</ele>
        <time>2020-09-26T09:44:24.000Z</time>
      </trkpt>
      <trkpt lat="43.66705" lon="3.83139">
        <ele>114</ele>
        <time>2020-09-26T09:44:26.000Z</time>
      </trkpt>
      <trkpt lat="43.66703" lon="3.83139">
        <ele>114</ele>
        <time>2020-09-26T09:44:27.000Z</time>
      </trkpt>
      <trkpt lat="43.66699" lon="3.83139">
        <ele>114</ele>
        <time>2020-09-26T09:44:29.000Z</time>
      </trkpt>
      <trkpt lat="43.66698" lon="3.83139">
        <ele>114</ele>
        <time>2020-09-26T09:44:30.000Z</time>
      </trkpt>
      <trkpt lat="43.66694" lon="3.8314">
        <ele>114</ele>
        <time>2020-09-26T09:44:32.000Z</time>
      </trkpt>
      <trkpt lat="43.66691" lon="3.8314">
        <ele>114</ele>
        <time>2020-09-26T09:44:34.000Z</time>
      </trkpt>
      <trkpt lat="43.66687" lon="3.8314">
        <ele>114.17078232654</ele>
        <time>2020-09-26T09:44:36.000Z</time>
      </trkpt>
      <trkpt lat="43.66686" lon="3.8314">
        <ele>114.2736628495</ele>
        <time>2020-09-26T09:44:37.000Z</time>
      </trkpt>
      <trkpt lat="43.66684" lon="3.8314">
        <ele>114.37654337245</ele>
        <time>2020-09-26T09:44:38.000Z</time>
      </trkpt>
      <trkpt lat="43.66682" lon="3.83141">
        <ele>114.47942389541</ele>
        <time>2020-09-26T09:44:39.000Z</time>
      </trkpt>
      <trkpt lat="43.6668" lon="3.83141">
        <ele>114.58230441836</ele>
        <time>2020-09-26T09:44:40.000Z</time>
      </trkpt>
      <trkpt lat="43.66677" lon="3.83141">
        <ele>114.68518494132</ele>
        <time>2020-09-26T09:44:41.000Z</time>
      </trkpt>
      <trkpt lat="43.66675" lon="3.83142">
        <ele>114.78806546428</ele>
        <time>2020-09-26T09:44:42.000Z</time>
      </trkpt>
      <trkpt lat="43.66672" lon="3.83142">
        <ele>114.89094598723</ele>
        <time>2020-09-26T09:44:43.000Z</time>
      </trkpt>
      <trkpt lat="43.6667" lon="3.83142">
        <ele>114.99382651019</ele>
        <time>2020-09-26T09:44:44.000Z</time>
      </trkpt>
      <trkpt lat="43.66668" lon="3.83143">
        <ele>115</ele>
        <time>2020-09-26T09:44:45.000Z</time>
      </trkpt>
      <trkpt lat="43.66665" lon="3.83144">
        <ele>115</ele>
        <time>2020-09-26T09:44:46.000Z</time>
      </trkpt>
      <trkpt lat="43.66663" lon="3.83144">
        <ele>115</ele>
        <time>2020-09-26T09:44:47.000Z</time>
      </trkpt>
      <trkpt lat="43.66661" lon="3.83144">
        <ele>115</ele>
        <time>2020-09-26T09:44:48.000Z</time>
      </trkpt>
      <trkpt lat="43.66659" lon="3.83145">
        <ele>115</ele>
        <time>2020-09-26T09:44:49.000Z</time>
      </trkpt>
      <trkpt lat="43.66657" lon="3.83145">
        <ele>115</ele>
        <time>2020-09-26T09:44:50.000Z</time>
      </trkpt>
      <trkpt lat="43.66655" lon="3.83145">
        <ele>115</ele>
        <time>2020-09-26T09:44:51.000Z</time>
      </trkpt>
      <trkpt lat="43.66653" lon="3.83145">
        <ele>115</ele>
        <time>2020-09-26T09:44:52.000Z</time>
      </trkpt>
      <trkpt lat="43.66651" lon="3.83145">
        <ele>115</ele>
        <time>2020-09-26T09:44:53.000Z</time>
      </trkpt>
      <trkpt lat="43.66649" lon="3.83145">
        <ele>115</ele>
        <time>2020-09-26T09:44:54.000Z</time>
      </trkpt>
      <trkpt lat="43.66647" lon="3.83145">
        <ele>115.09500032</ele>
        <time>2020-09-26T09:44:55.000Z</time>
      </trkpt>
      <trkpt lat="43.66645" lon="3.83145">
        <ele>115.19500032</ele>
        <time>2020-09-26T09:44:56.000Z</time>
      </trkpt>
      <trkpt lat="43.66643" lon="3.83144">
        <ele>115.29500032</ele>
        <time>2020-09-26T09:44:57.000Z</time>
      </trkpt>
      <trkpt lat="43.6664" lon="3.83143">
        <ele>115.49500032</ele>
        <time>2020-09-26T09:44:59.000Z</time>
      </trkpt>
      <trkpt lat="43.66637" lon="3.8314">
        <ele>115.69500032</ele>
        <time>2020-09-26T09:45:01.000Z</time>
      </trkpt>
      <trkpt lat="43.66636" lon="3.83138">
        <ele>115.79500032</ele>
        <time>2020-09-26T09:45:02.000Z</time>
      </trkpt>
      <trkpt lat="43.66635" lon="3.83135">
        <ele>115.89500032</ele>
        <time>2020-09-26T09:45:03.000Z</time>
      </trkpt>
      <trkpt lat="43.66634" lon="3.83131">
        <ele>115.99500032</ele>
        <time>2020-09-26T09:45:04.000Z</time>
      </trkpt>
      <trkpt lat="43.66634" lon="3.83127">
        <ele>116.09268315222</ele>
        <time>2020-09-26T09:45:05.000Z</time>
      </trkpt>
      <trkpt lat="43.66634" lon="3.83123">
        <ele>116.19024403645</ele>
        <time>2020-09-26T09:45:06.000Z</time>
      </trkpt>
      <trkpt lat="43.66635" lon="3.83119">
        <ele>116.28780492069</ele>
        <time>2020-09-26T09:45:07.000Z</time>
      </trkpt>
      <trkpt lat="43.66636" lon="3.83115">
        <ele>116.38536580493</ele>
        <time>2020-09-26T09:45:08.000Z</time>
      </trkpt>
      <trkpt lat="43.66637" lon="3.83111">
        <ele>116.48292668916</ele>
        <time>2020-09-26T09:45:09.000Z</time>
      </trkpt>
      <trkpt lat="43.66637" lon="3.83108">
        <ele>116.5804875734</ele>
        <time>2020-09-26T09:45:10.000Z</time>
      </trkpt>
      <trkpt lat="43.66638" lon="3.83105">
        <ele>116.67804845763</ele>
        <time>2020-09-26T09:45:11.000Z</time>
      </trkpt>
      <trkpt lat="43.66638" lon="3.83101">
        <ele>116.77560934187</ele>
        <time>2020-09-26T09:45:12.000Z</time>
      </trkpt>
      <trkpt lat="43.66639" lon="3.83097">
        <ele>116.8731702261</ele>
        <time>2020-09-26T09:45:13.000Z</time>
      </trkpt>
      <trkpt lat="43.6664" lon="3.83094">
        <ele>116.97073111034</ele>
        <time>2020-09-26T09:45:14.000Z</time>
      </trkpt>
      <trkpt lat="43.6664" lon="3.8309">
        <ele>117</ele>
        <time>2020-09-26T09:45:15.000Z</time>
      </trkpt>
      <trkpt lat="43.6664" lon="3.83086">
        <ele>117</ele>
        <time>2020-09-26T09:45:16.000Z</time>
      </trkpt>
      <trkpt lat="43.66641" lon="3.83082">
        <ele>117</ele>
        <time>2020-09-26T09:45:17.000Z</time>
      </trkpt>
      <trkpt lat="43.66642" lon="3.83078">
        <ele>117</ele>
        <time>2020-09-26T09:45:18.000Z</time>
      </trkpt>
      <trkpt lat="43.66643" lon="3.83075">
        <ele>117</ele>
        <time>2020-09-26T09:45:19.000Z</time>
      </trkpt>
      <trkpt lat="43.66643" lon="3.83071">
        <ele>117</ele>
        <time>2020-09-26T09:45:20.000Z</time>
      </trkpt>
      <trkpt lat="43.66644" lon="3.83068">
        <ele>117</ele>
        <time>2020-09-26T09:45:21.000Z</time>
      </trkpt>
      <trkpt lat="43.66645" lon="3.83064">
        <ele>117</ele>
        <time>2020-09-26T09:45:22.000Z</time>
      </trkpt>
      <trkpt lat="43.66645" lon="3.8306">
        <ele>117</ele>
        <time>2020-09-26T09:45:23.000Z</time>
      </trkpt>
      <trkpt lat="43.66646" lon="3.83057">
        <ele>117</ele>
        <time>2020-09-26T09:45:24.000Z</time>
      </trkpt>
      <trkpt lat="43.66647" lon="3.83053">
        <ele>117</ele>
        <time>2020-09-26T09:45:25.000Z</time>
      </trkpt>
      <trkpt lat="43.66647" lon="3.83049">
        <ele>117</ele>
        <time>2020-09-26T09:45:26.000Z</time>
      </trkpt>
      <trkpt lat="43.66646" lon="3.83046">
        <ele>117</ele>
        <time>2020-09-26T09:45:27.000Z</time>
      </trkpt>
      <trkpt lat="43.66646" lon="3.83042">
        <ele>117</ele>
        <time>2020-09-26T09:45:28.000Z</time>
      </trkpt>
      <trkpt lat="43.66646" lon="3.83038">
        <ele>117</ele>
        <time>2020-09-26T09:45:29.000Z</time>
      </trkpt>
      <trkpt lat="43.66645" lon="3.83034">
        <ele>117</ele>
        <time>2020-09-26T09:45:30.000Z</time>
      </trkpt>
      <trkpt lat="43.66645" lon="3.83031">
        <ele>117</ele>
        <time>2020-09-26T09:45:31.000Z</time>
      </trkpt>
      <trkpt lat="43.66644" lon="3.83027">
        <ele>117</ele>
        <time>2020-09-26T09:45:32.000Z</time>
      </trkpt>
      <trkpt lat="43.66644" lon="3.83023">
        <ele>117</ele>
        <time>2020-09-26T09:45:33.000Z</time>
      </trkpt>
      <trkpt lat="43.66643" lon="3.83019">
        <ele>117</ele>
        <time>2020-09-26T09:45:34.000Z</time>
      </trkpt>
      <trkpt lat="43.66642" lon="3.83015">
        <ele>117</ele>
        <time>2020-09-26T09:45:35.000Z</time>
      </trkpt>
      <trkpt lat="43.66642" lon="3.83012">
        <ele>117</ele>
        <time>2020-09-26T09:45:36.000Z</time>
      </trkpt>
      <trkpt lat="43.66641" lon="3.83008">
        <ele>117</ele>
        <time>2020-09-26T09:45:37.000Z</time>
      </trkpt>
      <trkpt lat="43.6664" lon="3.83004">
        <ele>117</ele>
        <time>2020-09-26T09:45:38.000Z</time>
      </trkpt>
      <trkpt lat="43.66639" lon="3.83">
        <ele>117</ele>
        <time>2020-09-26T09:45:39.000Z</time>
      </trkpt>
      <trkpt lat="43.66639" lon="3.82996">
        <ele>117</ele>
        <time>2020-09-26T09:45:40.000Z</time>
      </trkpt>
      <trkpt lat="43.66638" lon="3.82992">
        <ele>117</ele>
        <time>2020-09-26T09:45:41.000Z</time>
      </trkpt>
      <trkpt lat="43.66637" lon="3.82988">
        <ele>117</ele>
        <time>2020-09-26T09:45:42.000Z</time>
      </trkpt>
      <trkpt lat="43.66636" lon="3.82983">
        <ele>117</ele>
        <time>2020-09-26T09:45:43.000Z</time>
      </trkpt>
      <trkpt lat="43.66635" lon="3.82979">
        <ele>117</ele>
        <time>2020-09-26T09:45:44.000Z</time>
      </trkpt>
      <trkpt lat="43.66635" lon="3.82975">
        <ele>116.90499968</ele>
        <time>2020-09-26T09:45:45.000Z</time>
      </trkpt>
      <trkpt lat="43.66634" lon="3.82971">
        <ele>116.80499968</ele>
        <time>2020-09-26T09:45:46.000Z</time>
      </trkpt>
      <trkpt lat="43.66633" lon="3.82966">
        <ele>116.70499968</ele>
        <time>2020-09-26T09:45:47.000Z</time>
      </trkpt>
      <trkpt lat="43.66632" lon="3.82962">
        <ele>116.60499968</ele>
        <time>2020-09-26T09:45:48.000Z</time>
      </trkpt>
      <trkpt lat="43.66631" lon="3.82958">
        <ele>116.50499968</ele>
        <time>2020-09-26T09:45:49.000Z</time>
      </trkpt>
      <trkpt lat="43.6663" lon="3.82954">
        <ele>116.40499968</ele>
        <time>2020-09-26T09:45:50.000Z</time>
      </trkpt>
      <trkpt lat="43.66628" lon="3.82951">
        <ele>116.30499968</ele>
        <time>2020-09-26T09:45:51.000Z</time>
      </trkpt>
      <trkpt lat="43.66627" lon="3.82948">
        <ele>116.20499968</ele>
        <time>2020-09-26T09:45:52.000Z</time>
      </trkpt>
      <trkpt lat="43.66626" lon="3.82945">
        <ele>116.10499968</ele>
        <time>2020-09-26T09:45:53.000Z</time>
      </trkpt>
      <trkpt lat="43.66625" lon="3.82942">
        <ele>116.00499968</ele>
        <time>2020-09-26T09:45:54.000Z</time>
      </trkpt>
      <trkpt lat="43.66624" lon="3.82939">
        <ele>115.90499968</ele>
        <time>2020-09-26T09:45:55.000Z</time>
      </trkpt>
      <trkpt lat="43.66623" lon="3.82936">
        <ele>115.80499968</ele>
        <time>2020-09-26T09:45:56.000Z</time>
      </trkpt>
      <trkpt lat="43.66621" lon="3.82933">
        <ele>115.70499968</ele>
        <time>2020-09-26T09:45:57.000Z</time>
      </trkpt>
      <trkpt lat="43.6662" lon="3.8293">
        <ele>115.60499968</ele>
        <time>2020-09-26T09:45:58.000Z</time>
      </trkpt>
      <trkpt lat="43.66619" lon="3.82926">
        <ele>115.50499968</ele>
        <time>2020-09-26T09:45:59.000Z</time>
      </trkpt>
      <trkpt lat="43.66617" lon="3.82922">
        <ele>115.40499968</ele>
        <time>2020-09-26T09:46:00.000Z</time>
      </trkpt>
      <trkpt lat="43.66616" lon="3.82918">
        <ele>115.30499968</ele>
        <time>2020-09-26T09:46:01.000Z</time>
      </trkpt>
      <trkpt lat="43.66615" lon="3.82914">
        <ele>115.20499968</ele>
        <time>2020-09-26T09:46:02.000Z</time>
      </trkpt>
      <trkpt lat="43.66614" lon="3.82909">
        <ele>115.10499968</ele>
        <time>2020-09-26T09:46:03.000Z</time>
      </trkpt>
      <trkpt lat="43.66614" lon="3.82905">
        <ele>115.00499968</ele>
        <time>2020-09-26T09:46:04.000Z</time>
      </trkpt>
      <trkpt lat="43.66613" lon="3.82901">
        <ele>114.90499968</ele>
        <time>2020-09-26T09:46:05.000Z</time>
      </trkpt>
      <trkpt lat="43.66613" lon="3.82897">
        <ele>114.80499968</ele>
        <time>2020-09-26T09:46:06.000Z</time>
      </trkpt>
      <trkpt lat="43.66613" lon="3.82893">
        <ele>114.70499968</ele>
        <time>2020-09-26T09:46:07.000Z</time>
      </trkpt>
      <trkpt lat="43.66613" lon="3.82889">
        <ele>114.60499968</ele>
        <time>2020-09-26T09:46:08.000Z</time>
      </trkpt>
      <trkpt lat="43.66613" lon="3.82885">
        <ele>114.50499968</ele>
        <time>2020-09-26T09:46:09.000Z</time>
      </trkpt>
      <trkpt lat="43.66613" lon="3.82881">
        <ele>114.40499968</ele>
        <time>2020-09-26T09:46:10.000Z</time>
      </trkpt>
      <trkpt lat="43.66613" lon="3.82877">
        <ele>114.30499968</ele>
        <time>2020-09-26T09:46:11.000Z</time>
      </trkpt>
      <trkpt lat="43.66613" lon="3.82873">
        <ele>114.20499968</ele>
        <time>2020-09-26T09:46:12.000Z</time>
      </trkpt>
      <trkpt lat="43.66613" lon="3.82868">
        <ele>114.10499968</ele>
        <time>2020-09-26T09:46:13.000Z</time>
      </trkpt>
      <trkpt lat="43.66613" lon="3.82864">
        <ele>114.00499968</ele>
        <time>2020-09-26T09:46:14.000Z</time>
      </trkpt>
      <trkpt lat="43.66614" lon="3.8286">
        <ele>114</ele>
        <time>2020-09-26T09:46:15.000Z</time>
      </trkpt>
      <trkpt lat="43.66615" lon="3.82856">
        <ele>114</ele>
        <time>2020-09-26T09:46:16.000Z</time>
      </trkpt>
      <trkpt lat="43.66617" lon="3.82852">
        <ele>114</ele>
        <time>2020-09-26T09:46:17.000Z</time>
      </trkpt>
      <trkpt lat="43.66621" lon="3.82849">
        <ele>114</ele>
        <time>2020-09-26T09:46:18.000Z</time>
      </trkpt>
      <trkpt lat="43.66624" lon="3.82846">
        <ele>114</ele>
        <time>2020-09-26T09:46:19.000Z</time>
      </trkpt>
      <trkpt lat="43.66627" lon="3.82843">
        <ele>114</ele>
        <time>2020-09-26T09:46:20.000Z</time>
      </trkpt>
      <trkpt lat="43.6663" lon="3.8284">
        <ele>114</ele>
        <time>2020-09-26T09:46:21.000Z</time>
      </trkpt>
      <trkpt lat="43.66632" lon="3.82837">
        <ele>114</ele>
        <time>2020-09-26T09:46:22.000Z</time>
      </trkpt>
      <trkpt lat="43.66635" lon="3.82833">
        <ele>114</ele>
        <time>2020-09-26T09:46:23.000Z</time>
      </trkpt>
      <trkpt lat="43.66638" lon="3.8283">
        <ele>114</ele>
        <time>2020-09-26T09:46:24.000Z</time>
      </trkpt>
      <trkpt lat="43.66641" lon="3.82826">
        <ele>114</ele>
        <time>2020-09-26T09:46:25.000Z</time>
      </trkpt>
      <trkpt lat="43.66644" lon="3.82823">
        <ele>114</ele>
        <time>2020-09-26T09:46:26.000Z</time>
      </trkpt>
      <trkpt lat="43.66647" lon="3.8282">
        <ele>114</ele>
        <time>2020-09-26T09:46:27.000Z</time>
      </trkpt>
      <trkpt lat="43.6665" lon="3.82817">
        <ele>114</ele>
        <time>2020-09-26T09:46:28.000Z</time>
      </trkpt>
      <trkpt lat="43.66653" lon="3.82814">
        <ele>114</ele>
        <time>2020-09-26T09:46:29.000Z</time>
      </trkpt>
      <trkpt lat="43.66655" lon="3.82811">
        <ele>114</ele>
        <time>2020-09-26T09:46:30.000Z</time>
      </trkpt>
      <trkpt lat="43.66658" lon="3.82809">
        <ele>114</ele>
        <time>2020-09-26T09:46:31.000Z</time>
      </trkpt>
      <trkpt lat="43.66661" lon="3.82806">
        <ele>114</ele>
        <time>2020-09-26T09:46:32.000Z</time>
      </trkpt>
      <trkpt lat="43.66664" lon="3.82803">
        <ele>114</ele>
        <time>2020-09-26T09:46:33.000Z</time>
      </trkpt>
      <trkpt lat="43.66667" lon="3.82801">
        <ele>114</ele>
        <time>2020-09-26T09:46:34.000Z</time>
      </trkpt>
      <trkpt lat="43.6667" lon="3.82798">
        <ele>114</ele>
        <time>2020-09-26T09:46:35.000Z</time>
      </trkpt>
      <trkpt lat="43.66673" lon="3.82795">
        <ele>114</ele>
        <time>2020-09-26T09:46:36.000Z</time>
      </trkpt>
      <trkpt lat="43.66677" lon="3.82793">
        <ele>114</ele>
        <time>2020-09-26T09:46:37.000Z</time>
      </trkpt>
      <trkpt lat="43.6668" lon="3.82791">
        <ele>114</ele>
        <time>2020-09-26T09:46:38.000Z</time>
      </trkpt>
      <trkpt lat="43.66683" lon="3.82789">
        <ele>114</ele>
        <time>2020-09-26T09:46:39.000Z</time>
      </trkpt>
      <trkpt lat="43.66686" lon="3.82786">
        <ele>114</ele>
        <time>2020-09-26T09:46:40.000Z</time>
      </trkpt>
      <trkpt lat="43.66689" lon="3.82783">
        <ele>114</ele>
        <time>2020-09-26T09:46:41.000Z</time>
      </trkpt>
      <trkpt lat="43.66692" lon="3.82781">
        <ele>114</ele>
        <time>2020-09-26T09:46:42.000Z</time>
      </trkpt>
      <trkpt lat="43.66695" lon="3.82778">
        <ele>114</ele>
        <time>2020-09-26T09:46:43.000Z</time>
      </trkpt>
      <trkpt lat="43.66698" lon="3.82775">
        <ele>114</ele>
        <time>2020-09-26T09:46:44.000Z</time>
      </trkpt>
      <trkpt lat="43.66701" lon="3.82772">
        <ele>114</ele>
        <time>2020-09-26T09:46:45.000Z</time>
      </trkpt>
      <trkpt lat="43.66704" lon="3.82769">
        <ele>114</ele>
        <time>2020-09-26T09:46:46.000Z</time>
      </trkpt>
      <trkpt lat="43.66707" lon="3.82766">
        <ele>114</ele>
        <time>2020-09-26T09:46:47.000Z</time>
      </trkpt>
      <trkpt lat="43.6671" lon="3.82763">
        <ele>114</ele>
        <time>2020-09-26T09:46:48.000Z</time>
      </trkpt>
      <trkpt lat="43.66713" lon="3.82759">
        <ele>114</ele>
        <time>2020-09-26T09:46:49.000Z</time>
      </trkpt>
      <trkpt lat="43.66717" lon="3.82756">
        <ele>114</ele>
        <time>2020-09-26T09:46:50.000Z</time>
      </trkpt>
      <trkpt lat="43.6672" lon="3.82753">
        <ele>114</ele>
        <time>2020-09-26T09:46:51.000Z</time>
      </trkpt>
      <trkpt lat="43.66724" lon="3.82751">
        <ele>114</ele>
        <time>2020-09-26T09:46:52.000Z</time>
      </trkpt>
      <trkpt lat="43.66727" lon="3.82749">
        <ele>114</ele>
        <time>2020-09-26T09:46:53.000Z</time>
      </trkpt>
      <trkpt lat="43.6673" lon="3.82747">
        <ele>114</ele>
        <time>2020-09-26T09:46:54.000Z</time>
      </trkpt>
      <trkpt lat="43.66732" lon="3.82745">
        <ele>114</ele>
        <time>2020-09-26T09:46:55.000Z</time>
      </trkpt>
      <trkpt lat="43.66735" lon="3.82742">
        <ele>114</ele>
        <time>2020-09-26T09:46:56.000Z</time>
      </trkpt>
      <trkpt lat="43.66738" lon="3.82739">
        <ele>114</ele>
        <time>2020-09-26T09:46:57.000Z</time>
      </trkpt>
      <trkpt lat="43.66741" lon="3.82736">
        <ele>114</ele>
        <time>2020-09-26T09:46:58.000Z</time>
      </trkpt>
      <trkpt lat="43.66744" lon="3.82733">
        <ele>114</ele>
        <time>2020-09-26T09:46:59.000Z</time>
      </trkpt>
      <trkpt lat="43.66747" lon="3.8273">
        <ele>114</ele>
        <time>2020-09-26T09:47:00.000Z</time>
      </trkpt>
      <trkpt lat="43.6675" lon="3.82727">
        <ele>114</ele>
        <time>2020-09-26T09:47:01.000Z</time>
      </trkpt>
      <trkpt lat="43.66753" lon="3.82725">
        <ele>114</ele>
        <time>2020-09-26T09:47:02.000Z</time>
      </trkpt>
      <trkpt lat="43.66756" lon="3.82724">
        <ele>114</ele>
        <time>2020-09-26T09:47:03.000Z</time>
      </trkpt>
      <trkpt lat="43.66758" lon="3.82723">
        <ele>114</ele>
        <time>2020-09-26T09:47:04.000Z</time>
      </trkpt>
      <trkpt lat="43.66759" lon="3.82722">
        <ele>113.02524630542</ele>
        <time>2020-09-26T09:47:11.000Z</time>
      </trkpt>
      <trkpt lat="43.66761" lon="3.82719">
        <ele>113</ele>
        <time>2020-09-26T09:47:14.000Z</time>
      </trkpt>
      <trkpt lat="43.66764" lon="3.82717">
        <ele>113</ele>
        <time>2020-09-26T09:47:16.000Z</time>
      </trkpt>
      <trkpt lat="43.66766" lon="3.82715">
        <ele>113</ele>
        <time>2020-09-26T09:47:18.000Z</time>
      </trkpt>
      <trkpt lat="43.66768" lon="3.82713">
        <ele>113</ele>
        <time>2020-09-26T09:47:20.000Z</time>
      </trkpt>
      <trkpt lat="43.66771" lon="3.82712">
        <ele>113</ele>
        <time>2020-09-26T09:47:22.000Z</time>
      </trkpt>
      <trkpt lat="43.66774" lon="3.82711">
        <ele>113</ele>
        <time>2020-09-26T09:47:24.000Z</time>
      </trkpt>
      <trkpt lat="43.66776" lon="3.82709">
        <ele>113</ele>
        <time>2020-09-26T09:47:26.000Z</time>
      </trkpt>
      <trkpt lat="43.66777" lon="3.82708">
        <ele>113</ele>
        <time>2020-09-26T09:47:28.000Z</time>
      </trkpt>
      <trkpt lat="43.66777" lon="3.82708">
        <ele>113</ele>
        <time>2020-09-26T09:47:33.000Z</time>
      </trkpt>
      <trkpt lat="43.66779" lon="3.82702">
        <ele>113.99903796433</ele>
        <time>2020-09-26T10:01:24.000Z</time>
      </trkpt>
      <trkpt lat="43.66783" lon="3.82697">
        <ele>114</ele>
        <time>2020-09-26T10:01:26.000Z</time>
      </trkpt>
      <trkpt lat="43.66786" lon="3.82694">
        <ele>114</ele>
        <time>2020-09-26T10:01:27.000Z</time>
      </trkpt>
      <trkpt lat="43.6679" lon="3.82691">
        <ele>114</ele>
        <time>2020-09-26T10:01:28.000Z</time>
      </trkpt>
      <trkpt lat="43.66794" lon="3.82687">
        <ele>114</ele>
        <time>2020-09-26T10:01:29.000Z</time>
      </trkpt>
      <trkpt lat="43.66798" lon="3.82684">
        <ele>114</ele>
        <time>2020-09-26T10:01:30.000Z</time>
      </trkpt>
      <trkpt lat="43.66802" lon="3.82681">
        <ele>114</ele>
        <time>2020-09-26T10:01:31.000Z</time>
      </trkpt>
      <trkpt lat="43.66806" lon="3.82679">
        <ele>114</ele>
        <time>2020-09-26T10:01:32.000Z</time>
      </trkpt>
      <trkpt lat="43.66809" lon="3.82676">
        <ele>114</ele>
        <time>2020-09-26T10:01:33.000Z</time>
      </trkpt>
      <trkpt lat="43.66812" lon="3.82674">
        <ele>114</ele>
        <time>2020-09-26T10:01:34.000Z</time>
      </trkpt>
      <trkpt lat="43.66815" lon="3.82672">
        <ele>113.90758723735</ele>
        <time>2020-09-26T10:01:35.000Z</time>
      </trkpt>
      <trkpt lat="43.66818" lon="3.82669">
        <ele>113.81031097276</ele>
        <time>2020-09-26T10:01:36.000Z</time>
      </trkpt>
      <trkpt lat="43.66821" lon="3.82666">
        <ele>113.71303470817</ele>
        <time>2020-09-26T10:01:37.000Z</time>
      </trkpt>
      <trkpt lat="43.66824" lon="3.82663">
        <ele>113.61575844358</ele>
        <time>2020-09-26T10:01:38.000Z</time>
      </trkpt>
      <trkpt lat="43.66828" lon="3.82659">
        <ele>113.51848217899</ele>
        <time>2020-09-26T10:01:39.000Z</time>
      </trkpt>
      <trkpt lat="43.66832" lon="3.82656">
        <ele>113.4212059144</ele>
        <time>2020-09-26T10:01:40.000Z</time>
      </trkpt>
      <trkpt lat="43.66837" lon="3.82654">
        <ele>113.3239296498</ele>
        <time>2020-09-26T10:01:41.000Z</time>
      </trkpt>
      <trkpt lat="43.66842" lon="3.82651">
        <ele>113.22665338521</ele>
        <time>2020-09-26T10:01:42.000Z</time>
      </trkpt>
      <trkpt lat="43.66847" lon="3.82649">
        <ele>113.12937712062</ele>
        <time>2020-09-26T10:01:43.000Z</time>
      </trkpt>
      <trkpt lat="43.66851" lon="3.82645">
        <ele>113.03210085603</ele>
        <time>2020-09-26T10:01:44.000Z</time>
      </trkpt>
      <trkpt lat="43.66856" lon="3.82641">
        <ele>112.93106962963</ele>
        <time>2020-09-26T10:01:45.000Z</time>
      </trkpt>
      <trkpt lat="43.6686" lon="3.82638">
        <ele>112.82818897119</ele>
        <time>2020-09-26T10:01:46.000Z</time>
      </trkpt>
      <trkpt lat="43.66864" lon="3.82635">
        <ele>112.72530831276</ele>
        <time>2020-09-26T10:01:47.000Z</time>
      </trkpt>
      <trkpt lat="43.66867" lon="3.82632">
        <ele>112.62242765432</ele>
        <time>2020-09-26T10:01:48.000Z</time>
      </trkpt>
      <trkpt lat="43.66871" lon="3.82628">
        <ele>112.51954699588</ele>
        <time>2020-09-26T10:01:49.000Z</time>
      </trkpt>
      <trkpt lat="43.66874" lon="3.82624">
        <ele>112.41666633745</ele>
        <time>2020-09-26T10:01:50.000Z</time>
      </trkpt>
      <trkpt lat="43.66876" lon="3.8262">
        <ele>112.31378567901</ele>
        <time>2020-09-26T10:01:51.000Z</time>
      </trkpt>
      <trkpt lat="43.66879" lon="3.82616">
        <ele>112.21090502058</ele>
        <time>2020-09-26T10:01:52.000Z</time>
      </trkpt>
      <trkpt lat="43.66882" lon="3.82612">
        <ele>112.10802436214</ele>
        <time>2020-09-26T10:01:53.000Z</time>
      </trkpt>
      <trkpt lat="43.66886" lon="3.82609">
        <ele>112.0051437037</ele>
        <time>2020-09-26T10:01:54.000Z</time>
      </trkpt>
      <trkpt lat="43.66889" lon="3.82606">
        <ele>111.80999936</ele>
        <time>2020-09-26T10:01:55.000Z</time>
      </trkpt>
      <trkpt lat="43.66893" lon="3.82603">
        <ele>111.60999936</ele>
        <time>2020-09-26T10:01:56.000Z</time>
      </trkpt>
      <trkpt lat="43.66896" lon="3.826">
        <ele>111.40999936</ele>
        <time>2020-09-26T10:01:57.000Z</time>
      </trkpt>
      <trkpt lat="43.669" lon="3.82597">
        <ele>111.20999936</ele>
        <time>2020-09-26T10:01:58.000Z</time>
      </trkpt>
      <trkpt lat="43.66904" lon="3.82595">
        <ele>111.00999936</ele>
        <time>2020-09-26T10:01:59.000Z</time>
      </trkpt>
      <trkpt lat="43.66907" lon="3.82592">
        <ele>110.80999936</ele>
        <time>2020-09-26T10:02:00.000Z</time>
      </trkpt>
      <trkpt lat="43.66911" lon="3.82589">
        <ele>110.60999936</ele>
        <time>2020-09-26T10:02:01.000Z</time>
      </trkpt>
      <trkpt lat="43.66914" lon="3.82587">
        <ele>110.40999936</ele>
        <time>2020-09-26T10:02:02.000Z</time>
      </trkpt>
      <trkpt lat="43.66917" lon="3.82585">
        <ele>110.20999936</ele>
        <time>2020-09-26T10:02:03.000Z</time>
      </trkpt>
      <trkpt lat="43.66919" lon="3.82584">
        <ele>110.00999936</ele>
        <time>2020-09-26T10:02:04.000Z</time>
      </trkpt>
      <trkpt lat="43.66921" lon="3.82584">
        <ele>110</ele>
        <time>2020-09-26T10:02:09.000Z</time>
      </trkpt>
      <trkpt lat="43.66923" lon="3.82582">
        <ele>110</ele>
        <time>2020-09-26T10:02:15.000Z</time>
      </trkpt>
      <trkpt lat="43.66923" lon="3.82581">
        <ele>110</ele>
        <time>2020-09-26T10:02:16.000Z</time>
      </trkpt>
      <trkpt lat="43.66926" lon="3.82578">
        <ele>110</ele>
        <time>2020-09-26T10:02:20.000Z</time>
      </trkpt>
      <trkpt lat="43.66929" lon="3.82576">
        <ele>109.84470089224</ele>
        <time>2020-09-26T10:02:22.000Z</time>
      </trkpt>
      <trkpt lat="43.66931" lon="3.82574">
        <ele>109.73976906267</ele>
        <time>2020-09-26T10:02:23.000Z</time>
      </trkpt>
      <trkpt lat="43.66934" lon="3.82571">
        <ele>109.6348372331</ele>
        <time>2020-09-26T10:02:24.000Z</time>
      </trkpt>
      <trkpt lat="43.66937" lon="3.82569">
        <ele>109.52990540354</ele>
        <time>2020-09-26T10:02:25.000Z</time>
      </trkpt>
      <trkpt lat="43.6694" lon="3.82566">
        <ele>109.42497357397</ele>
        <time>2020-09-26T10:02:26.000Z</time>
      </trkpt>
      <trkpt lat="43.66943" lon="3.82563">
        <ele>109.3200417444</ele>
        <time>2020-09-26T10:02:27.000Z</time>
      </trkpt>
      <trkpt lat="43.66947" lon="3.8256">
        <ele>109.21510991483</ele>
        <time>2020-09-26T10:02:28.000Z</time>
      </trkpt>
      <trkpt lat="43.6695" lon="3.82557">
        <ele>109.11017808526</ele>
        <time>2020-09-26T10:02:29.000Z</time>
      </trkpt>
      <trkpt lat="43.66954" lon="3.82554">
        <ele>109.0052462557</ele>
        <time>2020-09-26T10:02:30.000Z</time>
      </trkpt>
      <trkpt lat="43.66957" lon="3.82552">
        <ele>109</ele>
        <time>2020-09-26T10:02:31.000Z</time>
      </trkpt>
      <trkpt lat="43.6696" lon="3.82549">
        <ele>109</ele>
        <time>2020-09-26T10:02:32.000Z</time>
      </trkpt>
      <trkpt lat="43.66963" lon="3.82547">
        <ele>109</ele>
        <time>2020-09-26T10:02:33.000Z</time>
      </trkpt>
      <trkpt lat="43.66966" lon="3.82545">
        <ele>109</ele>
        <time>2020-09-26T10:02:34.000Z</time>
      </trkpt>
      <trkpt lat="43.66968" lon="3.82542">
        <ele>109</ele>
        <time>2020-09-26T10:02:35.000Z</time>
      </trkpt>
      <trkpt lat="43.66971" lon="3.82539">
        <ele>109</ele>
        <time>2020-09-26T10:02:36.000Z</time>
      </trkpt>
      <trkpt lat="43.66974" lon="3.82536">
        <ele>109</ele>
        <time>2020-09-26T10:02:37.000Z</time>
      </trkpt>
      <trkpt lat="43.66977" lon="3.82534">
        <ele>109</ele>
        <time>2020-09-26T10:02:38.000Z</time>
      </trkpt>
      <trkpt lat="43.6698" lon="3.8253">
        <ele>109</ele>
        <time>2020-09-26T10:02:39.000Z</time>
      </trkpt>
      <trkpt lat="43.66984" lon="3.82527">
        <ele>109</ele>
        <time>2020-09-26T10:02:40.000Z</time>
      </trkpt>
      <trkpt lat="43.66987" lon="3.82524">
        <ele>109</ele>
        <time>2020-09-26T10:02:41.000Z</time>
      </trkpt>
      <trkpt lat="43.6699" lon="3.82521">
        <ele>109</ele>
        <time>2020-09-26T10:02:42.000Z</time>
      </trkpt>
      <trkpt lat="43.66993" lon="3.82518">
        <ele>109</ele>
        <time>2020-09-26T10:02:43.000Z</time>
      </trkpt>
      <trkpt lat="43.66996" lon="3.82515">
        <ele>109</ele>
        <time>2020-09-26T10:02:44.000Z</time>
      </trkpt>
      <trkpt lat="43.66999" lon="3.82513">
        <ele>109</ele>
        <time>2020-09-26T10:02:45.000Z</time>
      </trkpt>
      <trkpt lat="43.67002" lon="3.8251">
        <ele>109</ele>
        <time>2020-09-26T10:02:46.000Z</time>
      </trkpt>
      <trkpt lat="43.67005" lon="3.82507">
        <ele>109</ele>
        <time>2020-09-26T10:02:47.000Z</time>
      </trkpt>
      <trkpt lat="43.67008" lon="3.82504">
        <ele>109</ele>
        <time>2020-09-26T10:02:48.000Z</time>
      </trkpt>
      <trkpt lat="43.67011" lon="3.82501">
        <ele>109</ele>
        <time>2020-09-26T10:02:49.000Z</time>
      </trkpt>
      <trkpt lat="43.67014" lon="3.82498">
        <ele>109</ele>
        <time>2020-09-26T10:02:50.000Z</time>
      </trkpt>
      <trkpt lat="43.67017" lon="3.82495">
        <ele>109</ele>
        <time>2020-09-26T10:02:51.000Z</time>
      </trkpt>
      <trkpt lat="43.67021" lon="3.82492">
        <ele>109</ele>
        <time>2020-09-26T10:02:52.000Z</time>
      </trkpt>
      <trkpt lat="43.67023" lon="3.82488">
        <ele>109</ele>
        <time>2020-09-26T10:02:53.000Z</time>
      </trkpt>
      <trkpt lat="43.67025" lon="3.82485">
        <ele>109</ele>
        <time>2020-09-26T10:02:54.000Z</time>
      </trkpt>
      <trkpt lat="43.67026" lon="3.82483">
        <ele>109</ele>
        <time>2020-09-26T10:02:55.000Z</time>
      </trkpt>
      <trkpt lat="43.67029" lon="3.82482">
        <ele>109</ele>
        <time>2020-09-26T10:02:57.000Z</time>
      </trkpt>
      <trkpt lat="43.67032" lon="3.82481">
        <ele>109</ele>
        <time>2020-09-26T10:02:58.000Z</time>
      </trkpt>
      <trkpt lat="43.67035" lon="3.82479">
        <ele>109</ele>
        <time>2020-09-26T10:02:59.000Z</time>
      </trkpt>
      <trkpt lat="43.67037" lon="3.82475">
        <ele>109</ele>
        <time>2020-09-26T10:03:00.000Z</time>
      </trkpt>
      <trkpt lat="43.6704" lon="3.82471">
        <ele>109.19000064</ele>
        <time>2020-09-26T10:03:01.000Z</time>
      </trkpt>
      <trkpt lat="43.67042" lon="3.82467">
        <ele>109.39000064</ele>
        <time>2020-09-26T10:03:02.000Z</time>
      </trkpt>
      <trkpt lat="43.67044" lon="3.82464">
        <ele>109.59000064</ele>
        <time>2020-09-26T10:03:03.000Z</time>
      </trkpt>
      <trkpt lat="43.67047" lon="3.8246">
        <ele>109.79000064</ele>
        <time>2020-09-26T10:03:04.000Z</time>
      </trkpt>
      <trkpt lat="43.67049" lon="3.82457">
        <ele>109.99000064</ele>
        <time>2020-09-26T10:03:05.000Z</time>
      </trkpt>
      <trkpt lat="43.67051" lon="3.82453">
        <ele>110.19000064</ele>
        <time>2020-09-26T10:03:06.000Z</time>
      </trkpt>
      <trkpt lat="43.67052" lon="3.8245">
        <ele>110.39000064</ele>
        <time>2020-09-26T10:03:07.000Z</time>
      </trkpt>
      <trkpt lat="43.67054" lon="3.82446">
        <ele>110.59000064</ele>
        <time>2020-09-26T10:03:08.000Z</time>
      </trkpt>
      <trkpt lat="43.67056" lon="3.82443">
        <ele>110.79000064</ele>
        <time>2020-09-26T10:03:09.000Z</time>
      </trkpt>
      <trkpt lat="43.67057" lon="3.8244">
        <ele>110.99000064</ele>
        <time>2020-09-26T10:03:10.000Z</time>
      </trkpt>
      <trkpt lat="43.67059" lon="3.82437">
        <ele>111.09500032</ele>
        <time>2020-09-26T10:03:11.000Z</time>
      </trkpt>
      <trkpt lat="43.67061" lon="3.82434">
        <ele>111.19500032</ele>
        <time>2020-09-26T10:03:12.000Z</time>
      </trkpt>
      <trkpt lat="43.67063" lon="3.82432">
        <ele>111.29500032</ele>
        <time>2020-09-26T10:03:13.000Z</time>
      </trkpt>
      <trkpt lat="43.67065" lon="3.82429">
        <ele>111.39500032</ele>
        <time>2020-09-26T10:03:14.000Z</time>
      </trkpt>
      <trkpt lat="43.67067" lon="3.82427">
        <ele>111.49500032</ele>
        <time>2020-09-26T10:03:15.000Z</time>
      </trkpt>
      <trkpt lat="43.67068" lon="3.82424">
        <ele>111.59500032</ele>
        <time>2020-09-26T10:03:16.000Z</time>
      </trkpt>
      <trkpt lat="43.67069" lon="3.82421">
        <ele>111.69500032</ele>
        <time>2020-09-26T10:03:17.000Z</time>
      </trkpt>
      <trkpt lat="43.6707" lon="3.82418">
        <ele>111.79500032</ele>
        <time>2020-09-26T10:03:18.000Z</time>
      </trkpt>
      <trkpt lat="43.67072" lon="3.82416">
        <ele>111.89500032</ele>
        <time>2020-09-26T10:03:19.000Z</time>
      </trkpt>
      <trkpt lat="43.67075" lon="3.82415">
        <ele>111.99500032</ele>
        <time>2020-09-26T10:03:20.000Z</time>
      </trkpt>
      <trkpt lat="43.67077" lon="3.82413">
        <ele>112.19000064</ele>
        <time>2020-09-26T10:03:21.000Z</time>
      </trkpt>
      <trkpt lat="43.67079" lon="3.8241">
        <ele>112.39000064</ele>
        <time>2020-09-26T10:03:22.000Z</time>
      </trkpt>
      <trkpt lat="43.6708" lon="3.82407">
        <ele>112.59000064</ele>
        <time>2020-09-26T10:03:23.000Z</time>
      </trkpt>
      <trkpt lat="43.67082" lon="3.82404">
        <ele>112.79000064</ele>
        <time>2020-09-26T10:03:24.000Z</time>
      </trkpt>
      <trkpt lat="43.67083" lon="3.82401">
        <ele>112.99000064</ele>
        <time>2020-09-26T10:03:25.000Z</time>
      </trkpt>
      <trkpt lat="43.67084" lon="3.82399">
        <ele>113.19000064</ele>
        <time>2020-09-26T10:03:26.000Z</time>
      </trkpt>
      <trkpt lat="43.67084" lon="3.82396">
        <ele>113.39000064</ele>
        <time>2020-09-26T10:03:27.000Z</time>
      </trkpt>
      <trkpt lat="43.67084" lon="3.82393">
        <ele>113.59000064</ele>
        <time>2020-09-26T10:03:28.000Z</time>
      </trkpt>
      <trkpt lat="43.67085" lon="3.8239">
        <ele>113.79000064</ele>
        <time>2020-09-26T10:03:29.000Z</time>
      </trkpt>
      <trkpt lat="43.67087" lon="3.82387">
        <ele>114.19000064</ele>
        <time>2020-09-26T10:03:31.000Z</time>
      </trkpt>
      <trkpt lat="43.6709" lon="3.82384">
        <ele>114.59000064</ele>
        <time>2020-09-26T10:03:33.000Z</time>
      </trkpt>
      <trkpt lat="43.67092" lon="3.82382">
        <ele>114.79000064</ele>
        <time>2020-09-26T10:03:34.000Z</time>
      </trkpt>
      <trkpt lat="43.67093" lon="3.8238">
        <ele>114.99000064</ele>
        <time>2020-09-26T10:03:35.000Z</time>
      </trkpt>
      <trkpt lat="43.67095" lon="3.82379">
        <ele>115.19000064</ele>
        <time>2020-09-26T10:03:36.000Z</time>
      </trkpt>
      <trkpt lat="43.67096" lon="3.82376">
        <ele>115.39000064</ele>
        <time>2020-09-26T10:03:37.000Z</time>
      </trkpt>
      <trkpt lat="43.67097" lon="3.82374">
        <ele>115.59000064</ele>
        <time>2020-09-26T10:03:38.000Z</time>
      </trkpt>
      <trkpt lat="43.67099" lon="3.82372">
        <ele>115.79000064</ele>
        <time>2020-09-26T10:03:39.000Z</time>
      </trkpt>
      <trkpt lat="43.671" lon="3.8237">
        <ele>115.99000064</ele>
        <time>2020-09-26T10:03:40.000Z</time>
      </trkpt>
      <trkpt lat="43.67101" lon="3.82368">
        <ele>116.19000064</ele>
        <time>2020-09-26T10:03:41.000Z</time>
      </trkpt>
      <trkpt lat="43.67102" lon="3.82365">
        <ele>116.39000064</ele>
        <time>2020-09-26T10:03:42.000Z</time>
      </trkpt>
      <trkpt lat="43.67104" lon="3.82363">
        <ele>116.59000064</ele>
        <time>2020-09-26T10:03:43.000Z</time>
      </trkpt>
      <trkpt lat="43.67105" lon="3.82361">
        <ele>116.79000064</ele>
        <time>2020-09-26T10:03:44.000Z</time>
      </trkpt>
      <trkpt lat="43.67107" lon="3.82359">
        <ele>116.99000064</ele>
        <time>2020-09-26T10:03:45.000Z</time>
      </trkpt>
      <trkpt lat="43.67108" lon="3.82357">
        <ele>117.19000064</ele>
        <time>2020-09-26T10:03:46.000Z</time>
      </trkpt>
      <trkpt lat="43.67109" lon="3.82355">
        <ele>117.39000064</ele>
        <time>2020-09-26T10:03:47.000Z</time>
      </trkpt>
      <trkpt lat="43.6711" lon="3.82354">
        <ele>117.59000064</ele>
        <time>2020-09-26T10:03:48.000Z</time>
      </trkpt>
      <trkpt lat="43.67113" lon="3.8235">
        <ele>117.99000064</ele>
        <time>2020-09-26T10:03:50.000Z</time>
      </trkpt>
      <trkpt lat="43.67114" lon="3.82348">
        <ele>118.09396665671</ele>
        <time>2020-09-26T10:03:51.000Z</time>
      </trkpt>
      <trkpt lat="43.67115" lon="3.82346">
        <ele>118.19287859375</ele>
        <time>2020-09-26T10:03:52.000Z</time>
      </trkpt>
      <trkpt lat="43.67116" lon="3.82344">
        <ele>118.29179053079</ele>
        <time>2020-09-26T10:03:53.000Z</time>
      </trkpt>
      <trkpt lat="43.67117" lon="3.82342">
        <ele>118.39070246783</ele>
        <time>2020-09-26T10:03:54.000Z</time>
      </trkpt>
      <trkpt lat="43.67118" lon="3.8234">
        <ele>118.48961440487</ele>
        <time>2020-09-26T10:03:55.000Z</time>
      </trkpt>
      <trkpt lat="43.6712" lon="3.82337">
        <ele>118.58852634191</ele>
        <time>2020-09-26T10:03:56.000Z</time>
      </trkpt>
      <trkpt lat="43.67121" lon="3.82335">
        <ele>118.68743827895</ele>
        <time>2020-09-26T10:03:57.000Z</time>
      </trkpt>
      <trkpt lat="43.67122" lon="3.82333">
        <ele>118.78635021599</ele>
        <time>2020-09-26T10:03:58.000Z</time>
      </trkpt>
      <trkpt lat="43.67123" lon="3.82331">
        <ele>118.88526215303</ele>
        <time>2020-09-26T10:03:59.000Z</time>
      </trkpt>
      <trkpt lat="43.67125" lon="3.82329">
        <ele>118.98417409007</ele>
        <time>2020-09-26T10:04:00.000Z</time>
      </trkpt>
      <trkpt lat="43.67126" lon="3.82326">
        <ele>119.08493430453</ele>
        <time>2020-09-26T10:04:01.000Z</time>
      </trkpt>
      <trkpt lat="43.67127" lon="3.82324">
        <ele>119.18604657183</ele>
        <time>2020-09-26T10:04:02.000Z</time>
      </trkpt>
      <trkpt lat="43.67128" lon="3.82321">
        <ele>119.28715883912</ele>
        <time>2020-09-26T10:04:03.000Z</time>
      </trkpt>
      <trkpt lat="43.67129" lon="3.82318">
        <ele>119.38827110642</ele>
        <time>2020-09-26T10:04:04.000Z</time>
      </trkpt>
      <trkpt lat="43.6713" lon="3.82316">
        <ele>119.48938337371</ele>
        <time>2020-09-26T10:04:05.000Z</time>
      </trkpt>
      <trkpt lat="43.67131" lon="3.82312">
        <ele>119.59049564101</ele>
        <time>2020-09-26T10:04:06.000Z</time>
      </trkpt>
      <trkpt lat="43.67133" lon="3.8231">
        <ele>119.69160790831</ele>
        <time>2020-09-26T10:04:07.000Z</time>
      </trkpt>
      <trkpt lat="43.67135" lon="3.82308">
        <ele>119.7927201756</ele>
        <time>2020-09-26T10:04:08.000Z</time>
      </trkpt>
      <trkpt lat="43.67136" lon="3.82306">
        <ele>119.8938324429</ele>
        <time>2020-09-26T10:04:09.000Z</time>
      </trkpt>
      <trkpt lat="43.67138" lon="3.82303">
        <ele>119.99494471019</ele>
        <time>2020-09-26T10:04:10.000Z</time>
      </trkpt>
      <trkpt lat="43.6714" lon="3.82301">
        <ele>120.09500032</ele>
        <time>2020-09-26T10:04:11.000Z</time>
      </trkpt>
      <trkpt lat="43.67142" lon="3.82298">
        <ele>120.19500032</ele>
        <time>2020-09-26T10:04:12.000Z</time>
      </trkpt>
      <trkpt lat="43.67143" lon="3.82294">
        <ele>120.29500032</ele>
        <time>2020-09-26T10:04:13.000Z</time>
      </trkpt>
      <trkpt lat="43.67144" lon="3.8229">
        <ele>120.39500032</ele>
        <time>2020-09-26T10:04:14.000Z</time>
      </trkpt>
      <trkpt lat="43.67146" lon="3.82286">
        <ele>120.49500032</ele>
        <time>2020-09-26T10:04:15.000Z</time>
      </trkpt>
      <trkpt lat="43.67148" lon="3.82282">
        <ele>120.59500032</ele>
        <time>2020-09-26T10:04:16.000Z</time>
      </trkpt>
      <trkpt lat="43.6715" lon="3.82279">
        <ele>120.69500032</ele>
        <time>2020-09-26T10:04:17.000Z</time>
      </trkpt>
      <trkpt lat="43.67153" lon="3.82276">
        <ele>120.79500032</ele>
        <time>2020-09-26T10:04:18.000Z</time>
      </trkpt>
      <trkpt lat="43.67154" lon="3.82273">
        <ele>120.89500032</ele>
        <time>2020-09-26T10:04:19.000Z</time>
      </trkpt>
      <trkpt lat="43.67155" lon="3.8227">
        <ele>120.99500032</ele>
        <time>2020-09-26T10:04:20.000Z</time>
      </trkpt>
      <trkpt lat="43.67156" lon="3.82267">
        <ele>121.09500032</ele>
        <time>2020-09-26T10:04:21.000Z</time>
      </trkpt>
      <trkpt lat="43.67157" lon="3.82265">
        <ele>121.19500032</ele>
        <time>2020-09-26T10:04:22.000Z</time>
      </trkpt>
      <trkpt lat="43.67159" lon="3.82263">
        <ele>121.29500032</ele>
        <time>2020-09-26T10:04:23.000Z</time>
      </trkpt>
      <trkpt lat="43.67162" lon="3.82261">
        <ele>121.39500032</ele>
        <time>2020-09-26T10:04:24.000Z</time>
      </trkpt>
      <trkpt lat="43.67164" lon="3.82259">
        <ele>121.49500032</ele>
        <time>2020-09-26T10:04:25.000Z</time>
      </trkpt>
      <trkpt lat="43.67166" lon="3.82258">
        <ele>121.59500032</ele>
        <time>2020-09-26T10:04:26.000Z</time>
      </trkpt>
      <trkpt lat="43.67167" lon="3.82256">
        <ele>121.69500032</ele>
        <time>2020-09-26T10:04:27.000Z</time>
      </trkpt>
      <trkpt lat="43.67169" lon="3.82254">
        <ele>121.79500032</ele>
        <time>2020-09-26T10:04:28.000Z</time>
      </trkpt>
      <trkpt lat="43.6717" lon="3.82252">
        <ele>121.89500032</ele>
        <time>2020-09-26T10:04:29.000Z</time>
      </trkpt>
      <trkpt lat="43.67172" lon="3.8225">
        <ele>121.99500032</ele>
        <time>2020-09-26T10:04:30.000Z</time>
      </trkpt>
      <trkpt lat="43.67173" lon="3.82247">
        <ele>122.18482552529</ele>
        <time>2020-09-26T10:04:31.000Z</time>
      </trkpt>
      <trkpt lat="43.67175" lon="3.82244">
        <ele>122.37937805447</ele>
        <time>2020-09-26T10:04:32.000Z</time>
      </trkpt>
      <trkpt lat="43.67176" lon="3.82242">
        <ele>122.57393058366</ele>
        <time>2020-09-26T10:04:33.000Z</time>
      </trkpt>
      <trkpt lat="43.67178" lon="3.8224">
        <ele>122.76848311284</ele>
        <time>2020-09-26T10:04:34.000Z</time>
      </trkpt>
      <trkpt lat="43.67179" lon="3.82238">
        <ele>122.96303564202</ele>
        <time>2020-09-26T10:04:35.000Z</time>
      </trkpt>
      <trkpt lat="43.67181" lon="3.82236">
        <ele>123.15758817121</ele>
        <time>2020-09-26T10:04:36.000Z</time>
      </trkpt>
      <trkpt lat="43.67183" lon="3.82234">
        <ele>123.35214070039</ele>
        <time>2020-09-26T10:04:37.000Z</time>
      </trkpt>
      <trkpt lat="43.67184" lon="3.82231">
        <ele>123.54669322957</ele>
        <time>2020-09-26T10:04:38.000Z</time>
      </trkpt>
      <trkpt lat="43.67186" lon="3.82229">
        <ele>123.74124575875</ele>
        <time>2020-09-26T10:04:39.000Z</time>
      </trkpt>
      <trkpt lat="43.67188" lon="3.82227">
        <ele>123.93579828794</ele>
        <time>2020-09-26T10:04:40.000Z</time>
      </trkpt>
      <trkpt lat="43.6719" lon="3.82224">
        <ele>124.13786074074</ele>
        <time>2020-09-26T10:04:41.000Z</time>
      </trkpt>
      <trkpt lat="43.67192" lon="3.82222">
        <ele>124.34362205761</ele>
        <time>2020-09-26T10:04:42.000Z</time>
      </trkpt>
      <trkpt lat="43.67193" lon="3.8222">
        <ele>124.54938337449</ele>
        <time>2020-09-26T10:04:43.000Z</time>
      </trkpt>
      <trkpt lat="43.67195" lon="3.82218">
        <ele>124.75514469136</ele>
        <time>2020-09-26T10:04:44.000Z</time>
      </trkpt>
      <trkpt lat="43.67197" lon="3.82216">
        <ele>124.96090600823</ele>
        <time>2020-09-26T10:04:45.000Z</time>
      </trkpt>
      <trkpt lat="43.67198" lon="3.82214">
        <ele>125.1666673251</ele>
        <time>2020-09-26T10:04:46.000Z</time>
      </trkpt>
      <trkpt lat="43.67199" lon="3.82211">
        <ele>125.37242864198</ele>
        <time>2020-09-26T10:04:47.000Z</time>
      </trkpt>
      <trkpt lat="43.672" lon="3.82209">
        <ele>125.57818995885</ele>
        <time>2020-09-26T10:04:48.000Z</time>
      </trkpt>
      <trkpt lat="43.67201" lon="3.82207">
        <ele>125.78395127572</ele>
        <time>2020-09-26T10:04:49.000Z</time>
      </trkpt>
      <trkpt lat="43.67203" lon="3.82205">
        <ele>125.98971259259</ele>
        <time>2020-09-26T10:04:50.000Z</time>
      </trkpt>
      <trkpt lat="43.67204" lon="3.82201">
        <ele>126.19500032</ele>
        <time>2020-09-26T10:04:52.000Z</time>
      </trkpt>
      <trkpt lat="43.67206" lon="3.82197">
        <ele>126.39500032</ele>
        <time>2020-09-26T10:04:54.000Z</time>
      </trkpt>
      <trkpt lat="43.67209" lon="3.82195">
        <ele>126.59500032</ele>
        <time>2020-09-26T10:04:56.000Z</time>
      </trkpt>
      <trkpt lat="43.6721" lon="3.82192">
        <ele>126.79500032</ele>
        <time>2020-09-26T10:04:58.000Z</time>
      </trkpt>
      <trkpt lat="43.67212" lon="3.82188">
        <ele>126.99500032</ele>
        <time>2020-09-26T10:05:00.000Z</time>
      </trkpt>
      <trkpt lat="43.67214" lon="3.82185">
        <ele>127.39000064</ele>
        <time>2020-09-26T10:05:02.000Z</time>
      </trkpt>
      <trkpt lat="43.67216" lon="3.82181">
        <ele>127.79000064</ele>
        <time>2020-09-26T10:05:04.000Z</time>
      </trkpt>
      <trkpt lat="43.67217" lon="3.82179">
        <ele>128.19000064</ele>
        <time>2020-09-26T10:05:06.000Z</time>
      </trkpt>
      <trkpt lat="43.67218" lon="3.82176">
        <ele>128.79000064</ele>
        <time>2020-09-26T10:05:09.000Z</time>
      </trkpt>
      <trkpt lat="43.6722" lon="3.82172">
        <ele>129</ele>
        <time>2020-09-26T10:05:11.000Z</time>
      </trkpt>
      <trkpt lat="43.67222" lon="3.82171">
        <ele>129</ele>
        <time>2020-09-26T10:05:12.000Z</time>
      </trkpt>
      <trkpt lat="43.67225" lon="3.82171">
        <ele>129</ele>
        <time>2020-09-26T10:05:14.000Z</time>
      </trkpt>
      <trkpt lat="43.67228" lon="3.8217">
        <ele>129</ele>
        <time>2020-09-26T10:05:16.000Z</time>
      </trkpt>
      <trkpt lat="43.67231" lon="3.82171">
        <ele>129</ele>
        <time>2020-09-26T10:05:18.000Z</time>
      </trkpt>
      <trkpt lat="43.67234" lon="3.82174">
        <ele>129</ele>
        <time>2020-09-26T10:05:20.000Z</time>
      </trkpt>
      <trkpt lat="43.67237" lon="3.82177">
        <ele>129</ele>
        <time>2020-09-26T10:05:22.000Z</time>
      </trkpt>
      <trkpt lat="43.6724" lon="3.82178">
        <ele>129</ele>
        <time>2020-09-26T10:05:24.000Z</time>
      </trkpt>
      <trkpt lat="43.67243" lon="3.82177">
        <ele>129</ele>
        <time>2020-09-26T10:05:26.000Z</time>
      </trkpt>
      <trkpt lat="43.67245" lon="3.82176">
        <ele>129</ele>
        <time>2020-09-26T10:05:27.000Z</time>
      </trkpt>
      <trkpt lat="43.67248" lon="3.82177">
        <ele>129</ele>
        <time>2020-09-26T10:05:29.000Z</time>
      </trkpt>
      <trkpt lat="43.67251" lon="3.82178">
        <ele>129.09500032</ele>
        <time>2020-09-26T10:05:31.000Z</time>
      </trkpt>
      <trkpt lat="43.67254" lon="3.82175">
        <ele>129.29500032</ele>
        <time>2020-09-26T10:05:33.000Z</time>
      </trkpt>
      <trkpt lat="43.67256" lon="3.82172">
        <ele>129.49500032</ele>
        <time>2020-09-26T10:05:35.000Z</time>
      </trkpt>
      <trkpt lat="43.67258" lon="3.82172">
        <ele>129.59500032</ele>
        <time>2020-09-26T10:05:36.000Z</time>
      </trkpt>
      <trkpt lat="43.67261" lon="3.82173">
        <ele>129.79500032</ele>
        <time>2020-09-26T10:05:38.000Z</time>
      </trkpt>
      <trkpt lat="43.67264" lon="3.82174">
        <ele>129.99500032</ele>
        <time>2020-09-26T10:05:40.000Z</time>
      </trkpt>
      <trkpt lat="43.67265" lon="3.8217">
        <ele>130.18465939394</ele>
        <time>2020-09-26T10:05:42.000Z</time>
      </trkpt>
      <trkpt lat="43.67266" lon="3.82165">
        <ele>130.37405333333</ele>
        <time>2020-09-26T10:05:44.000Z</time>
      </trkpt>
      <trkpt lat="43.67267" lon="3.82161">
        <ele>130.56344727273</ele>
        <time>2020-09-26T10:05:46.000Z</time>
      </trkpt>
      <trkpt lat="43.6727" lon="3.82158">
        <ele>130.75284121212</ele>
        <time>2020-09-26T10:05:48.000Z</time>
      </trkpt>
      <trkpt lat="43.67274" lon="3.82157">
        <ele>130.94223515152</ele>
        <time>2020-09-26T10:05:50.000Z</time>
      </trkpt>
      <trkpt lat="43.67276" lon="3.82157">
        <ele>131.0413138983</ele>
        <time>2020-09-26T10:05:51.000Z</time>
      </trkpt>
      <trkpt lat="43.67278" lon="3.82156">
        <ele>131.1472461017</ele>
        <time>2020-09-26T10:05:52.000Z</time>
      </trkpt>
      <trkpt lat="43.67281" lon="3.82156">
        <ele>131.35911050847</ele>
        <time>2020-09-26T10:05:54.000Z</time>
      </trkpt>
      <trkpt lat="43.67283" lon="3.82155">
        <ele>131.46504271186</ele>
        <time>2020-09-26T10:05:55.000Z</time>
      </trkpt>
      <trkpt lat="43.67286" lon="3.82155">
        <ele>131.67690711864</ele>
        <time>2020-09-26T10:05:57.000Z</time>
      </trkpt>
      <trkpt lat="43.6729" lon="3.82153">
        <ele>131.88877152542</ele>
        <time>2020-09-26T10:05:59.000Z</time>
      </trkpt>
      <trkpt lat="43.67293" lon="3.82152">
        <ele>132.18905542338</ele>
        <time>2020-09-26T10:06:01.000Z</time>
      </trkpt>
      <trkpt lat="43.67296" lon="3.82151">
        <ele>132.58706550036</ele>
        <time>2020-09-26T10:06:03.000Z</time>
      </trkpt>
      <trkpt lat="43.67298" lon="3.8215">
        <ele>132.78607053885</ele>
        <time>2020-09-26T10:06:04.000Z</time>
      </trkpt>
      <trkpt lat="43.673" lon="3.8215">
        <ele>132.98507557734</ele>
        <time>2020-09-26T10:06:05.000Z</time>
      </trkpt>
      <trkpt lat="43.67302" lon="3.82149">
        <ele>133.18408061583</ele>
        <time>2020-09-26T10:06:06.000Z</time>
      </trkpt>
      <trkpt lat="43.67304" lon="3.82148">
        <ele>133.38308565432</ele>
        <time>2020-09-26T10:06:07.000Z</time>
      </trkpt>
      <trkpt lat="43.67307" lon="3.82147">
        <ele>133.78109573129</ele>
        <time>2020-09-26T10:06:09.000Z</time>
      </trkpt>
      <trkpt lat="43.67311" lon="3.82146">
        <ele>134.18090575086</ele>
        <time>2020-09-26T10:06:11.000Z</time>
      </trkpt>
      <trkpt lat="43.67314" lon="3.82146">
        <ele>134.58291567183</ele>
        <time>2020-09-26T10:06:13.000Z</time>
      </trkpt>
      <trkpt lat="43.67316" lon="3.82146">
        <ele>134.78392063231</ele>
        <time>2020-09-26T10:06:14.000Z</time>
      </trkpt>
      <trkpt lat="43.67318" lon="3.82145">
        <ele>134.98492559279</ele>
        <time>2020-09-26T10:06:15.000Z</time>
      </trkpt>
      <trkpt lat="43.6732" lon="3.82145">
        <ele>135.18593055327</ele>
        <time>2020-09-26T10:06:16.000Z</time>
      </trkpt>
      <trkpt lat="43.67322" lon="3.82144">
        <ele>135.38693551375</ele>
        <time>2020-09-26T10:06:17.000Z</time>
      </trkpt>
      <trkpt lat="43.67325" lon="3.82143">
        <ele>135.78894543471</ele>
        <time>2020-09-26T10:06:19.000Z</time>
      </trkpt>
      <trkpt lat="43.67329" lon="3.82143">
        <ele>136.19000064</ele>
        <time>2020-09-26T10:06:21.000Z</time>
      </trkpt>
      <trkpt lat="43.67332" lon="3.82142">
        <ele>136.59000064</ele>
        <time>2020-09-26T10:06:23.000Z</time>
      </trkpt>
      <trkpt lat="43.67335" lon="3.82141">
        <ele>136.99000064</ele>
        <time>2020-09-26T10:06:25.000Z</time>
      </trkpt>
      <trkpt lat="43.67338" lon="3.8214">
        <ele>137.39000064</ele>
        <time>2020-09-26T10:06:27.000Z</time>
      </trkpt>
      <trkpt lat="43.67341" lon="3.82139">
        <ele>137.79000064</ele>
        <time>2020-09-26T10:06:29.000Z</time>
      </trkpt>
      <trkpt lat="43.67343" lon="3.82137">
        <ele>138.19000064</ele>
        <time>2020-09-26T10:06:31.000Z</time>
      </trkpt>
      <trkpt lat="43.67346" lon="3.82135">
        <ele>138.59000064</ele>
        <time>2020-09-26T10:06:33.000Z</time>
      </trkpt>
      <trkpt lat="43.67349" lon="3.82134">
        <ele>138.99000064</ele>
        <time>2020-09-26T10:06:35.000Z</time>
      </trkpt>
      <trkpt lat="43.67352" lon="3.82134">
        <ele>139.39000064</ele>
        <time>2020-09-26T10:06:37.000Z</time>
      </trkpt>
      <trkpt lat="43.67355" lon="3.82135">
        <ele>139.79000064</ele>
        <time>2020-09-26T10:06:39.000Z</time>
      </trkpt>
      <trkpt lat="43.67358" lon="3.82135">
        <ele>140.09500032</ele>
        <time>2020-09-26T10:06:41.000Z</time>
      </trkpt>
      <trkpt lat="43.67361" lon="3.82135">
        <ele>140.29500032</ele>
        <time>2020-09-26T10:06:43.000Z</time>
      </trkpt>
      <trkpt lat="43.67364" lon="3.82135">
        <ele>140.49500032</ele>
        <time>2020-09-26T10:06:45.000Z</time>
      </trkpt>
      <trkpt lat="43.67368" lon="3.82134">
        <ele>140.69500032</ele>
        <time>2020-09-26T10:06:47.000Z</time>
      </trkpt>
      <trkpt lat="43.6737" lon="3.82134">
        <ele>140.79500032</ele>
        <time>2020-09-26T10:06:48.000Z</time>
      </trkpt>
      <trkpt lat="43.67372" lon="3.82133">
        <ele>140.89500032</ele>
        <time>2020-09-26T10:06:49.000Z</time>
      </trkpt>
      <trkpt lat="43.67374" lon="3.82133">
        <ele>140.99500032</ele>
        <time>2020-09-26T10:06:50.000Z</time>
      </trkpt>
      <trkpt lat="43.67376" lon="3.82132">
        <ele>141</ele>
        <time>2020-09-26T10:06:51.000Z</time>
      </trkpt>
      <trkpt lat="43.67379" lon="3.82132">
        <ele>141</ele>
        <time>2020-09-26T10:06:52.000Z</time>
      </trkpt>
      <trkpt lat="43.67381" lon="3.82131">
        <ele>141</ele>
        <time>2020-09-26T10:06:53.000Z</time>
      </trkpt>
      <trkpt lat="43.67383" lon="3.82131">
        <ele>141</ele>
        <time>2020-09-26T10:06:54.000Z</time>
      </trkpt>
      <trkpt lat="43.67386" lon="3.82132">
        <ele>141</ele>
        <time>2020-09-26T10:06:55.000Z</time>
      </trkpt>
      <trkpt lat="43.67389" lon="3.82132">
        <ele>141</ele>
        <time>2020-09-26T10:06:56.000Z</time>
      </trkpt>
      <trkpt lat="43.67392" lon="3.82133">
        <ele>141</ele>
        <time>2020-09-26T10:06:57.000Z</time>
      </trkpt>
      <trkpt lat="43.67395" lon="3.82133">
        <ele>141</ele>
        <time>2020-09-26T10:06:58.000Z</time>
      </trkpt>
      <trkpt lat="43.67399" lon="3.82133">
        <ele>141</ele>
        <time>2020-09-26T10:06:59.000Z</time>
      </trkpt>
      <trkpt lat="43.67402" lon="3.82133">
        <ele>141</ele>
        <time>2020-09-26T10:07:00.000Z</time>
      </trkpt>
      <trkpt lat="43.67406" lon="3.82134">
        <ele>140.90499968</ele>
        <time>2020-09-26T10:07:01.000Z</time>
      </trkpt>
      <trkpt lat="43.67409" lon="3.82135">
        <ele>140.80499968</ele>
        <time>2020-09-26T10:07:02.000Z</time>
      </trkpt>
      <trkpt lat="43.67412" lon="3.82135">
        <ele>140.70499968</ele>
        <time>2020-09-26T10:07:03.000Z</time>
      </trkpt>
      <trkpt lat="43.67416" lon="3.82135">
        <ele>140.60499968</ele>
        <time>2020-09-26T10:07:04.000Z</time>
      </trkpt>
      <trkpt lat="43.6742" lon="3.82134">
        <ele>140.50499968</ele>
        <time>2020-09-26T10:07:05.000Z</time>
      </trkpt>
      <trkpt lat="43.67424" lon="3.82133">
        <ele>140.40499968</ele>
        <time>2020-09-26T10:07:06.000Z</time>
      </trkpt>
      <trkpt lat="43.67428" lon="3.82132">
        <ele>140.30499968</ele>
        <time>2020-09-26T10:07:07.000Z</time>
      </trkpt>
      <trkpt lat="43.67432" lon="3.82132">
        <ele>140.20499968</ele>
        <time>2020-09-26T10:07:08.000Z</time>
      </trkpt>
      <trkpt lat="43.67436" lon="3.82132">
        <ele>140.10499968</ele>
        <time>2020-09-26T10:07:09.000Z</time>
      </trkpt>
      <trkpt lat="43.67441" lon="3.82132">
        <ele>140.00499968</ele>
        <time>2020-09-26T10:07:10.000Z</time>
      </trkpt>
      <trkpt lat="43.67445" lon="3.82131">
        <ele>139.90499968</ele>
        <time>2020-09-26T10:07:11.000Z</time>
      </trkpt>
      <trkpt lat="43.67449" lon="3.82131">
        <ele>139.80499968</ele>
        <time>2020-09-26T10:07:12.000Z</time>
      </trkpt>
      <trkpt lat="43.67454" lon="3.8213">
        <ele>139.70499968</ele>
        <time>2020-09-26T10:07:13.000Z</time>
      </trkpt>
      <trkpt lat="43.6746" lon="3.82129">
        <ele>139.60499968</ele>
        <time>2020-09-26T10:07:14.000Z</time>
      </trkpt>
      <trkpt lat="43.67465" lon="3.82129">
        <ele>139.50499968</ele>
        <time>2020-09-26T10:07:15.000Z</time>
      </trkpt>
      <trkpt lat="43.67469" lon="3.82128">
        <ele>139.40499968</ele>
        <time>2020-09-26T10:07:16.000Z</time>
      </trkpt>
      <trkpt lat="43.67474" lon="3.82128">
        <ele>139.30499968</ele>
        <time>2020-09-26T10:07:17.000Z</time>
      </trkpt>
      <trkpt lat="43.67478" lon="3.82127">
        <ele>139.20499968</ele>
        <time>2020-09-26T10:07:18.000Z</time>
      </trkpt>
      <trkpt lat="43.67484" lon="3.82126">
        <ele>139.10499968</ele>
        <time>2020-09-26T10:07:19.000Z</time>
      </trkpt>
      <trkpt lat="43.67489" lon="3.82126">
        <ele>139.00499968</ele>
        <time>2020-09-26T10:07:20.000Z</time>
      </trkpt>
      <trkpt lat="43.67495" lon="3.82126">
        <ele>138.81037872391</ele>
        <time>2020-09-26T10:07:21.000Z</time>
      </trkpt>
      <trkpt lat="43.67501" lon="3.82125">
        <ele>138.610778053</ele>
        <time>2020-09-26T10:07:22.000Z</time>
      </trkpt>
      <trkpt lat="43.67506" lon="3.82124">
        <ele>138.41117738208</ele>
        <time>2020-09-26T10:07:23.000Z</time>
      </trkpt>
      <trkpt lat="43.6751" lon="3.82123">
        <ele>138.21157671117</ele>
        <time>2020-09-26T10:07:24.000Z</time>
      </trkpt>
      <trkpt lat="43.67515" lon="3.82122">
        <ele>138.01197604026</ele>
        <time>2020-09-26T10:07:25.000Z</time>
      </trkpt>
      <trkpt lat="43.67519" lon="3.82121">
        <ele>137.81237536934</ele>
        <time>2020-09-26T10:07:26.000Z</time>
      </trkpt>
      <trkpt lat="43.67528" lon="3.82119">
        <ele>137.41317402751</ele>
        <time>2020-09-26T10:07:28.000Z</time>
      </trkpt>
      <trkpt lat="43.67539" lon="3.82119">
        <ele>137.01397268569</ele>
        <time>2020-09-26T10:07:30.000Z</time>
      </trkpt>
      <trkpt lat="43.67543" lon="3.82119">
        <ele>136.72044166441</ele>
        <time>2020-09-26T10:07:31.000Z</time>
      </trkpt>
      <trkpt lat="43.67548" lon="3.82118">
        <ele>136.41984026924</ele>
        <time>2020-09-26T10:07:32.000Z</time>
      </trkpt>
      <trkpt lat="43.67552" lon="3.82117">
        <ele>136.11923887406</ele>
        <time>2020-09-26T10:07:33.000Z</time>
      </trkpt>
      <trkpt lat="43.67565" lon="3.82113">
        <ele>135.21743468854</ele>
        <time>2020-09-26T10:07:36.000Z</time>
      </trkpt>
      <trkpt lat="43.6757" lon="3.82111">
        <ele>134.91683329336</ele>
        <time>2020-09-26T10:07:37.000Z</time>
      </trkpt>
      <trkpt lat="43.67574" lon="3.8211">
        <ele>134.61623189818</ele>
        <time>2020-09-26T10:07:38.000Z</time>
      </trkpt>
      <trkpt lat="43.67578" lon="3.82109">
        <ele>134.31563050301</ele>
        <time>2020-09-26T10:07:39.000Z</time>
      </trkpt>
      <trkpt lat="43.67581" lon="3.82109">
        <ele>134.01502910783</ele>
        <time>2020-09-26T10:07:40.000Z</time>
      </trkpt>
      <trkpt lat="43.67584" lon="3.82108">
        <ele>133.42999808</ele>
        <time>2020-09-26T10:07:41.000Z</time>
      </trkpt>
      <trkpt lat="43.67587" lon="3.82107">
        <ele>132.82999808</ele>
        <time>2020-09-26T10:07:42.000Z</time>
      </trkpt>
      <trkpt lat="43.67591" lon="3.82106">
        <ele>132.22999808</ele>
        <time>2020-09-26T10:07:43.000Z</time>
      </trkpt>
      <trkpt lat="43.67594" lon="3.82105">
        <ele>131.62999808</ele>
        <time>2020-09-26T10:07:44.000Z</time>
      </trkpt>
      <trkpt lat="43.67598" lon="3.82103">
        <ele>131.02999808</ele>
        <time>2020-09-26T10:07:45.000Z</time>
      </trkpt>
      <trkpt lat="43.67601" lon="3.82103">
        <ele>130.42999808</ele>
        <time>2020-09-26T10:07:46.000Z</time>
      </trkpt>
      <trkpt lat="43.67605" lon="3.82103">
        <ele>129.82999808</ele>
        <time>2020-09-26T10:07:47.000Z</time>
      </trkpt>
      <trkpt lat="43.6761" lon="3.82104">
        <ele>129.22999808</ele>
        <time>2020-09-26T10:07:48.000Z</time>
      </trkpt>
      <trkpt lat="43.67614" lon="3.82105">
        <ele>128.62999808</ele>
        <time>2020-09-26T10:07:49.000Z</time>
      </trkpt>
      <trkpt lat="43.6762" lon="3.82105">
        <ele>128.02999808</ele>
        <time>2020-09-26T10:07:50.000Z</time>
      </trkpt>
      <trkpt lat="43.67625" lon="3.82105">
        <ele>127.81571233654</ele>
        <time>2020-09-26T10:07:51.000Z</time>
      </trkpt>
      <trkpt lat="43.67631" lon="3.82104">
        <ele>127.6217259758</ele>
        <time>2020-09-26T10:07:52.000Z</time>
      </trkpt>
      <trkpt lat="43.67636" lon="3.82103">
        <ele>127.42773961506</ele>
        <time>2020-09-26T10:07:53.000Z</time>
      </trkpt>
      <trkpt lat="43.6764" lon="3.82102">
        <ele>127.23375325432</ele>
        <time>2020-09-26T10:07:54.000Z</time>
      </trkpt>
      <trkpt lat="43.67644" lon="3.82102">
        <ele>127.03976689357</ele>
        <time>2020-09-26T10:07:55.000Z</time>
      </trkpt>
      <trkpt lat="43.67646" lon="3.82101">
        <ele>126.84578053283</ele>
        <time>2020-09-26T10:07:56.000Z</time>
      </trkpt>
      <trkpt lat="43.67649" lon="3.821">
        <ele>126.45780781135</ele>
        <time>2020-09-26T10:07:58.000Z</time>
      </trkpt>
      <trkpt lat="43.67652" lon="3.821">
        <ele>126.06983508987</ele>
        <time>2020-09-26T10:08:00.000Z</time>
      </trkpt>
      <trkpt lat="43.67656" lon="3.82099">
        <ele>125.79028115829</ele>
        <time>2020-09-26T10:08:02.000Z</time>
      </trkpt>
      <trkpt lat="43.67657" lon="3.82099">
        <ele>125.02301710324</ele>
        <time>2020-09-26T10:08:08.000Z</time>
      </trkpt>
      <trkpt lat="43.67651" lon="3.82103">
        <ele>123.02857995738</ele>
        <time>2020-09-26T10:08:43.000Z</time>
      </trkpt>
      <trkpt lat="43.67648" lon="3.82104">
        <ele>122.94863761753</ele>
        <time>2020-09-26T10:08:44.000Z</time>
      </trkpt>
      <trkpt lat="43.67645" lon="3.82105">
        <ele>122.84381574428</ele>
        <time>2020-09-26T10:08:45.000Z</time>
      </trkpt>
      <trkpt lat="43.67642" lon="3.82105">
        <ele>122.73899387102</ele>
        <time>2020-09-26T10:08:46.000Z</time>
      </trkpt>
      <trkpt lat="43.67639" lon="3.82106">
        <ele>122.63417199777</ele>
        <time>2020-09-26T10:08:47.000Z</time>
      </trkpt>
      <trkpt lat="43.67636" lon="3.82107">
        <ele>122.52935012451</ele>
        <time>2020-09-26T10:08:48.000Z</time>
      </trkpt>
      <trkpt lat="43.67632" lon="3.82107">
        <ele>122.42452825126</ele>
        <time>2020-09-26T10:08:49.000Z</time>
      </trkpt>
      <trkpt lat="43.67629" lon="3.82107">
        <ele>122.319706378</ele>
        <time>2020-09-26T10:08:50.000Z</time>
      </trkpt>
      <trkpt lat="43.67625" lon="3.82108">
        <ele>122.21488450474</ele>
        <time>2020-09-26T10:08:51.000Z</time>
      </trkpt>
      <trkpt lat="43.67621" lon="3.82108">
        <ele>122.11006263149</ele>
        <time>2020-09-26T10:08:52.000Z</time>
      </trkpt>
      <trkpt lat="43.67618" lon="3.82109">
        <ele>122.00524075823</ele>
        <time>2020-09-26T10:08:53.000Z</time>
      </trkpt>
      <trkpt lat="43.67614" lon="3.82109">
        <ele>121.90767713181</ele>
        <time>2020-09-26T10:08:54.000Z</time>
      </trkpt>
      <trkpt lat="43.67611" lon="3.82109">
        <ele>121.81049549264</ele>
        <time>2020-09-26T10:08:55.000Z</time>
      </trkpt>
      <trkpt lat="43.67607" lon="3.82108">
        <ele>121.71331385347</ele>
        <time>2020-09-26T10:08:56.000Z</time>
      </trkpt>
      <trkpt lat="43.67604" lon="3.82107">
        <ele>121.6161322143</ele>
        <time>2020-09-26T10:08:57.000Z</time>
      </trkpt>
      <trkpt lat="43.676" lon="3.82106">
        <ele>121.51895057513</ele>
        <time>2020-09-26T10:08:58.000Z</time>
      </trkpt>
      <trkpt lat="43.67597" lon="3.82106">
        <ele>121.42176893596</ele>
        <time>2020-09-26T10:08:59.000Z</time>
      </trkpt>
      <trkpt lat="43.67595" lon="3.82107">
        <ele>121.32458729679</ele>
        <time>2020-09-26T10:09:00.000Z</time>
      </trkpt>
      <trkpt lat="43.67593" lon="3.82107">
        <ele>121.22740565762</ele>
        <time>2020-09-26T10:09:01.000Z</time>
      </trkpt>
      <trkpt lat="43.67592" lon="3.82107">
        <ele>121</ele>
        <time>2020-09-26T10:09:08.000Z</time>
      </trkpt>
      <trkpt lat="43.67583" lon="3.82111">
        <ele>121</ele>
        <time>2020-09-26T10:09:19.000Z</time>
      </trkpt>
      <trkpt lat="43.67581" lon="3.82112">
        <ele>121.07747199265</ele>
        <time>2020-09-26T10:09:20.000Z</time>
      </trkpt>
      <trkpt lat="43.67577" lon="3.82113">
        <ele>121.28134565752</ele>
        <time>2020-09-26T10:09:22.000Z</time>
      </trkpt>
      <trkpt lat="43.67575" lon="3.82113">
        <ele>121.38328248996</ele>
        <time>2020-09-26T10:09:23.000Z</time>
      </trkpt>
      <trkpt lat="43.67573" lon="3.82113">
        <ele>121.4852193224</ele>
        <time>2020-09-26T10:09:24.000Z</time>
      </trkpt>
      <trkpt lat="43.6757" lon="3.82113">
        <ele>121.68909298727</ele>
        <time>2020-09-26T10:09:26.000Z</time>
      </trkpt>
      <trkpt lat="43.67567" lon="3.82113">
        <ele>121.89296665214</ele>
        <time>2020-09-26T10:09:28.000Z</time>
      </trkpt>
      <trkpt lat="43.67564" lon="3.82115">
        <ele>122.09232286819</ele>
        <time>2020-09-26T10:09:30.000Z</time>
      </trkpt>
      <trkpt lat="43.67563" lon="3.8212">
        <ele>122.28668614653</ele>
        <time>2020-09-26T10:09:32.000Z</time>
      </trkpt>
      <trkpt lat="43.67564" lon="3.82124">
        <ele>122.48104942487</ele>
        <time>2020-09-26T10:09:34.000Z</time>
      </trkpt>
      <trkpt lat="43.67564" lon="3.82127">
        <ele>122.57823106404</ele>
        <time>2020-09-26T10:09:35.000Z</time>
      </trkpt>
      <trkpt lat="43.67564" lon="3.82129">
        <ele>122.67541270321</ele>
        <time>2020-09-26T10:09:36.000Z</time>
      </trkpt>
      <trkpt lat="43.67564" lon="3.82132">
        <ele>122.77259434238</ele>
        <time>2020-09-26T10:09:37.000Z</time>
      </trkpt>
      <trkpt lat="43.67565" lon="3.82134">
        <ele>122.86977598155</ele>
        <time>2020-09-26T10:09:38.000Z</time>
      </trkpt>
      <trkpt lat="43.67565" lon="3.82137">
        <ele>122.96695762072</ele>
        <time>2020-09-26T10:09:39.000Z</time>
      </trkpt>
      <trkpt lat="43.67565" lon="3.8214">
        <ele>123.06797057184</ele>
        <time>2020-09-26T10:09:40.000Z</time>
      </trkpt>
      <trkpt lat="43.67566" lon="3.82142">
        <ele>123.1709572854</ele>
        <time>2020-09-26T10:09:41.000Z</time>
      </trkpt>
      <trkpt lat="43.67567" lon="3.82144">
        <ele>123.27394399896</ele>
        <time>2020-09-26T10:09:42.000Z</time>
      </trkpt>
      <trkpt lat="43.67567" lon="3.82147">
        <ele>123.37693071252</ele>
        <time>2020-09-26T10:09:43.000Z</time>
      </trkpt>
      <trkpt lat="43.67569" lon="3.82151">
        <ele>123.58290413964</ele>
        <time>2020-09-26T10:09:45.000Z</time>
      </trkpt>
      <trkpt lat="43.6757" lon="3.82154">
        <ele>123.6858908532</ele>
        <time>2020-09-26T10:09:46.000Z</time>
      </trkpt>
      <trkpt lat="43.6757" lon="3.82156">
        <ele>123.78887756676</ele>
        <time>2020-09-26T10:09:47.000Z</time>
      </trkpt>
      <trkpt lat="43.67571" lon="3.82159">
        <ele>123.89186428032</ele>
        <time>2020-09-26T10:09:48.000Z</time>
      </trkpt>
      <trkpt lat="43.67572" lon="3.82161">
        <ele>123.99485099388</ele>
        <time>2020-09-26T10:09:49.000Z</time>
      </trkpt>
      <trkpt lat="43.67573" lon="3.82164">
        <ele>124.09424634921</ele>
        <time>2020-09-26T10:09:50.000Z</time>
      </trkpt>
      <trkpt lat="43.67574" lon="3.82166">
        <ele>124.19345269841</ele>
        <time>2020-09-26T10:09:51.000Z</time>
      </trkpt>
      <trkpt lat="43.67576" lon="3.8217">
        <ele>124.39186539682</ele>
        <time>2020-09-26T10:09:53.000Z</time>
      </trkpt>
      <trkpt lat="43.67578" lon="3.82174">
        <ele>124.59027809524</ele>
        <time>2020-09-26T10:09:55.000Z</time>
      </trkpt>
      <trkpt lat="43.67581" lon="3.82176">
        <ele>124.78869079365</ele>
        <time>2020-09-26T10:09:57.000Z</time>
      </trkpt>
      <trkpt lat="43.67584" lon="3.82177">
        <ele>124.98710349206</ele>
        <time>2020-09-26T10:09:59.000Z</time>
      </trkpt>
      <trkpt lat="43.67587" lon="3.82175">
        <ele>125.18315391202</ele>
        <time>2020-09-26T10:10:01.000Z</time>
      </trkpt>
      <trkpt lat="43.6759" lon="3.82172">
        <ele>125.37904011373</ele>
        <time>2020-09-26T10:10:03.000Z</time>
      </trkpt>
      <trkpt lat="43.67592" lon="3.8217">
        <ele>125.47698321459</ele>
        <time>2020-09-26T10:10:04.000Z</time>
      </trkpt>
      <trkpt lat="43.67594" lon="3.82169">
        <ele>125.57492631545</ele>
        <time>2020-09-26T10:10:05.000Z</time>
      </trkpt>
      <trkpt lat="43.67596" lon="3.82168">
        <ele>125.6728694163</ele>
        <time>2020-09-26T10:10:06.000Z</time>
      </trkpt>
      <trkpt lat="43.67598" lon="3.82167">
        <ele>125.77081251716</ele>
        <time>2020-09-26T10:10:07.000Z</time>
      </trkpt>
      <trkpt lat="43.676" lon="3.82167">
        <ele>125.86875561802</ele>
        <time>2020-09-26T10:10:08.000Z</time>
      </trkpt>
      <trkpt lat="43.67602" lon="3.82168">
        <ele>125.96669871887</ele>
        <time>2020-09-26T10:10:09.000Z</time>
      </trkpt>
      <trkpt lat="43.67604" lon="3.82169">
        <ele>126</ele>
        <time>2020-09-26T10:10:10.000Z</time>
      </trkpt>
      <trkpt lat="43.67606" lon="3.8217">
        <ele>126</ele>
        <time>2020-09-26T10:10:11.000Z</time>
      </trkpt>
      <trkpt lat="43.67608" lon="3.82171">
        <ele>126</ele>
        <time>2020-09-26T10:10:12.000Z</time>
      </trkpt>
      <trkpt lat="43.6761" lon="3.82172">
        <ele>126</ele>
        <time>2020-09-26T10:10:13.000Z</time>
      </trkpt>
      <trkpt lat="43.67612" lon="3.82173">
        <ele>126</ele>
        <time>2020-09-26T10:10:14.000Z</time>
      </trkpt>
      <trkpt lat="43.67614" lon="3.82173">
        <ele>126</ele>
        <time>2020-09-26T10:10:15.000Z</time>
      </trkpt>
      <trkpt lat="43.67617" lon="3.82173">
        <ele>126</ele>
        <time>2020-09-26T10:10:17.000Z</time>
      </trkpt>
      <trkpt lat="43.6762" lon="3.82176">
        <ele>126</ele>
        <time>2020-09-26T10:10:19.000Z</time>
      </trkpt>
      <trkpt lat="43.67621" lon="3.82178">
        <ele>126</ele>
        <time>2020-09-26T10:10:20.000Z</time>
      </trkpt>
      <trkpt lat="43.67622" lon="3.82181">
        <ele>126</ele>
        <time>2020-09-26T10:10:21.000Z</time>
      </trkpt>
      <trkpt lat="43.67624" lon="3.82182">
        <ele>126</ele>
        <time>2020-09-26T10:10:23.000Z</time>
      </trkpt>
      <trkpt lat="43.67627" lon="3.82182">
        <ele>126</ele>
        <time>2020-09-26T10:10:25.000Z</time>
      </trkpt>
      <trkpt lat="43.67628" lon="3.82181">
        <ele>126</ele>
        <time>2020-09-26T10:10:29.000Z</time>
      </trkpt>
      <trkpt lat="43.67626" lon="3.82181">
        <ele>125.60499968</ele>
        <time>2020-09-26T10:10:33.000Z</time>
      </trkpt>
      <trkpt lat="43.67624" lon="3.82182">
        <ele>125.50499968</ele>
        <time>2020-09-26T10:10:34.000Z</time>
      </trkpt>
      <trkpt lat="43.67621" lon="3.82183">
        <ele>125.40499968</ele>
        <time>2020-09-26T10:10:35.000Z</time>
      </trkpt>
      <trkpt lat="43.67619" lon="3.82184">
        <ele>125.30499968</ele>
        <time>2020-09-26T10:10:36.000Z</time>
      </trkpt>
      <trkpt lat="43.67616" lon="3.82185">
        <ele>125.20499968</ele>
        <time>2020-09-26T10:10:37.000Z</time>
      </trkpt>
      <trkpt lat="43.67613" lon="3.82187">
        <ele>125.10499968</ele>
        <time>2020-09-26T10:10:38.000Z</time>
      </trkpt>
      <trkpt lat="43.67611" lon="3.82188">
        <ele>125.00499968</ele>
        <time>2020-09-26T10:10:39.000Z</time>
      </trkpt>
      <trkpt lat="43.67608" lon="3.8219">
        <ele>125.09500032</ele>
        <time>2020-09-26T10:10:40.000Z</time>
      </trkpt>
      <trkpt lat="43.67605" lon="3.82192">
        <ele>125.19500032</ele>
        <time>2020-09-26T10:10:41.000Z</time>
      </trkpt>
      <trkpt lat="43.67602" lon="3.82194">
        <ele>125.29500032</ele>
        <time>2020-09-26T10:10:42.000Z</time>
      </trkpt>
      <trkpt lat="43.67599" lon="3.82196">
        <ele>125.39500032</ele>
        <time>2020-09-26T10:10:43.000Z</time>
      </trkpt>
      <trkpt lat="43.67596" lon="3.82198">
        <ele>125.49500032</ele>
        <time>2020-09-26T10:10:44.000Z</time>
      </trkpt>
      <trkpt lat="43.67593" lon="3.822">
        <ele>125.59500032</ele>
        <time>2020-09-26T10:10:45.000Z</time>
      </trkpt>
      <trkpt lat="43.6759" lon="3.82202">
        <ele>125.69500032</ele>
        <time>2020-09-26T10:10:46.000Z</time>
      </trkpt>
      <trkpt lat="43.67587" lon="3.82204">
        <ele>125.79500032</ele>
        <time>2020-09-26T10:10:47.000Z</time>
      </trkpt>
      <trkpt lat="43.67584" lon="3.82206">
        <ele>125.89500032</ele>
        <time>2020-09-26T10:10:48.000Z</time>
      </trkpt>
      <trkpt lat="43.67581" lon="3.82208">
        <ele>125.99500032</ele>
        <time>2020-09-26T10:10:49.000Z</time>
      </trkpt>
      <trkpt lat="43.67578" lon="3.8221">
        <ele>126</ele>
        <time>2020-09-26T10:10:50.000Z</time>
      </trkpt>
      <trkpt lat="43.67575" lon="3.82211">
        <ele>126</ele>
        <time>2020-09-26T10:10:51.000Z</time>
      </trkpt>
      <trkpt lat="43.67572" lon="3.82213">
        <ele>126</ele>
        <time>2020-09-26T10:10:52.000Z</time>
      </trkpt>
      <trkpt lat="43.67569" lon="3.82215">
        <ele>126</ele>
        <time>2020-09-26T10:10:53.000Z</time>
      </trkpt>
      <trkpt lat="43.67566" lon="3.82218">
        <ele>126</ele>
        <time>2020-09-26T10:10:54.000Z</time>
      </trkpt>
      <trkpt lat="43.67563" lon="3.8222">
        <ele>126</ele>
        <time>2020-09-26T10:10:55.000Z</time>
      </trkpt>
      <trkpt lat="43.6756" lon="3.82222">
        <ele>126</ele>
        <time>2020-09-26T10:10:56.000Z</time>
      </trkpt>
      <trkpt lat="43.67556" lon="3.82224">
        <ele>126</ele>
        <time>2020-09-26T10:10:57.000Z</time>
      </trkpt>
      <trkpt lat="43.67553" lon="3.82225">
        <ele>126</ele>
        <time>2020-09-26T10:10:58.000Z</time>
      </trkpt>
      <trkpt lat="43.6755" lon="3.82227">
        <ele>126</ele>
        <time>2020-09-26T10:10:59.000Z</time>
      </trkpt>
      <trkpt lat="43.67548" lon="3.82229">
        <ele>126.09409470459</ele>
        <time>2020-09-26T10:11:00.000Z</time>
      </trkpt>
      <trkpt lat="43.67545" lon="3.82231">
        <ele>126.19419477263</ele>
        <time>2020-09-26T10:11:01.000Z</time>
      </trkpt>
      <trkpt lat="43.67542" lon="3.82233">
        <ele>126.29429484067</ele>
        <time>2020-09-26T10:11:02.000Z</time>
      </trkpt>
      <trkpt lat="43.67539" lon="3.82234">
        <ele>126.3943949087</ele>
        <time>2020-09-26T10:11:03.000Z</time>
      </trkpt>
      <trkpt lat="43.67537" lon="3.82236">
        <ele>126.49449497674</ele>
        <time>2020-09-26T10:11:04.000Z</time>
      </trkpt>
      <trkpt lat="43.67534" lon="3.82238">
        <ele>126.59459504477</ele>
        <time>2020-09-26T10:11:05.000Z</time>
      </trkpt>
      <trkpt lat="43.67531" lon="3.8224">
        <ele>126.69469511281</ele>
        <time>2020-09-26T10:11:06.000Z</time>
      </trkpt>
      <trkpt lat="43.67528" lon="3.82242">
        <ele>126.79479518085</ele>
        <time>2020-09-26T10:11:07.000Z</time>
      </trkpt>
      <trkpt lat="43.67525" lon="3.82244">
        <ele>126.89489524888</ele>
        <time>2020-09-26T10:11:08.000Z</time>
      </trkpt>
      <trkpt lat="43.67522" lon="3.82247">
        <ele>126.99499531692</ele>
        <time>2020-09-26T10:11:09.000Z</time>
      </trkpt>
      <trkpt lat="43.67519" lon="3.82249">
        <ele>127</ele>
        <time>2020-09-26T10:11:10.000Z</time>
      </trkpt>
      <trkpt lat="43.67517" lon="3.82251">
        <ele>127</ele>
        <time>2020-09-26T10:11:11.000Z</time>
      </trkpt>
      <trkpt lat="43.67519" lon="3.8225">
        <ele>127</ele>
        <time>2020-09-26T10:11:17.000Z</time>
      </trkpt>
      <trkpt lat="43.67519" lon="3.82251">
        <ele>127</ele>
        <time>2020-09-26T10:11:20.000Z</time>
      </trkpt>
      <trkpt lat="43.6751" lon="3.82254">
        <ele>127</ele>
        <time>2020-09-26T10:11:26.000Z</time>
      </trkpt>
      <trkpt lat="43.67508" lon="3.82255">
        <ele>127</ele>
        <time>2020-09-26T10:11:27.000Z</time>
      </trkpt>
      <trkpt lat="43.67506" lon="3.82257">
        <ele>127</ele>
        <time>2020-09-26T10:11:28.000Z</time>
      </trkpt>
      <trkpt lat="43.67503" lon="3.82258">
        <ele>127</ele>
        <time>2020-09-26T10:11:29.000Z</time>
      </trkpt>
      <trkpt lat="43.67501" lon="3.82261">
        <ele>127</ele>
        <time>2020-09-26T10:11:30.000Z</time>
      </trkpt>
      <trkpt lat="43.67498" lon="3.82263">
        <ele>127</ele>
        <time>2020-09-26T10:11:31.000Z</time>
      </trkpt>
      <trkpt lat="43.67496" lon="3.82265">
        <ele>127</ele>
        <time>2020-09-26T10:11:32.000Z</time>
      </trkpt>
      <trkpt lat="43.67493" lon="3.82268">
        <ele>127</ele>
        <time>2020-09-26T10:11:33.000Z</time>
      </trkpt>
      <trkpt lat="43.67491" lon="3.82271">
        <ele>127</ele>
        <time>2020-09-26T10:11:34.000Z</time>
      </trkpt>
      <trkpt lat="43.67488" lon="3.82274">
        <ele>127</ele>
        <time>2020-09-26T10:11:35.000Z</time>
      </trkpt>
      <trkpt lat="43.67486" lon="3.82278">
        <ele>127.09232286819</ele>
        <time>2020-09-26T10:11:36.000Z</time>
      </trkpt>
      <trkpt lat="43.67484" lon="3.82281">
        <ele>127.18950450736</ele>
        <time>2020-09-26T10:11:37.000Z</time>
      </trkpt>
      <trkpt lat="43.67482" lon="3.82285">
        <ele>127.28668614653</ele>
        <time>2020-09-26T10:11:38.000Z</time>
      </trkpt>
      <trkpt lat="43.6748" lon="3.82289">
        <ele>127.3838677857</ele>
        <time>2020-09-26T10:11:39.000Z</time>
      </trkpt>
      <trkpt lat="43.67478" lon="3.82292">
        <ele>127.48104942487</ele>
        <time>2020-09-26T10:11:40.000Z</time>
      </trkpt>
      <trkpt lat="43.67477" lon="3.82296">
        <ele>127.57823106404</ele>
        <time>2020-09-26T10:11:41.000Z</time>
      </trkpt>
      <trkpt lat="43.67476" lon="3.823">
        <ele>127.67541270321</ele>
        <time>2020-09-26T10:11:42.000Z</time>
      </trkpt>
      <trkpt lat="43.67474" lon="3.82303">
        <ele>127.77259434238</ele>
        <time>2020-09-26T10:11:43.000Z</time>
      </trkpt>
      <trkpt lat="43.67473" lon="3.82307">
        <ele>127.86977598155</ele>
        <time>2020-09-26T10:11:44.000Z</time>
      </trkpt>
      <trkpt lat="43.67472" lon="3.82311">
        <ele>127.96695762072</ele>
        <time>2020-09-26T10:11:45.000Z</time>
      </trkpt>
      <trkpt lat="43.67471" lon="3.82315">
        <ele>128.06797057183</ele>
        <time>2020-09-26T10:11:46.000Z</time>
      </trkpt>
      <trkpt lat="43.6747" lon="3.82319">
        <ele>128.17095728539</ele>
        <time>2020-09-26T10:11:47.000Z</time>
      </trkpt>
      <trkpt lat="43.67469" lon="3.82323">
        <ele>128.27394399896</ele>
        <time>2020-09-26T10:11:48.000Z</time>
      </trkpt>
      <trkpt lat="43.67469" lon="3.82328">
        <ele>128.37693071252</ele>
        <time>2020-09-26T10:11:49.000Z</time>
      </trkpt>
      <trkpt lat="43.67468" lon="3.82332">
        <ele>128.47991742608</ele>
        <time>2020-09-26T10:11:50.000Z</time>
      </trkpt>
      <trkpt lat="43.67467" lon="3.82336">
        <ele>128.58290413964</ele>
        <time>2020-09-26T10:11:51.000Z</time>
      </trkpt>
      <trkpt lat="43.67467" lon="3.8234">
        <ele>128.6858908532</ele>
        <time>2020-09-26T10:11:52.000Z</time>
      </trkpt>
      <trkpt lat="43.67466" lon="3.82344">
        <ele>128.78887756676</ele>
        <time>2020-09-26T10:11:53.000Z</time>
      </trkpt>
      <trkpt lat="43.67465" lon="3.82348">
        <ele>128.89186428032</ele>
        <time>2020-09-26T10:11:54.000Z</time>
      </trkpt>
      <trkpt lat="43.67465" lon="3.82352">
        <ele>128.99485099388</ele>
        <time>2020-09-26T10:11:55.000Z</time>
      </trkpt>
      <trkpt lat="43.67464" lon="3.82356">
        <ele>129.09500032</ele>
        <time>2020-09-26T10:11:56.000Z</time>
      </trkpt>
      <trkpt lat="43.67463" lon="3.8236">
        <ele>129.19500032</ele>
        <time>2020-09-26T10:11:57.000Z</time>
      </trkpt>
      <trkpt lat="43.67462" lon="3.82364">
        <ele>129.29500032</ele>
        <time>2020-09-26T10:11:58.000Z</time>
      </trkpt>
      <trkpt lat="43.67462" lon="3.82368">
        <ele>129.39500032</ele>
        <time>2020-09-26T10:11:59.000Z</time>
      </trkpt>
      <trkpt lat="43.67461" lon="3.82371">
        <ele>129.49500032</ele>
        <time>2020-09-26T10:12:00.000Z</time>
      </trkpt>
      <trkpt lat="43.6746" lon="3.82375">
        <ele>129.59500032</ele>
        <time>2020-09-26T10:12:01.000Z</time>
      </trkpt>
      <trkpt lat="43.6746" lon="3.82379">
        <ele>129.69500032</ele>
        <time>2020-09-26T10:12:02.000Z</time>
      </trkpt>
      <trkpt lat="43.67459" lon="3.82383">
        <ele>129.79500032</ele>
        <time>2020-09-26T10:12:03.000Z</time>
      </trkpt>
      <trkpt lat="43.67458" lon="3.82387">
        <ele>129.89500032</ele>
        <time>2020-09-26T10:12:04.000Z</time>
      </trkpt>
      <trkpt lat="43.67457" lon="3.82392">
        <ele>129.99500032</ele>
        <time>2020-09-26T10:12:05.000Z</time>
      </trkpt>
      <trkpt lat="43.67456" lon="3.82396">
        <ele>130.27696860458</ele>
        <time>2020-09-26T10:12:06.000Z</time>
      </trkpt>
      <trkpt lat="43.67456" lon="3.824">
        <ele>130.56851352209</ele>
        <time>2020-09-26T10:12:07.000Z</time>
      </trkpt>
      <trkpt lat="43.67455" lon="3.82403">
        <ele>130.8600584396</ele>
        <time>2020-09-26T10:12:08.000Z</time>
      </trkpt>
      <trkpt lat="43.67454" lon="3.82407">
        <ele>131.1516033571</ele>
        <time>2020-09-26T10:12:09.000Z</time>
      </trkpt>
      <trkpt lat="43.67453" lon="3.82411">
        <ele>131.44314827461</ele>
        <time>2020-09-26T10:12:10.000Z</time>
      </trkpt>
      <trkpt lat="43.67452" lon="3.82415">
        <ele>131.73469319212</ele>
        <time>2020-09-26T10:12:11.000Z</time>
      </trkpt>
      <trkpt lat="43.67451" lon="3.82418">
        <ele>132.02623810963</ele>
        <time>2020-09-26T10:12:12.000Z</time>
      </trkpt>
      <trkpt lat="43.6745" lon="3.82422">
        <ele>132.31778302714</ele>
        <time>2020-09-26T10:12:13.000Z</time>
      </trkpt>
      <trkpt lat="43.67449" lon="3.82425">
        <ele>132.60932794465</ele>
        <time>2020-09-26T10:12:14.000Z</time>
      </trkpt>
      <trkpt lat="43.67449" lon="3.82429">
        <ele>132.90087286216</ele>
        <time>2020-09-26T10:12:15.000Z</time>
      </trkpt>
      <trkpt lat="43.67448" lon="3.82433">
        <ele>133.13594114367</ele>
        <time>2020-09-26T10:12:16.000Z</time>
      </trkpt>
      <trkpt lat="43.67447" lon="3.82436">
        <ele>133.34191457079</ele>
        <time>2020-09-26T10:12:17.000Z</time>
      </trkpt>
      <trkpt lat="43.67446" lon="3.82439">
        <ele>133.54788799791</ele>
        <time>2020-09-26T10:12:18.000Z</time>
      </trkpt>
      <trkpt lat="43.67445" lon="3.82442">
        <ele>133.75386142503</ele>
        <time>2020-09-26T10:12:19.000Z</time>
      </trkpt>
      <trkpt lat="43.67443" lon="3.82445">
        <ele>133.95983485215</ele>
        <time>2020-09-26T10:12:20.000Z</time>
      </trkpt>
      <trkpt lat="43.67441" lon="3.82446">
        <ele>134.16580827928</ele>
        <time>2020-09-26T10:12:21.000Z</time>
      </trkpt>
      <trkpt lat="43.67438" lon="3.82447">
        <ele>134.3717817064</ele>
        <time>2020-09-26T10:12:22.000Z</time>
      </trkpt>
      <trkpt lat="43.67436" lon="3.82447">
        <ele>134.57775513352</ele>
        <time>2020-09-26T10:12:23.000Z</time>
      </trkpt>
      <trkpt lat="43.67433" lon="3.82448">
        <ele>134.78372856064</ele>
        <time>2020-09-26T10:12:24.000Z</time>
      </trkpt>
      <trkpt lat="43.67431" lon="3.82449">
        <ele>134.98970198776</ele>
        <time>2020-09-26T10:12:25.000Z</time>
      </trkpt>
      <trkpt lat="43.67429" lon="3.82451">
        <ele>135</ele>
        <time>2020-09-26T10:12:26.000Z</time>
      </trkpt>
      <trkpt lat="43.67426" lon="3.82452">
        <ele>135</ele>
        <time>2020-09-26T10:12:27.000Z</time>
      </trkpt>
      <trkpt lat="43.67423" lon="3.82452">
        <ele>135</ele>
        <time>2020-09-26T10:12:28.000Z</time>
      </trkpt>
      <trkpt lat="43.6742" lon="3.82451">
        <ele>135</ele>
        <time>2020-09-26T10:12:29.000Z</time>
      </trkpt>
      <trkpt lat="43.67417" lon="3.82449">
        <ele>135</ele>
        <time>2020-09-26T10:12:30.000Z</time>
      </trkpt>
      <trkpt lat="43.67414" lon="3.82448">
        <ele>135</ele>
        <time>2020-09-26T10:12:31.000Z</time>
      </trkpt>
      <trkpt lat="43.6741" lon="3.82446">
        <ele>135</ele>
        <time>2020-09-26T10:12:32.000Z</time>
      </trkpt>
      <trkpt lat="43.67408" lon="3.82445">
        <ele>135</ele>
        <time>2020-09-26T10:12:33.000Z</time>
      </trkpt>
      <trkpt lat="43.67405" lon="3.82444">
        <ele>135</ele>
        <time>2020-09-26T10:12:34.000Z</time>
      </trkpt>
      <trkpt lat="43.67403" lon="3.82444">
        <ele>135</ele>
        <time>2020-09-26T10:12:35.000Z</time>
      </trkpt>
      <trkpt lat="43.674" lon="3.82443">
        <ele>134.90499968</ele>
        <time>2020-09-26T10:12:36.000Z</time>
      </trkpt>
      <trkpt lat="43.67398" lon="3.82443">
        <ele>134.80499968</ele>
        <time>2020-09-26T10:12:37.000Z</time>
      </trkpt>
      <trkpt lat="43.67396" lon="3.82442">
        <ele>134.70499968</ele>
        <time>2020-09-26T10:12:38.000Z</time>
      </trkpt>
      <trkpt lat="43.67393" lon="3.82441">
        <ele>134.60499968</ele>
        <time>2020-09-26T10:12:39.000Z</time>
      </trkpt>
      <trkpt lat="43.67391" lon="3.82441">
        <ele>134.50499968</ele>
        <time>2020-09-26T10:12:40.000Z</time>
      </trkpt>
      <trkpt lat="43.67389" lon="3.82441">
        <ele>134.40499968</ele>
        <time>2020-09-26T10:12:41.000Z</time>
      </trkpt>
      <trkpt lat="43.67386" lon="3.82443">
        <ele>134.20499968</ele>
        <time>2020-09-26T10:12:43.000Z</time>
      </trkpt>
      <trkpt lat="43.67384" lon="3.82445">
        <ele>134.10499968</ele>
        <time>2020-09-26T10:12:44.000Z</time>
      </trkpt>
      <trkpt lat="43.67382" lon="3.82446">
        <ele>134.00499968</ele>
        <time>2020-09-26T10:12:45.000Z</time>
      </trkpt>
      <trkpt lat="43.67379" lon="3.82445">
        <ele>134.09232286819</ele>
        <time>2020-09-26T10:12:46.000Z</time>
      </trkpt>
      <trkpt lat="43.67378" lon="3.82445">
        <ele>134.18950450736</ele>
        <time>2020-09-26T10:12:47.000Z</time>
      </trkpt>
      <trkpt lat="43.67375" lon="3.82444">
        <ele>134.3838677857</ele>
        <time>2020-09-26T10:12:49.000Z</time>
      </trkpt>
      <trkpt lat="43.67373" lon="3.82443">
        <ele>134.48104942487</ele>
        <time>2020-09-26T10:12:50.000Z</time>
      </trkpt>
      <trkpt lat="43.6737" lon="3.82442">
        <ele>134.57823106404</ele>
        <time>2020-09-26T10:12:51.000Z</time>
      </trkpt>
      <trkpt lat="43.67367" lon="3.82441">
        <ele>134.67541270321</ele>
        <time>2020-09-26T10:12:52.000Z</time>
      </trkpt>
      <trkpt lat="43.67365" lon="3.82439">
        <ele>134.77259434238</ele>
        <time>2020-09-26T10:12:53.000Z</time>
      </trkpt>
      <trkpt lat="43.67362" lon="3.82437">
        <ele>134.86977598155</ele>
        <time>2020-09-26T10:12:54.000Z</time>
      </trkpt>
      <trkpt lat="43.6736" lon="3.82434">
        <ele>134.96695762072</ele>
        <time>2020-09-26T10:12:55.000Z</time>
      </trkpt>
      <trkpt lat="43.67357" lon="3.82433">
        <ele>135</ele>
        <time>2020-09-26T10:12:56.000Z</time>
      </trkpt>
      <trkpt lat="43.67355" lon="3.82432">
        <ele>135</ele>
        <time>2020-09-26T10:12:57.000Z</time>
      </trkpt>
      <trkpt lat="43.67351" lon="3.82433">
        <ele>135</ele>
        <time>2020-09-26T10:12:58.000Z</time>
      </trkpt>
      <trkpt lat="43.67348" lon="3.82433">
        <ele>135</ele>
        <time>2020-09-26T10:12:59.000Z</time>
      </trkpt>
      <trkpt lat="43.67344" lon="3.82434">
        <ele>135</ele>
        <time>2020-09-26T10:13:00.000Z</time>
      </trkpt>
      <trkpt lat="43.6734" lon="3.82434">
        <ele>135</ele>
        <time>2020-09-26T10:13:01.000Z</time>
      </trkpt>
      <trkpt lat="43.67335" lon="3.82434">
        <ele>135</ele>
        <time>2020-09-26T10:13:02.000Z</time>
      </trkpt>
      <trkpt lat="43.67331" lon="3.82434">
        <ele>135</ele>
        <time>2020-09-26T10:13:03.000Z</time>
      </trkpt>
      <trkpt lat="43.67327" lon="3.82435">
        <ele>135</ele>
        <time>2020-09-26T10:13:04.000Z</time>
      </trkpt>
      <trkpt lat="43.67323" lon="3.82436">
        <ele>135</ele>
        <time>2020-09-26T10:13:05.000Z</time>
      </trkpt>
      <trkpt lat="43.6732" lon="3.82437">
        <ele>135</ele>
        <time>2020-09-26T10:13:06.000Z</time>
      </trkpt>
      <trkpt lat="43.67316" lon="3.82438">
        <ele>135</ele>
        <time>2020-09-26T10:13:07.000Z</time>
      </trkpt>
      <trkpt lat="43.67313" lon="3.82439">
        <ele>135</ele>
        <time>2020-09-26T10:13:08.000Z</time>
      </trkpt>
      <trkpt lat="43.67309" lon="3.8244">
        <ele>135</ele>
        <time>2020-09-26T10:13:09.000Z</time>
      </trkpt>
      <trkpt lat="43.67306" lon="3.82441">
        <ele>135</ele>
        <time>2020-09-26T10:13:10.000Z</time>
      </trkpt>
      <trkpt lat="43.67303" lon="3.82442">
        <ele>135</ele>
        <time>2020-09-26T10:13:11.000Z</time>
      </trkpt>
      <trkpt lat="43.673" lon="3.82443">
        <ele>135</ele>
        <time>2020-09-26T10:13:12.000Z</time>
      </trkpt>
      <trkpt lat="43.67297" lon="3.82443">
        <ele>135</ele>
        <time>2020-09-26T10:13:13.000Z</time>
      </trkpt>
      <trkpt lat="43.67293" lon="3.82443">
        <ele>135</ele>
        <time>2020-09-26T10:13:14.000Z</time>
      </trkpt>
      <trkpt lat="43.6729" lon="3.82443">
        <ele>135</ele>
        <time>2020-09-26T10:13:15.000Z</time>
      </trkpt>
      <trkpt lat="43.67286" lon="3.82443">
        <ele>135.09277375</ele>
        <time>2020-09-26T10:13:16.000Z</time>
      </trkpt>
      <trkpt lat="43.67283" lon="3.82443">
        <ele>135.19043</ele>
        <time>2020-09-26T10:13:17.000Z</time>
      </trkpt>
      <trkpt lat="43.67279" lon="3.82443">
        <ele>135.28808625</ele>
        <time>2020-09-26T10:13:18.000Z</time>
      </trkpt>
      <trkpt lat="43.67276" lon="3.82445">
        <ele>135.3857425</ele>
        <time>2020-09-26T10:13:19.000Z</time>
      </trkpt>
      <trkpt lat="43.67274" lon="3.82446">
        <ele>135.48339875</ele>
        <time>2020-09-26T10:13:20.000Z</time>
      </trkpt>
      <trkpt lat="43.67271" lon="3.82447">
        <ele>135.581055</ele>
        <time>2020-09-26T10:13:21.000Z</time>
      </trkpt>
      <trkpt lat="43.67268" lon="3.82448">
        <ele>135.67871125</ele>
        <time>2020-09-26T10:13:22.000Z</time>
      </trkpt>
      <trkpt lat="43.67265" lon="3.8245">
        <ele>135.7763675</ele>
        <time>2020-09-26T10:13:23.000Z</time>
      </trkpt>
      <trkpt lat="43.67262" lon="3.82451">
        <ele>135.87402375</ele>
        <time>2020-09-26T10:13:24.000Z</time>
      </trkpt>
      <trkpt lat="43.67259" lon="3.82452">
        <ele>135.97168</ele>
        <time>2020-09-26T10:13:25.000Z</time>
      </trkpt>
      <trkpt lat="43.67256" lon="3.82454">
        <ele>136</ele>
        <time>2020-09-26T10:13:26.000Z</time>
      </trkpt>
      <trkpt lat="43.67252" lon="3.82456">
        <ele>136</ele>
        <time>2020-09-26T10:13:27.000Z</time>
      </trkpt>
      <trkpt lat="43.67248" lon="3.82458">
        <ele>136</ele>
        <time>2020-09-26T10:13:28.000Z</time>
      </trkpt>
      <trkpt lat="43.67244" lon="3.8246">
        <ele>136</ele>
        <time>2020-09-26T10:13:29.000Z</time>
      </trkpt>
      <trkpt lat="43.6724" lon="3.82462">
        <ele>136</ele>
        <time>2020-09-26T10:13:30.000Z</time>
      </trkpt>
      <trkpt lat="43.67237" lon="3.82463">
        <ele>136</ele>
        <time>2020-09-26T10:13:31.000Z</time>
      </trkpt>
      <trkpt lat="43.67233" lon="3.82464">
        <ele>136</ele>
        <time>2020-09-26T10:13:32.000Z</time>
      </trkpt>
      <trkpt lat="43.6723" lon="3.82466">
        <ele>136</ele>
        <time>2020-09-26T10:13:33.000Z</time>
      </trkpt>
      <trkpt lat="43.67227" lon="3.82467">
        <ele>136</ele>
        <time>2020-09-26T10:13:34.000Z</time>
      </trkpt>
      <trkpt lat="43.67223" lon="3.82468">
        <ele>136</ele>
        <time>2020-09-26T10:13:35.000Z</time>
      </trkpt>
      <trkpt lat="43.6722" lon="3.82469">
        <ele>135.90499968</ele>
        <time>2020-09-26T10:13:36.000Z</time>
      </trkpt>
      <trkpt lat="43.67216" lon="3.8247">
        <ele>135.80499968</ele>
        <time>2020-09-26T10:13:37.000Z</time>
      </trkpt>
      <trkpt lat="43.67211" lon="3.82472">
        <ele>135.70499968</ele>
        <time>2020-09-26T10:13:38.000Z</time>
      </trkpt>
      <trkpt lat="43.67207" lon="3.82475">
        <ele>135.60499968</ele>
        <time>2020-09-26T10:13:39.000Z</time>
      </trkpt>
      <trkpt lat="43.67203" lon="3.82478">
        <ele>135.50499968</ele>
        <time>2020-09-26T10:13:40.000Z</time>
      </trkpt>
      <trkpt lat="43.67198" lon="3.82482">
        <ele>135.40499968</ele>
        <time>2020-09-26T10:13:41.000Z</time>
      </trkpt>
      <trkpt lat="43.67194" lon="3.82487">
        <ele>135.30499968</ele>
        <time>2020-09-26T10:13:42.000Z</time>
      </trkpt>
      <trkpt lat="43.6719" lon="3.82492">
        <ele>135.20499968</ele>
        <time>2020-09-26T10:13:43.000Z</time>
      </trkpt>
      <trkpt lat="43.67185" lon="3.82498">
        <ele>135.10499968</ele>
        <time>2020-09-26T10:13:44.000Z</time>
      </trkpt>
      <trkpt lat="43.67181" lon="3.82503">
        <ele>135.00499968</ele>
        <time>2020-09-26T10:13:45.000Z</time>
      </trkpt>
      <trkpt lat="43.67177" lon="3.82509">
        <ele>134.81571233654</ele>
        <time>2020-09-26T10:13:46.000Z</time>
      </trkpt>
      <trkpt lat="43.67174" lon="3.82515">
        <ele>134.6217259758</ele>
        <time>2020-09-26T10:13:47.000Z</time>
      </trkpt>
      <trkpt lat="43.6717" lon="3.82522">
        <ele>134.42773961506</ele>
        <time>2020-09-26T10:13:48.000Z</time>
      </trkpt>
      <trkpt lat="43.67167" lon="3.82529">
        <ele>134.23375325431</ele>
        <time>2020-09-26T10:13:49.000Z</time>
      </trkpt>
      <trkpt lat="43.67165" lon="3.82537">
        <ele>134.03976689357</ele>
        <time>2020-09-26T10:13:50.000Z</time>
      </trkpt>
      <trkpt lat="43.67162" lon="3.82543">
        <ele>133.84578053283</ele>
        <time>2020-09-26T10:13:51.000Z</time>
      </trkpt>
      <trkpt lat="43.6716" lon="3.8255">
        <ele>133.65179417209</ele>
        <time>2020-09-26T10:13:52.000Z</time>
      </trkpt>
      <trkpt lat="43.67158" lon="3.82557">
        <ele>133.45780781135</ele>
        <time>2020-09-26T10:13:53.000Z</time>
      </trkpt>
      <trkpt lat="43.67155" lon="3.82564">
        <ele>133.26382145061</ele>
        <time>2020-09-26T10:13:54.000Z</time>
      </trkpt>
      <trkpt lat="43.67153" lon="3.82571">
        <ele>133.06983508987</ele>
        <time>2020-09-26T10:13:55.000Z</time>
      </trkpt>
      <trkpt lat="43.67152" lon="3.82579">
        <ele>132.93429162429</ele>
        <time>2020-09-26T10:13:56.000Z</time>
      </trkpt>
      <trkpt lat="43.67151" lon="3.82586">
        <ele>132.83162228723</ele>
        <time>2020-09-26T10:13:57.000Z</time>
      </trkpt>
      <trkpt lat="43.67151" lon="3.82593">
        <ele>132.72895295017</ele>
        <time>2020-09-26T10:13:58.000Z</time>
      </trkpt>
      <trkpt lat="43.6715" lon="3.826">
        <ele>132.62628361312</ele>
        <time>2020-09-26T10:13:59.000Z</time>
      </trkpt>
      <trkpt lat="43.67149" lon="3.82606">
        <ele>132.52361427606</ele>
        <time>2020-09-26T10:14:00.000Z</time>
      </trkpt>
      <trkpt lat="43.6715" lon="3.82611">
        <ele>132.42094493901</ele>
        <time>2020-09-26T10:14:01.000Z</time>
      </trkpt>
      <trkpt lat="43.6715" lon="3.82617">
        <ele>132.31827560195</ele>
        <time>2020-09-26T10:14:02.000Z</time>
      </trkpt>
      <trkpt lat="43.67151" lon="3.82622">
        <ele>132.2156062649</ele>
        <time>2020-09-26T10:14:03.000Z</time>
      </trkpt>
      <trkpt lat="43.67151" lon="3.82626">
        <ele>132.11293692784</ele>
        <time>2020-09-26T10:14:04.000Z</time>
      </trkpt>
      <trkpt lat="43.67152" lon="3.8263">
        <ele>132.01026759079</ele>
        <time>2020-09-26T10:14:05.000Z</time>
      </trkpt>
      <trkpt lat="43.67152" lon="3.82633">
        <ele>132.09045170536</ele>
        <time>2020-09-26T10:14:06.000Z</time>
      </trkpt>
      <trkpt lat="43.67153" lon="3.82637">
        <ele>132.19095431489</ele>
        <time>2020-09-26T10:14:07.000Z</time>
      </trkpt>
      <trkpt lat="43.67153" lon="3.8264">
        <ele>132.29145692442</ele>
        <time>2020-09-26T10:14:08.000Z</time>
      </trkpt>
      <trkpt lat="43.67155" lon="3.82644">
        <ele>132.39195953395</ele>
        <time>2020-09-26T10:14:09.000Z</time>
      </trkpt>
      <trkpt lat="43.67156" lon="3.82648">
        <ele>132.49246214348</ele>
        <time>2020-09-26T10:14:10.000Z</time>
      </trkpt>
      <trkpt lat="43.67158" lon="3.82652">
        <ele>132.59296475301</ele>
        <time>2020-09-26T10:14:11.000Z</time>
      </trkpt>
      <trkpt lat="43.67159" lon="3.82655">
        <ele>132.69346736254</ele>
        <time>2020-09-26T10:14:12.000Z</time>
      </trkpt>
      <trkpt lat="43.6716" lon="3.82659">
        <ele>132.79396997207</ele>
        <time>2020-09-26T10:14:13.000Z</time>
      </trkpt>
      <trkpt lat="43.67161" lon="3.82662">
        <ele>132.8944725816</ele>
        <time>2020-09-26T10:14:14.000Z</time>
      </trkpt>
      <trkpt lat="43.67163" lon="3.82666">
        <ele>132.99497519113</ele>
        <time>2020-09-26T10:14:15.000Z</time>
      </trkpt>
      <trkpt lat="43.67164" lon="3.82669">
        <ele>132.81535426362</ele>
        <time>2020-09-26T10:14:16.000Z</time>
      </trkpt>
      <trkpt lat="43.67165" lon="3.82672">
        <ele>132.62099098528</ele>
        <time>2020-09-26T10:14:17.000Z</time>
      </trkpt>
      <trkpt lat="43.67166" lon="3.82676">
        <ele>132.42662770694</ele>
        <time>2020-09-26T10:14:18.000Z</time>
      </trkpt>
      <trkpt lat="43.67167" lon="3.8268">
        <ele>132.2322644286</ele>
        <time>2020-09-26T10:14:19.000Z</time>
      </trkpt>
      <trkpt lat="43.67169" lon="3.82684">
        <ele>132.03790115026</ele>
        <time>2020-09-26T10:14:20.000Z</time>
      </trkpt>
      <trkpt lat="43.6717" lon="3.82689">
        <ele>131.84353787192</ele>
        <time>2020-09-26T10:14:21.000Z</time>
      </trkpt>
      <trkpt lat="43.6717" lon="3.82693">
        <ele>131.64917459358</ele>
        <time>2020-09-26T10:14:22.000Z</time>
      </trkpt>
      <trkpt lat="43.67171" lon="3.82697">
        <ele>131.45481131524</ele>
        <time>2020-09-26T10:14:23.000Z</time>
      </trkpt>
      <trkpt lat="43.67171" lon="3.82702">
        <ele>131.2604480369</ele>
        <time>2020-09-26T10:14:24.000Z</time>
      </trkpt>
      <trkpt lat="43.67171" lon="3.82707">
        <ele>131.06608475856</ele>
        <time>2020-09-26T10:14:25.000Z</time>
      </trkpt>
      <trkpt lat="43.6717" lon="3.82712">
        <ele>130.93237770492</ele>
        <time>2020-09-26T10:14:26.000Z</time>
      </trkpt>
      <trkpt lat="43.6717" lon="3.82717">
        <ele>130.82991868852</ele>
        <time>2020-09-26T10:14:27.000Z</time>
      </trkpt>
      <trkpt lat="43.67169" lon="3.82722">
        <ele>130.72745967213</ele>
        <time>2020-09-26T10:14:28.000Z</time>
      </trkpt>
      <trkpt lat="43.67168" lon="3.82728">
        <ele>130.62500065574</ele>
        <time>2020-09-26T10:14:29.000Z</time>
      </trkpt>
      <trkpt lat="43.67167" lon="3.82734">
        <ele>130.52254163934</ele>
        <time>2020-09-26T10:14:30.000Z</time>
      </trkpt>
      <trkpt lat="43.67166" lon="3.8274">
        <ele>130.42008262295</ele>
        <time>2020-09-26T10:14:31.000Z</time>
      </trkpt>
      <trkpt lat="43.67165" lon="3.82746">
        <ele>130.31762360656</ele>
        <time>2020-09-26T10:14:32.000Z</time>
      </trkpt>
      <trkpt lat="43.67163" lon="3.82752">
        <ele>130.21516459016</ele>
        <time>2020-09-26T10:14:33.000Z</time>
      </trkpt>
      <trkpt lat="43.67162" lon="3.82759">
        <ele>130.11270557377</ele>
        <time>2020-09-26T10:14:34.000Z</time>
      </trkpt>
      <trkpt lat="43.67161" lon="3.82766">
        <ele>130.01024655738</ele>
        <time>2020-09-26T10:14:35.000Z</time>
      </trkpt>
      <trkpt lat="43.6716" lon="3.82772">
        <ele>129.18593465176</ele>
        <time>2020-09-26T10:14:36.000Z</time>
      </trkpt>
      <trkpt lat="43.6716" lon="3.82779">
        <ele>128.28141116598</ele>
        <time>2020-09-26T10:14:37.000Z</time>
      </trkpt>
      <trkpt lat="43.6716" lon="3.82786">
        <ele>127.37688768021</ele>
        <time>2020-09-26T10:14:38.000Z</time>
      </trkpt>
      <trkpt lat="43.6716" lon="3.82794">
        <ele>126.47236419444</ele>
        <time>2020-09-26T10:14:39.000Z</time>
      </trkpt>
      <trkpt lat="43.67159" lon="3.82802">
        <ele>125.56784070867</ele>
        <time>2020-09-26T10:14:40.000Z</time>
      </trkpt>
      <trkpt lat="43.6716" lon="3.82812">
        <ele>124.6633172229</ele>
        <time>2020-09-26T10:14:41.000Z</time>
      </trkpt>
      <trkpt lat="43.67159" lon="3.82823">
        <ele>123.75879373713</ele>
        <time>2020-09-26T10:14:42.000Z</time>
      </trkpt>
      <trkpt lat="43.67159" lon="3.82835">
        <ele>122.85427025136</ele>
        <time>2020-09-26T10:14:43.000Z</time>
      </trkpt>
      <trkpt lat="43.67157" lon="3.82847">
        <ele>121.94974676559</ele>
        <time>2020-09-26T10:14:44.000Z</time>
      </trkpt>
      <trkpt lat="43.67156" lon="3.82858">
        <ele>121.04522327981</ele>
        <time>2020-09-26T10:14:45.000Z</time>
      </trkpt>
      <trkpt lat="43.67153" lon="3.82869">
        <ele>120.07677131808</ele>
        <time>2020-09-26T10:14:46.000Z</time>
      </trkpt>
      <trkpt lat="43.6715" lon="3.8288">
        <ele>119.10495492638</ele>
        <time>2020-09-26T10:14:47.000Z</time>
      </trkpt>
      <trkpt lat="43.67147" lon="3.8289">
        <ele>118.13313853468</ele>
        <time>2020-09-26T10:14:48.000Z</time>
      </trkpt>
      <trkpt lat="43.67144" lon="3.829">
        <ele>117.16132214298</ele>
        <time>2020-09-26T10:14:49.000Z</time>
      </trkpt>
      <trkpt lat="43.6714" lon="3.8291">
        <ele>116.18950575129</ele>
        <time>2020-09-26T10:14:50.000Z</time>
      </trkpt>
      <trkpt lat="43.67136" lon="3.82919">
        <ele>115.21768935959</ele>
        <time>2020-09-26T10:14:51.000Z</time>
      </trkpt>
      <trkpt lat="43.67133" lon="3.82927">
        <ele>114.24587296789</ele>
        <time>2020-09-26T10:14:52.000Z</time>
      </trkpt>
      <trkpt lat="43.67129" lon="3.82936">
        <ele>113.2740565762</ele>
        <time>2020-09-26T10:14:53.000Z</time>
      </trkpt>
      <trkpt lat="43.67126" lon="3.82944">
        <ele>112.3022401845</ele>
        <time>2020-09-26T10:14:54.000Z</time>
      </trkpt>
      <trkpt lat="43.67123" lon="3.82953">
        <ele>111.3304237928</ele>
        <time>2020-09-26T10:14:55.000Z</time>
      </trkpt>
      <trkpt lat="43.67121" lon="3.82962">
        <ele>110.53001427143</ele>
        <time>2020-09-26T10:14:56.000Z</time>
      </trkpt>
      <trkpt lat="43.67118" lon="3.82971">
        <ele>109.81790777741</ele>
        <time>2020-09-26T10:14:57.000Z</time>
      </trkpt>
      <trkpt lat="43.67116" lon="3.8298">
        <ele>109.10580128339</ele>
        <time>2020-09-26T10:14:58.000Z</time>
      </trkpt>
      <trkpt lat="43.67114" lon="3.82989">
        <ele>108.39369478937</ele>
        <time>2020-09-26T10:14:59.000Z</time>
      </trkpt>
      <trkpt lat="43.67111" lon="3.82998">
        <ele>107.68158829535</ele>
        <time>2020-09-26T10:15:00.000Z</time>
      </trkpt>
      <trkpt lat="43.67109" lon="3.83008">
        <ele>106.96948180133</ele>
        <time>2020-09-26T10:15:01.000Z</time>
      </trkpt>
      <trkpt lat="43.67107" lon="3.83017">
        <ele>106.2573753073</ele>
        <time>2020-09-26T10:15:02.000Z</time>
      </trkpt>
      <trkpt lat="43.67105" lon="3.83026">
        <ele>105.54526881328</ele>
        <time>2020-09-26T10:15:03.000Z</time>
      </trkpt>
      <trkpt lat="43.67103" lon="3.83035">
        <ele>104.83316231926</ele>
        <time>2020-09-26T10:15:04.000Z</time>
      </trkpt>
      <trkpt lat="43.67101" lon="3.83044">
        <ele>104.12105582524</ele>
        <time>2020-09-26T10:15:05.000Z</time>
      </trkpt>
      <trkpt lat="43.67099" lon="3.83052">
        <ele>103.57995789474</ele>
        <time>2020-09-26T10:15:06.000Z</time>
      </trkpt>
      <trkpt lat="43.67097" lon="3.83059">
        <ele>103.07388502024</ele>
        <time>2020-09-26T10:15:07.000Z</time>
      </trkpt>
      <trkpt lat="43.67093" lon="3.83065">
        <ele>102.56781214575</ele>
        <time>2020-09-26T10:15:08.000Z</time>
      </trkpt>
      <trkpt lat="43.6709" lon="3.83071">
        <ele>102.06173927125</ele>
        <time>2020-09-26T10:15:09.000Z</time>
      </trkpt>
      <trkpt lat="43.67086" lon="3.83076">
        <ele>101.55566639676</ele>
        <time>2020-09-26T10:15:10.000Z</time>
      </trkpt>
      <trkpt lat="43.67083" lon="3.83082">
        <ele>101.04959352227</ele>
        <time>2020-09-26T10:15:11.000Z</time>
      </trkpt>
      <trkpt lat="43.67081" lon="3.83088">
        <ele>100.54352064777</ele>
        <time>2020-09-26T10:15:12.000Z</time>
      </trkpt>
      <trkpt lat="43.67079" lon="3.83094">
        <ele>100.03744777328</ele>
        <time>2020-09-26T10:15:13.000Z</time>
      </trkpt>
      <trkpt lat="43.67077" lon="3.83099">
        <ele>99.531374898785</ele>
        <time>2020-09-26T10:15:14.000Z</time>
      </trkpt>
      <trkpt lat="43.67077" lon="3.83105">
        <ele>99.025302024292</ele>
        <time>2020-09-26T10:15:15.000Z</time>
      </trkpt>
      <trkpt lat="43.67076" lon="3.83111">
        <ele>98.71499904</ele>
        <time>2020-09-26T10:15:16.000Z</time>
      </trkpt>
      <trkpt lat="43.67075" lon="3.83117">
        <ele>98.41499904</ele>
        <time>2020-09-26T10:15:17.000Z</time>
      </trkpt>
      <trkpt lat="43.67075" lon="3.83124">
        <ele>98.11499904</ele>
        <time>2020-09-26T10:15:18.000Z</time>
      </trkpt>
      <trkpt lat="43.67075" lon="3.8313">
        <ele>97.81499904</ele>
        <time>2020-09-26T10:15:19.000Z</time>
      </trkpt>
      <trkpt lat="43.67074" lon="3.83136">
        <ele>97.51499904</ele>
        <time>2020-09-26T10:15:20.000Z</time>
      </trkpt>
      <trkpt lat="43.67074" lon="3.83142">
        <ele>97.21499904</ele>
        <time>2020-09-26T10:15:21.000Z</time>
      </trkpt>
      <trkpt lat="43.67073" lon="3.83146">
        <ele>96.91499904</ele>
        <time>2020-09-26T10:15:22.000Z</time>
      </trkpt>
      <trkpt lat="43.67073" lon="3.83149">
        <ele>96.61499904</ele>
        <time>2020-09-26T10:15:23.000Z</time>
      </trkpt>
      <trkpt lat="43.67072" lon="3.83153">
        <ele>96.31499904</ele>
        <time>2020-09-26T10:15:24.000Z</time>
      </trkpt>
      <trkpt lat="43.67072" lon="3.83156">
        <ele>96.01499904</ele>
        <time>2020-09-26T10:15:25.000Z</time>
      </trkpt>
      <trkpt lat="43.67071" lon="3.83161">
        <ele>95.80999936</ele>
        <time>2020-09-26T10:15:26.000Z</time>
      </trkpt>
      <trkpt lat="43.67071" lon="3.83165">
        <ele>95.60999936</ele>
        <time>2020-09-26T10:15:27.000Z</time>
      </trkpt>
      <trkpt lat="43.6707" lon="3.8317">
        <ele>95.40999936</ele>
        <time>2020-09-26T10:15:28.000Z</time>
      </trkpt>
      <trkpt lat="43.67071" lon="3.83174">
        <ele>95.20999936</ele>
        <time>2020-09-26T10:15:29.000Z</time>
      </trkpt>
      <trkpt lat="43.67073" lon="3.83177">
        <ele>95.00999936</ele>
        <time>2020-09-26T10:15:30.000Z</time>
      </trkpt>
      <trkpt lat="43.67075" lon="3.83179">
        <ele>94.80999936</ele>
        <time>2020-09-26T10:15:31.000Z</time>
      </trkpt>
      <trkpt lat="43.67078" lon="3.83179">
        <ele>94.60999936</ele>
        <time>2020-09-26T10:15:32.000Z</time>
      </trkpt>
      <trkpt lat="43.6708" lon="3.83177">
        <ele>94.40999936</ele>
        <time>2020-09-26T10:15:33.000Z</time>
      </trkpt>
      <trkpt lat="43.67083" lon="3.83175">
        <ele>94.20999936</ele>
        <time>2020-09-26T10:15:34.000Z</time>
      </trkpt>
      <trkpt lat="43.67086" lon="3.83172">
        <ele>94.00999936</ele>
        <time>2020-09-26T10:15:35.000Z</time>
      </trkpt>
      <trkpt lat="43.67089" lon="3.83169">
        <ele>93.90499968</ele>
        <time>2020-09-26T10:15:36.000Z</time>
      </trkpt>
      <trkpt lat="43.67092" lon="3.83167">
        <ele>93.80499968</ele>
        <time>2020-09-26T10:15:37.000Z</time>
      </trkpt>
      <trkpt lat="43.67096" lon="3.83166">
        <ele>93.70499968</ele>
        <time>2020-09-26T10:15:38.000Z</time>
      </trkpt>
      <trkpt lat="43.67099" lon="3.83165">
        <ele>93.60499968</ele>
        <time>2020-09-26T10:15:39.000Z</time>
      </trkpt>
      <trkpt lat="43.67102" lon="3.83164">
        <ele>93.50499968</ele>
        <time>2020-09-26T10:15:40.000Z</time>
      </trkpt>
      <trkpt lat="43.67106" lon="3.83164">
        <ele>93.40499968</ele>
        <time>2020-09-26T10:15:41.000Z</time>
      </trkpt>
      <trkpt lat="43.6711" lon="3.83163">
        <ele>93.30499968</ele>
        <time>2020-09-26T10:15:42.000Z</time>
      </trkpt>
      <trkpt lat="43.67113" lon="3.83161">
        <ele>93.20499968</ele>
        <time>2020-09-26T10:15:43.000Z</time>
      </trkpt>
      <trkpt lat="43.67116" lon="3.83158">
        <ele>93.10499968</ele>
        <time>2020-09-26T10:15:44.000Z</time>
      </trkpt>
      <trkpt lat="43.67118" lon="3.83154">
        <ele>93.00499968</ele>
        <time>2020-09-26T10:15:45.000Z</time>
      </trkpt>
      <trkpt lat="43.67119" lon="3.8315">
        <ele>93</ele>
        <time>2020-09-26T10:15:46.000Z</time>
      </trkpt>
      <trkpt lat="43.6712" lon="3.83145">
        <ele>93</ele>
        <time>2020-09-26T10:15:47.000Z</time>
      </trkpt>
      <trkpt lat="43.6712" lon="3.83139">
        <ele>93</ele>
        <time>2020-09-26T10:15:48.000Z</time>
      </trkpt>
      <trkpt lat="43.67121" lon="3.83134">
        <ele>93</ele>
        <time>2020-09-26T10:15:49.000Z</time>
      </trkpt>
      <trkpt lat="43.67121" lon="3.83129">
        <ele>93</ele>
        <time>2020-09-26T10:15:50.000Z</time>
      </trkpt>
      <trkpt lat="43.67121" lon="3.83124">
        <ele>93</ele>
        <time>2020-09-26T10:15:51.000Z</time>
      </trkpt>
      <trkpt lat="43.67122" lon="3.83119">
        <ele>93</ele>
        <time>2020-09-26T10:15:52.000Z</time>
      </trkpt>
      <trkpt lat="43.67122" lon="3.83114">
        <ele>93</ele>
        <time>2020-09-26T10:15:53.000Z</time>
      </trkpt>
      <trkpt lat="43.67122" lon="3.8311">
        <ele>93</ele>
        <time>2020-09-26T10:15:54.000Z</time>
      </trkpt>
      <trkpt lat="43.67123" lon="3.83106">
        <ele>93</ele>
        <time>2020-09-26T10:15:55.000Z</time>
      </trkpt>
      <trkpt lat="43.67124" lon="3.83103">
        <ele>93</ele>
        <time>2020-09-26T10:15:56.000Z</time>
      </trkpt>
      <trkpt lat="43.67127" lon="3.83102">
        <ele>93</ele>
        <time>2020-09-26T10:15:57.000Z</time>
      </trkpt>
      <trkpt lat="43.67129" lon="3.83101">
        <ele>93</ele>
        <time>2020-09-26T10:15:58.000Z</time>
      </trkpt>
      <trkpt lat="43.67132" lon="3.83102">
        <ele>93</ele>
        <time>2020-09-26T10:15:59.000Z</time>
      </trkpt>
      <trkpt lat="43.67135" lon="3.83102">
        <ele>93</ele>
        <time>2020-09-26T10:16:00.000Z</time>
      </trkpt>
      <trkpt lat="43.67138" lon="3.83103">
        <ele>93</ele>
        <time>2020-09-26T10:16:01.000Z</time>
      </trkpt>
      <trkpt lat="43.67142" lon="3.83104">
        <ele>93</ele>
        <time>2020-09-26T10:16:02.000Z</time>
      </trkpt>
      <trkpt lat="43.67146" lon="3.83105">
        <ele>93</ele>
        <time>2020-09-26T10:16:03.000Z</time>
      </trkpt>
      <trkpt lat="43.67149" lon="3.83106">
        <ele>93</ele>
        <time>2020-09-26T10:16:04.000Z</time>
      </trkpt>
      <trkpt lat="43.67152" lon="3.83106">
        <ele>93</ele>
        <time>2020-09-26T10:16:05.000Z</time>
      </trkpt>
      <trkpt lat="43.67156" lon="3.83107">
        <ele>93.09500032</ele>
        <time>2020-09-26T10:16:06.000Z</time>
      </trkpt>
      <trkpt lat="43.67159" lon="3.83107">
        <ele>93.19500032</ele>
        <time>2020-09-26T10:16:07.000Z</time>
      </trkpt>
      <trkpt lat="43.67162" lon="3.83108">
        <ele>93.29500032</ele>
        <time>2020-09-26T10:16:08.000Z</time>
      </trkpt>
      <trkpt lat="43.67166" lon="3.83109">
        <ele>93.39500032</ele>
        <time>2020-09-26T10:16:09.000Z</time>
      </trkpt>
      <trkpt lat="43.67169" lon="3.83109">
        <ele>93.49500032</ele>
        <time>2020-09-26T10:16:10.000Z</time>
      </trkpt>
      <trkpt lat="43.67173" lon="3.8311">
        <ele>93.59500032</ele>
        <time>2020-09-26T10:16:11.000Z</time>
      </trkpt>
      <trkpt lat="43.67176" lon="3.83111">
        <ele>93.69500032</ele>
        <time>2020-09-26T10:16:12.000Z</time>
      </trkpt>
      <trkpt lat="43.67179" lon="3.83112">
        <ele>93.79500032</ele>
        <time>2020-09-26T10:16:13.000Z</time>
      </trkpt>
      <trkpt lat="43.67181" lon="3.83113">
        <ele>93.89500032</ele>
        <time>2020-09-26T10:16:14.000Z</time>
      </trkpt>
      <trkpt lat="43.67182" lon="3.83117">
        <ele>93.99500032</ele>
        <time>2020-09-26T10:16:15.000Z</time>
      </trkpt>
      <trkpt lat="43.67182" lon="3.83121">
        <ele>94</ele>
        <time>2020-09-26T10:16:16.000Z</time>
      </trkpt>
      <trkpt lat="43.67182" lon="3.83126">
        <ele>94</ele>
        <time>2020-09-26T10:16:17.000Z</time>
      </trkpt>
      <trkpt lat="43.67182" lon="3.8313">
        <ele>94</ele>
        <time>2020-09-26T10:16:18.000Z</time>
      </trkpt>
      <trkpt lat="43.67181" lon="3.83135">
        <ele>94</ele>
        <time>2020-09-26T10:16:19.000Z</time>
      </trkpt>
      <trkpt lat="43.6718" lon="3.83139">
        <ele>94</ele>
        <time>2020-09-26T10:16:20.000Z</time>
      </trkpt>
      <trkpt lat="43.6718" lon="3.83144">
        <ele>94</ele>
        <time>2020-09-26T10:16:21.000Z</time>
      </trkpt>
      <trkpt lat="43.67179" lon="3.83149">
        <ele>94</ele>
        <time>2020-09-26T10:16:22.000Z</time>
      </trkpt>
      <trkpt lat="43.67179" lon="3.83154">
        <ele>94</ele>
        <time>2020-09-26T10:16:23.000Z</time>
      </trkpt>
      <trkpt lat="43.67178" lon="3.83159">
        <ele>94</ele>
        <time>2020-09-26T10:16:24.000Z</time>
      </trkpt>
      <trkpt lat="43.67178" lon="3.83165">
        <ele>94</ele>
        <time>2020-09-26T10:16:25.000Z</time>
      </trkpt>
      <trkpt lat="43.67177" lon="3.8317">
        <ele>94</ele>
        <time>2020-09-26T10:16:26.000Z</time>
      </trkpt>
      <trkpt lat="43.67177" lon="3.83175">
        <ele>94</ele>
        <time>2020-09-26T10:16:27.000Z</time>
      </trkpt>
      <trkpt lat="43.67176" lon="3.8318">
        <ele>94</ele>
        <time>2020-09-26T10:16:28.000Z</time>
      </trkpt>
      <trkpt lat="43.67176" lon="3.83185">
        <ele>94</ele>
        <time>2020-09-26T10:16:29.000Z</time>
      </trkpt>
      <trkpt lat="43.67175" lon="3.83191">
        <ele>94</ele>
        <time>2020-09-26T10:16:30.000Z</time>
      </trkpt>
      <trkpt lat="43.67174" lon="3.83196">
        <ele>94</ele>
        <time>2020-09-26T10:16:31.000Z</time>
      </trkpt>
      <trkpt lat="43.67174" lon="3.83201">
        <ele>94</ele>
        <time>2020-09-26T10:16:32.000Z</time>
      </trkpt>
      <trkpt lat="43.67173" lon="3.83206">
        <ele>94</ele>
        <time>2020-09-26T10:16:33.000Z</time>
      </trkpt>
      <trkpt lat="43.67173" lon="3.83211">
        <ele>94</ele>
        <time>2020-09-26T10:16:34.000Z</time>
      </trkpt>
      <trkpt lat="43.67172" lon="3.83216">
        <ele>94</ele>
        <time>2020-09-26T10:16:35.000Z</time>
      </trkpt>
      <trkpt lat="43.67172" lon="3.83221">
        <ele>94.19000064</ele>
        <time>2020-09-26T10:16:36.000Z</time>
      </trkpt>
      <trkpt lat="43.67171" lon="3.83225">
        <ele>94.39000064</ele>
        <time>2020-09-26T10:16:37.000Z</time>
      </trkpt>
      <trkpt lat="43.6717" lon="3.83229">
        <ele>94.59000064</ele>
        <time>2020-09-26T10:16:38.000Z</time>
      </trkpt>
      <trkpt lat="43.6717" lon="3.83232">
        <ele>94.79000064</ele>
        <time>2020-09-26T10:16:39.000Z</time>
      </trkpt>
      <trkpt lat="43.67169" lon="3.83236">
        <ele>94.99000064</ele>
        <time>2020-09-26T10:16:40.000Z</time>
      </trkpt>
      <trkpt lat="43.67169" lon="3.8324">
        <ele>95.19000064</ele>
        <time>2020-09-26T10:16:41.000Z</time>
      </trkpt>
      <trkpt lat="43.67169" lon="3.83243">
        <ele>95.39000064</ele>
        <time>2020-09-26T10:16:42.000Z</time>
      </trkpt>
      <trkpt lat="43.67168" lon="3.83247">
        <ele>95.59000064</ele>
        <time>2020-09-26T10:16:43.000Z</time>
      </trkpt>
      <trkpt lat="43.67168" lon="3.8325">
        <ele>95.79000064</ele>
        <time>2020-09-26T10:16:44.000Z</time>
      </trkpt>
      <trkpt lat="43.67168" lon="3.83253">
        <ele>95.99000064</ele>
        <time>2020-09-26T10:16:45.000Z</time>
      </trkpt>
      <trkpt lat="43.67167" lon="3.83257">
        <ele>96</ele>
        <time>2020-09-26T10:16:46.000Z</time>
      </trkpt>
      <trkpt lat="43.67167" lon="3.8326">
        <ele>96</ele>
        <time>2020-09-26T10:16:47.000Z</time>
      </trkpt>
      <trkpt lat="43.67166" lon="3.83264">
        <ele>96</ele>
        <time>2020-09-26T10:16:48.000Z</time>
      </trkpt>
      <trkpt lat="43.67166" lon="3.83267">
        <ele>96</ele>
        <time>2020-09-26T10:16:49.000Z</time>
      </trkpt>
      <trkpt lat="43.67166" lon="3.8327">
        <ele>96</ele>
        <time>2020-09-26T10:16:50.000Z</time>
      </trkpt>
      <trkpt lat="43.67166" lon="3.83274">
        <ele>96</ele>
        <time>2020-09-26T10:16:51.000Z</time>
      </trkpt>
      <trkpt lat="43.67165" lon="3.83277">
        <ele>96</ele>
        <time>2020-09-26T10:16:52.000Z</time>
      </trkpt>
      <trkpt lat="43.67165" lon="3.83281">
        <ele>96</ele>
        <time>2020-09-26T10:16:53.000Z</time>
      </trkpt>
      <trkpt lat="43.67165" lon="3.83286">
        <ele>96</ele>
        <time>2020-09-26T10:16:54.000Z</time>
      </trkpt>
      <trkpt lat="43.67164" lon="3.83291">
        <ele>96</ele>
        <time>2020-09-26T10:16:55.000Z</time>
      </trkpt>
      <trkpt lat="43.67163" lon="3.83297">
        <ele>95.71499904</ele>
        <time>2020-09-26T10:16:56.000Z</time>
      </trkpt>
      <trkpt lat="43.67163" lon="3.83303">
        <ele>95.41499904</ele>
        <time>2020-09-26T10:16:57.000Z</time>
      </trkpt>
      <trkpt lat="43.67162" lon="3.83309">
        <ele>95.11499904</ele>
        <time>2020-09-26T10:16:58.000Z</time>
      </trkpt>
      <trkpt lat="43.67162" lon="3.83316">
        <ele>94.81499904</ele>
        <time>2020-09-26T10:16:59.000Z</time>
      </trkpt>
      <trkpt lat="43.67162" lon="3.83322">
        <ele>94.51499904</ele>
        <time>2020-09-26T10:17:00.000Z</time>
      </trkpt>
      <trkpt lat="43.67162" lon="3.83329">
        <ele>94.21499904</ele>
        <time>2020-09-26T10:17:01.000Z</time>
      </trkpt>
      <trkpt lat="43.67162" lon="3.83335">
        <ele>93.91499904</ele>
        <time>2020-09-26T10:17:02.000Z</time>
      </trkpt>
      <trkpt lat="43.67162" lon="3.83342">
        <ele>93.61499904</ele>
        <time>2020-09-26T10:17:03.000Z</time>
      </trkpt>
      <trkpt lat="43.67162" lon="3.83348">
        <ele>93.31499904</ele>
        <time>2020-09-26T10:17:04.000Z</time>
      </trkpt>
      <trkpt lat="43.67162" lon="3.83354">
        <ele>93.01499904</ele>
        <time>2020-09-26T10:17:05.000Z</time>
      </trkpt>
      <trkpt lat="43.67162" lon="3.83359">
        <ele>92.80999936</ele>
        <time>2020-09-26T10:17:06.000Z</time>
      </trkpt>
      <trkpt lat="43.67162" lon="3.83363">
        <ele>92.60999936</ele>
        <time>2020-09-26T10:17:07.000Z</time>
      </trkpt>
      <trkpt lat="43.67161" lon="3.83367">
        <ele>92.40999936</ele>
        <time>2020-09-26T10:17:08.000Z</time>
      </trkpt>
      <trkpt lat="43.6716" lon="3.83371">
        <ele>92.20999936</ele>
        <time>2020-09-26T10:17:09.000Z</time>
      </trkpt>
      <trkpt lat="43.67158" lon="3.83373">
        <ele>92.00999936</ele>
        <time>2020-09-26T10:17:10.000Z</time>
      </trkpt>
      <trkpt lat="43.67155" lon="3.83373">
        <ele>91.80999936</ele>
        <time>2020-09-26T10:17:11.000Z</time>
      </trkpt>
      <trkpt lat="43.67151" lon="3.83373">
        <ele>91.60999936</ele>
        <time>2020-09-26T10:17:12.000Z</time>
      </trkpt>
      <trkpt lat="43.67148" lon="3.83372">
        <ele>91.40999936</ele>
        <time>2020-09-26T10:17:13.000Z</time>
      </trkpt>
      <trkpt lat="43.67143" lon="3.83372">
        <ele>91.20999936</ele>
        <time>2020-09-26T10:17:14.000Z</time>
      </trkpt>
      <trkpt lat="43.67138" lon="3.83372">
        <ele>91.00999936</ele>
        <time>2020-09-26T10:17:15.000Z</time>
      </trkpt>
      <trkpt lat="43.67132" lon="3.83372">
        <ele>90.80999936</ele>
        <time>2020-09-26T10:17:16.000Z</time>
      </trkpt>
      <trkpt lat="43.67126" lon="3.83371">
        <ele>90.60999936</ele>
        <time>2020-09-26T10:17:17.000Z</time>
      </trkpt>
      <trkpt lat="43.6712" lon="3.83371">
        <ele>90.40999936</ele>
        <time>2020-09-26T10:17:18.000Z</time>
      </trkpt>
      <trkpt lat="43.67113" lon="3.83371">
        <ele>90.20999936</ele>
        <time>2020-09-26T10:17:19.000Z</time>
      </trkpt>
      <trkpt lat="43.67106" lon="3.83371">
        <ele>90.00999936</ele>
        <time>2020-09-26T10:17:20.000Z</time>
      </trkpt>
      <trkpt lat="43.67099" lon="3.8337">
        <ele>89.80999936</ele>
        <time>2020-09-26T10:17:21.000Z</time>
      </trkpt>
      <trkpt lat="43.67092" lon="3.8337">
        <ele>89.60999936</ele>
        <time>2020-09-26T10:17:22.000Z</time>
      </trkpt>
      <trkpt lat="43.67085" lon="3.83369">
        <ele>89.40999936</ele>
        <time>2020-09-26T10:17:23.000Z</time>
      </trkpt>
      <trkpt lat="43.67079" lon="3.83368">
        <ele>89.20999936</ele>
        <time>2020-09-26T10:17:24.000Z</time>
      </trkpt>
      <trkpt lat="43.67074" lon="3.83368">
        <ele>89.00999936</ele>
        <time>2020-09-26T10:17:25.000Z</time>
      </trkpt>
      <trkpt lat="43.67071" lon="3.8337">
        <ele>88.71499904</ele>
        <time>2020-09-26T10:17:26.000Z</time>
      </trkpt>
      <trkpt lat="43.67069" lon="3.83374">
        <ele>88.41499904</ele>
        <time>2020-09-26T10:17:27.000Z</time>
      </trkpt>
      <trkpt lat="43.67069" lon="3.83379">
        <ele>88.11499904</ele>
        <time>2020-09-26T10:17:28.000Z</time>
      </trkpt>
      <trkpt lat="43.67069" lon="3.83384">
        <ele>87.81499904</ele>
        <time>2020-09-26T10:17:29.000Z</time>
      </trkpt>
      <trkpt lat="43.6707" lon="3.83391">
        <ele>87.51499904</ele>
        <time>2020-09-26T10:17:30.000Z</time>
      </trkpt>
      <trkpt lat="43.6707" lon="3.83397">
        <ele>87.21499904</ele>
        <time>2020-09-26T10:17:31.000Z</time>
      </trkpt>
      <trkpt lat="43.67071" lon="3.83404">
        <ele>86.91499904</ele>
        <time>2020-09-26T10:17:32.000Z</time>
      </trkpt>
      <trkpt lat="43.67071" lon="3.8341">
        <ele>86.61499904</ele>
        <time>2020-09-26T10:17:33.000Z</time>
      </trkpt>
      <trkpt lat="43.67071" lon="3.83417">
        <ele>86.31499904</ele>
        <time>2020-09-26T10:17:34.000Z</time>
      </trkpt>
      <trkpt lat="43.67072" lon="3.83424">
        <ele>86.01499904</ele>
        <time>2020-09-26T10:17:35.000Z</time>
      </trkpt>
      <trkpt lat="43.67073" lon="3.83431">
        <ele>85.80999936</ele>
        <time>2020-09-26T10:17:36.000Z</time>
      </trkpt>
      <trkpt lat="43.67073" lon="3.83437">
        <ele>85.60999936</ele>
        <time>2020-09-26T10:17:37.000Z</time>
      </trkpt>
      <trkpt lat="43.67074" lon="3.83444">
        <ele>85.40999936</ele>
        <time>2020-09-26T10:17:38.000Z</time>
      </trkpt>
      <trkpt lat="43.67074" lon="3.83451">
        <ele>85.20999936</ele>
        <time>2020-09-26T10:17:39.000Z</time>
      </trkpt>
      <trkpt lat="43.67073" lon="3.83457">
        <ele>85.00999936</ele>
        <time>2020-09-26T10:17:40.000Z</time>
      </trkpt>
      <trkpt lat="43.67073" lon="3.83464">
        <ele>84.80999936</ele>
        <time>2020-09-26T10:17:41.000Z</time>
      </trkpt>
      <trkpt lat="43.67073" lon="3.8347">
        <ele>84.60999936</ele>
        <time>2020-09-26T10:17:42.000Z</time>
      </trkpt>
      <trkpt lat="43.67073" lon="3.83477">
        <ele>84.40999936</ele>
        <time>2020-09-26T10:17:43.000Z</time>
      </trkpt>
      <trkpt lat="43.67073" lon="3.83484">
        <ele>84.20999936</ele>
        <time>2020-09-26T10:17:44.000Z</time>
      </trkpt>
      <trkpt lat="43.67073" lon="3.83491">
        <ele>84.00999936</ele>
        <time>2020-09-26T10:17:45.000Z</time>
      </trkpt>
      <trkpt lat="43.67073" lon="3.83498">
        <ele>84</ele>
        <time>2020-09-26T10:17:46.000Z</time>
      </trkpt>
      <trkpt lat="43.67073" lon="3.83506">
        <ele>84</ele>
        <time>2020-09-26T10:17:47.000Z</time>
      </trkpt>
      <trkpt lat="43.67073" lon="3.83513">
        <ele>84</ele>
        <time>2020-09-26T10:17:48.000Z</time>
      </trkpt>
      <trkpt lat="43.67073" lon="3.8352">
        <ele>84</ele>
        <time>2020-09-26T10:17:49.000Z</time>
      </trkpt>
      <trkpt lat="43.67073" lon="3.83528">
        <ele>84</ele>
        <time>2020-09-26T10:17:50.000Z</time>
      </trkpt>
      <trkpt lat="43.67074" lon="3.83536">
        <ele>84</ele>
        <time>2020-09-26T10:17:51.000Z</time>
      </trkpt>
      <trkpt lat="43.67075" lon="3.83543">
        <ele>84</ele>
        <time>2020-09-26T10:17:52.000Z</time>
      </trkpt>
      <trkpt lat="43.67075" lon="3.83551">
        <ele>84</ele>
        <time>2020-09-26T10:17:53.000Z</time>
      </trkpt>
      <trkpt lat="43.67076" lon="3.83559">
        <ele>84</ele>
        <time>2020-09-26T10:17:54.000Z</time>
      </trkpt>
      <trkpt lat="43.67077" lon="3.83567">
        <ele>84</ele>
        <time>2020-09-26T10:17:55.000Z</time>
      </trkpt>
      <trkpt lat="43.67077" lon="3.83574">
        <ele>84</ele>
        <time>2020-09-26T10:17:56.000Z</time>
      </trkpt>
      <trkpt lat="43.67078" lon="3.83582">
        <ele>84</ele>
        <time>2020-09-26T10:17:57.000Z</time>
      </trkpt>
      <trkpt lat="43.67078" lon="3.83589">
        <ele>84</ele>
        <time>2020-09-26T10:17:58.000Z</time>
      </trkpt>
      <trkpt lat="43.67079" lon="3.83596">
        <ele>84</ele>
        <time>2020-09-26T10:17:59.000Z</time>
      </trkpt>
      <trkpt lat="43.67081" lon="3.83602">
        <ele>84</ele>
        <time>2020-09-26T10:18:00.000Z</time>
      </trkpt>
      <trkpt lat="43.67083" lon="3.83608">
        <ele>84</ele>
        <time>2020-09-26T10:18:01.000Z</time>
      </trkpt>
      <trkpt lat="43.67086" lon="3.83613">
        <ele>84</ele>
        <time>2020-09-26T10:18:02.000Z</time>
      </trkpt>
      <trkpt lat="43.67088" lon="3.83619">
        <ele>84</ele>
        <time>2020-09-26T10:18:03.000Z</time>
      </trkpt>
      <trkpt lat="43.67091" lon="3.83624">
        <ele>84</ele>
        <time>2020-09-26T10:18:04.000Z</time>
      </trkpt>
      <trkpt lat="43.67093" lon="3.8363">
        <ele>84</ele>
        <time>2020-09-26T10:18:05.000Z</time>
      </trkpt>
      <trkpt lat="43.67096" lon="3.83635">
        <ele>83.796088284495</ele>
        <time>2020-09-26T10:18:06.000Z</time>
      </trkpt>
      <trkpt lat="43.671" lon="3.83641">
        <ele>83.487128143814</ele>
        <time>2020-09-26T10:18:07.000Z</time>
      </trkpt>
      <trkpt lat="43.67103" lon="3.83647">
        <ele>83.178168003132</ele>
        <time>2020-09-26T10:18:08.000Z</time>
      </trkpt>
      <trkpt lat="43.67108" lon="3.83653">
        <ele>82.869207862451</ele>
        <time>2020-09-26T10:18:09.000Z</time>
      </trkpt>
      <trkpt lat="43.67113" lon="3.83658">
        <ele>82.560247721769</ele>
        <time>2020-09-26T10:18:10.000Z</time>
      </trkpt>
      <trkpt lat="43.67119" lon="3.83663">
        <ele>82.251287581088</ele>
        <time>2020-09-26T10:18:11.000Z</time>
      </trkpt>
      <trkpt lat="43.67126" lon="3.83668">
        <ele>81.942327440406</ele>
        <time>2020-09-26T10:18:12.000Z</time>
      </trkpt>
      <trkpt lat="43.67132" lon="3.83672">
        <ele>81.633367299725</ele>
        <time>2020-09-26T10:18:13.000Z</time>
      </trkpt>
      <trkpt lat="43.67139" lon="3.83675">
        <ele>81.324407159043</ele>
        <time>2020-09-26T10:18:14.000Z</time>
      </trkpt>
      <trkpt lat="43.67146" lon="3.83678">
        <ele>81.015447018362</ele>
        <time>2020-09-26T10:18:15.000Z</time>
      </trkpt>
      <trkpt lat="43.67152" lon="3.83681">
        <ele>80.90499968</ele>
        <time>2020-09-26T10:18:16.000Z</time>
      </trkpt>
      <trkpt lat="43.67158" lon="3.83684">
        <ele>80.80499968</ele>
        <time>2020-09-26T10:18:17.000Z</time>
      </trkpt>
      <trkpt lat="43.67163" lon="3.83688">
        <ele>80.70499968</ele>
        <time>2020-09-26T10:18:18.000Z</time>
      </trkpt>
      <trkpt lat="43.67169" lon="3.83692">
        <ele>80.60499968</ele>
        <time>2020-09-26T10:18:19.000Z</time>
      </trkpt>
      <trkpt lat="43.67174" lon="3.83696">
        <ele>80.50499968</ele>
        <time>2020-09-26T10:18:20.000Z</time>
      </trkpt>
      <trkpt lat="43.67179" lon="3.83701">
        <ele>80.40499968</ele>
        <time>2020-09-26T10:18:21.000Z</time>
      </trkpt>
      <trkpt lat="43.67184" lon="3.83706">
        <ele>80.30499968</ele>
        <time>2020-09-26T10:18:22.000Z</time>
      </trkpt>
      <trkpt lat="43.67189" lon="3.83711">
        <ele>80.20499968</ele>
        <time>2020-09-26T10:18:23.000Z</time>
      </trkpt>
      <trkpt lat="43.67194" lon="3.83716">
        <ele>80.10499968</ele>
        <time>2020-09-26T10:18:24.000Z</time>
      </trkpt>
      <trkpt lat="43.67199" lon="3.83721">
        <ele>80.00499968</ele>
        <time>2020-09-26T10:18:25.000Z</time>
      </trkpt>
      <trkpt lat="43.67205" lon="3.83725">
        <ele>79.90499968</ele>
        <time>2020-09-26T10:18:26.000Z</time>
      </trkpt>
      <trkpt lat="43.6721" lon="3.83729">
        <ele>79.80499968</ele>
        <time>2020-09-26T10:18:27.000Z</time>
      </trkpt>
      <trkpt lat="43.67215" lon="3.83733">
        <ele>79.70499968</ele>
        <time>2020-09-26T10:18:28.000Z</time>
      </trkpt>
      <trkpt lat="43.6722" lon="3.83735">
        <ele>79.60499968</ele>
        <time>2020-09-26T10:18:29.000Z</time>
      </trkpt>
      <trkpt lat="43.67223" lon="3.83736">
        <ele>79.50499968</ele>
        <time>2020-09-26T10:18:30.000Z</time>
      </trkpt>
      <trkpt lat="43.67225" lon="3.83735">
        <ele>79.40499968</ele>
        <time>2020-09-26T10:18:31.000Z</time>
      </trkpt>
      <trkpt lat="43.67226" lon="3.83732">
        <ele>79.30499968</ele>
        <time>2020-09-26T10:18:32.000Z</time>
      </trkpt>
      <trkpt lat="43.67227" lon="3.83728">
        <ele>79.20499968</ele>
        <time>2020-09-26T10:18:33.000Z</time>
      </trkpt>
      <trkpt lat="43.67227" lon="3.83724">
        <ele>79.10499968</ele>
        <time>2020-09-26T10:18:34.000Z</time>
      </trkpt>
      <trkpt lat="43.67227" lon="3.83721">
        <ele>79.00499968</ele>
        <time>2020-09-26T10:18:35.000Z</time>
      </trkpt>
      <trkpt lat="43.67228" lon="3.83717">
        <ele>79.09500032</ele>
        <time>2020-09-26T10:18:36.000Z</time>
      </trkpt>
      <trkpt lat="43.67228" lon="3.83713">
        <ele>79.19500032</ele>
        <time>2020-09-26T10:18:37.000Z</time>
      </trkpt>
      <trkpt lat="43.67228" lon="3.8371">
        <ele>79.29500032</ele>
        <time>2020-09-26T10:18:38.000Z</time>
      </trkpt>
      <trkpt lat="43.67229" lon="3.83707">
        <ele>79.39500032</ele>
        <time>2020-09-26T10:18:39.000Z</time>
      </trkpt>
      <trkpt lat="43.67229" lon="3.83704">
        <ele>79.49500032</ele>
        <time>2020-09-26T10:18:40.000Z</time>
      </trkpt>
      <trkpt lat="43.67229" lon="3.837">
        <ele>79.59500032</ele>
        <time>2020-09-26T10:18:41.000Z</time>
      </trkpt>
      <trkpt lat="43.67229" lon="3.83697">
        <ele>79.69500032</ele>
        <time>2020-09-26T10:18:42.000Z</time>
      </trkpt>
      <trkpt lat="43.6723" lon="3.83694">
        <ele>79.79500032</ele>
        <time>2020-09-26T10:18:43.000Z</time>
      </trkpt>
      <trkpt lat="43.6723" lon="3.8369">
        <ele>79.89500032</ele>
        <time>2020-09-26T10:18:44.000Z</time>
      </trkpt>
      <trkpt lat="43.6723" lon="3.83687">
        <ele>79.99500032</ele>
        <time>2020-09-26T10:18:45.000Z</time>
      </trkpt>
      <trkpt lat="43.67231" lon="3.83684">
        <ele>80.19000064</ele>
        <time>2020-09-26T10:18:46.000Z</time>
      </trkpt>
      <trkpt lat="43.67231" lon="3.83681">
        <ele>80.39000064</ele>
        <time>2020-09-26T10:18:47.000Z</time>
      </trkpt>
      <trkpt lat="43.67231" lon="3.83678">
        <ele>80.59000064</ele>
        <time>2020-09-26T10:18:48.000Z</time>
      </trkpt>
      <trkpt lat="43.67231" lon="3.83675">
        <ele>80.79000064</ele>
        <time>2020-09-26T10:18:49.000Z</time>
      </trkpt>
      <trkpt lat="43.67231" lon="3.83672">
        <ele>80.99000064</ele>
        <time>2020-09-26T10:18:50.000Z</time>
      </trkpt>
      <trkpt lat="43.67232" lon="3.83669">
        <ele>81.19000064</ele>
        <time>2020-09-26T10:18:51.000Z</time>
      </trkpt>
      <trkpt lat="43.67232" lon="3.83666">
        <ele>81.39000064</ele>
        <time>2020-09-26T10:18:52.000Z</time>
      </trkpt>
      <trkpt lat="43.67232" lon="3.83661">
        <ele>81.79000064</ele>
        <time>2020-09-26T10:18:54.000Z</time>
      </trkpt>
      <trkpt lat="43.67233" lon="3.83659">
        <ele>81.99000064</ele>
        <time>2020-09-26T10:18:55.000Z</time>
      </trkpt>
      <trkpt lat="43.67233" lon="3.83656">
        <ele>82.09500032</ele>
        <time>2020-09-26T10:18:56.000Z</time>
      </trkpt>
      <trkpt lat="43.67233" lon="3.83654">
        <ele>82.19500032</ele>
        <time>2020-09-26T10:18:57.000Z</time>
      </trkpt>
      <trkpt lat="43.67233" lon="3.8365">
        <ele>82.39500032</ele>
        <time>2020-09-26T10:18:59.000Z</time>
      </trkpt>
      <trkpt lat="43.67231" lon="3.83649">
        <ele>82.59500032</ele>
        <time>2020-09-26T10:19:01.000Z</time>
      </trkpt>
      <trkpt lat="43.67227" lon="3.83649">
        <ele>82.79500032</ele>
        <time>2020-09-26T10:19:03.000Z</time>
      </trkpt>
      <trkpt lat="43.67225" lon="3.83648">
        <ele>82.89500032</ele>
        <time>2020-09-26T10:19:04.000Z</time>
      </trkpt>
      <trkpt lat="43.67224" lon="3.83646">
        <ele>82.99500032</ele>
        <time>2020-09-26T10:19:05.000Z</time>
      </trkpt>
      <trkpt lat="43.67222" lon="3.83644">
        <ele>83.09500032</ele>
        <time>2020-09-26T10:19:06.000Z</time>
      </trkpt>
      <trkpt lat="43.67221" lon="3.83643">
        <ele>83.19500032</ele>
        <time>2020-09-26T10:19:07.000Z</time>
      </trkpt>
      <trkpt lat="43.67219" lon="3.83641">
        <ele>83.29500032</ele>
        <time>2020-09-26T10:19:08.000Z</time>
      </trkpt>
      <trkpt lat="43.67217" lon="3.83639">
        <ele>83.39500032</ele>
        <time>2020-09-26T10:19:09.000Z</time>
      </trkpt>
      <trkpt lat="43.67215" lon="3.83638">
        <ele>83.49500032</ele>
        <time>2020-09-26T10:19:10.000Z</time>
      </trkpt>
      <trkpt lat="43.67214" lon="3.83637">
        <ele>83.59500032</ele>
        <time>2020-09-26T10:19:11.000Z</time>
      </trkpt>
      <trkpt lat="43.67212" lon="3.83636">
        <ele>83.69500032</ele>
        <time>2020-09-26T10:19:12.000Z</time>
      </trkpt>
      <trkpt lat="43.6721" lon="3.83635">
        <ele>83.79500032</ele>
        <time>2020-09-26T10:19:13.000Z</time>
      </trkpt>
      <trkpt lat="43.67207" lon="3.83633">
        <ele>83.99500032</ele>
        <time>2020-09-26T10:19:15.000Z</time>
      </trkpt>
      <trkpt lat="43.67205" lon="3.83633">
        <ele>84.19500032</ele>
        <time>2020-09-26T10:19:17.000Z</time>
      </trkpt>
      <trkpt lat="43.67202" lon="3.83634">
        <ele>84.39500032</ele>
        <time>2020-09-26T10:19:19.000Z</time>
      </trkpt>
      <trkpt lat="43.67199" lon="3.83633">
        <ele>84.59500032</ele>
        <time>2020-09-26T10:19:21.000Z</time>
      </trkpt>
      <trkpt lat="43.67198" lon="3.83629">
        <ele>84.79500032</ele>
        <time>2020-09-26T10:19:23.000Z</time>
      </trkpt>
      <trkpt lat="43.67197" lon="3.83626">
        <ele>84.99500032</ele>
        <time>2020-09-26T10:19:25.000Z</time>
      </trkpt>
      <trkpt lat="43.67194" lon="3.83627">
        <ele>85.19500032</ele>
        <time>2020-09-26T10:19:27.000Z</time>
      </trkpt>
      <trkpt lat="43.67192" lon="3.83626">
        <ele>85.39500032</ele>
        <time>2020-09-26T10:19:29.000Z</time>
      </trkpt>
      <trkpt lat="43.67192" lon="3.83623">
        <ele>85.59500032</ele>
        <time>2020-09-26T10:19:31.000Z</time>
      </trkpt>
      <trkpt lat="43.6719" lon="3.83621">
        <ele>85.89500032</ele>
        <time>2020-09-26T10:19:34.000Z</time>
      </trkpt>
      <trkpt lat="43.67188" lon="3.83621">
        <ele>86.09277375</ele>
        <time>2020-09-26T10:19:36.000Z</time>
      </trkpt>
      <trkpt lat="43.67185" lon="3.8362">
        <ele>86.28808625</ele>
        <time>2020-09-26T10:19:38.000Z</time>
      </trkpt>
      <trkpt lat="43.67186" lon="3.83617">
        <ele>86.581055</ele>
        <time>2020-09-26T10:19:41.000Z</time>
      </trkpt>
      <trkpt lat="43.67189" lon="3.83619">
        <ele>86.7763675</ele>
        <time>2020-09-26T10:19:43.000Z</time>
      </trkpt>
      <trkpt lat="43.67192" lon="3.83622">
        <ele>86.87402375</ele>
        <time>2020-09-26T10:19:44.000Z</time>
      </trkpt>
      <trkpt lat="43.67194" lon="3.83626">
        <ele>86.97168</ele>
        <time>2020-09-26T10:19:45.000Z</time>
      </trkpt>
      <trkpt lat="43.67196" lon="3.83628">
        <ele>87</ele>
        <time>2020-09-26T10:19:46.000Z</time>
      </trkpt>
      <trkpt lat="43.67198" lon="3.8363">
        <ele>87</ele>
        <time>2020-09-26T10:19:47.000Z</time>
      </trkpt>
      <trkpt lat="43.672" lon="3.83632">
        <ele>87</ele>
        <time>2020-09-26T10:19:49.000Z</time>
      </trkpt>
      <trkpt lat="43.67201" lon="3.83632">
        <ele>87</ele>
        <time>2020-09-26T10:19:54.000Z</time>
      </trkpt>
      <trkpt lat="43.67209" lon="3.83639">
        <ele>87</ele>
        <time>2020-09-26T10:19:59.000Z</time>
      </trkpt>
      <trkpt lat="43.67211" lon="3.83641">
        <ele>86.932029428165</ele>
        <time>2020-09-26T10:20:00.000Z</time>
      </trkpt>
      <trkpt lat="43.67214" lon="3.83642">
        <ele>86.829042714604</ele>
        <time>2020-09-26T10:20:01.000Z</time>
      </trkpt>
      <trkpt lat="43.67217" lon="3.83643">
        <ele>86.726056001044</ele>
        <time>2020-09-26T10:20:02.000Z</time>
      </trkpt>
      <trkpt lat="43.67221" lon="3.83645">
        <ele>86.623069287484</ele>
        <time>2020-09-26T10:20:03.000Z</time>
      </trkpt>
      <trkpt lat="43.67225" lon="3.83646">
        <ele>86.520082573923</ele>
        <time>2020-09-26T10:20:04.000Z</time>
      </trkpt>
      <trkpt lat="43.67229" lon="3.83648">
        <ele>86.417095860362</ele>
        <time>2020-09-26T10:20:05.000Z</time>
      </trkpt>
      <trkpt lat="43.67234" lon="3.8365">
        <ele>86.314109146802</ele>
        <time>2020-09-26T10:20:06.000Z</time>
      </trkpt>
      <trkpt lat="43.67239" lon="3.8365">
        <ele>86.211122433241</ele>
        <time>2020-09-26T10:20:07.000Z</time>
      </trkpt>
      <trkpt lat="43.67243" lon="3.8365">
        <ele>86.108135719681</ele>
        <time>2020-09-26T10:20:08.000Z</time>
      </trkpt>
      <trkpt lat="43.67247" lon="3.8365">
        <ele>86.005149006121</ele>
        <time>2020-09-26T10:20:09.000Z</time>
      </trkpt>
      <trkpt lat="43.6725" lon="3.8365">
        <ele>86</ele>
        <time>2020-09-26T10:20:10.000Z</time>
      </trkpt>
      <trkpt lat="43.67253" lon="3.8365">
        <ele>86</ele>
        <time>2020-09-26T10:20:11.000Z</time>
      </trkpt>
      <trkpt lat="43.67255" lon="3.83649">
        <ele>86</ele>
        <time>2020-09-26T10:20:12.000Z</time>
      </trkpt>
      <trkpt lat="43.67257" lon="3.83649">
        <ele>86</ele>
        <time>2020-09-26T10:20:13.000Z</time>
      </trkpt>
      <trkpt lat="43.6726" lon="3.83648">
        <ele>86</ele>
        <time>2020-09-26T10:20:14.000Z</time>
      </trkpt>
      <trkpt lat="43.67263" lon="3.83647">
        <ele>86</ele>
        <time>2020-09-26T10:20:15.000Z</time>
      </trkpt>
      <trkpt lat="43.67266" lon="3.83646">
        <ele>86</ele>
        <time>2020-09-26T10:20:16.000Z</time>
      </trkpt>
      <trkpt lat="43.67268" lon="3.83646">
        <ele>86</ele>
        <time>2020-09-26T10:20:17.000Z</time>
      </trkpt>
      <trkpt lat="43.67271" lon="3.83644">
        <ele>86</ele>
        <time>2020-09-26T10:20:18.000Z</time>
      </trkpt>
      <trkpt lat="43.67274" lon="3.83643">
        <ele>86</ele>
        <time>2020-09-26T10:20:19.000Z</time>
      </trkpt>
      <trkpt lat="43.67277" lon="3.83642">
        <ele>86</ele>
        <time>2020-09-26T10:20:20.000Z</time>
      </trkpt>
      <trkpt lat="43.67279" lon="3.83641">
        <ele>86</ele>
        <time>2020-09-26T10:20:21.000Z</time>
      </trkpt>
      <trkpt lat="43.67281" lon="3.8364">
        <ele>86</ele>
        <time>2020-09-26T10:20:22.000Z</time>
      </trkpt>
      <trkpt lat="43.67284" lon="3.83639">
        <ele>86</ele>
        <time>2020-09-26T10:20:23.000Z</time>
      </trkpt>
      <trkpt lat="43.67286" lon="3.83638">
        <ele>86</ele>
        <time>2020-09-26T10:20:24.000Z</time>
      </trkpt>
      <trkpt lat="43.67288" lon="3.83637">
        <ele>86</ele>
        <time>2020-09-26T10:20:25.000Z</time>
      </trkpt>
      <trkpt lat="43.6729" lon="3.83636">
        <ele>86</ele>
        <time>2020-09-26T10:20:26.000Z</time>
      </trkpt>
      <trkpt lat="43.67293" lon="3.83635">
        <ele>86</ele>
        <time>2020-09-26T10:20:27.000Z</time>
      </trkpt>
      <trkpt lat="43.67295" lon="3.83634">
        <ele>86</ele>
        <time>2020-09-26T10:20:28.000Z</time>
      </trkpt>
      <trkpt lat="43.67298" lon="3.83634">
        <ele>86</ele>
        <time>2020-09-26T10:20:29.000Z</time>
      </trkpt>
      <trkpt lat="43.673" lon="3.83633">
        <ele>86.09500032</ele>
        <time>2020-09-26T10:20:30.000Z</time>
      </trkpt>
      <trkpt lat="43.67303" lon="3.83632">
        <ele>86.19500032</ele>
        <time>2020-09-26T10:20:31.000Z</time>
      </trkpt>
      <trkpt lat="43.67306" lon="3.83631">
        <ele>86.29500032</ele>
        <time>2020-09-26T10:20:32.000Z</time>
      </trkpt>
      <trkpt lat="43.67308" lon="3.8363">
        <ele>86.39500032</ele>
        <time>2020-09-26T10:20:33.000Z</time>
      </trkpt>
      <trkpt lat="43.67311" lon="3.83628">
        <ele>86.49500032</ele>
        <time>2020-09-26T10:20:34.000Z</time>
      </trkpt>
      <trkpt lat="43.67313" lon="3.83627">
        <ele>86.59500032</ele>
        <time>2020-09-26T10:20:35.000Z</time>
      </trkpt>
      <trkpt lat="43.67315" lon="3.83626">
        <ele>86.69500032</ele>
        <time>2020-09-26T10:20:36.000Z</time>
      </trkpt>
      <trkpt lat="43.67318" lon="3.83624">
        <ele>86.79500032</ele>
        <time>2020-09-26T10:20:37.000Z</time>
      </trkpt>
      <trkpt lat="43.67321" lon="3.83623">
        <ele>86.89500032</ele>
        <time>2020-09-26T10:20:38.000Z</time>
      </trkpt>
      <trkpt lat="43.67324" lon="3.83622">
        <ele>86.99500032</ele>
        <time>2020-09-26T10:20:39.000Z</time>
      </trkpt>
      <trkpt lat="43.67326" lon="3.83621">
        <ele>87</ele>
        <time>2020-09-26T10:20:40.000Z</time>
      </trkpt>
      <trkpt lat="43.67329" lon="3.8362">
        <ele>87</ele>
        <time>2020-09-26T10:20:41.000Z</time>
      </trkpt>
      <trkpt lat="43.67331" lon="3.83618">
        <ele>87</ele>
        <time>2020-09-26T10:20:42.000Z</time>
      </trkpt>
      <trkpt lat="43.67334" lon="3.83617">
        <ele>87</ele>
        <time>2020-09-26T10:20:43.000Z</time>
      </trkpt>
      <trkpt lat="43.67336" lon="3.83616">
        <ele>87</ele>
        <time>2020-09-26T10:20:44.000Z</time>
      </trkpt>
      <trkpt lat="43.67339" lon="3.83615">
        <ele>87</ele>
        <time>2020-09-26T10:20:45.000Z</time>
      </trkpt>
      <trkpt lat="43.67341" lon="3.83614">
        <ele>87</ele>
        <time>2020-09-26T10:20:46.000Z</time>
      </trkpt>
      <trkpt lat="43.67344" lon="3.83613">
        <ele>87</ele>
        <time>2020-09-26T10:20:47.000Z</time>
      </trkpt>
      <trkpt lat="43.67346" lon="3.83612">
        <ele>87</ele>
        <time>2020-09-26T10:20:48.000Z</time>
      </trkpt>
      <trkpt lat="43.67348" lon="3.83612">
        <ele>87</ele>
        <time>2020-09-26T10:20:49.000Z</time>
      </trkpt>
      <trkpt lat="43.6735" lon="3.83611">
        <ele>87.09500032</ele>
        <time>2020-09-26T10:20:50.000Z</time>
      </trkpt>
      <trkpt lat="43.67352" lon="3.8361">
        <ele>87.19500032</ele>
        <time>2020-09-26T10:20:51.000Z</time>
      </trkpt>
      <trkpt lat="43.67354" lon="3.83609">
        <ele>87.29500032</ele>
        <time>2020-09-26T10:20:52.000Z</time>
      </trkpt>
      <trkpt lat="43.67355" lon="3.83608">
        <ele>87.39500032</ele>
        <time>2020-09-26T10:20:53.000Z</time>
      </trkpt>
      <trkpt lat="43.67357" lon="3.83608">
        <ele>87.49500032</ele>
        <time>2020-09-26T10:20:54.000Z</time>
      </trkpt>
      <trkpt lat="43.67361" lon="3.83606">
        <ele>87.69500032</ele>
        <time>2020-09-26T10:20:56.000Z</time>
      </trkpt>
      <trkpt lat="43.67363" lon="3.83605">
        <ele>87.79500032</ele>
        <time>2020-09-26T10:20:57.000Z</time>
      </trkpt>
      <trkpt lat="43.67366" lon="3.83606">
        <ele>87.89500032</ele>
        <time>2020-09-26T10:20:58.000Z</time>
      </trkpt>
      <trkpt lat="43.67368" lon="3.83607">
        <ele>87.99500032</ele>
        <time>2020-09-26T10:20:59.000Z</time>
      </trkpt>
      <trkpt lat="43.67371" lon="3.8361">
        <ele>87.71499904</ele>
        <time>2020-09-26T10:21:00.000Z</time>
      </trkpt>
      <trkpt lat="43.67373" lon="3.83613">
        <ele>87.41499904</ele>
        <time>2020-09-26T10:21:01.000Z</time>
      </trkpt>
      <trkpt lat="43.67374" lon="3.83617">
        <ele>87.11499904</ele>
        <time>2020-09-26T10:21:02.000Z</time>
      </trkpt>
      <trkpt lat="43.67374" lon="3.83622">
        <ele>86.81499904</ele>
        <time>2020-09-26T10:21:03.000Z</time>
      </trkpt>
      <trkpt lat="43.67374" lon="3.83627">
        <ele>86.51499904</ele>
        <time>2020-09-26T10:21:04.000Z</time>
      </trkpt>
      <trkpt lat="43.67373" lon="3.83633">
        <ele>86.21499904</ele>
        <time>2020-09-26T10:21:05.000Z</time>
      </trkpt>
      <trkpt lat="43.67371" lon="3.83639">
        <ele>85.91499904</ele>
        <time>2020-09-26T10:21:06.000Z</time>
      </trkpt>
      <trkpt lat="43.6737" lon="3.83645">
        <ele>85.61499904</ele>
        <time>2020-09-26T10:21:07.000Z</time>
      </trkpt>
      <trkpt lat="43.6737" lon="3.83651">
        <ele>85.31499904</ele>
        <time>2020-09-26T10:21:08.000Z</time>
      </trkpt>
      <trkpt lat="43.67369" lon="3.83656">
        <ele>85.01499904</ele>
        <time>2020-09-26T10:21:09.000Z</time>
      </trkpt>
      <trkpt lat="43.67367" lon="3.83662">
        <ele>85</ele>
        <time>2020-09-26T10:21:10.000Z</time>
      </trkpt>
      <trkpt lat="43.67366" lon="3.83667">
        <ele>85</ele>
        <time>2020-09-26T10:21:11.000Z</time>
      </trkpt>
      <trkpt lat="43.67364" lon="3.83672">
        <ele>85</ele>
        <time>2020-09-26T10:21:12.000Z</time>
      </trkpt>
      <trkpt lat="43.67363" lon="3.83677">
        <ele>85</ele>
        <time>2020-09-26T10:21:13.000Z</time>
      </trkpt>
      <trkpt lat="43.67363" lon="3.83682">
        <ele>85</ele>
        <time>2020-09-26T10:21:14.000Z</time>
      </trkpt>
      <trkpt lat="43.67363" lon="3.83686">
        <ele>85</ele>
        <time>2020-09-26T10:21:15.000Z</time>
      </trkpt>
      <trkpt lat="43.67365" lon="3.8369">
        <ele>85</ele>
        <time>2020-09-26T10:21:16.000Z</time>
      </trkpt>
      <trkpt lat="43.67366" lon="3.83693">
        <ele>85</ele>
        <time>2020-09-26T10:21:17.000Z</time>
      </trkpt>
      <trkpt lat="43.67367" lon="3.83695">
        <ele>85</ele>
        <time>2020-09-26T10:21:18.000Z</time>
      </trkpt>
      <trkpt lat="43.67368" lon="3.83697">
        <ele>85</ele>
        <time>2020-09-26T10:21:19.000Z</time>
      </trkpt>
      <trkpt lat="43.67369" lon="3.837">
        <ele>85.09500032</ele>
        <time>2020-09-26T10:21:20.000Z</time>
      </trkpt>
      <trkpt lat="43.6737" lon="3.83703">
        <ele>85.19500032</ele>
        <time>2020-09-26T10:21:21.000Z</time>
      </trkpt>
      <trkpt lat="43.67371" lon="3.83706">
        <ele>85.29500032</ele>
        <time>2020-09-26T10:21:22.000Z</time>
      </trkpt>
      <trkpt lat="43.67372" lon="3.8371">
        <ele>85.39500032</ele>
        <time>2020-09-26T10:21:23.000Z</time>
      </trkpt>
      <trkpt lat="43.67373" lon="3.83713">
        <ele>85.49500032</ele>
        <time>2020-09-26T10:21:24.000Z</time>
      </trkpt>
      <trkpt lat="43.67374" lon="3.83716">
        <ele>85.59500032</ele>
        <time>2020-09-26T10:21:25.000Z</time>
      </trkpt>
      <trkpt lat="43.67375" lon="3.8372">
        <ele>85.69500032</ele>
        <time>2020-09-26T10:21:26.000Z</time>
      </trkpt>
      <trkpt lat="43.67376" lon="3.83722">
        <ele>85.79500032</ele>
        <time>2020-09-26T10:21:27.000Z</time>
      </trkpt>
      <trkpt lat="43.67378" lon="3.83724">
        <ele>85.89500032</ele>
        <time>2020-09-26T10:21:28.000Z</time>
      </trkpt>
      <trkpt lat="43.6738" lon="3.83726">
        <ele>85.99500032</ele>
        <time>2020-09-26T10:21:29.000Z</time>
      </trkpt>
      <trkpt lat="43.67382" lon="3.83727">
        <ele>86</ele>
        <time>2020-09-26T10:21:30.000Z</time>
      </trkpt>
      <trkpt lat="43.67384" lon="3.83728">
        <ele>86</ele>
        <time>2020-09-26T10:21:31.000Z</time>
      </trkpt>
      <trkpt lat="43.67387" lon="3.8373">
        <ele>86</ele>
        <time>2020-09-26T10:21:32.000Z</time>
      </trkpt>
      <trkpt lat="43.6739" lon="3.83731">
        <ele>86</ele>
        <time>2020-09-26T10:21:33.000Z</time>
      </trkpt>
      <trkpt lat="43.67393" lon="3.83732">
        <ele>86</ele>
        <time>2020-09-26T10:21:34.000Z</time>
      </trkpt>
      <trkpt lat="43.67395" lon="3.83733">
        <ele>86</ele>
        <time>2020-09-26T10:21:35.000Z</time>
      </trkpt>
      <trkpt lat="43.67398" lon="3.83733">
        <ele>86</ele>
        <time>2020-09-26T10:21:36.000Z</time>
      </trkpt>
      <trkpt lat="43.674" lon="3.83732">
        <ele>86.174359573543</ele>
        <time>2020-09-26T10:21:41.000Z</time>
      </trkpt>
      <trkpt lat="43.67404" lon="3.83733">
        <ele>86.379487711348</ele>
        <time>2020-09-26T10:21:43.000Z</time>
      </trkpt>
      <trkpt lat="43.67406" lon="3.83734">
        <ele>86.48205178025</ele>
        <time>2020-09-26T10:21:44.000Z</time>
      </trkpt>
      <trkpt lat="43.67409" lon="3.83734">
        <ele>86.584615849152</ele>
        <time>2020-09-26T10:21:45.000Z</time>
      </trkpt>
      <trkpt lat="43.67411" lon="3.83734">
        <ele>86.687179918054</ele>
        <time>2020-09-26T10:21:46.000Z</time>
      </trkpt>
      <trkpt lat="43.67414" lon="3.83734">
        <ele>86.789743986956</ele>
        <time>2020-09-26T10:21:47.000Z</time>
      </trkpt>
      <trkpt lat="43.67417" lon="3.83735">
        <ele>86.892308055858</ele>
        <time>2020-09-26T10:21:48.000Z</time>
      </trkpt>
      <trkpt lat="43.6742" lon="3.83735">
        <ele>86.99487212476</ele>
        <time>2020-09-26T10:21:49.000Z</time>
      </trkpt>
      <trkpt lat="43.67424" lon="3.83736">
        <ele>86.90499968</ele>
        <time>2020-09-26T10:21:50.000Z</time>
      </trkpt>
      <trkpt lat="43.67428" lon="3.83738">
        <ele>86.80499968</ele>
        <time>2020-09-26T10:21:51.000Z</time>
      </trkpt>
      <trkpt lat="43.67431" lon="3.83739">
        <ele>86.70499968</ele>
        <time>2020-09-26T10:21:52.000Z</time>
      </trkpt>
      <trkpt lat="43.67436" lon="3.83741">
        <ele>86.60499968</ele>
        <time>2020-09-26T10:21:53.000Z</time>
      </trkpt>
      <trkpt lat="43.67441" lon="3.83742">
        <ele>86.50499968</ele>
        <time>2020-09-26T10:21:54.000Z</time>
      </trkpt>
      <trkpt lat="43.67446" lon="3.83742">
        <ele>86.40499968</ele>
        <time>2020-09-26T10:21:55.000Z</time>
      </trkpt>
      <trkpt lat="43.67452" lon="3.83743">
        <ele>86.30499968</ele>
        <time>2020-09-26T10:21:56.000Z</time>
      </trkpt>
      <trkpt lat="43.67457" lon="3.83743">
        <ele>86.20499968</ele>
        <time>2020-09-26T10:21:57.000Z</time>
      </trkpt>
      <trkpt lat="43.67462" lon="3.83744">
        <ele>86.10499968</ele>
        <time>2020-09-26T10:21:58.000Z</time>
      </trkpt>
      <trkpt lat="43.67467" lon="3.83746">
        <ele>86.00499968</ele>
        <time>2020-09-26T10:21:59.000Z</time>
      </trkpt>
      <trkpt lat="43.67473" lon="3.83748">
        <ele>85.90499968</ele>
        <time>2020-09-26T10:22:00.000Z</time>
      </trkpt>
      <trkpt lat="43.67478" lon="3.8375">
        <ele>85.80499968</ele>
        <time>2020-09-26T10:22:01.000Z</time>
      </trkpt>
      <trkpt lat="43.67483" lon="3.83754">
        <ele>85.70499968</ele>
        <time>2020-09-26T10:22:02.000Z</time>
      </trkpt>
      <trkpt lat="43.67486" lon="3.83759">
        <ele>85.60499968</ele>
        <time>2020-09-26T10:22:03.000Z</time>
      </trkpt>
      <trkpt lat="43.67489" lon="3.83765">
        <ele>85.50499968</ele>
        <time>2020-09-26T10:22:04.000Z</time>
      </trkpt>
      <trkpt lat="43.67492" lon="3.83772">
        <ele>85.40499968</ele>
        <time>2020-09-26T10:22:05.000Z</time>
      </trkpt>
      <trkpt lat="43.67494" lon="3.83779">
        <ele>85.30499968</ele>
        <time>2020-09-26T10:22:06.000Z</time>
      </trkpt>
      <trkpt lat="43.67497" lon="3.83786">
        <ele>85.20499968</ele>
        <time>2020-09-26T10:22:07.000Z</time>
      </trkpt>
      <trkpt lat="43.675" lon="3.83793">
        <ele>85.10499968</ele>
        <time>2020-09-26T10:22:08.000Z</time>
      </trkpt>
      <trkpt lat="43.67503" lon="3.83801">
        <ele>85.00499968</ele>
        <time>2020-09-26T10:22:09.000Z</time>
      </trkpt>
      <trkpt lat="43.67506" lon="3.83809">
        <ele>84.80999936</ele>
        <time>2020-09-26T10:22:10.000Z</time>
      </trkpt>
      <trkpt lat="43.6751" lon="3.83816">
        <ele>84.60999936</ele>
        <time>2020-09-26T10:22:11.000Z</time>
      </trkpt>
      <trkpt lat="43.67514" lon="3.83822">
        <ele>84.40999936</ele>
        <time>2020-09-26T10:22:12.000Z</time>
      </trkpt>
      <trkpt lat="43.67519" lon="3.83826">
        <ele>84.20999936</ele>
        <time>2020-09-26T10:22:13.000Z</time>
      </trkpt>
      <trkpt lat="43.67525" lon="3.83828">
        <ele>84.00999936</ele>
        <time>2020-09-26T10:22:14.000Z</time>
      </trkpt>
      <trkpt lat="43.67531" lon="3.83829">
        <ele>83.80999936</ele>
        <time>2020-09-26T10:22:15.000Z</time>
      </trkpt>
      <trkpt lat="43.67538" lon="3.83829">
        <ele>83.60999936</ele>
        <time>2020-09-26T10:22:16.000Z</time>
      </trkpt>
      <trkpt lat="43.67544" lon="3.8383">
        <ele>83.40999936</ele>
        <time>2020-09-26T10:22:17.000Z</time>
      </trkpt>
      <trkpt lat="43.6755" lon="3.8383">
        <ele>83.20999936</ele>
        <time>2020-09-26T10:22:18.000Z</time>
      </trkpt>
      <trkpt lat="43.67556" lon="3.8383">
        <ele>83.00999936</ele>
        <time>2020-09-26T10:22:19.000Z</time>
      </trkpt>
      <trkpt lat="43.67561" lon="3.8383">
        <ele>82.905189361955</ele>
        <time>2020-09-26T10:22:20.000Z</time>
      </trkpt>
      <trkpt lat="43.67567" lon="3.83829">
        <ele>82.805389026498</ele>
        <time>2020-09-26T10:22:21.000Z</time>
      </trkpt>
      <trkpt lat="43.67572" lon="3.83828">
        <ele>82.705588691041</ele>
        <time>2020-09-26T10:22:22.000Z</time>
      </trkpt>
      <trkpt lat="43.67576" lon="3.83828">
        <ele>82.605788355584</ele>
        <time>2020-09-26T10:22:23.000Z</time>
      </trkpt>
      <trkpt lat="43.6758" lon="3.83828">
        <ele>82.505988020127</ele>
        <time>2020-09-26T10:22:24.000Z</time>
      </trkpt>
      <trkpt lat="43.67585" lon="3.83829">
        <ele>82.40618768467</ele>
        <time>2020-09-26T10:22:25.000Z</time>
      </trkpt>
      <trkpt lat="43.67589" lon="3.83829">
        <ele>82.306387349214</ele>
        <time>2020-09-26T10:22:26.000Z</time>
      </trkpt>
      <trkpt lat="43.67593" lon="3.83829">
        <ele>82.206587013757</ele>
        <time>2020-09-26T10:22:27.000Z</time>
      </trkpt>
      <trkpt lat="43.67598" lon="3.83829">
        <ele>82.1067866783</ele>
        <time>2020-09-26T10:22:28.000Z</time>
      </trkpt>
      <trkpt lat="43.67602" lon="3.83829">
        <ele>82.006986342843</ele>
        <time>2020-09-26T10:22:29.000Z</time>
      </trkpt>
      <trkpt lat="43.67606" lon="3.83829">
        <ele>81.906813888137</ele>
        <time>2020-09-26T10:22:30.000Z</time>
      </trkpt>
      <trkpt lat="43.6761" lon="3.83828">
        <ele>81.806613423079</ele>
        <time>2020-09-26T10:22:31.000Z</time>
      </trkpt>
      <trkpt lat="43.67614" lon="3.83828">
        <ele>81.70641295802</ele>
        <time>2020-09-26T10:22:32.000Z</time>
      </trkpt>
      <trkpt lat="43.67619" lon="3.83828">
        <ele>81.606212492962</ele>
        <time>2020-09-26T10:22:33.000Z</time>
      </trkpt>
      <trkpt lat="43.67623" lon="3.83828">
        <ele>81.506012027903</ele>
        <time>2020-09-26T10:22:34.000Z</time>
      </trkpt>
      <trkpt lat="43.67627" lon="3.83828">
        <ele>81.405811562845</ele>
        <time>2020-09-26T10:22:35.000Z</time>
      </trkpt>
      <trkpt lat="43.67632" lon="3.83829">
        <ele>81.305611097787</ele>
        <time>2020-09-26T10:22:36.000Z</time>
      </trkpt>
      <trkpt lat="43.67636" lon="3.83829">
        <ele>81.205410632728</ele>
        <time>2020-09-26T10:22:37.000Z</time>
      </trkpt>
      <trkpt lat="43.6764" lon="3.83829">
        <ele>81.10521016767</ele>
        <time>2020-09-26T10:22:38.000Z</time>
      </trkpt>
      <trkpt lat="43.67645" lon="3.83829">
        <ele>81.005009702611</ele>
        <time>2020-09-26T10:22:39.000Z</time>
      </trkpt>
      <trkpt lat="43.67648" lon="3.83828">
        <ele>81</ele>
        <time>2020-09-26T10:22:40.000Z</time>
      </trkpt>
      <trkpt lat="43.67652" lon="3.83828">
        <ele>81</ele>
        <time>2020-09-26T10:22:41.000Z</time>
      </trkpt>
      <trkpt lat="43.67655" lon="3.83828">
        <ele>81</ele>
        <time>2020-09-26T10:22:42.000Z</time>
      </trkpt>
      <trkpt lat="43.67658" lon="3.83828">
        <ele>81</ele>
        <time>2020-09-26T10:22:43.000Z</time>
      </trkpt>
      <trkpt lat="43.67662" lon="3.83829">
        <ele>81</ele>
        <time>2020-09-26T10:22:44.000Z</time>
      </trkpt>
      <trkpt lat="43.67665" lon="3.83829">
        <ele>81</ele>
        <time>2020-09-26T10:22:45.000Z</time>
      </trkpt>
      <trkpt lat="43.67669" lon="3.83828">
        <ele>81</ele>
        <time>2020-09-26T10:22:46.000Z</time>
      </trkpt>
      <trkpt lat="43.67672" lon="3.83828">
        <ele>81</ele>
        <time>2020-09-26T10:22:47.000Z</time>
      </trkpt>
      <trkpt lat="43.67674" lon="3.83829">
        <ele>81</ele>
        <time>2020-09-26T10:22:48.000Z</time>
      </trkpt>
      <trkpt lat="43.67677" lon="3.83829">
        <ele>81</ele>
        <time>2020-09-26T10:22:49.000Z</time>
      </trkpt>
      <trkpt lat="43.67679" lon="3.83829">
        <ele>80.905283858733</ele>
        <time>2020-09-26T10:22:50.000Z</time>
      </trkpt>
      <trkpt lat="43.67682" lon="3.83829">
        <ele>80.705882127734</ele>
        <time>2020-09-26T10:22:52.000Z</time>
      </trkpt>
      <trkpt lat="43.67685" lon="3.8383">
        <ele>80.506480396736</ele>
        <time>2020-09-26T10:22:54.000Z</time>
      </trkpt>
      <trkpt lat="43.67687" lon="3.83831">
        <ele>80.307078665738</ele>
        <time>2020-09-26T10:22:56.000Z</time>
      </trkpt>
      <trkpt lat="43.67689" lon="3.83831">
        <ele>80.00797606924</ele>
        <time>2020-09-26T10:22:59.000Z</time>
      </trkpt>
      <trkpt lat="43.67689" lon="3.83831">
        <ele>80</ele>
        <time>2020-09-26T10:23:03.000Z</time>
      </trkpt>
      <trkpt lat="43.67692" lon="3.83832">
        <ele>80</ele>
        <time>2020-09-26T10:23:08.000Z</time>
      </trkpt>
      <trkpt lat="43.67691" lon="3.83831">
        <ele>80.979333371542</ele>
        <time>2020-09-26T10:23:17.000Z</time>
      </trkpt>
      <trkpt lat="43.67697" lon="3.83833">
        <ele>80.95163048745</ele>
        <time>2020-09-26T10:23:35.000Z</time>
      </trkpt>
      <trkpt lat="43.67699" lon="3.83835">
        <ele>80.84647791022</ele>
        <time>2020-09-26T10:23:36.000Z</time>
      </trkpt>
      <trkpt lat="43.677" lon="3.83837">
        <ele>80.741325332989</ele>
        <time>2020-09-26T10:23:37.000Z</time>
      </trkpt>
      <trkpt lat="43.67702" lon="3.83839">
        <ele>80.636172755758</ele>
        <time>2020-09-26T10:23:38.000Z</time>
      </trkpt>
      <trkpt lat="43.67705" lon="3.83841">
        <ele>80.531020178527</ele>
        <time>2020-09-26T10:23:39.000Z</time>
      </trkpt>
      <trkpt lat="43.67707" lon="3.83843">
        <ele>80.425867601296</ele>
        <time>2020-09-26T10:23:40.000Z</time>
      </trkpt>
      <trkpt lat="43.6771" lon="3.83844">
        <ele>80.320715024066</ele>
        <time>2020-09-26T10:23:41.000Z</time>
      </trkpt>
      <trkpt lat="43.67714" lon="3.83846">
        <ele>80.215562446835</ele>
        <time>2020-09-26T10:23:42.000Z</time>
      </trkpt>
      <trkpt lat="43.67717" lon="3.83847">
        <ele>80.110409869604</ele>
        <time>2020-09-26T10:23:43.000Z</time>
      </trkpt>
      <trkpt lat="43.67721" lon="3.83849">
        <ele>80.005257292373</ele>
        <time>2020-09-26T10:23:44.000Z</time>
      </trkpt>
      <trkpt lat="43.67724" lon="3.83851">
        <ele>80.09500032</ele>
        <time>2020-09-26T10:23:45.000Z</time>
      </trkpt>
      <trkpt lat="43.67727" lon="3.83854">
        <ele>80.19500032</ele>
        <time>2020-09-26T10:23:46.000Z</time>
      </trkpt>
      <trkpt lat="43.6773" lon="3.83857">
        <ele>80.29500032</ele>
        <time>2020-09-26T10:23:47.000Z</time>
      </trkpt>
      <trkpt lat="43.67732" lon="3.8386">
        <ele>80.39500032</ele>
        <time>2020-09-26T10:23:48.000Z</time>
      </trkpt>
      <trkpt lat="43.67734" lon="3.83863">
        <ele>80.59500032</ele>
        <time>2020-09-26T10:23:50.000Z</time>
      </trkpt>
      <trkpt lat="43.67735" lon="3.83866">
        <ele>80.895947184984</ele>
        <time>2020-09-26T10:23:55.000Z</time>
      </trkpt>
      <trkpt lat="43.67734" lon="3.83869">
        <ele>80.676889364936</ele>
        <time>2020-09-26T10:23:57.000Z</time>
      </trkpt>
      <trkpt lat="43.67733" lon="3.83868">
        <ele>80.019715904789</ele>
        <time>2020-09-26T10:24:03.000Z</time>
      </trkpt>
      <trkpt lat="43.67735" lon="3.8387">
        <ele>80</ele>
        <time>2020-09-26T10:24:14.000Z</time>
      </trkpt>
      <trkpt lat="43.67735" lon="3.8387">
        <ele>80</ele>
        <time>2020-09-26T10:24:17.000Z</time>
      </trkpt>
      <trkpt lat="43.67736" lon="3.83871">
        <ele>80</ele>
        <time>2020-09-26T10:24:18.000Z</time>
      </trkpt>
      <trkpt lat="43.67742" lon="3.83874">
        <ele>80</ele>
        <time>2020-09-26T10:24:22.000Z</time>
      </trkpt>
      <trkpt lat="43.67744" lon="3.83874">
        <ele>80.058272652078</ele>
        <time>2020-09-26T10:24:23.000Z</time>
      </trkpt>
      <trkpt lat="43.67746" lon="3.83874">
        <ele>80.162330959361</ele>
        <time>2020-09-26T10:24:24.000Z</time>
      </trkpt>
      <trkpt lat="43.67749" lon="3.83873">
        <ele>80.266389266644</ele>
        <time>2020-09-26T10:24:25.000Z</time>
      </trkpt>
      <trkpt lat="43.67751" lon="3.83873">
        <ele>80.370447573926</ele>
        <time>2020-09-26T10:24:26.000Z</time>
      </trkpt>
      <trkpt lat="43.67754" lon="3.83872">
        <ele>80.474505881209</ele>
        <time>2020-09-26T10:24:27.000Z</time>
      </trkpt>
      <trkpt lat="43.67757" lon="3.83871">
        <ele>80.578564188492</ele>
        <time>2020-09-26T10:24:28.000Z</time>
      </trkpt>
      <trkpt lat="43.6776" lon="3.8387">
        <ele>80.682622495774</ele>
        <time>2020-09-26T10:24:29.000Z</time>
      </trkpt>
      <trkpt lat="43.67763" lon="3.8387">
        <ele>80.786680803057</ele>
        <time>2020-09-26T10:24:30.000Z</time>
      </trkpt>
      <trkpt lat="43.67766" lon="3.83869">
        <ele>80.89073911034</ele>
        <time>2020-09-26T10:24:31.000Z</time>
      </trkpt>
      <trkpt lat="43.67769" lon="3.83868">
        <ele>80.994797417622</ele>
        <time>2020-09-26T10:24:32.000Z</time>
      </trkpt>
      <trkpt lat="43.67772" lon="3.83867">
        <ele>81</ele>
        <time>2020-09-26T10:24:33.000Z</time>
      </trkpt>
      <trkpt lat="43.67775" lon="3.83866">
        <ele>81</ele>
        <time>2020-09-26T10:24:34.000Z</time>
      </trkpt>
      <trkpt lat="43.67778" lon="3.83865">
        <ele>81</ele>
        <time>2020-09-26T10:24:35.000Z</time>
      </trkpt>
      <trkpt lat="43.67781" lon="3.83863">
        <ele>81</ele>
        <time>2020-09-26T10:24:36.000Z</time>
      </trkpt>
      <trkpt lat="43.67784" lon="3.83861">
        <ele>81</ele>
        <time>2020-09-26T10:24:37.000Z</time>
      </trkpt>
      <trkpt lat="43.67786" lon="3.83859">
        <ele>81</ele>
        <time>2020-09-26T10:24:38.000Z</time>
      </trkpt>
      <trkpt lat="43.67788" lon="3.83856">
        <ele>81</ele>
        <time>2020-09-26T10:24:39.000Z</time>
      </trkpt>
      <trkpt lat="43.6779" lon="3.83853">
        <ele>81</ele>
        <time>2020-09-26T10:24:40.000Z</time>
      </trkpt>
      <trkpt lat="43.67793" lon="3.8385">
        <ele>81</ele>
        <time>2020-09-26T10:24:41.000Z</time>
      </trkpt>
      <trkpt lat="43.67795" lon="3.83848">
        <ele>81</ele>
        <time>2020-09-26T10:24:42.000Z</time>
      </trkpt>
      <trkpt lat="43.67797" lon="3.83845">
        <ele>81</ele>
        <time>2020-09-26T10:24:43.000Z</time>
      </trkpt>
      <trkpt lat="43.67799" lon="3.83842">
        <ele>81</ele>
        <time>2020-09-26T10:24:44.000Z</time>
      </trkpt>
      <trkpt lat="43.67802" lon="3.83839">
        <ele>81</ele>
        <time>2020-09-26T10:24:45.000Z</time>
      </trkpt>
      <trkpt lat="43.67804" lon="3.83835">
        <ele>81</ele>
        <time>2020-09-26T10:24:46.000Z</time>
      </trkpt>
      <trkpt lat="43.67806" lon="3.83832">
        <ele>81</ele>
        <time>2020-09-26T10:24:47.000Z</time>
      </trkpt>
      <trkpt lat="43.67809" lon="3.83829">
        <ele>81</ele>
        <time>2020-09-26T10:24:48.000Z</time>
      </trkpt>
      <trkpt lat="43.67811" lon="3.83826">
        <ele>81</ele>
        <time>2020-09-26T10:24:49.000Z</time>
      </trkpt>
      <trkpt lat="43.67814" lon="3.83823">
        <ele>81</ele>
        <time>2020-09-26T10:24:50.000Z</time>
      </trkpt>
      <trkpt lat="43.67816" lon="3.8382">
        <ele>81</ele>
        <time>2020-09-26T10:24:51.000Z</time>
      </trkpt>
      <trkpt lat="43.67819" lon="3.83818">
        <ele>81</ele>
        <time>2020-09-26T10:24:52.000Z</time>
      </trkpt>
      <trkpt lat="43.67822" lon="3.83815">
        <ele>81.092322983035</ele>
        <time>2020-09-26T10:24:53.000Z</time>
      </trkpt>
      <trkpt lat="43.67825" lon="3.83812">
        <ele>81.189504743092</ele>
        <time>2020-09-26T10:24:54.000Z</time>
      </trkpt>
      <trkpt lat="43.67827" lon="3.83809">
        <ele>81.286686503148</ele>
        <time>2020-09-26T10:24:55.000Z</time>
      </trkpt>
      <trkpt lat="43.6783" lon="3.83806">
        <ele>81.383868263205</ele>
        <time>2020-09-26T10:24:56.000Z</time>
      </trkpt>
      <trkpt lat="43.67833" lon="3.83803">
        <ele>81.481050023261</ele>
        <time>2020-09-26T10:24:57.000Z</time>
      </trkpt>
      <trkpt lat="43.67836" lon="3.83801">
        <ele>81.578231783318</ele>
        <time>2020-09-26T10:24:58.000Z</time>
      </trkpt>
      <trkpt lat="43.6784" lon="3.83798">
        <ele>81.675413543375</ele>
        <time>2020-09-26T10:24:59.000Z</time>
      </trkpt>
      <trkpt lat="43.67843" lon="3.83796">
        <ele>81.772595303431</ele>
        <time>2020-09-26T10:25:00.000Z</time>
      </trkpt>
      <trkpt lat="43.67846" lon="3.83793">
        <ele>81.869777063488</ele>
        <time>2020-09-26T10:25:01.000Z</time>
      </trkpt>
      <trkpt lat="43.67849" lon="3.83791">
        <ele>81.966958823544</ele>
        <time>2020-09-26T10:25:02.000Z</time>
      </trkpt>
      <trkpt lat="43.67852" lon="3.83789">
        <ele>82</ele>
        <time>2020-09-26T10:25:03.000Z</time>
      </trkpt>
      <trkpt lat="43.67855" lon="3.83787">
        <ele>82</ele>
        <time>2020-09-26T10:25:04.000Z</time>
      </trkpt>
      <trkpt lat="43.67858" lon="3.83785">
        <ele>82</ele>
        <time>2020-09-26T10:25:05.000Z</time>
      </trkpt>
      <trkpt lat="43.67861" lon="3.83783">
        <ele>82</ele>
        <time>2020-09-26T10:25:06.000Z</time>
      </trkpt>
      <trkpt lat="43.67864" lon="3.83781">
        <ele>82</ele>
        <time>2020-09-26T10:25:07.000Z</time>
      </trkpt>
      <trkpt lat="43.67867" lon="3.83779">
        <ele>82</ele>
        <time>2020-09-26T10:25:08.000Z</time>
      </trkpt>
      <trkpt lat="43.6787" lon="3.83778">
        <ele>82</ele>
        <time>2020-09-26T10:25:09.000Z</time>
      </trkpt>
      <trkpt lat="43.67873" lon="3.83776">
        <ele>82</ele>
        <time>2020-09-26T10:25:10.000Z</time>
      </trkpt>
      <trkpt lat="43.67875" lon="3.83773">
        <ele>82</ele>
        <time>2020-09-26T10:25:11.000Z</time>
      </trkpt>
      <trkpt lat="43.67878" lon="3.8377">
        <ele>82</ele>
        <time>2020-09-26T10:25:12.000Z</time>
      </trkpt>
      <trkpt lat="43.67881" lon="3.83768">
        <ele>81.90499968</ele>
        <time>2020-09-26T10:25:13.000Z</time>
      </trkpt>
      <trkpt lat="43.67884" lon="3.83765">
        <ele>81.80499968</ele>
        <time>2020-09-26T10:25:14.000Z</time>
      </trkpt>
      <trkpt lat="43.67887" lon="3.83763">
        <ele>81.70499968</ele>
        <time>2020-09-26T10:25:15.000Z</time>
      </trkpt>
      <trkpt lat="43.6789" lon="3.8376">
        <ele>81.60499968</ele>
        <time>2020-09-26T10:25:16.000Z</time>
      </trkpt>
      <trkpt lat="43.67892" lon="3.83758">
        <ele>81.50499968</ele>
        <time>2020-09-26T10:25:17.000Z</time>
      </trkpt>
      <trkpt lat="43.67895" lon="3.83756">
        <ele>81.40499968</ele>
        <time>2020-09-26T10:25:18.000Z</time>
      </trkpt>
      <trkpt lat="43.67898" lon="3.83754">
        <ele>81.30499968</ele>
        <time>2020-09-26T10:25:19.000Z</time>
      </trkpt>
      <trkpt lat="43.67901" lon="3.83752">
        <ele>81.20499968</ele>
        <time>2020-09-26T10:25:20.000Z</time>
      </trkpt>
      <trkpt lat="43.67904" lon="3.83749">
        <ele>81.10499968</ele>
        <time>2020-09-26T10:25:21.000Z</time>
      </trkpt>
      <trkpt lat="43.67907" lon="3.83747">
        <ele>81.00499968</ele>
        <time>2020-09-26T10:25:22.000Z</time>
      </trkpt>
      <trkpt lat="43.67911" lon="3.83744">
        <ele>81</ele>
        <time>2020-09-26T10:25:23.000Z</time>
      </trkpt>
      <trkpt lat="43.67914" lon="3.83742">
        <ele>81</ele>
        <time>2020-09-26T10:25:24.000Z</time>
      </trkpt>
      <trkpt lat="43.67917" lon="3.83739">
        <ele>81</ele>
        <time>2020-09-26T10:25:25.000Z</time>
      </trkpt>
      <trkpt lat="43.6792" lon="3.83736">
        <ele>81</ele>
        <time>2020-09-26T10:25:26.000Z</time>
      </trkpt>
      <trkpt lat="43.67923" lon="3.83734">
        <ele>81</ele>
        <time>2020-09-26T10:25:27.000Z</time>
      </trkpt>
      <trkpt lat="43.67926" lon="3.83731">
        <ele>81</ele>
        <time>2020-09-26T10:25:28.000Z</time>
      </trkpt>
      <trkpt lat="43.67929" lon="3.83728">
        <ele>81</ele>
        <time>2020-09-26T10:25:29.000Z</time>
      </trkpt>
      <trkpt lat="43.67931" lon="3.83725">
        <ele>81</ele>
        <time>2020-09-26T10:25:30.000Z</time>
      </trkpt>
      <trkpt lat="43.67934" lon="3.83722">
        <ele>81</ele>
        <time>2020-09-26T10:25:31.000Z</time>
      </trkpt>
      <trkpt lat="43.67937" lon="3.83719">
        <ele>81</ele>
        <time>2020-09-26T10:25:32.000Z</time>
      </trkpt>
      <trkpt lat="43.6794" lon="3.83716">
        <ele>81</ele>
        <time>2020-09-26T10:25:33.000Z</time>
      </trkpt>
      <trkpt lat="43.67943" lon="3.83713">
        <ele>81</ele>
        <time>2020-09-26T10:25:34.000Z</time>
      </trkpt>
      <trkpt lat="43.67947" lon="3.8371">
        <ele>81</ele>
        <time>2020-09-26T10:25:35.000Z</time>
      </trkpt>
      <trkpt lat="43.67949" lon="3.83707">
        <ele>81</ele>
        <time>2020-09-26T10:25:36.000Z</time>
      </trkpt>
      <trkpt lat="43.67952" lon="3.83704">
        <ele>81</ele>
        <time>2020-09-26T10:25:37.000Z</time>
      </trkpt>
      <trkpt lat="43.67955" lon="3.83701">
        <ele>81</ele>
        <time>2020-09-26T10:25:38.000Z</time>
      </trkpt>
      <trkpt lat="43.67958" lon="3.837">
        <ele>81</ele>
        <time>2020-09-26T10:25:39.000Z</time>
      </trkpt>
      <trkpt lat="43.67962" lon="3.83698">
        <ele>81</ele>
        <time>2020-09-26T10:25:40.000Z</time>
      </trkpt>
      <trkpt lat="43.67965" lon="3.83696">
        <ele>81</ele>
        <time>2020-09-26T10:25:41.000Z</time>
      </trkpt>
      <trkpt lat="43.67968" lon="3.83693">
        <ele>81</ele>
        <time>2020-09-26T10:25:42.000Z</time>
      </trkpt>
      <trkpt lat="43.6797" lon="3.8369">
        <ele>81</ele>
        <time>2020-09-26T10:25:43.000Z</time>
      </trkpt>
      <trkpt lat="43.67973" lon="3.83686">
        <ele>81</ele>
        <time>2020-09-26T10:25:44.000Z</time>
      </trkpt>
      <trkpt lat="43.67975" lon="3.83682">
        <ele>81</ele>
        <time>2020-09-26T10:25:45.000Z</time>
      </trkpt>
      <trkpt lat="43.67977" lon="3.83677">
        <ele>81</ele>
        <time>2020-09-26T10:25:46.000Z</time>
      </trkpt>
      <trkpt lat="43.67979" lon="3.83673">
        <ele>81</ele>
        <time>2020-09-26T10:25:47.000Z</time>
      </trkpt>
      <trkpt lat="43.67982" lon="3.83669">
        <ele>81</ele>
        <time>2020-09-26T10:25:48.000Z</time>
      </trkpt>
      <trkpt lat="43.67984" lon="3.83665">
        <ele>81</ele>
        <time>2020-09-26T10:25:49.000Z</time>
      </trkpt>
      <trkpt lat="43.67987" lon="3.83661">
        <ele>81</ele>
        <time>2020-09-26T10:25:50.000Z</time>
      </trkpt>
      <trkpt lat="43.67991" lon="3.83658">
        <ele>81</ele>
        <time>2020-09-26T10:25:51.000Z</time>
      </trkpt>
      <trkpt lat="43.67994" lon="3.83655">
        <ele>81</ele>
        <time>2020-09-26T10:25:52.000Z</time>
      </trkpt>
      <trkpt lat="43.67997" lon="3.83651">
        <ele>81</ele>
        <time>2020-09-26T10:25:53.000Z</time>
      </trkpt>
      <trkpt lat="43.68" lon="3.83648">
        <ele>81</ele>
        <time>2020-09-26T10:25:54.000Z</time>
      </trkpt>
      <trkpt lat="43.68003" lon="3.83645">
        <ele>81</ele>
        <time>2020-09-26T10:25:55.000Z</time>
      </trkpt>
      <trkpt lat="43.68006" lon="3.83641">
        <ele>81</ele>
        <time>2020-09-26T10:25:56.000Z</time>
      </trkpt>
      <trkpt lat="43.68009" lon="3.83638">
        <ele>81</ele>
        <time>2020-09-26T10:25:57.000Z</time>
      </trkpt>
      <trkpt lat="43.68012" lon="3.83634">
        <ele>81</ele>
        <time>2020-09-26T10:25:58.000Z</time>
      </trkpt>
      <trkpt lat="43.68015" lon="3.83631">
        <ele>81</ele>
        <time>2020-09-26T10:25:59.000Z</time>
      </trkpt>
      <trkpt lat="43.68018" lon="3.83628">
        <ele>81</ele>
        <time>2020-09-26T10:26:00.000Z</time>
      </trkpt>
      <trkpt lat="43.68021" lon="3.83624">
        <ele>81</ele>
        <time>2020-09-26T10:26:01.000Z</time>
      </trkpt>
      <trkpt lat="43.68024" lon="3.83621">
        <ele>81</ele>
        <time>2020-09-26T10:26:02.000Z</time>
      </trkpt>
      <trkpt lat="43.68027" lon="3.83618">
        <ele>81</ele>
        <time>2020-09-26T10:26:03.000Z</time>
      </trkpt>
      <trkpt lat="43.6803" lon="3.83615">
        <ele>81</ele>
        <time>2020-09-26T10:26:04.000Z</time>
      </trkpt>
      <trkpt lat="43.68032" lon="3.83611">
        <ele>81</ele>
        <time>2020-09-26T10:26:05.000Z</time>
      </trkpt>
      <trkpt lat="43.68035" lon="3.83608">
        <ele>81</ele>
        <time>2020-09-26T10:26:06.000Z</time>
      </trkpt>
      <trkpt lat="43.68038" lon="3.83605">
        <ele>81</ele>
        <time>2020-09-26T10:26:07.000Z</time>
      </trkpt>
      <trkpt lat="43.68041" lon="3.83602">
        <ele>81</ele>
        <time>2020-09-26T10:26:08.000Z</time>
      </trkpt>
      <trkpt lat="43.68044" lon="3.83599">
        <ele>81</ele>
        <time>2020-09-26T10:26:09.000Z</time>
      </trkpt>
      <trkpt lat="43.68048" lon="3.83595">
        <ele>81</ele>
        <time>2020-09-26T10:26:10.000Z</time>
      </trkpt>
      <trkpt lat="43.68051" lon="3.83592">
        <ele>81</ele>
        <time>2020-09-26T10:26:11.000Z</time>
      </trkpt>
      <trkpt lat="43.68054" lon="3.83589">
        <ele>81</ele>
        <time>2020-09-26T10:26:12.000Z</time>
      </trkpt>
      <trkpt lat="43.68057" lon="3.83585">
        <ele>81.094905323567</ele>
        <time>2020-09-26T10:26:13.000Z</time>
      </trkpt>
      <trkpt lat="43.68061" lon="3.83582">
        <ele>81.194805327659</ele>
        <time>2020-09-26T10:26:14.000Z</time>
      </trkpt>
      <trkpt lat="43.68064" lon="3.83579">
        <ele>81.294705331751</ele>
        <time>2020-09-26T10:26:15.000Z</time>
      </trkpt>
      <trkpt lat="43.68067" lon="3.83576">
        <ele>81.394605335843</ele>
        <time>2020-09-26T10:26:16.000Z</time>
      </trkpt>
      <trkpt lat="43.68071" lon="3.83573">
        <ele>81.494505339935</ele>
        <time>2020-09-26T10:26:17.000Z</time>
      </trkpt>
      <trkpt lat="43.68074" lon="3.83569">
        <ele>81.594405344027</ele>
        <time>2020-09-26T10:26:18.000Z</time>
      </trkpt>
      <trkpt lat="43.68077" lon="3.83566">
        <ele>81.694305348119</ele>
        <time>2020-09-26T10:26:19.000Z</time>
      </trkpt>
      <trkpt lat="43.6808" lon="3.83563">
        <ele>81.794205352211</ele>
        <time>2020-09-26T10:26:20.000Z</time>
      </trkpt>
      <trkpt lat="43.68083" lon="3.8356">
        <ele>81.894105356303</ele>
        <time>2020-09-26T10:26:21.000Z</time>
      </trkpt>
      <trkpt lat="43.68086" lon="3.83557">
        <ele>81.994005360394</ele>
        <time>2020-09-26T10:26:22.000Z</time>
      </trkpt>
      <trkpt lat="43.68089" lon="3.83554">
        <ele>82.094093543874</ele>
        <time>2020-09-26T10:26:23.000Z</time>
      </trkpt>
      <trkpt lat="43.68093" lon="3.83551">
        <ele>82.194193740166</ele>
        <time>2020-09-26T10:26:24.000Z</time>
      </trkpt>
      <trkpt lat="43.68096" lon="3.83549">
        <ele>82.294293936459</ele>
        <time>2020-09-26T10:26:25.000Z</time>
      </trkpt>
      <trkpt lat="43.68099" lon="3.83546">
        <ele>82.394394132751</ele>
        <time>2020-09-26T10:26:26.000Z</time>
      </trkpt>
      <trkpt lat="43.68102" lon="3.83542">
        <ele>82.494494329044</ele>
        <time>2020-09-26T10:26:27.000Z</time>
      </trkpt>
      <trkpt lat="43.68104" lon="3.83538">
        <ele>82.594594525336</ele>
        <time>2020-09-26T10:26:28.000Z</time>
      </trkpt>
      <trkpt lat="43.68107" lon="3.83534">
        <ele>82.694694721629</ele>
        <time>2020-09-26T10:26:29.000Z</time>
      </trkpt>
      <trkpt lat="43.68109" lon="3.8353">
        <ele>82.794794917921</ele>
        <time>2020-09-26T10:26:30.000Z</time>
      </trkpt>
      <trkpt lat="43.68111" lon="3.83526">
        <ele>82.894895114213</ele>
        <time>2020-09-26T10:26:31.000Z</time>
      </trkpt>
      <trkpt lat="43.68113" lon="3.83522">
        <ele>82.994995310506</ele>
        <time>2020-09-26T10:26:32.000Z</time>
      </trkpt>
      <trkpt lat="43.68115" lon="3.83518">
        <ele>83.09500032</ele>
        <time>2020-09-26T10:26:33.000Z</time>
      </trkpt>
      <trkpt lat="43.68118" lon="3.83514">
        <ele>83.19500032</ele>
        <time>2020-09-26T10:26:34.000Z</time>
      </trkpt>
      <trkpt lat="43.6812" lon="3.83509">
        <ele>83.29500032</ele>
        <time>2020-09-26T10:26:35.000Z</time>
      </trkpt>
      <trkpt lat="43.68121" lon="3.83505">
        <ele>83.39500032</ele>
        <time>2020-09-26T10:26:36.000Z</time>
      </trkpt>
      <trkpt lat="43.68123" lon="3.83501">
        <ele>83.49500032</ele>
        <time>2020-09-26T10:26:37.000Z</time>
      </trkpt>
      <trkpt lat="43.68125" lon="3.83497">
        <ele>83.59500032</ele>
        <time>2020-09-26T10:26:38.000Z</time>
      </trkpt>
      <trkpt lat="43.68127" lon="3.83493">
        <ele>83.69500032</ele>
        <time>2020-09-26T10:26:39.000Z</time>
      </trkpt>
      <trkpt lat="43.68129" lon="3.83489">
        <ele>83.79500032</ele>
        <time>2020-09-26T10:26:40.000Z</time>
      </trkpt>
      <trkpt lat="43.68131" lon="3.83486">
        <ele>83.89500032</ele>
        <time>2020-09-26T10:26:41.000Z</time>
      </trkpt>
      <trkpt lat="43.68134" lon="3.83483">
        <ele>83.99500032</ele>
        <time>2020-09-26T10:26:42.000Z</time>
      </trkpt>
      <trkpt lat="43.68136" lon="3.8348">
        <ele>84.092322983035</ele>
        <time>2020-09-26T10:26:43.000Z</time>
      </trkpt>
      <trkpt lat="43.68139" lon="3.83477">
        <ele>84.189504743092</ele>
        <time>2020-09-26T10:26:44.000Z</time>
      </trkpt>
      <trkpt lat="43.68141" lon="3.83474">
        <ele>84.286686503148</ele>
        <time>2020-09-26T10:26:45.000Z</time>
      </trkpt>
      <trkpt lat="43.68143" lon="3.83471">
        <ele>84.383868263205</ele>
        <time>2020-09-26T10:26:46.000Z</time>
      </trkpt>
      <trkpt lat="43.68146" lon="3.83468">
        <ele>84.481050023261</ele>
        <time>2020-09-26T10:26:47.000Z</time>
      </trkpt>
      <trkpt lat="43.68149" lon="3.83465">
        <ele>84.578231783318</ele>
        <time>2020-09-26T10:26:48.000Z</time>
      </trkpt>
      <trkpt lat="43.68152" lon="3.83462">
        <ele>84.675413543375</ele>
        <time>2020-09-26T10:26:49.000Z</time>
      </trkpt>
      <trkpt lat="43.68154" lon="3.83459">
        <ele>84.772595303431</ele>
        <time>2020-09-26T10:26:50.000Z</time>
      </trkpt>
      <trkpt lat="43.68157" lon="3.83456">
        <ele>84.869777063488</ele>
        <time>2020-09-26T10:26:51.000Z</time>
      </trkpt>
      <trkpt lat="43.6816" lon="3.83452">
        <ele>84.966958823544</ele>
        <time>2020-09-26T10:26:52.000Z</time>
      </trkpt>
      <trkpt lat="43.68162" lon="3.83448">
        <ele>85.067971800462</ele>
        <time>2020-09-26T10:26:53.000Z</time>
      </trkpt>
      <trkpt lat="43.68165" lon="3.83444">
        <ele>85.170958378263</ele>
        <time>2020-09-26T10:26:54.000Z</time>
      </trkpt>
      <trkpt lat="43.68167" lon="3.8344">
        <ele>85.273944956064</ele>
        <time>2020-09-26T10:26:55.000Z</time>
      </trkpt>
      <trkpt lat="43.6817" lon="3.83436">
        <ele>85.376931533864</ele>
        <time>2020-09-26T10:26:56.000Z</time>
      </trkpt>
      <trkpt lat="43.68172" lon="3.83432">
        <ele>85.479918111665</ele>
        <time>2020-09-26T10:26:57.000Z</time>
      </trkpt>
      <trkpt lat="43.68174" lon="3.83429">
        <ele>85.582904689465</ele>
        <time>2020-09-26T10:26:58.000Z</time>
      </trkpt>
      <trkpt lat="43.68177" lon="3.83426">
        <ele>85.685891267266</ele>
        <time>2020-09-26T10:26:59.000Z</time>
      </trkpt>
      <trkpt lat="43.68179" lon="3.83422">
        <ele>85.788877845066</ele>
        <time>2020-09-26T10:27:00.000Z</time>
      </trkpt>
      <trkpt lat="43.68182" lon="3.83418">
        <ele>85.891864422867</ele>
        <time>2020-09-26T10:27:01.000Z</time>
      </trkpt>
      <trkpt lat="43.68185" lon="3.83414">
        <ele>85.994851000667</ele>
        <time>2020-09-26T10:27:02.000Z</time>
      </trkpt>
      <trkpt lat="43.68187" lon="3.8341">
        <ele>86</ele>
        <time>2020-09-26T10:27:03.000Z</time>
      </trkpt>
      <trkpt lat="43.68189" lon="3.83406">
        <ele>86</ele>
        <time>2020-09-26T10:27:04.000Z</time>
      </trkpt>
      <trkpt lat="43.68191" lon="3.83401">
        <ele>86</ele>
        <time>2020-09-26T10:27:05.000Z</time>
      </trkpt>
      <trkpt lat="43.68193" lon="3.83397">
        <ele>86</ele>
        <time>2020-09-26T10:27:06.000Z</time>
      </trkpt>
      <trkpt lat="43.68195" lon="3.83393">
        <ele>86</ele>
        <time>2020-09-26T10:27:07.000Z</time>
      </trkpt>
      <trkpt lat="43.68197" lon="3.8339">
        <ele>86</ele>
        <time>2020-09-26T10:27:08.000Z</time>
      </trkpt>
      <trkpt lat="43.68199" lon="3.83386">
        <ele>86</ele>
        <time>2020-09-26T10:27:09.000Z</time>
      </trkpt>
      <trkpt lat="43.68202" lon="3.83383">
        <ele>86</ele>
        <time>2020-09-26T10:27:10.000Z</time>
      </trkpt>
      <trkpt lat="43.68204" lon="3.83379">
        <ele>86</ele>
        <time>2020-09-26T10:27:11.000Z</time>
      </trkpt>
      <trkpt lat="43.68207" lon="3.83376">
        <ele>86</ele>
        <time>2020-09-26T10:27:12.000Z</time>
      </trkpt>
      <trkpt lat="43.6821" lon="3.83373">
        <ele>86.09500032</ele>
        <time>2020-09-26T10:27:13.000Z</time>
      </trkpt>
      <trkpt lat="43.68212" lon="3.8337">
        <ele>86.19500032</ele>
        <time>2020-09-26T10:27:14.000Z</time>
      </trkpt>
      <trkpt lat="43.68215" lon="3.83367">
        <ele>86.29500032</ele>
        <time>2020-09-26T10:27:15.000Z</time>
      </trkpt>
      <trkpt lat="43.68217" lon="3.83365">
        <ele>86.39500032</ele>
        <time>2020-09-26T10:27:16.000Z</time>
      </trkpt>
      <trkpt lat="43.68219" lon="3.83363">
        <ele>86.49500032</ele>
        <time>2020-09-26T10:27:17.000Z</time>
      </trkpt>
      <trkpt lat="43.68221" lon="3.83361">
        <ele>86.59500032</ele>
        <time>2020-09-26T10:27:18.000Z</time>
      </trkpt>
      <trkpt lat="43.68224" lon="3.83359">
        <ele>86.69500032</ele>
        <time>2020-09-26T10:27:19.000Z</time>
      </trkpt>
      <trkpt lat="43.68226" lon="3.83356">
        <ele>86.79500032</ele>
        <time>2020-09-26T10:27:20.000Z</time>
      </trkpt>
      <trkpt lat="43.68229" lon="3.83353">
        <ele>86.89500032</ele>
        <time>2020-09-26T10:27:21.000Z</time>
      </trkpt>
      <trkpt lat="43.68232" lon="3.83351">
        <ele>86.99500032</ele>
        <time>2020-09-26T10:27:22.000Z</time>
      </trkpt>
      <trkpt lat="43.68235" lon="3.83348">
        <ele>87</ele>
        <time>2020-09-26T10:27:23.000Z</time>
      </trkpt>
      <trkpt lat="43.68239" lon="3.83346">
        <ele>87</ele>
        <time>2020-09-26T10:27:24.000Z</time>
      </trkpt>
      <trkpt lat="43.68242" lon="3.83343">
        <ele>87</ele>
        <time>2020-09-26T10:27:25.000Z</time>
      </trkpt>
      <trkpt lat="43.68245" lon="3.8334">
        <ele>87</ele>
        <time>2020-09-26T10:27:26.000Z</time>
      </trkpt>
      <trkpt lat="43.68248" lon="3.83337">
        <ele>87</ele>
        <time>2020-09-26T10:27:27.000Z</time>
      </trkpt>
      <trkpt lat="43.68251" lon="3.83333">
        <ele>87</ele>
        <time>2020-09-26T10:27:28.000Z</time>
      </trkpt>
      <trkpt lat="43.68253" lon="3.8333">
        <ele>87</ele>
        <time>2020-09-26T10:27:29.000Z</time>
      </trkpt>
      <trkpt lat="43.68255" lon="3.83326">
        <ele>87</ele>
        <time>2020-09-26T10:27:30.000Z</time>
      </trkpt>
      <trkpt lat="43.68258" lon="3.83323">
        <ele>87</ele>
        <time>2020-09-26T10:27:31.000Z</time>
      </trkpt>
      <trkpt lat="43.6826" lon="3.83319">
        <ele>87</ele>
        <time>2020-09-26T10:27:32.000Z</time>
      </trkpt>
      <trkpt lat="43.68262" lon="3.83315">
        <ele>87</ele>
        <time>2020-09-26T10:27:33.000Z</time>
      </trkpt>
      <trkpt lat="43.68263" lon="3.83311">
        <ele>87</ele>
        <time>2020-09-26T10:27:34.000Z</time>
      </trkpt>
      <trkpt lat="43.68264" lon="3.83309">
        <ele>87</ele>
        <time>2020-09-26T10:27:35.000Z</time>
      </trkpt>
      <trkpt lat="43.68266" lon="3.83307">
        <ele>87</ele>
        <time>2020-09-26T10:27:38.000Z</time>
      </trkpt>
      <trkpt lat="43.6827" lon="3.8331">
        <ele>87</ele>
        <time>2020-09-26T10:27:40.000Z</time>
      </trkpt>
      <trkpt lat="43.68272" lon="3.83313">
        <ele>87</ele>
        <time>2020-09-26T10:27:41.000Z</time>
      </trkpt>
      <trkpt lat="43.68273" lon="3.83316">
        <ele>87</ele>
        <time>2020-09-26T10:27:42.000Z</time>
      </trkpt>
      <trkpt lat="43.68276" lon="3.8332">
        <ele>87.092411043006</ele>
        <time>2020-09-26T10:27:43.000Z</time>
      </trkpt>
      <trkpt lat="43.68278" lon="3.83325">
        <ele>87.189583374794</ele>
        <time>2020-09-26T10:27:44.000Z</time>
      </trkpt>
      <trkpt lat="43.6828" lon="3.83328">
        <ele>87.286755706581</ele>
        <time>2020-09-26T10:27:45.000Z</time>
      </trkpt>
      <trkpt lat="43.68282" lon="3.83331">
        <ele>87.383928038369</ele>
        <time>2020-09-26T10:27:46.000Z</time>
      </trkpt>
      <trkpt lat="43.68285" lon="3.83334">
        <ele>87.481100370157</ele>
        <time>2020-09-26T10:27:47.000Z</time>
      </trkpt>
      <trkpt lat="43.68288" lon="3.83337">
        <ele>87.578272701944</ele>
        <time>2020-09-26T10:27:48.000Z</time>
      </trkpt>
      <trkpt lat="43.6829" lon="3.83338">
        <ele>87.675445033732</ele>
        <time>2020-09-26T10:27:49.000Z</time>
      </trkpt>
      <trkpt lat="43.68292" lon="3.83338">
        <ele>87.77261736552</ele>
        <time>2020-09-26T10:27:50.000Z</time>
      </trkpt>
      <trkpt lat="43.68294" lon="3.83339">
        <ele>87.869789697307</ele>
        <time>2020-09-26T10:27:51.000Z</time>
      </trkpt>
      <trkpt lat="43.68296" lon="3.83341">
        <ele>87.966962029095</ele>
        <time>2020-09-26T10:27:52.000Z</time>
      </trkpt>
      <trkpt lat="43.68298" lon="3.83343">
        <ele>88.067978790164</ele>
        <time>2020-09-26T10:27:53.000Z</time>
      </trkpt>
      <trkpt lat="43.683" lon="3.83345">
        <ele>88.170975958319</ele>
        <time>2020-09-26T10:27:54.000Z</time>
      </trkpt>
      <trkpt lat="43.68301" lon="3.83346">
        <ele>88.273973126473</ele>
        <time>2020-09-26T10:27:55.000Z</time>
      </trkpt>
      <trkpt lat="43.68303" lon="3.83348">
        <ele>88.376970294628</ele>
        <time>2020-09-26T10:27:56.000Z</time>
      </trkpt>
      <trkpt lat="43.68305" lon="3.83348">
        <ele>88.479967462783</ele>
        <time>2020-09-26T10:27:57.000Z</time>
      </trkpt>
      <trkpt lat="43.68307" lon="3.83348">
        <ele>88.582964630937</ele>
        <time>2020-09-26T10:27:58.000Z</time>
      </trkpt>
      <trkpt lat="43.68311" lon="3.83345">
        <ele>88.788958967247</ele>
        <time>2020-09-26T10:28:00.000Z</time>
      </trkpt>
      <trkpt lat="43.68314" lon="3.83344">
        <ele>88.891956135401</ele>
        <time>2020-09-26T10:28:01.000Z</time>
      </trkpt>
      <trkpt lat="43.68316" lon="3.83343">
        <ele>88.994953303556</ele>
        <time>2020-09-26T10:28:02.000Z</time>
      </trkpt>
      <trkpt lat="43.68318" lon="3.83342">
        <ele>88.80489984</ele>
        <time>2020-09-26T10:28:04.000Z</time>
      </trkpt>
      <trkpt lat="43.6832" lon="3.83339">
        <ele>88.50489984</ele>
        <time>2020-09-26T10:28:07.000Z</time>
      </trkpt>
      <trkpt lat="43.68321" lon="3.83335">
        <ele>88.30489984</ele>
        <time>2020-09-26T10:28:09.000Z</time>
      </trkpt>
      <trkpt lat="43.68321" lon="3.83333">
        <ele>88.10489984</ele>
        <time>2020-09-26T10:28:11.000Z</time>
      </trkpt>
      <trkpt lat="43.6832" lon="3.83333">
        <ele>88</ele>
        <time>2020-09-26T10:28:15.000Z</time>
      </trkpt>
      <trkpt lat="43.6832" lon="3.83325">
        <ele>87.082061679389</ele>
        <time>2020-09-26T10:28:20.000Z</time>
      </trkpt>
      <trkpt lat="43.68321" lon="3.83323">
        <ele>86.941721293241</ele>
        <time>2020-09-26T10:28:21.000Z</time>
      </trkpt>
      <trkpt lat="43.68322" lon="3.83321">
        <ele>86.837652174029</ele>
        <time>2020-09-26T10:28:22.000Z</time>
      </trkpt>
      <trkpt lat="43.68324" lon="3.83318">
        <ele>86.629513935604</ele>
        <time>2020-09-26T10:28:24.000Z</time>
      </trkpt>
      <trkpt lat="43.68326" lon="3.83316">
        <ele>86.525444816392</ele>
        <time>2020-09-26T10:28:25.000Z</time>
      </trkpt>
      <trkpt lat="43.68327" lon="3.83314">
        <ele>86.42137569718</ele>
        <time>2020-09-26T10:28:26.000Z</time>
      </trkpt>
      <trkpt lat="43.68329" lon="3.83311">
        <ele>86.317306577968</ele>
        <time>2020-09-26T10:28:27.000Z</time>
      </trkpt>
      <trkpt lat="43.6833" lon="3.83307">
        <ele>86.213237458755</ele>
        <time>2020-09-26T10:28:28.000Z</time>
      </trkpt>
      <trkpt lat="43.68332" lon="3.83303">
        <ele>86.109168339543</ele>
        <time>2020-09-26T10:28:29.000Z</time>
      </trkpt>
      <trkpt lat="43.68333" lon="3.83299">
        <ele>86.005099220331</ele>
        <time>2020-09-26T10:28:30.000Z</time>
      </trkpt>
      <trkpt lat="43.68335" lon="3.83295">
        <ele>86.092411043006</ele>
        <time>2020-09-26T10:28:31.000Z</time>
      </trkpt>
      <trkpt lat="43.68337" lon="3.83291">
        <ele>86.189583374794</ele>
        <time>2020-09-26T10:28:32.000Z</time>
      </trkpt>
      <trkpt lat="43.68338" lon="3.83287">
        <ele>86.286755706581</ele>
        <time>2020-09-26T10:28:33.000Z</time>
      </trkpt>
      <trkpt lat="43.68339" lon="3.83282">
        <ele>86.383928038369</ele>
        <time>2020-09-26T10:28:34.000Z</time>
      </trkpt>
      <trkpt lat="43.68341" lon="3.83278">
        <ele>86.481100370157</ele>
        <time>2020-09-26T10:28:35.000Z</time>
      </trkpt>
      <trkpt lat="43.68342" lon="3.83274">
        <ele>86.578272701944</ele>
        <time>2020-09-26T10:28:36.000Z</time>
      </trkpt>
      <trkpt lat="43.68343" lon="3.83269">
        <ele>86.675445033732</ele>
        <time>2020-09-26T10:28:37.000Z</time>
      </trkpt>
      <trkpt lat="43.68344" lon="3.83265">
        <ele>86.77261736552</ele>
        <time>2020-09-26T10:28:38.000Z</time>
      </trkpt>
      <trkpt lat="43.68346" lon="3.83261">
        <ele>86.869789697307</ele>
        <time>2020-09-26T10:28:39.000Z</time>
      </trkpt>
      <trkpt lat="43.68347" lon="3.83257">
        <ele>86.966962029095</ele>
        <time>2020-09-26T10:28:40.000Z</time>
      </trkpt>
      <trkpt lat="43.68349" lon="3.83252">
        <ele>87</ele>
        <time>2020-09-26T10:28:41.000Z</time>
      </trkpt>
      <trkpt lat="43.6835" lon="3.83248">
        <ele>87</ele>
        <time>2020-09-26T10:28:42.000Z</time>
      </trkpt>
      <trkpt lat="43.68351" lon="3.83245">
        <ele>87</ele>
        <time>2020-09-26T10:28:43.000Z</time>
      </trkpt>
      <trkpt lat="43.68352" lon="3.83241">
        <ele>87</ele>
        <time>2020-09-26T10:28:44.000Z</time>
      </trkpt>
      <trkpt lat="43.68354" lon="3.83236">
        <ele>87</ele>
        <time>2020-09-26T10:28:45.000Z</time>
      </trkpt>
      <trkpt lat="43.68355" lon="3.83232">
        <ele>87</ele>
        <time>2020-09-26T10:28:46.000Z</time>
      </trkpt>
      <trkpt lat="43.68356" lon="3.83228">
        <ele>87</ele>
        <time>2020-09-26T10:28:47.000Z</time>
      </trkpt>
      <trkpt lat="43.68358" lon="3.83223">
        <ele>87</ele>
        <time>2020-09-26T10:28:48.000Z</time>
      </trkpt>
      <trkpt lat="43.68359" lon="3.83219">
        <ele>87</ele>
        <time>2020-09-26T10:28:49.000Z</time>
      </trkpt>
      <trkpt lat="43.6836" lon="3.83214">
        <ele>87</ele>
        <time>2020-09-26T10:28:50.000Z</time>
      </trkpt>
      <trkpt lat="43.68361" lon="3.8321">
        <ele>87</ele>
        <time>2020-09-26T10:28:51.000Z</time>
      </trkpt>
      <trkpt lat="43.68361" lon="3.83205">
        <ele>87</ele>
        <time>2020-09-26T10:28:52.000Z</time>
      </trkpt>
      <trkpt lat="43.68362" lon="3.83201">
        <ele>87</ele>
        <time>2020-09-26T10:28:53.000Z</time>
      </trkpt>
      <trkpt lat="43.68362" lon="3.83196">
        <ele>87</ele>
        <time>2020-09-26T10:28:54.000Z</time>
      </trkpt>
      <trkpt lat="43.68361" lon="3.83192">
        <ele>87</ele>
        <time>2020-09-26T10:28:55.000Z</time>
      </trkpt>
      <trkpt lat="43.6836" lon="3.83187">
        <ele>87</ele>
        <time>2020-09-26T10:28:56.000Z</time>
      </trkpt>
      <trkpt lat="43.68359" lon="3.83182">
        <ele>87</ele>
        <time>2020-09-26T10:28:57.000Z</time>
      </trkpt>
      <trkpt lat="43.68359" lon="3.83176">
        <ele>87</ele>
        <time>2020-09-26T10:28:58.000Z</time>
      </trkpt>
      <trkpt lat="43.68361" lon="3.83171">
        <ele>87</ele>
        <time>2020-09-26T10:28:59.000Z</time>
      </trkpt>
      <trkpt lat="43.68363" lon="3.83166">
        <ele>87</ele>
        <time>2020-09-26T10:29:00.000Z</time>
      </trkpt>
      <trkpt lat="43.68364" lon="3.83161">
        <ele>87.067978790164</ele>
        <time>2020-09-26T10:29:01.000Z</time>
      </trkpt>
      <trkpt lat="43.68366" lon="3.83155">
        <ele>87.170975958319</ele>
        <time>2020-09-26T10:29:02.000Z</time>
      </trkpt>
      <trkpt lat="43.68368" lon="3.8315">
        <ele>87.273973126473</ele>
        <time>2020-09-26T10:29:03.000Z</time>
      </trkpt>
      <trkpt lat="43.6837" lon="3.83145">
        <ele>87.376970294628</ele>
        <time>2020-09-26T10:29:04.000Z</time>
      </trkpt>
      <trkpt lat="43.68372" lon="3.8314">
        <ele>87.479967462783</ele>
        <time>2020-09-26T10:29:05.000Z</time>
      </trkpt>
      <trkpt lat="43.68375" lon="3.83136">
        <ele>87.582964630937</ele>
        <time>2020-09-26T10:29:06.000Z</time>
      </trkpt>
      <trkpt lat="43.68377" lon="3.83132">
        <ele>87.685961799092</ele>
        <time>2020-09-26T10:29:07.000Z</time>
      </trkpt>
      <trkpt lat="43.68379" lon="3.83129">
        <ele>87.788958967247</ele>
        <time>2020-09-26T10:29:08.000Z</time>
      </trkpt>
      <trkpt lat="43.68379" lon="3.83126">
        <ele>87.891956135401</ele>
        <time>2020-09-26T10:29:09.000Z</time>
      </trkpt>
      <trkpt lat="43.68378" lon="3.83124">
        <ele>87.994953303556</ele>
        <time>2020-09-26T10:29:10.000Z</time>
      </trkpt>
      <trkpt lat="43.68377" lon="3.8312">
        <ele>88.092690156606</ele>
        <time>2020-09-26T10:29:11.000Z</time>
      </trkpt>
      <trkpt lat="43.68377" lon="3.83116">
        <ele>88.190155982749</ele>
        <time>2020-09-26T10:29:12.000Z</time>
      </trkpt>
      <trkpt lat="43.68378" lon="3.83111">
        <ele>88.287621808891</ele>
        <time>2020-09-26T10:29:13.000Z</time>
      </trkpt>
      <trkpt lat="43.68379" lon="3.83107">
        <ele>88.385087635033</ele>
        <time>2020-09-26T10:29:14.000Z</time>
      </trkpt>
      <trkpt lat="43.6838" lon="3.83104">
        <ele>88.482553461175</ele>
        <time>2020-09-26T10:29:15.000Z</time>
      </trkpt>
      <trkpt lat="43.68382" lon="3.831">
        <ele>88.580019287317</ele>
        <time>2020-09-26T10:29:16.000Z</time>
      </trkpt>
      <trkpt lat="43.68384" lon="3.83097">
        <ele>88.67748511346</ele>
        <time>2020-09-26T10:29:17.000Z</time>
      </trkpt>
      <trkpt lat="43.68385" lon="3.83094">
        <ele>88.774950939602</ele>
        <time>2020-09-26T10:29:18.000Z</time>
      </trkpt>
      <trkpt lat="43.68388" lon="3.83091">
        <ele>88.872416765744</ele>
        <time>2020-09-26T10:29:19.000Z</time>
      </trkpt>
      <trkpt lat="43.6839" lon="3.83087">
        <ele>88.969882591886</ele>
        <time>2020-09-26T10:29:20.000Z</time>
      </trkpt>
      <trkpt lat="43.68392" lon="3.83084">
        <ele>89.141888224649</ele>
        <time>2020-09-26T10:29:21.000Z</time>
      </trkpt>
      <trkpt lat="43.68393" lon="3.83081">
        <ele>89.347227168609</ele>
        <time>2020-09-26T10:29:22.000Z</time>
      </trkpt>
      <trkpt lat="43.68394" lon="3.83077">
        <ele>89.552566112569</ele>
        <time>2020-09-26T10:29:23.000Z</time>
      </trkpt>
      <trkpt lat="43.68396" lon="3.83074">
        <ele>89.757905056529</ele>
        <time>2020-09-26T10:29:24.000Z</time>
      </trkpt>
      <trkpt lat="43.68398" lon="3.83071">
        <ele>89.963244000489</ele>
        <time>2020-09-26T10:29:25.000Z</time>
      </trkpt>
      <trkpt lat="43.684" lon="3.83069">
        <ele>90.168582944449</ele>
        <time>2020-09-26T10:29:26.000Z</time>
      </trkpt>
      <trkpt lat="43.68401" lon="3.83066">
        <ele>90.373921888409</ele>
        <time>2020-09-26T10:29:27.000Z</time>
      </trkpt>
      <trkpt lat="43.68403" lon="3.83063">
        <ele>90.579260832369</ele>
        <time>2020-09-26T10:29:28.000Z</time>
      </trkpt>
      <trkpt lat="43.68404" lon="3.83061">
        <ele>90.784599776328</ele>
        <time>2020-09-26T10:29:29.000Z</time>
      </trkpt>
      <trkpt lat="43.68405" lon="3.83058">
        <ele>90.989938720288</ele>
        <time>2020-09-26T10:29:30.000Z</time>
      </trkpt>
      <trkpt lat="43.68406" lon="3.83055">
        <ele>91.09510016</ele>
        <time>2020-09-26T10:29:31.000Z</time>
      </trkpt>
      <trkpt lat="43.68407" lon="3.83053">
        <ele>91.19510016</ele>
        <time>2020-09-26T10:29:32.000Z</time>
      </trkpt>
      <trkpt lat="43.68408" lon="3.8305">
        <ele>91.29510016</ele>
        <time>2020-09-26T10:29:33.000Z</time>
      </trkpt>
      <trkpt lat="43.68411" lon="3.83048">
        <ele>91.39510016</ele>
        <time>2020-09-26T10:29:34.000Z</time>
      </trkpt>
      <trkpt lat="43.68413" lon="3.83047">
        <ele>91.49510016</ele>
        <time>2020-09-26T10:29:35.000Z</time>
      </trkpt>
      <trkpt lat="43.68413" lon="3.83044">
        <ele>91.59510016</ele>
        <time>2020-09-26T10:29:36.000Z</time>
      </trkpt>
      <trkpt lat="43.68413" lon="3.83041">
        <ele>91.69510016</ele>
        <time>2020-09-26T10:29:37.000Z</time>
      </trkpt>
      <trkpt lat="43.68411" lon="3.83037">
        <ele>91.79510016</ele>
        <time>2020-09-26T10:29:38.000Z</time>
      </trkpt>
      <trkpt lat="43.6841" lon="3.83033">
        <ele>91.89510016</ele>
        <time>2020-09-26T10:29:39.000Z</time>
      </trkpt>
      <trkpt lat="43.6841" lon="3.83029">
        <ele>91.99510016</ele>
        <time>2020-09-26T10:29:40.000Z</time>
      </trkpt>
      <trkpt lat="43.68409" lon="3.83025">
        <ele>92.09510016</ele>
        <time>2020-09-26T10:29:41.000Z</time>
      </trkpt>
      <trkpt lat="43.68408" lon="3.83021">
        <ele>92.19510016</ele>
        <time>2020-09-26T10:29:42.000Z</time>
      </trkpt>
      <trkpt lat="43.68406" lon="3.83017">
        <ele>92.29510016</ele>
        <time>2020-09-26T10:29:43.000Z</time>
      </trkpt>
      <trkpt lat="43.68405" lon="3.83013">
        <ele>92.39510016</ele>
        <time>2020-09-26T10:29:44.000Z</time>
      </trkpt>
      <trkpt lat="43.68404" lon="3.83008">
        <ele>92.49510016</ele>
        <time>2020-09-26T10:29:45.000Z</time>
      </trkpt>
      <trkpt lat="43.68405" lon="3.83005">
        <ele>92.59510016</ele>
        <time>2020-09-26T10:29:46.000Z</time>
      </trkpt>
      <trkpt lat="43.68407" lon="3.83001">
        <ele>92.69510016</ele>
        <time>2020-09-26T10:29:47.000Z</time>
      </trkpt>
      <trkpt lat="43.68411" lon="3.82997">
        <ele>92.79510016</ele>
        <time>2020-09-26T10:29:48.000Z</time>
      </trkpt>
      <trkpt lat="43.68414" lon="3.82993">
        <ele>92.89510016</ele>
        <time>2020-09-26T10:29:49.000Z</time>
      </trkpt>
      <trkpt lat="43.68416" lon="3.82988">
        <ele>92.99510016</ele>
        <time>2020-09-26T10:29:50.000Z</time>
      </trkpt>
      <trkpt lat="43.68419" lon="3.82985">
        <ele>93</ele>
        <time>2020-09-26T10:29:51.000Z</time>
      </trkpt>
      <trkpt lat="43.68422" lon="3.82981">
        <ele>93</ele>
        <time>2020-09-26T10:29:52.000Z</time>
      </trkpt>
      <trkpt lat="43.68425" lon="3.82977">
        <ele>93</ele>
        <time>2020-09-26T10:29:53.000Z</time>
      </trkpt>
      <trkpt lat="43.68427" lon="3.82972">
        <ele>93</ele>
        <time>2020-09-26T10:29:54.000Z</time>
      </trkpt>
      <trkpt lat="43.68429" lon="3.82968">
        <ele>93</ele>
        <time>2020-09-26T10:29:55.000Z</time>
      </trkpt>
      <trkpt lat="43.6843" lon="3.82963">
        <ele>93</ele>
        <time>2020-09-26T10:29:56.000Z</time>
      </trkpt>
      <trkpt lat="43.68432" lon="3.82959">
        <ele>93</ele>
        <time>2020-09-26T10:29:57.000Z</time>
      </trkpt>
      <trkpt lat="43.68435" lon="3.82956">
        <ele>93</ele>
        <time>2020-09-26T10:29:58.000Z</time>
      </trkpt>
      <trkpt lat="43.68438" lon="3.82953">
        <ele>93</ele>
        <time>2020-09-26T10:29:59.000Z</time>
      </trkpt>
      <trkpt lat="43.68441" lon="3.8295">
        <ele>93</ele>
        <time>2020-09-26T10:30:00.000Z</time>
      </trkpt>
      <trkpt lat="43.68443" lon="3.82945">
        <ele>93</ele>
        <time>2020-09-26T10:30:01.000Z</time>
      </trkpt>
      <trkpt lat="43.68446" lon="3.82941">
        <ele>93</ele>
        <time>2020-09-26T10:30:02.000Z</time>
      </trkpt>
      <trkpt lat="43.68449" lon="3.82938">
        <ele>93</ele>
        <time>2020-09-26T10:30:03.000Z</time>
      </trkpt>
      <trkpt lat="43.68452" lon="3.82936">
        <ele>93</ele>
        <time>2020-09-26T10:30:04.000Z</time>
      </trkpt>
      <trkpt lat="43.68456" lon="3.82934">
        <ele>93</ele>
        <time>2020-09-26T10:30:05.000Z</time>
      </trkpt>
      <trkpt lat="43.68459" lon="3.82933">
        <ele>93</ele>
        <time>2020-09-26T10:30:06.000Z</time>
      </trkpt>
      <trkpt lat="43.68462" lon="3.82933">
        <ele>93</ele>
        <time>2020-09-26T10:30:07.000Z</time>
      </trkpt>
      <trkpt lat="43.68465" lon="3.82931">
        <ele>93</ele>
        <time>2020-09-26T10:30:08.000Z</time>
      </trkpt>
      <trkpt lat="43.68468" lon="3.82929">
        <ele>93</ele>
        <time>2020-09-26T10:30:09.000Z</time>
      </trkpt>
      <trkpt lat="43.68472" lon="3.82928">
        <ele>93</ele>
        <time>2020-09-26T10:30:10.000Z</time>
      </trkpt>
      <trkpt lat="43.68475" lon="3.82929">
        <ele>93.09510016</ele>
        <time>2020-09-26T10:30:11.000Z</time>
      </trkpt>
      <trkpt lat="43.68477" lon="3.82929">
        <ele>93.19510016</ele>
        <time>2020-09-26T10:30:12.000Z</time>
      </trkpt>
      <trkpt lat="43.68479" lon="3.82929">
        <ele>93.29510016</ele>
        <time>2020-09-26T10:30:13.000Z</time>
      </trkpt>
      <trkpt lat="43.68482" lon="3.82928">
        <ele>93.39510016</ele>
        <time>2020-09-26T10:30:14.000Z</time>
      </trkpt>
      <trkpt lat="43.68484" lon="3.82926">
        <ele>93.49510016</ele>
        <time>2020-09-26T10:30:15.000Z</time>
      </trkpt>
      <trkpt lat="43.68487" lon="3.82925">
        <ele>93.59510016</ele>
        <time>2020-09-26T10:30:16.000Z</time>
      </trkpt>
      <trkpt lat="43.6849" lon="3.82924">
        <ele>93.69510016</ele>
        <time>2020-09-26T10:30:17.000Z</time>
      </trkpt>
      <trkpt lat="43.68492" lon="3.82923">
        <ele>93.79510016</ele>
        <time>2020-09-26T10:30:18.000Z</time>
      </trkpt>
      <trkpt lat="43.68495" lon="3.82922">
        <ele>93.89510016</ele>
        <time>2020-09-26T10:30:19.000Z</time>
      </trkpt>
      <trkpt lat="43.68497" lon="3.8292">
        <ele>93.99510016</ele>
        <time>2020-09-26T10:30:20.000Z</time>
      </trkpt>
      <trkpt lat="43.68501" lon="3.82917">
        <ele>94.09510016</ele>
        <time>2020-09-26T10:30:21.000Z</time>
      </trkpt>
      <trkpt lat="43.68503" lon="3.82915">
        <ele>94.19510016</ele>
        <time>2020-09-26T10:30:22.000Z</time>
      </trkpt>
      <trkpt lat="43.68506" lon="3.82914">
        <ele>94.29510016</ele>
        <time>2020-09-26T10:30:23.000Z</time>
      </trkpt>
      <trkpt lat="43.68509" lon="3.82914">
        <ele>94.39510016</ele>
        <time>2020-09-26T10:30:24.000Z</time>
      </trkpt>
      <trkpt lat="43.68512" lon="3.82913">
        <ele>94.49510016</ele>
        <time>2020-09-26T10:30:25.000Z</time>
      </trkpt>
      <trkpt lat="43.68515" lon="3.82913">
        <ele>94.59510016</ele>
        <time>2020-09-26T10:30:26.000Z</time>
      </trkpt>
      <trkpt lat="43.68518" lon="3.82911">
        <ele>94.69510016</ele>
        <time>2020-09-26T10:30:27.000Z</time>
      </trkpt>
      <trkpt lat="43.6852" lon="3.82909">
        <ele>94.79510016</ele>
        <time>2020-09-26T10:30:28.000Z</time>
      </trkpt>
      <trkpt lat="43.68524" lon="3.82907">
        <ele>94.89510016</ele>
        <time>2020-09-26T10:30:29.000Z</time>
      </trkpt>
      <trkpt lat="43.68527" lon="3.82905">
        <ele>94.99510016</ele>
        <time>2020-09-26T10:30:30.000Z</time>
      </trkpt>
      <trkpt lat="43.6853" lon="3.82903">
        <ele>95.09510016</ele>
        <time>2020-09-26T10:30:31.000Z</time>
      </trkpt>
      <trkpt lat="43.68533" lon="3.82901">
        <ele>95.19510016</ele>
        <time>2020-09-26T10:30:32.000Z</time>
      </trkpt>
      <trkpt lat="43.68536" lon="3.82899">
        <ele>95.29510016</ele>
        <time>2020-09-26T10:30:33.000Z</time>
      </trkpt>
      <trkpt lat="43.68539" lon="3.82897">
        <ele>95.39510016</ele>
        <time>2020-09-26T10:30:34.000Z</time>
      </trkpt>
      <trkpt lat="43.68542" lon="3.82894">
        <ele>95.49510016</ele>
        <time>2020-09-26T10:30:35.000Z</time>
      </trkpt>
      <trkpt lat="43.68545" lon="3.82892">
        <ele>95.59510016</ele>
        <time>2020-09-26T10:30:36.000Z</time>
      </trkpt>
      <trkpt lat="43.68548" lon="3.82889">
        <ele>95.69510016</ele>
        <time>2020-09-26T10:30:37.000Z</time>
      </trkpt>
      <trkpt lat="43.68551" lon="3.82886">
        <ele>95.79510016</ele>
        <time>2020-09-26T10:30:38.000Z</time>
      </trkpt>
      <trkpt lat="43.68554" lon="3.82884">
        <ele>95.89510016</ele>
        <time>2020-09-26T10:30:39.000Z</time>
      </trkpt>
      <trkpt lat="43.68557" lon="3.82882">
        <ele>95.99510016</ele>
        <time>2020-09-26T10:30:40.000Z</time>
      </trkpt>
      <trkpt lat="43.68559" lon="3.82881">
        <ele>96</ele>
        <time>2020-09-26T10:30:41.000Z</time>
      </trkpt>
      <trkpt lat="43.68561" lon="3.82881">
        <ele>96</ele>
        <time>2020-09-26T10:30:42.000Z</time>
      </trkpt>
      <trkpt lat="43.68559" lon="3.82878">
        <ele>96</ele>
        <time>2020-09-26T10:30:49.000Z</time>
      </trkpt>
      <trkpt lat="43.6856" lon="3.82874">
        <ele>96</ele>
        <time>2020-09-26T10:30:51.000Z</time>
      </trkpt>
      <trkpt lat="43.6856" lon="3.8287">
        <ele>96</ele>
        <time>2020-09-26T10:30:52.000Z</time>
      </trkpt>
      <trkpt lat="43.68561" lon="3.82867">
        <ele>96</ele>
        <time>2020-09-26T10:30:53.000Z</time>
      </trkpt>
      <trkpt lat="43.68563" lon="3.82864">
        <ele>96</ele>
        <time>2020-09-26T10:30:54.000Z</time>
      </trkpt>
      <trkpt lat="43.68566" lon="3.8286">
        <ele>96</ele>
        <time>2020-09-26T10:30:55.000Z</time>
      </trkpt>
      <trkpt lat="43.68568" lon="3.82856">
        <ele>96</ele>
        <time>2020-09-26T10:30:56.000Z</time>
      </trkpt>
      <trkpt lat="43.68571" lon="3.82852">
        <ele>96</ele>
        <time>2020-09-26T10:30:57.000Z</time>
      </trkpt>
      <trkpt lat="43.68574" lon="3.8285">
        <ele>96</ele>
        <time>2020-09-26T10:30:58.000Z</time>
      </trkpt>
      <trkpt lat="43.68578" lon="3.82849">
        <ele>96</ele>
        <time>2020-09-26T10:30:59.000Z</time>
      </trkpt>
      <trkpt lat="43.6858" lon="3.82848">
        <ele>96</ele>
        <time>2020-09-26T10:31:00.000Z</time>
      </trkpt>
      <trkpt lat="43.68582" lon="3.82846">
        <ele>95.90499968</ele>
        <time>2020-09-26T10:31:01.000Z</time>
      </trkpt>
      <trkpt lat="43.68583" lon="3.82842">
        <ele>95.70499968</ele>
        <time>2020-09-26T10:31:03.000Z</time>
      </trkpt>
      <trkpt lat="43.68582" lon="3.82839">
        <ele>95.50499968</ele>
        <time>2020-09-26T10:31:05.000Z</time>
      </trkpt>
      <trkpt lat="43.68579" lon="3.82836">
        <ele>95.30499968</ele>
        <time>2020-09-26T10:31:07.000Z</time>
      </trkpt>
      <trkpt lat="43.68578" lon="3.82833">
        <ele>95.10499968</ele>
        <time>2020-09-26T10:31:09.000Z</time>
      </trkpt>
      <trkpt lat="43.68578" lon="3.82833">
        <ele>95</ele>
        <time>2020-09-26T10:31:13.000Z</time>
      </trkpt>
      <trkpt lat="43.68582" lon="3.82824">
        <ele>95</ele>
        <time>2020-09-26T10:31:28.000Z</time>
      </trkpt>
      <trkpt lat="43.68583" lon="3.82819">
        <ele>95.050367278193</ele>
        <time>2020-09-26T10:31:29.000Z</time>
      </trkpt>
      <trkpt lat="43.68585" lon="3.82814">
        <ele>95.15529910776</ele>
        <time>2020-09-26T10:31:30.000Z</time>
      </trkpt>
      <trkpt lat="43.68586" lon="3.82808">
        <ele>95.260230937328</ele>
        <time>2020-09-26T10:31:31.000Z</time>
      </trkpt>
      <trkpt lat="43.68587" lon="3.82802">
        <ele>95.365162766896</ele>
        <time>2020-09-26T10:31:32.000Z</time>
      </trkpt>
      <trkpt lat="43.68588" lon="3.82795">
        <ele>95.470094596464</ele>
        <time>2020-09-26T10:31:33.000Z</time>
      </trkpt>
      <trkpt lat="43.68589" lon="3.82789">
        <ele>95.575026426032</ele>
        <time>2020-09-26T10:31:34.000Z</time>
      </trkpt>
      <trkpt lat="43.6859" lon="3.82782">
        <ele>95.6799582556</ele>
        <time>2020-09-26T10:31:35.000Z</time>
      </trkpt>
      <trkpt lat="43.68591" lon="3.82775">
        <ele>95.784890085168</ele>
        <time>2020-09-26T10:31:36.000Z</time>
      </trkpt>
      <trkpt lat="43.68591" lon="3.82768">
        <ele>95.889821914736</ele>
        <time>2020-09-26T10:31:37.000Z</time>
      </trkpt>
      <trkpt lat="43.68591" lon="3.82763">
        <ele>95.994753744303</ele>
        <time>2020-09-26T10:31:38.000Z</time>
      </trkpt>
      <trkpt lat="43.68591" lon="3.82757">
        <ele>96</ele>
        <time>2020-09-26T10:31:39.000Z</time>
      </trkpt>
      <trkpt lat="43.68589" lon="3.82752">
        <ele>96</ele>
        <time>2020-09-26T10:31:40.000Z</time>
      </trkpt>
      <trkpt lat="43.68587" lon="3.82749">
        <ele>96</ele>
        <time>2020-09-26T10:31:41.000Z</time>
      </trkpt>
      <trkpt lat="43.68585" lon="3.82746">
        <ele>96</ele>
        <time>2020-09-26T10:31:42.000Z</time>
      </trkpt>
      <trkpt lat="43.68583" lon="3.82743">
        <ele>96</ele>
        <time>2020-09-26T10:31:43.000Z</time>
      </trkpt>
      <trkpt lat="43.6858" lon="3.82741">
        <ele>96</ele>
        <time>2020-09-26T10:31:44.000Z</time>
      </trkpt>
      <trkpt lat="43.68578" lon="3.82737">
        <ele>96</ele>
        <time>2020-09-26T10:31:45.000Z</time>
      </trkpt>
      <trkpt lat="43.68576" lon="3.82733">
        <ele>96</ele>
        <time>2020-09-26T10:31:46.000Z</time>
      </trkpt>
      <trkpt lat="43.68575" lon="3.82729">
        <ele>96</ele>
        <time>2020-09-26T10:31:47.000Z</time>
      </trkpt>
      <trkpt lat="43.68574" lon="3.82724">
        <ele>96</ele>
        <time>2020-09-26T10:31:48.000Z</time>
      </trkpt>
      <trkpt lat="43.68573" lon="3.8272">
        <ele>96.06783203996</ele>
        <time>2020-09-26T10:31:49.000Z</time>
      </trkpt>
      <trkpt lat="43.68573" lon="3.82716">
        <ele>96.170606861477</ele>
        <time>2020-09-26T10:31:50.000Z</time>
      </trkpt>
      <trkpt lat="43.68573" lon="3.82712">
        <ele>96.273381682994</ele>
        <time>2020-09-26T10:31:51.000Z</time>
      </trkpt>
      <trkpt lat="43.68573" lon="3.82709">
        <ele>96.376156504512</ele>
        <time>2020-09-26T10:31:52.000Z</time>
      </trkpt>
      <trkpt lat="43.68575" lon="3.82706">
        <ele>96.78725579058</ele>
        <time>2020-09-26T10:31:56.000Z</time>
      </trkpt>
      <trkpt lat="43.68577" lon="3.82706">
        <ele>96.890030612097</ele>
        <time>2020-09-26T10:31:57.000Z</time>
      </trkpt>
      <trkpt lat="43.6858" lon="3.82705">
        <ele>96.992805433614</ele>
        <time>2020-09-26T10:31:58.000Z</time>
      </trkpt>
      <trkpt lat="43.68583" lon="3.82705">
        <ele>97</ele>
        <time>2020-09-26T10:31:59.000Z</time>
      </trkpt>
      <trkpt lat="43.68585" lon="3.82704">
        <ele>97</ele>
        <time>2020-09-26T10:32:00.000Z</time>
      </trkpt>
      <trkpt lat="43.68588" lon="3.82703">
        <ele>97</ele>
        <time>2020-09-26T10:32:01.000Z</time>
      </trkpt>
      <trkpt lat="43.68591" lon="3.82701">
        <ele>97</ele>
        <time>2020-09-26T10:32:02.000Z</time>
      </trkpt>
      <trkpt lat="43.68593" lon="3.82699">
        <ele>97</ele>
        <time>2020-09-26T10:32:03.000Z</time>
      </trkpt>
      <trkpt lat="43.68596" lon="3.82697">
        <ele>97</ele>
        <time>2020-09-26T10:32:04.000Z</time>
      </trkpt>
      <trkpt lat="43.68598" lon="3.82694">
        <ele>97</ele>
        <time>2020-09-26T10:32:05.000Z</time>
      </trkpt>
      <trkpt lat="43.68601" lon="3.82691">
        <ele>97</ele>
        <time>2020-09-26T10:32:06.000Z</time>
      </trkpt>
      <trkpt lat="43.68603" lon="3.82687">
        <ele>97</ele>
        <time>2020-09-26T10:32:07.000Z</time>
      </trkpt>
      <trkpt lat="43.68606" lon="3.82683">
        <ele>97</ele>
        <time>2020-09-26T10:32:08.000Z</time>
      </trkpt>
      <trkpt lat="43.68608" lon="3.8268">
        <ele>97.09500032</ele>
        <time>2020-09-26T10:32:09.000Z</time>
      </trkpt>
      <trkpt lat="43.68611" lon="3.82676">
        <ele>97.19500032</ele>
        <time>2020-09-26T10:32:10.000Z</time>
      </trkpt>
      <trkpt lat="43.68614" lon="3.82672">
        <ele>97.29500032</ele>
        <time>2020-09-26T10:32:11.000Z</time>
      </trkpt>
      <trkpt lat="43.68616" lon="3.82669">
        <ele>97.39500032</ele>
        <time>2020-09-26T10:32:12.000Z</time>
      </trkpt>
      <trkpt lat="43.68619" lon="3.82666">
        <ele>97.49500032</ele>
        <time>2020-09-26T10:32:13.000Z</time>
      </trkpt>
      <trkpt lat="43.68622" lon="3.82664">
        <ele>97.59500032</ele>
        <time>2020-09-26T10:32:14.000Z</time>
      </trkpt>
      <trkpt lat="43.68624" lon="3.82662">
        <ele>97.69500032</ele>
        <time>2020-09-26T10:32:15.000Z</time>
      </trkpt>
      <trkpt lat="43.68627" lon="3.82659">
        <ele>97.79500032</ele>
        <time>2020-09-26T10:32:16.000Z</time>
      </trkpt>
      <trkpt lat="43.68629" lon="3.82657">
        <ele>97.89500032</ele>
        <time>2020-09-26T10:32:17.000Z</time>
      </trkpt>
      <trkpt lat="43.68632" lon="3.82654">
        <ele>97.99500032</ele>
        <time>2020-09-26T10:32:18.000Z</time>
      </trkpt>
      <trkpt lat="43.68634" lon="3.82652">
        <ele>98.09500032</ele>
        <time>2020-09-26T10:32:19.000Z</time>
      </trkpt>
      <trkpt lat="43.68637" lon="3.82649">
        <ele>98.19500032</ele>
        <time>2020-09-26T10:32:20.000Z</time>
      </trkpt>
      <trkpt lat="43.68639" lon="3.82647">
        <ele>98.29500032</ele>
        <time>2020-09-26T10:32:21.000Z</time>
      </trkpt>
      <trkpt lat="43.68642" lon="3.82645">
        <ele>98.39500032</ele>
        <time>2020-09-26T10:32:22.000Z</time>
      </trkpt>
      <trkpt lat="43.68644" lon="3.82643">
        <ele>98.49500032</ele>
        <time>2020-09-26T10:32:23.000Z</time>
      </trkpt>
      <trkpt lat="43.68647" lon="3.8264">
        <ele>98.59500032</ele>
        <time>2020-09-26T10:32:24.000Z</time>
      </trkpt>
      <trkpt lat="43.68649" lon="3.82638">
        <ele>98.69500032</ele>
        <time>2020-09-26T10:32:25.000Z</time>
      </trkpt>
      <trkpt lat="43.68651" lon="3.82635">
        <ele>98.79500032</ele>
        <time>2020-09-26T10:32:26.000Z</time>
      </trkpt>
      <trkpt lat="43.68653" lon="3.82632">
        <ele>98.89500032</ele>
        <time>2020-09-26T10:32:27.000Z</time>
      </trkpt>
      <trkpt lat="43.68655" lon="3.8263">
        <ele>98.99500032</ele>
        <time>2020-09-26T10:32:28.000Z</time>
      </trkpt>
      <trkpt lat="43.68656" lon="3.82628">
        <ele>98.906403655124</ele>
        <time>2020-09-26T10:32:29.000Z</time>
      </trkpt>
      <trkpt lat="43.68658" lon="3.82625">
        <ele>98.807881518697</ele>
        <time>2020-09-26T10:32:30.000Z</time>
      </trkpt>
      <trkpt lat="43.6866" lon="3.82622">
        <ele>98.709359382271</ele>
        <time>2020-09-26T10:32:31.000Z</time>
      </trkpt>
      <trkpt lat="43.68662" lon="3.82618">
        <ele>98.610837245844</ele>
        <time>2020-09-26T10:32:32.000Z</time>
      </trkpt>
      <trkpt lat="43.68665" lon="3.82615">
        <ele>98.512315109418</ele>
        <time>2020-09-26T10:32:33.000Z</time>
      </trkpt>
      <trkpt lat="43.68668" lon="3.82611">
        <ele>98.413792972991</ele>
        <time>2020-09-26T10:32:34.000Z</time>
      </trkpt>
      <trkpt lat="43.68671" lon="3.82608">
        <ele>98.315270836565</ele>
        <time>2020-09-26T10:32:35.000Z</time>
      </trkpt>
      <trkpt lat="43.68674" lon="3.82604">
        <ele>98.216748700138</ele>
        <time>2020-09-26T10:32:36.000Z</time>
      </trkpt>
      <trkpt lat="43.68677" lon="3.826">
        <ele>98.118226563712</ele>
        <time>2020-09-26T10:32:37.000Z</time>
      </trkpt>
      <trkpt lat="43.68681" lon="3.82596">
        <ele>98.019704427285</ele>
        <time>2020-09-26T10:32:38.000Z</time>
      </trkpt>
      <trkpt lat="43.68685" lon="3.82592">
        <ele>98.081218300497</ele>
        <time>2020-09-26T10:32:39.000Z</time>
      </trkpt>
      <trkpt lat="43.68689" lon="3.82588">
        <ele>98.182741176119</ele>
        <time>2020-09-26T10:32:40.000Z</time>
      </trkpt>
      <trkpt lat="43.68693" lon="3.82584">
        <ele>98.284264051741</ele>
        <time>2020-09-26T10:32:41.000Z</time>
      </trkpt>
      <trkpt lat="43.68697" lon="3.8258">
        <ele>98.385786927362</ele>
        <time>2020-09-26T10:32:42.000Z</time>
      </trkpt>
      <trkpt lat="43.68701" lon="3.82576">
        <ele>98.487309802984</ele>
        <time>2020-09-26T10:32:43.000Z</time>
      </trkpt>
      <trkpt lat="43.68704" lon="3.82571">
        <ele>98.588832678605</ele>
        <time>2020-09-26T10:32:44.000Z</time>
      </trkpt>
      <trkpt lat="43.68708" lon="3.82566">
        <ele>98.690355554227</ele>
        <time>2020-09-26T10:32:45.000Z</time>
      </trkpt>
      <trkpt lat="43.68712" lon="3.82561">
        <ele>98.791878429849</ele>
        <time>2020-09-26T10:32:46.000Z</time>
      </trkpt>
      <trkpt lat="43.68716" lon="3.82557">
        <ele>98.893401305471</ele>
        <time>2020-09-26T10:32:47.000Z</time>
      </trkpt>
      <trkpt lat="43.68719" lon="3.82552">
        <ele>98.994924181092</ele>
        <time>2020-09-26T10:32:48.000Z</time>
      </trkpt>
      <trkpt lat="43.68723" lon="3.82548">
        <ele>99.09500032</ele>
        <time>2020-09-26T10:32:49.000Z</time>
      </trkpt>
      <trkpt lat="43.68727" lon="3.82543">
        <ele>99.19500032</ele>
        <time>2020-09-26T10:32:50.000Z</time>
      </trkpt>
      <trkpt lat="43.6873" lon="3.82539">
        <ele>99.29500032</ele>
        <time>2020-09-26T10:32:51.000Z</time>
      </trkpt>
      <trkpt lat="43.68734" lon="3.82536">
        <ele>99.39500032</ele>
        <time>2020-09-26T10:32:52.000Z</time>
      </trkpt>
      <trkpt lat="43.68737" lon="3.82533">
        <ele>99.49500032</ele>
        <time>2020-09-26T10:32:53.000Z</time>
      </trkpt>
      <trkpt lat="43.68741" lon="3.8253">
        <ele>99.59500032</ele>
        <time>2020-09-26T10:32:54.000Z</time>
      </trkpt>
      <trkpt lat="43.68744" lon="3.82528">
        <ele>99.69500032</ele>
        <time>2020-09-26T10:32:55.000Z</time>
      </trkpt>
      <trkpt lat="43.68747" lon="3.82525">
        <ele>99.79500032</ele>
        <time>2020-09-26T10:32:56.000Z</time>
      </trkpt>
      <trkpt lat="43.68749" lon="3.82522">
        <ele>99.89500032</ele>
        <time>2020-09-26T10:32:57.000Z</time>
      </trkpt>
      <trkpt lat="43.68752" lon="3.82518">
        <ele>99.99500032</ele>
        <time>2020-09-26T10:32:58.000Z</time>
      </trkpt>
      <trkpt lat="43.68755" lon="3.82516">
        <ele>100</ele>
        <time>2020-09-26T10:32:59.000Z</time>
      </trkpt>
      <trkpt lat="43.68758" lon="3.82513">
        <ele>100</ele>
        <time>2020-09-26T10:33:00.000Z</time>
      </trkpt>
      <trkpt lat="43.6876" lon="3.8251">
        <ele>100</ele>
        <time>2020-09-26T10:33:01.000Z</time>
      </trkpt>
      <trkpt lat="43.68762" lon="3.82507">
        <ele>100</ele>
        <time>2020-09-26T10:33:02.000Z</time>
      </trkpt>
      <trkpt lat="43.68764" lon="3.82503">
        <ele>100</ele>
        <time>2020-09-26T10:33:03.000Z</time>
      </trkpt>
      <trkpt lat="43.68766" lon="3.825">
        <ele>100</ele>
        <time>2020-09-26T10:33:04.000Z</time>
      </trkpt>
      <trkpt lat="43.68768" lon="3.82496">
        <ele>100</ele>
        <time>2020-09-26T10:33:05.000Z</time>
      </trkpt>
      <trkpt lat="43.6877" lon="3.82492">
        <ele>100</ele>
        <time>2020-09-26T10:33:06.000Z</time>
      </trkpt>
      <trkpt lat="43.68771" lon="3.82487">
        <ele>100</ele>
        <time>2020-09-26T10:33:07.000Z</time>
      </trkpt>
      <trkpt lat="43.68771" lon="3.82483">
        <ele>100</ele>
        <time>2020-09-26T10:33:08.000Z</time>
      </trkpt>
      <trkpt lat="43.68772" lon="3.82478">
        <ele>99.912022862319</ele>
        <time>2020-09-26T10:33:09.000Z</time>
      </trkpt>
      <trkpt lat="43.68772" lon="3.82474">
        <ele>99.814271182242</ele>
        <time>2020-09-26T10:33:10.000Z</time>
      </trkpt>
      <trkpt lat="43.68774" lon="3.8247">
        <ele>99.716519502164</ele>
        <time>2020-09-26T10:33:11.000Z</time>
      </trkpt>
      <trkpt lat="43.68777" lon="3.82467">
        <ele>99.618767822086</ele>
        <time>2020-09-26T10:33:12.000Z</time>
      </trkpt>
      <trkpt lat="43.6878" lon="3.82464">
        <ele>99.521016142009</ele>
        <time>2020-09-26T10:33:13.000Z</time>
      </trkpt>
      <trkpt lat="43.68783" lon="3.82463">
        <ele>99.423264461931</ele>
        <time>2020-09-26T10:33:14.000Z</time>
      </trkpt>
      <trkpt lat="43.68785" lon="3.82461">
        <ele>99.325512781853</ele>
        <time>2020-09-26T10:33:15.000Z</time>
      </trkpt>
      <trkpt lat="43.68787" lon="3.82459">
        <ele>99.227761101776</ele>
        <time>2020-09-26T10:33:16.000Z</time>
      </trkpt>
      <trkpt lat="43.68789" lon="3.82456">
        <ele>99.03225774162</ele>
        <time>2020-09-26T10:33:18.000Z</time>
      </trkpt>
      <trkpt lat="43.6879" lon="3.82452">
        <ele>99</ele>
        <time>2020-09-26T10:33:20.000Z</time>
      </trkpt>
      <trkpt lat="43.6879" lon="3.82449">
        <ele>99</ele>
        <time>2020-09-26T10:33:22.000Z</time>
      </trkpt>
      <trkpt lat="43.68791" lon="3.82452">
        <ele>99</ele>
        <time>2020-09-26T10:33:26.000Z</time>
      </trkpt>
      <trkpt lat="43.68793" lon="3.82456">
        <ele>99</ele>
        <time>2020-09-26T10:33:28.000Z</time>
      </trkpt>
      <trkpt lat="43.68794" lon="3.82458">
        <ele>99</ele>
        <time>2020-09-26T10:33:29.000Z</time>
      </trkpt>
      <trkpt lat="43.68796" lon="3.82459">
        <ele>99</ele>
        <time>2020-09-26T10:33:30.000Z</time>
      </trkpt>
      <trkpt lat="43.68798" lon="3.8246">
        <ele>99</ele>
        <time>2020-09-26T10:33:31.000Z</time>
      </trkpt>
      <trkpt lat="43.68799" lon="3.82461">
        <ele>99</ele>
        <time>2020-09-26T10:33:32.000Z</time>
      </trkpt>
      <trkpt lat="43.68801" lon="3.82462">
        <ele>99</ele>
        <time>2020-09-26T10:33:33.000Z</time>
      </trkpt>
      <trkpt lat="43.68804" lon="3.82461">
        <ele>99</ele>
        <time>2020-09-26T10:33:34.000Z</time>
      </trkpt>
      <trkpt lat="43.68807" lon="3.82459">
        <ele>99</ele>
        <time>2020-09-26T10:33:35.000Z</time>
      </trkpt>
      <trkpt lat="43.68811" lon="3.82456">
        <ele>99</ele>
        <time>2020-09-26T10:33:36.000Z</time>
      </trkpt>
      <trkpt lat="43.68815" lon="3.82454">
        <ele>99</ele>
        <time>2020-09-26T10:33:37.000Z</time>
      </trkpt>
      <trkpt lat="43.6882" lon="3.82453">
        <ele>99</ele>
        <time>2020-09-26T10:33:38.000Z</time>
      </trkpt>
      <trkpt lat="43.68824" lon="3.82451">
        <ele>99.082149830199</ele>
        <time>2020-09-26T10:33:39.000Z</time>
      </trkpt>
      <trkpt lat="43.68829" lon="3.82449">
        <ele>99.183569774325</ele>
        <time>2020-09-26T10:33:40.000Z</time>
      </trkpt>
      <trkpt lat="43.68833" lon="3.82448">
        <ele>99.284989718452</ele>
        <time>2020-09-26T10:33:41.000Z</time>
      </trkpt>
      <trkpt lat="43.68837" lon="3.82446">
        <ele>99.386409662578</ele>
        <time>2020-09-26T10:33:42.000Z</time>
      </trkpt>
      <trkpt lat="43.6884" lon="3.82444">
        <ele>99.487829606705</ele>
        <time>2020-09-26T10:33:43.000Z</time>
      </trkpt>
      <trkpt lat="43.68844" lon="3.82442">
        <ele>99.589249550831</ele>
        <time>2020-09-26T10:33:44.000Z</time>
      </trkpt>
      <trkpt lat="43.68847" lon="3.82441">
        <ele>99.690669494958</ele>
        <time>2020-09-26T10:33:45.000Z</time>
      </trkpt>
      <trkpt lat="43.68852" lon="3.8244">
        <ele>99.792089439084</ele>
        <time>2020-09-26T10:33:46.000Z</time>
      </trkpt>
      <trkpt lat="43.68856" lon="3.82439">
        <ele>99.893509383211</ele>
        <time>2020-09-26T10:33:47.000Z</time>
      </trkpt>
      <trkpt lat="43.6886" lon="3.82439">
        <ele>99.994929327338</ele>
        <time>2020-09-26T10:33:48.000Z</time>
      </trkpt>
      <trkpt lat="43.68864" lon="3.82439">
        <ele>100</ele>
        <time>2020-09-26T10:33:49.000Z</time>
      </trkpt>
      <trkpt lat="43.68868" lon="3.8244">
        <ele>100</ele>
        <time>2020-09-26T10:33:50.000Z</time>
      </trkpt>
      <trkpt lat="43.68872" lon="3.82441">
        <ele>100</ele>
        <time>2020-09-26T10:33:51.000Z</time>
      </trkpt>
      <trkpt lat="43.68875" lon="3.82441">
        <ele>100</ele>
        <time>2020-09-26T10:33:52.000Z</time>
      </trkpt>
      <trkpt lat="43.68879" lon="3.82441">
        <ele>100</ele>
        <time>2020-09-26T10:33:53.000Z</time>
      </trkpt>
      <trkpt lat="43.68883" lon="3.8244">
        <ele>100</ele>
        <time>2020-09-26T10:33:54.000Z</time>
      </trkpt>
      <trkpt lat="43.68887" lon="3.8244">
        <ele>100</ele>
        <time>2020-09-26T10:33:55.000Z</time>
      </trkpt>
      <trkpt lat="43.6889" lon="3.82441">
        <ele>100</ele>
        <time>2020-09-26T10:33:56.000Z</time>
      </trkpt>
      <trkpt lat="43.68894" lon="3.82441">
        <ele>100</ele>
        <time>2020-09-26T10:33:57.000Z</time>
      </trkpt>
      <trkpt lat="43.68897" lon="3.82441">
        <ele>100</ele>
        <time>2020-09-26T10:33:58.000Z</time>
      </trkpt>
      <trkpt lat="43.68901" lon="3.82441">
        <ele>100.09500032</ele>
        <time>2020-09-26T10:33:59.000Z</time>
      </trkpt>
      <trkpt lat="43.68904" lon="3.82441">
        <ele>100.19500032</ele>
        <time>2020-09-26T10:34:00.000Z</time>
      </trkpt>
      <trkpt lat="43.68907" lon="3.82441">
        <ele>100.29500032</ele>
        <time>2020-09-26T10:34:01.000Z</time>
      </trkpt>
      <trkpt lat="43.6891" lon="3.82441">
        <ele>100.39500032</ele>
        <time>2020-09-26T10:34:02.000Z</time>
      </trkpt>
      <trkpt lat="43.68913" lon="3.82441">
        <ele>100.49500032</ele>
        <time>2020-09-26T10:34:03.000Z</time>
      </trkpt>
      <trkpt lat="43.68915" lon="3.82441">
        <ele>100.59500032</ele>
        <time>2020-09-26T10:34:04.000Z</time>
      </trkpt>
      <trkpt lat="43.68918" lon="3.82441">
        <ele>100.69500032</ele>
        <time>2020-09-26T10:34:05.000Z</time>
      </trkpt>
      <trkpt lat="43.6892" lon="3.82441">
        <ele>100.79500032</ele>
        <time>2020-09-26T10:34:06.000Z</time>
      </trkpt>
      <trkpt lat="43.68923" lon="3.82441">
        <ele>100.89500032</ele>
        <time>2020-09-26T10:34:07.000Z</time>
      </trkpt>
      <trkpt lat="43.68925" lon="3.82441">
        <ele>100.99500032</ele>
        <time>2020-09-26T10:34:08.000Z</time>
      </trkpt>
      <trkpt lat="43.68928" lon="3.82441">
        <ele>101.18981064714</ele>
        <time>2020-09-26T10:34:09.000Z</time>
      </trkpt>
      <trkpt lat="43.6893" lon="3.82442">
        <ele>101.38961065532</ele>
        <time>2020-09-26T10:34:10.000Z</time>
      </trkpt>
      <trkpt lat="43.68932" lon="3.82442">
        <ele>101.5894106635</ele>
        <time>2020-09-26T10:34:11.000Z</time>
      </trkpt>
      <trkpt lat="43.68934" lon="3.82443">
        <ele>101.78921067169</ele>
        <time>2020-09-26T10:34:12.000Z</time>
      </trkpt>
      <trkpt lat="43.68937" lon="3.82445">
        <ele>102.18881068805</ele>
        <time>2020-09-26T10:34:14.000Z</time>
      </trkpt>
      <trkpt lat="43.6894" lon="3.82447">
        <ele>102.58841070442</ele>
        <time>2020-09-26T10:34:16.000Z</time>
      </trkpt>
      <trkpt lat="43.68942" lon="3.82449">
        <ele>102.98801072079</ele>
        <time>2020-09-26T10:34:18.000Z</time>
      </trkpt>
      <trkpt lat="43.68944" lon="3.8245">
        <ele>103.38838748033</ele>
        <time>2020-09-26T10:34:20.000Z</time>
      </trkpt>
      <trkpt lat="43.68946" lon="3.82452">
        <ele>103.7887882655</ele>
        <time>2020-09-26T10:34:22.000Z</time>
      </trkpt>
      <trkpt lat="43.68949" lon="3.82453">
        <ele>104.18918905067</ele>
        <time>2020-09-26T10:34:24.000Z</time>
      </trkpt>
      <trkpt lat="43.68951" lon="3.82455">
        <ele>104.58958983584</ele>
        <time>2020-09-26T10:34:26.000Z</time>
      </trkpt>
      <trkpt lat="43.68954" lon="3.82456">
        <ele>104.98999062101</ele>
        <time>2020-09-26T10:34:28.000Z</time>
      </trkpt>
      <trkpt lat="43.68956" lon="3.82458">
        <ele>105.39000064</ele>
        <time>2020-09-26T10:34:30.000Z</time>
      </trkpt>
      <trkpt lat="43.68958" lon="3.82459">
        <ele>105.79000064</ele>
        <time>2020-09-26T10:34:32.000Z</time>
      </trkpt>
      <trkpt lat="43.68961" lon="3.82461">
        <ele>106.19000064</ele>
        <time>2020-09-26T10:34:34.000Z</time>
      </trkpt>
      <trkpt lat="43.68963" lon="3.82462">
        <ele>106.59000064</ele>
        <time>2020-09-26T10:34:36.000Z</time>
      </trkpt>
      <trkpt lat="43.68966" lon="3.82464">
        <ele>106.99000064</ele>
        <time>2020-09-26T10:34:38.000Z</time>
      </trkpt>
      <trkpt lat="43.68968" lon="3.82466">
        <ele>107.58500096</ele>
        <time>2020-09-26T10:34:40.000Z</time>
      </trkpt>
      <trkpt lat="43.68971" lon="3.82467">
        <ele>108.18500096</ele>
        <time>2020-09-26T10:34:42.000Z</time>
      </trkpt>
      <trkpt lat="43.68973" lon="3.82469">
        <ele>108.78500096</ele>
        <time>2020-09-26T10:34:44.000Z</time>
      </trkpt>
      <trkpt lat="43.68976" lon="3.8247">
        <ele>109.38500096</ele>
        <time>2020-09-26T10:34:46.000Z</time>
      </trkpt>
      <trkpt lat="43.68978" lon="3.8247">
        <ele>109.98500096</ele>
        <time>2020-09-26T10:34:48.000Z</time>
      </trkpt>
      <trkpt lat="43.68981" lon="3.82472">
        <ele>110.18968902724</ele>
        <time>2020-09-26T10:34:50.000Z</time>
      </trkpt>
      <trkpt lat="43.68983" lon="3.82473">
        <ele>110.38424155642</ele>
        <time>2020-09-26T10:34:52.000Z</time>
      </trkpt>
      <trkpt lat="43.68985" lon="3.82475">
        <ele>110.5787940856</ele>
        <time>2020-09-26T10:34:54.000Z</time>
      </trkpt>
      <trkpt lat="43.68988" lon="3.82476">
        <ele>110.77334661479</ele>
        <time>2020-09-26T10:34:56.000Z</time>
      </trkpt>
      <trkpt lat="43.6899" lon="3.82477">
        <ele>110.96789914397</ele>
        <time>2020-09-26T10:34:58.000Z</time>
      </trkpt>
      <trkpt lat="43.68992" lon="3.82478">
        <ele>111.34362205761</ele>
        <time>2020-09-26T10:35:00.000Z</time>
      </trkpt>
      <trkpt lat="43.68995" lon="3.8248">
        <ele>111.75514469136</ele>
        <time>2020-09-26T10:35:02.000Z</time>
      </trkpt>
      <trkpt lat="43.68997" lon="3.82481">
        <ele>112.1666673251</ele>
        <time>2020-09-26T10:35:04.000Z</time>
      </trkpt>
      <trkpt lat="43.68999" lon="3.82483">
        <ele>112.57818995885</ele>
        <time>2020-09-26T10:35:06.000Z</time>
      </trkpt>
      <trkpt lat="43.69001" lon="3.82484">
        <ele>112.98971259259</ele>
        <time>2020-09-26T10:35:08.000Z</time>
      </trkpt>
      <trkpt lat="43.69004" lon="3.82487">
        <ele>113.18968902724</ele>
        <time>2020-09-26T10:35:10.000Z</time>
      </trkpt>
      <trkpt lat="43.69005" lon="3.82488">
        <ele>113.28696529183</ele>
        <time>2020-09-26T10:35:11.000Z</time>
      </trkpt>
      <trkpt lat="43.69007" lon="3.8249">
        <ele>113.38424155642</ele>
        <time>2020-09-26T10:35:12.000Z</time>
      </trkpt>
      <trkpt lat="43.69009" lon="3.82491">
        <ele>113.48151782101</ele>
        <time>2020-09-26T10:35:13.000Z</time>
      </trkpt>
      <trkpt lat="43.69011" lon="3.82492">
        <ele>113.5787940856</ele>
        <time>2020-09-26T10:35:14.000Z</time>
      </trkpt>
      <trkpt lat="43.69013" lon="3.82493">
        <ele>113.6760703502</ele>
        <time>2020-09-26T10:35:15.000Z</time>
      </trkpt>
      <trkpt lat="43.69015" lon="3.82494">
        <ele>113.77334661479</ele>
        <time>2020-09-26T10:35:16.000Z</time>
      </trkpt>
      <trkpt lat="43.69017" lon="3.82496">
        <ele>113.87062287938</ele>
        <time>2020-09-26T10:35:17.000Z</time>
      </trkpt>
      <trkpt lat="43.6902" lon="3.82497">
        <ele>113.96789914397</ele>
        <time>2020-09-26T10:35:18.000Z</time>
      </trkpt>
      <trkpt lat="43.69023" lon="3.82498">
        <ele>114</ele>
        <time>2020-09-26T10:35:19.000Z</time>
      </trkpt>
      <trkpt lat="43.69025" lon="3.825">
        <ele>114</ele>
        <time>2020-09-26T10:35:20.000Z</time>
      </trkpt>
      <trkpt lat="43.69028" lon="3.82501">
        <ele>114</ele>
        <time>2020-09-26T10:35:21.000Z</time>
      </trkpt>
      <trkpt lat="43.69031" lon="3.82503">
        <ele>114</ele>
        <time>2020-09-26T10:35:22.000Z</time>
      </trkpt>
      <trkpt lat="43.69033" lon="3.82504">
        <ele>114</ele>
        <time>2020-09-26T10:35:23.000Z</time>
      </trkpt>
      <trkpt lat="43.69036" lon="3.82506">
        <ele>114</ele>
        <time>2020-09-26T10:35:24.000Z</time>
      </trkpt>
      <trkpt lat="43.69038" lon="3.82508">
        <ele>114</ele>
        <time>2020-09-26T10:35:25.000Z</time>
      </trkpt>
      <trkpt lat="43.69041" lon="3.8251">
        <ele>114</ele>
        <time>2020-09-26T10:35:26.000Z</time>
      </trkpt>
      <trkpt lat="43.69044" lon="3.82512">
        <ele>114</ele>
        <time>2020-09-26T10:35:27.000Z</time>
      </trkpt>
      <trkpt lat="43.69048" lon="3.82514">
        <ele>114</ele>
        <time>2020-09-26T10:35:28.000Z</time>
      </trkpt>
      <trkpt lat="43.69052" lon="3.82515">
        <ele>113.90499968</ele>
        <time>2020-09-26T10:35:29.000Z</time>
      </trkpt>
      <trkpt lat="43.69056" lon="3.82516">
        <ele>113.80499968</ele>
        <time>2020-09-26T10:35:30.000Z</time>
      </trkpt>
      <trkpt lat="43.69059" lon="3.82518">
        <ele>113.70499968</ele>
        <time>2020-09-26T10:35:31.000Z</time>
      </trkpt>
      <trkpt lat="43.69062" lon="3.82519">
        <ele>113.60499968</ele>
        <time>2020-09-26T10:35:32.000Z</time>
      </trkpt>
      <trkpt lat="43.69065" lon="3.82522">
        <ele>113.50499968</ele>
        <time>2020-09-26T10:35:33.000Z</time>
      </trkpt>
      <trkpt lat="43.69069" lon="3.82525">
        <ele>113.40499968</ele>
        <time>2020-09-26T10:35:34.000Z</time>
      </trkpt>
      <trkpt lat="43.69073" lon="3.82529">
        <ele>113.30499968</ele>
        <time>2020-09-26T10:35:35.000Z</time>
      </trkpt>
      <trkpt lat="43.69078" lon="3.82532">
        <ele>113.20499968</ele>
        <time>2020-09-26T10:35:36.000Z</time>
      </trkpt>
      <trkpt lat="43.69081" lon="3.82535">
        <ele>113.10499968</ele>
        <time>2020-09-26T10:35:37.000Z</time>
      </trkpt>
      <trkpt lat="43.69084" lon="3.82538">
        <ele>113.00499968</ele>
        <time>2020-09-26T10:35:38.000Z</time>
      </trkpt>
      <trkpt lat="43.69088" lon="3.82541">
        <ele>112.80999936</ele>
        <time>2020-09-26T10:35:39.000Z</time>
      </trkpt>
      <trkpt lat="43.69093" lon="3.82544">
        <ele>112.60999936</ele>
        <time>2020-09-26T10:35:40.000Z</time>
      </trkpt>
      <trkpt lat="43.69098" lon="3.82546">
        <ele>112.40999936</ele>
        <time>2020-09-26T10:35:41.000Z</time>
      </trkpt>
      <trkpt lat="43.69103" lon="3.82549">
        <ele>112.20999936</ele>
        <time>2020-09-26T10:35:42.000Z</time>
      </trkpt>
      <trkpt lat="43.69109" lon="3.82551">
        <ele>112.00999936</ele>
        <time>2020-09-26T10:35:43.000Z</time>
      </trkpt>
      <trkpt lat="43.69114" lon="3.82554">
        <ele>111.80999936</ele>
        <time>2020-09-26T10:35:44.000Z</time>
      </trkpt>
      <trkpt lat="43.69119" lon="3.82555">
        <ele>111.60999936</ele>
        <time>2020-09-26T10:35:45.000Z</time>
      </trkpt>
      <trkpt lat="43.69123" lon="3.82557">
        <ele>111.40999936</ele>
        <time>2020-09-26T10:35:46.000Z</time>
      </trkpt>
      <trkpt lat="43.69127" lon="3.82559">
        <ele>111.20999936</ele>
        <time>2020-09-26T10:35:47.000Z</time>
      </trkpt>
      <trkpt lat="43.69129" lon="3.82561">
        <ele>111.00999936</ele>
        <time>2020-09-26T10:35:48.000Z</time>
      </trkpt>
      <trkpt lat="43.69131" lon="3.82564">
        <ele>111.09500032</ele>
        <time>2020-09-26T10:35:49.000Z</time>
      </trkpt>
      <trkpt lat="43.69133" lon="3.82566">
        <ele>111.19500032</ele>
        <time>2020-09-26T10:35:50.000Z</time>
      </trkpt>
      <trkpt lat="43.69135" lon="3.82568">
        <ele>111.29500032</ele>
        <time>2020-09-26T10:35:51.000Z</time>
      </trkpt>
      <trkpt lat="43.69137" lon="3.8257">
        <ele>111.39500032</ele>
        <time>2020-09-26T10:35:52.000Z</time>
      </trkpt>
      <trkpt lat="43.69139" lon="3.82571">
        <ele>111.49500032</ele>
        <time>2020-09-26T10:35:53.000Z</time>
      </trkpt>
      <trkpt lat="43.69141" lon="3.82572">
        <ele>111.59500032</ele>
        <time>2020-09-26T10:35:54.000Z</time>
      </trkpt>
      <trkpt lat="43.69143" lon="3.82574">
        <ele>111.69500032</ele>
        <time>2020-09-26T10:35:55.000Z</time>
      </trkpt>
      <trkpt lat="43.69146" lon="3.82575">
        <ele>111.79500032</ele>
        <time>2020-09-26T10:35:56.000Z</time>
      </trkpt>
      <trkpt lat="43.69148" lon="3.82576">
        <ele>111.89500032</ele>
        <time>2020-09-26T10:35:57.000Z</time>
      </trkpt>
      <trkpt lat="43.6915" lon="3.82577">
        <ele>111.99500032</ele>
        <time>2020-09-26T10:35:58.000Z</time>
      </trkpt>
      <trkpt lat="43.69153" lon="3.82578">
        <ele>112</ele>
        <time>2020-09-26T10:35:59.000Z</time>
      </trkpt>
      <trkpt lat="43.69156" lon="3.82579">
        <ele>112</ele>
        <time>2020-09-26T10:36:00.000Z</time>
      </trkpt>
      <trkpt lat="43.69159" lon="3.8258">
        <ele>112</ele>
        <time>2020-09-26T10:36:01.000Z</time>
      </trkpt>
      <trkpt lat="43.69161" lon="3.82581">
        <ele>112</ele>
        <time>2020-09-26T10:36:02.000Z</time>
      </trkpt>
      <trkpt lat="43.69164" lon="3.82581">
        <ele>112</ele>
        <time>2020-09-26T10:36:03.000Z</time>
      </trkpt>
      <trkpt lat="43.69167" lon="3.82581">
        <ele>112</ele>
        <time>2020-09-26T10:36:04.000Z</time>
      </trkpt>
      <trkpt lat="43.6917" lon="3.82582">
        <ele>112</ele>
        <time>2020-09-26T10:36:05.000Z</time>
      </trkpt>
      <trkpt lat="43.69172" lon="3.82582">
        <ele>112</ele>
        <time>2020-09-26T10:36:06.000Z</time>
      </trkpt>
      <trkpt lat="43.69175" lon="3.82582">
        <ele>112</ele>
        <time>2020-09-26T10:36:07.000Z</time>
      </trkpt>
      <trkpt lat="43.69179" lon="3.82583">
        <ele>112</ele>
        <time>2020-09-26T10:36:08.000Z</time>
      </trkpt>
      <trkpt lat="43.69182" lon="3.82584">
        <ele>111.71499904</ele>
        <time>2020-09-26T10:36:09.000Z</time>
      </trkpt>
      <trkpt lat="43.69186" lon="3.82587">
        <ele>111.41499904</ele>
        <time>2020-09-26T10:36:10.000Z</time>
      </trkpt>
      <trkpt lat="43.69189" lon="3.82591">
        <ele>111.11499904</ele>
        <time>2020-09-26T10:36:11.000Z</time>
      </trkpt>
      <trkpt lat="43.69193" lon="3.82595">
        <ele>110.81499904</ele>
        <time>2020-09-26T10:36:12.000Z</time>
      </trkpt>
      <trkpt lat="43.69198" lon="3.82598">
        <ele>110.51499904</ele>
        <time>2020-09-26T10:36:13.000Z</time>
      </trkpt>
      <trkpt lat="43.69202" lon="3.82601">
        <ele>110.21499904</ele>
        <time>2020-09-26T10:36:14.000Z</time>
      </trkpt>
      <trkpt lat="43.69207" lon="3.82604">
        <ele>109.91499904</ele>
        <time>2020-09-26T10:36:15.000Z</time>
      </trkpt>
      <trkpt lat="43.69212" lon="3.82606">
        <ele>109.61499904</ele>
        <time>2020-09-26T10:36:16.000Z</time>
      </trkpt>
      <trkpt lat="43.69217" lon="3.82609">
        <ele>109.31499904</ele>
        <time>2020-09-26T10:36:17.000Z</time>
      </trkpt>
      <trkpt lat="43.69222" lon="3.82613">
        <ele>109.01499904</ele>
        <time>2020-09-26T10:36:18.000Z</time>
      </trkpt>
      <trkpt lat="43.69228" lon="3.82617">
        <ele>108.80999936</ele>
        <time>2020-09-26T10:36:19.000Z</time>
      </trkpt>
      <trkpt lat="43.69233" lon="3.82621">
        <ele>108.60999936</ele>
        <time>2020-09-26T10:36:20.000Z</time>
      </trkpt>
      <trkpt lat="43.69238" lon="3.82624">
        <ele>108.40999936</ele>
        <time>2020-09-26T10:36:21.000Z</time>
      </trkpt>
      <trkpt lat="43.69242" lon="3.82626">
        <ele>108.20999936</ele>
        <time>2020-09-26T10:36:22.000Z</time>
      </trkpt>
      <trkpt lat="43.69246" lon="3.82628">
        <ele>108.00999936</ele>
        <time>2020-09-26T10:36:23.000Z</time>
      </trkpt>
      <trkpt lat="43.6925" lon="3.82629">
        <ele>107.80999936</ele>
        <time>2020-09-26T10:36:24.000Z</time>
      </trkpt>
      <trkpt lat="43.69255" lon="3.8263">
        <ele>107.60999936</ele>
        <time>2020-09-26T10:36:25.000Z</time>
      </trkpt>
      <trkpt lat="43.6926" lon="3.82631">
        <ele>107.40999936</ele>
        <time>2020-09-26T10:36:26.000Z</time>
      </trkpt>
      <trkpt lat="43.69266" lon="3.82632">
        <ele>107.20999936</ele>
        <time>2020-09-26T10:36:27.000Z</time>
      </trkpt>
      <trkpt lat="43.69272" lon="3.82632">
        <ele>107.00999936</ele>
        <time>2020-09-26T10:36:28.000Z</time>
      </trkpt>
      <trkpt lat="43.69278" lon="3.82633">
        <ele>106.71499904</ele>
        <time>2020-09-26T10:36:29.000Z</time>
      </trkpt>
      <trkpt lat="43.69283" lon="3.82634">
        <ele>106.41499904</ele>
        <time>2020-09-26T10:36:30.000Z</time>
      </trkpt>
      <trkpt lat="43.69288" lon="3.82638">
        <ele>106.11499904</ele>
        <time>2020-09-26T10:36:31.000Z</time>
      </trkpt>
      <trkpt lat="43.69291" lon="3.82643">
        <ele>105.81499904</ele>
        <time>2020-09-26T10:36:32.000Z</time>
      </trkpt>
      <trkpt lat="43.69293" lon="3.82649">
        <ele>105.51499904</ele>
        <time>2020-09-26T10:36:33.000Z</time>
      </trkpt>
      <trkpt lat="43.69294" lon="3.82655">
        <ele>105.21499904</ele>
        <time>2020-09-26T10:36:34.000Z</time>
      </trkpt>
      <trkpt lat="43.69295" lon="3.82661">
        <ele>104.91499904</ele>
        <time>2020-09-26T10:36:35.000Z</time>
      </trkpt>
      <trkpt lat="43.69295" lon="3.82667">
        <ele>104.61499904</ele>
        <time>2020-09-26T10:36:36.000Z</time>
      </trkpt>
      <trkpt lat="43.69296" lon="3.82673">
        <ele>104.31499904</ele>
        <time>2020-09-26T10:36:37.000Z</time>
      </trkpt>
      <trkpt lat="43.69297" lon="3.82678">
        <ele>104.01499904</ele>
        <time>2020-09-26T10:36:38.000Z</time>
      </trkpt>
      <trkpt lat="43.69297" lon="3.82684">
        <ele>103.90499968</ele>
        <time>2020-09-26T10:36:39.000Z</time>
      </trkpt>
      <trkpt lat="43.69297" lon="3.82689">
        <ele>103.80499968</ele>
        <time>2020-09-26T10:36:40.000Z</time>
      </trkpt>
      <trkpt lat="43.69297" lon="3.82694">
        <ele>103.70499968</ele>
        <time>2020-09-26T10:36:41.000Z</time>
      </trkpt>
      <trkpt lat="43.69298" lon="3.82698">
        <ele>103.60499968</ele>
        <time>2020-09-26T10:36:42.000Z</time>
      </trkpt>
      <trkpt lat="43.69298" lon="3.82702">
        <ele>103.50499968</ele>
        <time>2020-09-26T10:36:43.000Z</time>
      </trkpt>
      <trkpt lat="43.69299" lon="3.82705">
        <ele>103.40499968</ele>
        <time>2020-09-26T10:36:44.000Z</time>
      </trkpt>
      <trkpt lat="43.69299" lon="3.82709">
        <ele>103.30499968</ele>
        <time>2020-09-26T10:36:45.000Z</time>
      </trkpt>
      <trkpt lat="43.69299" lon="3.82714">
        <ele>103.20499968</ele>
        <time>2020-09-26T10:36:46.000Z</time>
      </trkpt>
      <trkpt lat="43.693" lon="3.82718">
        <ele>103.10499968</ele>
        <time>2020-09-26T10:36:47.000Z</time>
      </trkpt>
      <trkpt lat="43.693" lon="3.82723">
        <ele>103.00499968</ele>
        <time>2020-09-26T10:36:48.000Z</time>
      </trkpt>
      <trkpt lat="43.69301" lon="3.82727">
        <ele>102.90499968</ele>
        <time>2020-09-26T10:36:49.000Z</time>
      </trkpt>
      <trkpt lat="43.69301" lon="3.82731">
        <ele>102.80499968</ele>
        <time>2020-09-26T10:36:50.000Z</time>
      </trkpt>
      <trkpt lat="43.69301" lon="3.82736">
        <ele>102.70499968</ele>
        <time>2020-09-26T10:36:51.000Z</time>
      </trkpt>
      <trkpt lat="43.69302" lon="3.8274">
        <ele>102.60499968</ele>
        <time>2020-09-26T10:36:52.000Z</time>
      </trkpt>
      <trkpt lat="43.69302" lon="3.82744">
        <ele>102.50499968</ele>
        <time>2020-09-26T10:36:53.000Z</time>
      </trkpt>
      <trkpt lat="43.69303" lon="3.82749">
        <ele>102.40499968</ele>
        <time>2020-09-26T10:36:54.000Z</time>
      </trkpt>
      <trkpt lat="43.69303" lon="3.82753">
        <ele>102.30499968</ele>
        <time>2020-09-26T10:36:55.000Z</time>
      </trkpt>
      <trkpt lat="43.69303" lon="3.82757">
        <ele>102.20499968</ele>
        <time>2020-09-26T10:36:56.000Z</time>
      </trkpt>
      <trkpt lat="43.69303" lon="3.82759">
        <ele>102.10499968</ele>
        <time>2020-09-26T10:36:57.000Z</time>
      </trkpt>
      <trkpt lat="43.69303" lon="3.82763">
        <ele>101.90499968</ele>
        <time>2020-09-26T10:36:59.000Z</time>
      </trkpt>
      <trkpt lat="43.69305" lon="3.82766">
        <ele>101.70499968</ele>
        <time>2020-09-26T10:37:01.000Z</time>
      </trkpt>
      <trkpt lat="43.69307" lon="3.82767">
        <ele>101.60499968</ele>
        <time>2020-09-26T10:37:02.000Z</time>
      </trkpt>
      <trkpt lat="43.69309" lon="3.82767">
        <ele>101.50499968</ele>
        <time>2020-09-26T10:37:03.000Z</time>
      </trkpt>
      <trkpt lat="43.69311" lon="3.82767">
        <ele>101.40499968</ele>
        <time>2020-09-26T10:37:04.000Z</time>
      </trkpt>
      <trkpt lat="43.69314" lon="3.82766">
        <ele>101.30499968</ele>
        <time>2020-09-26T10:37:05.000Z</time>
      </trkpt>
      <trkpt lat="43.69317" lon="3.82765">
        <ele>101.20499968</ele>
        <time>2020-09-26T10:37:06.000Z</time>
      </trkpt>
      <trkpt lat="43.6932" lon="3.82764">
        <ele>101.10499968</ele>
        <time>2020-09-26T10:37:07.000Z</time>
      </trkpt>
      <trkpt lat="43.69324" lon="3.82763">
        <ele>101.00499968</ele>
        <time>2020-09-26T10:37:08.000Z</time>
      </trkpt>
      <trkpt lat="43.69328" lon="3.82762">
        <ele>101.09500032</ele>
        <time>2020-09-26T10:37:09.000Z</time>
      </trkpt>
      <trkpt lat="43.69331" lon="3.82761">
        <ele>101.19500032</ele>
        <time>2020-09-26T10:37:10.000Z</time>
      </trkpt>
      <trkpt lat="43.69334" lon="3.8276">
        <ele>101.29500032</ele>
        <time>2020-09-26T10:37:11.000Z</time>
      </trkpt>
      <trkpt lat="43.69337" lon="3.82758">
        <ele>101.39500032</ele>
        <time>2020-09-26T10:37:12.000Z</time>
      </trkpt>
      <trkpt lat="43.6934" lon="3.82757">
        <ele>101.49500032</ele>
        <time>2020-09-26T10:37:13.000Z</time>
      </trkpt>
      <trkpt lat="43.69342" lon="3.82757">
        <ele>101.59500032</ele>
        <time>2020-09-26T10:37:14.000Z</time>
      </trkpt>
      <trkpt lat="43.69345" lon="3.82756">
        <ele>101.69500032</ele>
        <time>2020-09-26T10:37:15.000Z</time>
      </trkpt>
      <trkpt lat="43.69347" lon="3.82755">
        <ele>101.79500032</ele>
        <time>2020-09-26T10:37:16.000Z</time>
      </trkpt>
      <trkpt lat="43.6935" lon="3.82755">
        <ele>101.89500032</ele>
        <time>2020-09-26T10:37:17.000Z</time>
      </trkpt>
      <trkpt lat="43.69353" lon="3.82754">
        <ele>101.99500032</ele>
        <time>2020-09-26T10:37:18.000Z</time>
      </trkpt>
      <trkpt lat="43.69356" lon="3.82753">
        <ele>102</ele>
        <time>2020-09-26T10:37:19.000Z</time>
      </trkpt>
      <trkpt lat="43.69359" lon="3.82752">
        <ele>102</ele>
        <time>2020-09-26T10:37:20.000Z</time>
      </trkpt>
      <trkpt lat="43.69362" lon="3.8275">
        <ele>102</ele>
        <time>2020-09-26T10:37:21.000Z</time>
      </trkpt>
      <trkpt lat="43.69365" lon="3.82749">
        <ele>102</ele>
        <time>2020-09-26T10:37:22.000Z</time>
      </trkpt>
      <trkpt lat="43.69368" lon="3.82748">
        <ele>102</ele>
        <time>2020-09-26T10:37:23.000Z</time>
      </trkpt>
      <trkpt lat="43.69371" lon="3.82748">
        <ele>102</ele>
        <time>2020-09-26T10:37:24.000Z</time>
      </trkpt>
      <trkpt lat="43.69374" lon="3.82746">
        <ele>102</ele>
        <time>2020-09-26T10:37:25.000Z</time>
      </trkpt>
      <trkpt lat="43.69377" lon="3.82745">
        <ele>102</ele>
        <time>2020-09-26T10:37:26.000Z</time>
      </trkpt>
      <trkpt lat="43.6938" lon="3.82744">
        <ele>102</ele>
        <time>2020-09-26T10:37:27.000Z</time>
      </trkpt>
      <trkpt lat="43.69383" lon="3.82743">
        <ele>102</ele>
        <time>2020-09-26T10:37:28.000Z</time>
      </trkpt>
      <trkpt lat="43.69386" lon="3.82742">
        <ele>102.09500032</ele>
        <time>2020-09-26T10:37:29.000Z</time>
      </trkpt>
      <trkpt lat="43.69389" lon="3.82741">
        <ele>102.19500032</ele>
        <time>2020-09-26T10:37:30.000Z</time>
      </trkpt>
      <trkpt lat="43.69392" lon="3.82739">
        <ele>102.29500032</ele>
        <time>2020-09-26T10:37:31.000Z</time>
      </trkpt>
      <trkpt lat="43.69395" lon="3.82738">
        <ele>102.39500032</ele>
        <time>2020-09-26T10:37:32.000Z</time>
      </trkpt>
      <trkpt lat="43.69398" lon="3.82736">
        <ele>102.49500032</ele>
        <time>2020-09-26T10:37:33.000Z</time>
      </trkpt>
      <trkpt lat="43.69401" lon="3.82735">
        <ele>102.59500032</ele>
        <time>2020-09-26T10:37:34.000Z</time>
      </trkpt>
      <trkpt lat="43.69403" lon="3.82733">
        <ele>102.69500032</ele>
        <time>2020-09-26T10:37:35.000Z</time>
      </trkpt>
      <trkpt lat="43.69405" lon="3.82732">
        <ele>102.79500032</ele>
        <time>2020-09-26T10:37:36.000Z</time>
      </trkpt>
      <trkpt lat="43.69408" lon="3.8273">
        <ele>102.89500032</ele>
        <time>2020-09-26T10:37:37.000Z</time>
      </trkpt>
      <trkpt lat="43.6941" lon="3.82729">
        <ele>102.99500032</ele>
        <time>2020-09-26T10:37:38.000Z</time>
      </trkpt>
      <trkpt lat="43.69412" lon="3.82727">
        <ele>103.09500032</ele>
        <time>2020-09-26T10:37:39.000Z</time>
      </trkpt>
      <trkpt lat="43.69414" lon="3.82725">
        <ele>103.19500032</ele>
        <time>2020-09-26T10:37:40.000Z</time>
      </trkpt>
      <trkpt lat="43.69417" lon="3.82724">
        <ele>103.29500032</ele>
        <time>2020-09-26T10:37:41.000Z</time>
      </trkpt>
      <trkpt lat="43.69419" lon="3.82724">
        <ele>103.39500032</ele>
        <time>2020-09-26T10:37:42.000Z</time>
      </trkpt>
      <trkpt lat="43.69422" lon="3.82725">
        <ele>103.49500032</ele>
        <time>2020-09-26T10:37:43.000Z</time>
      </trkpt>
      <trkpt lat="43.69425" lon="3.82727">
        <ele>103.59500032</ele>
        <time>2020-09-26T10:37:44.000Z</time>
      </trkpt>
      <trkpt lat="43.69429" lon="3.82729">
        <ele>103.69500032</ele>
        <time>2020-09-26T10:37:45.000Z</time>
      </trkpt>
      <trkpt lat="43.69432" lon="3.8273">
        <ele>103.79500032</ele>
        <time>2020-09-26T10:37:46.000Z</time>
      </trkpt>
      <trkpt lat="43.69436" lon="3.82731">
        <ele>103.89500032</ele>
        <time>2020-09-26T10:37:47.000Z</time>
      </trkpt>
      <trkpt lat="43.69439" lon="3.82731">
        <ele>103.99500032</ele>
        <time>2020-09-26T10:37:48.000Z</time>
      </trkpt>
      <trkpt lat="43.69443" lon="3.82731">
        <ele>104.19000064</ele>
        <time>2020-09-26T10:37:49.000Z</time>
      </trkpt>
      <trkpt lat="43.69446" lon="3.8273">
        <ele>104.39000064</ele>
        <time>2020-09-26T10:37:50.000Z</time>
      </trkpt>
      <trkpt lat="43.69449" lon="3.8273">
        <ele>104.59000064</ele>
        <time>2020-09-26T10:37:51.000Z</time>
      </trkpt>
      <trkpt lat="43.69452" lon="3.82729">
        <ele>104.79000064</ele>
        <time>2020-09-26T10:37:52.000Z</time>
      </trkpt>
      <trkpt lat="43.69455" lon="3.82729">
        <ele>104.99000064</ele>
        <time>2020-09-26T10:37:53.000Z</time>
      </trkpt>
      <trkpt lat="43.69458" lon="3.82728">
        <ele>105.19000064</ele>
        <time>2020-09-26T10:37:54.000Z</time>
      </trkpt>
      <trkpt lat="43.6946" lon="3.82728">
        <ele>105.39000064</ele>
        <time>2020-09-26T10:37:55.000Z</time>
      </trkpt>
      <trkpt lat="43.69463" lon="3.82728">
        <ele>105.59000064</ele>
        <time>2020-09-26T10:37:56.000Z</time>
      </trkpt>
      <trkpt lat="43.69466" lon="3.82727">
        <ele>105.79000064</ele>
        <time>2020-09-26T10:37:57.000Z</time>
      </trkpt>
      <trkpt lat="43.69468" lon="3.82726">
        <ele>105.99000064</ele>
        <time>2020-09-26T10:37:58.000Z</time>
      </trkpt>
      <trkpt lat="43.6947" lon="3.82726">
        <ele>106.18464596607</ele>
        <time>2020-09-26T10:37:59.000Z</time>
      </trkpt>
      <trkpt lat="43.69474" lon="3.82725">
        <ele>106.5733730063</ele>
        <time>2020-09-26T10:38:01.000Z</time>
      </trkpt>
      <trkpt lat="43.69476" lon="3.82724">
        <ele>106.76773652641</ele>
        <time>2020-09-26T10:38:02.000Z</time>
      </trkpt>
      <trkpt lat="43.69478" lon="3.82724">
        <ele>106.96210004652</ele>
        <time>2020-09-26T10:38:03.000Z</time>
      </trkpt>
      <trkpt lat="43.6948" lon="3.82724">
        <ele>107.15646356664</ele>
        <time>2020-09-26T10:38:04.000Z</time>
      </trkpt>
      <trkpt lat="43.69482" lon="3.82724">
        <ele>107.35082708675</ele>
        <time>2020-09-26T10:38:05.000Z</time>
      </trkpt>
      <trkpt lat="43.69486" lon="3.82724">
        <ele>107.73955412697</ele>
        <time>2020-09-26T10:38:07.000Z</time>
      </trkpt>
      <trkpt lat="43.69488" lon="3.82724">
        <ele>107.93391764709</ele>
        <time>2020-09-26T10:38:08.000Z</time>
      </trkpt>
      <trkpt lat="43.69491" lon="3.82724">
        <ele>108</ele>
        <time>2020-09-26T10:38:09.000Z</time>
      </trkpt>
      <trkpt lat="43.69493" lon="3.82724">
        <ele>108</ele>
        <time>2020-09-26T10:38:10.000Z</time>
      </trkpt>
      <trkpt lat="43.69496" lon="3.82724">
        <ele>108</ele>
        <time>2020-09-26T10:38:11.000Z</time>
      </trkpt>
      <trkpt lat="43.69499" lon="3.82723">
        <ele>108</ele>
        <time>2020-09-26T10:38:12.000Z</time>
      </trkpt>
      <trkpt lat="43.69502" lon="3.82722">
        <ele>108</ele>
        <time>2020-09-26T10:38:13.000Z</time>
      </trkpt>
      <trkpt lat="43.69505" lon="3.82721">
        <ele>108</ele>
        <time>2020-09-26T10:38:14.000Z</time>
      </trkpt>
      <trkpt lat="43.69508" lon="3.82719">
        <ele>108</ele>
        <time>2020-09-26T10:38:15.000Z</time>
      </trkpt>
      <trkpt lat="43.69511" lon="3.82718">
        <ele>108</ele>
        <time>2020-09-26T10:38:16.000Z</time>
      </trkpt>
      <trkpt lat="43.69514" lon="3.82716">
        <ele>108</ele>
        <time>2020-09-26T10:38:17.000Z</time>
      </trkpt>
      <trkpt lat="43.69517" lon="3.82714">
        <ele>108</ele>
        <time>2020-09-26T10:38:18.000Z</time>
      </trkpt>
      <trkpt lat="43.6952" lon="3.82713">
        <ele>108.19000064</ele>
        <time>2020-09-26T10:38:19.000Z</time>
      </trkpt>
      <trkpt lat="43.69523" lon="3.82711">
        <ele>108.39000064</ele>
        <time>2020-09-26T10:38:20.000Z</time>
      </trkpt>
      <trkpt lat="43.69527" lon="3.8271">
        <ele>108.59000064</ele>
        <time>2020-09-26T10:38:21.000Z</time>
      </trkpt>
      <trkpt lat="43.6953" lon="3.82708">
        <ele>108.79000064</ele>
        <time>2020-09-26T10:38:22.000Z</time>
      </trkpt>
      <trkpt lat="43.69534" lon="3.82708">
        <ele>108.99000064</ele>
        <time>2020-09-26T10:38:23.000Z</time>
      </trkpt>
      <trkpt lat="43.69537" lon="3.82708">
        <ele>109.19000064</ele>
        <time>2020-09-26T10:38:24.000Z</time>
      </trkpt>
      <trkpt lat="43.6954" lon="3.82707">
        <ele>109.39000064</ele>
        <time>2020-09-26T10:38:25.000Z</time>
      </trkpt>
      <trkpt lat="43.69543" lon="3.82707">
        <ele>109.59000064</ele>
        <time>2020-09-26T10:38:26.000Z</time>
      </trkpt>
      <trkpt lat="43.69546" lon="3.82706">
        <ele>109.79000064</ele>
        <time>2020-09-26T10:38:27.000Z</time>
      </trkpt>
      <trkpt lat="43.69549" lon="3.82705">
        <ele>109.99000064</ele>
        <time>2020-09-26T10:38:28.000Z</time>
      </trkpt>
      <trkpt lat="43.69552" lon="3.82703">
        <ele>110</ele>
        <time>2020-09-26T10:38:29.000Z</time>
      </trkpt>
      <trkpt lat="43.69555" lon="3.82702">
        <ele>110</ele>
        <time>2020-09-26T10:38:30.000Z</time>
      </trkpt>
      <trkpt lat="43.69558" lon="3.82701">
        <ele>110</ele>
        <time>2020-09-26T10:38:31.000Z</time>
      </trkpt>
      <trkpt lat="43.6956" lon="3.827">
        <ele>110</ele>
        <time>2020-09-26T10:38:32.000Z</time>
      </trkpt>
      <trkpt lat="43.69563" lon="3.82699">
        <ele>110</ele>
        <time>2020-09-26T10:38:33.000Z</time>
      </trkpt>
      <trkpt lat="43.69565" lon="3.82699">
        <ele>110</ele>
        <time>2020-09-26T10:38:35.000Z</time>
      </trkpt>
      <trkpt lat="43.69567" lon="3.827">
        <ele>110</ele>
        <time>2020-09-26T10:38:39.000Z</time>
      </trkpt>
      <trkpt lat="43.69569" lon="3.82701">
        <ele>110</ele>
        <time>2020-09-26T10:38:40.000Z</time>
      </trkpt>
      <trkpt lat="43.6957" lon="3.82704">
        <ele>110</ele>
        <time>2020-09-26T10:38:41.000Z</time>
      </trkpt>
      <trkpt lat="43.6957" lon="3.82708">
        <ele>110</ele>
        <time>2020-09-26T10:38:42.000Z</time>
      </trkpt>
      <trkpt lat="43.69571" lon="3.82713">
        <ele>110</ele>
        <time>2020-09-26T10:38:43.000Z</time>
      </trkpt>
      <trkpt lat="43.69571" lon="3.82719">
        <ele>110</ele>
        <time>2020-09-26T10:38:44.000Z</time>
      </trkpt>
      <trkpt lat="43.69571" lon="3.82725">
        <ele>110</ele>
        <time>2020-09-26T10:38:45.000Z</time>
      </trkpt>
      <trkpt lat="43.69571" lon="3.82731">
        <ele>110</ele>
        <time>2020-09-26T10:38:46.000Z</time>
      </trkpt>
      <trkpt lat="43.6957" lon="3.82737">
        <ele>110</ele>
        <time>2020-09-26T10:38:47.000Z</time>
      </trkpt>
      <trkpt lat="43.69569" lon="3.82743">
        <ele>110</ele>
        <time>2020-09-26T10:38:48.000Z</time>
      </trkpt>
      <trkpt lat="43.69567" lon="3.82749">
        <ele>110</ele>
        <time>2020-09-26T10:38:49.000Z</time>
      </trkpt>
      <trkpt lat="43.69565" lon="3.82755">
        <ele>110</ele>
        <time>2020-09-26T10:38:50.000Z</time>
      </trkpt>
      <trkpt lat="43.69563" lon="3.82761">
        <ele>110</ele>
        <time>2020-09-26T10:38:51.000Z</time>
      </trkpt>
      <trkpt lat="43.6956" lon="3.82766">
        <ele>110</ele>
        <time>2020-09-26T10:38:52.000Z</time>
      </trkpt>
      <trkpt lat="43.69557" lon="3.82772">
        <ele>110</ele>
        <time>2020-09-26T10:38:53.000Z</time>
      </trkpt>
      <trkpt lat="43.69554" lon="3.82776">
        <ele>110</ele>
        <time>2020-09-26T10:38:54.000Z</time>
      </trkpt>
      <trkpt lat="43.6955" lon="3.82781">
        <ele>110</ele>
        <time>2020-09-26T10:38:55.000Z</time>
      </trkpt>
      <trkpt lat="43.69547" lon="3.82785">
        <ele>110</ele>
        <time>2020-09-26T10:38:56.000Z</time>
      </trkpt>
      <trkpt lat="43.69543" lon="3.82789">
        <ele>110</ele>
        <time>2020-09-26T10:38:57.000Z</time>
      </trkpt>
      <trkpt lat="43.69542" lon="3.82791">
        <ele>110</ele>
        <time>2020-09-26T10:38:58.000Z</time>
      </trkpt>
      <trkpt lat="43.6954" lon="3.82791">
        <ele>110</ele>
        <time>2020-09-26T10:39:04.000Z</time>
      </trkpt>
      <trkpt lat="43.69541" lon="3.82787">
        <ele>110</ele>
        <time>2020-09-26T10:39:09.000Z</time>
      </trkpt>
      <trkpt lat="43.69542" lon="3.82787">
        <ele>110</ele>
        <time>2020-09-26T10:39:10.000Z</time>
      </trkpt>
      <trkpt lat="43.69544" lon="3.82787">
        <ele>110</ele>
        <time>2020-09-26T10:39:11.000Z</time>
      </trkpt>
      <trkpt lat="43.69546" lon="3.82785">
        <ele>110</ele>
        <time>2020-09-26T10:39:12.000Z</time>
      </trkpt>
      <trkpt lat="43.69547" lon="3.82783">
        <ele>110</ele>
        <time>2020-09-26T10:39:13.000Z</time>
      </trkpt>
      <trkpt lat="43.69549" lon="3.8278">
        <ele>110</ele>
        <time>2020-09-26T10:39:14.000Z</time>
      </trkpt>
      <trkpt lat="43.69551" lon="3.82777">
        <ele>110</ele>
        <time>2020-09-26T10:39:15.000Z</time>
      </trkpt>
      <trkpt lat="43.69553" lon="3.82775">
        <ele>110</ele>
        <time>2020-09-26T10:39:16.000Z</time>
      </trkpt>
      <trkpt lat="43.69555" lon="3.82773">
        <ele>110</ele>
        <time>2020-09-26T10:39:17.000Z</time>
      </trkpt>
      <trkpt lat="43.69557" lon="3.8277">
        <ele>110</ele>
        <time>2020-09-26T10:39:18.000Z</time>
      </trkpt>
      <trkpt lat="43.69559" lon="3.82767">
        <ele>110</ele>
        <time>2020-09-26T10:39:19.000Z</time>
      </trkpt>
      <trkpt lat="43.6956" lon="3.82764">
        <ele>110</ele>
        <time>2020-09-26T10:39:20.000Z</time>
      </trkpt>
      <trkpt lat="43.69562" lon="3.82761">
        <ele>110</ele>
        <time>2020-09-26T10:39:21.000Z</time>
      </trkpt>
      <trkpt lat="43.69563" lon="3.82758">
        <ele>110</ele>
        <time>2020-09-26T10:39:22.000Z</time>
      </trkpt>
      <trkpt lat="43.69564" lon="3.82755">
        <ele>110</ele>
        <time>2020-09-26T10:39:23.000Z</time>
      </trkpt>
      <trkpt lat="43.69564" lon="3.82755">
        <ele>110</ele>
        <time>2020-09-26T10:39:28.000Z</time>
      </trkpt>
      <trkpt lat="43.69567" lon="3.82744">
        <ele>110</ele>
        <time>2020-09-26T10:39:39.000Z</time>
      </trkpt>
      <trkpt lat="43.69567" lon="3.82741">
        <ele>110</ele>
        <time>2020-09-26T10:39:40.000Z</time>
      </trkpt>
      <trkpt lat="43.69568" lon="3.82737">
        <ele>110</ele>
        <time>2020-09-26T10:39:41.000Z</time>
      </trkpt>
      <trkpt lat="43.69568" lon="3.82733">
        <ele>110</ele>
        <time>2020-09-26T10:39:42.000Z</time>
      </trkpt>
      <trkpt lat="43.69568" lon="3.82728">
        <ele>110</ele>
        <time>2020-09-26T10:39:43.000Z</time>
      </trkpt>
      <trkpt lat="43.69569" lon="3.82724">
        <ele>110</ele>
        <time>2020-09-26T10:39:44.000Z</time>
      </trkpt>
      <trkpt lat="43.69569" lon="3.8272">
        <ele>110</ele>
        <time>2020-09-26T10:39:45.000Z</time>
      </trkpt>
      <trkpt lat="43.69568" lon="3.82716">
        <ele>110</ele>
        <time>2020-09-26T10:39:46.000Z</time>
      </trkpt>
      <trkpt lat="43.69568" lon="3.82712">
        <ele>110</ele>
        <time>2020-09-26T10:39:47.000Z</time>
      </trkpt>
      <trkpt lat="43.69567" lon="3.82709">
        <ele>110</ele>
        <time>2020-09-26T10:39:48.000Z</time>
      </trkpt>
      <trkpt lat="43.69566" lon="3.82706">
        <ele>110</ele>
        <time>2020-09-26T10:39:49.000Z</time>
      </trkpt>
      <trkpt lat="43.69566" lon="3.82702">
        <ele>109.81535426362</ele>
        <time>2020-09-26T10:39:50.000Z</time>
      </trkpt>
      <trkpt lat="43.69567" lon="3.82699">
        <ele>109.62099098528</ele>
        <time>2020-09-26T10:39:51.000Z</time>
      </trkpt>
      <trkpt lat="43.6957" lon="3.82697">
        <ele>109.42662770694</ele>
        <time>2020-09-26T10:39:52.000Z</time>
      </trkpt>
      <trkpt lat="43.69573" lon="3.82696">
        <ele>109.2322644286</ele>
        <time>2020-09-26T10:39:53.000Z</time>
      </trkpt>
      <trkpt lat="43.69576" lon="3.82695">
        <ele>109.03790115026</ele>
        <time>2020-09-26T10:39:54.000Z</time>
      </trkpt>
      <trkpt lat="43.6958" lon="3.82694">
        <ele>108.84353787192</ele>
        <time>2020-09-26T10:39:55.000Z</time>
      </trkpt>
      <trkpt lat="43.69583" lon="3.82693">
        <ele>108.64917459358</ele>
        <time>2020-09-26T10:39:56.000Z</time>
      </trkpt>
      <trkpt lat="43.69586" lon="3.82693">
        <ele>108.45481131524</ele>
        <time>2020-09-26T10:39:57.000Z</time>
      </trkpt>
      <trkpt lat="43.6959" lon="3.82693">
        <ele>108.2604480369</ele>
        <time>2020-09-26T10:39:58.000Z</time>
      </trkpt>
      <trkpt lat="43.69592" lon="3.82696">
        <ele>108.06608475856</ele>
        <time>2020-09-26T10:39:59.000Z</time>
      </trkpt>
      <trkpt lat="43.69594" lon="3.827">
        <ele>107.93202942816</ele>
        <time>2020-09-26T10:40:00.000Z</time>
      </trkpt>
      <trkpt lat="43.69595" lon="3.82703">
        <ele>107.8290427146</ele>
        <time>2020-09-26T10:40:01.000Z</time>
      </trkpt>
      <trkpt lat="43.69597" lon="3.82705">
        <ele>107.72605600104</ele>
        <time>2020-09-26T10:40:02.000Z</time>
      </trkpt>
      <trkpt lat="43.69599" lon="3.82708">
        <ele>107.62306928748</ele>
        <time>2020-09-26T10:40:03.000Z</time>
      </trkpt>
      <trkpt lat="43.696" lon="3.82713">
        <ele>107.52008257392</ele>
        <time>2020-09-26T10:40:04.000Z</time>
      </trkpt>
      <trkpt lat="43.696" lon="3.82718">
        <ele>107.41709586036</ele>
        <time>2020-09-26T10:40:05.000Z</time>
      </trkpt>
      <trkpt lat="43.69599" lon="3.82722">
        <ele>107.3141091468</ele>
        <time>2020-09-26T10:40:06.000Z</time>
      </trkpt>
      <trkpt lat="43.696" lon="3.82726">
        <ele>107.21112243324</ele>
        <time>2020-09-26T10:40:07.000Z</time>
      </trkpt>
      <trkpt lat="43.69602" lon="3.8273">
        <ele>107.10813571968</ele>
        <time>2020-09-26T10:40:08.000Z</time>
      </trkpt>
      <trkpt lat="43.69605" lon="3.82733">
        <ele>107.00514900612</ele>
        <time>2020-09-26T10:40:09.000Z</time>
      </trkpt>
      <trkpt lat="43.69608" lon="3.82735">
        <ele>106.90499968</ele>
        <time>2020-09-26T10:40:10.000Z</time>
      </trkpt>
      <trkpt lat="43.69609" lon="3.82738">
        <ele>106.80499968</ele>
        <time>2020-09-26T10:40:11.000Z</time>
      </trkpt>
      <trkpt lat="43.6961" lon="3.82742">
        <ele>106.70499968</ele>
        <time>2020-09-26T10:40:12.000Z</time>
      </trkpt>
      <trkpt lat="43.69612" lon="3.82745">
        <ele>106.60499968</ele>
        <time>2020-09-26T10:40:13.000Z</time>
      </trkpt>
      <trkpt lat="43.69614" lon="3.82746">
        <ele>106.50499968</ele>
        <time>2020-09-26T10:40:14.000Z</time>
      </trkpt>
      <trkpt lat="43.69617" lon="3.82746">
        <ele>106.40499968</ele>
        <time>2020-09-26T10:40:15.000Z</time>
      </trkpt>
      <trkpt lat="43.69619" lon="3.82745">
        <ele>106.30499968</ele>
        <time>2020-09-26T10:40:16.000Z</time>
      </trkpt>
      <trkpt lat="43.69622" lon="3.82746">
        <ele>106.20499968</ele>
        <time>2020-09-26T10:40:17.000Z</time>
      </trkpt>
      <trkpt lat="43.69625" lon="3.82747">
        <ele>106.10499968</ele>
        <time>2020-09-26T10:40:18.000Z</time>
      </trkpt>
      <trkpt lat="43.69627" lon="3.82749">
        <ele>106.00499968</ele>
        <time>2020-09-26T10:40:19.000Z</time>
      </trkpt>
      <trkpt lat="43.6963" lon="3.82751">
        <ele>106</ele>
        <time>2020-09-26T10:40:20.000Z</time>
      </trkpt>
      <trkpt lat="43.69632" lon="3.82753">
        <ele>106</ele>
        <time>2020-09-26T10:40:21.000Z</time>
      </trkpt>
      <trkpt lat="43.69633" lon="3.82754">
        <ele>106</ele>
        <time>2020-09-26T10:40:22.000Z</time>
      </trkpt>
      <trkpt lat="43.69635" lon="3.82757">
        <ele>106</ele>
        <time>2020-09-26T10:40:24.000Z</time>
      </trkpt>
      <trkpt lat="43.69637" lon="3.82759">
        <ele>106</ele>
        <time>2020-09-26T10:40:25.000Z</time>
      </trkpt>
      <trkpt lat="43.69639" lon="3.82762">
        <ele>106</ele>
        <time>2020-09-26T10:40:26.000Z</time>
      </trkpt>
      <trkpt lat="43.69641" lon="3.82765">
        <ele>106</ele>
        <time>2020-09-26T10:40:27.000Z</time>
      </trkpt>
      <trkpt lat="43.69643" lon="3.82768">
        <ele>106</ele>
        <time>2020-09-26T10:40:28.000Z</time>
      </trkpt>
      <trkpt lat="43.69644" lon="3.82771">
        <ele>106</ele>
        <time>2020-09-26T10:40:29.000Z</time>
      </trkpt>
      <trkpt lat="43.69645" lon="3.82774">
        <ele>106.19000064</ele>
        <time>2020-09-26T10:40:30.000Z</time>
      </trkpt>
      <trkpt lat="43.69646" lon="3.82776">
        <ele>106.39000064</ele>
        <time>2020-09-26T10:40:31.000Z</time>
      </trkpt>
      <trkpt lat="43.69648" lon="3.82779">
        <ele>106.79000064</ele>
        <time>2020-09-26T10:40:33.000Z</time>
      </trkpt>
      <trkpt lat="43.6965" lon="3.82781">
        <ele>107.19000064</ele>
        <time>2020-09-26T10:40:35.000Z</time>
      </trkpt>
      <trkpt lat="43.69652" lon="3.82785">
        <ele>107.59000064</ele>
        <time>2020-09-26T10:40:37.000Z</time>
      </trkpt>
      <trkpt lat="43.69652" lon="3.82788">
        <ele>107.99000064</ele>
        <time>2020-09-26T10:40:39.000Z</time>
      </trkpt>
      <trkpt lat="43.69652" lon="3.82788">
        <ele>108</ele>
        <time>2020-09-26T10:40:44.000Z</time>
      </trkpt>
      <trkpt lat="43.69657" lon="3.82791">
        <ele>108.96567119697</ele>
        <time>2020-09-26T10:40:51.000Z</time>
      </trkpt>
      <trkpt lat="43.69657" lon="3.82793">
        <ele>109</ele>
        <time>2020-09-26T10:40:52.000Z</time>
      </trkpt>
      <trkpt lat="43.69657" lon="3.82794">
        <ele>109</ele>
        <time>2020-09-26T10:40:58.000Z</time>
      </trkpt>
      <trkpt lat="43.69664" lon="3.82799">
        <ele>107.03386561715</ele>
        <time>2020-09-26T10:41:29.000Z</time>
      </trkpt>
      <trkpt lat="43.69667" lon="3.82799">
        <ele>107</ele>
        <time>2020-09-26T10:41:30.000Z</time>
      </trkpt>
      <trkpt lat="43.69669" lon="3.82799">
        <ele>107</ele>
        <time>2020-09-26T10:41:31.000Z</time>
      </trkpt>
      <trkpt lat="43.69672" lon="3.82799">
        <ele>107</ele>
        <time>2020-09-26T10:41:32.000Z</time>
      </trkpt>
      <trkpt lat="43.69674" lon="3.828">
        <ele>107</ele>
        <time>2020-09-26T10:41:33.000Z</time>
      </trkpt>
      <trkpt lat="43.69677" lon="3.828">
        <ele>107</ele>
        <time>2020-09-26T10:41:34.000Z</time>
      </trkpt>
      <trkpt lat="43.6968" lon="3.82801">
        <ele>107</ele>
        <time>2020-09-26T10:41:35.000Z</time>
      </trkpt>
      <trkpt lat="43.69683" lon="3.82802">
        <ele>107</ele>
        <time>2020-09-26T10:41:36.000Z</time>
      </trkpt>
      <trkpt lat="43.69686" lon="3.82803">
        <ele>107</ele>
        <time>2020-09-26T10:41:37.000Z</time>
      </trkpt>
      <trkpt lat="43.69689" lon="3.82804">
        <ele>107</ele>
        <time>2020-09-26T10:41:38.000Z</time>
      </trkpt>
      <trkpt lat="43.69692" lon="3.82805">
        <ele>107</ele>
        <time>2020-09-26T10:41:39.000Z</time>
      </trkpt>
      <trkpt lat="43.69695" lon="3.82806">
        <ele>106.93400064</ele>
        <time>2020-09-26T10:41:40.000Z</time>
      </trkpt>
      <trkpt lat="43.69698" lon="3.82807">
        <ele>106.83400064</ele>
        <time>2020-09-26T10:41:41.000Z</time>
      </trkpt>
      <trkpt lat="43.69702" lon="3.82809">
        <ele>106.73400064</ele>
        <time>2020-09-26T10:41:42.000Z</time>
      </trkpt>
      <trkpt lat="43.69705" lon="3.82811">
        <ele>106.63400064</ele>
        <time>2020-09-26T10:41:43.000Z</time>
      </trkpt>
      <trkpt lat="43.69707" lon="3.82814">
        <ele>106.53400064</ele>
        <time>2020-09-26T10:41:44.000Z</time>
      </trkpt>
      <trkpt lat="43.6971" lon="3.82817">
        <ele>106.43400064</ele>
        <time>2020-09-26T10:41:45.000Z</time>
      </trkpt>
      <trkpt lat="43.69712" lon="3.8282">
        <ele>106.33400064</ele>
        <time>2020-09-26T10:41:46.000Z</time>
      </trkpt>
      <trkpt lat="43.69715" lon="3.82824">
        <ele>106.23400064</ele>
        <time>2020-09-26T10:41:47.000Z</time>
      </trkpt>
      <trkpt lat="43.69717" lon="3.82828">
        <ele>106.13400064</ele>
        <time>2020-09-26T10:41:48.000Z</time>
      </trkpt>
      <trkpt lat="43.69719" lon="3.82832">
        <ele>106.03400064</ele>
        <time>2020-09-26T10:41:49.000Z</time>
      </trkpt>
      <trkpt lat="43.69721" lon="3.82837">
        <ele>106</ele>
        <time>2020-09-26T10:41:50.000Z</time>
      </trkpt>
      <trkpt lat="43.69723" lon="3.82842">
        <ele>106</ele>
        <time>2020-09-26T10:41:51.000Z</time>
      </trkpt>
      <trkpt lat="43.69724" lon="3.82848">
        <ele>106</ele>
        <time>2020-09-26T10:41:52.000Z</time>
      </trkpt>
      <trkpt lat="43.69726" lon="3.82853">
        <ele>106</ele>
        <time>2020-09-26T10:41:53.000Z</time>
      </trkpt>
      <trkpt lat="43.69728" lon="3.82859">
        <ele>106</ele>
        <time>2020-09-26T10:41:54.000Z</time>
      </trkpt>
      <trkpt lat="43.6973" lon="3.82864">
        <ele>106</ele>
        <time>2020-09-26T10:41:55.000Z</time>
      </trkpt>
      <trkpt lat="43.69732" lon="3.82867">
        <ele>106</ele>
        <time>2020-09-26T10:41:56.000Z</time>
      </trkpt>
      <trkpt lat="43.69734" lon="3.82869">
        <ele>106</ele>
        <time>2020-09-26T10:41:57.000Z</time>
      </trkpt>
      <trkpt lat="43.69737" lon="3.82871">
        <ele>106</ele>
        <time>2020-09-26T10:41:59.000Z</time>
      </trkpt>
      <trkpt lat="43.6974" lon="3.82875">
        <ele>105.80558299323</ele>
        <time>2020-09-26T10:42:01.000Z</time>
      </trkpt>
      <trkpt lat="43.69742" lon="3.82879">
        <ele>105.70588212773</ele>
        <time>2020-09-26T10:42:02.000Z</time>
      </trkpt>
      <trkpt lat="43.69745" lon="3.82883">
        <ele>105.60618126223</ele>
        <time>2020-09-26T10:42:03.000Z</time>
      </trkpt>
      <trkpt lat="43.69748" lon="3.82885">
        <ele>105.50648039674</ele>
        <time>2020-09-26T10:42:04.000Z</time>
      </trkpt>
      <trkpt lat="43.6975" lon="3.82888">
        <ele>105.40677953124</ele>
        <time>2020-09-26T10:42:05.000Z</time>
      </trkpt>
      <trkpt lat="43.69752" lon="3.82889">
        <ele>105.30707866574</ele>
        <time>2020-09-26T10:42:06.000Z</time>
      </trkpt>
      <trkpt lat="43.69754" lon="3.8289">
        <ele>105.20737780024</ele>
        <time>2020-09-26T10:42:07.000Z</time>
      </trkpt>
      <trkpt lat="43.69756" lon="3.82891">
        <ele>105.10767693474</ele>
        <time>2020-09-26T10:42:08.000Z</time>
      </trkpt>
      <trkpt lat="43.69758" lon="3.82892">
        <ele>105.00797606924</ele>
        <time>2020-09-26T10:42:09.000Z</time>
      </trkpt>
      <trkpt lat="43.6976" lon="3.82894">
        <ele>105</ele>
        <time>2020-09-26T10:42:10.000Z</time>
      </trkpt>
      <trkpt lat="43.69762" lon="3.82897">
        <ele>105</ele>
        <time>2020-09-26T10:42:11.000Z</time>
      </trkpt>
      <trkpt lat="43.69763" lon="3.82899">
        <ele>105.00272392608</ele>
        <time>2020-09-26T10:42:12.000Z</time>
      </trkpt>
      <trkpt lat="43.69764" lon="3.82901">
        <ele>105.2752037277</ele>
        <time>2020-09-26T10:42:13.000Z</time>
      </trkpt>
      <trkpt lat="43.69766" lon="3.82906">
        <ele>105.82016333093</ele>
        <time>2020-09-26T10:42:15.000Z</time>
      </trkpt>
      <trkpt lat="43.69768" lon="3.82909">
        <ele>106.36512293417</ele>
        <time>2020-09-26T10:42:17.000Z</time>
      </trkpt>
      <trkpt lat="43.69768" lon="3.82913">
        <ele>106.9100825374</ele>
        <time>2020-09-26T10:42:19.000Z</time>
      </trkpt>
      <trkpt lat="43.69768" lon="3.82916">
        <ele>107.34362205761</ele>
        <time>2020-09-26T10:42:21.000Z</time>
      </trkpt>
      <trkpt lat="43.69769" lon="3.8292">
        <ele>107.75514469136</ele>
        <time>2020-09-26T10:42:23.000Z</time>
      </trkpt>
      <trkpt lat="43.69769" lon="3.82925">
        <ele>108.1666673251</ele>
        <time>2020-09-26T10:42:25.000Z</time>
      </trkpt>
      <trkpt lat="43.6977" lon="3.82928">
        <ele>108.57818995885</ele>
        <time>2020-09-26T10:42:27.000Z</time>
      </trkpt>
      <trkpt lat="43.69771" lon="3.82932">
        <ele>108.98971259259</ele>
        <time>2020-09-26T10:42:29.000Z</time>
      </trkpt>
      <trkpt lat="43.69772" lon="3.82936">
        <ele>109.39000064</ele>
        <time>2020-09-26T10:42:31.000Z</time>
      </trkpt>
      <trkpt lat="43.69772" lon="3.8294">
        <ele>109.79000064</ele>
        <time>2020-09-26T10:42:33.000Z</time>
      </trkpt>
      <trkpt lat="43.69773" lon="3.82944">
        <ele>110.19000064</ele>
        <time>2020-09-26T10:42:35.000Z</time>
      </trkpt>
      <trkpt lat="43.69774" lon="3.82947">
        <ele>110.59000064</ele>
        <time>2020-09-26T10:42:37.000Z</time>
      </trkpt>
      <trkpt lat="43.69776" lon="3.82951">
        <ele>110.99000064</ele>
        <time>2020-09-26T10:42:39.000Z</time>
      </trkpt>
      <trkpt lat="43.69777" lon="3.82954">
        <ele>111.19500032</ele>
        <time>2020-09-26T10:42:41.000Z</time>
      </trkpt>
      <trkpt lat="43.69777" lon="3.82957">
        <ele>111.29500032</ele>
        <time>2020-09-26T10:42:42.000Z</time>
      </trkpt>
      <trkpt lat="43.69778" lon="3.8296">
        <ele>111.39500032</ele>
        <time>2020-09-26T10:42:43.000Z</time>
      </trkpt>
      <trkpt lat="43.69779" lon="3.82962">
        <ele>111.49500032</ele>
        <time>2020-09-26T10:42:44.000Z</time>
      </trkpt>
      <trkpt lat="43.6978" lon="3.82964">
        <ele>111.59500032</ele>
        <time>2020-09-26T10:42:45.000Z</time>
      </trkpt>
      <trkpt lat="43.69781" lon="3.82967">
        <ele>111.69500032</ele>
        <time>2020-09-26T10:42:46.000Z</time>
      </trkpt>
      <trkpt lat="43.69783" lon="3.82969">
        <ele>111.79500032</ele>
        <time>2020-09-26T10:42:47.000Z</time>
      </trkpt>
      <trkpt lat="43.69784" lon="3.8297">
        <ele>111.89500032</ele>
        <time>2020-09-26T10:42:48.000Z</time>
      </trkpt>
      <trkpt lat="43.69787" lon="3.82973">
        <ele>112.09500032</ele>
        <time>2020-09-26T10:42:50.000Z</time>
      </trkpt>
      <trkpt lat="43.6979" lon="3.82975">
        <ele>112.29500032</ele>
        <time>2020-09-26T10:42:52.000Z</time>
      </trkpt>
      <trkpt lat="43.69792" lon="3.82975">
        <ele>112.39500032</ele>
        <time>2020-09-26T10:42:53.000Z</time>
      </trkpt>
      <trkpt lat="43.69794" lon="3.82975">
        <ele>112.49500032</ele>
        <time>2020-09-26T10:42:54.000Z</time>
      </trkpt>
      <trkpt lat="43.69795" lon="3.82974">
        <ele>112.59500032</ele>
        <time>2020-09-26T10:42:55.000Z</time>
      </trkpt>
      <trkpt lat="43.69797" lon="3.82972">
        <ele>112.69500032</ele>
        <time>2020-09-26T10:42:56.000Z</time>
      </trkpt>
      <trkpt lat="43.69799" lon="3.82969">
        <ele>112.79500032</ele>
        <time>2020-09-26T10:42:57.000Z</time>
      </trkpt>
      <trkpt lat="43.69801" lon="3.82967">
        <ele>112.89500032</ele>
        <time>2020-09-26T10:42:58.000Z</time>
      </trkpt>
      <trkpt lat="43.69804" lon="3.82965">
        <ele>112.99500032</ele>
        <time>2020-09-26T10:42:59.000Z</time>
      </trkpt>
      <trkpt lat="43.69806" lon="3.82963">
        <ele>113.09481063805</ele>
        <time>2020-09-26T10:43:00.000Z</time>
      </trkpt>
      <trkpt lat="43.69809" lon="3.8296">
        <ele>113.1946109735</ele>
        <time>2020-09-26T10:43:01.000Z</time>
      </trkpt>
      <trkpt lat="43.69811" lon="3.82958">
        <ele>113.29441130896</ele>
        <time>2020-09-26T10:43:02.000Z</time>
      </trkpt>
      <trkpt lat="43.69813" lon="3.82956">
        <ele>113.39421164442</ele>
        <time>2020-09-26T10:43:03.000Z</time>
      </trkpt>
      <trkpt lat="43.69815" lon="3.82954">
        <ele>113.49401197987</ele>
        <time>2020-09-26T10:43:04.000Z</time>
      </trkpt>
      <trkpt lat="43.69817" lon="3.82951">
        <ele>113.59381231533</ele>
        <time>2020-09-26T10:43:05.000Z</time>
      </trkpt>
      <trkpt lat="43.6982" lon="3.82949">
        <ele>113.69361265079</ele>
        <time>2020-09-26T10:43:06.000Z</time>
      </trkpt>
      <trkpt lat="43.69822" lon="3.82947">
        <ele>113.79341298624</ele>
        <time>2020-09-26T10:43:07.000Z</time>
      </trkpt>
      <trkpt lat="43.69825" lon="3.82945">
        <ele>113.8932133217</ele>
        <time>2020-09-26T10:43:08.000Z</time>
      </trkpt>
      <trkpt lat="43.69827" lon="3.82943">
        <ele>113.99301365716</ele>
        <time>2020-09-26T10:43:09.000Z</time>
      </trkpt>
      <trkpt lat="43.6983" lon="3.8294">
        <ele>114.09318611186</ele>
        <time>2020-09-26T10:43:10.000Z</time>
      </trkpt>
      <trkpt lat="43.69832" lon="3.82938">
        <ele>114.19338657692</ele>
        <time>2020-09-26T10:43:11.000Z</time>
      </trkpt>
      <trkpt lat="43.69835" lon="3.82936">
        <ele>114.29358704198</ele>
        <time>2020-09-26T10:43:12.000Z</time>
      </trkpt>
      <trkpt lat="43.69837" lon="3.82933">
        <ele>114.39378750704</ele>
        <time>2020-09-26T10:43:13.000Z</time>
      </trkpt>
      <trkpt lat="43.69839" lon="3.82931">
        <ele>114.4939879721</ele>
        <time>2020-09-26T10:43:14.000Z</time>
      </trkpt>
      <trkpt lat="43.69841" lon="3.82928">
        <ele>114.59418843715</ele>
        <time>2020-09-26T10:43:15.000Z</time>
      </trkpt>
      <trkpt lat="43.69844" lon="3.82926">
        <ele>114.69438890221</ele>
        <time>2020-09-26T10:43:16.000Z</time>
      </trkpt>
      <trkpt lat="43.69846" lon="3.82925">
        <ele>114.79458936727</ele>
        <time>2020-09-26T10:43:17.000Z</time>
      </trkpt>
      <trkpt lat="43.69849" lon="3.82924">
        <ele>114.89478983233</ele>
        <time>2020-09-26T10:43:18.000Z</time>
      </trkpt>
      <trkpt lat="43.69852" lon="3.82923">
        <ele>114.99499029739</ele>
        <time>2020-09-26T10:43:19.000Z</time>
      </trkpt>
      <trkpt lat="43.69855" lon="3.82923">
        <ele>115.09500032</ele>
        <time>2020-09-26T10:43:20.000Z</time>
      </trkpt>
      <trkpt lat="43.69857" lon="3.82924">
        <ele>115.19500032</ele>
        <time>2020-09-26T10:43:21.000Z</time>
      </trkpt>
      <trkpt lat="43.6986" lon="3.82925">
        <ele>115.29500032</ele>
        <time>2020-09-26T10:43:22.000Z</time>
      </trkpt>
      <trkpt lat="43.69862" lon="3.82925">
        <ele>115.39500032</ele>
        <time>2020-09-26T10:43:23.000Z</time>
      </trkpt>
      <trkpt lat="43.69864" lon="3.82926">
        <ele>115.49500032</ele>
        <time>2020-09-26T10:43:24.000Z</time>
      </trkpt>
      <trkpt lat="43.69867" lon="3.82926">
        <ele>115.59500032</ele>
        <time>2020-09-26T10:43:25.000Z</time>
      </trkpt>
      <trkpt lat="43.69869" lon="3.82927">
        <ele>115.69500032</ele>
        <time>2020-09-26T10:43:26.000Z</time>
      </trkpt>
      <trkpt lat="43.69872" lon="3.82929">
        <ele>115.79500032</ele>
        <time>2020-09-26T10:43:27.000Z</time>
      </trkpt>
      <trkpt lat="43.69874" lon="3.82931">
        <ele>115.89500032</ele>
        <time>2020-09-26T10:43:28.000Z</time>
      </trkpt>
      <trkpt lat="43.69876" lon="3.82934">
        <ele>115.99500032</ele>
        <time>2020-09-26T10:43:29.000Z</time>
      </trkpt>
      <trkpt lat="43.69878" lon="3.82936">
        <ele>116</ele>
        <time>2020-09-26T10:43:30.000Z</time>
      </trkpt>
      <trkpt lat="43.6988" lon="3.82937">
        <ele>116</ele>
        <time>2020-09-26T10:43:31.000Z</time>
      </trkpt>
      <trkpt lat="43.69883" lon="3.82938">
        <ele>116</ele>
        <time>2020-09-26T10:43:32.000Z</time>
      </trkpt>
      <trkpt lat="43.69885" lon="3.82938">
        <ele>116</ele>
        <time>2020-09-26T10:43:33.000Z</time>
      </trkpt>
      <trkpt lat="43.69887" lon="3.82939">
        <ele>116</ele>
        <time>2020-09-26T10:43:34.000Z</time>
      </trkpt>
      <trkpt lat="43.6989" lon="3.8294">
        <ele>116</ele>
        <time>2020-09-26T10:43:35.000Z</time>
      </trkpt>
      <trkpt lat="43.69892" lon="3.82942">
        <ele>116</ele>
        <time>2020-09-26T10:43:36.000Z</time>
      </trkpt>
      <trkpt lat="43.69895" lon="3.82943">
        <ele>116</ele>
        <time>2020-09-26T10:43:37.000Z</time>
      </trkpt>
      <trkpt lat="43.69897" lon="3.82944">
        <ele>116</ele>
        <time>2020-09-26T10:43:38.000Z</time>
      </trkpt>
      <trkpt lat="43.699" lon="3.82945">
        <ele>116</ele>
        <time>2020-09-26T10:43:39.000Z</time>
      </trkpt>
      <trkpt lat="43.69902" lon="3.82945">
        <ele>116.09481063805</ele>
        <time>2020-09-26T10:43:40.000Z</time>
      </trkpt>
      <trkpt lat="43.69905" lon="3.82944">
        <ele>116.1946109735</ele>
        <time>2020-09-26T10:43:41.000Z</time>
      </trkpt>
      <trkpt lat="43.69908" lon="3.82942">
        <ele>116.29441130896</ele>
        <time>2020-09-26T10:43:42.000Z</time>
      </trkpt>
      <trkpt lat="43.6991" lon="3.82941">
        <ele>116.39421164442</ele>
        <time>2020-09-26T10:43:43.000Z</time>
      </trkpt>
      <trkpt lat="43.69911" lon="3.82939">
        <ele>116.49401197987</ele>
        <time>2020-09-26T10:43:44.000Z</time>
      </trkpt>
      <trkpt lat="43.69913" lon="3.82938">
        <ele>116.59381231533</ele>
        <time>2020-09-26T10:43:45.000Z</time>
      </trkpt>
      <trkpt lat="43.69915" lon="3.82937">
        <ele>116.69361265079</ele>
        <time>2020-09-26T10:43:46.000Z</time>
      </trkpt>
      <trkpt lat="43.69918" lon="3.82936">
        <ele>116.8932133217</ele>
        <time>2020-09-26T10:43:48.000Z</time>
      </trkpt>
      <trkpt lat="43.6992" lon="3.82935">
        <ele>116.99301365716</ele>
        <time>2020-09-26T10:43:49.000Z</time>
      </trkpt>
      <trkpt lat="43.69922" lon="3.82934">
        <ele>117.18637222373</ele>
        <time>2020-09-26T10:43:50.000Z</time>
      </trkpt>
      <trkpt lat="43.69924" lon="3.82933">
        <ele>117.38677315384</ele>
        <time>2020-09-26T10:43:51.000Z</time>
      </trkpt>
      <trkpt lat="43.69926" lon="3.82933">
        <ele>117.58717408396</ele>
        <time>2020-09-26T10:43:52.000Z</time>
      </trkpt>
      <trkpt lat="43.69928" lon="3.82933">
        <ele>117.78757501408</ele>
        <time>2020-09-26T10:43:53.000Z</time>
      </trkpt>
      <trkpt lat="43.6993" lon="3.82933">
        <ele>117.98797594419</ele>
        <time>2020-09-26T10:43:54.000Z</time>
      </trkpt>
      <trkpt lat="43.69932" lon="3.82933">
        <ele>118.18837687431</ele>
        <time>2020-09-26T10:43:55.000Z</time>
      </trkpt>
      <trkpt lat="43.69934" lon="3.82933">
        <ele>118.38877780443</ele>
        <time>2020-09-26T10:43:56.000Z</time>
      </trkpt>
      <trkpt lat="43.69936" lon="3.82933">
        <ele>118.58917873454</ele>
        <time>2020-09-26T10:43:57.000Z</time>
      </trkpt>
      <trkpt lat="43.69938" lon="3.82933">
        <ele>118.78957966466</ele>
        <time>2020-09-26T10:43:58.000Z</time>
      </trkpt>
      <trkpt lat="43.6994" lon="3.82934">
        <ele>118.98998059478</ele>
        <time>2020-09-26T10:43:59.000Z</time>
      </trkpt>
      <trkpt lat="43.69941" lon="3.82935">
        <ele>119</ele>
        <time>2020-09-26T10:44:00.000Z</time>
      </trkpt>
      <trkpt lat="43.69943" lon="3.82935">
        <ele>119</ele>
        <time>2020-09-26T10:44:01.000Z</time>
      </trkpt>
      <trkpt lat="43.69946" lon="3.82936">
        <ele>119</ele>
        <time>2020-09-26T10:44:02.000Z</time>
      </trkpt>
      <trkpt lat="43.69948" lon="3.82937">
        <ele>119</ele>
        <time>2020-09-26T10:44:03.000Z</time>
      </trkpt>
      <trkpt lat="43.6995" lon="3.82939">
        <ele>119</ele>
        <time>2020-09-26T10:44:04.000Z</time>
      </trkpt>
      <trkpt lat="43.69952" lon="3.8294">
        <ele>119</ele>
        <time>2020-09-26T10:44:05.000Z</time>
      </trkpt>
      <trkpt lat="43.69954" lon="3.82942">
        <ele>119</ele>
        <time>2020-09-26T10:44:06.000Z</time>
      </trkpt>
      <trkpt lat="43.69956" lon="3.82943">
        <ele>119</ele>
        <time>2020-09-26T10:44:07.000Z</time>
      </trkpt>
      <trkpt lat="43.69958" lon="3.82945">
        <ele>119</ele>
        <time>2020-09-26T10:44:08.000Z</time>
      </trkpt>
      <trkpt lat="43.69961" lon="3.82946">
        <ele>119</ele>
        <time>2020-09-26T10:44:09.000Z</time>
      </trkpt>
      <trkpt lat="43.69963" lon="3.82947">
        <ele>119</ele>
        <time>2020-09-26T10:44:10.000Z</time>
      </trkpt>
      <trkpt lat="43.69965" lon="3.82948">
        <ele>119</ele>
        <time>2020-09-26T10:44:11.000Z</time>
      </trkpt>
      <trkpt lat="43.69967" lon="3.82948">
        <ele>119</ele>
        <time>2020-09-26T10:44:12.000Z</time>
      </trkpt>
      <trkpt lat="43.6997" lon="3.82948">
        <ele>119</ele>
        <time>2020-09-26T10:44:13.000Z</time>
      </trkpt>
      <trkpt lat="43.69972" lon="3.82949">
        <ele>119</ele>
        <time>2020-09-26T10:44:14.000Z</time>
      </trkpt>
      <trkpt lat="43.69974" lon="3.82949">
        <ele>119</ele>
        <time>2020-09-26T10:44:15.000Z</time>
      </trkpt>
      <trkpt lat="43.69977" lon="3.82949">
        <ele>119</ele>
        <time>2020-09-26T10:44:16.000Z</time>
      </trkpt>
      <trkpt lat="43.69979" lon="3.8295">
        <ele>119</ele>
        <time>2020-09-26T10:44:17.000Z</time>
      </trkpt>
      <trkpt lat="43.69982" lon="3.8295">
        <ele>119</ele>
        <time>2020-09-26T10:44:18.000Z</time>
      </trkpt>
      <trkpt lat="43.69985" lon="3.8295">
        <ele>119</ele>
        <time>2020-09-26T10:44:19.000Z</time>
      </trkpt>
      <trkpt lat="43.69988" lon="3.82951">
        <ele>119</ele>
        <time>2020-09-26T10:44:20.000Z</time>
      </trkpt>
      <trkpt lat="43.6999" lon="3.82952">
        <ele>119</ele>
        <time>2020-09-26T10:44:21.000Z</time>
      </trkpt>
      <trkpt lat="43.69992" lon="3.82953">
        <ele>119</ele>
        <time>2020-09-26T10:44:22.000Z</time>
      </trkpt>
      <trkpt lat="43.69993" lon="3.82957">
        <ele>119</ele>
        <time>2020-09-26T10:44:28.000Z</time>
      </trkpt>
      <trkpt lat="43.69994" lon="3.8296">
        <ele>119</ele>
        <time>2020-09-26T10:44:29.000Z</time>
      </trkpt>
      <trkpt lat="43.69993" lon="3.82963">
        <ele>119.09500032</ele>
        <time>2020-09-26T10:44:30.000Z</time>
      </trkpt>
      <trkpt lat="43.69992" lon="3.82967">
        <ele>119.19500032</ele>
        <time>2020-09-26T10:44:31.000Z</time>
      </trkpt>
      <trkpt lat="43.69992" lon="3.82971">
        <ele>119.29500032</ele>
        <time>2020-09-26T10:44:32.000Z</time>
      </trkpt>
      <trkpt lat="43.69991" lon="3.82974">
        <ele>119.39500032</ele>
        <time>2020-09-26T10:44:33.000Z</time>
      </trkpt>
      <trkpt lat="43.6999" lon="3.82977">
        <ele>119.49500032</ele>
        <time>2020-09-26T10:44:34.000Z</time>
      </trkpt>
      <trkpt lat="43.69989" lon="3.8298">
        <ele>119.59500032</ele>
        <time>2020-09-26T10:44:35.000Z</time>
      </trkpt>
      <trkpt lat="43.69987" lon="3.82983">
        <ele>119.69500032</ele>
        <time>2020-09-26T10:44:36.000Z</time>
      </trkpt>
      <trkpt lat="43.69985" lon="3.82985">
        <ele>119.79500032</ele>
        <time>2020-09-26T10:44:37.000Z</time>
      </trkpt>
      <trkpt lat="43.69983" lon="3.82988">
        <ele>119.89500032</ele>
        <time>2020-09-26T10:44:38.000Z</time>
      </trkpt>
      <trkpt lat="43.69981" lon="3.82991">
        <ele>119.99500032</ele>
        <time>2020-09-26T10:44:39.000Z</time>
      </trkpt>
      <trkpt lat="43.69979" lon="3.82993">
        <ele>120</ele>
        <time>2020-09-26T10:44:40.000Z</time>
      </trkpt>
      <trkpt lat="43.69977" lon="3.82995">
        <ele>120</ele>
        <time>2020-09-26T10:44:41.000Z</time>
      </trkpt>
      <trkpt lat="43.69975" lon="3.82997">
        <ele>120</ele>
        <time>2020-09-26T10:44:42.000Z</time>
      </trkpt>
      <trkpt lat="43.69973" lon="3.82998">
        <ele>120</ele>
        <time>2020-09-26T10:44:43.000Z</time>
      </trkpt>
      <trkpt lat="43.69971" lon="3.83">
        <ele>120</ele>
        <time>2020-09-26T10:44:44.000Z</time>
      </trkpt>
      <trkpt lat="43.6997" lon="3.83001">
        <ele>120</ele>
        <time>2020-09-26T10:44:45.000Z</time>
      </trkpt>
      <trkpt lat="43.69967" lon="3.83002">
        <ele>120</ele>
        <time>2020-09-26T10:44:46.000Z</time>
      </trkpt>
      <trkpt lat="43.69965" lon="3.83003">
        <ele>120</ele>
        <time>2020-09-26T10:44:47.000Z</time>
      </trkpt>
      <trkpt lat="43.69962" lon="3.83004">
        <ele>120</ele>
        <time>2020-09-26T10:44:48.000Z</time>
      </trkpt>
      <trkpt lat="43.69959" lon="3.83005">
        <ele>120</ele>
        <time>2020-09-26T10:44:49.000Z</time>
      </trkpt>
      <trkpt lat="43.69955" lon="3.83005">
        <ele>119.72276171206</ele>
        <time>2020-09-26T10:44:50.000Z</time>
      </trkpt>
      <trkpt lat="43.69952" lon="3.83005">
        <ele>119.43093291829</ele>
        <time>2020-09-26T10:44:51.000Z</time>
      </trkpt>
      <trkpt lat="43.69948" lon="3.83005">
        <ele>119.13910412451</ele>
        <time>2020-09-26T10:44:52.000Z</time>
      </trkpt>
      <trkpt lat="43.69944" lon="3.83005">
        <ele>118.84727533074</ele>
        <time>2020-09-26T10:44:53.000Z</time>
      </trkpt>
      <trkpt lat="43.69941" lon="3.83005">
        <ele>118.55544653696</ele>
        <time>2020-09-26T10:44:54.000Z</time>
      </trkpt>
      <trkpt lat="43.69937" lon="3.83006">
        <ele>118.26361774319</ele>
        <time>2020-09-26T10:44:55.000Z</time>
      </trkpt>
      <trkpt lat="43.69933" lon="3.83005">
        <ele>117.97178894942</ele>
        <time>2020-09-26T10:44:56.000Z</time>
      </trkpt>
      <trkpt lat="43.69928" lon="3.83004">
        <ele>117.67996015564</ele>
        <time>2020-09-26T10:44:57.000Z</time>
      </trkpt>
      <trkpt lat="43.69924" lon="3.83004">
        <ele>117.38813136187</ele>
        <time>2020-09-26T10:44:58.000Z</time>
      </trkpt>
      <trkpt lat="43.6992" lon="3.83004">
        <ele>117.09630256809</ele>
        <time>2020-09-26T10:44:59.000Z</time>
      </trkpt>
      <trkpt lat="43.69917" lon="3.83004">
        <ele>117</ele>
        <time>2020-09-26T10:45:00.000Z</time>
      </trkpt>
      <trkpt lat="43.69913" lon="3.83006">
        <ele>117</ele>
        <time>2020-09-26T10:45:01.000Z</time>
      </trkpt>
      <trkpt lat="43.6991" lon="3.83009">
        <ele>117</ele>
        <time>2020-09-26T10:45:02.000Z</time>
      </trkpt>
      <trkpt lat="43.69907" lon="3.83012">
        <ele>117</ele>
        <time>2020-09-26T10:45:03.000Z</time>
      </trkpt>
      <trkpt lat="43.69903" lon="3.83014">
        <ele>117</ele>
        <time>2020-09-26T10:45:04.000Z</time>
      </trkpt>
      <trkpt lat="43.699" lon="3.83016">
        <ele>117</ele>
        <time>2020-09-26T10:45:05.000Z</time>
      </trkpt>
      <trkpt lat="43.69897" lon="3.83019">
        <ele>117</ele>
        <time>2020-09-26T10:45:06.000Z</time>
      </trkpt>
      <trkpt lat="43.69893" lon="3.83021">
        <ele>117</ele>
        <time>2020-09-26T10:45:07.000Z</time>
      </trkpt>
      <trkpt lat="43.69889" lon="3.83025">
        <ele>117</ele>
        <time>2020-09-26T10:45:08.000Z</time>
      </trkpt>
      <trkpt lat="43.69887" lon="3.83028">
        <ele>117</ele>
        <time>2020-09-26T10:45:09.000Z</time>
      </trkpt>
      <trkpt lat="43.69885" lon="3.83031">
        <ele>116.8171312979</ele>
        <time>2020-09-26T10:45:10.000Z</time>
      </trkpt>
      <trkpt lat="43.69883" lon="3.83034">
        <ele>116.62463857567</ele>
        <time>2020-09-26T10:45:11.000Z</time>
      </trkpt>
      <trkpt lat="43.69882" lon="3.83036">
        <ele>116.43214585343</ele>
        <time>2020-09-26T10:45:12.000Z</time>
      </trkpt>
      <trkpt lat="43.6988" lon="3.8304">
        <ele>116.04716040896</ele>
        <time>2020-09-26T10:45:14.000Z</time>
      </trkpt>
      <trkpt lat="43.69878" lon="3.83043">
        <ele>115.85466768672</ele>
        <time>2020-09-26T10:45:15.000Z</time>
      </trkpt>
      <trkpt lat="43.69875" lon="3.83047">
        <ele>115.66217496449</ele>
        <time>2020-09-26T10:45:16.000Z</time>
      </trkpt>
      <trkpt lat="43.69873" lon="3.83051">
        <ele>115.46968224225</ele>
        <time>2020-09-26T10:45:17.000Z</time>
      </trkpt>
      <trkpt lat="43.69872" lon="3.83055">
        <ele>115.27718952002</ele>
        <time>2020-09-26T10:45:18.000Z</time>
      </trkpt>
      <trkpt lat="43.6987" lon="3.83058">
        <ele>115.08469679778</ele>
        <time>2020-09-26T10:45:19.000Z</time>
      </trkpt>
      <trkpt lat="43.69869" lon="3.83061">
        <ele>114.94178790306</ele>
        <time>2020-09-26T10:45:20.000Z</time>
      </trkpt>
      <trkpt lat="43.69871" lon="3.83064">
        <ele>114.73388755685</ele>
        <time>2020-09-26T10:45:22.000Z</time>
      </trkpt>
      <trkpt lat="43.69872" lon="3.83067">
        <ele>114.52598721064</ele>
        <time>2020-09-26T10:45:24.000Z</time>
      </trkpt>
      <trkpt lat="43.69872" lon="3.83071">
        <ele>114.31808686442</ele>
        <time>2020-09-26T10:45:26.000Z</time>
      </trkpt>
      <trkpt lat="43.69872" lon="3.83075">
        <ele>113.80580522737</ele>
        <time>2020-09-26T10:45:31.000Z</time>
      </trkpt>
      <trkpt lat="43.69872" lon="3.83079">
        <ele>113.70570515933</ele>
        <time>2020-09-26T10:45:32.000Z</time>
      </trkpt>
      <trkpt lat="43.69872" lon="3.83082">
        <ele>113.6056050913</ele>
        <time>2020-09-26T10:45:33.000Z</time>
      </trkpt>
      <trkpt lat="43.69873" lon="3.83086">
        <ele>113.50550502326</ele>
        <time>2020-09-26T10:45:34.000Z</time>
      </trkpt>
      <trkpt lat="43.69874" lon="3.83088">
        <ele>113.40540495523</ele>
        <time>2020-09-26T10:45:35.000Z</time>
      </trkpt>
      <trkpt lat="43.69875" lon="3.8309">
        <ele>113.30530488719</ele>
        <time>2020-09-26T10:45:36.000Z</time>
      </trkpt>
      <trkpt lat="43.69876" lon="3.83093">
        <ele>113.20520481915</ele>
        <time>2020-09-26T10:45:37.000Z</time>
      </trkpt>
      <trkpt lat="43.69876" lon="3.83097">
        <ele>113.10510475112</ele>
        <time>2020-09-26T10:45:38.000Z</time>
      </trkpt>
      <trkpt lat="43.69878" lon="3.831">
        <ele>113.00500468308</ele>
        <time>2020-09-26T10:45:39.000Z</time>
      </trkpt>
      <trkpt lat="43.69879" lon="3.83103">
        <ele>113</ele>
        <time>2020-09-26T10:45:40.000Z</time>
      </trkpt>
      <trkpt lat="43.69881" lon="3.83104">
        <ele>113</ele>
        <time>2020-09-26T10:45:41.000Z</time>
      </trkpt>
      <trkpt lat="43.69883" lon="3.83104">
        <ele>113</ele>
        <time>2020-09-26T10:45:42.000Z</time>
      </trkpt>
      <trkpt lat="43.69885" lon="3.83104">
        <ele>113</ele>
        <time>2020-09-26T10:45:43.000Z</time>
      </trkpt>
      <trkpt lat="43.69888" lon="3.83103">
        <ele>113</ele>
        <time>2020-09-26T10:45:45.000Z</time>
      </trkpt>
      <trkpt lat="43.69889" lon="3.83106">
        <ele>113</ele>
        <time>2020-09-26T10:45:47.000Z</time>
      </trkpt>
      <trkpt lat="43.69886" lon="3.83108">
        <ele>113</ele>
        <time>2020-09-26T10:45:49.000Z</time>
      </trkpt>
      <trkpt lat="43.69884" lon="3.83109">
        <ele>112.90499968</ele>
        <time>2020-09-26T10:45:50.000Z</time>
      </trkpt>
      <trkpt lat="43.69882" lon="3.83108">
        <ele>112.80499968</ele>
        <time>2020-09-26T10:45:51.000Z</time>
      </trkpt>
      <trkpt lat="43.69879" lon="3.83108">
        <ele>112.70499968</ele>
        <time>2020-09-26T10:45:52.000Z</time>
      </trkpt>
      <trkpt lat="43.69876" lon="3.83107">
        <ele>112.60499968</ele>
        <time>2020-09-26T10:45:53.000Z</time>
      </trkpt>
      <trkpt lat="43.69872" lon="3.83107">
        <ele>112.50499968</ele>
        <time>2020-09-26T10:45:54.000Z</time>
      </trkpt>
      <trkpt lat="43.69868" lon="3.83108">
        <ele>112.40499968</ele>
        <time>2020-09-26T10:45:55.000Z</time>
      </trkpt>
      <trkpt lat="43.69865" lon="3.83111">
        <ele>112.30499968</ele>
        <time>2020-09-26T10:45:56.000Z</time>
      </trkpt>
      <trkpt lat="43.69862" lon="3.83114">
        <ele>112.20499968</ele>
        <time>2020-09-26T10:45:57.000Z</time>
      </trkpt>
      <trkpt lat="43.6986" lon="3.83117">
        <ele>112.10499968</ele>
        <time>2020-09-26T10:45:58.000Z</time>
      </trkpt>
      <trkpt lat="43.69859" lon="3.83119">
        <ele>112</ele>
        <time>2020-09-26T10:46:00.000Z</time>
      </trkpt>
      <trkpt lat="43.69857" lon="3.83117">
        <ele>112</ele>
        <time>2020-09-26T10:46:05.000Z</time>
      </trkpt>
      <trkpt lat="43.69856" lon="3.83112">
        <ele>112</ele>
        <time>2020-09-26T10:46:07.000Z</time>
      </trkpt>
      <trkpt lat="43.69857" lon="3.8311">
        <ele>112</ele>
        <time>2020-09-26T10:46:08.000Z</time>
      </trkpt>
      <trkpt lat="43.69859" lon="3.83108">
        <ele>112</ele>
        <time>2020-09-26T10:46:09.000Z</time>
      </trkpt>
      <trkpt lat="43.69861" lon="3.83107">
        <ele>112.09318611186</ele>
        <time>2020-09-26T10:46:10.000Z</time>
      </trkpt>
      <trkpt lat="43.69864" lon="3.83106">
        <ele>112.19338657692</ele>
        <time>2020-09-26T10:46:11.000Z</time>
      </trkpt>
      <trkpt lat="43.69867" lon="3.83105">
        <ele>112.29358704198</ele>
        <time>2020-09-26T10:46:12.000Z</time>
      </trkpt>
      <trkpt lat="43.69869" lon="3.83104">
        <ele>112.39378750704</ele>
        <time>2020-09-26T10:46:13.000Z</time>
      </trkpt>
      <trkpt lat="43.69872" lon="3.83104">
        <ele>112.4939879721</ele>
        <time>2020-09-26T10:46:14.000Z</time>
      </trkpt>
      <trkpt lat="43.69874" lon="3.83103">
        <ele>112.59418843715</ele>
        <time>2020-09-26T10:46:15.000Z</time>
      </trkpt>
      <trkpt lat="43.69877" lon="3.83102">
        <ele>112.69438890221</ele>
        <time>2020-09-26T10:46:16.000Z</time>
      </trkpt>
      <trkpt lat="43.6988" lon="3.83102">
        <ele>112.79458936727</ele>
        <time>2020-09-26T10:46:17.000Z</time>
      </trkpt>
      <trkpt lat="43.69882" lon="3.83101">
        <ele>112.89478983233</ele>
        <time>2020-09-26T10:46:18.000Z</time>
      </trkpt>
      <trkpt lat="43.69885" lon="3.83101">
        <ele>112.99499029739</ele>
        <time>2020-09-26T10:46:19.000Z</time>
      </trkpt>
      <trkpt lat="43.69887" lon="3.83101">
        <ele>113.19000064</ele>
        <time>2020-09-26T10:46:20.000Z</time>
      </trkpt>
      <trkpt lat="43.69889" lon="3.83101">
        <ele>113.39000064</ele>
        <time>2020-09-26T10:46:21.000Z</time>
      </trkpt>
      <trkpt lat="43.69892" lon="3.831">
        <ele>113.59000064</ele>
        <time>2020-09-26T10:46:22.000Z</time>
      </trkpt>
      <trkpt lat="43.69894" lon="3.831">
        <ele>113.79000064</ele>
        <time>2020-09-26T10:46:23.000Z</time>
      </trkpt>
      <trkpt lat="43.69897" lon="3.831">
        <ele>113.99000064</ele>
        <time>2020-09-26T10:46:24.000Z</time>
      </trkpt>
      <trkpt lat="43.69899" lon="3.83099">
        <ele>114.19000064</ele>
        <time>2020-09-26T10:46:25.000Z</time>
      </trkpt>
      <trkpt lat="43.69902" lon="3.83098">
        <ele>114.39000064</ele>
        <time>2020-09-26T10:46:26.000Z</time>
      </trkpt>
      <trkpt lat="43.69904" lon="3.83098">
        <ele>114.59000064</ele>
        <time>2020-09-26T10:46:27.000Z</time>
      </trkpt>
      <trkpt lat="43.69907" lon="3.83097">
        <ele>114.79000064</ele>
        <time>2020-09-26T10:46:28.000Z</time>
      </trkpt>
      <trkpt lat="43.69909" lon="3.83096">
        <ele>114.99000064</ele>
        <time>2020-09-26T10:46:29.000Z</time>
      </trkpt>
      <trkpt lat="43.69912" lon="3.83095">
        <ele>115.18962127609</ele>
        <time>2020-09-26T10:46:30.000Z</time>
      </trkpt>
      <trkpt lat="43.69914" lon="3.83094">
        <ele>115.389221947</ele>
        <time>2020-09-26T10:46:31.000Z</time>
      </trkpt>
      <trkpt lat="43.69917" lon="3.83093">
        <ele>115.58882261792</ele>
        <time>2020-09-26T10:46:32.000Z</time>
      </trkpt>
      <trkpt lat="43.69919" lon="3.83093">
        <ele>115.78842328883</ele>
        <time>2020-09-26T10:46:33.000Z</time>
      </trkpt>
      <trkpt lat="43.69921" lon="3.83092">
        <ele>115.98802395974</ele>
        <time>2020-09-26T10:46:34.000Z</time>
      </trkpt>
      <trkpt lat="43.69923" lon="3.83092">
        <ele>116.18762463066</ele>
        <time>2020-09-26T10:46:35.000Z</time>
      </trkpt>
      <trkpt lat="43.69926" lon="3.83092">
        <ele>116.38722530157</ele>
        <time>2020-09-26T10:46:36.000Z</time>
      </trkpt>
      <trkpt lat="43.69927" lon="3.83091">
        <ele>116.58682597249</ele>
        <time>2020-09-26T10:46:37.000Z</time>
      </trkpt>
      <trkpt lat="43.69929" lon="3.8309">
        <ele>116.7864266434</ele>
        <time>2020-09-26T10:46:38.000Z</time>
      </trkpt>
      <trkpt lat="43.69931" lon="3.8309">
        <ele>116.98602731431</ele>
        <time>2020-09-26T10:46:39.000Z</time>
      </trkpt>
      <trkpt lat="43.69933" lon="3.83089">
        <ele>117</ele>
        <time>2020-09-26T10:46:40.000Z</time>
      </trkpt>
      <trkpt lat="43.69935" lon="3.83088">
        <ele>117</ele>
        <time>2020-09-26T10:46:41.000Z</time>
      </trkpt>
      <trkpt lat="43.69938" lon="3.83088">
        <ele>117</ele>
        <time>2020-09-26T10:46:42.000Z</time>
      </trkpt>
      <trkpt lat="43.6994" lon="3.83087">
        <ele>117</ele>
        <time>2020-09-26T10:46:43.000Z</time>
      </trkpt>
      <trkpt lat="43.69942" lon="3.83086">
        <ele>117</ele>
        <time>2020-09-26T10:46:44.000Z</time>
      </trkpt>
      <trkpt lat="43.69945" lon="3.83086">
        <ele>117</ele>
        <time>2020-09-26T10:46:45.000Z</time>
      </trkpt>
      <trkpt lat="43.69947" lon="3.83086">
        <ele>117</ele>
        <time>2020-09-26T10:46:46.000Z</time>
      </trkpt>
      <trkpt lat="43.69949" lon="3.83086">
        <ele>117</ele>
        <time>2020-09-26T10:46:47.000Z</time>
      </trkpt>
      <trkpt lat="43.69951" lon="3.83087">
        <ele>117</ele>
        <time>2020-09-26T10:46:48.000Z</time>
      </trkpt>
      <trkpt lat="43.69954" lon="3.83088">
        <ele>117</ele>
        <time>2020-09-26T10:46:49.000Z</time>
      </trkpt>
      <trkpt lat="43.69956" lon="3.8309">
        <ele>117.09500032</ele>
        <time>2020-09-26T10:46:50.000Z</time>
      </trkpt>
      <trkpt lat="43.69958" lon="3.83091">
        <ele>117.19500032</ele>
        <time>2020-09-26T10:46:51.000Z</time>
      </trkpt>
      <trkpt lat="43.6996" lon="3.83092">
        <ele>117.29500032</ele>
        <time>2020-09-26T10:46:52.000Z</time>
      </trkpt>
      <trkpt lat="43.69962" lon="3.83094">
        <ele>117.39500032</ele>
        <time>2020-09-26T10:46:53.000Z</time>
      </trkpt>
      <trkpt lat="43.69964" lon="3.83095">
        <ele>117.49500032</ele>
        <time>2020-09-26T10:46:54.000Z</time>
      </trkpt>
      <trkpt lat="43.69966" lon="3.83096">
        <ele>117.59500032</ele>
        <time>2020-09-26T10:46:55.000Z</time>
      </trkpt>
      <trkpt lat="43.69969" lon="3.83097">
        <ele>117.69500032</ele>
        <time>2020-09-26T10:46:56.000Z</time>
      </trkpt>
      <trkpt lat="43.6997" lon="3.83099">
        <ele>117.79500032</ele>
        <time>2020-09-26T10:46:57.000Z</time>
      </trkpt>
      <trkpt lat="43.69972" lon="3.83101">
        <ele>117.89500032</ele>
        <time>2020-09-26T10:46:58.000Z</time>
      </trkpt>
      <trkpt lat="43.69974" lon="3.83103">
        <ele>117.99500032</ele>
        <time>2020-09-26T10:46:59.000Z</time>
      </trkpt>
      <trkpt lat="43.69975" lon="3.83105">
        <ele>118</ele>
        <time>2020-09-26T10:47:00.000Z</time>
      </trkpt>
      <trkpt lat="43.69977" lon="3.83107">
        <ele>118</ele>
        <time>2020-09-26T10:47:01.000Z</time>
      </trkpt>
      <trkpt lat="43.69978" lon="3.8311">
        <ele>118</ele>
        <time>2020-09-26T10:47:02.000Z</time>
      </trkpt>
      <trkpt lat="43.69979" lon="3.83113">
        <ele>118</ele>
        <time>2020-09-26T10:47:03.000Z</time>
      </trkpt>
      <trkpt lat="43.6998" lon="3.83116">
        <ele>118</ele>
        <time>2020-09-26T10:47:04.000Z</time>
      </trkpt>
      <trkpt lat="43.6998" lon="3.8312">
        <ele>118</ele>
        <time>2020-09-26T10:47:05.000Z</time>
      </trkpt>
      <trkpt lat="43.69981" lon="3.83123">
        <ele>118</ele>
        <time>2020-09-26T10:47:06.000Z</time>
      </trkpt>
      <trkpt lat="43.69981" lon="3.83126">
        <ele>118</ele>
        <time>2020-09-26T10:47:07.000Z</time>
      </trkpt>
      <trkpt lat="43.69981" lon="3.83129">
        <ele>118</ele>
        <time>2020-09-26T10:47:08.000Z</time>
      </trkpt>
      <trkpt lat="43.69981" lon="3.83132">
        <ele>118</ele>
        <time>2020-09-26T10:47:09.000Z</time>
      </trkpt>
      <trkpt lat="43.69981" lon="3.83135">
        <ele>118</ele>
        <time>2020-09-26T10:47:10.000Z</time>
      </trkpt>
      <trkpt lat="43.69981" lon="3.83138">
        <ele>118</ele>
        <time>2020-09-26T10:47:11.000Z</time>
      </trkpt>
      <trkpt lat="43.69981" lon="3.83141">
        <ele>118</ele>
        <time>2020-09-26T10:47:12.000Z</time>
      </trkpt>
      <trkpt lat="43.69981" lon="3.83145">
        <ele>118</ele>
        <time>2020-09-26T10:47:13.000Z</time>
      </trkpt>
      <trkpt lat="43.69981" lon="3.83148">
        <ele>118</ele>
        <time>2020-09-26T10:47:14.000Z</time>
      </trkpt>
      <trkpt lat="43.69981" lon="3.83151">
        <ele>118</ele>
        <time>2020-09-26T10:47:15.000Z</time>
      </trkpt>
      <trkpt lat="43.69981" lon="3.83155">
        <ele>118</ele>
        <time>2020-09-26T10:47:16.000Z</time>
      </trkpt>
      <trkpt lat="43.69981" lon="3.83158">
        <ele>118</ele>
        <time>2020-09-26T10:47:17.000Z</time>
      </trkpt>
      <trkpt lat="43.69982" lon="3.83161">
        <ele>118</ele>
        <time>2020-09-26T10:47:18.000Z</time>
      </trkpt>
      <trkpt lat="43.69982" lon="3.83165">
        <ele>118</ele>
        <time>2020-09-26T10:47:19.000Z</time>
      </trkpt>
      <trkpt lat="43.69982" lon="3.83168">
        <ele>118.09500032</ele>
        <time>2020-09-26T10:47:20.000Z</time>
      </trkpt>
      <trkpt lat="43.69982" lon="3.83171">
        <ele>118.19500032</ele>
        <time>2020-09-26T10:47:21.000Z</time>
      </trkpt>
      <trkpt lat="43.69982" lon="3.83174">
        <ele>118.29500032</ele>
        <time>2020-09-26T10:47:22.000Z</time>
      </trkpt>
      <trkpt lat="43.69982" lon="3.83177">
        <ele>118.39500032</ele>
        <time>2020-09-26T10:47:23.000Z</time>
      </trkpt>
      <trkpt lat="43.69982" lon="3.8318">
        <ele>118.49500032</ele>
        <time>2020-09-26T10:47:24.000Z</time>
      </trkpt>
      <trkpt lat="43.69982" lon="3.83183">
        <ele>118.59500032</ele>
        <time>2020-09-26T10:47:25.000Z</time>
      </trkpt>
      <trkpt lat="43.69981" lon="3.83186">
        <ele>118.69500032</ele>
        <time>2020-09-26T10:47:26.000Z</time>
      </trkpt>
      <trkpt lat="43.69981" lon="3.83189">
        <ele>118.79500032</ele>
        <time>2020-09-26T10:47:27.000Z</time>
      </trkpt>
      <trkpt lat="43.69981" lon="3.83192">
        <ele>118.89500032</ele>
        <time>2020-09-26T10:47:28.000Z</time>
      </trkpt>
      <trkpt lat="43.69981" lon="3.83195">
        <ele>118.99500032</ele>
        <time>2020-09-26T10:47:29.000Z</time>
      </trkpt>
      <trkpt lat="43.69981" lon="3.83199">
        <ele>119.09500032</ele>
        <time>2020-09-26T10:47:30.000Z</time>
      </trkpt>
      <trkpt lat="43.69981" lon="3.83202">
        <ele>119.19500032</ele>
        <time>2020-09-26T10:47:31.000Z</time>
      </trkpt>
      <trkpt lat="43.69981" lon="3.83206">
        <ele>119.29500032</ele>
        <time>2020-09-26T10:47:32.000Z</time>
      </trkpt>
      <trkpt lat="43.69981" lon="3.83209">
        <ele>119.39500032</ele>
        <time>2020-09-26T10:47:33.000Z</time>
      </trkpt>
      <trkpt lat="43.6998" lon="3.83213">
        <ele>119.49500032</ele>
        <time>2020-09-26T10:47:34.000Z</time>
      </trkpt>
      <trkpt lat="43.6998" lon="3.83216">
        <ele>119.59500032</ele>
        <time>2020-09-26T10:47:35.000Z</time>
      </trkpt>
      <trkpt lat="43.6998" lon="3.8322">
        <ele>119.69500032</ele>
        <time>2020-09-26T10:47:36.000Z</time>
      </trkpt>
      <trkpt lat="43.6998" lon="3.83224">
        <ele>119.79500032</ele>
        <time>2020-09-26T10:47:37.000Z</time>
      </trkpt>
      <trkpt lat="43.69979" lon="3.83228">
        <ele>119.89500032</ele>
        <time>2020-09-26T10:47:38.000Z</time>
      </trkpt>
      <trkpt lat="43.69979" lon="3.83231">
        <ele>119.99500032</ele>
        <time>2020-09-26T10:47:39.000Z</time>
      </trkpt>
      <trkpt lat="43.6998" lon="3.83235">
        <ele>119.90499968</ele>
        <time>2020-09-26T10:47:40.000Z</time>
      </trkpt>
      <trkpt lat="43.6998" lon="3.8324">
        <ele>119.80499968</ele>
        <time>2020-09-26T10:47:41.000Z</time>
      </trkpt>
      <trkpt lat="43.6998" lon="3.83245">
        <ele>119.70499968</ele>
        <time>2020-09-26T10:47:42.000Z</time>
      </trkpt>
      <trkpt lat="43.69981" lon="3.83251">
        <ele>119.60499968</ele>
        <time>2020-09-26T10:47:43.000Z</time>
      </trkpt>
      <trkpt lat="43.69981" lon="3.83256">
        <ele>119.50499968</ele>
        <time>2020-09-26T10:47:44.000Z</time>
      </trkpt>
      <trkpt lat="43.69981" lon="3.83262">
        <ele>119.40499968</ele>
        <time>2020-09-26T10:47:45.000Z</time>
      </trkpt>
      <trkpt lat="43.69981" lon="3.83268">
        <ele>119.30499968</ele>
        <time>2020-09-26T10:47:46.000Z</time>
      </trkpt>
      <trkpt lat="43.69981" lon="3.83274">
        <ele>119.20499968</ele>
        <time>2020-09-26T10:47:47.000Z</time>
      </trkpt>
      <trkpt lat="43.69981" lon="3.83279">
        <ele>119.10499968</ele>
        <time>2020-09-26T10:47:48.000Z</time>
      </trkpt>
      <trkpt lat="43.69982" lon="3.83284">
        <ele>119.00499968</ele>
        <time>2020-09-26T10:47:49.000Z</time>
      </trkpt>
      <trkpt lat="43.69982" lon="3.83289">
        <ele>119.09500032</ele>
        <time>2020-09-26T10:47:50.000Z</time>
      </trkpt>
      <trkpt lat="43.69981" lon="3.83293">
        <ele>119.19500032</ele>
        <time>2020-09-26T10:47:51.000Z</time>
      </trkpt>
      <trkpt lat="43.6998" lon="3.83297">
        <ele>119.29500032</ele>
        <time>2020-09-26T10:47:52.000Z</time>
      </trkpt>
      <trkpt lat="43.6998" lon="3.83301">
        <ele>119.39500032</ele>
        <time>2020-09-26T10:47:53.000Z</time>
      </trkpt>
      <trkpt lat="43.6998" lon="3.83305">
        <ele>119.49500032</ele>
        <time>2020-09-26T10:47:54.000Z</time>
      </trkpt>
      <trkpt lat="43.6998" lon="3.83309">
        <ele>119.59500032</ele>
        <time>2020-09-26T10:47:55.000Z</time>
      </trkpt>
      <trkpt lat="43.6998" lon="3.83313">
        <ele>119.69500032</ele>
        <time>2020-09-26T10:47:56.000Z</time>
      </trkpt>
      <trkpt lat="43.6998" lon="3.83316">
        <ele>119.79500032</ele>
        <time>2020-09-26T10:47:57.000Z</time>
      </trkpt>
      <trkpt lat="43.6998" lon="3.83319">
        <ele>119.89500032</ele>
        <time>2020-09-26T10:47:58.000Z</time>
      </trkpt>
      <trkpt lat="43.69981" lon="3.83322">
        <ele>119.99500032</ele>
        <time>2020-09-26T10:47:59.000Z</time>
      </trkpt>
      <trkpt lat="43.69982" lon="3.83326">
        <ele>119.60999936</ele>
        <time>2020-09-26T10:48:01.000Z</time>
      </trkpt>
      <trkpt lat="43.69982" lon="3.83329">
        <ele>119.20999936</ele>
        <time>2020-09-26T10:48:03.000Z</time>
      </trkpt>
      <trkpt lat="43.69982" lon="3.83331">
        <ele>118.80999936</ele>
        <time>2020-09-26T10:48:05.000Z</time>
      </trkpt>
      <trkpt lat="43.69982" lon="3.83335">
        <ele>118.40999936</ele>
        <time>2020-09-26T10:48:07.000Z</time>
      </trkpt>
      <trkpt lat="43.69981" lon="3.8334">
        <ele>118.00999936</ele>
        <time>2020-09-26T10:48:09.000Z</time>
      </trkpt>
      <trkpt lat="43.69981" lon="3.83343">
        <ele>117.80999936</ele>
        <time>2020-09-26T10:48:10.000Z</time>
      </trkpt>
      <trkpt lat="43.69982" lon="3.83348">
        <ele>117.40999936</ele>
        <time>2020-09-26T10:48:12.000Z</time>
      </trkpt>
      <trkpt lat="43.69981" lon="3.83351">
        <ele>117.20999936</ele>
        <time>2020-09-26T10:48:13.000Z</time>
      </trkpt>
      <trkpt lat="43.6998" lon="3.83354">
        <ele>117.00999936</ele>
        <time>2020-09-26T10:48:14.000Z</time>
      </trkpt>
      <trkpt lat="43.6998" lon="3.83357">
        <ele>116.80999936</ele>
        <time>2020-09-26T10:48:15.000Z</time>
      </trkpt>
      <trkpt lat="43.6998" lon="3.83358">
        <ele>116</ele>
        <time>2020-09-26T10:48:20.000Z</time>
      </trkpt>
      <trkpt lat="43.69983" lon="3.83364">
        <ele>116</ele>
        <time>2020-09-26T10:48:39.000Z</time>
      </trkpt>
      <trkpt lat="43.69984" lon="3.83367">
        <ele>116</ele>
        <time>2020-09-26T10:48:40.000Z</time>
      </trkpt>
      <trkpt lat="43.69986" lon="3.8337">
        <ele>116</ele>
        <time>2020-09-26T10:48:41.000Z</time>
      </trkpt>
      <trkpt lat="43.69987" lon="3.83372">
        <ele>116</ele>
        <time>2020-09-26T10:48:42.000Z</time>
      </trkpt>
      <trkpt lat="43.69989" lon="3.83374">
        <ele>116</ele>
        <time>2020-09-26T10:48:43.000Z</time>
      </trkpt>
      <trkpt lat="43.69991" lon="3.83376">
        <ele>116</ele>
        <time>2020-09-26T10:48:44.000Z</time>
      </trkpt>
      <trkpt lat="43.69992" lon="3.83379">
        <ele>116</ele>
        <time>2020-09-26T10:48:45.000Z</time>
      </trkpt>
      <trkpt lat="43.69993" lon="3.83382">
        <ele>116</ele>
        <time>2020-09-26T10:48:46.000Z</time>
      </trkpt>
      <trkpt lat="43.69993" lon="3.83385">
        <ele>116</ele>
        <time>2020-09-26T10:48:47.000Z</time>
      </trkpt>
      <trkpt lat="43.69994" lon="3.83388">
        <ele>116</ele>
        <time>2020-09-26T10:48:48.000Z</time>
      </trkpt>
      <trkpt lat="43.69994" lon="3.83391">
        <ele>116</ele>
        <time>2020-09-26T10:48:49.000Z</time>
      </trkpt>
      <trkpt lat="43.69994" lon="3.83394">
        <ele>116.18464573638</ele>
        <time>2020-09-26T10:48:50.000Z</time>
      </trkpt>
      <trkpt lat="43.69994" lon="3.83397">
        <ele>116.37900901472</ele>
        <time>2020-09-26T10:48:51.000Z</time>
      </trkpt>
      <trkpt lat="43.69994" lon="3.83399">
        <ele>116.57337229306</ele>
        <time>2020-09-26T10:48:52.000Z</time>
      </trkpt>
      <trkpt lat="43.69994" lon="3.83402">
        <ele>116.7677355714</ele>
        <time>2020-09-26T10:48:53.000Z</time>
      </trkpt>
      <trkpt lat="43.69995" lon="3.83407">
        <ele>117.15646212808</ele>
        <time>2020-09-26T10:48:55.000Z</time>
      </trkpt>
      <trkpt lat="43.69996" lon="3.83411">
        <ele>117.54518868476</ele>
        <time>2020-09-26T10:48:57.000Z</time>
      </trkpt>
      <trkpt lat="43.69997" lon="3.83413">
        <ele>117.7395519631</ele>
        <time>2020-09-26T10:48:58.000Z</time>
      </trkpt>
      <trkpt lat="43.69999" lon="3.83415">
        <ele>117.93391524144</ele>
        <time>2020-09-26T10:48:59.000Z</time>
      </trkpt>
      <trkpt lat="43.70001" lon="3.83417">
        <ele>118</ele>
        <time>2020-09-26T10:49:00.000Z</time>
      </trkpt>
      <trkpt lat="43.70004" lon="3.83419">
        <ele>118</ele>
        <time>2020-09-26T10:49:01.000Z</time>
      </trkpt>
      <trkpt lat="43.70007" lon="3.83421">
        <ele>118</ele>
        <time>2020-09-26T10:49:02.000Z</time>
      </trkpt>
      <trkpt lat="43.70009" lon="3.83424">
        <ele>118</ele>
        <time>2020-09-26T10:49:03.000Z</time>
      </trkpt>
      <trkpt lat="43.70011" lon="3.83427">
        <ele>118</ele>
        <time>2020-09-26T10:49:04.000Z</time>
      </trkpt>
      <trkpt lat="43.70014" lon="3.83429">
        <ele>118</ele>
        <time>2020-09-26T10:49:05.000Z</time>
      </trkpt>
      <trkpt lat="43.70018" lon="3.8343">
        <ele>118</ele>
        <time>2020-09-26T10:49:06.000Z</time>
      </trkpt>
      <trkpt lat="43.70021" lon="3.83432">
        <ele>118</ele>
        <time>2020-09-26T10:49:07.000Z</time>
      </trkpt>
      <trkpt lat="43.70025" lon="3.83433">
        <ele>118</ele>
        <time>2020-09-26T10:49:08.000Z</time>
      </trkpt>
      <trkpt lat="43.70028" lon="3.83434">
        <ele>118</ele>
        <time>2020-09-26T10:49:09.000Z</time>
      </trkpt>
      <trkpt lat="43.70031" lon="3.83434">
        <ele>118.07179550464</ele>
        <time>2020-09-26T10:49:10.000Z</time>
      </trkpt>
      <trkpt lat="43.70035" lon="3.83435">
        <ele>118.17435957354</ele>
        <time>2020-09-26T10:49:11.000Z</time>
      </trkpt>
      <trkpt lat="43.70038" lon="3.83435">
        <ele>118.27692364245</ele>
        <time>2020-09-26T10:49:12.000Z</time>
      </trkpt>
      <trkpt lat="43.70041" lon="3.83436">
        <ele>118.37948771135</ele>
        <time>2020-09-26T10:49:13.000Z</time>
      </trkpt>
      <trkpt lat="43.70044" lon="3.83437">
        <ele>118.48205178025</ele>
        <time>2020-09-26T10:49:14.000Z</time>
      </trkpt>
      <trkpt lat="43.70047" lon="3.83439">
        <ele>118.58461584915</ele>
        <time>2020-09-26T10:49:15.000Z</time>
      </trkpt>
      <trkpt lat="43.70049" lon="3.83441">
        <ele>118.68717991805</ele>
        <time>2020-09-26T10:49:16.000Z</time>
      </trkpt>
      <trkpt lat="43.7005" lon="3.83443">
        <ele>118.78974398696</ele>
        <time>2020-09-26T10:49:17.000Z</time>
      </trkpt>
      <trkpt lat="43.70051" lon="3.83446">
        <ele>118.89230805586</ele>
        <time>2020-09-26T10:49:18.000Z</time>
      </trkpt>
      <trkpt lat="43.70051" lon="3.83449">
        <ele>118.99487212476</ele>
        <time>2020-09-26T10:49:19.000Z</time>
      </trkpt>
      <trkpt lat="43.70051" lon="3.83452">
        <ele>119</ele>
        <time>2020-09-26T10:49:20.000Z</time>
      </trkpt>
      <trkpt lat="43.70051" lon="3.83455">
        <ele>119</ele>
        <time>2020-09-26T10:49:21.000Z</time>
      </trkpt>
      <trkpt lat="43.70051" lon="3.83459">
        <ele>119</ele>
        <time>2020-09-26T10:49:22.000Z</time>
      </trkpt>
      <trkpt lat="43.70051" lon="3.83462">
        <ele>119</ele>
        <time>2020-09-26T10:49:23.000Z</time>
      </trkpt>
      <trkpt lat="43.7005" lon="3.83465">
        <ele>119</ele>
        <time>2020-09-26T10:49:24.000Z</time>
      </trkpt>
      <trkpt lat="43.7005" lon="3.83469">
        <ele>119</ele>
        <time>2020-09-26T10:49:25.000Z</time>
      </trkpt>
      <trkpt lat="43.7005" lon="3.83473">
        <ele>119</ele>
        <time>2020-09-26T10:49:26.000Z</time>
      </trkpt>
      <trkpt lat="43.70049" lon="3.83476">
        <ele>119</ele>
        <time>2020-09-26T10:49:27.000Z</time>
      </trkpt>
      <trkpt lat="43.70049" lon="3.8348">
        <ele>119</ele>
        <time>2020-09-26T10:49:28.000Z</time>
      </trkpt>
      <trkpt lat="43.70049" lon="3.83483">
        <ele>119</ele>
        <time>2020-09-26T10:49:29.000Z</time>
      </trkpt>
      <trkpt lat="43.70049" lon="3.83487">
        <ele>119.26603010179</ele>
        <time>2020-09-26T10:49:31.000Z</time>
      </trkpt>
      <trkpt lat="43.70049" lon="3.83487">
        <ele>119.94815744852</ele>
        <time>2020-09-26T10:49:36.000Z</time>
      </trkpt>
      <trkpt lat="43.70057" lon="3.8349">
        <ele>120</ele>
        <time>2020-09-26T10:49:55.000Z</time>
      </trkpt>
      <trkpt lat="43.70059" lon="3.83491">
        <ele>120</ele>
        <time>2020-09-26T10:49:56.000Z</time>
      </trkpt>
      <trkpt lat="43.70061" lon="3.83492">
        <ele>120</ele>
        <time>2020-09-26T10:49:57.000Z</time>
      </trkpt>
      <trkpt lat="43.70063" lon="3.83492">
        <ele>120</ele>
        <time>2020-09-26T10:49:58.000Z</time>
      </trkpt>
      <trkpt lat="43.70065" lon="3.83493">
        <ele>120</ele>
        <time>2020-09-26T10:49:59.000Z</time>
      </trkpt>
      <trkpt lat="43.70066" lon="3.83494">
        <ele>120</ele>
        <time>2020-09-26T10:50:00.000Z</time>
      </trkpt>
      <trkpt lat="43.70068" lon="3.83495">
        <ele>120</ele>
        <time>2020-09-26T10:50:01.000Z</time>
      </trkpt>
      <trkpt lat="43.7007" lon="3.83496">
        <ele>120</ele>
        <time>2020-09-26T10:50:02.000Z</time>
      </trkpt>
      <trkpt lat="43.70072" lon="3.83495">
        <ele>120</ele>
        <time>2020-09-26T10:50:03.000Z</time>
      </trkpt>
      <trkpt lat="43.70074" lon="3.83495">
        <ele>120</ele>
        <time>2020-09-26T10:50:04.000Z</time>
      </trkpt>
      <trkpt lat="43.70076" lon="3.83494">
        <ele>120</ele>
        <time>2020-09-26T10:50:05.000Z</time>
      </trkpt>
      <trkpt lat="43.70078" lon="3.83493">
        <ele>120.09232286819</ele>
        <time>2020-09-26T10:50:06.000Z</time>
      </trkpt>
      <trkpt lat="43.70081" lon="3.83492">
        <ele>120.18950450736</ele>
        <time>2020-09-26T10:50:07.000Z</time>
      </trkpt>
      <trkpt lat="43.70083" lon="3.83491">
        <ele>120.28668614653</ele>
        <time>2020-09-26T10:50:08.000Z</time>
      </trkpt>
      <trkpt lat="43.70085" lon="3.8349">
        <ele>120.3838677857</ele>
        <time>2020-09-26T10:50:09.000Z</time>
      </trkpt>
      <trkpt lat="43.70088" lon="3.83489">
        <ele>120.48104942487</ele>
        <time>2020-09-26T10:50:10.000Z</time>
      </trkpt>
      <trkpt lat="43.7009" lon="3.83488">
        <ele>120.57823106404</ele>
        <time>2020-09-26T10:50:11.000Z</time>
      </trkpt>
      <trkpt lat="43.70093" lon="3.83487">
        <ele>120.67541270321</ele>
        <time>2020-09-26T10:50:12.000Z</time>
      </trkpt>
      <trkpt lat="43.70095" lon="3.83485">
        <ele>120.77259434238</ele>
        <time>2020-09-26T10:50:13.000Z</time>
      </trkpt>
      <trkpt lat="43.70096" lon="3.83484">
        <ele>120.86977598155</ele>
        <time>2020-09-26T10:50:14.000Z</time>
      </trkpt>
      <trkpt lat="43.70098" lon="3.83482">
        <ele>120.96695762072</ele>
        <time>2020-09-26T10:50:15.000Z</time>
      </trkpt>
      <trkpt lat="43.701" lon="3.8348">
        <ele>121</ele>
        <time>2020-09-26T10:50:16.000Z</time>
      </trkpt>
      <trkpt lat="43.70102" lon="3.83479">
        <ele>121</ele>
        <time>2020-09-26T10:50:17.000Z</time>
      </trkpt>
      <trkpt lat="43.70104" lon="3.83478">
        <ele>121</ele>
        <time>2020-09-26T10:50:18.000Z</time>
      </trkpt>
      <trkpt lat="43.70107" lon="3.83477">
        <ele>121</ele>
        <time>2020-09-26T10:50:19.000Z</time>
      </trkpt>
      <trkpt lat="43.70109" lon="3.83476">
        <ele>121</ele>
        <time>2020-09-26T10:50:20.000Z</time>
      </trkpt>
      <trkpt lat="43.70112" lon="3.83474">
        <ele>121</ele>
        <time>2020-09-26T10:50:21.000Z</time>
      </trkpt>
      <trkpt lat="43.70115" lon="3.83473">
        <ele>121</ele>
        <time>2020-09-26T10:50:22.000Z</time>
      </trkpt>
      <trkpt lat="43.70118" lon="3.83471">
        <ele>121</ele>
        <time>2020-09-26T10:50:23.000Z</time>
      </trkpt>
      <trkpt lat="43.7012" lon="3.83469">
        <ele>121</ele>
        <time>2020-09-26T10:50:24.000Z</time>
      </trkpt>
      <trkpt lat="43.70123" lon="3.83468">
        <ele>121</ele>
        <time>2020-09-26T10:50:25.000Z</time>
      </trkpt>
      <trkpt lat="43.70126" lon="3.83466">
        <ele>120.90528385873</ele>
        <time>2020-09-26T10:50:26.000Z</time>
      </trkpt>
      <trkpt lat="43.70129" lon="3.83465">
        <ele>120.80558299323</ele>
        <time>2020-09-26T10:50:27.000Z</time>
      </trkpt>
      <trkpt lat="43.70132" lon="3.83464">
        <ele>120.70588212773</ele>
        <time>2020-09-26T10:50:28.000Z</time>
      </trkpt>
      <trkpt lat="43.70135" lon="3.83462">
        <ele>120.60618126223</ele>
        <time>2020-09-26T10:50:29.000Z</time>
      </trkpt>
      <trkpt lat="43.70138" lon="3.83461">
        <ele>120.50648039674</ele>
        <time>2020-09-26T10:50:30.000Z</time>
      </trkpt>
      <trkpt lat="43.70141" lon="3.83459">
        <ele>120.40677953124</ele>
        <time>2020-09-26T10:50:31.000Z</time>
      </trkpt>
      <trkpt lat="43.70143" lon="3.83458">
        <ele>120.30707866574</ele>
        <time>2020-09-26T10:50:32.000Z</time>
      </trkpt>
      <trkpt lat="43.70146" lon="3.83457">
        <ele>120.20737780024</ele>
        <time>2020-09-26T10:50:33.000Z</time>
      </trkpt>
      <trkpt lat="43.70149" lon="3.83455">
        <ele>120.10767693474</ele>
        <time>2020-09-26T10:50:34.000Z</time>
      </trkpt>
      <trkpt lat="43.70152" lon="3.83453">
        <ele>120.00797606924</ele>
        <time>2020-09-26T10:50:35.000Z</time>
      </trkpt>
      <trkpt lat="43.70155" lon="3.83451">
        <ele>120.09227686011</ele>
        <time>2020-09-26T10:50:36.000Z</time>
      </trkpt>
      <trkpt lat="43.70158" lon="3.8345">
        <ele>120.19257779501</ele>
        <time>2020-09-26T10:50:37.000Z</time>
      </trkpt>
      <trkpt lat="43.70161" lon="3.83448">
        <ele>120.29287872991</ele>
        <time>2020-09-26T10:50:38.000Z</time>
      </trkpt>
      <trkpt lat="43.70164" lon="3.83445">
        <ele>120.39317966481</ele>
        <time>2020-09-26T10:50:39.000Z</time>
      </trkpt>
      <trkpt lat="43.70166" lon="3.83443">
        <ele>120.49348059971</ele>
        <time>2020-09-26T10:50:40.000Z</time>
      </trkpt>
      <trkpt lat="43.70169" lon="3.83441">
        <ele>120.59378153461</ele>
        <time>2020-09-26T10:50:41.000Z</time>
      </trkpt>
      <trkpt lat="43.70172" lon="3.83439">
        <ele>120.69408246951</ele>
        <time>2020-09-26T10:50:42.000Z</time>
      </trkpt>
      <trkpt lat="43.70174" lon="3.83437">
        <ele>120.79438340442</ele>
        <time>2020-09-26T10:50:43.000Z</time>
      </trkpt>
      <trkpt lat="43.70177" lon="3.83435">
        <ele>120.89468433932</ele>
        <time>2020-09-26T10:50:44.000Z</time>
      </trkpt>
      <trkpt lat="43.7018" lon="3.83434">
        <ele>120.99498527422</ele>
        <time>2020-09-26T10:50:45.000Z</time>
      </trkpt>
      <trkpt lat="43.70183" lon="3.83432">
        <ele>120.90499968</ele>
        <time>2020-09-26T10:50:46.000Z</time>
      </trkpt>
      <trkpt lat="43.70186" lon="3.8343">
        <ele>120.80499968</ele>
        <time>2020-09-26T10:50:47.000Z</time>
      </trkpt>
      <trkpt lat="43.70189" lon="3.83428">
        <ele>120.70499968</ele>
        <time>2020-09-26T10:50:48.000Z</time>
      </trkpt>
      <trkpt lat="43.70192" lon="3.83426">
        <ele>120.60499968</ele>
        <time>2020-09-26T10:50:49.000Z</time>
      </trkpt>
      <trkpt lat="43.70194" lon="3.83424">
        <ele>120.50499968</ele>
        <time>2020-09-26T10:50:50.000Z</time>
      </trkpt>
      <trkpt lat="43.70197" lon="3.83422">
        <ele>120.40499968</ele>
        <time>2020-09-26T10:50:51.000Z</time>
      </trkpt>
      <trkpt lat="43.702" lon="3.83419">
        <ele>120.30499968</ele>
        <time>2020-09-26T10:50:52.000Z</time>
      </trkpt>
      <trkpt lat="43.70202" lon="3.83416">
        <ele>120.20499968</ele>
        <time>2020-09-26T10:50:53.000Z</time>
      </trkpt>
      <trkpt lat="43.70205" lon="3.83413">
        <ele>120.10499968</ele>
        <time>2020-09-26T10:50:54.000Z</time>
      </trkpt>
      <trkpt lat="43.70208" lon="3.83411">
        <ele>120.00499968</ele>
        <time>2020-09-26T10:50:55.000Z</time>
      </trkpt>
      <trkpt lat="43.7021" lon="3.83408">
        <ele>120.09500032</ele>
        <time>2020-09-26T10:50:56.000Z</time>
      </trkpt>
      <trkpt lat="43.70212" lon="3.83405">
        <ele>120.19500032</ele>
        <time>2020-09-26T10:50:57.000Z</time>
      </trkpt>
      <trkpt lat="43.70214" lon="3.83402">
        <ele>120.29500032</ele>
        <time>2020-09-26T10:50:58.000Z</time>
      </trkpt>
      <trkpt lat="43.70216" lon="3.834">
        <ele>120.39500032</ele>
        <time>2020-09-26T10:50:59.000Z</time>
      </trkpt>
      <trkpt lat="43.70218" lon="3.83397">
        <ele>120.49500032</ele>
        <time>2020-09-26T10:51:00.000Z</time>
      </trkpt>
      <trkpt lat="43.7022" lon="3.83396">
        <ele>120.59500032</ele>
        <time>2020-09-26T10:51:01.000Z</time>
      </trkpt>
      <trkpt lat="43.70222" lon="3.83395">
        <ele>120.69500032</ele>
        <time>2020-09-26T10:51:02.000Z</time>
      </trkpt>
      <trkpt lat="43.70225" lon="3.83396">
        <ele>120.79500032</ele>
        <time>2020-09-26T10:51:03.000Z</time>
      </trkpt>
      <trkpt lat="43.70227" lon="3.83398">
        <ele>120.89500032</ele>
        <time>2020-09-26T10:51:04.000Z</time>
      </trkpt>
      <trkpt lat="43.70229" lon="3.83401">
        <ele>120.99500032</ele>
        <time>2020-09-26T10:51:05.000Z</time>
      </trkpt>
      <trkpt lat="43.70231" lon="3.83403">
        <ele>120.80999936</ele>
        <time>2020-09-26T10:51:06.000Z</time>
      </trkpt>
      <trkpt lat="43.70234" lon="3.83406">
        <ele>120.60999936</ele>
        <time>2020-09-26T10:51:07.000Z</time>
      </trkpt>
      <trkpt lat="43.70236" lon="3.8341">
        <ele>120.40999936</ele>
        <time>2020-09-26T10:51:08.000Z</time>
      </trkpt>
      <trkpt lat="43.70238" lon="3.83416">
        <ele>120.20999936</ele>
        <time>2020-09-26T10:51:09.000Z</time>
      </trkpt>
      <trkpt lat="43.70239" lon="3.83422">
        <ele>120.00999936</ele>
        <time>2020-09-26T10:51:10.000Z</time>
      </trkpt>
      <trkpt lat="43.70241" lon="3.83428">
        <ele>119.80999936</ele>
        <time>2020-09-26T10:51:11.000Z</time>
      </trkpt>
      <trkpt lat="43.70244" lon="3.83434">
        <ele>119.60999936</ele>
        <time>2020-09-26T10:51:12.000Z</time>
      </trkpt>
      <trkpt lat="43.70246" lon="3.83439">
        <ele>119.40999936</ele>
        <time>2020-09-26T10:51:13.000Z</time>
      </trkpt>
      <trkpt lat="43.70249" lon="3.83443">
        <ele>119.20999936</ele>
        <time>2020-09-26T10:51:14.000Z</time>
      </trkpt>
      <trkpt lat="43.70249" lon="3.83447">
        <ele>119.00999936</ele>
        <time>2020-09-26T10:51:15.000Z</time>
      </trkpt>
      <trkpt lat="43.70251" lon="3.83451">
        <ele>118.80999936</ele>
        <time>2020-09-26T10:51:16.000Z</time>
      </trkpt>
      <trkpt lat="43.70253" lon="3.83455">
        <ele>118.60999936</ele>
        <time>2020-09-26T10:51:17.000Z</time>
      </trkpt>
      <trkpt lat="43.70254" lon="3.83459">
        <ele>118.40999936</ele>
        <time>2020-09-26T10:51:18.000Z</time>
      </trkpt>
      <trkpt lat="43.70256" lon="3.83464">
        <ele>118.20999936</ele>
        <time>2020-09-26T10:51:19.000Z</time>
      </trkpt>
      <trkpt lat="43.70256" lon="3.8347">
        <ele>118.00999936</ele>
        <time>2020-09-26T10:51:20.000Z</time>
      </trkpt>
      <trkpt lat="43.70257" lon="3.83475">
        <ele>117.80999936</ele>
        <time>2020-09-26T10:51:21.000Z</time>
      </trkpt>
      <trkpt lat="43.70257" lon="3.83481">
        <ele>117.60999936</ele>
        <time>2020-09-26T10:51:22.000Z</time>
      </trkpt>
      <trkpt lat="43.70258" lon="3.83486">
        <ele>117.40999936</ele>
        <time>2020-09-26T10:51:23.000Z</time>
      </trkpt>
      <trkpt lat="43.70258" lon="3.83492">
        <ele>117.20999936</ele>
        <time>2020-09-26T10:51:24.000Z</time>
      </trkpt>
      <trkpt lat="43.70258" lon="3.83498">
        <ele>117.00999936</ele>
        <time>2020-09-26T10:51:25.000Z</time>
      </trkpt>
      <trkpt lat="43.70259" lon="3.83504">
        <ele>116.72086122231</ele>
        <time>2020-09-26T10:51:26.000Z</time>
      </trkpt>
      <trkpt lat="43.70259" lon="3.8351">
        <ele>116.42703191974</ele>
        <time>2020-09-26T10:51:27.000Z</time>
      </trkpt>
      <trkpt lat="43.70259" lon="3.83517">
        <ele>116.13320261716</ele>
        <time>2020-09-26T10:51:28.000Z</time>
      </trkpt>
      <trkpt lat="43.7026" lon="3.83523">
        <ele>115.83937331459</ele>
        <time>2020-09-26T10:51:29.000Z</time>
      </trkpt>
      <trkpt lat="43.7026" lon="3.83529">
        <ele>115.54554401203</ele>
        <time>2020-09-26T10:51:30.000Z</time>
      </trkpt>
      <trkpt lat="43.7026" lon="3.83536">
        <ele>115.25171470946</ele>
        <time>2020-09-26T10:51:31.000Z</time>
      </trkpt>
      <trkpt lat="43.70261" lon="3.83543">
        <ele>114.95788540688</ele>
        <time>2020-09-26T10:51:32.000Z</time>
      </trkpt>
      <trkpt lat="43.70261" lon="3.83549">
        <ele>114.66405610432</ele>
        <time>2020-09-26T10:51:33.000Z</time>
      </trkpt>
      <trkpt lat="43.70262" lon="3.83557">
        <ele>114.37022680175</ele>
        <time>2020-09-26T10:51:34.000Z</time>
      </trkpt>
      <trkpt lat="43.70262" lon="3.83564">
        <ele>114.07639749918</ele>
        <time>2020-09-26T10:51:35.000Z</time>
      </trkpt>
      <trkpt lat="43.70262" lon="3.83571">
        <ele>113.78019978151</ele>
        <time>2020-09-26T10:51:36.000Z</time>
      </trkpt>
      <trkpt lat="43.70263" lon="3.83579">
        <ele>113.48316989033</ele>
        <time>2020-09-26T10:51:37.000Z</time>
      </trkpt>
      <trkpt lat="43.70263" lon="3.83587">
        <ele>113.18613999914</ele>
        <time>2020-09-26T10:51:38.000Z</time>
      </trkpt>
      <trkpt lat="43.70263" lon="3.83595">
        <ele>112.88911010795</ele>
        <time>2020-09-26T10:51:39.000Z</time>
      </trkpt>
      <trkpt lat="43.70264" lon="3.83604">
        <ele>112.59208021676</ele>
        <time>2020-09-26T10:51:40.000Z</time>
      </trkpt>
      <trkpt lat="43.70264" lon="3.83612">
        <ele>112.29505032558</ele>
        <time>2020-09-26T10:51:41.000Z</time>
      </trkpt>
      <trkpt lat="43.70264" lon="3.83621">
        <ele>111.99802043439</ele>
        <time>2020-09-26T10:51:42.000Z</time>
      </trkpt>
      <trkpt lat="43.70264" lon="3.83629">
        <ele>111.7009905432</ele>
        <time>2020-09-26T10:51:43.000Z</time>
      </trkpt>
      <trkpt lat="43.70265" lon="3.83638">
        <ele>111.40396065202</ele>
        <time>2020-09-26T10:51:44.000Z</time>
      </trkpt>
      <trkpt lat="43.70265" lon="3.83647">
        <ele>111.10693076083</ele>
        <time>2020-09-26T10:51:45.000Z</time>
      </trkpt>
      <trkpt lat="43.70266" lon="3.83656">
        <ele>110.93395250657</ele>
        <time>2020-09-26T10:51:46.000Z</time>
      </trkpt>
      <trkpt lat="43.70266" lon="3.83665">
        <ele>110.83075329808</ele>
        <time>2020-09-26T10:51:47.000Z</time>
      </trkpt>
      <trkpt lat="43.70267" lon="3.83674">
        <ele>110.7275540896</ele>
        <time>2020-09-26T10:51:48.000Z</time>
      </trkpt>
      <trkpt lat="43.70268" lon="3.83683">
        <ele>110.62435488111</ele>
        <time>2020-09-26T10:51:49.000Z</time>
      </trkpt>
      <trkpt lat="43.70268" lon="3.83693">
        <ele>110.52115567262</ele>
        <time>2020-09-26T10:51:50.000Z</time>
      </trkpt>
      <trkpt lat="43.70267" lon="3.83701">
        <ele>110.41795646413</ele>
        <time>2020-09-26T10:51:51.000Z</time>
      </trkpt>
      <trkpt lat="43.70267" lon="3.8371">
        <ele>110.31475725565</ele>
        <time>2020-09-26T10:51:52.000Z</time>
      </trkpt>
      <trkpt lat="43.70267" lon="3.83717">
        <ele>110.21155804716</ele>
        <time>2020-09-26T10:51:53.000Z</time>
      </trkpt>
      <trkpt lat="43.70268" lon="3.83723">
        <ele>110.10835883867</ele>
        <time>2020-09-26T10:51:54.000Z</time>
      </trkpt>
      <trkpt lat="43.70269" lon="3.83728">
        <ele>110.00515963019</ele>
        <time>2020-09-26T10:51:55.000Z</time>
      </trkpt>
      <trkpt lat="43.7027" lon="3.83732">
        <ele>110.19000064</ele>
        <time>2020-09-26T10:51:56.000Z</time>
      </trkpt>
      <trkpt lat="43.70271" lon="3.83735">
        <ele>110.39000064</ele>
        <time>2020-09-26T10:51:57.000Z</time>
      </trkpt>
      <trkpt lat="43.70273" lon="3.83739">
        <ele>110.59000064</ele>
        <time>2020-09-26T10:51:58.000Z</time>
      </trkpt>
      <trkpt lat="43.70274" lon="3.83742">
        <ele>110.79000064</ele>
        <time>2020-09-26T10:51:59.000Z</time>
      </trkpt>
      <trkpt lat="43.70275" lon="3.83745">
        <ele>110.99000064</ele>
        <time>2020-09-26T10:52:00.000Z</time>
      </trkpt>
      <trkpt lat="43.70276" lon="3.83747">
        <ele>111.19000064</ele>
        <time>2020-09-26T10:52:01.000Z</time>
      </trkpt>
      <trkpt lat="43.70277" lon="3.8375">
        <ele>111.39000064</ele>
        <time>2020-09-26T10:52:02.000Z</time>
      </trkpt>
      <trkpt lat="43.70279" lon="3.83753">
        <ele>111.59000064</ele>
        <time>2020-09-26T10:52:03.000Z</time>
      </trkpt>
      <trkpt lat="43.7028" lon="3.83755">
        <ele>111.79000064</ele>
        <time>2020-09-26T10:52:04.000Z</time>
      </trkpt>
      <trkpt lat="43.70281" lon="3.83757">
        <ele>111.99000064</ele>
        <time>2020-09-26T10:52:05.000Z</time>
      </trkpt>
      <trkpt lat="43.70283" lon="3.83759">
        <ele>112</ele>
        <time>2020-09-26T10:52:06.000Z</time>
      </trkpt>
      <trkpt lat="43.70284" lon="3.83761">
        <ele>112</ele>
        <time>2020-09-26T10:52:07.000Z</time>
      </trkpt>
      <trkpt lat="43.70285" lon="3.83764">
        <ele>112</ele>
        <time>2020-09-26T10:52:08.000Z</time>
      </trkpt>
      <trkpt lat="43.70286" lon="3.83766">
        <ele>112</ele>
        <time>2020-09-26T10:52:09.000Z</time>
      </trkpt>
      <trkpt lat="43.70289" lon="3.83767">
        <ele>112</ele>
        <time>2020-09-26T10:52:11.000Z</time>
      </trkpt>
      <trkpt lat="43.70289" lon="3.83762">
        <ele>112</ele>
        <time>2020-09-26T10:52:13.000Z</time>
      </trkpt>
      <trkpt lat="43.70287" lon="3.8376">
        <ele>112</ele>
        <time>2020-09-26T10:52:14.000Z</time>
      </trkpt>
      <trkpt lat="43.70284" lon="3.83758">
        <ele>112</ele>
        <time>2020-09-26T10:52:15.000Z</time>
      </trkpt>
      <trkpt lat="43.70282" lon="3.83755">
        <ele>111.90590529541</ele>
        <time>2020-09-26T10:52:16.000Z</time>
      </trkpt>
      <trkpt lat="43.7028" lon="3.83752">
        <ele>111.80580522737</ele>
        <time>2020-09-26T10:52:17.000Z</time>
      </trkpt>
      <trkpt lat="43.70277" lon="3.83748">
        <ele>111.70570515933</ele>
        <time>2020-09-26T10:52:18.000Z</time>
      </trkpt>
      <trkpt lat="43.70275" lon="3.83744">
        <ele>111.6056050913</ele>
        <time>2020-09-26T10:52:19.000Z</time>
      </trkpt>
      <trkpt lat="43.70273" lon="3.8374">
        <ele>111.50550502326</ele>
        <time>2020-09-26T10:52:20.000Z</time>
      </trkpt>
      <trkpt lat="43.70271" lon="3.83735">
        <ele>111.40540495523</ele>
        <time>2020-09-26T10:52:21.000Z</time>
      </trkpt>
      <trkpt lat="43.7027" lon="3.8373">
        <ele>111.30530488719</ele>
        <time>2020-09-26T10:52:22.000Z</time>
      </trkpt>
      <trkpt lat="43.70268" lon="3.83724">
        <ele>111.20520481915</ele>
        <time>2020-09-26T10:52:23.000Z</time>
      </trkpt>
      <trkpt lat="43.70266" lon="3.83716">
        <ele>111.10510475112</ele>
        <time>2020-09-26T10:52:24.000Z</time>
      </trkpt>
      <trkpt lat="43.70265" lon="3.83709">
        <ele>111.00500468308</ele>
        <time>2020-09-26T10:52:25.000Z</time>
      </trkpt>
      <trkpt lat="43.70265" lon="3.83704">
        <ele>111</ele>
        <time>2020-09-26T10:52:26.000Z</time>
      </trkpt>
      <trkpt lat="43.70268" lon="3.83701">
        <ele>111</ele>
        <time>2020-09-26T10:52:27.000Z</time>
      </trkpt>
      <trkpt lat="43.70272" lon="3.83701">
        <ele>111</ele>
        <time>2020-09-26T10:52:28.000Z</time>
      </trkpt>
      <trkpt lat="43.70276" lon="3.83703">
        <ele>111</ele>
        <time>2020-09-26T10:52:29.000Z</time>
      </trkpt>
      <trkpt lat="43.7028" lon="3.83705">
        <ele>111</ele>
        <time>2020-09-26T10:52:30.000Z</time>
      </trkpt>
      <trkpt lat="43.70284" lon="3.83708">
        <ele>111</ele>
        <time>2020-09-26T10:52:31.000Z</time>
      </trkpt>
      <trkpt lat="43.70288" lon="3.83711">
        <ele>111</ele>
        <time>2020-09-26T10:52:32.000Z</time>
      </trkpt>
      <trkpt lat="43.70292" lon="3.83714">
        <ele>111</ele>
        <time>2020-09-26T10:52:33.000Z</time>
      </trkpt>
      <trkpt lat="43.70297" lon="3.83717">
        <ele>111</ele>
        <time>2020-09-26T10:52:34.000Z</time>
      </trkpt>
      <trkpt lat="43.70301" lon="3.83719">
        <ele>111</ele>
        <time>2020-09-26T10:52:35.000Z</time>
      </trkpt>
      <trkpt lat="43.70306" lon="3.83722">
        <ele>110.90499968</ele>
        <time>2020-09-26T10:52:36.000Z</time>
      </trkpt>
      <trkpt lat="43.70311" lon="3.83725">
        <ele>110.80499968</ele>
        <time>2020-09-26T10:52:37.000Z</time>
      </trkpt>
      <trkpt lat="43.70316" lon="3.83727">
        <ele>110.70499968</ele>
        <time>2020-09-26T10:52:38.000Z</time>
      </trkpt>
      <trkpt lat="43.70321" lon="3.8373">
        <ele>110.60499968</ele>
        <time>2020-09-26T10:52:39.000Z</time>
      </trkpt>
      <trkpt lat="43.70326" lon="3.83733">
        <ele>110.50499968</ele>
        <time>2020-09-26T10:52:40.000Z</time>
      </trkpt>
      <trkpt lat="43.70331" lon="3.83735">
        <ele>110.40499968</ele>
        <time>2020-09-26T10:52:41.000Z</time>
      </trkpt>
      <trkpt lat="43.70336" lon="3.83738">
        <ele>110.30499968</ele>
        <time>2020-09-26T10:52:42.000Z</time>
      </trkpt>
      <trkpt lat="43.70341" lon="3.83741">
        <ele>110.20499968</ele>
        <time>2020-09-26T10:52:43.000Z</time>
      </trkpt>
      <trkpt lat="43.70345" lon="3.83744">
        <ele>110.10499968</ele>
        <time>2020-09-26T10:52:44.000Z</time>
      </trkpt>
      <trkpt lat="43.7035" lon="3.83747">
        <ele>110.00499968</ele>
        <time>2020-09-26T10:52:45.000Z</time>
      </trkpt>
      <trkpt lat="43.70355" lon="3.8375">
        <ele>109.90499968</ele>
        <time>2020-09-26T10:52:46.000Z</time>
      </trkpt>
      <trkpt lat="43.7036" lon="3.83753">
        <ele>109.80499968</ele>
        <time>2020-09-26T10:52:47.000Z</time>
      </trkpt>
      <trkpt lat="43.70364" lon="3.83755">
        <ele>109.70499968</ele>
        <time>2020-09-26T10:52:48.000Z</time>
      </trkpt>
      <trkpt lat="43.70369" lon="3.83758">
        <ele>109.60499968</ele>
        <time>2020-09-26T10:52:49.000Z</time>
      </trkpt>
      <trkpt lat="43.70372" lon="3.83761">
        <ele>109.50499968</ele>
        <time>2020-09-26T10:52:50.000Z</time>
      </trkpt>
      <trkpt lat="43.70376" lon="3.83763">
        <ele>109.40499968</ele>
        <time>2020-09-26T10:52:51.000Z</time>
      </trkpt>
      <trkpt lat="43.70378" lon="3.83764">
        <ele>109.30499968</ele>
        <time>2020-09-26T10:52:52.000Z</time>
      </trkpt>
      <trkpt lat="43.70381" lon="3.83766">
        <ele>109.20499968</ele>
        <time>2020-09-26T10:52:53.000Z</time>
      </trkpt>
      <trkpt lat="43.70383" lon="3.83767">
        <ele>109.10499968</ele>
        <time>2020-09-26T10:52:54.000Z</time>
      </trkpt>
      <trkpt lat="43.70385" lon="3.83768">
        <ele>109.00499968</ele>
        <time>2020-09-26T10:52:55.000Z</time>
      </trkpt>
      <trkpt lat="43.70387" lon="3.8377">
        <ele>108.80999936</ele>
        <time>2020-09-26T10:52:56.000Z</time>
      </trkpt>
      <trkpt lat="43.70389" lon="3.83772">
        <ele>108.60999936</ele>
        <time>2020-09-26T10:52:57.000Z</time>
      </trkpt>
      <trkpt lat="43.70391" lon="3.83773">
        <ele>108.40999936</ele>
        <time>2020-09-26T10:52:58.000Z</time>
      </trkpt>
      <trkpt lat="43.70393" lon="3.83774">
        <ele>108.20999936</ele>
        <time>2020-09-26T10:52:59.000Z</time>
      </trkpt>
      <trkpt lat="43.70395" lon="3.83771">
        <ele>107.80999936</ele>
        <time>2020-09-26T10:53:01.000Z</time>
      </trkpt>
      <trkpt lat="43.70397" lon="3.83768">
        <ele>107.60999936</ele>
        <time>2020-09-26T10:53:02.000Z</time>
      </trkpt>
      <trkpt lat="43.70399" lon="3.83764">
        <ele>107.40999936</ele>
        <time>2020-09-26T10:53:03.000Z</time>
      </trkpt>
      <trkpt lat="43.70402" lon="3.8376">
        <ele>107.20999936</ele>
        <time>2020-09-26T10:53:04.000Z</time>
      </trkpt>
      <trkpt lat="43.70404" lon="3.83756">
        <ele>107.00999936</ele>
        <time>2020-09-26T10:53:05.000Z</time>
      </trkpt>
      <trkpt lat="43.70407" lon="3.83752">
        <ele>106.71499904</ele>
        <time>2020-09-26T10:53:06.000Z</time>
      </trkpt>
      <trkpt lat="43.70409" lon="3.83747">
        <ele>106.41499904</ele>
        <time>2020-09-26T10:53:07.000Z</time>
      </trkpt>
      <trkpt lat="43.70412" lon="3.83743">
        <ele>106.11499904</ele>
        <time>2020-09-26T10:53:08.000Z</time>
      </trkpt>
      <trkpt lat="43.70414" lon="3.83739">
        <ele>105.81499904</ele>
        <time>2020-09-26T10:53:09.000Z</time>
      </trkpt>
      <trkpt lat="43.70417" lon="3.83735">
        <ele>105.51499904</ele>
        <time>2020-09-26T10:53:10.000Z</time>
      </trkpt>
      <trkpt lat="43.70419" lon="3.83731">
        <ele>105.21499904</ele>
        <time>2020-09-26T10:53:11.000Z</time>
      </trkpt>
      <trkpt lat="43.70421" lon="3.83728">
        <ele>104.91499904</ele>
        <time>2020-09-26T10:53:12.000Z</time>
      </trkpt>
      <trkpt lat="43.70423" lon="3.83728">
        <ele>104.61499904</ele>
        <time>2020-09-26T10:53:13.000Z</time>
      </trkpt>
      <trkpt lat="43.70425" lon="3.83731">
        <ele>104.31499904</ele>
        <time>2020-09-26T10:53:14.000Z</time>
      </trkpt>
      <trkpt lat="43.70425" lon="3.83736">
        <ele>104.01499904</ele>
        <time>2020-09-26T10:53:15.000Z</time>
      </trkpt>
      <trkpt lat="43.70424" lon="3.83741">
        <ele>103.72303139542</ele>
        <time>2020-09-26T10:53:16.000Z</time>
      </trkpt>
      <trkpt lat="43.70423" lon="3.83745">
        <ele>103.43148647791</ele>
        <time>2020-09-26T10:53:17.000Z</time>
      </trkpt>
      <trkpt lat="43.70423" lon="3.8375">
        <ele>103.1399415604</ele>
        <time>2020-09-26T10:53:18.000Z</time>
      </trkpt>
      <trkpt lat="43.70423" lon="3.83756">
        <ele>102.84839664289</ele>
        <time>2020-09-26T10:53:19.000Z</time>
      </trkpt>
      <trkpt lat="43.70422" lon="3.83761">
        <ele>102.55685172539</ele>
        <time>2020-09-26T10:53:20.000Z</time>
      </trkpt>
      <trkpt lat="43.70422" lon="3.83767">
        <ele>102.26530680788</ele>
        <time>2020-09-26T10:53:21.000Z</time>
      </trkpt>
      <trkpt lat="43.70422" lon="3.83773">
        <ele>101.97376189037</ele>
        <time>2020-09-26T10:53:22.000Z</time>
      </trkpt>
      <trkpt lat="43.70422" lon="3.83779">
        <ele>101.68221697286</ele>
        <time>2020-09-26T10:53:23.000Z</time>
      </trkpt>
      <trkpt lat="43.70422" lon="3.83785">
        <ele>101.39067205535</ele>
        <time>2020-09-26T10:53:24.000Z</time>
      </trkpt>
      <trkpt lat="43.70423" lon="3.83791">
        <ele>101.09912713784</ele>
        <time>2020-09-26T10:53:25.000Z</time>
      </trkpt>
      <trkpt lat="43.70424" lon="3.83798">
        <ele>100.79734069104</ele>
        <time>2020-09-26T10:53:26.000Z</time>
      </trkpt>
      <trkpt lat="43.70424" lon="3.83804">
        <ele>100.49027815444</ele>
        <time>2020-09-26T10:53:27.000Z</time>
      </trkpt>
      <trkpt lat="43.70426" lon="3.8381">
        <ele>100.18321561784</ele>
        <time>2020-09-26T10:53:28.000Z</time>
      </trkpt>
      <trkpt lat="43.70427" lon="3.83816">
        <ele>99.876153081237</ele>
        <time>2020-09-26T10:53:29.000Z</time>
      </trkpt>
      <trkpt lat="43.70429" lon="3.83823">
        <ele>99.569090544636</ele>
        <time>2020-09-26T10:53:30.000Z</time>
      </trkpt>
      <trkpt lat="43.70431" lon="3.83829">
        <ele>99.262028008034</ele>
        <time>2020-09-26T10:53:31.000Z</time>
      </trkpt>
      <trkpt lat="43.70433" lon="3.83835">
        <ele>98.954965471432</ele>
        <time>2020-09-26T10:53:32.000Z</time>
      </trkpt>
      <trkpt lat="43.70434" lon="3.83842">
        <ele>98.64790293483</ele>
        <time>2020-09-26T10:53:33.000Z</time>
      </trkpt>
      <trkpt lat="43.70436" lon="3.83848">
        <ele>98.340840398228</ele>
        <time>2020-09-26T10:53:34.000Z</time>
      </trkpt>
      <trkpt lat="43.70438" lon="3.83855">
        <ele>98.033777861626</ele>
        <time>2020-09-26T10:53:35.000Z</time>
      </trkpt>
      <trkpt lat="43.70439" lon="3.83862">
        <ele>97.820926081884</ele>
        <time>2020-09-26T10:53:36.000Z</time>
      </trkpt>
      <trkpt lat="43.70441" lon="3.83869">
        <ele>97.619718708873</ele>
        <time>2020-09-26T10:53:37.000Z</time>
      </trkpt>
      <trkpt lat="43.70442" lon="3.83876">
        <ele>97.418511335862</ele>
        <time>2020-09-26T10:53:38.000Z</time>
      </trkpt>
      <trkpt lat="43.70443" lon="3.83884">
        <ele>97.217303962852</ele>
        <time>2020-09-26T10:53:39.000Z</time>
      </trkpt>
      <trkpt lat="43.70444" lon="3.83892">
        <ele>97.016096589841</ele>
        <time>2020-09-26T10:53:40.000Z</time>
      </trkpt>
      <trkpt lat="43.70444" lon="3.83899">
        <ele>96.81488921683</ele>
        <time>2020-09-26T10:53:41.000Z</time>
      </trkpt>
      <trkpt lat="43.70444" lon="3.83908">
        <ele>96.613681843819</ele>
        <time>2020-09-26T10:53:42.000Z</time>
      </trkpt>
      <trkpt lat="43.70445" lon="3.83916">
        <ele>96.412474470809</ele>
        <time>2020-09-26T10:53:43.000Z</time>
      </trkpt>
      <trkpt lat="43.70444" lon="3.83924">
        <ele>96.211267097798</ele>
        <time>2020-09-26T10:53:44.000Z</time>
      </trkpt>
      <trkpt lat="43.70444" lon="3.83933">
        <ele>96.010059724787</ele>
        <time>2020-09-26T10:53:45.000Z</time>
      </trkpt>
      <trkpt lat="43.70444" lon="3.83941">
        <ele>95.90785616827</ele>
        <time>2020-09-26T10:53:46.000Z</time>
      </trkpt>
      <trkpt lat="43.70443" lon="3.8395">
        <ele>95.810862987899</ele>
        <time>2020-09-26T10:53:47.000Z</time>
      </trkpt>
      <trkpt lat="43.70443" lon="3.83958">
        <ele>95.713869807528</ele>
        <time>2020-09-26T10:53:48.000Z</time>
      </trkpt>
      <trkpt lat="43.70443" lon="3.83967">
        <ele>95.616876627158</ele>
        <time>2020-09-26T10:53:49.000Z</time>
      </trkpt>
      <trkpt lat="43.70444" lon="3.83976">
        <ele>95.519883446787</ele>
        <time>2020-09-26T10:53:50.000Z</time>
      </trkpt>
      <trkpt lat="43.70444" lon="3.83985">
        <ele>95.422890266416</ele>
        <time>2020-09-26T10:53:51.000Z</time>
      </trkpt>
      <trkpt lat="43.70445" lon="3.83994">
        <ele>95.325897086046</ele>
        <time>2020-09-26T10:53:52.000Z</time>
      </trkpt>
      <trkpt lat="43.70446" lon="3.84002">
        <ele>95.228903905675</ele>
        <time>2020-09-26T10:53:53.000Z</time>
      </trkpt>
      <trkpt lat="43.70448" lon="3.84011">
        <ele>95.131910725304</ele>
        <time>2020-09-26T10:53:54.000Z</time>
      </trkpt>
      <trkpt lat="43.70449" lon="3.84019">
        <ele>95.034917544933</ele>
        <time>2020-09-26T10:53:55.000Z</time>
      </trkpt>
      <trkpt lat="43.7045" lon="3.84028">
        <ele>94.868583248569</ele>
        <time>2020-09-26T10:53:56.000Z</time>
      </trkpt>
      <trkpt lat="43.70451" lon="3.84036">
        <ele>94.663244574459</ele>
        <time>2020-09-26T10:53:57.000Z</time>
      </trkpt>
      <trkpt lat="43.70453" lon="3.84044">
        <ele>94.457905900349</ele>
        <time>2020-09-26T10:53:58.000Z</time>
      </trkpt>
      <trkpt lat="43.70454" lon="3.84052">
        <ele>94.252567226239</ele>
        <time>2020-09-26T10:53:59.000Z</time>
      </trkpt>
      <trkpt lat="43.70456" lon="3.8406">
        <ele>94.047228552129</ele>
        <time>2020-09-26T10:54:00.000Z</time>
      </trkpt>
      <trkpt lat="43.70457" lon="3.84068">
        <ele>93.841889878019</ele>
        <time>2020-09-26T10:54:01.000Z</time>
      </trkpt>
      <trkpt lat="43.70459" lon="3.84076">
        <ele>93.636551203909</ele>
        <time>2020-09-26T10:54:02.000Z</time>
      </trkpt>
      <trkpt lat="43.70461" lon="3.84083">
        <ele>93.431212529799</ele>
        <time>2020-09-26T10:54:03.000Z</time>
      </trkpt>
      <trkpt lat="43.70463" lon="3.84091">
        <ele>93.225873855689</ele>
        <time>2020-09-26T10:54:04.000Z</time>
      </trkpt>
      <trkpt lat="43.70466" lon="3.84098">
        <ele>93.020535181578</ele>
        <time>2020-09-26T10:54:05.000Z</time>
      </trkpt>
      <trkpt lat="43.70468" lon="3.84106">
        <ele>92.90954829464</ele>
        <time>2020-09-26T10:54:06.000Z</time>
      </trkpt>
      <trkpt lat="43.70471" lon="3.84113">
        <ele>92.809045685109</ele>
        <time>2020-09-26T10:54:07.000Z</time>
      </trkpt>
      <trkpt lat="43.70474" lon="3.84121">
        <ele>92.708543075579</ele>
        <time>2020-09-26T10:54:08.000Z</time>
      </trkpt>
      <trkpt lat="43.70476" lon="3.84128">
        <ele>92.608040466049</ele>
        <time>2020-09-26T10:54:09.000Z</time>
      </trkpt>
      <trkpt lat="43.70479" lon="3.84136">
        <ele>92.507537856519</ele>
        <time>2020-09-26T10:54:10.000Z</time>
      </trkpt>
      <trkpt lat="43.70482" lon="3.84144">
        <ele>92.407035246989</ele>
        <time>2020-09-26T10:54:11.000Z</time>
      </trkpt>
      <trkpt lat="43.70485" lon="3.84151">
        <ele>92.306532637459</ele>
        <time>2020-09-26T10:54:12.000Z</time>
      </trkpt>
      <trkpt lat="43.70487" lon="3.84159">
        <ele>92.206030027929</ele>
        <time>2020-09-26T10:54:13.000Z</time>
      </trkpt>
      <trkpt lat="43.7049" lon="3.84167">
        <ele>92.105527418398</ele>
        <time>2020-09-26T10:54:14.000Z</time>
      </trkpt>
      <trkpt lat="43.70492" lon="3.84175">
        <ele>92.005024808868</ele>
        <time>2020-09-26T10:54:15.000Z</time>
      </trkpt>
      <trkpt lat="43.70493" lon="3.84184">
        <ele>91.80999936</ele>
        <time>2020-09-26T10:54:16.000Z</time>
      </trkpt>
      <trkpt lat="43.70495" lon="3.84192">
        <ele>91.60999936</ele>
        <time>2020-09-26T10:54:17.000Z</time>
      </trkpt>
      <trkpt lat="43.70496" lon="3.84201">
        <ele>91.40999936</ele>
        <time>2020-09-26T10:54:18.000Z</time>
      </trkpt>
      <trkpt lat="43.70496" lon="3.8421">
        <ele>91.20999936</ele>
        <time>2020-09-26T10:54:19.000Z</time>
      </trkpt>
      <trkpt lat="43.70496" lon="3.84219">
        <ele>91.00999936</ele>
        <time>2020-09-26T10:54:20.000Z</time>
      </trkpt>
      <trkpt lat="43.70496" lon="3.84229">
        <ele>90.80999936</ele>
        <time>2020-09-26T10:54:21.000Z</time>
      </trkpt>
      <trkpt lat="43.70495" lon="3.84238">
        <ele>90.60999936</ele>
        <time>2020-09-26T10:54:22.000Z</time>
      </trkpt>
      <trkpt lat="43.70494" lon="3.84247">
        <ele>90.40999936</ele>
        <time>2020-09-26T10:54:23.000Z</time>
      </trkpt>
      <trkpt lat="43.70492" lon="3.84256">
        <ele>90.20999936</ele>
        <time>2020-09-26T10:54:24.000Z</time>
      </trkpt>
      <trkpt lat="43.70489" lon="3.84265">
        <ele>90.00999936</ele>
        <time>2020-09-26T10:54:25.000Z</time>
      </trkpt>
      <trkpt lat="43.70486" lon="3.84273">
        <ele>90.19000064</ele>
        <time>2020-09-26T10:54:26.000Z</time>
      </trkpt>
      <trkpt lat="43.70484" lon="3.84279">
        <ele>90.39000064</ele>
        <time>2020-09-26T10:54:27.000Z</time>
      </trkpt>
      <trkpt lat="43.70481" lon="3.84284">
        <ele>90.59000064</ele>
        <time>2020-09-26T10:54:28.000Z</time>
      </trkpt>
      <trkpt lat="43.70478" lon="3.84287">
        <ele>90.79000064</ele>
        <time>2020-09-26T10:54:29.000Z</time>
      </trkpt>
      <trkpt lat="43.70475" lon="3.84287">
        <ele>90.99000064</ele>
        <time>2020-09-26T10:54:30.000Z</time>
      </trkpt>
      <trkpt lat="43.70471" lon="3.84287">
        <ele>91.19000064</ele>
        <time>2020-09-26T10:54:31.000Z</time>
      </trkpt>
      <trkpt lat="43.70469" lon="3.84286">
        <ele>91.39000064</ele>
        <time>2020-09-26T10:54:32.000Z</time>
      </trkpt>
      <trkpt lat="43.70467" lon="3.84284">
        <ele>91.59000064</ele>
        <time>2020-09-26T10:54:33.000Z</time>
      </trkpt>
      <trkpt lat="43.70465" lon="3.84282">
        <ele>91.79000064</ele>
        <time>2020-09-26T10:54:34.000Z</time>
      </trkpt>
      <trkpt lat="43.70464" lon="3.8428">
        <ele>91.99000064</ele>
        <time>2020-09-26T10:54:35.000Z</time>
      </trkpt>
      <trkpt lat="43.70462" lon="3.84278">
        <ele>92.19000064</ele>
        <time>2020-09-26T10:54:36.000Z</time>
      </trkpt>
      <trkpt lat="43.70461" lon="3.84277">
        <ele>92.39000064</ele>
        <time>2020-09-26T10:54:37.000Z</time>
      </trkpt>
      <trkpt lat="43.70459" lon="3.84276">
        <ele>92.59000064</ele>
        <time>2020-09-26T10:54:38.000Z</time>
      </trkpt>
      <trkpt lat="43.70457" lon="3.84275">
        <ele>92.79000064</ele>
        <time>2020-09-26T10:54:39.000Z</time>
      </trkpt>
      <trkpt lat="43.70455" lon="3.84274">
        <ele>92.99000064</ele>
        <time>2020-09-26T10:54:40.000Z</time>
      </trkpt>
      <trkpt lat="43.70452" lon="3.84273">
        <ele>93.39000064</ele>
        <time>2020-09-26T10:54:42.000Z</time>
      </trkpt>
      <trkpt lat="43.70449" lon="3.84273">
        <ele>93.79000064</ele>
        <time>2020-09-26T10:54:44.000Z</time>
      </trkpt>
      <trkpt lat="43.70446" lon="3.84271">
        <ele>94.19000064</ele>
        <time>2020-09-26T10:54:46.000Z</time>
      </trkpt>
      <trkpt lat="43.70444" lon="3.8427">
        <ele>94.39000064</ele>
        <time>2020-09-26T10:54:47.000Z</time>
      </trkpt>
      <trkpt lat="43.70443" lon="3.84268">
        <ele>94.59000064</ele>
        <time>2020-09-26T10:54:48.000Z</time>
      </trkpt>
      <trkpt lat="43.70441" lon="3.84267">
        <ele>94.79000064</ele>
        <time>2020-09-26T10:54:49.000Z</time>
      </trkpt>
      <trkpt lat="43.70438" lon="3.84266">
        <ele>94.99000064</ele>
        <time>2020-09-26T10:54:50.000Z</time>
      </trkpt>
      <trkpt lat="43.70437" lon="3.84264">
        <ele>95.19000064</ele>
        <time>2020-09-26T10:54:51.000Z</time>
      </trkpt>
      <trkpt lat="43.70435" lon="3.84263">
        <ele>95.39000064</ele>
        <time>2020-09-26T10:54:52.000Z</time>
      </trkpt>
      <trkpt lat="43.70433" lon="3.84261">
        <ele>95.59000064</ele>
        <time>2020-09-26T10:54:53.000Z</time>
      </trkpt>
      <trkpt lat="43.70431" lon="3.8426">
        <ele>95.79000064</ele>
        <time>2020-09-26T10:54:54.000Z</time>
      </trkpt>
      <trkpt lat="43.7043" lon="3.84259">
        <ele>95.99000064</ele>
        <time>2020-09-26T10:54:55.000Z</time>
      </trkpt>
      <trkpt lat="43.70428" lon="3.84257">
        <ele>96.284431914135</ele>
        <time>2020-09-26T10:54:56.000Z</time>
      </trkpt>
      <trkpt lat="43.70426" lon="3.84256">
        <ele>96.583832920506</ele>
        <time>2020-09-26T10:54:57.000Z</time>
      </trkpt>
      <trkpt lat="43.70425" lon="3.84255">
        <ele>96.883233926876</ele>
        <time>2020-09-26T10:54:58.000Z</time>
      </trkpt>
      <trkpt lat="43.70423" lon="3.84253">
        <ele>97.182634933247</ele>
        <time>2020-09-26T10:54:59.000Z</time>
      </trkpt>
      <trkpt lat="43.70421" lon="3.84252">
        <ele>97.482035939618</ele>
        <time>2020-09-26T10:55:00.000Z</time>
      </trkpt>
      <trkpt lat="43.70419" lon="3.84251">
        <ele>97.781436945988</ele>
        <time>2020-09-26T10:55:01.000Z</time>
      </trkpt>
      <trkpt lat="43.70416" lon="3.84249">
        <ele>98.38023895873</ele>
        <time>2020-09-26T10:55:03.000Z</time>
      </trkpt>
      <trkpt lat="43.70413" lon="3.84247">
        <ele>98.979040971471</ele>
        <time>2020-09-26T10:55:05.000Z</time>
      </trkpt>
      <trkpt lat="43.7041" lon="3.84246">
        <ele>99.386773153842</ele>
        <time>2020-09-26T10:55:07.000Z</time>
      </trkpt>
      <trkpt lat="43.70408" lon="3.84245">
        <ele>99.787575014076</ele>
        <time>2020-09-26T10:55:09.000Z</time>
      </trkpt>
      <trkpt lat="43.70407" lon="3.84243">
        <ele>100.18837687431</ele>
        <time>2020-09-26T10:55:11.000Z</time>
      </trkpt>
      <trkpt lat="43.70404" lon="3.84242">
        <ele>100.58917873454</ele>
        <time>2020-09-26T10:55:13.000Z</time>
      </trkpt>
      <trkpt lat="43.70402" lon="3.84241">
        <ele>100.98998059478</ele>
        <time>2020-09-26T10:55:15.000Z</time>
      </trkpt>
      <trkpt lat="43.70399" lon="3.8424">
        <ele>101.39000064</ele>
        <time>2020-09-26T10:55:17.000Z</time>
      </trkpt>
      <trkpt lat="43.70397" lon="3.84239">
        <ele>101.79000064</ele>
        <time>2020-09-26T10:55:19.000Z</time>
      </trkpt>
      <trkpt lat="43.70394" lon="3.84238">
        <ele>102.19000064</ele>
        <time>2020-09-26T10:55:21.000Z</time>
      </trkpt>
      <trkpt lat="43.70391" lon="3.84237">
        <ele>102.59000064</ele>
        <time>2020-09-26T10:55:23.000Z</time>
      </trkpt>
      <trkpt lat="43.70389" lon="3.84236">
        <ele>102.99000064</ele>
        <time>2020-09-26T10:55:25.000Z</time>
      </trkpt>
      <trkpt lat="43.70386" lon="3.84234">
        <ele>103.19500032</ele>
        <time>2020-09-26T10:55:27.000Z</time>
      </trkpt>
      <trkpt lat="43.70384" lon="3.84233">
        <ele>103.29500032</ele>
        <time>2020-09-26T10:55:28.000Z</time>
      </trkpt>
      <trkpt lat="43.70382" lon="3.84232">
        <ele>103.39500032</ele>
        <time>2020-09-26T10:55:29.000Z</time>
      </trkpt>
      <trkpt lat="43.7038" lon="3.84231">
        <ele>103.49500032</ele>
        <time>2020-09-26T10:55:30.000Z</time>
      </trkpt>
      <trkpt lat="43.70377" lon="3.8423">
        <ele>103.69500032</ele>
        <time>2020-09-26T10:55:32.000Z</time>
      </trkpt>
      <trkpt lat="43.70375" lon="3.8423">
        <ele>103.79500032</ele>
        <time>2020-09-26T10:55:33.000Z</time>
      </trkpt>
      <trkpt lat="43.70373" lon="3.8423">
        <ele>103.89500032</ele>
        <time>2020-09-26T10:55:34.000Z</time>
      </trkpt>
      <trkpt lat="43.70371" lon="3.84229">
        <ele>103.99500032</ele>
        <time>2020-09-26T10:55:35.000Z</time>
      </trkpt>
      <trkpt lat="43.70369" lon="3.84228">
        <ele>104.09500032</ele>
        <time>2020-09-26T10:55:36.000Z</time>
      </trkpt>
      <trkpt lat="43.70367" lon="3.84226">
        <ele>104.19500032</ele>
        <time>2020-09-26T10:55:37.000Z</time>
      </trkpt>
      <trkpt lat="43.70366" lon="3.84225">
        <ele>104.29500032</ele>
        <time>2020-09-26T10:55:38.000Z</time>
      </trkpt>
      <trkpt lat="43.70365" lon="3.84223">
        <ele>104.39500032</ele>
        <time>2020-09-26T10:55:39.000Z</time>
      </trkpt>
      <trkpt lat="43.70362" lon="3.8422">
        <ele>104.59500032</ele>
        <time>2020-09-26T10:55:41.000Z</time>
      </trkpt>
      <trkpt lat="43.70359" lon="3.84218">
        <ele>104.79500032</ele>
        <time>2020-09-26T10:55:43.000Z</time>
      </trkpt>
      <trkpt lat="43.70356" lon="3.84217">
        <ele>104.99500032</ele>
        <time>2020-09-26T10:55:45.000Z</time>
      </trkpt>
      <trkpt lat="43.70353" lon="3.84215">
        <ele>105.39000064</ele>
        <time>2020-09-26T10:55:47.000Z</time>
      </trkpt>
      <trkpt lat="43.70351" lon="3.84213">
        <ele>105.79000064</ele>
        <time>2020-09-26T10:55:49.000Z</time>
      </trkpt>
      <trkpt lat="43.70349" lon="3.84211">
        <ele>106.19000064</ele>
        <time>2020-09-26T10:55:51.000Z</time>
      </trkpt>
      <trkpt lat="43.70347" lon="3.8421">
        <ele>106.59000064</ele>
        <time>2020-09-26T10:55:53.000Z</time>
      </trkpt>
      <trkpt lat="43.70345" lon="3.84209">
        <ele>106.99000064</ele>
        <time>2020-09-26T10:55:55.000Z</time>
      </trkpt>
      <trkpt lat="43.70342" lon="3.84207">
        <ele>107.39000064</ele>
        <time>2020-09-26T10:55:57.000Z</time>
      </trkpt>
      <trkpt lat="43.7034" lon="3.84205">
        <ele>107.79000064</ele>
        <time>2020-09-26T10:55:59.000Z</time>
      </trkpt>
      <trkpt lat="43.70337" lon="3.84203">
        <ele>108.19000064</ele>
        <time>2020-09-26T10:56:01.000Z</time>
      </trkpt>
      <trkpt lat="43.70335" lon="3.84201">
        <ele>108.59000064</ele>
        <time>2020-09-26T10:56:03.000Z</time>
      </trkpt>
      <trkpt lat="43.70333" lon="3.842">
        <ele>108.99000064</ele>
        <time>2020-09-26T10:56:05.000Z</time>
      </trkpt>
      <trkpt lat="43.70331" lon="3.84199">
        <ele>110.48500096</ele>
        <time>2020-09-26T10:56:10.000Z</time>
      </trkpt>
      <trkpt lat="43.70329" lon="3.84198">
        <ele>111.08500096</ele>
        <time>2020-09-26T10:56:12.000Z</time>
      </trkpt>
      <trkpt lat="43.70327" lon="3.84197">
        <ele>111.68500096</ele>
        <time>2020-09-26T10:56:14.000Z</time>
      </trkpt>
      <trkpt lat="43.70325" lon="3.84196">
        <ele>112.09500032</ele>
        <time>2020-09-26T10:56:16.000Z</time>
      </trkpt>
      <trkpt lat="43.70323" lon="3.84195">
        <ele>112.29500032</ele>
        <time>2020-09-26T10:56:18.000Z</time>
      </trkpt>
      <trkpt lat="43.70321" lon="3.84194">
        <ele>112.59500032</ele>
        <time>2020-09-26T10:56:21.000Z</time>
      </trkpt>
      <trkpt lat="43.70318" lon="3.84193">
        <ele>112.89500032</ele>
        <time>2020-09-26T10:56:24.000Z</time>
      </trkpt>
      <trkpt lat="43.70316" lon="3.84191">
        <ele>113.18719268975</ele>
        <time>2020-09-26T10:56:26.000Z</time>
      </trkpt>
      <trkpt lat="43.70314" lon="3.8419">
        <ele>113.58128123546</ele>
        <time>2020-09-26T10:56:28.000Z</time>
      </trkpt>
      <trkpt lat="43.70313" lon="3.84189">
        <ele>113.97536978116</ele>
        <time>2020-09-26T10:56:30.000Z</time>
      </trkpt>
      <trkpt lat="43.70311" lon="3.84187">
        <ele>114.56650259972</ele>
        <time>2020-09-26T10:56:33.000Z</time>
      </trkpt>
      <trkpt lat="43.70308" lon="3.84186">
        <ele>115.16243660099</ele>
        <time>2020-09-26T10:56:36.000Z</time>
      </trkpt>
      <trkpt lat="43.70306" lon="3.84185">
        <ele>115.77157385472</ele>
        <time>2020-09-26T10:56:39.000Z</time>
      </trkpt>
      <trkpt lat="43.70305" lon="3.84183">
        <ele>116.17766535721</ele>
        <time>2020-09-26T10:56:41.000Z</time>
      </trkpt>
      <trkpt lat="43.70302" lon="3.84182">
        <ele>116.78680261094</ele>
        <time>2020-09-26T10:56:44.000Z</time>
      </trkpt>
      <trkpt lat="43.703" lon="3.84181">
        <ele>117.19500032</ele>
        <time>2020-09-26T10:56:47.000Z</time>
      </trkpt>
      <trkpt lat="43.70298" lon="3.8418">
        <ele>117.49500032</ele>
        <time>2020-09-26T10:56:50.000Z</time>
      </trkpt>
      <trkpt lat="43.70296" lon="3.84178">
        <ele>117.79500032</ele>
        <time>2020-09-26T10:56:53.000Z</time>
      </trkpt>
      <trkpt lat="43.70294" lon="3.84177">
        <ele>118.19000064</ele>
        <time>2020-09-26T10:56:56.000Z</time>
      </trkpt>
      <trkpt lat="43.70292" lon="3.84176">
        <ele>118.59000064</ele>
        <time>2020-09-26T10:56:58.000Z</time>
      </trkpt>
      <trkpt lat="43.7029" lon="3.84174">
        <ele>118.99000064</ele>
        <time>2020-09-26T10:57:00.000Z</time>
      </trkpt>
      <trkpt lat="43.70289" lon="3.84173">
        <ele>119.39000064</ele>
        <time>2020-09-26T10:57:02.000Z</time>
      </trkpt>
      <trkpt lat="43.70287" lon="3.84171">
        <ele>119.79000064</ele>
        <time>2020-09-26T10:57:04.000Z</time>
      </trkpt>
      <trkpt lat="43.70285" lon="3.8417">
        <ele>120.11350084951</ele>
        <time>2020-09-26T10:57:06.000Z</time>
      </trkpt>
      <trkpt lat="43.70284" lon="3.84168">
        <ele>120.35244920149</ele>
        <time>2020-09-26T10:57:08.000Z</time>
      </trkpt>
      <trkpt lat="43.70284" lon="3.84168">
        <ele>120.94982008145</ele>
        <time>2020-09-26T10:57:13.000Z</time>
      </trkpt>
      <trkpt lat="43.7028" lon="3.84166">
        <ele>121.92455573965</ele>
        <time>2020-09-26T10:57:20.000Z</time>
      </trkpt>
      <trkpt lat="43.70279" lon="3.84165">
        <ele>122</ele>
        <time>2020-09-26T10:57:21.000Z</time>
      </trkpt>
      <trkpt lat="43.70278" lon="3.84162">
        <ele>122</ele>
        <time>2020-09-26T10:57:23.000Z</time>
      </trkpt>
      <trkpt lat="43.70276" lon="3.84159">
        <ele>122</ele>
        <time>2020-09-26T10:57:25.000Z</time>
      </trkpt>
      <trkpt lat="43.70275" lon="3.84157">
        <ele>122</ele>
        <time>2020-09-26T10:57:27.000Z</time>
      </trkpt>
      <trkpt lat="43.70272" lon="3.84156">
        <ele>122</ele>
        <time>2020-09-26T10:57:29.000Z</time>
      </trkpt>
      <trkpt lat="43.70271" lon="3.84153">
        <ele>122</ele>
        <time>2020-09-26T10:57:31.000Z</time>
      </trkpt>
      <trkpt lat="43.7027" lon="3.8415">
        <ele>122</ele>
        <time>2020-09-26T10:57:33.000Z</time>
      </trkpt>
      <trkpt lat="43.70268" lon="3.84145">
        <ele>122</ele>
        <time>2020-09-26T10:57:35.000Z</time>
      </trkpt>
      <trkpt lat="43.70267" lon="3.84143">
        <ele>122</ele>
        <time>2020-09-26T10:57:36.000Z</time>
      </trkpt>
      <trkpt lat="43.70266" lon="3.84141">
        <ele>122.00281082622</ele>
        <time>2020-09-26T10:57:42.000Z</time>
      </trkpt>
      <trkpt lat="43.70264" lon="3.84146">
        <ele>122.9933075403</ele>
        <time>2020-09-26T10:58:56.000Z</time>
      </trkpt>
      <trkpt lat="43.70264" lon="3.84148">
        <ele>123.04984712905</ele>
        <time>2020-09-26T10:58:57.000Z</time>
      </trkpt>
      <trkpt lat="43.70263" lon="3.84152">
        <ele>123.25330612734</ele>
        <time>2020-09-26T10:58:59.000Z</time>
      </trkpt>
      <trkpt lat="43.70263" lon="3.84156">
        <ele>123.45676512563</ele>
        <time>2020-09-26T10:59:01.000Z</time>
      </trkpt>
      <trkpt lat="43.70263" lon="3.8416">
        <ele>123.66022412392</ele>
        <time>2020-09-26T10:59:03.000Z</time>
      </trkpt>
      <trkpt lat="43.70262" lon="3.84164">
        <ele>123.86368312221</ele>
        <time>2020-09-26T10:59:05.000Z</time>
      </trkpt>
      <trkpt lat="43.70262" lon="3.84168">
        <ele>124.13200128</ele>
        <time>2020-09-26T10:59:07.000Z</time>
      </trkpt>
      <trkpt lat="43.70263" lon="3.84172">
        <ele>124.53200128</ele>
        <time>2020-09-26T10:59:09.000Z</time>
      </trkpt>
      <trkpt lat="43.70263" lon="3.84176">
        <ele>124.93200128</ele>
        <time>2020-09-26T10:59:11.000Z</time>
      </trkpt>
      <trkpt lat="43.70264" lon="3.8418">
        <ele>125.33200128</ele>
        <time>2020-09-26T10:59:13.000Z</time>
      </trkpt>
      <trkpt lat="43.70264" lon="3.84184">
        <ele>125.73200128</ele>
        <time>2020-09-26T10:59:15.000Z</time>
      </trkpt>
      <trkpt lat="43.70264" lon="3.84188">
        <ele>126.13594360093</ele>
        <time>2020-09-26T10:59:17.000Z</time>
      </trkpt>
      <trkpt lat="43.70265" lon="3.84193">
        <ele>126.54788991213</ele>
        <time>2020-09-26T10:59:19.000Z</time>
      </trkpt>
      <trkpt lat="43.70265" lon="3.84197">
        <ele>126.95983622333</ele>
        <time>2020-09-26T10:59:21.000Z</time>
      </trkpt>
      <trkpt lat="43.70266" lon="3.84201">
        <ele>127.37178253453</ele>
        <time>2020-09-26T10:59:23.000Z</time>
      </trkpt>
      <trkpt lat="43.70265" lon="3.84205">
        <ele>127.78372884573</ele>
        <time>2020-09-26T10:59:25.000Z</time>
      </trkpt>
      <trkpt lat="43.70264" lon="3.8421">
        <ele>128.09500032</ele>
        <time>2020-09-26T10:59:27.000Z</time>
      </trkpt>
      <trkpt lat="43.70264" lon="3.84213">
        <ele>128.19500032</ele>
        <time>2020-09-26T10:59:28.000Z</time>
      </trkpt>
      <trkpt lat="43.70263" lon="3.84218">
        <ele>128.39500032</ele>
        <time>2020-09-26T10:59:30.000Z</time>
      </trkpt>
      <trkpt lat="43.70262" lon="3.84222">
        <ele>128.59500032</ele>
        <time>2020-09-26T10:59:32.000Z</time>
      </trkpt>
      <trkpt lat="43.70262" lon="3.84226">
        <ele>128.79500032</ele>
        <time>2020-09-26T10:59:34.000Z</time>
      </trkpt>
      <trkpt lat="43.70261" lon="3.84231">
        <ele>128.99500032</ele>
        <time>2020-09-26T10:59:36.000Z</time>
      </trkpt>
      <trkpt lat="43.70261" lon="3.84235">
        <ele>129.58500096</ele>
        <time>2020-09-26T10:59:38.000Z</time>
      </trkpt>
      <trkpt lat="43.7026" lon="3.8424">
        <ele>130.18500096</ele>
        <time>2020-09-26T10:59:40.000Z</time>
      </trkpt>
      <trkpt lat="43.70259" lon="3.84244">
        <ele>130.78500096</ele>
        <time>2020-09-26T10:59:42.000Z</time>
      </trkpt>
      <trkpt lat="43.70258" lon="3.84247">
        <ele>131.38500096</ele>
        <time>2020-09-26T10:59:44.000Z</time>
      </trkpt>
      <trkpt lat="43.70258" lon="3.8425">
        <ele>131.68500096</ele>
        <time>2020-09-26T10:59:45.000Z</time>
      </trkpt>
      <trkpt lat="43.70257" lon="3.84252">
        <ele>131.98500096</ele>
        <time>2020-09-26T10:59:46.000Z</time>
      </trkpt>
      <trkpt lat="43.70255" lon="3.84257">
        <ele>132.58441598298</ele>
        <time>2020-09-26T10:59:48.000Z</time>
      </trkpt>
      <trkpt lat="43.70253" lon="3.8426">
        <ele>133.18381600753</ele>
        <time>2020-09-26T10:59:50.000Z</time>
      </trkpt>
      <trkpt lat="43.70251" lon="3.84263">
        <ele>133.78321603208</ele>
        <time>2020-09-26T10:59:52.000Z</time>
      </trkpt>
      <trkpt lat="43.70249" lon="3.84264">
        <ele>134.38261605663</ele>
        <time>2020-09-26T10:59:54.000Z</time>
      </trkpt>
      <trkpt lat="43.70247" lon="3.84266">
        <ele>134.98201608118</ele>
        <time>2020-09-26T10:59:56.000Z</time>
      </trkpt>
      <trkpt lat="43.70245" lon="3.84268">
        <ele>135.38838748033</ele>
        <time>2020-09-26T10:59:58.000Z</time>
      </trkpt>
      <trkpt lat="43.70243" lon="3.84271">
        <ele>135.7887882655</ele>
        <time>2020-09-26T11:00:00.000Z</time>
      </trkpt>
      <trkpt lat="43.70241" lon="3.84274">
        <ele>136.18918905067</ele>
        <time>2020-09-26T11:00:02.000Z</time>
      </trkpt>
      <trkpt lat="43.70239" lon="3.84276">
        <ele>136.58958983584</ele>
        <time>2020-09-26T11:00:04.000Z</time>
      </trkpt>
      <trkpt lat="43.70236" lon="3.84278">
        <ele>136.98999062101</ele>
        <time>2020-09-26T11:00:06.000Z</time>
      </trkpt>
      <trkpt lat="43.70234" lon="3.84281">
        <ele>136.61576303739</ele>
        <time>2020-09-26T11:00:08.000Z</time>
      </trkpt>
      <trkpt lat="43.70232" lon="3.84283">
        <ele>136.22167449169</ele>
        <time>2020-09-26T11:00:10.000Z</time>
      </trkpt>
      <trkpt lat="43.70231" lon="3.84287">
        <ele>135.82758594598</ele>
        <time>2020-09-26T11:00:12.000Z</time>
      </trkpt>
      <trkpt lat="43.7023" lon="3.8429">
        <ele>135.63054167313</ele>
        <time>2020-09-26T11:00:13.000Z</time>
      </trkpt>
      <trkpt lat="43.7023" lon="3.84293">
        <ele>135.43349740028</ele>
        <time>2020-09-26T11:00:14.000Z</time>
      </trkpt>
      <trkpt lat="43.70229" lon="3.84298">
        <ele>135.23645312742</ele>
        <time>2020-09-26T11:00:15.000Z</time>
      </trkpt>
      <trkpt lat="43.70228" lon="3.84304">
        <ele>135.03940885457</ele>
        <time>2020-09-26T11:00:16.000Z</time>
      </trkpt>
      <trkpt lat="43.70227" lon="3.84311">
        <ele>135.16243660099</ele>
        <time>2020-09-26T11:00:17.000Z</time>
      </trkpt>
      <trkpt lat="43.70225" lon="3.84319">
        <ele>135.36548235224</ele>
        <time>2020-09-26T11:00:18.000Z</time>
      </trkpt>
      <trkpt lat="43.70224" lon="3.84327">
        <ele>135.56852810348</ele>
        <time>2020-09-26T11:00:19.000Z</time>
      </trkpt>
      <trkpt lat="43.70223" lon="3.84335">
        <ele>135.77157385472</ele>
        <time>2020-09-26T11:00:20.000Z</time>
      </trkpt>
      <trkpt lat="43.70223" lon="3.84343">
        <ele>135.97461960597</ele>
        <time>2020-09-26T11:00:21.000Z</time>
      </trkpt>
      <trkpt lat="43.70222" lon="3.8435">
        <ele>136.17766535721</ele>
        <time>2020-09-26T11:00:22.000Z</time>
      </trkpt>
      <trkpt lat="43.70222" lon="3.84356">
        <ele>136.38071110845</ele>
        <time>2020-09-26T11:00:23.000Z</time>
      </trkpt>
      <trkpt lat="43.70221" lon="3.8436">
        <ele>136.5837568597</ele>
        <time>2020-09-26T11:00:24.000Z</time>
      </trkpt>
      <trkpt lat="43.70221" lon="3.84363">
        <ele>136.78680261094</ele>
        <time>2020-09-26T11:00:25.000Z</time>
      </trkpt>
      <trkpt lat="43.7022" lon="3.84366">
        <ele>136.98984836218</ele>
        <time>2020-09-26T11:00:26.000Z</time>
      </trkpt>
      <trkpt lat="43.70219" lon="3.84368">
        <ele>137.19000064</ele>
        <time>2020-09-26T11:00:27.000Z</time>
      </trkpt>
      <trkpt lat="43.70218" lon="3.84371">
        <ele>137.39000064</ele>
        <time>2020-09-26T11:00:28.000Z</time>
      </trkpt>
      <trkpt lat="43.70218" lon="3.84373">
        <ele>137.59000064</ele>
        <time>2020-09-26T11:00:29.000Z</time>
      </trkpt>
      <trkpt lat="43.70217" lon="3.84375">
        <ele>137.79000064</ele>
        <time>2020-09-26T11:00:30.000Z</time>
      </trkpt>
      <trkpt lat="43.70216" lon="3.8438">
        <ele>138.19000064</ele>
        <time>2020-09-26T11:00:32.000Z</time>
      </trkpt>
      <trkpt lat="43.70216" lon="3.84382">
        <ele>138.39000064</ele>
        <time>2020-09-26T11:00:33.000Z</time>
      </trkpt>
      <trkpt lat="43.70215" lon="3.84387">
        <ele>138.79000064</ele>
        <time>2020-09-26T11:00:35.000Z</time>
      </trkpt>
      <trkpt lat="43.70215" lon="3.84392">
        <ele>139.09500032</ele>
        <time>2020-09-26T11:00:37.000Z</time>
      </trkpt>
      <trkpt lat="43.70215" lon="3.84397">
        <ele>139.29500032</ele>
        <time>2020-09-26T11:00:39.000Z</time>
      </trkpt>
      <trkpt lat="43.70214" lon="3.84402">
        <ele>139.49500032</ele>
        <time>2020-09-26T11:00:41.000Z</time>
      </trkpt>
      <trkpt lat="43.70214" lon="3.84406">
        <ele>139.69500032</ele>
        <time>2020-09-26T11:00:43.000Z</time>
      </trkpt>
      <trkpt lat="43.70213" lon="3.84411">
        <ele>139.89500032</ele>
        <time>2020-09-26T11:00:45.000Z</time>
      </trkpt>
      <trkpt lat="43.70213" lon="3.84414">
        <ele>139.99500032</ele>
        <time>2020-09-26T11:00:46.000Z</time>
      </trkpt>
      <trkpt lat="43.70213" lon="3.84417">
        <ele>140</ele>
        <time>2020-09-26T11:00:47.000Z</time>
      </trkpt>
      <trkpt lat="43.70212" lon="3.84419">
        <ele>140</ele>
        <time>2020-09-26T11:00:48.000Z</time>
      </trkpt>
      <trkpt lat="43.70212" lon="3.84422">
        <ele>140</ele>
        <time>2020-09-26T11:00:49.000Z</time>
      </trkpt>
      <trkpt lat="43.70212" lon="3.84425">
        <ele>140</ele>
        <time>2020-09-26T11:00:50.000Z</time>
      </trkpt>
      <trkpt lat="43.70212" lon="3.84428">
        <ele>140</ele>
        <time>2020-09-26T11:00:51.000Z</time>
      </trkpt>
      <trkpt lat="43.70214" lon="3.84431">
        <ele>140</ele>
        <time>2020-09-26T11:00:53.000Z</time>
      </trkpt>
      <trkpt lat="43.70216" lon="3.84432">
        <ele>140</ele>
        <time>2020-09-26T11:00:54.000Z</time>
      </trkpt>
      <trkpt lat="43.70218" lon="3.84433">
        <ele>140</ele>
        <time>2020-09-26T11:00:55.000Z</time>
      </trkpt>
      <trkpt lat="43.7022" lon="3.84434">
        <ele>140</ele>
        <time>2020-09-26T11:00:56.000Z</time>
      </trkpt>
      <trkpt lat="43.70222" lon="3.84434">
        <ele>140.09500032</ele>
        <time>2020-09-26T11:00:57.000Z</time>
      </trkpt>
      <trkpt lat="43.70224" lon="3.84435">
        <ele>140.19500032</ele>
        <time>2020-09-26T11:00:58.000Z</time>
      </trkpt>
      <trkpt lat="43.70226" lon="3.84436">
        <ele>140.29500032</ele>
        <time>2020-09-26T11:00:59.000Z</time>
      </trkpt>
      <trkpt lat="43.70227" lon="3.84436">
        <ele>140.39500032</ele>
        <time>2020-09-26T11:01:00.000Z</time>
      </trkpt>
      <trkpt lat="43.70229" lon="3.84437">
        <ele>140.49500032</ele>
        <time>2020-09-26T11:01:01.000Z</time>
      </trkpt>
      <trkpt lat="43.70231" lon="3.84437">
        <ele>140.59500032</ele>
        <time>2020-09-26T11:01:02.000Z</time>
      </trkpt>
      <trkpt lat="43.70233" lon="3.84438">
        <ele>140.69500032</ele>
        <time>2020-09-26T11:01:03.000Z</time>
      </trkpt>
      <trkpt lat="43.70235" lon="3.84439">
        <ele>140.79500032</ele>
        <time>2020-09-26T11:01:04.000Z</time>
      </trkpt>
      <trkpt lat="43.70237" lon="3.8444">
        <ele>140.89500032</ele>
        <time>2020-09-26T11:01:05.000Z</time>
      </trkpt>
      <trkpt lat="43.70238" lon="3.8444">
        <ele>140.99500032</ele>
        <time>2020-09-26T11:01:06.000Z</time>
      </trkpt>
      <trkpt lat="43.7024" lon="3.84441">
        <ele>141.18719268975</ele>
        <time>2020-09-26T11:01:07.000Z</time>
      </trkpt>
      <trkpt lat="43.70243" lon="3.84442">
        <ele>141.58128123546</ele>
        <time>2020-09-26T11:01:09.000Z</time>
      </trkpt>
      <trkpt lat="43.70246" lon="3.84443">
        <ele>141.97536978116</ele>
        <time>2020-09-26T11:01:11.000Z</time>
      </trkpt>
      <trkpt lat="43.7025" lon="3.84443">
        <ele>142.36945832687</ele>
        <time>2020-09-26T11:01:13.000Z</time>
      </trkpt>
      <trkpt lat="43.70253" lon="3.84444">
        <ele>142.76354687258</ele>
        <time>2020-09-26T11:01:15.000Z</time>
      </trkpt>
      <trkpt lat="43.70256" lon="3.84445">
        <ele>143</ele>
        <time>2020-09-26T11:01:17.000Z</time>
      </trkpt>
      <trkpt lat="43.70259" lon="3.84447">
        <ele>143</ele>
        <time>2020-09-26T11:01:19.000Z</time>
      </trkpt>
      <trkpt lat="43.70262" lon="3.84449">
        <ele>143</ele>
        <time>2020-09-26T11:01:21.000Z</time>
      </trkpt>
      <trkpt lat="43.70264" lon="3.84452">
        <ele>143</ele>
        <time>2020-09-26T11:01:23.000Z</time>
      </trkpt>
      <trkpt lat="43.70267" lon="3.84454">
        <ele>143</ele>
        <time>2020-09-26T11:01:25.000Z</time>
      </trkpt>
      <trkpt lat="43.70269" lon="3.84456">
        <ele>142.90590645613</ele>
        <time>2020-09-26T11:01:27.000Z</time>
      </trkpt>
      <trkpt lat="43.70271" lon="3.84457">
        <ele>142.70570606354</ele>
        <time>2020-09-26T11:01:29.000Z</time>
      </trkpt>
      <trkpt lat="43.70274" lon="3.84458">
        <ele>142.50550567096</ele>
        <time>2020-09-26T11:01:31.000Z</time>
      </trkpt>
      <trkpt lat="43.70277" lon="3.84461">
        <ele>142.30530527837</ele>
        <time>2020-09-26T11:01:33.000Z</time>
      </trkpt>
      <trkpt lat="43.70279" lon="3.84463">
        <ele>142.10510488579</ele>
        <time>2020-09-26T11:01:35.000Z</time>
      </trkpt>
      <trkpt lat="43.70281" lon="3.84464">
        <ele>142.00500468949</ele>
        <time>2020-09-26T11:01:36.000Z</time>
      </trkpt>
      <trkpt lat="43.70282" lon="3.84466">
        <ele>141.90499968</ele>
        <time>2020-09-26T11:01:37.000Z</time>
      </trkpt>
      <trkpt lat="43.70281" lon="3.84471">
        <ele>141.70499968</ele>
        <time>2020-09-26T11:01:39.000Z</time>
      </trkpt>
      <trkpt lat="43.7028" lon="3.84472">
        <ele>141.60499968</ele>
        <time>2020-09-26T11:01:40.000Z</time>
      </trkpt>
      <trkpt lat="43.70278" lon="3.84474">
        <ele>141.50499968</ele>
        <time>2020-09-26T11:01:41.000Z</time>
      </trkpt>
      <trkpt lat="43.70277" lon="3.84476">
        <ele>141.40499968</ele>
        <time>2020-09-26T11:01:42.000Z</time>
      </trkpt>
      <trkpt lat="43.70276" lon="3.84479">
        <ele>141.30499968</ele>
        <time>2020-09-26T11:01:43.000Z</time>
      </trkpt>
      <trkpt lat="43.70275" lon="3.84481">
        <ele>141.20499968</ele>
        <time>2020-09-26T11:01:44.000Z</time>
      </trkpt>
      <trkpt lat="43.70273" lon="3.84484">
        <ele>141.10499968</ele>
        <time>2020-09-26T11:01:45.000Z</time>
      </trkpt>
      <trkpt lat="43.70271" lon="3.84485">
        <ele>141.00499968</ele>
        <time>2020-09-26T11:01:46.000Z</time>
      </trkpt>
      <trkpt lat="43.7027" lon="3.84489">
        <ele>141</ele>
        <time>2020-09-26T11:01:48.000Z</time>
      </trkpt>
      <trkpt lat="43.70273" lon="3.84488">
        <ele>141</ele>
        <time>2020-09-26T11:01:50.000Z</time>
      </trkpt>
      <trkpt lat="43.70274" lon="3.84486">
        <ele>141</ele>
        <time>2020-09-26T11:01:51.000Z</time>
      </trkpt>
      <trkpt lat="43.70275" lon="3.84483">
        <ele>141</ele>
        <time>2020-09-26T11:01:52.000Z</time>
      </trkpt>
      <trkpt lat="43.70276" lon="3.8448">
        <ele>141</ele>
        <time>2020-09-26T11:01:53.000Z</time>
      </trkpt>
      <trkpt lat="43.70278" lon="3.84478">
        <ele>141</ele>
        <time>2020-09-26T11:01:54.000Z</time>
      </trkpt>
      <trkpt lat="43.7028" lon="3.84477">
        <ele>141</ele>
        <time>2020-09-26T11:01:55.000Z</time>
      </trkpt>
      <trkpt lat="43.70282" lon="3.84476">
        <ele>141</ele>
        <time>2020-09-26T11:01:56.000Z</time>
      </trkpt>
      <trkpt lat="43.70284" lon="3.84477">
        <ele>140.90499968</ele>
        <time>2020-09-26T11:01:57.000Z</time>
      </trkpt>
      <trkpt lat="43.70286" lon="3.84479">
        <ele>140.80499968</ele>
        <time>2020-09-26T11:01:58.000Z</time>
      </trkpt>
      <trkpt lat="43.70288" lon="3.84481">
        <ele>140.70499968</ele>
        <time>2020-09-26T11:01:59.000Z</time>
      </trkpt>
      <trkpt lat="43.70289" lon="3.84485">
        <ele>140.60499968</ele>
        <time>2020-09-26T11:02:00.000Z</time>
      </trkpt>
      <trkpt lat="43.7029" lon="3.8449">
        <ele>140.50499968</ele>
        <time>2020-09-26T11:02:01.000Z</time>
      </trkpt>
      <trkpt lat="43.7029" lon="3.84495">
        <ele>140.40499968</ele>
        <time>2020-09-26T11:02:02.000Z</time>
      </trkpt>
      <trkpt lat="43.7029" lon="3.84498">
        <ele>140.30499968</ele>
        <time>2020-09-26T11:02:03.000Z</time>
      </trkpt>
      <trkpt lat="43.7029" lon="3.84498">
        <ele>140</ele>
        <time>2020-09-26T11:02:09.000Z</time>
      </trkpt>
      <trkpt lat="43.70289" lon="3.84506">
        <ele>139.00894742456</ele>
        <time>2020-09-26T11:03:06.000Z</time>
      </trkpt>
      <trkpt lat="43.70289" lon="3.8451">
        <ele>139</ele>
        <time>2020-09-26T11:03:07.000Z</time>
      </trkpt>
      <trkpt lat="43.70289" lon="3.84515">
        <ele>139</ele>
        <time>2020-09-26T11:03:08.000Z</time>
      </trkpt>
      <trkpt lat="43.70288" lon="3.8452">
        <ele>139</ele>
        <time>2020-09-26T11:03:09.000Z</time>
      </trkpt>
      <trkpt lat="43.70288" lon="3.84527">
        <ele>139</ele>
        <time>2020-09-26T11:03:10.000Z</time>
      </trkpt>
      <trkpt lat="43.70287" lon="3.84533">
        <ele>139</ele>
        <time>2020-09-26T11:03:11.000Z</time>
      </trkpt>
      <trkpt lat="43.70287" lon="3.84539">
        <ele>139</ele>
        <time>2020-09-26T11:03:12.000Z</time>
      </trkpt>
      <trkpt lat="43.70287" lon="3.84546">
        <ele>139</ele>
        <time>2020-09-26T11:03:13.000Z</time>
      </trkpt>
      <trkpt lat="43.70286" lon="3.84552">
        <ele>139</ele>
        <time>2020-09-26T11:03:14.000Z</time>
      </trkpt>
      <trkpt lat="43.70286" lon="3.84558">
        <ele>139</ele>
        <time>2020-09-26T11:03:15.000Z</time>
      </trkpt>
      <trkpt lat="43.70285" lon="3.84565">
        <ele>139</ele>
        <time>2020-09-26T11:03:16.000Z</time>
      </trkpt>
      <trkpt lat="43.70284" lon="3.84571">
        <ele>138.90758723735</ele>
        <time>2020-09-26T11:03:17.000Z</time>
      </trkpt>
      <trkpt lat="43.70283" lon="3.84578">
        <ele>138.81031097276</ele>
        <time>2020-09-26T11:03:18.000Z</time>
      </trkpt>
      <trkpt lat="43.70282" lon="3.84584">
        <ele>138.71303470817</ele>
        <time>2020-09-26T11:03:19.000Z</time>
      </trkpt>
      <trkpt lat="43.7028" lon="3.8459">
        <ele>138.61575844358</ele>
        <time>2020-09-26T11:03:20.000Z</time>
      </trkpt>
      <trkpt lat="43.70278" lon="3.84595">
        <ele>138.51848217899</ele>
        <time>2020-09-26T11:03:21.000Z</time>
      </trkpt>
      <trkpt lat="43.70276" lon="3.84601">
        <ele>138.4212059144</ele>
        <time>2020-09-26T11:03:22.000Z</time>
      </trkpt>
      <trkpt lat="43.70273" lon="3.84606">
        <ele>138.3239296498</ele>
        <time>2020-09-26T11:03:23.000Z</time>
      </trkpt>
      <trkpt lat="43.70271" lon="3.84611">
        <ele>138.22665338521</ele>
        <time>2020-09-26T11:03:24.000Z</time>
      </trkpt>
      <trkpt lat="43.70268" lon="3.84616">
        <ele>138.12937712062</ele>
        <time>2020-09-26T11:03:25.000Z</time>
      </trkpt>
      <trkpt lat="43.70264" lon="3.84621">
        <ele>138.03210085603</ele>
        <time>2020-09-26T11:03:26.000Z</time>
      </trkpt>
      <trkpt lat="43.70261" lon="3.84624">
        <ele>137.93106962963</ele>
        <time>2020-09-26T11:03:27.000Z</time>
      </trkpt>
      <trkpt lat="43.70259" lon="3.84628">
        <ele>137.82818897119</ele>
        <time>2020-09-26T11:03:28.000Z</time>
      </trkpt>
      <trkpt lat="43.70256" lon="3.84631">
        <ele>137.72530831276</ele>
        <time>2020-09-26T11:03:29.000Z</time>
      </trkpt>
      <trkpt lat="43.70254" lon="3.84633">
        <ele>137.62242765432</ele>
        <time>2020-09-26T11:03:30.000Z</time>
      </trkpt>
      <trkpt lat="43.70252" lon="3.84635">
        <ele>137.51954699589</ele>
        <time>2020-09-26T11:03:31.000Z</time>
      </trkpt>
      <trkpt lat="43.70251" lon="3.84638">
        <ele>137.41666633745</ele>
        <time>2020-09-26T11:03:32.000Z</time>
      </trkpt>
      <trkpt lat="43.70249" lon="3.8464">
        <ele>137.31378567901</ele>
        <time>2020-09-26T11:03:33.000Z</time>
      </trkpt>
      <trkpt lat="43.70248" lon="3.84643">
        <ele>137.21090502058</ele>
        <time>2020-09-26T11:03:34.000Z</time>
      </trkpt>
      <trkpt lat="43.70246" lon="3.84646">
        <ele>137.10802436214</ele>
        <time>2020-09-26T11:03:35.000Z</time>
      </trkpt>
      <trkpt lat="43.70245" lon="3.84648">
        <ele>137.0051437037</ele>
        <time>2020-09-26T11:03:36.000Z</time>
      </trkpt>
      <trkpt lat="43.70244" lon="3.84651">
        <ele>137</ele>
        <time>2020-09-26T11:03:37.000Z</time>
      </trkpt>
      <trkpt lat="43.70243" lon="3.84653">
        <ele>137</ele>
        <time>2020-09-26T11:03:38.000Z</time>
      </trkpt>
      <trkpt lat="43.70242" lon="3.84656">
        <ele>137</ele>
        <time>2020-09-26T11:03:39.000Z</time>
      </trkpt>
      <trkpt lat="43.70241" lon="3.84658">
        <ele>137</ele>
        <time>2020-09-26T11:03:40.000Z</time>
      </trkpt>
      <trkpt lat="43.70239" lon="3.8466">
        <ele>137</ele>
        <time>2020-09-26T11:03:41.000Z</time>
      </trkpt>
      <trkpt lat="43.70238" lon="3.84662">
        <ele>137</ele>
        <time>2020-09-26T11:03:42.000Z</time>
      </trkpt>
      <trkpt lat="43.70237" lon="3.84665">
        <ele>137</ele>
        <time>2020-09-26T11:03:43.000Z</time>
      </trkpt>
      <trkpt lat="43.70236" lon="3.84669">
        <ele>137</ele>
        <time>2020-09-26T11:03:45.000Z</time>
      </trkpt>
      <trkpt lat="43.70235" lon="3.84672">
        <ele>137</ele>
        <time>2020-09-26T11:03:46.000Z</time>
      </trkpt>
      <trkpt lat="43.70233" lon="3.84674">
        <ele>137</ele>
        <time>2020-09-26T11:03:47.000Z</time>
      </trkpt>
      <trkpt lat="43.70231" lon="3.84676">
        <ele>137</ele>
        <time>2020-09-26T11:03:48.000Z</time>
      </trkpt>
      <trkpt lat="43.7023" lon="3.84677">
        <ele>137</ele>
        <time>2020-09-26T11:03:49.000Z</time>
      </trkpt>
      <trkpt lat="43.70227" lon="3.8468">
        <ele>137</ele>
        <time>2020-09-26T11:03:51.000Z</time>
      </trkpt>
      <trkpt lat="43.70226" lon="3.84681">
        <ele>137</ele>
        <time>2020-09-26T11:03:52.000Z</time>
      </trkpt>
      <trkpt lat="43.70224" lon="3.84683">
        <ele>137</ele>
        <time>2020-09-26T11:03:53.000Z</time>
      </trkpt>
      <trkpt lat="43.70222" lon="3.84685">
        <ele>137</ele>
        <time>2020-09-26T11:03:54.000Z</time>
      </trkpt>
      <trkpt lat="43.7022" lon="3.84688">
        <ele>137</ele>
        <time>2020-09-26T11:03:55.000Z</time>
      </trkpt>
      <trkpt lat="43.70218" lon="3.8469">
        <ele>137</ele>
        <time>2020-09-26T11:03:56.000Z</time>
      </trkpt>
      <trkpt lat="43.70216" lon="3.84692">
        <ele>136.93106962963</ele>
        <time>2020-09-26T11:03:57.000Z</time>
      </trkpt>
      <trkpt lat="43.70215" lon="3.84694">
        <ele>136.82818897119</ele>
        <time>2020-09-26T11:03:58.000Z</time>
      </trkpt>
      <trkpt lat="43.70213" lon="3.84695">
        <ele>136.72530831276</ele>
        <time>2020-09-26T11:03:59.000Z</time>
      </trkpt>
      <trkpt lat="43.70211" lon="3.84697">
        <ele>136.62242765432</ele>
        <time>2020-09-26T11:04:00.000Z</time>
      </trkpt>
      <trkpt lat="43.70209" lon="3.84699">
        <ele>136.51954699589</ele>
        <time>2020-09-26T11:04:01.000Z</time>
      </trkpt>
      <trkpt lat="43.70207" lon="3.84701">
        <ele>136.41666633745</ele>
        <time>2020-09-26T11:04:02.000Z</time>
      </trkpt>
      <trkpt lat="43.70205" lon="3.84703">
        <ele>136.31378567901</ele>
        <time>2020-09-26T11:04:03.000Z</time>
      </trkpt>
      <trkpt lat="43.70202" lon="3.84706">
        <ele>136.21090502058</ele>
        <time>2020-09-26T11:04:04.000Z</time>
      </trkpt>
      <trkpt lat="43.702" lon="3.84709">
        <ele>136.10802436214</ele>
        <time>2020-09-26T11:04:05.000Z</time>
      </trkpt>
      <trkpt lat="43.70197" lon="3.84711">
        <ele>136.0051437037</ele>
        <time>2020-09-26T11:04:06.000Z</time>
      </trkpt>
      <trkpt lat="43.70194" lon="3.84714">
        <ele>136</ele>
        <time>2020-09-26T11:04:07.000Z</time>
      </trkpt>
      <trkpt lat="43.70192" lon="3.84716">
        <ele>136</ele>
        <time>2020-09-26T11:04:08.000Z</time>
      </trkpt>
      <trkpt lat="43.7019" lon="3.84718">
        <ele>136</ele>
        <time>2020-09-26T11:04:09.000Z</time>
      </trkpt>
      <trkpt lat="43.70188" lon="3.8472">
        <ele>136</ele>
        <time>2020-09-26T11:04:10.000Z</time>
      </trkpt>
      <trkpt lat="43.70186" lon="3.84722">
        <ele>136</ele>
        <time>2020-09-26T11:04:11.000Z</time>
      </trkpt>
      <trkpt lat="43.70184" lon="3.84724">
        <ele>136</ele>
        <time>2020-09-26T11:04:12.000Z</time>
      </trkpt>
      <trkpt lat="43.70182" lon="3.84727">
        <ele>136</ele>
        <time>2020-09-26T11:04:13.000Z</time>
      </trkpt>
      <trkpt lat="43.70179" lon="3.84729">
        <ele>136</ele>
        <time>2020-09-26T11:04:14.000Z</time>
      </trkpt>
      <trkpt lat="43.70177" lon="3.84732">
        <ele>136</ele>
        <time>2020-09-26T11:04:15.000Z</time>
      </trkpt>
      <trkpt lat="43.70174" lon="3.84735">
        <ele>136</ele>
        <time>2020-09-26T11:04:16.000Z</time>
      </trkpt>
      <trkpt lat="43.70171" lon="3.84739">
        <ele>135.8144525</ele>
        <time>2020-09-26T11:04:17.000Z</time>
      </trkpt>
      <trkpt lat="43.70168" lon="3.84743">
        <ele>135.61914</ele>
        <time>2020-09-26T11:04:18.000Z</time>
      </trkpt>
      <trkpt lat="43.70165" lon="3.84748">
        <ele>135.4238275</ele>
        <time>2020-09-26T11:04:19.000Z</time>
      </trkpt>
      <trkpt lat="43.70162" lon="3.84755">
        <ele>135.228515</ele>
        <time>2020-09-26T11:04:20.000Z</time>
      </trkpt>
      <trkpt lat="43.70159" lon="3.84762">
        <ele>135.0332025</ele>
        <time>2020-09-26T11:04:21.000Z</time>
      </trkpt>
      <trkpt lat="43.70155" lon="3.84769">
        <ele>134.83789</ele>
        <time>2020-09-26T11:04:22.000Z</time>
      </trkpt>
      <trkpt lat="43.70152" lon="3.84776">
        <ele>134.6425775</ele>
        <time>2020-09-26T11:04:23.000Z</time>
      </trkpt>
      <trkpt lat="43.7015" lon="3.84784">
        <ele>134.447265</ele>
        <time>2020-09-26T11:04:24.000Z</time>
      </trkpt>
      <trkpt lat="43.70148" lon="3.84792">
        <ele>134.2519525</ele>
        <time>2020-09-26T11:04:25.000Z</time>
      </trkpt>
      <trkpt lat="43.70146" lon="3.848">
        <ele>134.05664</ele>
        <time>2020-09-26T11:04:26.000Z</time>
      </trkpt>
      <trkpt lat="43.70145" lon="3.84808">
        <ele>133.92725377049</ele>
        <time>2020-09-26T11:04:27.000Z</time>
      </trkpt>
      <trkpt lat="43.70143" lon="3.84817">
        <ele>133.8247947541</ele>
        <time>2020-09-26T11:04:28.000Z</time>
      </trkpt>
      <trkpt lat="43.70141" lon="3.84825">
        <ele>133.72233573771</ele>
        <time>2020-09-26T11:04:29.000Z</time>
      </trkpt>
      <trkpt lat="43.70139" lon="3.84833">
        <ele>133.61987672131</ele>
        <time>2020-09-26T11:04:30.000Z</time>
      </trkpt>
      <trkpt lat="43.70138" lon="3.84841">
        <ele>133.51741770492</ele>
        <time>2020-09-26T11:04:31.000Z</time>
      </trkpt>
      <trkpt lat="43.70137" lon="3.84849">
        <ele>133.41495868852</ele>
        <time>2020-09-26T11:04:32.000Z</time>
      </trkpt>
      <trkpt lat="43.70137" lon="3.84857">
        <ele>133.31249967213</ele>
        <time>2020-09-26T11:04:33.000Z</time>
      </trkpt>
      <trkpt lat="43.70137" lon="3.84865">
        <ele>133.21004065574</ele>
        <time>2020-09-26T11:04:34.000Z</time>
      </trkpt>
      <trkpt lat="43.70139" lon="3.84873">
        <ele>133.10758163934</ele>
        <time>2020-09-26T11:04:35.000Z</time>
      </trkpt>
      <trkpt lat="43.70142" lon="3.84881">
        <ele>133.00512262295</ele>
        <time>2020-09-26T11:04:36.000Z</time>
      </trkpt>
      <trkpt lat="43.70145" lon="3.84888">
        <ele>132.5249984</ele>
        <time>2020-09-26T11:04:37.000Z</time>
      </trkpt>
      <trkpt lat="43.7015" lon="3.84895">
        <ele>132.0249984</ele>
        <time>2020-09-26T11:04:38.000Z</time>
      </trkpt>
      <trkpt lat="43.70155" lon="3.84902">
        <ele>131.5249984</ele>
        <time>2020-09-26T11:04:39.000Z</time>
      </trkpt>
      <trkpt lat="43.7016" lon="3.84908">
        <ele>131.0249984</ele>
        <time>2020-09-26T11:04:40.000Z</time>
      </trkpt>
      <trkpt lat="43.70164" lon="3.84912">
        <ele>130.5249984</ele>
        <time>2020-09-26T11:04:41.000Z</time>
      </trkpt>
      <trkpt lat="43.70169" lon="3.84917">
        <ele>130.0249984</ele>
        <time>2020-09-26T11:04:42.000Z</time>
      </trkpt>
      <trkpt lat="43.70173" lon="3.84922">
        <ele>129.5249984</ele>
        <time>2020-09-26T11:04:43.000Z</time>
      </trkpt>
      <trkpt lat="43.70177" lon="3.84929">
        <ele>129.0249984</ele>
        <time>2020-09-26T11:04:44.000Z</time>
      </trkpt>
      <trkpt lat="43.7018" lon="3.84937">
        <ele>128.5249984</ele>
        <time>2020-09-26T11:04:45.000Z</time>
      </trkpt>
      <trkpt lat="43.70182" lon="3.84946">
        <ele>128.0249984</ele>
        <time>2020-09-26T11:04:46.000Z</time>
      </trkpt>
      <trkpt lat="43.70183" lon="3.84956">
        <ele>127.43396053737</ele>
        <time>2020-09-26T11:04:47.000Z</time>
      </trkpt>
      <trkpt lat="43.70183" lon="3.84967">
        <ele>126.83813153108</ele>
        <time>2020-09-26T11:04:48.000Z</time>
      </trkpt>
      <trkpt lat="43.70185" lon="3.84977">
        <ele>126.24230252479</ele>
        <time>2020-09-26T11:04:49.000Z</time>
      </trkpt>
      <trkpt lat="43.70188" lon="3.84986">
        <ele>125.6464735185</ele>
        <time>2020-09-26T11:04:50.000Z</time>
      </trkpt>
      <trkpt lat="43.7019" lon="3.84996">
        <ele>125.05064451221</ele>
        <time>2020-09-26T11:04:51.000Z</time>
      </trkpt>
      <trkpt lat="43.70192" lon="3.85004">
        <ele>124.45481550592</ele>
        <time>2020-09-26T11:04:52.000Z</time>
      </trkpt>
      <trkpt lat="43.70192" lon="3.85011">
        <ele>123.85898649963</ele>
        <time>2020-09-26T11:04:53.000Z</time>
      </trkpt>
      <trkpt lat="43.70188" lon="3.85017">
        <ele>123.26315749334</ele>
        <time>2020-09-26T11:04:54.000Z</time>
      </trkpt>
      <trkpt lat="43.70184" lon="3.85023">
        <ele>122.66732848705</ele>
        <time>2020-09-26T11:04:55.000Z</time>
      </trkpt>
      <trkpt lat="43.70178" lon="3.85027">
        <ele>122.07149948075</ele>
        <time>2020-09-26T11:04:56.000Z</time>
      </trkpt>
      <trkpt lat="43.70173" lon="3.85031">
        <ele>121.55689814522</ele>
        <time>2020-09-26T11:04:57.000Z</time>
      </trkpt>
      <trkpt lat="43.70168" lon="3.85036">
        <ele>121.05337331025</ele>
        <time>2020-09-26T11:04:58.000Z</time>
      </trkpt>
      <trkpt lat="43.70163" lon="3.85042">
        <ele>120.54984847528</ele>
        <time>2020-09-26T11:04:59.000Z</time>
      </trkpt>
      <trkpt lat="43.70157" lon="3.85048">
        <ele>120.04632364031</ele>
        <time>2020-09-26T11:05:00.000Z</time>
      </trkpt>
      <trkpt lat="43.70152" lon="3.85055">
        <ele>119.54279880533</ele>
        <time>2020-09-26T11:05:01.000Z</time>
      </trkpt>
      <trkpt lat="43.70147" lon="3.85063">
        <ele>119.03927397036</ele>
        <time>2020-09-26T11:05:02.000Z</time>
      </trkpt>
      <trkpt lat="43.70144" lon="3.85073">
        <ele>118.53574913539</ele>
        <time>2020-09-26T11:05:03.000Z</time>
      </trkpt>
      <trkpt lat="43.70142" lon="3.85083">
        <ele>118.03222430041</ele>
        <time>2020-09-26T11:05:04.000Z</time>
      </trkpt>
      <trkpt lat="43.7014" lon="3.85094">
        <ele>117.52869946544</ele>
        <time>2020-09-26T11:05:05.000Z</time>
      </trkpt>
      <trkpt lat="43.70138" lon="3.85103">
        <ele>117.02517463047</ele>
        <time>2020-09-26T11:05:06.000Z</time>
      </trkpt>
      <trkpt lat="43.70135" lon="3.85112">
        <ele>116.53928084135</ele>
        <time>2020-09-26T11:05:07.000Z</time>
      </trkpt>
      <trkpt lat="43.70132" lon="3.85121">
        <ele>116.0543149395</ele>
        <time>2020-09-26T11:05:08.000Z</time>
      </trkpt>
      <trkpt lat="43.70128" lon="3.85129">
        <ele>115.56934903764</ele>
        <time>2020-09-26T11:05:09.000Z</time>
      </trkpt>
      <trkpt lat="43.70123" lon="3.85138">
        <ele>115.08438313579</ele>
        <time>2020-09-26T11:05:10.000Z</time>
      </trkpt>
      <trkpt lat="43.70118" lon="3.85148">
        <ele>114.59941723394</ele>
        <time>2020-09-26T11:05:11.000Z</time>
      </trkpt>
      <trkpt lat="43.70114" lon="3.85157">
        <ele>114.11445133208</ele>
        <time>2020-09-26T11:05:12.000Z</time>
      </trkpt>
      <trkpt lat="43.70109" lon="3.85167">
        <ele>113.62948543023</ele>
        <time>2020-09-26T11:05:13.000Z</time>
      </trkpt>
      <trkpt lat="43.70104" lon="3.85175">
        <ele>113.14451952837</ele>
        <time>2020-09-26T11:05:14.000Z</time>
      </trkpt>
      <trkpt lat="43.70098" lon="3.85182">
        <ele>112.65955362652</ele>
        <time>2020-09-26T11:05:15.000Z</time>
      </trkpt>
      <trkpt lat="43.70092" lon="3.85187">
        <ele>112.17458772467</ele>
        <time>2020-09-26T11:05:16.000Z</time>
      </trkpt>
      <trkpt lat="43.70086" lon="3.85192">
        <ele>111.60412397254</ele>
        <time>2020-09-26T11:05:17.000Z</time>
      </trkpt>
      <trkpt lat="43.7008" lon="3.85196">
        <ele>110.98556767963</ele>
        <time>2020-09-26T11:05:18.000Z</time>
      </trkpt>
      <trkpt lat="43.70075" lon="3.852">
        <ele>110.36701138671</ele>
        <time>2020-09-26T11:05:19.000Z</time>
      </trkpt>
      <trkpt lat="43.7007" lon="3.85204">
        <ele>109.7484550938</ele>
        <time>2020-09-26T11:05:20.000Z</time>
      </trkpt>
      <trkpt lat="43.70063" lon="3.85207">
        <ele>109.12989880089</ele>
        <time>2020-09-26T11:05:21.000Z</time>
      </trkpt>
      <trkpt lat="43.70056" lon="3.85209">
        <ele>108.51134250798</ele>
        <time>2020-09-26T11:05:22.000Z</time>
      </trkpt>
      <trkpt lat="43.70049" lon="3.85212">
        <ele>107.89278621507</ele>
        <time>2020-09-26T11:05:23.000Z</time>
      </trkpt>
      <trkpt lat="43.70043" lon="3.85216">
        <ele>107.27422992216</ele>
        <time>2020-09-26T11:05:24.000Z</time>
      </trkpt>
      <trkpt lat="43.70035" lon="3.8522">
        <ele>106.65567362925</ele>
        <time>2020-09-26T11:05:25.000Z</time>
      </trkpt>
      <trkpt lat="43.70028" lon="3.85224">
        <ele>106.03711733634</ele>
        <time>2020-09-26T11:05:26.000Z</time>
      </trkpt>
      <trkpt lat="43.70021" lon="3.85229">
        <ele>105.52953228063</ele>
        <time>2020-09-26T11:05:27.000Z</time>
      </trkpt>
      <trkpt lat="43.70014" lon="3.85233">
        <ele>105.02903129917</ele>
        <time>2020-09-26T11:05:28.000Z</time>
      </trkpt>
      <trkpt lat="43.70008" lon="3.85237">
        <ele>104.52853031771</ele>
        <time>2020-09-26T11:05:29.000Z</time>
      </trkpt>
      <trkpt lat="43.70002" lon="3.85241">
        <ele>104.02802933624</ele>
        <time>2020-09-26T11:05:30.000Z</time>
      </trkpt>
      <trkpt lat="43.69997" lon="3.85245">
        <ele>103.52752835478</ele>
        <time>2020-09-26T11:05:31.000Z</time>
      </trkpt>
      <trkpt lat="43.69991" lon="3.85248">
        <ele>103.02702737332</ele>
        <time>2020-09-26T11:05:32.000Z</time>
      </trkpt>
      <trkpt lat="43.69985" lon="3.85249">
        <ele>102.52652639186</ele>
        <time>2020-09-26T11:05:33.000Z</time>
      </trkpt>
      <trkpt lat="43.69979" lon="3.85252">
        <ele>102.02602541039</ele>
        <time>2020-09-26T11:05:34.000Z</time>
      </trkpt>
      <trkpt lat="43.69973" lon="3.85254">
        <ele>101.52552442893</ele>
        <time>2020-09-26T11:05:35.000Z</time>
      </trkpt>
      <trkpt lat="43.69967" lon="3.85255">
        <ele>101.02502344747</ele>
        <time>2020-09-26T11:05:36.000Z</time>
      </trkpt>
      <trkpt lat="43.69961" lon="3.85257">
        <ele>100.61999872</ele>
        <time>2020-09-26T11:05:37.000Z</time>
      </trkpt>
      <trkpt lat="43.69955" lon="3.85258">
        <ele>100.21999872</ele>
        <time>2020-09-26T11:05:38.000Z</time>
      </trkpt>
      <trkpt lat="43.69949" lon="3.85259">
        <ele>99.81999872</ele>
        <time>2020-09-26T11:05:39.000Z</time>
      </trkpt>
      <trkpt lat="43.69943" lon="3.85261">
        <ele>99.41999872</ele>
        <time>2020-09-26T11:05:40.000Z</time>
      </trkpt>
      <trkpt lat="43.69937" lon="3.85264">
        <ele>99.01999872</ele>
        <time>2020-09-26T11:05:41.000Z</time>
      </trkpt>
      <trkpt lat="43.69931" lon="3.85268">
        <ele>98.61999872</ele>
        <time>2020-09-26T11:05:42.000Z</time>
      </trkpt>
      <trkpt lat="43.69926" lon="3.85272">
        <ele>98.21999872</ele>
        <time>2020-09-26T11:05:43.000Z</time>
      </trkpt>
      <trkpt lat="43.69922" lon="3.85277">
        <ele>97.81999872</ele>
        <time>2020-09-26T11:05:44.000Z</time>
      </trkpt>
      <trkpt lat="43.69918" lon="3.85282">
        <ele>97.41999872</ele>
        <time>2020-09-26T11:05:45.000Z</time>
      </trkpt>
      <trkpt lat="43.69913" lon="3.85285">
        <ele>97.01999872</ele>
        <time>2020-09-26T11:05:46.000Z</time>
      </trkpt>
      <trkpt lat="43.69908" lon="3.85285">
        <ele>96.42999808</ele>
        <time>2020-09-26T11:05:47.000Z</time>
      </trkpt>
      <trkpt lat="43.69901" lon="3.85285">
        <ele>95.82999808</ele>
        <time>2020-09-26T11:05:48.000Z</time>
      </trkpt>
      <trkpt lat="43.69895" lon="3.85283">
        <ele>95.22999808</ele>
        <time>2020-09-26T11:05:49.000Z</time>
      </trkpt>
      <trkpt lat="43.69888" lon="3.85281">
        <ele>94.62999808</ele>
        <time>2020-09-26T11:05:50.000Z</time>
      </trkpt>
      <trkpt lat="43.69883" lon="3.85281">
        <ele>94.02999808</ele>
        <time>2020-09-26T11:05:51.000Z</time>
      </trkpt>
      <trkpt lat="43.69878" lon="3.85282">
        <ele>93.42999808</ele>
        <time>2020-09-26T11:05:52.000Z</time>
      </trkpt>
      <trkpt lat="43.69874" lon="3.85283">
        <ele>92.82999808</ele>
        <time>2020-09-26T11:05:53.000Z</time>
      </trkpt>
      <trkpt lat="43.69873" lon="3.85286">
        <ele>92.22999808</ele>
        <time>2020-09-26T11:05:54.000Z</time>
      </trkpt>
      <trkpt lat="43.69873" lon="3.8529">
        <ele>91.62999808</ele>
        <time>2020-09-26T11:05:55.000Z</time>
      </trkpt>
      <trkpt lat="43.69875" lon="3.85293">
        <ele>91.02999808</ele>
        <time>2020-09-26T11:05:56.000Z</time>
      </trkpt>
      <trkpt lat="43.69877" lon="3.85296">
        <ele>90.71499904</ele>
        <time>2020-09-26T11:05:57.000Z</time>
      </trkpt>
      <trkpt lat="43.6988" lon="3.85298">
        <ele>90.41499904</ele>
        <time>2020-09-26T11:05:58.000Z</time>
      </trkpt>
      <trkpt lat="43.69884" lon="3.85301">
        <ele>90.11499904</ele>
        <time>2020-09-26T11:05:59.000Z</time>
      </trkpt>
      <trkpt lat="43.69888" lon="3.85304">
        <ele>89.81499904</ele>
        <time>2020-09-26T11:06:00.000Z</time>
      </trkpt>
      <trkpt lat="43.69892" lon="3.85307">
        <ele>89.51499904</ele>
        <time>2020-09-26T11:06:01.000Z</time>
      </trkpt>
      <trkpt lat="43.69897" lon="3.85311">
        <ele>89.21499904</ele>
        <time>2020-09-26T11:06:02.000Z</time>
      </trkpt>
      <trkpt lat="43.699" lon="3.85314">
        <ele>88.91499904</ele>
        <time>2020-09-26T11:06:03.000Z</time>
      </trkpt>
      <trkpt lat="43.69905" lon="3.85318">
        <ele>88.61499904</ele>
        <time>2020-09-26T11:06:04.000Z</time>
      </trkpt>
      <trkpt lat="43.6991" lon="3.85321">
        <ele>88.31499904</ele>
        <time>2020-09-26T11:06:05.000Z</time>
      </trkpt>
      <trkpt lat="43.69916" lon="3.85325">
        <ele>88.01499904</ele>
        <time>2020-09-26T11:06:06.000Z</time>
      </trkpt>
      <trkpt lat="43.69921" lon="3.85328">
        <ele>87.61999872</ele>
        <time>2020-09-26T11:06:07.000Z</time>
      </trkpt>
      <trkpt lat="43.69926" lon="3.85331">
        <ele>87.21999872</ele>
        <time>2020-09-26T11:06:08.000Z</time>
      </trkpt>
      <trkpt lat="43.69931" lon="3.85335">
        <ele>86.81999872</ele>
        <time>2020-09-26T11:06:09.000Z</time>
      </trkpt>
      <trkpt lat="43.69936" lon="3.85339">
        <ele>86.41999872</ele>
        <time>2020-09-26T11:06:10.000Z</time>
      </trkpt>
      <trkpt lat="43.6994" lon="3.85341">
        <ele>86.01999872</ele>
        <time>2020-09-26T11:06:11.000Z</time>
      </trkpt>
      <trkpt lat="43.69944" lon="3.85341">
        <ele>85.61999872</ele>
        <time>2020-09-26T11:06:12.000Z</time>
      </trkpt>
      <trkpt lat="43.69947" lon="3.85342">
        <ele>85.21999872</ele>
        <time>2020-09-26T11:06:13.000Z</time>
      </trkpt>
      <trkpt lat="43.6995" lon="3.85342">
        <ele>84.81999872</ele>
        <time>2020-09-26T11:06:14.000Z</time>
      </trkpt>
      <trkpt lat="43.69953" lon="3.85342">
        <ele>84.41999872</ele>
        <time>2020-09-26T11:06:15.000Z</time>
      </trkpt>
      <trkpt lat="43.69956" lon="3.85341">
        <ele>84.01999872</ele>
        <time>2020-09-26T11:06:16.000Z</time>
      </trkpt>
      <trkpt lat="43.69959" lon="3.8534">
        <ele>83.80999936</ele>
        <time>2020-09-26T11:06:17.000Z</time>
      </trkpt>
      <trkpt lat="43.69961" lon="3.85339">
        <ele>83.60999936</ele>
        <time>2020-09-26T11:06:18.000Z</time>
      </trkpt>
      <trkpt lat="43.69962" lon="3.85338">
        <ele>83.20999936</ele>
        <time>2020-09-26T11:06:20.000Z</time>
      </trkpt>
      <trkpt lat="43.69962" lon="3.85335">
        <ele>82.80999936</ele>
        <time>2020-09-26T11:06:22.000Z</time>
      </trkpt>
      <trkpt lat="43.6996" lon="3.85334">
        <ele>82.20999936</ele>
        <time>2020-09-26T11:06:25.000Z</time>
      </trkpt>
      <trkpt lat="43.6996" lon="3.85333">
        <ele>82</ele>
        <time>2020-09-26T11:06:31.000Z</time>
      </trkpt>
      <trkpt lat="43.69965" lon="3.85336">
        <ele>81.037678520099</ele>
        <time>2020-09-26T11:06:44.000Z</time>
      </trkpt>
      <trkpt lat="43.69967" lon="3.85335">
        <ele>81</ele>
        <time>2020-09-26T11:06:49.000Z</time>
      </trkpt>
      <trkpt lat="43.69959" lon="3.85341">
        <ele>79.007406764119</ele>
        <time>2020-09-26T11:09:04.000Z</time>
      </trkpt>
      <trkpt lat="43.69957" lon="3.8534">
        <ele>78.948637617535</ele>
        <time>2020-09-26T11:09:05.000Z</time>
      </trkpt>
      <trkpt lat="43.69955" lon="3.85338">
        <ele>78.843815744279</ele>
        <time>2020-09-26T11:09:06.000Z</time>
      </trkpt>
      <trkpt lat="43.69951" lon="3.85337">
        <ele>78.738993871023</ele>
        <time>2020-09-26T11:09:07.000Z</time>
      </trkpt>
      <trkpt lat="43.69947" lon="3.85336">
        <ele>78.634171997767</ele>
        <time>2020-09-26T11:09:08.000Z</time>
      </trkpt>
      <trkpt lat="43.69943" lon="3.85336">
        <ele>78.529350124512</ele>
        <time>2020-09-26T11:09:09.000Z</time>
      </trkpt>
      <trkpt lat="43.6994" lon="3.85335">
        <ele>78.424528251256</ele>
        <time>2020-09-26T11:09:10.000Z</time>
      </trkpt>
      <trkpt lat="43.69936" lon="3.85336">
        <ele>78.319706378</ele>
        <time>2020-09-26T11:09:11.000Z</time>
      </trkpt>
      <trkpt lat="43.69932" lon="3.85336">
        <ele>78.214884504744</ele>
        <time>2020-09-26T11:09:12.000Z</time>
      </trkpt>
      <trkpt lat="43.69928" lon="3.85337">
        <ele>78.110062631489</ele>
        <time>2020-09-26T11:09:13.000Z</time>
      </trkpt>
      <trkpt lat="43.69923" lon="3.85337">
        <ele>78.005240758233</ele>
        <time>2020-09-26T11:09:14.000Z</time>
      </trkpt>
      <trkpt lat="43.69919" lon="3.85338">
        <ele>78</ele>
        <time>2020-09-26T11:09:15.000Z</time>
      </trkpt>
      <trkpt lat="43.69915" lon="3.85339">
        <ele>78</ele>
        <time>2020-09-26T11:09:16.000Z</time>
      </trkpt>
      <trkpt lat="43.69911" lon="3.8534">
        <ele>78</ele>
        <time>2020-09-26T11:09:17.000Z</time>
      </trkpt>
      <trkpt lat="43.69907" lon="3.85339">
        <ele>78</ele>
        <time>2020-09-26T11:09:18.000Z</time>
      </trkpt>
      <trkpt lat="43.69905" lon="3.85338">
        <ele>78</ele>
        <time>2020-09-26T11:09:19.000Z</time>
      </trkpt>
      <trkpt lat="43.69903" lon="3.85339">
        <ele>78</ele>
        <time>2020-09-26T11:09:20.000Z</time>
      </trkpt>
      <trkpt lat="43.699" lon="3.85339">
        <ele>78</ele>
        <time>2020-09-26T11:09:22.000Z</time>
      </trkpt>
      <trkpt lat="43.69898" lon="3.8534">
        <ele>78</ele>
        <time>2020-09-26T11:09:23.000Z</time>
      </trkpt>
      <trkpt lat="43.69896" lon="3.8534">
        <ele>78</ele>
        <time>2020-09-26T11:09:24.000Z</time>
      </trkpt>
      <trkpt lat="43.69894" lon="3.8534">
        <ele>78</ele>
        <time>2020-09-26T11:09:26.000Z</time>
      </trkpt>
      <trkpt lat="43.69894" lon="3.85339">
        <ele>78</ele>
        <time>2020-09-26T11:09:31.000Z</time>
      </trkpt>
      <trkpt lat="43.69888" lon="3.85337">
        <ele>77.009043258672</ele>
        <time>2020-09-26T11:10:00.000Z</time>
      </trkpt>
      <trkpt lat="43.69884" lon="3.85337">
        <ele>76.823108595899</ele>
        <time>2020-09-26T11:10:02.000Z</time>
      </trkpt>
      <trkpt lat="43.69882" lon="3.85337">
        <ele>76.720859040235</ele>
        <time>2020-09-26T11:10:03.000Z</time>
      </trkpt>
      <trkpt lat="43.6988" lon="3.85337">
        <ele>76.618609484571</ele>
        <time>2020-09-26T11:10:04.000Z</time>
      </trkpt>
      <trkpt lat="43.69878" lon="3.85337">
        <ele>76.516359928906</ele>
        <time>2020-09-26T11:10:05.000Z</time>
      </trkpt>
      <trkpt lat="43.69875" lon="3.85337">
        <ele>76.311860817578</ele>
        <time>2020-09-26T11:10:07.000Z</time>
      </trkpt>
      <trkpt lat="43.69874" lon="3.85336">
        <ele>76</ele>
        <time>2020-09-26T11:10:13.000Z</time>
      </trkpt>
      <trkpt lat="43.69871" lon="3.85335">
        <ele>74.066167774252</ele>
        <time>2020-09-26T11:10:38.000Z</time>
      </trkpt>
      <trkpt lat="43.6987" lon="3.85335">
        <ele>74</ele>
        <time>2020-09-26T11:10:41.000Z</time>
      </trkpt>
      <trkpt lat="43.69867" lon="3.85333">
        <ele>73.03376054747</ele>
        <time>2020-09-26T11:10:56.000Z</time>
      </trkpt>
      <trkpt lat="43.69865" lon="3.85331">
        <ele>73</ele>
        <time>2020-09-26T11:10:58.000Z</time>
      </trkpt>
      <trkpt lat="43.69864" lon="3.85328">
        <ele>73</ele>
        <time>2020-09-26T11:11:00.000Z</time>
      </trkpt>
      <trkpt lat="43.69862" lon="3.85327">
        <ele>73</ele>
        <time>2020-09-26T11:11:02.000Z</time>
      </trkpt>
      <trkpt lat="43.6986" lon="3.85327">
        <ele>73</ele>
        <time>2020-09-26T11:11:09.000Z</time>
      </trkpt>
      <trkpt lat="43.69858" lon="3.85325">
        <ele>73</ele>
        <time>2020-09-26T11:11:12.000Z</time>
      </trkpt>
      <trkpt lat="43.69857" lon="3.85324">
        <ele>73</ele>
        <time>2020-09-26T11:11:14.000Z</time>
      </trkpt>
      <trkpt lat="43.69854" lon="3.85324">
        <ele>73</ele>
        <time>2020-09-26T11:11:18.000Z</time>
      </trkpt>
      <trkpt lat="43.69851" lon="3.85323">
        <ele>73</ele>
        <time>2020-09-26T11:11:19.000Z</time>
      </trkpt>
      <trkpt lat="43.69849" lon="3.85323">
        <ele>73</ele>
        <time>2020-09-26T11:11:20.000Z</time>
      </trkpt>
      <trkpt lat="43.69846" lon="3.85323">
        <ele>73</ele>
        <time>2020-09-26T11:11:21.000Z</time>
      </trkpt>
      <trkpt lat="43.69843" lon="3.85322">
        <ele>73</ele>
        <time>2020-09-26T11:11:22.000Z</time>
      </trkpt>
      <trkpt lat="43.6984" lon="3.85322">
        <ele>72.907677016965</ele>
        <time>2020-09-26T11:11:23.000Z</time>
      </trkpt>
      <trkpt lat="43.69837" lon="3.85322">
        <ele>72.810495256908</ele>
        <time>2020-09-26T11:11:24.000Z</time>
      </trkpt>
      <trkpt lat="43.69834" lon="3.85323">
        <ele>72.713313496852</ele>
        <time>2020-09-26T11:11:25.000Z</time>
      </trkpt>
      <trkpt lat="43.69831" lon="3.85323">
        <ele>72.616131736795</ele>
        <time>2020-09-26T11:11:26.000Z</time>
      </trkpt>
      <trkpt lat="43.69828" lon="3.85324">
        <ele>72.518949976739</ele>
        <time>2020-09-26T11:11:27.000Z</time>
      </trkpt>
      <trkpt lat="43.69826" lon="3.85324">
        <ele>72.421768216682</ele>
        <time>2020-09-26T11:11:28.000Z</time>
      </trkpt>
      <trkpt lat="43.69823" lon="3.85324">
        <ele>72.324586456625</ele>
        <time>2020-09-26T11:11:29.000Z</time>
      </trkpt>
      <trkpt lat="43.6982" lon="3.85324">
        <ele>72.227404696569</ele>
        <time>2020-09-26T11:11:30.000Z</time>
      </trkpt>
      <trkpt lat="43.69817" lon="3.85324">
        <ele>72.130222936512</ele>
        <time>2020-09-26T11:11:31.000Z</time>
      </trkpt>
      <trkpt lat="43.69814" lon="3.85324">
        <ele>72.033041176456</ele>
        <time>2020-09-26T11:11:32.000Z</time>
      </trkpt>
      <trkpt lat="43.69811" lon="3.85324">
        <ele>71.934588129629</ele>
        <time>2020-09-26T11:11:33.000Z</time>
      </trkpt>
      <trkpt lat="43.69807" lon="3.85323">
        <ele>71.835480196173</ele>
        <time>2020-09-26T11:11:34.000Z</time>
      </trkpt>
      <trkpt lat="43.69803" lon="3.85323">
        <ele>71.736372262718</ele>
        <time>2020-09-26T11:11:35.000Z</time>
      </trkpt>
      <trkpt lat="43.698" lon="3.85323">
        <ele>71.637264329263</ele>
        <time>2020-09-26T11:11:36.000Z</time>
      </trkpt>
      <trkpt lat="43.69797" lon="3.85322">
        <ele>71.538156395808</ele>
        <time>2020-09-26T11:11:37.000Z</time>
      </trkpt>
      <trkpt lat="43.69793" lon="3.85322">
        <ele>71.439048462352</ele>
        <time>2020-09-26T11:11:38.000Z</time>
      </trkpt>
      <trkpt lat="43.69789" lon="3.85322">
        <ele>71.339940528897</ele>
        <time>2020-09-26T11:11:39.000Z</time>
      </trkpt>
      <trkpt lat="43.69786" lon="3.85321">
        <ele>71.240832595442</ele>
        <time>2020-09-26T11:11:40.000Z</time>
      </trkpt>
      <trkpt lat="43.69782" lon="3.85321">
        <ele>71.141724661986</ele>
        <time>2020-09-26T11:11:41.000Z</time>
      </trkpt>
      <trkpt lat="43.69778" lon="3.85321">
        <ele>71.042616728531</ele>
        <time>2020-09-26T11:11:42.000Z</time>
      </trkpt>
      <trkpt lat="43.69774" lon="3.85321">
        <ele>71</ele>
        <time>2020-09-26T11:11:43.000Z</time>
      </trkpt>
      <trkpt lat="43.6977" lon="3.85321">
        <ele>71</ele>
        <time>2020-09-26T11:11:44.000Z</time>
      </trkpt>
      <trkpt lat="43.69766" lon="3.85321">
        <ele>71</ele>
        <time>2020-09-26T11:11:45.000Z</time>
      </trkpt>
      <trkpt lat="43.69762" lon="3.85321">
        <ele>71</ele>
        <time>2020-09-26T11:11:46.000Z</time>
      </trkpt>
      <trkpt lat="43.69758" lon="3.85321">
        <ele>71</ele>
        <time>2020-09-26T11:11:47.000Z</time>
      </trkpt>
      <trkpt lat="43.69754" lon="3.85321">
        <ele>71</ele>
        <time>2020-09-26T11:11:48.000Z</time>
      </trkpt>
      <trkpt lat="43.6975" lon="3.85321">
        <ele>71</ele>
        <time>2020-09-26T11:11:49.000Z</time>
      </trkpt>
      <trkpt lat="43.69746" lon="3.8532">
        <ele>71</ele>
        <time>2020-09-26T11:11:50.000Z</time>
      </trkpt>
      <trkpt lat="43.69742" lon="3.8532">
        <ele>71</ele>
        <time>2020-09-26T11:11:51.000Z</time>
      </trkpt>
      <trkpt lat="43.69738" lon="3.8532">
        <ele>71</ele>
        <time>2020-09-26T11:11:52.000Z</time>
      </trkpt>
      <trkpt lat="43.69734" lon="3.8532">
        <ele>71.066047493432</ele>
        <time>2020-09-26T11:11:53.000Z</time>
      </trkpt>
      <trkpt lat="43.69731" lon="3.8532">
        <ele>71.169246701918</ele>
        <time>2020-09-26T11:11:54.000Z</time>
      </trkpt>
      <trkpt lat="43.69727" lon="3.8532">
        <ele>71.272445910405</ele>
        <time>2020-09-26T11:11:55.000Z</time>
      </trkpt>
      <trkpt lat="43.69724" lon="3.85319">
        <ele>71.375645118892</ele>
        <time>2020-09-26T11:11:56.000Z</time>
      </trkpt>
      <trkpt lat="43.69721" lon="3.85319">
        <ele>71.478844327379</ele>
        <time>2020-09-26T11:11:57.000Z</time>
      </trkpt>
      <trkpt lat="43.69719" lon="3.85319">
        <ele>71.582043535866</ele>
        <time>2020-09-26T11:11:58.000Z</time>
      </trkpt>
      <trkpt lat="43.69715" lon="3.85319">
        <ele>71.685242744353</ele>
        <time>2020-09-26T11:11:59.000Z</time>
      </trkpt>
      <trkpt lat="43.69712" lon="3.8532">
        <ele>71.788441952839</ele>
        <time>2020-09-26T11:12:00.000Z</time>
      </trkpt>
      <trkpt lat="43.69709" lon="3.8532">
        <ele>71.891641161326</ele>
        <time>2020-09-26T11:12:01.000Z</time>
      </trkpt>
      <trkpt lat="43.69706" lon="3.8532">
        <ele>71.994840369813</ele>
        <time>2020-09-26T11:12:02.000Z</time>
      </trkpt>
      <trkpt lat="43.69703" lon="3.8532">
        <ele>72</ele>
        <time>2020-09-26T11:12:03.000Z</time>
      </trkpt>
      <trkpt lat="43.69701" lon="3.8532">
        <ele>72</ele>
        <time>2020-09-26T11:12:04.000Z</time>
      </trkpt>
      <trkpt lat="43.69698" lon="3.8532">
        <ele>72</ele>
        <time>2020-09-26T11:12:05.000Z</time>
      </trkpt>
      <trkpt lat="43.69695" lon="3.85321">
        <ele>72</ele>
        <time>2020-09-26T11:12:06.000Z</time>
      </trkpt>
      <trkpt lat="43.69692" lon="3.85321">
        <ele>72</ele>
        <time>2020-09-26T11:12:07.000Z</time>
      </trkpt>
      <trkpt lat="43.69689" lon="3.85322">
        <ele>72</ele>
        <time>2020-09-26T11:12:08.000Z</time>
      </trkpt>
      <trkpt lat="43.69686" lon="3.85322">
        <ele>72</ele>
        <time>2020-09-26T11:12:09.000Z</time>
      </trkpt>
      <trkpt lat="43.69683" lon="3.85322">
        <ele>72</ele>
        <time>2020-09-26T11:12:10.000Z</time>
      </trkpt>
      <trkpt lat="43.6968" lon="3.85322">
        <ele>72</ele>
        <time>2020-09-26T11:12:11.000Z</time>
      </trkpt>
      <trkpt lat="43.69678" lon="3.85322">
        <ele>72</ele>
        <time>2020-09-26T11:12:12.000Z</time>
      </trkpt>
      <trkpt lat="43.69675" lon="3.85321">
        <ele>72.09500032</ele>
        <time>2020-09-26T11:12:13.000Z</time>
      </trkpt>
      <trkpt lat="43.69672" lon="3.85321">
        <ele>72.19500032</ele>
        <time>2020-09-26T11:12:14.000Z</time>
      </trkpt>
      <trkpt lat="43.69669" lon="3.85321">
        <ele>72.29500032</ele>
        <time>2020-09-26T11:12:15.000Z</time>
      </trkpt>
      <trkpt lat="43.69666" lon="3.85321">
        <ele>72.39500032</ele>
        <time>2020-09-26T11:12:16.000Z</time>
      </trkpt>
      <trkpt lat="43.69663" lon="3.8532">
        <ele>72.49500032</ele>
        <time>2020-09-26T11:12:17.000Z</time>
      </trkpt>
      <trkpt lat="43.6966" lon="3.8532">
        <ele>72.59500032</ele>
        <time>2020-09-26T11:12:18.000Z</time>
      </trkpt>
      <trkpt lat="43.69657" lon="3.8532">
        <ele>72.69500032</ele>
        <time>2020-09-26T11:12:19.000Z</time>
      </trkpt>
      <trkpt lat="43.69654" lon="3.85319">
        <ele>72.79500032</ele>
        <time>2020-09-26T11:12:20.000Z</time>
      </trkpt>
      <trkpt lat="43.69651" lon="3.8532">
        <ele>72.89500032</ele>
        <time>2020-09-26T11:12:21.000Z</time>
      </trkpt>
      <trkpt lat="43.69649" lon="3.8532">
        <ele>72.99500032</ele>
        <time>2020-09-26T11:12:22.000Z</time>
      </trkpt>
      <trkpt lat="43.69646" lon="3.85322">
        <ele>73.09500032</ele>
        <time>2020-09-26T11:12:23.000Z</time>
      </trkpt>
      <trkpt lat="43.69643" lon="3.85323">
        <ele>73.19500032</ele>
        <time>2020-09-26T11:12:24.000Z</time>
      </trkpt>
      <trkpt lat="43.6964" lon="3.85325">
        <ele>73.29500032</ele>
        <time>2020-09-26T11:12:25.000Z</time>
      </trkpt>
      <trkpt lat="43.69636" lon="3.85326">
        <ele>73.39500032</ele>
        <time>2020-09-26T11:12:26.000Z</time>
      </trkpt>
      <trkpt lat="43.69632" lon="3.85328">
        <ele>73.49500032</ele>
        <time>2020-09-26T11:12:27.000Z</time>
      </trkpt>
      <trkpt lat="43.69628" lon="3.8533">
        <ele>73.59500032</ele>
        <time>2020-09-26T11:12:28.000Z</time>
      </trkpt>
      <trkpt lat="43.69624" lon="3.85331">
        <ele>73.69500032</ele>
        <time>2020-09-26T11:12:29.000Z</time>
      </trkpt>
      <trkpt lat="43.6962" lon="3.85331">
        <ele>73.79500032</ele>
        <time>2020-09-26T11:12:30.000Z</time>
      </trkpt>
      <trkpt lat="43.69617" lon="3.85331">
        <ele>73.89500032</ele>
        <time>2020-09-26T11:12:31.000Z</time>
      </trkpt>
      <trkpt lat="43.69613" lon="3.8533">
        <ele>73.99500032</ele>
        <time>2020-09-26T11:12:32.000Z</time>
      </trkpt>
      <trkpt lat="43.69609" lon="3.8533">
        <ele>74</ele>
        <time>2020-09-26T11:12:33.000Z</time>
      </trkpt>
      <trkpt lat="43.69606" lon="3.85329">
        <ele>74</ele>
        <time>2020-09-26T11:12:34.000Z</time>
      </trkpt>
      <trkpt lat="43.69603" lon="3.85328">
        <ele>74</ele>
        <time>2020-09-26T11:12:35.000Z</time>
      </trkpt>
      <trkpt lat="43.696" lon="3.85328">
        <ele>74</ele>
        <time>2020-09-26T11:12:36.000Z</time>
      </trkpt>
      <trkpt lat="43.69599" lon="3.85327">
        <ele>74</ele>
        <time>2020-09-26T11:12:41.000Z</time>
      </trkpt>
      <trkpt lat="43.69594" lon="3.85328">
        <ele>74.954706668728</ele>
        <time>2020-09-26T11:12:52.000Z</time>
      </trkpt>
      <trkpt lat="43.69591" lon="3.85328">
        <ele>75.050367278193</ele>
        <time>2020-09-26T11:12:53.000Z</time>
      </trkpt>
      <trkpt lat="43.69588" lon="3.85328">
        <ele>75.15529910776</ele>
        <time>2020-09-26T11:12:54.000Z</time>
      </trkpt>
      <trkpt lat="43.69585" lon="3.85329">
        <ele>75.260230937328</ele>
        <time>2020-09-26T11:12:55.000Z</time>
      </trkpt>
      <trkpt lat="43.69582" lon="3.85329">
        <ele>75.365162766896</ele>
        <time>2020-09-26T11:12:56.000Z</time>
      </trkpt>
      <trkpt lat="43.69578" lon="3.8533">
        <ele>75.470094596464</ele>
        <time>2020-09-26T11:12:57.000Z</time>
      </trkpt>
      <trkpt lat="43.69575" lon="3.85331">
        <ele>75.575026426032</ele>
        <time>2020-09-26T11:12:58.000Z</time>
      </trkpt>
      <trkpt lat="43.69572" lon="3.85331">
        <ele>75.6799582556</ele>
        <time>2020-09-26T11:12:59.000Z</time>
      </trkpt>
      <trkpt lat="43.69569" lon="3.85331">
        <ele>75.784890085168</ele>
        <time>2020-09-26T11:13:00.000Z</time>
      </trkpt>
      <trkpt lat="43.69566" lon="3.85331">
        <ele>75.889821914736</ele>
        <time>2020-09-26T11:13:01.000Z</time>
      </trkpt>
      <trkpt lat="43.69563" lon="3.85331">
        <ele>75.994753744303</ele>
        <time>2020-09-26T11:13:02.000Z</time>
      </trkpt>
      <trkpt lat="43.6956" lon="3.85332">
        <ele>76</ele>
        <time>2020-09-26T11:13:03.000Z</time>
      </trkpt>
      <trkpt lat="43.69556" lon="3.85332">
        <ele>76</ele>
        <time>2020-09-26T11:13:04.000Z</time>
      </trkpt>
      <trkpt lat="43.69553" lon="3.85332">
        <ele>76</ele>
        <time>2020-09-26T11:13:05.000Z</time>
      </trkpt>
      <trkpt lat="43.6955" lon="3.85332">
        <ele>76</ele>
        <time>2020-09-26T11:13:06.000Z</time>
      </trkpt>
      <trkpt lat="43.69546" lon="3.85332">
        <ele>76</ele>
        <time>2020-09-26T11:13:07.000Z</time>
      </trkpt>
      <trkpt lat="43.69543" lon="3.85332">
        <ele>76</ele>
        <time>2020-09-26T11:13:08.000Z</time>
      </trkpt>
      <trkpt lat="43.6954" lon="3.85332">
        <ele>76</ele>
        <time>2020-09-26T11:13:09.000Z</time>
      </trkpt>
      <trkpt lat="43.69537" lon="3.85332">
        <ele>76</ele>
        <time>2020-09-26T11:13:10.000Z</time>
      </trkpt>
      <trkpt lat="43.69535" lon="3.85331">
        <ele>76</ele>
        <time>2020-09-26T11:13:11.000Z</time>
      </trkpt>
      <trkpt lat="43.69532" lon="3.85331">
        <ele>76</ele>
        <time>2020-09-26T11:13:12.000Z</time>
      </trkpt>
      <trkpt lat="43.6953" lon="3.85331">
        <ele>76</ele>
        <time>2020-09-26T11:13:13.000Z</time>
      </trkpt>
      <trkpt lat="43.69528" lon="3.85332">
        <ele>76</ele>
        <time>2020-09-26T11:13:14.000Z</time>
      </trkpt>
      <trkpt lat="43.69525" lon="3.85332">
        <ele>76</ele>
        <time>2020-09-26T11:13:16.000Z</time>
      </trkpt>
      <trkpt lat="43.69523" lon="3.85333">
        <ele>76</ele>
        <time>2020-09-26T11:13:17.000Z</time>
      </trkpt>
      <trkpt lat="43.6952" lon="3.85333">
        <ele>76</ele>
        <time>2020-09-26T11:13:18.000Z</time>
      </trkpt>
      <trkpt lat="43.69517" lon="3.85334">
        <ele>76</ele>
        <time>2020-09-26T11:13:19.000Z</time>
      </trkpt>
      <trkpt lat="43.69515" lon="3.85335">
        <ele>76</ele>
        <time>2020-09-26T11:13:20.000Z</time>
      </trkpt>
      <trkpt lat="43.69512" lon="3.85336">
        <ele>76</ele>
        <time>2020-09-26T11:13:21.000Z</time>
      </trkpt>
      <trkpt lat="43.6951" lon="3.85336">
        <ele>76</ele>
        <time>2020-09-26T11:13:22.000Z</time>
      </trkpt>
      <trkpt lat="43.69508" lon="3.85337">
        <ele>75.90499968</ele>
        <time>2020-09-26T11:13:23.000Z</time>
      </trkpt>
      <trkpt lat="43.69506" lon="3.85337">
        <ele>75.80499968</ele>
        <time>2020-09-26T11:13:24.000Z</time>
      </trkpt>
      <trkpt lat="43.69504" lon="3.85337">
        <ele>75.70499968</ele>
        <time>2020-09-26T11:13:25.000Z</time>
      </trkpt>
      <trkpt lat="43.69501" lon="3.85338">
        <ele>75.50499968</ele>
        <time>2020-09-26T11:13:27.000Z</time>
      </trkpt>
      <trkpt lat="43.69498" lon="3.85338">
        <ele>75.30499968</ele>
        <time>2020-09-26T11:13:29.000Z</time>
      </trkpt>
      <trkpt lat="43.69496" lon="3.85338">
        <ele>75</ele>
        <time>2020-09-26T11:13:37.000Z</time>
      </trkpt>
      <trkpt lat="43.69493" lon="3.85336">
        <ele>75</ele>
        <time>2020-09-26T11:13:42.000Z</time>
      </trkpt>
      <trkpt lat="43.69493" lon="3.85336">
        <ele>75</ele>
        <time>2020-09-26T11:13:47.000Z</time>
      </trkpt>
      <trkpt lat="43.69473" lon="3.8534">
        <ele>73.010968989836</ele>
        <time>2020-09-26T11:15:20.000Z</time>
      </trkpt>
      <trkpt lat="43.69471" lon="3.85339">
        <ele>72.525973333333</ele>
        <time>2020-09-26T11:15:23.000Z</time>
      </trkpt>
      <trkpt lat="43.69468" lon="3.85341">
        <ele>71.876622683983</ele>
        <time>2020-09-26T11:15:26.000Z</time>
      </trkpt>
      <trkpt lat="43.69466" lon="3.85344">
        <ele>71.443722251082</ele>
        <time>2020-09-26T11:15:28.000Z</time>
      </trkpt>
      <trkpt lat="43.69464" lon="3.85345">
        <ele>71.227272034632</ele>
        <time>2020-09-26T11:15:29.000Z</time>
      </trkpt>
      <trkpt lat="43.69461" lon="3.85345">
        <ele>71</ele>
        <time>2020-09-26T11:15:31.000Z</time>
      </trkpt>
      <trkpt lat="43.69458" lon="3.85345">
        <ele>71</ele>
        <time>2020-09-26T11:15:33.000Z</time>
      </trkpt>
      <trkpt lat="43.69455" lon="3.85345">
        <ele>71</ele>
        <time>2020-09-26T11:15:34.000Z</time>
      </trkpt>
      <trkpt lat="43.69453" lon="3.85345">
        <ele>71</ele>
        <time>2020-09-26T11:15:36.000Z</time>
      </trkpt>
      <trkpt lat="43.69451" lon="3.85345">
        <ele>71</ele>
        <time>2020-09-26T11:15:38.000Z</time>
      </trkpt>
      <trkpt lat="43.69448" lon="3.85345">
        <ele>71</ele>
        <time>2020-09-26T11:15:40.000Z</time>
      </trkpt>
      <trkpt lat="43.69446" lon="3.85344">
        <ele>70.656377942387</ele>
        <time>2020-09-26T11:15:42.000Z</time>
      </trkpt>
      <trkpt lat="43.69443" lon="3.85344">
        <ele>70.03909399177</ele>
        <time>2020-09-26T11:15:45.000Z</time>
      </trkpt>
      <trkpt lat="43.69441" lon="3.85345">
        <ele>69.833332674897</ele>
        <time>2020-09-26T11:15:46.000Z</time>
      </trkpt>
      <trkpt lat="43.69439" lon="3.85345">
        <ele>69.627571358025</ele>
        <time>2020-09-26T11:15:47.000Z</time>
      </trkpt>
      <trkpt lat="43.69436" lon="3.85345">
        <ele>69.21604872428</ele>
        <time>2020-09-26T11:15:49.000Z</time>
      </trkpt>
      <trkpt lat="43.69432" lon="3.85345">
        <ele>69</ele>
        <time>2020-09-26T11:15:51.000Z</time>
      </trkpt>
      <trkpt lat="43.6943" lon="3.85345">
        <ele>69</ele>
        <time>2020-09-26T11:15:57.000Z</time>
      </trkpt>
      <trkpt lat="43.69425" lon="3.85344">
        <ele>69</ele>
        <time>2020-09-26T11:16:00.000Z</time>
      </trkpt>
      <trkpt lat="43.69422" lon="3.85344">
        <ele>69</ele>
        <time>2020-09-26T11:16:01.000Z</time>
      </trkpt>
      <trkpt lat="43.69419" lon="3.85343">
        <ele>69</ele>
        <time>2020-09-26T11:16:02.000Z</time>
      </trkpt>
      <trkpt lat="43.69417" lon="3.85342">
        <ele>69</ele>
        <time>2020-09-26T11:16:03.000Z</time>
      </trkpt>
      <trkpt lat="43.69414" lon="3.85342">
        <ele>69</ele>
        <time>2020-09-26T11:16:04.000Z</time>
      </trkpt>
      <trkpt lat="43.69411" lon="3.85341">
        <ele>69</ele>
        <time>2020-09-26T11:16:06.000Z</time>
      </trkpt>
      <trkpt lat="43.69408" lon="3.8534">
        <ele>69</ele>
        <time>2020-09-26T11:16:08.000Z</time>
      </trkpt>
      <trkpt lat="43.69406" lon="3.85339">
        <ele>69</ele>
        <time>2020-09-26T11:16:09.000Z</time>
      </trkpt>
      <trkpt lat="43.69404" lon="3.85338">
        <ele>69</ele>
        <time>2020-09-26T11:16:10.000Z</time>
      </trkpt>
      <trkpt lat="43.69401" lon="3.85336">
        <ele>69.189689027237</ele>
        <time>2020-09-26T11:16:12.000Z</time>
      </trkpt>
      <trkpt lat="43.69399" lon="3.85335">
        <ele>69.286965291829</ele>
        <time>2020-09-26T11:16:13.000Z</time>
      </trkpt>
      <trkpt lat="43.69396" lon="3.85333">
        <ele>69.481517821012</ele>
        <time>2020-09-26T11:16:15.000Z</time>
      </trkpt>
      <trkpt lat="43.69394" lon="3.8533">
        <ele>69.676070350194</ele>
        <time>2020-09-26T11:16:17.000Z</time>
      </trkpt>
      <trkpt lat="43.69392" lon="3.85329">
        <ele>69.773346614786</ele>
        <time>2020-09-26T11:16:18.000Z</time>
      </trkpt>
      <trkpt lat="43.69389" lon="3.85328">
        <ele>69.870622879377</ele>
        <time>2020-09-26T11:16:19.000Z</time>
      </trkpt>
      <trkpt lat="43.69386" lon="3.85327">
        <ele>69.967899143969</ele>
        <time>2020-09-26T11:16:20.000Z</time>
      </trkpt>
      <trkpt lat="43.69381" lon="3.85328">
        <ele>69.862563491261</ele>
        <time>2020-09-26T11:16:21.000Z</time>
      </trkpt>
      <trkpt lat="43.69377" lon="3.8533">
        <ele>69.657435353457</ele>
        <time>2020-09-26T11:16:22.000Z</time>
      </trkpt>
      <trkpt lat="43.69373" lon="3.85333">
        <ele>69.452307215653</ele>
        <time>2020-09-26T11:16:23.000Z</time>
      </trkpt>
      <trkpt lat="43.69371" lon="3.85335">
        <ele>69.247179077849</ele>
        <time>2020-09-26T11:16:24.000Z</time>
      </trkpt>
      <trkpt lat="43.69368" lon="3.85335">
        <ele>68.836922802241</ele>
        <time>2020-09-26T11:16:26.000Z</time>
      </trkpt>
      <trkpt lat="43.69365" lon="3.85333">
        <ele>68.426666526633</ele>
        <time>2020-09-26T11:16:28.000Z</time>
      </trkpt>
      <trkpt lat="43.69362" lon="3.85332">
        <ele>68.016410251024</ele>
        <time>2020-09-26T11:16:30.000Z</time>
      </trkpt>
      <trkpt lat="43.6936" lon="3.85331">
        <ele>68</ele>
        <time>2020-09-26T11:16:32.000Z</time>
      </trkpt>
      <trkpt lat="43.69358" lon="3.85329">
        <ele>68</ele>
        <time>2020-09-26T11:16:35.000Z</time>
      </trkpt>
      <trkpt lat="43.69356" lon="3.85327">
        <ele>68</ele>
        <time>2020-09-26T11:16:37.000Z</time>
      </trkpt>
      <trkpt lat="43.69358" lon="3.8533">
        <ele>67.80499968</ele>
        <time>2020-09-26T11:16:42.000Z</time>
      </trkpt>
      <trkpt lat="43.69359" lon="3.85333">
        <ele>67.70499968</ele>
        <time>2020-09-26T11:16:43.000Z</time>
      </trkpt>
      <trkpt lat="43.69359" lon="3.85336">
        <ele>67.60499968</ele>
        <time>2020-09-26T11:16:44.000Z</time>
      </trkpt>
      <trkpt lat="43.69359" lon="3.85339">
        <ele>67.40499968</ele>
        <time>2020-09-26T11:16:46.000Z</time>
      </trkpt>
      <trkpt lat="43.69359" lon="3.85339">
        <ele>67</ele>
        <time>2020-09-26T11:16:51.000Z</time>
      </trkpt>
      <trkpt lat="43.69354" lon="3.85341">
        <ele>64.02104970913</ele>
        <time>2020-09-26T11:17:24.000Z</time>
      </trkpt>
      <trkpt lat="43.69352" lon="3.85341">
        <ele>64</ele>
        <time>2020-09-26T11:17:25.000Z</time>
      </trkpt>
      <trkpt lat="43.69349" lon="3.8534">
        <ele>64</ele>
        <time>2020-09-26T11:17:26.000Z</time>
      </trkpt>
      <trkpt lat="43.69347" lon="3.8534">
        <ele>64</ele>
        <time>2020-09-26T11:17:27.000Z</time>
      </trkpt>
      <trkpt lat="43.69344" lon="3.85339">
        <ele>64</ele>
        <time>2020-09-26T11:17:28.000Z</time>
      </trkpt>
      <trkpt lat="43.69341" lon="3.85338">
        <ele>64</ele>
        <time>2020-09-26T11:17:29.000Z</time>
      </trkpt>
      <trkpt lat="43.69338" lon="3.85338">
        <ele>64</ele>
        <time>2020-09-26T11:17:30.000Z</time>
      </trkpt>
      <trkpt lat="43.69335" lon="3.85337">
        <ele>64</ele>
        <time>2020-09-26T11:17:31.000Z</time>
      </trkpt>
      <trkpt lat="43.69332" lon="3.85337">
        <ele>64</ele>
        <time>2020-09-26T11:17:32.000Z</time>
      </trkpt>
      <trkpt lat="43.69329" lon="3.85336">
        <ele>64</ele>
        <time>2020-09-26T11:17:33.000Z</time>
      </trkpt>
      <trkpt lat="43.69326" lon="3.85335">
        <ele>64</ele>
        <time>2020-09-26T11:17:34.000Z</time>
      </trkpt>
      <trkpt lat="43.69323" lon="3.85334">
        <ele>64</ele>
        <time>2020-09-26T11:17:35.000Z</time>
      </trkpt>
      <trkpt lat="43.6932" lon="3.85333">
        <ele>64</ele>
        <time>2020-09-26T11:17:36.000Z</time>
      </trkpt>
      <trkpt lat="43.69317" lon="3.85333">
        <ele>64</ele>
        <time>2020-09-26T11:17:37.000Z</time>
      </trkpt>
      <trkpt lat="43.69313" lon="3.85332">
        <ele>64</ele>
        <time>2020-09-26T11:17:38.000Z</time>
      </trkpt>
      <trkpt lat="43.69309" lon="3.85331">
        <ele>64</ele>
        <time>2020-09-26T11:17:39.000Z</time>
      </trkpt>
      <trkpt lat="43.69305" lon="3.8533">
        <ele>64</ele>
        <time>2020-09-26T11:17:40.000Z</time>
      </trkpt>
      <trkpt lat="43.69302" lon="3.85329">
        <ele>64</ele>
        <time>2020-09-26T11:17:41.000Z</time>
      </trkpt>
      <trkpt lat="43.69298" lon="3.85328">
        <ele>64</ele>
        <time>2020-09-26T11:17:42.000Z</time>
      </trkpt>
      <trkpt lat="43.69294" lon="3.85328">
        <ele>64</ele>
        <time>2020-09-26T11:17:43.000Z</time>
      </trkpt>
      <trkpt lat="43.69291" lon="3.85327">
        <ele>64</ele>
        <time>2020-09-26T11:17:44.000Z</time>
      </trkpt>
      <trkpt lat="43.69287" lon="3.85326">
        <ele>64</ele>
        <time>2020-09-26T11:17:45.000Z</time>
      </trkpt>
      <trkpt lat="43.69283" lon="3.85325">
        <ele>64</ele>
        <time>2020-09-26T11:17:46.000Z</time>
      </trkpt>
      <trkpt lat="43.6928" lon="3.85324">
        <ele>64</ele>
        <time>2020-09-26T11:17:47.000Z</time>
      </trkpt>
      <trkpt lat="43.69276" lon="3.85323">
        <ele>64</ele>
        <time>2020-09-26T11:17:48.000Z</time>
      </trkpt>
      <trkpt lat="43.69272" lon="3.85322">
        <ele>64</ele>
        <time>2020-09-26T11:17:49.000Z</time>
      </trkpt>
      <trkpt lat="43.69268" lon="3.85321">
        <ele>64</ele>
        <time>2020-09-26T11:17:50.000Z</time>
      </trkpt>
      <trkpt lat="43.69264" lon="3.85321">
        <ele>64</ele>
        <time>2020-09-26T11:17:51.000Z</time>
      </trkpt>
      <trkpt lat="43.6926" lon="3.8532">
        <ele>64</ele>
        <time>2020-09-26T11:17:52.000Z</time>
      </trkpt>
      <trkpt lat="43.69257" lon="3.85319">
        <ele>64</ele>
        <time>2020-09-26T11:17:53.000Z</time>
      </trkpt>
      <trkpt lat="43.69253" lon="3.85318">
        <ele>64</ele>
        <time>2020-09-26T11:17:54.000Z</time>
      </trkpt>
      <trkpt lat="43.69249" lon="3.85316">
        <ele>64</ele>
        <time>2020-09-26T11:17:55.000Z</time>
      </trkpt>
      <trkpt lat="43.69245" lon="3.85315">
        <ele>64</ele>
        <time>2020-09-26T11:17:56.000Z</time>
      </trkpt>
      <trkpt lat="43.69241" lon="3.85314">
        <ele>64</ele>
        <time>2020-09-26T11:17:57.000Z</time>
      </trkpt>
      <trkpt lat="43.69237" lon="3.85312">
        <ele>64</ele>
        <time>2020-09-26T11:17:58.000Z</time>
      </trkpt>
      <trkpt lat="43.69233" lon="3.85311">
        <ele>64</ele>
        <time>2020-09-26T11:17:59.000Z</time>
      </trkpt>
      <trkpt lat="43.69229" lon="3.8531">
        <ele>64</ele>
        <time>2020-09-26T11:18:00.000Z</time>
      </trkpt>
      <trkpt lat="43.69225" lon="3.85308">
        <ele>64</ele>
        <time>2020-09-26T11:18:01.000Z</time>
      </trkpt>
      <trkpt lat="43.69221" lon="3.85306">
        <ele>64</ele>
        <time>2020-09-26T11:18:02.000Z</time>
      </trkpt>
      <trkpt lat="43.69217" lon="3.85304">
        <ele>64</ele>
        <time>2020-09-26T11:18:03.000Z</time>
      </trkpt>
      <trkpt lat="43.69213" lon="3.85302">
        <ele>64</ele>
        <time>2020-09-26T11:18:04.000Z</time>
      </trkpt>
      <trkpt lat="43.69209" lon="3.853">
        <ele>64</ele>
        <time>2020-09-26T11:18:05.000Z</time>
      </trkpt>
      <trkpt lat="43.69205" lon="3.85299">
        <ele>64</ele>
        <time>2020-09-26T11:18:06.000Z</time>
      </trkpt>
      <trkpt lat="43.69201" lon="3.85297">
        <ele>64</ele>
        <time>2020-09-26T11:18:07.000Z</time>
      </trkpt>
      <trkpt lat="43.69197" lon="3.85295">
        <ele>64</ele>
        <time>2020-09-26T11:18:08.000Z</time>
      </trkpt>
      <trkpt lat="43.69193" lon="3.85292">
        <ele>64</ele>
        <time>2020-09-26T11:18:09.000Z</time>
      </trkpt>
      <trkpt lat="43.69189" lon="3.8529">
        <ele>64</ele>
        <time>2020-09-26T11:18:10.000Z</time>
      </trkpt>
      <trkpt lat="43.69185" lon="3.85288">
        <ele>64</ele>
        <time>2020-09-26T11:18:11.000Z</time>
      </trkpt>
      <trkpt lat="43.6918" lon="3.85285">
        <ele>64</ele>
        <time>2020-09-26T11:18:12.000Z</time>
      </trkpt>
      <trkpt lat="43.69176" lon="3.85283">
        <ele>64</ele>
        <time>2020-09-26T11:18:13.000Z</time>
      </trkpt>
      <trkpt lat="43.69172" lon="3.85281">
        <ele>64</ele>
        <time>2020-09-26T11:18:14.000Z</time>
      </trkpt>
      <trkpt lat="43.69169" lon="3.8528">
        <ele>63.90499968</ele>
        <time>2020-09-26T11:18:15.000Z</time>
      </trkpt>
      <trkpt lat="43.69165" lon="3.85278">
        <ele>63.80499968</ele>
        <time>2020-09-26T11:18:16.000Z</time>
      </trkpt>
      <trkpt lat="43.69161" lon="3.85277">
        <ele>63.70499968</ele>
        <time>2020-09-26T11:18:17.000Z</time>
      </trkpt>
      <trkpt lat="43.69156" lon="3.85276">
        <ele>63.60499968</ele>
        <time>2020-09-26T11:18:18.000Z</time>
      </trkpt>
      <trkpt lat="43.69152" lon="3.85275">
        <ele>63.50499968</ele>
        <time>2020-09-26T11:18:19.000Z</time>
      </trkpt>
      <trkpt lat="43.69148" lon="3.85274">
        <ele>63.40499968</ele>
        <time>2020-09-26T11:18:20.000Z</time>
      </trkpt>
      <trkpt lat="43.69143" lon="3.85274">
        <ele>63.30499968</ele>
        <time>2020-09-26T11:18:21.000Z</time>
      </trkpt>
      <trkpt lat="43.69139" lon="3.85273">
        <ele>63.20499968</ele>
        <time>2020-09-26T11:18:22.000Z</time>
      </trkpt>
      <trkpt lat="43.69134" lon="3.85273">
        <ele>63.10499968</ele>
        <time>2020-09-26T11:18:23.000Z</time>
      </trkpt>
      <trkpt lat="43.69129" lon="3.85273">
        <ele>63.00499968</ele>
        <time>2020-09-26T11:18:24.000Z</time>
      </trkpt>
      <trkpt lat="43.69125" lon="3.85274">
        <ele>63</ele>
        <time>2020-09-26T11:18:25.000Z</time>
      </trkpt>
      <trkpt lat="43.6912" lon="3.85275">
        <ele>63</ele>
        <time>2020-09-26T11:18:26.000Z</time>
      </trkpt>
      <trkpt lat="43.69115" lon="3.85277">
        <ele>63</ele>
        <time>2020-09-26T11:18:27.000Z</time>
      </trkpt>
      <trkpt lat="43.69111" lon="3.85279">
        <ele>63</ele>
        <time>2020-09-26T11:18:28.000Z</time>
      </trkpt>
      <trkpt lat="43.69106" lon="3.85281">
        <ele>63</ele>
        <time>2020-09-26T11:18:29.000Z</time>
      </trkpt>
      <trkpt lat="43.69101" lon="3.85283">
        <ele>63</ele>
        <time>2020-09-26T11:18:30.000Z</time>
      </trkpt>
      <trkpt lat="43.69096" lon="3.85286">
        <ele>63</ele>
        <time>2020-09-26T11:18:31.000Z</time>
      </trkpt>
      <trkpt lat="43.69092" lon="3.85289">
        <ele>63</ele>
        <time>2020-09-26T11:18:32.000Z</time>
      </trkpt>
      <trkpt lat="43.69087" lon="3.85291">
        <ele>63</ele>
        <time>2020-09-26T11:18:33.000Z</time>
      </trkpt>
      <trkpt lat="43.69083" lon="3.85295">
        <ele>63</ele>
        <time>2020-09-26T11:18:34.000Z</time>
      </trkpt>
      <trkpt lat="43.69079" lon="3.85298">
        <ele>63</ele>
        <time>2020-09-26T11:18:35.000Z</time>
      </trkpt>
      <trkpt lat="43.69075" lon="3.85301">
        <ele>63</ele>
        <time>2020-09-26T11:18:36.000Z</time>
      </trkpt>
      <trkpt lat="43.6907" lon="3.85305">
        <ele>63</ele>
        <time>2020-09-26T11:18:37.000Z</time>
      </trkpt>
      <trkpt lat="43.69066" lon="3.85309">
        <ele>63</ele>
        <time>2020-09-26T11:18:38.000Z</time>
      </trkpt>
      <trkpt lat="43.69062" lon="3.85312">
        <ele>63</ele>
        <time>2020-09-26T11:18:39.000Z</time>
      </trkpt>
      <trkpt lat="43.69058" lon="3.85315">
        <ele>63</ele>
        <time>2020-09-26T11:18:40.000Z</time>
      </trkpt>
      <trkpt lat="43.69054" lon="3.85319">
        <ele>63</ele>
        <time>2020-09-26T11:18:41.000Z</time>
      </trkpt>
      <trkpt lat="43.6905" lon="3.85322">
        <ele>63</ele>
        <time>2020-09-26T11:18:42.000Z</time>
      </trkpt>
      <trkpt lat="43.69046" lon="3.85325">
        <ele>63</ele>
        <time>2020-09-26T11:18:43.000Z</time>
      </trkpt>
      <trkpt lat="43.69043" lon="3.85328">
        <ele>63</ele>
        <time>2020-09-26T11:18:44.000Z</time>
      </trkpt>
      <trkpt lat="43.69039" lon="3.85331">
        <ele>63</ele>
        <time>2020-09-26T11:18:45.000Z</time>
      </trkpt>
      <trkpt lat="43.69036" lon="3.85334">
        <ele>63</ele>
        <time>2020-09-26T11:18:46.000Z</time>
      </trkpt>
      <trkpt lat="43.69033" lon="3.85336">
        <ele>63</ele>
        <time>2020-09-26T11:18:47.000Z</time>
      </trkpt>
      <trkpt lat="43.6903" lon="3.85339">
        <ele>63</ele>
        <time>2020-09-26T11:18:48.000Z</time>
      </trkpt>
      <trkpt lat="43.69028" lon="3.85341">
        <ele>63</ele>
        <time>2020-09-26T11:18:49.000Z</time>
      </trkpt>
      <trkpt lat="43.69025" lon="3.85343">
        <ele>63</ele>
        <time>2020-09-26T11:18:50.000Z</time>
      </trkpt>
      <trkpt lat="43.69022" lon="3.85346">
        <ele>63</ele>
        <time>2020-09-26T11:18:51.000Z</time>
      </trkpt>
      <trkpt lat="43.6902" lon="3.85348">
        <ele>63</ele>
        <time>2020-09-26T11:18:52.000Z</time>
      </trkpt>
      <trkpt lat="43.69017" lon="3.85351">
        <ele>63</ele>
        <time>2020-09-26T11:18:53.000Z</time>
      </trkpt>
      <trkpt lat="43.69014" lon="3.85354">
        <ele>63</ele>
        <time>2020-09-26T11:18:54.000Z</time>
      </trkpt>
      <trkpt lat="43.69011" lon="3.85357">
        <ele>63</ele>
        <time>2020-09-26T11:18:55.000Z</time>
      </trkpt>
      <trkpt lat="43.69008" lon="3.8536">
        <ele>63</ele>
        <time>2020-09-26T11:18:56.000Z</time>
      </trkpt>
      <trkpt lat="43.69006" lon="3.85363">
        <ele>63</ele>
        <time>2020-09-26T11:18:57.000Z</time>
      </trkpt>
      <trkpt lat="43.69004" lon="3.85366">
        <ele>63</ele>
        <time>2020-09-26T11:18:58.000Z</time>
      </trkpt>
      <trkpt lat="43.69002" lon="3.85368">
        <ele>63</ele>
        <time>2020-09-26T11:18:59.000Z</time>
      </trkpt>
      <trkpt lat="43.69" lon="3.85369">
        <ele>63</ele>
        <time>2020-09-26T11:19:00.000Z</time>
      </trkpt>
      <trkpt lat="43.68999" lon="3.85371">
        <ele>63</ele>
        <time>2020-09-26T11:19:01.000Z</time>
      </trkpt>
      <trkpt lat="43.68997" lon="3.85373">
        <ele>63</ele>
        <time>2020-09-26T11:19:02.000Z</time>
      </trkpt>
      <trkpt lat="43.68996" lon="3.85375">
        <ele>63</ele>
        <time>2020-09-26T11:19:03.000Z</time>
      </trkpt>
      <trkpt lat="43.68994" lon="3.85376">
        <ele>63</ele>
        <time>2020-09-26T11:19:04.000Z</time>
      </trkpt>
      <trkpt lat="43.68992" lon="3.85379">
        <ele>62.807311936759</ele>
        <time>2020-09-26T11:19:06.000Z</time>
      </trkpt>
      <trkpt lat="43.68989" lon="3.85382">
        <ele>62.609683478261</ele>
        <time>2020-09-26T11:19:08.000Z</time>
      </trkpt>
      <trkpt lat="43.68987" lon="3.85385">
        <ele>62.412055019763</ele>
        <time>2020-09-26T11:19:10.000Z</time>
      </trkpt>
      <trkpt lat="43.68984" lon="3.85388">
        <ele>62.214426561265</ele>
        <time>2020-09-26T11:19:12.000Z</time>
      </trkpt>
      <trkpt lat="43.68981" lon="3.85391">
        <ele>62.016798102767</ele>
        <time>2020-09-26T11:19:14.000Z</time>
      </trkpt>
      <trkpt lat="43.68978" lon="3.85394">
        <ele>62</ele>
        <time>2020-09-26T11:19:16.000Z</time>
      </trkpt>
      <trkpt lat="43.68976" lon="3.85397">
        <ele>62</ele>
        <time>2020-09-26T11:19:18.000Z</time>
      </trkpt>
      <trkpt lat="43.68973" lon="3.854">
        <ele>62</ele>
        <time>2020-09-26T11:19:20.000Z</time>
      </trkpt>
      <trkpt lat="43.68971" lon="3.85402">
        <ele>62</ele>
        <time>2020-09-26T11:19:21.000Z</time>
      </trkpt>
      <trkpt lat="43.6897" lon="3.85403">
        <ele>62</ele>
        <time>2020-09-26T11:19:22.000Z</time>
      </trkpt>
      <trkpt lat="43.68968" lon="3.85405">
        <ele>62</ele>
        <time>2020-09-26T11:19:23.000Z</time>
      </trkpt>
      <trkpt lat="43.68965" lon="3.85408">
        <ele>62</ele>
        <time>2020-09-26T11:19:25.000Z</time>
      </trkpt>
      <trkpt lat="43.68964" lon="3.85409">
        <ele>62</ele>
        <time>2020-09-26T11:19:26.000Z</time>
      </trkpt>
      <trkpt lat="43.68962" lon="3.85411">
        <ele>62</ele>
        <time>2020-09-26T11:19:27.000Z</time>
      </trkpt>
      <trkpt lat="43.68961" lon="3.85413">
        <ele>62</ele>
        <time>2020-09-26T11:19:28.000Z</time>
      </trkpt>
      <trkpt lat="43.68958" lon="3.85415">
        <ele>62</ele>
        <time>2020-09-26T11:19:30.000Z</time>
      </trkpt>
      <trkpt lat="43.68956" lon="3.85417">
        <ele>62</ele>
        <time>2020-09-26T11:19:32.000Z</time>
      </trkpt>
      <trkpt lat="43.68956" lon="3.85417">
        <ele>62</ele>
        <time>2020-09-26T11:19:37.000Z</time>
      </trkpt>
      <trkpt lat="43.68952" lon="3.85422">
        <ele>62</ele>
        <time>2020-09-26T11:20:08.000Z</time>
      </trkpt>
      <trkpt lat="43.6895" lon="3.85423">
        <ele>62</ele>
        <time>2020-09-26T11:20:09.000Z</time>
      </trkpt>
      <trkpt lat="43.68949" lon="3.85425">
        <ele>62</ele>
        <time>2020-09-26T11:20:10.000Z</time>
      </trkpt>
      <trkpt lat="43.68947" lon="3.85427">
        <ele>62</ele>
        <time>2020-09-26T11:20:11.000Z</time>
      </trkpt>
      <trkpt lat="43.68946" lon="3.85428">
        <ele>62</ele>
        <time>2020-09-26T11:20:12.000Z</time>
      </trkpt>
      <trkpt lat="43.68944" lon="3.8543">
        <ele>62</ele>
        <time>2020-09-26T11:20:13.000Z</time>
      </trkpt>
      <trkpt lat="43.68942" lon="3.85433">
        <ele>62</ele>
        <time>2020-09-26T11:20:14.000Z</time>
      </trkpt>
      <trkpt lat="43.6894" lon="3.85435">
        <ele>62</ele>
        <time>2020-09-26T11:20:15.000Z</time>
      </trkpt>
      <trkpt lat="43.68938" lon="3.85438">
        <ele>62</ele>
        <time>2020-09-26T11:20:16.000Z</time>
      </trkpt>
      <trkpt lat="43.68935" lon="3.85441">
        <ele>62</ele>
        <time>2020-09-26T11:20:17.000Z</time>
      </trkpt>
      <trkpt lat="43.68932" lon="3.85445">
        <ele>62</ele>
        <time>2020-09-26T11:20:18.000Z</time>
      </trkpt>
      <trkpt lat="43.68929" lon="3.85448">
        <ele>61.907677016965</ele>
        <time>2020-09-26T11:20:19.000Z</time>
      </trkpt>
      <trkpt lat="43.68926" lon="3.85452">
        <ele>61.810495256908</ele>
        <time>2020-09-26T11:20:20.000Z</time>
      </trkpt>
      <trkpt lat="43.68922" lon="3.85456">
        <ele>61.713313496852</ele>
        <time>2020-09-26T11:20:21.000Z</time>
      </trkpt>
      <trkpt lat="43.68919" lon="3.8546">
        <ele>61.616131736795</ele>
        <time>2020-09-26T11:20:22.000Z</time>
      </trkpt>
      <trkpt lat="43.68915" lon="3.85464">
        <ele>61.518949976739</ele>
        <time>2020-09-26T11:20:23.000Z</time>
      </trkpt>
      <trkpt lat="43.68912" lon="3.85467">
        <ele>61.421768216682</ele>
        <time>2020-09-26T11:20:24.000Z</time>
      </trkpt>
      <trkpt lat="43.68908" lon="3.85471">
        <ele>61.324586456625</ele>
        <time>2020-09-26T11:20:25.000Z</time>
      </trkpt>
      <trkpt lat="43.68905" lon="3.85475">
        <ele>61.227404696569</ele>
        <time>2020-09-26T11:20:26.000Z</time>
      </trkpt>
      <trkpt lat="43.68901" lon="3.85479">
        <ele>61.130222936513</ele>
        <time>2020-09-26T11:20:27.000Z</time>
      </trkpt>
      <trkpt lat="43.68897" lon="3.85483">
        <ele>61.033041176456</ele>
        <time>2020-09-26T11:20:28.000Z</time>
      </trkpt>
      <trkpt lat="43.68894" lon="3.85487">
        <ele>60.932028199538</ele>
        <time>2020-09-26T11:20:29.000Z</time>
      </trkpt>
      <trkpt lat="43.6889" lon="3.85491">
        <ele>60.829041621737</ele>
        <time>2020-09-26T11:20:30.000Z</time>
      </trkpt>
      <trkpt lat="43.68886" lon="3.85495">
        <ele>60.726055043936</ele>
        <time>2020-09-26T11:20:31.000Z</time>
      </trkpt>
      <trkpt lat="43.68882" lon="3.855">
        <ele>60.623068466136</ele>
        <time>2020-09-26T11:20:32.000Z</time>
      </trkpt>
      <trkpt lat="43.68878" lon="3.85504">
        <ele>60.520081888335</ele>
        <time>2020-09-26T11:20:33.000Z</time>
      </trkpt>
      <trkpt lat="43.68874" lon="3.85508">
        <ele>60.417095310535</ele>
        <time>2020-09-26T11:20:34.000Z</time>
      </trkpt>
      <trkpt lat="43.68869" lon="3.85512">
        <ele>60.314108732735</ele>
        <time>2020-09-26T11:20:35.000Z</time>
      </trkpt>
      <trkpt lat="43.68864" lon="3.85516">
        <ele>60.211122154934</ele>
        <time>2020-09-26T11:20:36.000Z</time>
      </trkpt>
      <trkpt lat="43.68859" lon="3.8552">
        <ele>60.108135577134</ele>
        <time>2020-09-26T11:20:37.000Z</time>
      </trkpt>
      <trkpt lat="43.68854" lon="3.85523">
        <ele>60.005148999333</ele>
        <time>2020-09-26T11:20:38.000Z</time>
      </trkpt>
      <trkpt lat="43.68848" lon="3.85527">
        <ele>59.80999936</ele>
        <time>2020-09-26T11:20:39.000Z</time>
      </trkpt>
      <trkpt lat="43.68842" lon="3.85531">
        <ele>59.60999936</ele>
        <time>2020-09-26T11:20:40.000Z</time>
      </trkpt>
      <trkpt lat="43.68836" lon="3.85536">
        <ele>59.40999936</ele>
        <time>2020-09-26T11:20:41.000Z</time>
      </trkpt>
      <trkpt lat="43.6883" lon="3.8554">
        <ele>59.20999936</ele>
        <time>2020-09-26T11:20:42.000Z</time>
      </trkpt>
      <trkpt lat="43.68824" lon="3.85544">
        <ele>59.00999936</ele>
        <time>2020-09-26T11:20:43.000Z</time>
      </trkpt>
      <trkpt lat="43.68818" lon="3.85549">
        <ele>58.80999936</ele>
        <time>2020-09-26T11:20:44.000Z</time>
      </trkpt>
      <trkpt lat="43.68812" lon="3.85553">
        <ele>58.60999936</ele>
        <time>2020-09-26T11:20:45.000Z</time>
      </trkpt>
      <trkpt lat="43.68805" lon="3.85557">
        <ele>58.40999936</ele>
        <time>2020-09-26T11:20:46.000Z</time>
      </trkpt>
      <trkpt lat="43.68799" lon="3.85561">
        <ele>58.20999936</ele>
        <time>2020-09-26T11:20:47.000Z</time>
      </trkpt>
      <trkpt lat="43.68793" lon="3.85565">
        <ele>58.00999936</ele>
        <time>2020-09-26T11:20:48.000Z</time>
      </trkpt>
      <trkpt lat="43.68787" lon="3.8557">
        <ele>58</ele>
        <time>2020-09-26T11:20:49.000Z</time>
      </trkpt>
      <trkpt lat="43.68781" lon="3.85574">
        <ele>58</ele>
        <time>2020-09-26T11:20:50.000Z</time>
      </trkpt>
      <trkpt lat="43.68775" lon="3.85578">
        <ele>58</ele>
        <time>2020-09-26T11:20:51.000Z</time>
      </trkpt>
      <trkpt lat="43.68769" lon="3.85583">
        <ele>58</ele>
        <time>2020-09-26T11:20:52.000Z</time>
      </trkpt>
      <trkpt lat="43.68763" lon="3.85587">
        <ele>58</ele>
        <time>2020-09-26T11:20:53.000Z</time>
      </trkpt>
      <trkpt lat="43.68757" lon="3.85591">
        <ele>58</ele>
        <time>2020-09-26T11:20:54.000Z</time>
      </trkpt>
      <trkpt lat="43.68751" lon="3.85595">
        <ele>58</ele>
        <time>2020-09-26T11:20:55.000Z</time>
      </trkpt>
      <trkpt lat="43.68746" lon="3.85599">
        <ele>58</ele>
        <time>2020-09-26T11:20:56.000Z</time>
      </trkpt>
      <trkpt lat="43.6874" lon="3.85603">
        <ele>58</ele>
        <time>2020-09-26T11:20:57.000Z</time>
      </trkpt>
      <trkpt lat="43.68735" lon="3.85606">
        <ele>58</ele>
        <time>2020-09-26T11:20:58.000Z</time>
      </trkpt>
      <trkpt lat="43.68729" lon="3.85608">
        <ele>58</ele>
        <time>2020-09-26T11:20:59.000Z</time>
      </trkpt>
      <trkpt lat="43.68723" lon="3.85611">
        <ele>58</ele>
        <time>2020-09-26T11:21:00.000Z</time>
      </trkpt>
      <trkpt lat="43.68717" lon="3.85613">
        <ele>58</ele>
        <time>2020-09-26T11:21:01.000Z</time>
      </trkpt>
      <trkpt lat="43.68711" lon="3.85615">
        <ele>58</ele>
        <time>2020-09-26T11:21:02.000Z</time>
      </trkpt>
      <trkpt lat="43.68704" lon="3.85617">
        <ele>58</ele>
        <time>2020-09-26T11:21:03.000Z</time>
      </trkpt>
      <trkpt lat="43.68698" lon="3.85618">
        <ele>58</ele>
        <time>2020-09-26T11:21:04.000Z</time>
      </trkpt>
      <trkpt lat="43.68692" lon="3.8562">
        <ele>58</ele>
        <time>2020-09-26T11:21:05.000Z</time>
      </trkpt>
      <trkpt lat="43.68685" lon="3.85622">
        <ele>58</ele>
        <time>2020-09-26T11:21:06.000Z</time>
      </trkpt>
      <trkpt lat="43.68679" lon="3.85623">
        <ele>58</ele>
        <time>2020-09-26T11:21:07.000Z</time>
      </trkpt>
      <trkpt lat="43.68673" lon="3.85625">
        <ele>58</ele>
        <time>2020-09-26T11:21:08.000Z</time>
      </trkpt>
      <trkpt lat="43.68667" lon="3.85627">
        <ele>58</ele>
        <time>2020-09-26T11:21:09.000Z</time>
      </trkpt>
      <trkpt lat="43.68661" lon="3.85628">
        <ele>58</ele>
        <time>2020-09-26T11:21:10.000Z</time>
      </trkpt>
      <trkpt lat="43.68655" lon="3.8563">
        <ele>58</ele>
        <time>2020-09-26T11:21:11.000Z</time>
      </trkpt>
      <trkpt lat="43.68648" lon="3.85631">
        <ele>58</ele>
        <time>2020-09-26T11:21:12.000Z</time>
      </trkpt>
      <trkpt lat="43.68642" lon="3.85633">
        <ele>58</ele>
        <time>2020-09-26T11:21:13.000Z</time>
      </trkpt>
      <trkpt lat="43.68636" lon="3.85635">
        <ele>58</ele>
        <time>2020-09-26T11:21:14.000Z</time>
      </trkpt>
      <trkpt lat="43.68629" lon="3.85636">
        <ele>58</ele>
        <time>2020-09-26T11:21:15.000Z</time>
      </trkpt>
      <trkpt lat="43.68623" lon="3.85638">
        <ele>58</ele>
        <time>2020-09-26T11:21:16.000Z</time>
      </trkpt>
      <trkpt lat="43.68616" lon="3.8564">
        <ele>58</ele>
        <time>2020-09-26T11:21:17.000Z</time>
      </trkpt>
      <trkpt lat="43.6861" lon="3.85642">
        <ele>58</ele>
        <time>2020-09-26T11:21:18.000Z</time>
      </trkpt>
      <trkpt lat="43.68603" lon="3.85644">
        <ele>58</ele>
        <time>2020-09-26T11:21:19.000Z</time>
      </trkpt>
      <trkpt lat="43.68597" lon="3.85645">
        <ele>58</ele>
        <time>2020-09-26T11:21:20.000Z</time>
      </trkpt>
      <trkpt lat="43.6859" lon="3.85647">
        <ele>58</ele>
        <time>2020-09-26T11:21:21.000Z</time>
      </trkpt>
      <trkpt lat="43.68583" lon="3.85648">
        <ele>58</ele>
        <time>2020-09-26T11:21:22.000Z</time>
      </trkpt>
      <trkpt lat="43.68577" lon="3.8565">
        <ele>58</ele>
        <time>2020-09-26T11:21:23.000Z</time>
      </trkpt>
      <trkpt lat="43.68571" lon="3.85651">
        <ele>58</ele>
        <time>2020-09-26T11:21:24.000Z</time>
      </trkpt>
      <trkpt lat="43.68564" lon="3.85653">
        <ele>58</ele>
        <time>2020-09-26T11:21:25.000Z</time>
      </trkpt>
      <trkpt lat="43.68558" lon="3.85654">
        <ele>58</ele>
        <time>2020-09-26T11:21:26.000Z</time>
      </trkpt>
      <trkpt lat="43.68551" lon="3.85656">
        <ele>58</ele>
        <time>2020-09-26T11:21:27.000Z</time>
      </trkpt>
      <trkpt lat="43.68544" lon="3.85656">
        <ele>58</ele>
        <time>2020-09-26T11:21:28.000Z</time>
      </trkpt>
      <trkpt lat="43.68538" lon="3.85657">
        <ele>58</ele>
        <time>2020-09-26T11:21:29.000Z</time>
      </trkpt>
      <trkpt lat="43.68531" lon="3.85657">
        <ele>58</ele>
        <time>2020-09-26T11:21:30.000Z</time>
      </trkpt>
      <trkpt lat="43.68525" lon="3.85655">
        <ele>58</ele>
        <time>2020-09-26T11:21:31.000Z</time>
      </trkpt>
      <trkpt lat="43.68518" lon="3.85654">
        <ele>58</ele>
        <time>2020-09-26T11:21:32.000Z</time>
      </trkpt>
      <trkpt lat="43.68512" lon="3.85653">
        <ele>58</ele>
        <time>2020-09-26T11:21:33.000Z</time>
      </trkpt>
      <trkpt lat="43.68506" lon="3.85651">
        <ele>58</ele>
        <time>2020-09-26T11:21:34.000Z</time>
      </trkpt>
      <trkpt lat="43.68501" lon="3.85649">
        <ele>58</ele>
        <time>2020-09-26T11:21:35.000Z</time>
      </trkpt>
      <trkpt lat="43.68495" lon="3.85647">
        <ele>58</ele>
        <time>2020-09-26T11:21:36.000Z</time>
      </trkpt>
      <trkpt lat="43.68489" lon="3.85646">
        <ele>58</ele>
        <time>2020-09-26T11:21:37.000Z</time>
      </trkpt>
      <trkpt lat="43.68483" lon="3.85644">
        <ele>58</ele>
        <time>2020-09-26T11:21:38.000Z</time>
      </trkpt>
      <trkpt lat="43.68477" lon="3.85643">
        <ele>58</ele>
        <time>2020-09-26T11:21:39.000Z</time>
      </trkpt>
      <trkpt lat="43.68472" lon="3.85642">
        <ele>58</ele>
        <time>2020-09-26T11:21:40.000Z</time>
      </trkpt>
      <trkpt lat="43.68466" lon="3.85642">
        <ele>58</ele>
        <time>2020-09-26T11:21:41.000Z</time>
      </trkpt>
      <trkpt lat="43.6846" lon="3.85641">
        <ele>58</ele>
        <time>2020-09-26T11:21:42.000Z</time>
      </trkpt>
      <trkpt lat="43.68454" lon="3.85641">
        <ele>58</ele>
        <time>2020-09-26T11:21:43.000Z</time>
      </trkpt>
      <trkpt lat="43.68448" lon="3.85641">
        <ele>58</ele>
        <time>2020-09-26T11:21:44.000Z</time>
      </trkpt>
      <trkpt lat="43.68442" lon="3.85642">
        <ele>58</ele>
        <time>2020-09-26T11:21:45.000Z</time>
      </trkpt>
      <trkpt lat="43.68437" lon="3.85643">
        <ele>58</ele>
        <time>2020-09-26T11:21:46.000Z</time>
      </trkpt>
      <trkpt lat="43.68431" lon="3.85644">
        <ele>58</ele>
        <time>2020-09-26T11:21:47.000Z</time>
      </trkpt>
      <trkpt lat="43.68425" lon="3.85644">
        <ele>58</ele>
        <time>2020-09-26T11:21:48.000Z</time>
      </trkpt>
      <trkpt lat="43.6842" lon="3.85645">
        <ele>58.09500032</ele>
        <time>2020-09-26T11:21:49.000Z</time>
      </trkpt>
      <trkpt lat="43.68414" lon="3.85645">
        <ele>58.19500032</ele>
        <time>2020-09-26T11:21:50.000Z</time>
      </trkpt>
      <trkpt lat="43.68409" lon="3.85646">
        <ele>58.29500032</ele>
        <time>2020-09-26T11:21:51.000Z</time>
      </trkpt>
      <trkpt lat="43.68404" lon="3.85646">
        <ele>58.39500032</ele>
        <time>2020-09-26T11:21:52.000Z</time>
      </trkpt>
      <trkpt lat="43.68399" lon="3.85646">
        <ele>58.49500032</ele>
        <time>2020-09-26T11:21:53.000Z</time>
      </trkpt>
      <trkpt lat="43.68393" lon="3.85647">
        <ele>58.59500032</ele>
        <time>2020-09-26T11:21:54.000Z</time>
      </trkpt>
      <trkpt lat="43.68388" lon="3.85648">
        <ele>58.69500032</ele>
        <time>2020-09-26T11:21:55.000Z</time>
      </trkpt>
      <trkpt lat="43.68383" lon="3.85648">
        <ele>58.79500032</ele>
        <time>2020-09-26T11:21:56.000Z</time>
      </trkpt>
      <trkpt lat="43.68379" lon="3.85648">
        <ele>58.89500032</ele>
        <time>2020-09-26T11:21:57.000Z</time>
      </trkpt>
      <trkpt lat="43.68374" lon="3.85649">
        <ele>58.99500032</ele>
        <time>2020-09-26T11:21:58.000Z</time>
      </trkpt>
      <trkpt lat="43.68369" lon="3.85649">
        <ele>59</ele>
        <time>2020-09-26T11:21:59.000Z</time>
      </trkpt>
      <trkpt lat="43.68365" lon="3.85649">
        <ele>59</ele>
        <time>2020-09-26T11:22:00.000Z</time>
      </trkpt>
      <trkpt lat="43.6836" lon="3.85649">
        <ele>59</ele>
        <time>2020-09-26T11:22:01.000Z</time>
      </trkpt>
      <trkpt lat="43.68356" lon="3.8565">
        <ele>59</ele>
        <time>2020-09-26T11:22:02.000Z</time>
      </trkpt>
      <trkpt lat="43.68351" lon="3.8565">
        <ele>59</ele>
        <time>2020-09-26T11:22:03.000Z</time>
      </trkpt>
      <trkpt lat="43.68347" lon="3.85651">
        <ele>59</ele>
        <time>2020-09-26T11:22:04.000Z</time>
      </trkpt>
      <trkpt lat="43.68342" lon="3.8565">
        <ele>59</ele>
        <time>2020-09-26T11:22:05.000Z</time>
      </trkpt>
      <trkpt lat="43.68337" lon="3.8565">
        <ele>59</ele>
        <time>2020-09-26T11:22:06.000Z</time>
      </trkpt>
      <trkpt lat="43.68333" lon="3.85651">
        <ele>59</ele>
        <time>2020-09-26T11:22:07.000Z</time>
      </trkpt>
      <trkpt lat="43.68328" lon="3.85653">
        <ele>59</ele>
        <time>2020-09-26T11:22:08.000Z</time>
      </trkpt>
      <trkpt lat="43.68323" lon="3.85654">
        <ele>59.09500032</ele>
        <time>2020-09-26T11:22:09.000Z</time>
      </trkpt>
      <trkpt lat="43.68319" lon="3.85656">
        <ele>59.19500032</ele>
        <time>2020-09-26T11:22:10.000Z</time>
      </trkpt>
      <trkpt lat="43.68314" lon="3.85656">
        <ele>59.29500032</ele>
        <time>2020-09-26T11:22:11.000Z</time>
      </trkpt>
      <trkpt lat="43.68309" lon="3.85657">
        <ele>59.39500032</ele>
        <time>2020-09-26T11:22:12.000Z</time>
      </trkpt>
      <trkpt lat="43.68305" lon="3.85658">
        <ele>59.49500032</ele>
        <time>2020-09-26T11:22:13.000Z</time>
      </trkpt>
      <trkpt lat="43.683" lon="3.85659">
        <ele>59.59500032</ele>
        <time>2020-09-26T11:22:14.000Z</time>
      </trkpt>
      <trkpt lat="43.68295" lon="3.85661">
        <ele>59.69500032</ele>
        <time>2020-09-26T11:22:15.000Z</time>
      </trkpt>
      <trkpt lat="43.6829" lon="3.85662">
        <ele>59.79500032</ele>
        <time>2020-09-26T11:22:16.000Z</time>
      </trkpt>
      <trkpt lat="43.68285" lon="3.85663">
        <ele>59.89500032</ele>
        <time>2020-09-26T11:22:17.000Z</time>
      </trkpt>
      <trkpt lat="43.6828" lon="3.85664">
        <ele>59.99500032</ele>
        <time>2020-09-26T11:22:18.000Z</time>
      </trkpt>
      <trkpt lat="43.68275" lon="3.85665">
        <ele>60</ele>
        <time>2020-09-26T11:22:19.000Z</time>
      </trkpt>
      <trkpt lat="43.68269" lon="3.85666">
        <ele>60</ele>
        <time>2020-09-26T11:22:20.000Z</time>
      </trkpt>
      <trkpt lat="43.68264" lon="3.85667">
        <ele>60</ele>
        <time>2020-09-26T11:22:21.000Z</time>
      </trkpt>
      <trkpt lat="43.68259" lon="3.85668">
        <ele>60</ele>
        <time>2020-09-26T11:22:22.000Z</time>
      </trkpt>
      <trkpt lat="43.68254" lon="3.85669">
        <ele>60</ele>
        <time>2020-09-26T11:22:23.000Z</time>
      </trkpt>
      <trkpt lat="43.68249" lon="3.8567">
        <ele>60</ele>
        <time>2020-09-26T11:22:24.000Z</time>
      </trkpt>
      <trkpt lat="43.68244" lon="3.85671">
        <ele>60</ele>
        <time>2020-09-26T11:22:25.000Z</time>
      </trkpt>
      <trkpt lat="43.68239" lon="3.85672">
        <ele>60</ele>
        <time>2020-09-26T11:22:26.000Z</time>
      </trkpt>
      <trkpt lat="43.68234" lon="3.85673">
        <ele>60</ele>
        <time>2020-09-26T11:22:27.000Z</time>
      </trkpt>
      <trkpt lat="43.68228" lon="3.85675">
        <ele>60</ele>
        <time>2020-09-26T11:22:28.000Z</time>
      </trkpt>
      <trkpt lat="43.68223" lon="3.85675">
        <ele>60</ele>
        <time>2020-09-26T11:22:29.000Z</time>
      </trkpt>
      <trkpt lat="43.68218" lon="3.85677">
        <ele>60</ele>
        <time>2020-09-26T11:22:30.000Z</time>
      </trkpt>
      <trkpt lat="43.68212" lon="3.85678">
        <ele>60</ele>
        <time>2020-09-26T11:22:31.000Z</time>
      </trkpt>
      <trkpt lat="43.68207" lon="3.85679">
        <ele>60</ele>
        <time>2020-09-26T11:22:32.000Z</time>
      </trkpt>
      <trkpt lat="43.68202" lon="3.8568">
        <ele>60</ele>
        <time>2020-09-26T11:22:33.000Z</time>
      </trkpt>
      <trkpt lat="43.68198" lon="3.8568">
        <ele>60</ele>
        <time>2020-09-26T11:22:34.000Z</time>
      </trkpt>
      <trkpt lat="43.68193" lon="3.85681">
        <ele>60</ele>
        <time>2020-09-26T11:22:35.000Z</time>
      </trkpt>
      <trkpt lat="43.68188" lon="3.85683">
        <ele>60</ele>
        <time>2020-09-26T11:22:36.000Z</time>
      </trkpt>
      <trkpt lat="43.68183" lon="3.85684">
        <ele>60</ele>
        <time>2020-09-26T11:22:37.000Z</time>
      </trkpt>
      <trkpt lat="43.68178" lon="3.85685">
        <ele>60</ele>
        <time>2020-09-26T11:22:38.000Z</time>
      </trkpt>
      <trkpt lat="43.68173" lon="3.85686">
        <ele>60.093186111863</ele>
        <time>2020-09-26T11:22:39.000Z</time>
      </trkpt>
      <trkpt lat="43.68169" lon="3.85687">
        <ele>60.193386576921</ele>
        <time>2020-09-26T11:22:40.000Z</time>
      </trkpt>
      <trkpt lat="43.68164" lon="3.85688">
        <ele>60.29358704198</ele>
        <time>2020-09-26T11:22:41.000Z</time>
      </trkpt>
      <trkpt lat="43.68159" lon="3.85688">
        <ele>60.393787507038</ele>
        <time>2020-09-26T11:22:42.000Z</time>
      </trkpt>
      <trkpt lat="43.68153" lon="3.8569">
        <ele>60.493987972096</ele>
        <time>2020-09-26T11:22:43.000Z</time>
      </trkpt>
      <trkpt lat="43.68148" lon="3.85691">
        <ele>60.594188437155</ele>
        <time>2020-09-26T11:22:44.000Z</time>
      </trkpt>
      <trkpt lat="43.68143" lon="3.85693">
        <ele>60.694388902213</ele>
        <time>2020-09-26T11:22:45.000Z</time>
      </trkpt>
      <trkpt lat="43.68138" lon="3.85694">
        <ele>60.794589367272</ele>
        <time>2020-09-26T11:22:46.000Z</time>
      </trkpt>
      <trkpt lat="43.68132" lon="3.85695">
        <ele>60.89478983233</ele>
        <time>2020-09-26T11:22:47.000Z</time>
      </trkpt>
      <trkpt lat="43.68127" lon="3.85696">
        <ele>60.994990297389</ele>
        <time>2020-09-26T11:22:48.000Z</time>
      </trkpt>
      <trkpt lat="43.68121" lon="3.85696">
        <ele>60.906403655124</ele>
        <time>2020-09-26T11:22:49.000Z</time>
      </trkpt>
      <trkpt lat="43.68116" lon="3.85697">
        <ele>60.807881518697</ele>
        <time>2020-09-26T11:22:50.000Z</time>
      </trkpt>
      <trkpt lat="43.68111" lon="3.85698">
        <ele>60.709359382271</ele>
        <time>2020-09-26T11:22:51.000Z</time>
      </trkpt>
      <trkpt lat="43.68105" lon="3.85699">
        <ele>60.610837245844</ele>
        <time>2020-09-26T11:22:52.000Z</time>
      </trkpt>
      <trkpt lat="43.681" lon="3.85699">
        <ele>60.512315109418</ele>
        <time>2020-09-26T11:22:53.000Z</time>
      </trkpt>
      <trkpt lat="43.68094" lon="3.85699">
        <ele>60.413792972991</ele>
        <time>2020-09-26T11:22:54.000Z</time>
      </trkpt>
      <trkpt lat="43.68089" lon="3.85699">
        <ele>60.315270836565</ele>
        <time>2020-09-26T11:22:55.000Z</time>
      </trkpt>
      <trkpt lat="43.68083" lon="3.85699">
        <ele>60.216748700138</ele>
        <time>2020-09-26T11:22:56.000Z</time>
      </trkpt>
      <trkpt lat="43.68078" lon="3.85699">
        <ele>60.118226563712</ele>
        <time>2020-09-26T11:22:57.000Z</time>
      </trkpt>
      <trkpt lat="43.68072" lon="3.85698">
        <ele>60.019704427285</ele>
        <time>2020-09-26T11:22:58.000Z</time>
      </trkpt>
      <trkpt lat="43.68067" lon="3.85697">
        <ele>60</ele>
        <time>2020-09-26T11:22:59.000Z</time>
      </trkpt>
      <trkpt lat="43.68062" lon="3.85696">
        <ele>60</ele>
        <time>2020-09-26T11:23:00.000Z</time>
      </trkpt>
      <trkpt lat="43.68056" lon="3.85694">
        <ele>60</ele>
        <time>2020-09-26T11:23:01.000Z</time>
      </trkpt>
      <trkpt lat="43.68051" lon="3.85693">
        <ele>60</ele>
        <time>2020-09-26T11:23:02.000Z</time>
      </trkpt>
      <trkpt lat="43.68046" lon="3.85691">
        <ele>60</ele>
        <time>2020-09-26T11:23:03.000Z</time>
      </trkpt>
      <trkpt lat="43.68041" lon="3.8569">
        <ele>60</ele>
        <time>2020-09-26T11:23:04.000Z</time>
      </trkpt>
      <trkpt lat="43.68037" lon="3.85688">
        <ele>60</ele>
        <time>2020-09-26T11:23:05.000Z</time>
      </trkpt>
      <trkpt lat="43.68032" lon="3.85687">
        <ele>60</ele>
        <time>2020-09-26T11:23:06.000Z</time>
      </trkpt>
      <trkpt lat="43.68028" lon="3.85686">
        <ele>60</ele>
        <time>2020-09-26T11:23:07.000Z</time>
      </trkpt>
      <trkpt lat="43.68023" lon="3.85685">
        <ele>60</ele>
        <time>2020-09-26T11:23:08.000Z</time>
      </trkpt>
      <trkpt lat="43.68019" lon="3.85683">
        <ele>59.90499968</ele>
        <time>2020-09-26T11:23:09.000Z</time>
      </trkpt>
      <trkpt lat="43.68014" lon="3.85682">
        <ele>59.80499968</ele>
        <time>2020-09-26T11:23:10.000Z</time>
      </trkpt>
      <trkpt lat="43.6801" lon="3.85681">
        <ele>59.70499968</ele>
        <time>2020-09-26T11:23:11.000Z</time>
      </trkpt>
      <trkpt lat="43.68006" lon="3.85679">
        <ele>59.60499968</ele>
        <time>2020-09-26T11:23:12.000Z</time>
      </trkpt>
      <trkpt lat="43.68001" lon="3.85678">
        <ele>59.50499968</ele>
        <time>2020-09-26T11:23:13.000Z</time>
      </trkpt>
      <trkpt lat="43.67997" lon="3.85677">
        <ele>59.40499968</ele>
        <time>2020-09-26T11:23:14.000Z</time>
      </trkpt>
      <trkpt lat="43.67992" lon="3.85675">
        <ele>59.30499968</ele>
        <time>2020-09-26T11:23:15.000Z</time>
      </trkpt>
      <trkpt lat="43.67988" lon="3.85674">
        <ele>59.20499968</ele>
        <time>2020-09-26T11:23:16.000Z</time>
      </trkpt>
      <trkpt lat="43.67984" lon="3.85673">
        <ele>59.10499968</ele>
        <time>2020-09-26T11:23:17.000Z</time>
      </trkpt>
      <trkpt lat="43.67979" lon="3.85671">
        <ele>59.00499968</ele>
        <time>2020-09-26T11:23:18.000Z</time>
      </trkpt>
      <trkpt lat="43.67975" lon="3.8567">
        <ele>59</ele>
        <time>2020-09-26T11:23:19.000Z</time>
      </trkpt>
      <trkpt lat="43.6797" lon="3.85669">
        <ele>59</ele>
        <time>2020-09-26T11:23:20.000Z</time>
      </trkpt>
      <trkpt lat="43.67966" lon="3.85668">
        <ele>59</ele>
        <time>2020-09-26T11:23:21.000Z</time>
      </trkpt>
      <trkpt lat="43.67962" lon="3.85667">
        <ele>59</ele>
        <time>2020-09-26T11:23:22.000Z</time>
      </trkpt>
      <trkpt lat="43.67958" lon="3.85665">
        <ele>59</ele>
        <time>2020-09-26T11:23:23.000Z</time>
      </trkpt>
      <trkpt lat="43.67953" lon="3.85664">
        <ele>59</ele>
        <time>2020-09-26T11:23:24.000Z</time>
      </trkpt>
      <trkpt lat="43.67949" lon="3.85663">
        <ele>59</ele>
        <time>2020-09-26T11:23:25.000Z</time>
      </trkpt>
      <trkpt lat="43.67945" lon="3.85662">
        <ele>59</ele>
        <time>2020-09-26T11:23:26.000Z</time>
      </trkpt>
      <trkpt lat="43.6794" lon="3.8566">
        <ele>59</ele>
        <time>2020-09-26T11:23:27.000Z</time>
      </trkpt>
      <trkpt lat="43.67936" lon="3.85659">
        <ele>59</ele>
        <time>2020-09-26T11:23:28.000Z</time>
      </trkpt>
      <trkpt lat="43.67931" lon="3.85658">
        <ele>59.092412762646</ele>
        <time>2020-09-26T11:23:29.000Z</time>
      </trkpt>
      <trkpt lat="43.67926" lon="3.85657">
        <ele>59.189689027237</ele>
        <time>2020-09-26T11:23:30.000Z</time>
      </trkpt>
      <trkpt lat="43.67921" lon="3.85656">
        <ele>59.286965291829</ele>
        <time>2020-09-26T11:23:31.000Z</time>
      </trkpt>
      <trkpt lat="43.67916" lon="3.85654">
        <ele>59.38424155642</ele>
        <time>2020-09-26T11:23:32.000Z</time>
      </trkpt>
      <trkpt lat="43.67911" lon="3.85653">
        <ele>59.481517821012</ele>
        <time>2020-09-26T11:23:33.000Z</time>
      </trkpt>
      <trkpt lat="43.67906" lon="3.85652">
        <ele>59.578794085603</ele>
        <time>2020-09-26T11:23:34.000Z</time>
      </trkpt>
      <trkpt lat="43.67902" lon="3.8565">
        <ele>59.676070350195</ele>
        <time>2020-09-26T11:23:35.000Z</time>
      </trkpt>
      <trkpt lat="43.67897" lon="3.85649">
        <ele>59.773346614786</ele>
        <time>2020-09-26T11:23:36.000Z</time>
      </trkpt>
      <trkpt lat="43.67892" lon="3.85648">
        <ele>59.870622879377</ele>
        <time>2020-09-26T11:23:37.000Z</time>
      </trkpt>
      <trkpt lat="43.67887" lon="3.85646">
        <ele>59.967899143969</ele>
        <time>2020-09-26T11:23:38.000Z</time>
      </trkpt>
      <trkpt lat="43.67882" lon="3.85645">
        <ele>60.06893037037</ele>
        <time>2020-09-26T11:23:39.000Z</time>
      </trkpt>
      <trkpt lat="43.67878" lon="3.85643">
        <ele>60.171811028807</ele>
        <time>2020-09-26T11:23:40.000Z</time>
      </trkpt>
      <trkpt lat="43.67873" lon="3.85642">
        <ele>60.274691687243</ele>
        <time>2020-09-26T11:23:41.000Z</time>
      </trkpt>
      <trkpt lat="43.67868" lon="3.85641">
        <ele>60.377572345679</ele>
        <time>2020-09-26T11:23:42.000Z</time>
      </trkpt>
      <trkpt lat="43.67863" lon="3.85639">
        <ele>60.480453004115</ele>
        <time>2020-09-26T11:23:43.000Z</time>
      </trkpt>
      <trkpt lat="43.67859" lon="3.85638">
        <ele>60.583333662551</ele>
        <time>2020-09-26T11:23:44.000Z</time>
      </trkpt>
      <trkpt lat="43.67854" lon="3.85636">
        <ele>60.686214320988</ele>
        <time>2020-09-26T11:23:45.000Z</time>
      </trkpt>
      <trkpt lat="43.67849" lon="3.85635">
        <ele>60.789094979424</ele>
        <time>2020-09-26T11:23:46.000Z</time>
      </trkpt>
      <trkpt lat="43.67845" lon="3.85633">
        <ele>60.89197563786</ele>
        <time>2020-09-26T11:23:47.000Z</time>
      </trkpt>
      <trkpt lat="43.67841" lon="3.85631">
        <ele>60.994856296296</ele>
        <time>2020-09-26T11:23:48.000Z</time>
      </trkpt>
      <trkpt lat="43.67837" lon="3.85629">
        <ele>61.09500032</ele>
        <time>2020-09-26T11:23:49.000Z</time>
      </trkpt>
      <trkpt lat="43.67832" lon="3.85628">
        <ele>61.19500032</ele>
        <time>2020-09-26T11:23:50.000Z</time>
      </trkpt>
      <trkpt lat="43.67828" lon="3.85626">
        <ele>61.29500032</ele>
        <time>2020-09-26T11:23:51.000Z</time>
      </trkpt>
      <trkpt lat="43.67824" lon="3.85624">
        <ele>61.39500032</ele>
        <time>2020-09-26T11:23:52.000Z</time>
      </trkpt>
      <trkpt lat="43.67819" lon="3.85622">
        <ele>61.49500032</ele>
        <time>2020-09-26T11:23:53.000Z</time>
      </trkpt>
      <trkpt lat="43.67815" lon="3.85621">
        <ele>61.59500032</ele>
        <time>2020-09-26T11:23:54.000Z</time>
      </trkpt>
      <trkpt lat="43.67811" lon="3.85619">
        <ele>61.69500032</ele>
        <time>2020-09-26T11:23:55.000Z</time>
      </trkpt>
      <trkpt lat="43.67807" lon="3.85617">
        <ele>61.79500032</ele>
        <time>2020-09-26T11:23:56.000Z</time>
      </trkpt>
      <trkpt lat="43.67803" lon="3.85615">
        <ele>61.89500032</ele>
        <time>2020-09-26T11:23:57.000Z</time>
      </trkpt>
      <trkpt lat="43.678" lon="3.85614">
        <ele>61.99500032</ele>
        <time>2020-09-26T11:23:58.000Z</time>
      </trkpt>
      <trkpt lat="43.67796" lon="3.85613">
        <ele>62</ele>
        <time>2020-09-26T11:23:59.000Z</time>
      </trkpt>
      <trkpt lat="43.67792" lon="3.85612">
        <ele>62</ele>
        <time>2020-09-26T11:24:00.000Z</time>
      </trkpt>
      <trkpt lat="43.67788" lon="3.85611">
        <ele>62</ele>
        <time>2020-09-26T11:24:01.000Z</time>
      </trkpt>
      <trkpt lat="43.67785" lon="3.85609">
        <ele>62</ele>
        <time>2020-09-26T11:24:02.000Z</time>
      </trkpt>
      <trkpt lat="43.67781" lon="3.85608">
        <ele>62</ele>
        <time>2020-09-26T11:24:03.000Z</time>
      </trkpt>
      <trkpt lat="43.67777" lon="3.85606">
        <ele>62</ele>
        <time>2020-09-26T11:24:04.000Z</time>
      </trkpt>
      <trkpt lat="43.67772" lon="3.85604">
        <ele>62</ele>
        <time>2020-09-26T11:24:05.000Z</time>
      </trkpt>
      <trkpt lat="43.67768" lon="3.85602">
        <ele>62</ele>
        <time>2020-09-26T11:24:06.000Z</time>
      </trkpt>
      <trkpt lat="43.67764" lon="3.85601">
        <ele>62</ele>
        <time>2020-09-26T11:24:07.000Z</time>
      </trkpt>
      <trkpt lat="43.6776" lon="3.85599">
        <ele>62</ele>
        <time>2020-09-26T11:24:08.000Z</time>
      </trkpt>
      <trkpt lat="43.67757" lon="3.85597">
        <ele>62</ele>
        <time>2020-09-26T11:24:09.000Z</time>
      </trkpt>
      <trkpt lat="43.67753" lon="3.85595">
        <ele>62</ele>
        <time>2020-09-26T11:24:10.000Z</time>
      </trkpt>
      <trkpt lat="43.6775" lon="3.85592">
        <ele>62</ele>
        <time>2020-09-26T11:24:11.000Z</time>
      </trkpt>
      <trkpt lat="43.67747" lon="3.85589">
        <ele>62</ele>
        <time>2020-09-26T11:24:12.000Z</time>
      </trkpt>
      <trkpt lat="43.67744" lon="3.85586">
        <ele>62</ele>
        <time>2020-09-26T11:24:13.000Z</time>
      </trkpt>
      <trkpt lat="43.67741" lon="3.85584">
        <ele>62</ele>
        <time>2020-09-26T11:24:14.000Z</time>
      </trkpt>
      <trkpt lat="43.67738" lon="3.85582">
        <ele>62</ele>
        <time>2020-09-26T11:24:15.000Z</time>
      </trkpt>
      <trkpt lat="43.67735" lon="3.85579">
        <ele>62</ele>
        <time>2020-09-26T11:24:16.000Z</time>
      </trkpt>
      <trkpt lat="43.67732" lon="3.85576">
        <ele>62</ele>
        <time>2020-09-26T11:24:17.000Z</time>
      </trkpt>
      <trkpt lat="43.67728" lon="3.85576">
        <ele>62</ele>
        <time>2020-09-26T11:24:18.000Z</time>
      </trkpt>
      <trkpt lat="43.67726" lon="3.85579">
        <ele>61.80999936</ele>
        <time>2020-09-26T11:24:19.000Z</time>
      </trkpt>
      <trkpt lat="43.67724" lon="3.85583">
        <ele>61.60999936</ele>
        <time>2020-09-26T11:24:20.000Z</time>
      </trkpt>
      <trkpt lat="43.67723" lon="3.85588">
        <ele>61.40999936</ele>
        <time>2020-09-26T11:24:21.000Z</time>
      </trkpt>
      <trkpt lat="43.6772" lon="3.85593">
        <ele>61.20999936</ele>
        <time>2020-09-26T11:24:22.000Z</time>
      </trkpt>
      <trkpt lat="43.67717" lon="3.85598">
        <ele>61.00999936</ele>
        <time>2020-09-26T11:24:23.000Z</time>
      </trkpt>
      <trkpt lat="43.67713" lon="3.85602">
        <ele>60.80999936</ele>
        <time>2020-09-26T11:24:24.000Z</time>
      </trkpt>
      <trkpt lat="43.67709" lon="3.85605">
        <ele>60.60999936</ele>
        <time>2020-09-26T11:24:25.000Z</time>
      </trkpt>
      <trkpt lat="43.67704" lon="3.85609">
        <ele>60.40999936</ele>
        <time>2020-09-26T11:24:26.000Z</time>
      </trkpt>
      <trkpt lat="43.67699" lon="3.85612">
        <ele>60.20999936</ele>
        <time>2020-09-26T11:24:27.000Z</time>
      </trkpt>
      <trkpt lat="43.67695" lon="3.85617">
        <ele>60.00999936</ele>
        <time>2020-09-26T11:24:28.000Z</time>
      </trkpt>
      <trkpt lat="43.6769" lon="3.85622">
        <ele>60</ele>
        <time>2020-09-26T11:24:29.000Z</time>
      </trkpt>
      <trkpt lat="43.67686" lon="3.85626">
        <ele>60</ele>
        <time>2020-09-26T11:24:30.000Z</time>
      </trkpt>
      <trkpt lat="43.67682" lon="3.85632">
        <ele>60</ele>
        <time>2020-09-26T11:24:31.000Z</time>
      </trkpt>
      <trkpt lat="43.67678" lon="3.85637">
        <ele>60</ele>
        <time>2020-09-26T11:24:32.000Z</time>
      </trkpt>
      <trkpt lat="43.67673" lon="3.85641">
        <ele>60</ele>
        <time>2020-09-26T11:24:33.000Z</time>
      </trkpt>
      <trkpt lat="43.67669" lon="3.85646">
        <ele>60</ele>
        <time>2020-09-26T11:24:34.000Z</time>
      </trkpt>
      <trkpt lat="43.67665" lon="3.8565">
        <ele>60</ele>
        <time>2020-09-26T11:24:35.000Z</time>
      </trkpt>
      <trkpt lat="43.67661" lon="3.85654">
        <ele>60</ele>
        <time>2020-09-26T11:24:36.000Z</time>
      </trkpt>
      <trkpt lat="43.67656" lon="3.85659">
        <ele>60</ele>
        <time>2020-09-26T11:24:37.000Z</time>
      </trkpt>
      <trkpt lat="43.67651" lon="3.85664">
        <ele>60</ele>
        <time>2020-09-26T11:24:38.000Z</time>
      </trkpt>
      <trkpt lat="43.67647" lon="3.85668">
        <ele>59.90499968</ele>
        <time>2020-09-26T11:24:39.000Z</time>
      </trkpt>
      <trkpt lat="43.67643" lon="3.85671">
        <ele>59.80499968</ele>
        <time>2020-09-26T11:24:40.000Z</time>
      </trkpt>
      <trkpt lat="43.6764" lon="3.85675">
        <ele>59.70499968</ele>
        <time>2020-09-26T11:24:41.000Z</time>
      </trkpt>
      <trkpt lat="43.67636" lon="3.85678">
        <ele>59.60499968</ele>
        <time>2020-09-26T11:24:42.000Z</time>
      </trkpt>
      <trkpt lat="43.67632" lon="3.85682">
        <ele>59.50499968</ele>
        <time>2020-09-26T11:24:43.000Z</time>
      </trkpt>
      <trkpt lat="43.67629" lon="3.85686">
        <ele>59.40499968</ele>
        <time>2020-09-26T11:24:44.000Z</time>
      </trkpt>
      <trkpt lat="43.67625" lon="3.8569">
        <ele>59.30499968</ele>
        <time>2020-09-26T11:24:45.000Z</time>
      </trkpt>
      <trkpt lat="43.67621" lon="3.85694">
        <ele>59.20499968</ele>
        <time>2020-09-26T11:24:46.000Z</time>
      </trkpt>
      <trkpt lat="43.67618" lon="3.85698">
        <ele>59.10499968</ele>
        <time>2020-09-26T11:24:47.000Z</time>
      </trkpt>
      <trkpt lat="43.67614" lon="3.85702">
        <ele>59.00499968</ele>
        <time>2020-09-26T11:24:48.000Z</time>
      </trkpt>
      <trkpt lat="43.6761" lon="3.85706">
        <ele>59</ele>
        <time>2020-09-26T11:24:49.000Z</time>
      </trkpt>
      <trkpt lat="43.67607" lon="3.85709">
        <ele>59</ele>
        <time>2020-09-26T11:24:50.000Z</time>
      </trkpt>
      <trkpt lat="43.67603" lon="3.85713">
        <ele>59</ele>
        <time>2020-09-26T11:24:51.000Z</time>
      </trkpt>
      <trkpt lat="43.67599" lon="3.85717">
        <ele>59</ele>
        <time>2020-09-26T11:24:52.000Z</time>
      </trkpt>
      <trkpt lat="43.67595" lon="3.85721">
        <ele>59</ele>
        <time>2020-09-26T11:24:53.000Z</time>
      </trkpt>
      <trkpt lat="43.67592" lon="3.85725">
        <ele>59</ele>
        <time>2020-09-26T11:24:54.000Z</time>
      </trkpt>
      <trkpt lat="43.67588" lon="3.8573">
        <ele>59</ele>
        <time>2020-09-26T11:24:55.000Z</time>
      </trkpt>
      <trkpt lat="43.67584" lon="3.85734">
        <ele>59</ele>
        <time>2020-09-26T11:24:56.000Z</time>
      </trkpt>
      <trkpt lat="43.67579" lon="3.85738">
        <ele>59</ele>
        <time>2020-09-26T11:24:57.000Z</time>
      </trkpt>
      <trkpt lat="43.67575" lon="3.85742">
        <ele>59</ele>
        <time>2020-09-26T11:24:58.000Z</time>
      </trkpt>
      <trkpt lat="43.67571" lon="3.85747">
        <ele>59</ele>
        <time>2020-09-26T11:24:59.000Z</time>
      </trkpt>
      <trkpt lat="43.67567" lon="3.85751">
        <ele>59</ele>
        <time>2020-09-26T11:25:00.000Z</time>
      </trkpt>
      <trkpt lat="43.67562" lon="3.85755">
        <ele>59</ele>
        <time>2020-09-26T11:25:01.000Z</time>
      </trkpt>
      <trkpt lat="43.67558" lon="3.8576">
        <ele>59</ele>
        <time>2020-09-26T11:25:02.000Z</time>
      </trkpt>
      <trkpt lat="43.67554" lon="3.85765">
        <ele>59</ele>
        <time>2020-09-26T11:25:03.000Z</time>
      </trkpt>
      <trkpt lat="43.67549" lon="3.8577">
        <ele>59</ele>
        <time>2020-09-26T11:25:04.000Z</time>
      </trkpt>
      <trkpt lat="43.67545" lon="3.85774">
        <ele>59</ele>
        <time>2020-09-26T11:25:05.000Z</time>
      </trkpt>
      <trkpt lat="43.6754" lon="3.85779">
        <ele>59</ele>
        <time>2020-09-26T11:25:06.000Z</time>
      </trkpt>
      <trkpt lat="43.67536" lon="3.85784">
        <ele>59</ele>
        <time>2020-09-26T11:25:07.000Z</time>
      </trkpt>
      <trkpt lat="43.67531" lon="3.85789">
        <ele>59</ele>
        <time>2020-09-26T11:25:08.000Z</time>
      </trkpt>
      <trkpt lat="43.67527" lon="3.85793">
        <ele>59</ele>
        <time>2020-09-26T11:25:09.000Z</time>
      </trkpt>
      <trkpt lat="43.67523" lon="3.85798">
        <ele>59</ele>
        <time>2020-09-26T11:25:10.000Z</time>
      </trkpt>
      <trkpt lat="43.67518" lon="3.85802">
        <ele>59</ele>
        <time>2020-09-26T11:25:11.000Z</time>
      </trkpt>
      <trkpt lat="43.67514" lon="3.85806">
        <ele>59</ele>
        <time>2020-09-26T11:25:12.000Z</time>
      </trkpt>
      <trkpt lat="43.6751" lon="3.8581">
        <ele>59</ele>
        <time>2020-09-26T11:25:13.000Z</time>
      </trkpt>
      <trkpt lat="43.67506" lon="3.85814">
        <ele>59</ele>
        <time>2020-09-26T11:25:14.000Z</time>
      </trkpt>
      <trkpt lat="43.67502" lon="3.85818">
        <ele>59</ele>
        <time>2020-09-26T11:25:15.000Z</time>
      </trkpt>
      <trkpt lat="43.67498" lon="3.85822">
        <ele>59</ele>
        <time>2020-09-26T11:25:16.000Z</time>
      </trkpt>
      <trkpt lat="43.67494" lon="3.85826">
        <ele>59</ele>
        <time>2020-09-26T11:25:17.000Z</time>
      </trkpt>
      <trkpt lat="43.6749" lon="3.85831">
        <ele>59</ele>
        <time>2020-09-26T11:25:18.000Z</time>
      </trkpt>
      <trkpt lat="43.67487" lon="3.85835">
        <ele>59</ele>
        <time>2020-09-26T11:25:19.000Z</time>
      </trkpt>
      <trkpt lat="43.67483" lon="3.85839">
        <ele>59</ele>
        <time>2020-09-26T11:25:20.000Z</time>
      </trkpt>
      <trkpt lat="43.67479" lon="3.85843">
        <ele>59</ele>
        <time>2020-09-26T11:25:21.000Z</time>
      </trkpt>
      <trkpt lat="43.67475" lon="3.85847">
        <ele>59</ele>
        <time>2020-09-26T11:25:22.000Z</time>
      </trkpt>
      <trkpt lat="43.67471" lon="3.85851">
        <ele>59</ele>
        <time>2020-09-26T11:25:23.000Z</time>
      </trkpt>
      <trkpt lat="43.67466" lon="3.85855">
        <ele>59</ele>
        <time>2020-09-26T11:25:24.000Z</time>
      </trkpt>
      <trkpt lat="43.67462" lon="3.85859">
        <ele>59</ele>
        <time>2020-09-26T11:25:25.000Z</time>
      </trkpt>
      <trkpt lat="43.67459" lon="3.85863">
        <ele>59</ele>
        <time>2020-09-26T11:25:26.000Z</time>
      </trkpt>
      <trkpt lat="43.67455" lon="3.85867">
        <ele>59</ele>
        <time>2020-09-26T11:25:27.000Z</time>
      </trkpt>
      <trkpt lat="43.67452" lon="3.8587">
        <ele>59</ele>
        <time>2020-09-26T11:25:28.000Z</time>
      </trkpt>
      <trkpt lat="43.67448" lon="3.85874">
        <ele>59.082149830199</ele>
        <time>2020-09-26T11:25:29.000Z</time>
      </trkpt>
      <trkpt lat="43.67445" lon="3.85877">
        <ele>59.183569774325</ele>
        <time>2020-09-26T11:25:30.000Z</time>
      </trkpt>
      <trkpt lat="43.67442" lon="3.85881">
        <ele>59.284989718452</ele>
        <time>2020-09-26T11:25:31.000Z</time>
      </trkpt>
      <trkpt lat="43.67438" lon="3.85884">
        <ele>59.386409662578</ele>
        <time>2020-09-26T11:25:32.000Z</time>
      </trkpt>
      <trkpt lat="43.67435" lon="3.85887">
        <ele>59.487829606705</ele>
        <time>2020-09-26T11:25:33.000Z</time>
      </trkpt>
      <trkpt lat="43.67431" lon="3.85891">
        <ele>59.589249550831</ele>
        <time>2020-09-26T11:25:34.000Z</time>
      </trkpt>
      <trkpt lat="43.67428" lon="3.85894">
        <ele>59.690669494958</ele>
        <time>2020-09-26T11:25:35.000Z</time>
      </trkpt>
      <trkpt lat="43.67424" lon="3.85898">
        <ele>59.792089439084</ele>
        <time>2020-09-26T11:25:36.000Z</time>
      </trkpt>
      <trkpt lat="43.6742" lon="3.85901">
        <ele>59.893509383211</ele>
        <time>2020-09-26T11:25:37.000Z</time>
      </trkpt>
      <trkpt lat="43.67417" lon="3.85905">
        <ele>59.994929327338</ele>
        <time>2020-09-26T11:25:38.000Z</time>
      </trkpt>
      <trkpt lat="43.67413" lon="3.85908">
        <ele>60</ele>
        <time>2020-09-26T11:25:39.000Z</time>
      </trkpt>
      <trkpt lat="43.67409" lon="3.85911">
        <ele>60</ele>
        <time>2020-09-26T11:25:40.000Z</time>
      </trkpt>
      <trkpt lat="43.67406" lon="3.85915">
        <ele>60</ele>
        <time>2020-09-26T11:25:41.000Z</time>
      </trkpt>
      <trkpt lat="43.67402" lon="3.85918">
        <ele>60</ele>
        <time>2020-09-26T11:25:42.000Z</time>
      </trkpt>
      <trkpt lat="43.67399" lon="3.85922">
        <ele>60</ele>
        <time>2020-09-26T11:25:43.000Z</time>
      </trkpt>
      <trkpt lat="43.67395" lon="3.85925">
        <ele>60</ele>
        <time>2020-09-26T11:25:44.000Z</time>
      </trkpt>
      <trkpt lat="43.67391" lon="3.85929">
        <ele>60</ele>
        <time>2020-09-26T11:25:45.000Z</time>
      </trkpt>
      <trkpt lat="43.67388" lon="3.85932">
        <ele>60</ele>
        <time>2020-09-26T11:25:46.000Z</time>
      </trkpt>
      <trkpt lat="43.67384" lon="3.85935">
        <ele>60</ele>
        <time>2020-09-26T11:25:47.000Z</time>
      </trkpt>
      <trkpt lat="43.6738" lon="3.85938">
        <ele>60</ele>
        <time>2020-09-26T11:25:48.000Z</time>
      </trkpt>
      <trkpt lat="43.67376" lon="3.85941">
        <ele>60.09500032</ele>
        <time>2020-09-26T11:25:49.000Z</time>
      </trkpt>
      <trkpt lat="43.67372" lon="3.85944">
        <ele>60.19500032</ele>
        <time>2020-09-26T11:25:50.000Z</time>
      </trkpt>
      <trkpt lat="43.67367" lon="3.85947">
        <ele>60.29500032</ele>
        <time>2020-09-26T11:25:51.000Z</time>
      </trkpt>
      <trkpt lat="43.67363" lon="3.85949">
        <ele>60.39500032</ele>
        <time>2020-09-26T11:25:52.000Z</time>
      </trkpt>
      <trkpt lat="43.67358" lon="3.85952">
        <ele>60.49500032</ele>
        <time>2020-09-26T11:25:53.000Z</time>
      </trkpt>
      <trkpt lat="43.67353" lon="3.85954">
        <ele>60.59500032</ele>
        <time>2020-09-26T11:25:54.000Z</time>
      </trkpt>
      <trkpt lat="43.67349" lon="3.85956">
        <ele>60.69500032</ele>
        <time>2020-09-26T11:25:55.000Z</time>
      </trkpt>
      <trkpt lat="43.67344" lon="3.85959">
        <ele>60.79500032</ele>
        <time>2020-09-26T11:25:56.000Z</time>
      </trkpt>
      <trkpt lat="43.6734" lon="3.85962">
        <ele>60.89500032</ele>
        <time>2020-09-26T11:25:57.000Z</time>
      </trkpt>
      <trkpt lat="43.67335" lon="3.85964">
        <ele>60.99500032</ele>
        <time>2020-09-26T11:25:58.000Z</time>
      </trkpt>
      <trkpt lat="43.67331" lon="3.85966">
        <ele>60.90499968</ele>
        <time>2020-09-26T11:25:59.000Z</time>
      </trkpt>
      <trkpt lat="43.67326" lon="3.85968">
        <ele>60.80499968</ele>
        <time>2020-09-26T11:26:00.000Z</time>
      </trkpt>
      <trkpt lat="43.67322" lon="3.8597">
        <ele>60.70499968</ele>
        <time>2020-09-26T11:26:01.000Z</time>
      </trkpt>
      <trkpt lat="43.67317" lon="3.85973">
        <ele>60.60499968</ele>
        <time>2020-09-26T11:26:02.000Z</time>
      </trkpt>
      <trkpt lat="43.67312" lon="3.85976">
        <ele>60.50499968</ele>
        <time>2020-09-26T11:26:03.000Z</time>
      </trkpt>
      <trkpt lat="43.67307" lon="3.85979">
        <ele>60.40499968</ele>
        <time>2020-09-26T11:26:04.000Z</time>
      </trkpt>
      <trkpt lat="43.67301" lon="3.85982">
        <ele>60.30499968</ele>
        <time>2020-09-26T11:26:05.000Z</time>
      </trkpt>
      <trkpt lat="43.67296" lon="3.85985">
        <ele>60.20499968</ele>
        <time>2020-09-26T11:26:06.000Z</time>
      </trkpt>
      <trkpt lat="43.67291" lon="3.85988">
        <ele>60.10499968</ele>
        <time>2020-09-26T11:26:07.000Z</time>
      </trkpt>
      <trkpt lat="43.67286" lon="3.85992">
        <ele>60.00499968</ele>
        <time>2020-09-26T11:26:08.000Z</time>
      </trkpt>
      <trkpt lat="43.67281" lon="3.85995">
        <ele>60</ele>
        <time>2020-09-26T11:26:09.000Z</time>
      </trkpt>
      <trkpt lat="43.67276" lon="3.85998">
        <ele>60</ele>
        <time>2020-09-26T11:26:10.000Z</time>
      </trkpt>
      <trkpt lat="43.67271" lon="3.86">
        <ele>60</ele>
        <time>2020-09-26T11:26:11.000Z</time>
      </trkpt>
      <trkpt lat="43.67267" lon="3.86003">
        <ele>60</ele>
        <time>2020-09-26T11:26:12.000Z</time>
      </trkpt>
      <trkpt lat="43.67263" lon="3.86007">
        <ele>60</ele>
        <time>2020-09-26T11:26:13.000Z</time>
      </trkpt>
      <trkpt lat="43.67259" lon="3.86012">
        <ele>60</ele>
        <time>2020-09-26T11:26:14.000Z</time>
      </trkpt>
      <trkpt lat="43.67256" lon="3.86017">
        <ele>60</ele>
        <time>2020-09-26T11:26:15.000Z</time>
      </trkpt>
      <trkpt lat="43.67252" lon="3.86022">
        <ele>60</ele>
        <time>2020-09-26T11:26:16.000Z</time>
      </trkpt>
      <trkpt lat="43.67249" lon="3.86026">
        <ele>60</ele>
        <time>2020-09-26T11:26:17.000Z</time>
      </trkpt>
      <trkpt lat="43.67245" lon="3.8603">
        <ele>60</ele>
        <time>2020-09-26T11:26:18.000Z</time>
      </trkpt>
      <trkpt lat="43.67241" lon="3.86033">
        <ele>59.80999936</ele>
        <time>2020-09-26T11:26:19.000Z</time>
      </trkpt>
      <trkpt lat="43.67236" lon="3.86036">
        <ele>59.60999936</ele>
        <time>2020-09-26T11:26:20.000Z</time>
      </trkpt>
      <trkpt lat="43.67231" lon="3.86039">
        <ele>59.40999936</ele>
        <time>2020-09-26T11:26:21.000Z</time>
      </trkpt>
      <trkpt lat="43.67227" lon="3.86042">
        <ele>59.20999936</ele>
        <time>2020-09-26T11:26:22.000Z</time>
      </trkpt>
      <trkpt lat="43.67222" lon="3.86046">
        <ele>59.00999936</ele>
        <time>2020-09-26T11:26:23.000Z</time>
      </trkpt>
      <trkpt lat="43.67217" lon="3.86049">
        <ele>58.80999936</ele>
        <time>2020-09-26T11:26:24.000Z</time>
      </trkpt>
      <trkpt lat="43.67212" lon="3.86052">
        <ele>58.60999936</ele>
        <time>2020-09-26T11:26:25.000Z</time>
      </trkpt>
      <trkpt lat="43.67207" lon="3.86056">
        <ele>58.40999936</ele>
        <time>2020-09-26T11:26:26.000Z</time>
      </trkpt>
      <trkpt lat="43.67202" lon="3.86059">
        <ele>58.20999936</ele>
        <time>2020-09-26T11:26:27.000Z</time>
      </trkpt>
      <trkpt lat="43.67197" lon="3.86062">
        <ele>58.00999936</ele>
        <time>2020-09-26T11:26:28.000Z</time>
      </trkpt>
      <trkpt lat="43.67192" lon="3.86065">
        <ele>57.90499968</ele>
        <time>2020-09-26T11:26:29.000Z</time>
      </trkpt>
      <trkpt lat="43.67187" lon="3.86068">
        <ele>57.80499968</ele>
        <time>2020-09-26T11:26:30.000Z</time>
      </trkpt>
      <trkpt lat="43.67182" lon="3.86072">
        <ele>57.70499968</ele>
        <time>2020-09-26T11:26:31.000Z</time>
      </trkpt>
      <trkpt lat="43.67177" lon="3.86075">
        <ele>57.60499968</ele>
        <time>2020-09-26T11:26:32.000Z</time>
      </trkpt>
      <trkpt lat="43.67172" lon="3.86078">
        <ele>57.50499968</ele>
        <time>2020-09-26T11:26:33.000Z</time>
      </trkpt>
      <trkpt lat="43.67167" lon="3.86082">
        <ele>57.40499968</ele>
        <time>2020-09-26T11:26:34.000Z</time>
      </trkpt>
      <trkpt lat="43.67162" lon="3.86085">
        <ele>57.30499968</ele>
        <time>2020-09-26T11:26:35.000Z</time>
      </trkpt>
      <trkpt lat="43.67157" lon="3.86088">
        <ele>57.20499968</ele>
        <time>2020-09-26T11:26:36.000Z</time>
      </trkpt>
      <trkpt lat="43.67152" lon="3.86091">
        <ele>57.10499968</ele>
        <time>2020-09-26T11:26:37.000Z</time>
      </trkpt>
      <trkpt lat="43.67147" lon="3.86094">
        <ele>57.00499968</ele>
        <time>2020-09-26T11:26:38.000Z</time>
      </trkpt>
      <trkpt lat="43.67142" lon="3.86097">
        <ele>56.907677016965</ele>
        <time>2020-09-26T11:26:39.000Z</time>
      </trkpt>
      <trkpt lat="43.67137" lon="3.861">
        <ele>56.810495256908</ele>
        <time>2020-09-26T11:26:40.000Z</time>
      </trkpt>
      <trkpt lat="43.67133" lon="3.86102">
        <ele>56.713313496852</ele>
        <time>2020-09-26T11:26:41.000Z</time>
      </trkpt>
      <trkpt lat="43.67128" lon="3.86105">
        <ele>56.616131736795</ele>
        <time>2020-09-26T11:26:42.000Z</time>
      </trkpt>
      <trkpt lat="43.67123" lon="3.86108">
        <ele>56.518949976739</ele>
        <time>2020-09-26T11:26:43.000Z</time>
      </trkpt>
      <trkpt lat="43.67118" lon="3.8611">
        <ele>56.421768216682</ele>
        <time>2020-09-26T11:26:44.000Z</time>
      </trkpt>
      <trkpt lat="43.67114" lon="3.86113">
        <ele>56.324586456625</ele>
        <time>2020-09-26T11:26:45.000Z</time>
      </trkpt>
      <trkpt lat="43.67109" lon="3.86116">
        <ele>56.227404696569</ele>
        <time>2020-09-26T11:26:46.000Z</time>
      </trkpt>
      <trkpt lat="43.67104" lon="3.86119">
        <ele>56.130222936513</ele>
        <time>2020-09-26T11:26:47.000Z</time>
      </trkpt>
      <trkpt lat="43.67099" lon="3.86122">
        <ele>56.033041176456</ele>
        <time>2020-09-26T11:26:48.000Z</time>
      </trkpt>
      <trkpt lat="43.67093" lon="3.86124">
        <ele>55.932028199538</ele>
        <time>2020-09-26T11:26:49.000Z</time>
      </trkpt>
      <trkpt lat="43.67088" lon="3.86127">
        <ele>55.829041621737</ele>
        <time>2020-09-26T11:26:50.000Z</time>
      </trkpt>
      <trkpt lat="43.67082" lon="3.8613">
        <ele>55.726055043936</ele>
        <time>2020-09-26T11:26:51.000Z</time>
      </trkpt>
      <trkpt lat="43.67077" lon="3.86133">
        <ele>55.623068466136</ele>
        <time>2020-09-26T11:26:52.000Z</time>
      </trkpt>
      <trkpt lat="43.67071" lon="3.86136">
        <ele>55.520081888335</ele>
        <time>2020-09-26T11:26:53.000Z</time>
      </trkpt>
      <trkpt lat="43.67066" lon="3.86139">
        <ele>55.417095310535</ele>
        <time>2020-09-26T11:26:54.000Z</time>
      </trkpt>
      <trkpt lat="43.6706" lon="3.86141">
        <ele>55.314108732735</ele>
        <time>2020-09-26T11:26:55.000Z</time>
      </trkpt>
      <trkpt lat="43.67055" lon="3.86144">
        <ele>55.211122154934</ele>
        <time>2020-09-26T11:26:56.000Z</time>
      </trkpt>
      <trkpt lat="43.6705" lon="3.86147">
        <ele>55.108135577134</ele>
        <time>2020-09-26T11:26:57.000Z</time>
      </trkpt>
      <trkpt lat="43.67045" lon="3.8615">
        <ele>55.005148999333</ele>
        <time>2020-09-26T11:26:58.000Z</time>
      </trkpt>
      <trkpt lat="43.67041" lon="3.86155">
        <ele>55</ele>
        <time>2020-09-26T11:26:59.000Z</time>
      </trkpt>
      <trkpt lat="43.67037" lon="3.8616">
        <ele>55</ele>
        <time>2020-09-26T11:27:00.000Z</time>
      </trkpt>
      <trkpt lat="43.67032" lon="3.86163">
        <ele>55</ele>
        <time>2020-09-26T11:27:01.000Z</time>
      </trkpt>
      <trkpt lat="43.67027" lon="3.86164">
        <ele>55</ele>
        <time>2020-09-26T11:27:02.000Z</time>
      </trkpt>
      <trkpt lat="43.67021" lon="3.86163">
        <ele>55</ele>
        <time>2020-09-26T11:27:03.000Z</time>
      </trkpt>
      <trkpt lat="43.67016" lon="3.86163">
        <ele>55</ele>
        <time>2020-09-26T11:27:04.000Z</time>
      </trkpt>
      <trkpt lat="43.67011" lon="3.86163">
        <ele>55</ele>
        <time>2020-09-26T11:27:05.000Z</time>
      </trkpt>
      <trkpt lat="43.67006" lon="3.86165">
        <ele>55</ele>
        <time>2020-09-26T11:27:06.000Z</time>
      </trkpt>
      <trkpt lat="43.67001" lon="3.86166">
        <ele>55</ele>
        <time>2020-09-26T11:27:07.000Z</time>
      </trkpt>
      <trkpt lat="43.66996" lon="3.86167">
        <ele>55</ele>
        <time>2020-09-26T11:27:08.000Z</time>
      </trkpt>
      <trkpt lat="43.66991" lon="3.86169">
        <ele>55</ele>
        <time>2020-09-26T11:27:09.000Z</time>
      </trkpt>
      <trkpt lat="43.66986" lon="3.86171">
        <ele>55</ele>
        <time>2020-09-26T11:27:10.000Z</time>
      </trkpt>
      <trkpt lat="43.66982" lon="3.86174">
        <ele>55</ele>
        <time>2020-09-26T11:27:11.000Z</time>
      </trkpt>
      <trkpt lat="43.66977" lon="3.86178">
        <ele>55</ele>
        <time>2020-09-26T11:27:12.000Z</time>
      </trkpt>
      <trkpt lat="43.66972" lon="3.86182">
        <ele>55</ele>
        <time>2020-09-26T11:27:13.000Z</time>
      </trkpt>
      <trkpt lat="43.66967" lon="3.86187">
        <ele>55</ele>
        <time>2020-09-26T11:27:14.000Z</time>
      </trkpt>
      <trkpt lat="43.66961" lon="3.86192">
        <ele>55</ele>
        <time>2020-09-26T11:27:15.000Z</time>
      </trkpt>
      <trkpt lat="43.66956" lon="3.86197">
        <ele>55</ele>
        <time>2020-09-26T11:27:16.000Z</time>
      </trkpt>
      <trkpt lat="43.6695" lon="3.86202">
        <ele>55</ele>
        <time>2020-09-26T11:27:17.000Z</time>
      </trkpt>
      <trkpt lat="43.66945" lon="3.86208">
        <ele>55</ele>
        <time>2020-09-26T11:27:18.000Z</time>
      </trkpt>
      <trkpt lat="43.6694" lon="3.86213">
        <ele>55</ele>
        <time>2020-09-26T11:27:19.000Z</time>
      </trkpt>
      <trkpt lat="43.66935" lon="3.86218">
        <ele>55</ele>
        <time>2020-09-26T11:27:20.000Z</time>
      </trkpt>
      <trkpt lat="43.6693" lon="3.86222">
        <ele>55</ele>
        <time>2020-09-26T11:27:21.000Z</time>
      </trkpt>
      <trkpt lat="43.66927" lon="3.86226">
        <ele>55</ele>
        <time>2020-09-26T11:27:22.000Z</time>
      </trkpt>
      <trkpt lat="43.66924" lon="3.86229">
        <ele>55</ele>
        <time>2020-09-26T11:27:23.000Z</time>
      </trkpt>
      <trkpt lat="43.66922" lon="3.86231">
        <ele>55</ele>
        <time>2020-09-26T11:27:24.000Z</time>
      </trkpt>
      <trkpt lat="43.6692" lon="3.86233">
        <ele>55</ele>
        <time>2020-09-26T11:27:25.000Z</time>
      </trkpt>
      <trkpt lat="43.66918" lon="3.86235">
        <ele>55</ele>
        <time>2020-09-26T11:27:26.000Z</time>
      </trkpt>
      <trkpt lat="43.66915" lon="3.86236">
        <ele>55</ele>
        <time>2020-09-26T11:27:27.000Z</time>
      </trkpt>
      <trkpt lat="43.66913" lon="3.86236">
        <ele>55</ele>
        <time>2020-09-26T11:27:28.000Z</time>
      </trkpt>
      <trkpt lat="43.6691" lon="3.86236">
        <ele>54.90499968</ele>
        <time>2020-09-26T11:27:29.000Z</time>
      </trkpt>
      <trkpt lat="43.66908" lon="3.86239">
        <ele>54.70499968</ele>
        <time>2020-09-26T11:27:31.000Z</time>
      </trkpt>
      <trkpt lat="43.66908" lon="3.86242">
        <ele>54.60499968</ele>
        <time>2020-09-26T11:27:32.000Z</time>
      </trkpt>
      <trkpt lat="43.66907" lon="3.86245">
        <ele>54.50499968</ele>
        <time>2020-09-26T11:27:33.000Z</time>
      </trkpt>
      <trkpt lat="43.66905" lon="3.86248">
        <ele>54.40499968</ele>
        <time>2020-09-26T11:27:34.000Z</time>
      </trkpt>
      <trkpt lat="43.66902" lon="3.86251">
        <ele>54.30499968</ele>
        <time>2020-09-26T11:27:35.000Z</time>
      </trkpt>
      <trkpt lat="43.66898" lon="3.86254">
        <ele>54.20499968</ele>
        <time>2020-09-26T11:27:36.000Z</time>
      </trkpt>
      <trkpt lat="43.66895" lon="3.86258">
        <ele>54.10499968</ele>
        <time>2020-09-26T11:27:37.000Z</time>
      </trkpt>
      <trkpt lat="43.66891" lon="3.86262">
        <ele>54.00499968</ele>
        <time>2020-09-26T11:27:38.000Z</time>
      </trkpt>
      <trkpt lat="43.66887" lon="3.86266">
        <ele>53.90499968</ele>
        <time>2020-09-26T11:27:39.000Z</time>
      </trkpt>
      <trkpt lat="43.66883" lon="3.86271">
        <ele>53.80499968</ele>
        <time>2020-09-26T11:27:40.000Z</time>
      </trkpt>
      <trkpt lat="43.66879" lon="3.86275">
        <ele>53.70499968</ele>
        <time>2020-09-26T11:27:41.000Z</time>
      </trkpt>
      <trkpt lat="43.66875" lon="3.8628">
        <ele>53.60499968</ele>
        <time>2020-09-26T11:27:42.000Z</time>
      </trkpt>
      <trkpt lat="43.6687" lon="3.86285">
        <ele>53.50499968</ele>
        <time>2020-09-26T11:27:43.000Z</time>
      </trkpt>
      <trkpt lat="43.66865" lon="3.8629">
        <ele>53.40499968</ele>
        <time>2020-09-26T11:27:44.000Z</time>
      </trkpt>
      <trkpt lat="43.6686" lon="3.86295">
        <ele>53.30499968</ele>
        <time>2020-09-26T11:27:45.000Z</time>
      </trkpt>
      <trkpt lat="43.66855" lon="3.863">
        <ele>53.20499968</ele>
        <time>2020-09-26T11:27:46.000Z</time>
      </trkpt>
      <trkpt lat="43.66849" lon="3.86305">
        <ele>53.10499968</ele>
        <time>2020-09-26T11:27:47.000Z</time>
      </trkpt>
      <trkpt lat="43.66844" lon="3.86311">
        <ele>53.00499968</ele>
        <time>2020-09-26T11:27:48.000Z</time>
      </trkpt>
      <trkpt lat="43.66839" lon="3.86316">
        <ele>52.80999936</ele>
        <time>2020-09-26T11:27:49.000Z</time>
      </trkpt>
      <trkpt lat="43.66834" lon="3.86322">
        <ele>52.60999936</ele>
        <time>2020-09-26T11:27:50.000Z</time>
      </trkpt>
      <trkpt lat="43.66829" lon="3.86327">
        <ele>52.40999936</ele>
        <time>2020-09-26T11:27:51.000Z</time>
      </trkpt>
      <trkpt lat="43.66824" lon="3.86331">
        <ele>52.20999936</ele>
        <time>2020-09-26T11:27:52.000Z</time>
      </trkpt>
      <trkpt lat="43.66818" lon="3.86336">
        <ele>52.00999936</ele>
        <time>2020-09-26T11:27:53.000Z</time>
      </trkpt>
      <trkpt lat="43.66812" lon="3.86339">
        <ele>51.80999936</ele>
        <time>2020-09-26T11:27:54.000Z</time>
      </trkpt>
      <trkpt lat="43.66806" lon="3.86342">
        <ele>51.60999936</ele>
        <time>2020-09-26T11:27:55.000Z</time>
      </trkpt>
      <trkpt lat="43.668" lon="3.86344">
        <ele>51.40999936</ele>
        <time>2020-09-26T11:27:56.000Z</time>
      </trkpt>
      <trkpt lat="43.66793" lon="3.86346">
        <ele>51.20999936</ele>
        <time>2020-09-26T11:27:57.000Z</time>
      </trkpt>
      <trkpt lat="43.66787" lon="3.86347">
        <ele>51.00999936</ele>
        <time>2020-09-26T11:27:58.000Z</time>
      </trkpt>
      <trkpt lat="43.66781" lon="3.86347">
        <ele>51</ele>
        <time>2020-09-26T11:27:59.000Z</time>
      </trkpt>
      <trkpt lat="43.66775" lon="3.86348">
        <ele>51</ele>
        <time>2020-09-26T11:28:00.000Z</time>
      </trkpt>
      <trkpt lat="43.66769" lon="3.86348">
        <ele>51</ele>
        <time>2020-09-26T11:28:01.000Z</time>
      </trkpt>
      <trkpt lat="43.66763" lon="3.86348">
        <ele>51</ele>
        <time>2020-09-26T11:28:02.000Z</time>
      </trkpt>
      <trkpt lat="43.66757" lon="3.86349">
        <ele>51</ele>
        <time>2020-09-26T11:28:03.000Z</time>
      </trkpt>
      <trkpt lat="43.66751" lon="3.8635">
        <ele>51</ele>
        <time>2020-09-26T11:28:04.000Z</time>
      </trkpt>
      <trkpt lat="43.66745" lon="3.86351">
        <ele>51</ele>
        <time>2020-09-26T11:28:05.000Z</time>
      </trkpt>
      <trkpt lat="43.66738" lon="3.86352">
        <ele>51</ele>
        <time>2020-09-26T11:28:06.000Z</time>
      </trkpt>
      <trkpt lat="43.66732" lon="3.86352">
        <ele>51</ele>
        <time>2020-09-26T11:28:07.000Z</time>
      </trkpt>
      <trkpt lat="43.66726" lon="3.86352">
        <ele>51</ele>
        <time>2020-09-26T11:28:08.000Z</time>
      </trkpt>
      <trkpt lat="43.6672" lon="3.86352">
        <ele>51</ele>
        <time>2020-09-26T11:28:09.000Z</time>
      </trkpt>
      <trkpt lat="43.66714" lon="3.86351">
        <ele>51</ele>
        <time>2020-09-26T11:28:10.000Z</time>
      </trkpt>
      <trkpt lat="43.66707" lon="3.8635">
        <ele>51</ele>
        <time>2020-09-26T11:28:11.000Z</time>
      </trkpt>
      <trkpt lat="43.66701" lon="3.86349">
        <ele>51</ele>
        <time>2020-09-26T11:28:12.000Z</time>
      </trkpt>
      <trkpt lat="43.66695" lon="3.86347">
        <ele>51</ele>
        <time>2020-09-26T11:28:13.000Z</time>
      </trkpt>
      <trkpt lat="43.66689" lon="3.86345">
        <ele>51</ele>
        <time>2020-09-26T11:28:14.000Z</time>
      </trkpt>
      <trkpt lat="43.66684" lon="3.86342">
        <ele>51</ele>
        <time>2020-09-26T11:28:15.000Z</time>
      </trkpt>
      <trkpt lat="43.66679" lon="3.86339">
        <ele>51</ele>
        <time>2020-09-26T11:28:16.000Z</time>
      </trkpt>
      <trkpt lat="43.66674" lon="3.86336">
        <ele>51</ele>
        <time>2020-09-26T11:28:17.000Z</time>
      </trkpt>
      <trkpt lat="43.66669" lon="3.86332">
        <ele>51</ele>
        <time>2020-09-26T11:28:18.000Z</time>
      </trkpt>
      <trkpt lat="43.66664" lon="3.8633">
        <ele>51</ele>
        <time>2020-09-26T11:28:19.000Z</time>
      </trkpt>
      <trkpt lat="43.66659" lon="3.86327">
        <ele>51</ele>
        <time>2020-09-26T11:28:20.000Z</time>
      </trkpt>
      <trkpt lat="43.66654" lon="3.86325">
        <ele>51</ele>
        <time>2020-09-26T11:28:21.000Z</time>
      </trkpt>
      <trkpt lat="43.66649" lon="3.86323">
        <ele>51</ele>
        <time>2020-09-26T11:28:22.000Z</time>
      </trkpt>
      <trkpt lat="43.66644" lon="3.8632">
        <ele>51</ele>
        <time>2020-09-26T11:28:23.000Z</time>
      </trkpt>
      <trkpt lat="43.66639" lon="3.86318">
        <ele>51</ele>
        <time>2020-09-26T11:28:24.000Z</time>
      </trkpt>
      <trkpt lat="43.66634" lon="3.86316">
        <ele>51</ele>
        <time>2020-09-26T11:28:25.000Z</time>
      </trkpt>
      <trkpt lat="43.66628" lon="3.86315">
        <ele>51</ele>
        <time>2020-09-26T11:28:26.000Z</time>
      </trkpt>
      <trkpt lat="43.66623" lon="3.86313">
        <ele>51</ele>
        <time>2020-09-26T11:28:27.000Z</time>
      </trkpt>
      <trkpt lat="43.66617" lon="3.86313">
        <ele>51</ele>
        <time>2020-09-26T11:28:28.000Z</time>
      </trkpt>
      <trkpt lat="43.66611" lon="3.86313">
        <ele>51.093092742953</ele>
        <time>2020-09-26T11:28:29.000Z</time>
      </trkpt>
      <trkpt lat="43.66606" lon="3.86313">
        <ele>51.193192810989</ele>
        <time>2020-09-26T11:28:30.000Z</time>
      </trkpt>
      <trkpt lat="43.666" lon="3.86313">
        <ele>51.293292879025</ele>
        <time>2020-09-26T11:28:31.000Z</time>
      </trkpt>
      <trkpt lat="43.66594" lon="3.86313">
        <ele>51.393392947061</ele>
        <time>2020-09-26T11:28:32.000Z</time>
      </trkpt>
      <trkpt lat="43.66588" lon="3.86313">
        <ele>51.493493015097</ele>
        <time>2020-09-26T11:28:33.000Z</time>
      </trkpt>
      <trkpt lat="43.66583" lon="3.86313">
        <ele>51.593593083133</ele>
        <time>2020-09-26T11:28:34.000Z</time>
      </trkpt>
      <trkpt lat="43.66577" lon="3.86314">
        <ele>51.693693151169</ele>
        <time>2020-09-26T11:28:35.000Z</time>
      </trkpt>
      <trkpt lat="43.66572" lon="3.86314">
        <ele>51.793793219205</ele>
        <time>2020-09-26T11:28:36.000Z</time>
      </trkpt>
      <trkpt lat="43.66567" lon="3.86315">
        <ele>51.893893287241</ele>
        <time>2020-09-26T11:28:37.000Z</time>
      </trkpt>
      <trkpt lat="43.66562" lon="3.86315">
        <ele>51.993993355277</ele>
        <time>2020-09-26T11:28:38.000Z</time>
      </trkpt>
      <trkpt lat="43.66557" lon="3.86316">
        <ele>52.188187087747</ele>
        <time>2020-09-26T11:28:39.000Z</time>
      </trkpt>
      <trkpt lat="43.66552" lon="3.86317">
        <ele>52.388387480332</ele>
        <time>2020-09-26T11:28:40.000Z</time>
      </trkpt>
      <trkpt lat="43.66547" lon="3.86318">
        <ele>52.588587872917</ele>
        <time>2020-09-26T11:28:41.000Z</time>
      </trkpt>
      <trkpt lat="43.66543" lon="3.86319">
        <ele>52.788788265502</ele>
        <time>2020-09-26T11:28:42.000Z</time>
      </trkpt>
      <trkpt lat="43.66537" lon="3.8632">
        <ele>52.988988658087</ele>
        <time>2020-09-26T11:28:43.000Z</time>
      </trkpt>
      <trkpt lat="43.66532" lon="3.86321">
        <ele>53.189189050672</ele>
        <time>2020-09-26T11:28:44.000Z</time>
      </trkpt>
      <trkpt lat="43.66527" lon="3.86322">
        <ele>53.389389443257</ele>
        <time>2020-09-26T11:28:45.000Z</time>
      </trkpt>
      <trkpt lat="43.66522" lon="3.86323">
        <ele>53.589589835842</ele>
        <time>2020-09-26T11:28:46.000Z</time>
      </trkpt>
      <trkpt lat="43.66517" lon="3.86324">
        <ele>53.789790228427</ele>
        <time>2020-09-26T11:28:47.000Z</time>
      </trkpt>
      <trkpt lat="43.66512" lon="3.86325">
        <ele>53.989990621012</ele>
        <time>2020-09-26T11:28:48.000Z</time>
      </trkpt>
      <trkpt lat="43.66508" lon="3.86326">
        <ele>54</ele>
        <time>2020-09-26T11:28:49.000Z</time>
      </trkpt>
      <trkpt lat="43.66503" lon="3.86327">
        <ele>54</ele>
        <time>2020-09-26T11:28:50.000Z</time>
      </trkpt>
      <trkpt lat="43.66499" lon="3.86328">
        <ele>54</ele>
        <time>2020-09-26T11:28:51.000Z</time>
      </trkpt>
      <trkpt lat="43.66495" lon="3.86329">
        <ele>54</ele>
        <time>2020-09-26T11:28:52.000Z</time>
      </trkpt>
      <trkpt lat="43.66491" lon="3.8633">
        <ele>54</ele>
        <time>2020-09-26T11:28:53.000Z</time>
      </trkpt>
      <trkpt lat="43.66487" lon="3.86331">
        <ele>54</ele>
        <time>2020-09-26T11:28:54.000Z</time>
      </trkpt>
      <trkpt lat="43.66484" lon="3.86332">
        <ele>54</ele>
        <time>2020-09-26T11:28:55.000Z</time>
      </trkpt>
      <trkpt lat="43.6648" lon="3.86334">
        <ele>54</ele>
        <time>2020-09-26T11:28:56.000Z</time>
      </trkpt>
      <trkpt lat="43.66476" lon="3.86335">
        <ele>54</ele>
        <time>2020-09-26T11:28:57.000Z</time>
      </trkpt>
      <trkpt lat="43.66472" lon="3.86336">
        <ele>54</ele>
        <time>2020-09-26T11:28:58.000Z</time>
      </trkpt>
      <trkpt lat="43.66468" lon="3.86338">
        <ele>54</ele>
        <time>2020-09-26T11:28:59.000Z</time>
      </trkpt>
      <trkpt lat="43.66463" lon="3.8634">
        <ele>54</ele>
        <time>2020-09-26T11:29:00.000Z</time>
      </trkpt>
      <trkpt lat="43.66458" lon="3.86343">
        <ele>54</ele>
        <time>2020-09-26T11:29:01.000Z</time>
      </trkpt>
      <trkpt lat="43.66454" lon="3.86345">
        <ele>54</ele>
        <time>2020-09-26T11:29:02.000Z</time>
      </trkpt>
      <trkpt lat="43.66448" lon="3.86346">
        <ele>54</ele>
        <time>2020-09-26T11:29:03.000Z</time>
      </trkpt>
      <trkpt lat="43.66443" lon="3.86349">
        <ele>54</ele>
        <time>2020-09-26T11:29:04.000Z</time>
      </trkpt>
      <trkpt lat="43.66438" lon="3.8635">
        <ele>54</ele>
        <time>2020-09-26T11:29:05.000Z</time>
      </trkpt>
      <trkpt lat="43.66432" lon="3.86352">
        <ele>54</ele>
        <time>2020-09-26T11:29:06.000Z</time>
      </trkpt>
      <trkpt lat="43.66427" lon="3.86353">
        <ele>54</ele>
        <time>2020-09-26T11:29:07.000Z</time>
      </trkpt>
      <trkpt lat="43.66421" lon="3.86354">
        <ele>54</ele>
        <time>2020-09-26T11:29:08.000Z</time>
      </trkpt>
      <trkpt lat="43.66416" lon="3.86355">
        <ele>53.811812912253</ele>
        <time>2020-09-26T11:29:09.000Z</time>
      </trkpt>
      <trkpt lat="43.6641" lon="3.86356">
        <ele>53.611612519668</ele>
        <time>2020-09-26T11:29:10.000Z</time>
      </trkpt>
      <trkpt lat="43.66405" lon="3.86355">
        <ele>53.411412127083</ele>
        <time>2020-09-26T11:29:11.000Z</time>
      </trkpt>
      <trkpt lat="43.66399" lon="3.86355">
        <ele>53.211211734498</ele>
        <time>2020-09-26T11:29:12.000Z</time>
      </trkpt>
      <trkpt lat="43.66393" lon="3.86354">
        <ele>53.011011341913</ele>
        <time>2020-09-26T11:29:13.000Z</time>
      </trkpt>
      <trkpt lat="43.66388" lon="3.86352">
        <ele>52.810810949328</ele>
        <time>2020-09-26T11:29:14.000Z</time>
      </trkpt>
      <trkpt lat="43.66382" lon="3.8635">
        <ele>52.610610556743</ele>
        <time>2020-09-26T11:29:15.000Z</time>
      </trkpt>
      <trkpt lat="43.66376" lon="3.86348">
        <ele>52.410410164158</ele>
        <time>2020-09-26T11:29:16.000Z</time>
      </trkpt>
      <trkpt lat="43.6637" lon="3.86345">
        <ele>52.210209771573</ele>
        <time>2020-09-26T11:29:17.000Z</time>
      </trkpt>
      <trkpt lat="43.66365" lon="3.86341">
        <ele>52.010009378988</ele>
        <time>2020-09-26T11:29:18.000Z</time>
      </trkpt>
      <trkpt lat="43.6636" lon="3.86337">
        <ele>51.906311380632</ele>
        <time>2020-09-26T11:29:19.000Z</time>
      </trkpt>
      <trkpt lat="43.66354" lon="3.86333">
        <ele>51.807692113488</ele>
        <time>2020-09-26T11:29:20.000Z</time>
      </trkpt>
      <trkpt lat="43.66349" lon="3.86328">
        <ele>51.709072846345</ele>
        <time>2020-09-26T11:29:21.000Z</time>
      </trkpt>
      <trkpt lat="43.66344" lon="3.86324">
        <ele>51.610453579201</ele>
        <time>2020-09-26T11:29:22.000Z</time>
      </trkpt>
      <trkpt lat="43.66339" lon="3.86321">
        <ele>51.511834312057</ele>
        <time>2020-09-26T11:29:23.000Z</time>
      </trkpt>
      <trkpt lat="43.66334" lon="3.86317">
        <ele>51.413215044914</ele>
        <time>2020-09-26T11:29:24.000Z</time>
      </trkpt>
      <trkpt lat="43.66329" lon="3.86314">
        <ele>51.31459577777</ele>
        <time>2020-09-26T11:29:25.000Z</time>
      </trkpt>
      <trkpt lat="43.66323" lon="3.86311">
        <ele>51.215976510626</ele>
        <time>2020-09-26T11:29:26.000Z</time>
      </trkpt>
      <trkpt lat="43.66317" lon="3.86308">
        <ele>51.117357243483</ele>
        <time>2020-09-26T11:29:27.000Z</time>
      </trkpt>
      <trkpt lat="43.66312" lon="3.86305">
        <ele>51.018737976339</ele>
        <time>2020-09-26T11:29:28.000Z</time>
      </trkpt>
      <trkpt lat="43.66306" lon="3.86303">
        <ele>51</ele>
        <time>2020-09-26T11:29:29.000Z</time>
      </trkpt>
      <trkpt lat="43.66301" lon="3.863">
        <ele>51</ele>
        <time>2020-09-26T11:29:30.000Z</time>
      </trkpt>
      <trkpt lat="43.66295" lon="3.86298">
        <ele>51</ele>
        <time>2020-09-26T11:29:31.000Z</time>
      </trkpt>
      <trkpt lat="43.66289" lon="3.86297">
        <ele>51</ele>
        <time>2020-09-26T11:29:32.000Z</time>
      </trkpt>
      <trkpt lat="43.66283" lon="3.86295">
        <ele>51</ele>
        <time>2020-09-26T11:29:33.000Z</time>
      </trkpt>
      <trkpt lat="43.66277" lon="3.86294">
        <ele>51</ele>
        <time>2020-09-26T11:29:34.000Z</time>
      </trkpt>
      <trkpt lat="43.66272" lon="3.86293">
        <ele>51</ele>
        <time>2020-09-26T11:29:35.000Z</time>
      </trkpt>
      <trkpt lat="43.66266" lon="3.86293">
        <ele>51</ele>
        <time>2020-09-26T11:29:36.000Z</time>
      </trkpt>
      <trkpt lat="43.6626" lon="3.86293">
        <ele>51</ele>
        <time>2020-09-26T11:29:37.000Z</time>
      </trkpt>
      <trkpt lat="43.66254" lon="3.86292">
        <ele>51</ele>
        <time>2020-09-26T11:29:38.000Z</time>
      </trkpt>
      <trkpt lat="43.66248" lon="3.86292">
        <ele>50.80999936</ele>
        <time>2020-09-26T11:29:39.000Z</time>
      </trkpt>
      <trkpt lat="43.66242" lon="3.86291">
        <ele>50.60999936</ele>
        <time>2020-09-26T11:29:40.000Z</time>
      </trkpt>
      <trkpt lat="43.66237" lon="3.86291">
        <ele>50.40999936</ele>
        <time>2020-09-26T11:29:41.000Z</time>
      </trkpt>
      <trkpt lat="43.66231" lon="3.86291">
        <ele>50.20999936</ele>
        <time>2020-09-26T11:29:42.000Z</time>
      </trkpt>
      <trkpt lat="43.66225" lon="3.86292">
        <ele>50.00999936</ele>
        <time>2020-09-26T11:29:43.000Z</time>
      </trkpt>
      <trkpt lat="43.66219" lon="3.86292">
        <ele>49.80999936</ele>
        <time>2020-09-26T11:29:44.000Z</time>
      </trkpt>
      <trkpt lat="43.66213" lon="3.86293">
        <ele>49.60999936</ele>
        <time>2020-09-26T11:29:45.000Z</time>
      </trkpt>
      <trkpt lat="43.66208" lon="3.86294">
        <ele>49.40999936</ele>
        <time>2020-09-26T11:29:46.000Z</time>
      </trkpt>
      <trkpt lat="43.66202" lon="3.86295">
        <ele>49.20999936</ele>
        <time>2020-09-26T11:29:47.000Z</time>
      </trkpt>
      <trkpt lat="43.66196" lon="3.86295">
        <ele>49.00999936</ele>
        <time>2020-09-26T11:29:48.000Z</time>
      </trkpt>
      <trkpt lat="43.66191" lon="3.86295">
        <ele>49</ele>
        <time>2020-09-26T11:29:49.000Z</time>
      </trkpt>
      <trkpt lat="43.66185" lon="3.86294">
        <ele>49</ele>
        <time>2020-09-26T11:29:50.000Z</time>
      </trkpt>
      <trkpt lat="43.6618" lon="3.86295">
        <ele>49</ele>
        <time>2020-09-26T11:29:51.000Z</time>
      </trkpt>
      <trkpt lat="43.66175" lon="3.86295">
        <ele>49</ele>
        <time>2020-09-26T11:29:52.000Z</time>
      </trkpt>
      <trkpt lat="43.66169" lon="3.86296">
        <ele>49</ele>
        <time>2020-09-26T11:29:53.000Z</time>
      </trkpt>
      <trkpt lat="43.66164" lon="3.86296">
        <ele>49</ele>
        <time>2020-09-26T11:29:54.000Z</time>
      </trkpt>
      <trkpt lat="43.66158" lon="3.86296">
        <ele>49</ele>
        <time>2020-09-26T11:29:55.000Z</time>
      </trkpt>
      <trkpt lat="43.66153" lon="3.86296">
        <ele>49</ele>
        <time>2020-09-26T11:29:56.000Z</time>
      </trkpt>
      <trkpt lat="43.66148" lon="3.86297">
        <ele>49</ele>
        <time>2020-09-26T11:29:57.000Z</time>
      </trkpt>
      <trkpt lat="43.66144" lon="3.86297">
        <ele>49</ele>
        <time>2020-09-26T11:29:58.000Z</time>
      </trkpt>
      <trkpt lat="43.6614" lon="3.86297">
        <ele>49.067971800462</ele>
        <time>2020-09-26T11:29:59.000Z</time>
      </trkpt>
      <trkpt lat="43.66137" lon="3.86297">
        <ele>49.170958378263</ele>
        <time>2020-09-26T11:30:00.000Z</time>
      </trkpt>
      <trkpt lat="43.66133" lon="3.86299">
        <ele>49.273944956064</ele>
        <time>2020-09-26T11:30:01.000Z</time>
      </trkpt>
      <trkpt lat="43.66126" lon="3.863">
        <ele>49.376931533864</ele>
        <time>2020-09-26T11:30:02.000Z</time>
      </trkpt>
      <trkpt lat="43.66121" lon="3.86301">
        <ele>49.479918111665</ele>
        <time>2020-09-26T11:30:03.000Z</time>
      </trkpt>
      <trkpt lat="43.66116" lon="3.86302">
        <ele>49.582904689465</ele>
        <time>2020-09-26T11:30:04.000Z</time>
      </trkpt>
      <trkpt lat="43.6611" lon="3.86303">
        <ele>49.685891267265</ele>
        <time>2020-09-26T11:30:05.000Z</time>
      </trkpt>
      <trkpt lat="43.66107" lon="3.86305">
        <ele>49.788877845066</ele>
        <time>2020-09-26T11:30:06.000Z</time>
      </trkpt>
      <trkpt lat="43.66102" lon="3.86308">
        <ele>49.891864422866</ele>
        <time>2020-09-26T11:30:07.000Z</time>
      </trkpt>
      <trkpt lat="43.66096" lon="3.8631">
        <ele>49.994851000667</ele>
        <time>2020-09-26T11:30:08.000Z</time>
      </trkpt>
      <trkpt lat="43.6609" lon="3.86313">
        <ele>50.092054573643</ele>
        <time>2020-09-26T11:30:09.000Z</time>
      </trkpt>
      <trkpt lat="43.66084" lon="3.86315">
        <ele>50.18895379845</ele>
        <time>2020-09-26T11:30:10.000Z</time>
      </trkpt>
      <trkpt lat="43.66079" lon="3.86318">
        <ele>50.285853023256</ele>
        <time>2020-09-26T11:30:11.000Z</time>
      </trkpt>
      <trkpt lat="43.66073" lon="3.8632">
        <ele>50.382752248062</ele>
        <time>2020-09-26T11:30:12.000Z</time>
      </trkpt>
      <trkpt lat="43.66067" lon="3.86321">
        <ele>50.479651472868</ele>
        <time>2020-09-26T11:30:13.000Z</time>
      </trkpt>
      <trkpt lat="43.66061" lon="3.86323">
        <ele>50.576550697674</ele>
        <time>2020-09-26T11:30:14.000Z</time>
      </trkpt>
      <trkpt lat="43.66056" lon="3.86325">
        <ele>50.673449922481</ele>
        <time>2020-09-26T11:30:15.000Z</time>
      </trkpt>
      <trkpt lat="43.66051" lon="3.86326">
        <ele>50.770349147287</ele>
        <time>2020-09-26T11:30:16.000Z</time>
      </trkpt>
      <trkpt lat="43.66045" lon="3.86327">
        <ele>50.867248372093</ele>
        <time>2020-09-26T11:30:17.000Z</time>
      </trkpt>
      <trkpt lat="43.6604" lon="3.86328">
        <ele>50.964147596899</ele>
        <time>2020-09-26T11:30:18.000Z</time>
      </trkpt>
      <trkpt lat="43.66034" lon="3.86329">
        <ele>50.869968508597</ele>
        <time>2020-09-26T11:30:19.000Z</time>
      </trkpt>
      <trkpt lat="43.66028" lon="3.86329">
        <ele>50.663570364265</ele>
        <time>2020-09-26T11:30:20.000Z</time>
      </trkpt>
      <trkpt lat="43.66023" lon="3.86329">
        <ele>50.457172219933</ele>
        <time>2020-09-26T11:30:21.000Z</time>
      </trkpt>
      <trkpt lat="43.66017" lon="3.86328">
        <ele>50.250774075601</ele>
        <time>2020-09-26T11:30:22.000Z</time>
      </trkpt>
      <trkpt lat="43.66011" lon="3.86327">
        <ele>50.044375931268</ele>
        <time>2020-09-26T11:30:23.000Z</time>
      </trkpt>
      <trkpt lat="43.66006" lon="3.86326">
        <ele>49.837977786936</ele>
        <time>2020-09-26T11:30:24.000Z</time>
      </trkpt>
      <trkpt lat="43.66" lon="3.86325">
        <ele>49.631579642604</ele>
        <time>2020-09-26T11:30:25.000Z</time>
      </trkpt>
      <trkpt lat="43.65995" lon="3.86324">
        <ele>49.425181498272</ele>
        <time>2020-09-26T11:30:26.000Z</time>
      </trkpt>
      <trkpt lat="43.65989" lon="3.86323">
        <ele>49.21878335394</ele>
        <time>2020-09-26T11:30:27.000Z</time>
      </trkpt>
      <trkpt lat="43.65984" lon="3.86322">
        <ele>49.012385209608</ele>
        <time>2020-09-26T11:30:28.000Z</time>
      </trkpt>
      <trkpt lat="43.65978" lon="3.86321">
        <ele>48.905906456126</ele>
        <time>2020-09-26T11:30:29.000Z</time>
      </trkpt>
      <trkpt lat="43.65973" lon="3.8632">
        <ele>48.805806259834</ele>
        <time>2020-09-26T11:30:30.000Z</time>
      </trkpt>
      <trkpt lat="43.65968" lon="3.8632">
        <ele>48.705706063541</ele>
        <time>2020-09-26T11:30:31.000Z</time>
      </trkpt>
      <trkpt lat="43.65963" lon="3.86319">
        <ele>48.605605867249</ele>
        <time>2020-09-26T11:30:32.000Z</time>
      </trkpt>
      <trkpt lat="43.65959" lon="3.86319">
        <ele>48.505505670956</ele>
        <time>2020-09-26T11:30:33.000Z</time>
      </trkpt>
      <trkpt lat="43.65954" lon="3.86318">
        <ele>48.405405474664</ele>
        <time>2020-09-26T11:30:34.000Z</time>
      </trkpt>
      <trkpt lat="43.65949" lon="3.86318">
        <ele>48.305305278371</ele>
        <time>2020-09-26T11:30:35.000Z</time>
      </trkpt>
      <trkpt lat="43.65945" lon="3.86319">
        <ele>48.205205082079</ele>
        <time>2020-09-26T11:30:36.000Z</time>
      </trkpt>
      <trkpt lat="43.6594" lon="3.8632">
        <ele>48.105104885787</ele>
        <time>2020-09-26T11:30:37.000Z</time>
      </trkpt>
      <trkpt lat="43.65935" lon="3.8632">
        <ele>48.005004689494</ele>
        <time>2020-09-26T11:30:38.000Z</time>
      </trkpt>
      <trkpt lat="43.65929" lon="3.86321">
        <ele>47.90499968</ele>
        <time>2020-09-26T11:30:39.000Z</time>
      </trkpt>
      <trkpt lat="43.65924" lon="3.86322">
        <ele>47.80499968</ele>
        <time>2020-09-26T11:30:40.000Z</time>
      </trkpt>
      <trkpt lat="43.65919" lon="3.86323">
        <ele>47.70499968</ele>
        <time>2020-09-26T11:30:41.000Z</time>
      </trkpt>
      <trkpt lat="43.65913" lon="3.86324">
        <ele>47.60499968</ele>
        <time>2020-09-26T11:30:42.000Z</time>
      </trkpt>
      <trkpt lat="43.65907" lon="3.86325">
        <ele>47.50499968</ele>
        <time>2020-09-26T11:30:43.000Z</time>
      </trkpt>
      <trkpt lat="43.65901" lon="3.86326">
        <ele>47.40499968</ele>
        <time>2020-09-26T11:30:44.000Z</time>
      </trkpt>
      <trkpt lat="43.65895" lon="3.86327">
        <ele>47.30499968</ele>
        <time>2020-09-26T11:30:45.000Z</time>
      </trkpt>
      <trkpt lat="43.65889" lon="3.86329">
        <ele>47.20499968</ele>
        <time>2020-09-26T11:30:46.000Z</time>
      </trkpt>
      <trkpt lat="43.65884" lon="3.8633">
        <ele>47.10499968</ele>
        <time>2020-09-26T11:30:47.000Z</time>
      </trkpt>
      <trkpt lat="43.65878" lon="3.86331">
        <ele>47.00499968</ele>
        <time>2020-09-26T11:30:48.000Z</time>
      </trkpt>
      <trkpt lat="43.65873" lon="3.86332">
        <ele>47</ele>
        <time>2020-09-26T11:30:49.000Z</time>
      </trkpt>
      <trkpt lat="43.65867" lon="3.86334">
        <ele>47</ele>
        <time>2020-09-26T11:30:50.000Z</time>
      </trkpt>
      <trkpt lat="43.65861" lon="3.86334">
        <ele>47</ele>
        <time>2020-09-26T11:30:51.000Z</time>
      </trkpt>
      <trkpt lat="43.65855" lon="3.86335">
        <ele>47</ele>
        <time>2020-09-26T11:30:52.000Z</time>
      </trkpt>
      <trkpt lat="43.65849" lon="3.86336">
        <ele>47</ele>
        <time>2020-09-26T11:30:53.000Z</time>
      </trkpt>
      <trkpt lat="43.65843" lon="3.86338">
        <ele>47</ele>
        <time>2020-09-26T11:30:54.000Z</time>
      </trkpt>
      <trkpt lat="43.65837" lon="3.8634">
        <ele>47</ele>
        <time>2020-09-26T11:30:55.000Z</time>
      </trkpt>
      <trkpt lat="43.65832" lon="3.86341">
        <ele>47</ele>
        <time>2020-09-26T11:30:56.000Z</time>
      </trkpt>
      <trkpt lat="43.65826" lon="3.86343">
        <ele>47</ele>
        <time>2020-09-26T11:30:57.000Z</time>
      </trkpt>
      <trkpt lat="43.6582" lon="3.86344">
        <ele>47</ele>
        <time>2020-09-26T11:30:58.000Z</time>
      </trkpt>
      <trkpt lat="43.65814" lon="3.86346">
        <ele>47</ele>
        <time>2020-09-26T11:30:59.000Z</time>
      </trkpt>
      <trkpt lat="43.65808" lon="3.86348">
        <ele>47</ele>
        <time>2020-09-26T11:31:00.000Z</time>
      </trkpt>
      <trkpt lat="43.65802" lon="3.86349">
        <ele>47</ele>
        <time>2020-09-26T11:31:01.000Z</time>
      </trkpt>
      <trkpt lat="43.65797" lon="3.8635">
        <ele>47</ele>
        <time>2020-09-26T11:31:02.000Z</time>
      </trkpt>
      <trkpt lat="43.65791" lon="3.86352">
        <ele>47</ele>
        <time>2020-09-26T11:31:03.000Z</time>
      </trkpt>
      <trkpt lat="43.65785" lon="3.86353">
        <ele>47</ele>
        <time>2020-09-26T11:31:04.000Z</time>
      </trkpt>
      <trkpt lat="43.65779" lon="3.86354">
        <ele>47</ele>
        <time>2020-09-26T11:31:05.000Z</time>
      </trkpt>
      <trkpt lat="43.65774" lon="3.86356">
        <ele>47</ele>
        <time>2020-09-26T11:31:06.000Z</time>
      </trkpt>
      <trkpt lat="43.65768" lon="3.86357">
        <ele>47</ele>
        <time>2020-09-26T11:31:07.000Z</time>
      </trkpt>
      <trkpt lat="43.65762" lon="3.86359">
        <ele>47</ele>
        <time>2020-09-26T11:31:08.000Z</time>
      </trkpt>
      <trkpt lat="43.65756" lon="3.8636">
        <ele>47</ele>
        <time>2020-09-26T11:31:09.000Z</time>
      </trkpt>
      <trkpt lat="43.6575" lon="3.86362">
        <ele>47</ele>
        <time>2020-09-26T11:31:10.000Z</time>
      </trkpt>
      <trkpt lat="43.65745" lon="3.86364">
        <ele>47</ele>
        <time>2020-09-26T11:31:11.000Z</time>
      </trkpt>
      <trkpt lat="43.65739" lon="3.86366">
        <ele>47</ele>
        <time>2020-09-26T11:31:12.000Z</time>
      </trkpt>
      <trkpt lat="43.65734" lon="3.86367">
        <ele>47</ele>
        <time>2020-09-26T11:31:13.000Z</time>
      </trkpt>
      <trkpt lat="43.65728" lon="3.86369">
        <ele>47</ele>
        <time>2020-09-26T11:31:14.000Z</time>
      </trkpt>
      <trkpt lat="43.65722" lon="3.86371">
        <ele>47</ele>
        <time>2020-09-26T11:31:15.000Z</time>
      </trkpt>
      <trkpt lat="43.65717" lon="3.86373">
        <ele>47</ele>
        <time>2020-09-26T11:31:16.000Z</time>
      </trkpt>
      <trkpt lat="43.65711" lon="3.86375">
        <ele>47</ele>
        <time>2020-09-26T11:31:17.000Z</time>
      </trkpt>
      <trkpt lat="43.65705" lon="3.86377">
        <ele>47</ele>
        <time>2020-09-26T11:31:18.000Z</time>
      </trkpt>
      <trkpt lat="43.65699" lon="3.86378">
        <ele>47</ele>
        <time>2020-09-26T11:31:19.000Z</time>
      </trkpt>
      <trkpt lat="43.65693" lon="3.8638">
        <ele>47</ele>
        <time>2020-09-26T11:31:20.000Z</time>
      </trkpt>
      <trkpt lat="43.65688" lon="3.86382">
        <ele>47</ele>
        <time>2020-09-26T11:31:21.000Z</time>
      </trkpt>
      <trkpt lat="43.65682" lon="3.86384">
        <ele>47</ele>
        <time>2020-09-26T11:31:22.000Z</time>
      </trkpt>
      <trkpt lat="43.65676" lon="3.86387">
        <ele>47</ele>
        <time>2020-09-26T11:31:23.000Z</time>
      </trkpt>
      <trkpt lat="43.6567" lon="3.86389">
        <ele>47</ele>
        <time>2020-09-26T11:31:24.000Z</time>
      </trkpt>
      <trkpt lat="43.65665" lon="3.86391">
        <ele>47</ele>
        <time>2020-09-26T11:31:25.000Z</time>
      </trkpt>
      <trkpt lat="43.65659" lon="3.86393">
        <ele>47</ele>
        <time>2020-09-26T11:31:26.000Z</time>
      </trkpt>
      <trkpt lat="43.65654" lon="3.86395">
        <ele>47</ele>
        <time>2020-09-26T11:31:27.000Z</time>
      </trkpt>
      <trkpt lat="43.65648" lon="3.86397">
        <ele>47</ele>
        <time>2020-09-26T11:31:28.000Z</time>
      </trkpt>
      <trkpt lat="43.65643" lon="3.86398">
        <ele>47</ele>
        <time>2020-09-26T11:31:29.000Z</time>
      </trkpt>
      <trkpt lat="43.65637" lon="3.864">
        <ele>47</ele>
        <time>2020-09-26T11:31:30.000Z</time>
      </trkpt>
      <trkpt lat="43.65632" lon="3.86402">
        <ele>47</ele>
        <time>2020-09-26T11:31:31.000Z</time>
      </trkpt>
      <trkpt lat="43.65627" lon="3.86404">
        <ele>47</ele>
        <time>2020-09-26T11:31:32.000Z</time>
      </trkpt>
      <trkpt lat="43.65622" lon="3.86407">
        <ele>47</ele>
        <time>2020-09-26T11:31:33.000Z</time>
      </trkpt>
      <trkpt lat="43.65617" lon="3.86409">
        <ele>47</ele>
        <time>2020-09-26T11:31:34.000Z</time>
      </trkpt>
      <trkpt lat="43.65611" lon="3.86412">
        <ele>47</ele>
        <time>2020-09-26T11:31:35.000Z</time>
      </trkpt>
      <trkpt lat="43.65606" lon="3.86414">
        <ele>47</ele>
        <time>2020-09-26T11:31:36.000Z</time>
      </trkpt>
      <trkpt lat="43.656" lon="3.86417">
        <ele>47</ele>
        <time>2020-09-26T11:31:37.000Z</time>
      </trkpt>
      <trkpt lat="43.65595" lon="3.86419">
        <ele>47</ele>
        <time>2020-09-26T11:31:38.000Z</time>
      </trkpt>
      <trkpt lat="43.6559" lon="3.86421">
        <ele>46.905094676433</ele>
        <time>2020-09-26T11:31:39.000Z</time>
      </trkpt>
      <trkpt lat="43.65585" lon="3.86423">
        <ele>46.805194672341</ele>
        <time>2020-09-26T11:31:40.000Z</time>
      </trkpt>
      <trkpt lat="43.65579" lon="3.86425">
        <ele>46.705294668249</ele>
        <time>2020-09-26T11:31:41.000Z</time>
      </trkpt>
      <trkpt lat="43.65574" lon="3.86428">
        <ele>46.605394664157</ele>
        <time>2020-09-26T11:31:42.000Z</time>
      </trkpt>
      <trkpt lat="43.65569" lon="3.8643">
        <ele>46.505494660065</ele>
        <time>2020-09-26T11:31:43.000Z</time>
      </trkpt>
      <trkpt lat="43.65564" lon="3.86432">
        <ele>46.405594655973</ele>
        <time>2020-09-26T11:31:44.000Z</time>
      </trkpt>
      <trkpt lat="43.65559" lon="3.86434">
        <ele>46.305694651881</ele>
        <time>2020-09-26T11:31:45.000Z</time>
      </trkpt>
      <trkpt lat="43.65554" lon="3.86436">
        <ele>46.205794647789</ele>
        <time>2020-09-26T11:31:46.000Z</time>
      </trkpt>
      <trkpt lat="43.65548" lon="3.86439">
        <ele>46.105894643697</ele>
        <time>2020-09-26T11:31:47.000Z</time>
      </trkpt>
      <trkpt lat="43.65543" lon="3.86441">
        <ele>46.005994639605</ele>
        <time>2020-09-26T11:31:48.000Z</time>
      </trkpt>
      <trkpt lat="43.65538" lon="3.86443">
        <ele>46</ele>
        <time>2020-09-26T11:31:49.000Z</time>
      </trkpt>
      <trkpt lat="43.65532" lon="3.86445">
        <ele>46</ele>
        <time>2020-09-26T11:31:50.000Z</time>
      </trkpt>
      <trkpt lat="43.65527" lon="3.86447">
        <ele>46</ele>
        <time>2020-09-26T11:31:51.000Z</time>
      </trkpt>
      <trkpt lat="43.65521" lon="3.86449">
        <ele>46</ele>
        <time>2020-09-26T11:31:52.000Z</time>
      </trkpt>
      <trkpt lat="43.65516" lon="3.8645">
        <ele>46</ele>
        <time>2020-09-26T11:31:53.000Z</time>
      </trkpt>
      <trkpt lat="43.65511" lon="3.86451">
        <ele>46</ele>
        <time>2020-09-26T11:31:54.000Z</time>
      </trkpt>
      <trkpt lat="43.65507" lon="3.86453">
        <ele>46</ele>
        <time>2020-09-26T11:31:55.000Z</time>
      </trkpt>
      <trkpt lat="43.65502" lon="3.86454">
        <ele>46</ele>
        <time>2020-09-26T11:31:56.000Z</time>
      </trkpt>
      <trkpt lat="43.65497" lon="3.86456">
        <ele>46</ele>
        <time>2020-09-26T11:31:57.000Z</time>
      </trkpt>
      <trkpt lat="43.65493" lon="3.86458">
        <ele>46</ele>
        <time>2020-09-26T11:31:58.000Z</time>
      </trkpt>
      <trkpt lat="43.65489" lon="3.8646">
        <ele>45.905189361955</ele>
        <time>2020-09-26T11:31:59.000Z</time>
      </trkpt>
      <trkpt lat="43.65485" lon="3.86462">
        <ele>45.805389026498</ele>
        <time>2020-09-26T11:32:00.000Z</time>
      </trkpt>
      <trkpt lat="43.65481" lon="3.86463">
        <ele>45.705588691041</ele>
        <time>2020-09-26T11:32:01.000Z</time>
      </trkpt>
      <trkpt lat="43.65476" lon="3.86465">
        <ele>45.605788355584</ele>
        <time>2020-09-26T11:32:02.000Z</time>
      </trkpt>
      <trkpt lat="43.65471" lon="3.86466">
        <ele>45.505988020127</ele>
        <time>2020-09-26T11:32:03.000Z</time>
      </trkpt>
      <trkpt lat="43.65467" lon="3.86467">
        <ele>45.40618768467</ele>
        <time>2020-09-26T11:32:04.000Z</time>
      </trkpt>
      <trkpt lat="43.65462" lon="3.86468">
        <ele>45.306387349214</ele>
        <time>2020-09-26T11:32:05.000Z</time>
      </trkpt>
      <trkpt lat="43.65457" lon="3.86471">
        <ele>45.206587013757</ele>
        <time>2020-09-26T11:32:06.000Z</time>
      </trkpt>
      <trkpt lat="43.65453" lon="3.86473">
        <ele>45.1067866783</ele>
        <time>2020-09-26T11:32:07.000Z</time>
      </trkpt>
      <trkpt lat="43.65448" lon="3.86476">
        <ele>45.006986342843</ele>
        <time>2020-09-26T11:32:08.000Z</time>
      </trkpt>
      <trkpt lat="43.65444" lon="3.86478">
        <ele>45</ele>
        <time>2020-09-26T11:32:09.000Z</time>
      </trkpt>
      <trkpt lat="43.65439" lon="3.8648">
        <ele>45</ele>
        <time>2020-09-26T11:32:10.000Z</time>
      </trkpt>
      <trkpt lat="43.65434" lon="3.86482">
        <ele>45</ele>
        <time>2020-09-26T11:32:11.000Z</time>
      </trkpt>
      <trkpt lat="43.65429" lon="3.86483">
        <ele>45</ele>
        <time>2020-09-26T11:32:12.000Z</time>
      </trkpt>
      <trkpt lat="43.65424" lon="3.86485">
        <ele>45</ele>
        <time>2020-09-26T11:32:13.000Z</time>
      </trkpt>
      <trkpt lat="43.65419" lon="3.86486">
        <ele>45</ele>
        <time>2020-09-26T11:32:14.000Z</time>
      </trkpt>
      <trkpt lat="43.65414" lon="3.86488">
        <ele>45</ele>
        <time>2020-09-26T11:32:15.000Z</time>
      </trkpt>
      <trkpt lat="43.65409" lon="3.8649">
        <ele>45</ele>
        <time>2020-09-26T11:32:16.000Z</time>
      </trkpt>
      <trkpt lat="43.65405" lon="3.86491">
        <ele>45</ele>
        <time>2020-09-26T11:32:17.000Z</time>
      </trkpt>
      <trkpt lat="43.654" lon="3.86492">
        <ele>45</ele>
        <time>2020-09-26T11:32:18.000Z</time>
      </trkpt>
      <trkpt lat="43.65395" lon="3.86494">
        <ele>45.187933313414</ele>
        <time>2020-09-26T11:32:19.000Z</time>
      </trkpt>
      <trkpt lat="43.65391" lon="3.86495">
        <ele>45.385757187495</ele>
        <time>2020-09-26T11:32:20.000Z</time>
      </trkpt>
      <trkpt lat="43.65386" lon="3.86497">
        <ele>45.583581061577</ele>
        <time>2020-09-26T11:32:21.000Z</time>
      </trkpt>
      <trkpt lat="43.65382" lon="3.86498">
        <ele>45.781404935658</ele>
        <time>2020-09-26T11:32:22.000Z</time>
      </trkpt>
      <trkpt lat="43.65377" lon="3.86499">
        <ele>45.97922880974</ele>
        <time>2020-09-26T11:32:23.000Z</time>
      </trkpt>
      <trkpt lat="43.65374" lon="3.865">
        <ele>46.177052683821</ele>
        <time>2020-09-26T11:32:24.000Z</time>
      </trkpt>
      <trkpt lat="43.65369" lon="3.86501">
        <ele>46.374876557903</ele>
        <time>2020-09-26T11:32:25.000Z</time>
      </trkpt>
      <trkpt lat="43.65364" lon="3.86503">
        <ele>46.572700431984</ele>
        <time>2020-09-26T11:32:26.000Z</time>
      </trkpt>
      <trkpt lat="43.65358" lon="3.86504">
        <ele>46.770524306065</ele>
        <time>2020-09-26T11:32:27.000Z</time>
      </trkpt>
      <trkpt lat="43.65352" lon="3.86505">
        <ele>46.968348180147</ele>
        <time>2020-09-26T11:32:28.000Z</time>
      </trkpt>
      <trkpt lat="43.65347" lon="3.86506">
        <ele>47</ele>
        <time>2020-09-26T11:32:29.000Z</time>
      </trkpt>
      <trkpt lat="43.65342" lon="3.86508">
        <ele>47</ele>
        <time>2020-09-26T11:32:30.000Z</time>
      </trkpt>
      <trkpt lat="43.65337" lon="3.86509">
        <ele>47</ele>
        <time>2020-09-26T11:32:31.000Z</time>
      </trkpt>
      <trkpt lat="43.65331" lon="3.8651">
        <ele>47</ele>
        <time>2020-09-26T11:32:32.000Z</time>
      </trkpt>
      <trkpt lat="43.65326" lon="3.86512">
        <ele>47</ele>
        <time>2020-09-26T11:32:33.000Z</time>
      </trkpt>
      <trkpt lat="43.65321" lon="3.86512">
        <ele>47</ele>
        <time>2020-09-26T11:32:34.000Z</time>
      </trkpt>
      <trkpt lat="43.65315" lon="3.86514">
        <ele>47</ele>
        <time>2020-09-26T11:32:35.000Z</time>
      </trkpt>
      <trkpt lat="43.6531" lon="3.86514">
        <ele>47</ele>
        <time>2020-09-26T11:32:36.000Z</time>
      </trkpt>
      <trkpt lat="43.65305" lon="3.86515">
        <ele>47</ele>
        <time>2020-09-26T11:32:37.000Z</time>
      </trkpt>
      <trkpt lat="43.65301" lon="3.86516">
        <ele>47</ele>
        <time>2020-09-26T11:32:38.000Z</time>
      </trkpt>
      <trkpt lat="43.65296" lon="3.86518">
        <ele>47</ele>
        <time>2020-09-26T11:32:39.000Z</time>
      </trkpt>
      <trkpt lat="43.65291" lon="3.86519">
        <ele>47</ele>
        <time>2020-09-26T11:32:40.000Z</time>
      </trkpt>
      <trkpt lat="43.65286" lon="3.86522">
        <ele>47</ele>
        <time>2020-09-26T11:32:41.000Z</time>
      </trkpt>
      <trkpt lat="43.65282" lon="3.86524">
        <ele>47</ele>
        <time>2020-09-26T11:32:42.000Z</time>
      </trkpt>
      <trkpt lat="43.65278" lon="3.86527">
        <ele>47</ele>
        <time>2020-09-26T11:32:43.000Z</time>
      </trkpt>
      <trkpt lat="43.65274" lon="3.86529">
        <ele>47</ele>
        <time>2020-09-26T11:32:44.000Z</time>
      </trkpt>
      <trkpt lat="43.6527" lon="3.86531">
        <ele>47</ele>
        <time>2020-09-26T11:32:45.000Z</time>
      </trkpt>
      <trkpt lat="43.65266" lon="3.86533">
        <ele>47</ele>
        <time>2020-09-26T11:32:46.000Z</time>
      </trkpt>
      <trkpt lat="43.65261" lon="3.86536">
        <ele>47</ele>
        <time>2020-09-26T11:32:47.000Z</time>
      </trkpt>
      <trkpt lat="43.65257" lon="3.86538">
        <ele>47</ele>
        <time>2020-09-26T11:32:48.000Z</time>
      </trkpt>
      <trkpt lat="43.65252" lon="3.86541">
        <ele>47</ele>
        <time>2020-09-26T11:32:49.000Z</time>
      </trkpt>
      <trkpt lat="43.65247" lon="3.86543">
        <ele>47</ele>
        <time>2020-09-26T11:32:50.000Z</time>
      </trkpt>
      <trkpt lat="43.65243" lon="3.86545">
        <ele>47</ele>
        <time>2020-09-26T11:32:51.000Z</time>
      </trkpt>
      <trkpt lat="43.65239" lon="3.86547">
        <ele>47</ele>
        <time>2020-09-26T11:32:52.000Z</time>
      </trkpt>
      <trkpt lat="43.65234" lon="3.8655">
        <ele>47</ele>
        <time>2020-09-26T11:32:53.000Z</time>
      </trkpt>
      <trkpt lat="43.6523" lon="3.86553">
        <ele>47</ele>
        <time>2020-09-26T11:32:54.000Z</time>
      </trkpt>
      <trkpt lat="43.65226" lon="3.86556">
        <ele>47</ele>
        <time>2020-09-26T11:32:55.000Z</time>
      </trkpt>
      <trkpt lat="43.65222" lon="3.86558">
        <ele>47</ele>
        <time>2020-09-26T11:32:56.000Z</time>
      </trkpt>
      <trkpt lat="43.65218" lon="3.86561">
        <ele>47</ele>
        <time>2020-09-26T11:32:57.000Z</time>
      </trkpt>
      <trkpt lat="43.65215" lon="3.86563">
        <ele>47</ele>
        <time>2020-09-26T11:32:58.000Z</time>
      </trkpt>
      <trkpt lat="43.65211" lon="3.86565">
        <ele>47</ele>
        <time>2020-09-26T11:32:59.000Z</time>
      </trkpt>
      <trkpt lat="43.65207" lon="3.86568">
        <ele>47</ele>
        <time>2020-09-26T11:33:00.000Z</time>
      </trkpt>
      <trkpt lat="43.65203" lon="3.8657">
        <ele>47</ele>
        <time>2020-09-26T11:33:01.000Z</time>
      </trkpt>
      <trkpt lat="43.65199" lon="3.86573">
        <ele>47</ele>
        <time>2020-09-26T11:33:02.000Z</time>
      </trkpt>
      <trkpt lat="43.65195" lon="3.86575">
        <ele>47</ele>
        <time>2020-09-26T11:33:03.000Z</time>
      </trkpt>
      <trkpt lat="43.65191" lon="3.86578">
        <ele>47</ele>
        <time>2020-09-26T11:33:04.000Z</time>
      </trkpt>
      <trkpt lat="43.65187" lon="3.8658">
        <ele>47</ele>
        <time>2020-09-26T11:33:05.000Z</time>
      </trkpt>
      <trkpt lat="43.65184" lon="3.86583">
        <ele>47</ele>
        <time>2020-09-26T11:33:06.000Z</time>
      </trkpt>
      <trkpt lat="43.65181" lon="3.86585">
        <ele>47</ele>
        <time>2020-09-26T11:33:07.000Z</time>
      </trkpt>
      <trkpt lat="43.65178" lon="3.86587">
        <ele>47</ele>
        <time>2020-09-26T11:33:08.000Z</time>
      </trkpt>
      <trkpt lat="43.65175" lon="3.86589">
        <ele>47</ele>
        <time>2020-09-26T11:33:09.000Z</time>
      </trkpt>
      <trkpt lat="43.65173" lon="3.86591">
        <ele>47</ele>
        <time>2020-09-26T11:33:10.000Z</time>
      </trkpt>
      <trkpt lat="43.65171" lon="3.86592">
        <ele>47</ele>
        <time>2020-09-26T11:33:11.000Z</time>
      </trkpt>
      <trkpt lat="43.65168" lon="3.86593">
        <ele>47</ele>
        <time>2020-09-26T11:33:12.000Z</time>
      </trkpt>
      <trkpt lat="43.65166" lon="3.86594">
        <ele>47</ele>
        <time>2020-09-26T11:33:13.000Z</time>
      </trkpt>
      <trkpt lat="43.65163" lon="3.86595">
        <ele>47</ele>
        <time>2020-09-26T11:33:15.000Z</time>
      </trkpt>
      <trkpt lat="43.65161" lon="3.86599">
        <ele>47</ele>
        <time>2020-09-26T11:33:17.000Z</time>
      </trkpt>
      <trkpt lat="43.65159" lon="3.86601">
        <ele>47</ele>
        <time>2020-09-26T11:33:18.000Z</time>
      </trkpt>
      <trkpt lat="43.65157" lon="3.86603">
        <ele>46.906033343293</ele>
        <time>2020-09-26T11:33:19.000Z</time>
      </trkpt>
      <trkpt lat="43.65154" lon="3.86604">
        <ele>46.807121406252</ele>
        <time>2020-09-26T11:33:20.000Z</time>
      </trkpt>
      <trkpt lat="43.65151" lon="3.86605">
        <ele>46.708209469212</ele>
        <time>2020-09-26T11:33:21.000Z</time>
      </trkpt>
      <trkpt lat="43.65148" lon="3.86605">
        <ele>46.609297532171</ele>
        <time>2020-09-26T11:33:22.000Z</time>
      </trkpt>
      <trkpt lat="43.65145" lon="3.86605">
        <ele>46.51038559513</ele>
        <time>2020-09-26T11:33:23.000Z</time>
      </trkpt>
      <trkpt lat="43.65143" lon="3.86603">
        <ele>46.411473658089</ele>
        <time>2020-09-26T11:33:24.000Z</time>
      </trkpt>
      <trkpt lat="43.6514" lon="3.86602">
        <ele>46.312561721049</ele>
        <time>2020-09-26T11:33:25.000Z</time>
      </trkpt>
      <trkpt lat="43.65137" lon="3.866">
        <ele>46.213649784008</ele>
        <time>2020-09-26T11:33:26.000Z</time>
      </trkpt>
      <trkpt lat="43.65135" lon="3.86597">
        <ele>46.114737846967</ele>
        <time>2020-09-26T11:33:27.000Z</time>
      </trkpt>
      <trkpt lat="43.65133" lon="3.86593">
        <ele>46.015825909926</ele>
        <time>2020-09-26T11:33:28.000Z</time>
      </trkpt>
      <trkpt lat="43.65132" lon="3.86589">
        <ele>46</ele>
        <time>2020-09-26T11:33:29.000Z</time>
      </trkpt>
      <trkpt lat="43.65129" lon="3.86585">
        <ele>46</ele>
        <time>2020-09-26T11:33:30.000Z</time>
      </trkpt>
      <trkpt lat="43.65127" lon="3.86583">
        <ele>46</ele>
        <time>2020-09-26T11:33:31.000Z</time>
      </trkpt>
      <trkpt lat="43.65124" lon="3.86581">
        <ele>46</ele>
        <time>2020-09-26T11:33:32.000Z</time>
      </trkpt>
      <trkpt lat="43.65121" lon="3.86582">
        <ele>46</ele>
        <time>2020-09-26T11:33:33.000Z</time>
      </trkpt>
      <trkpt lat="43.65118" lon="3.86584">
        <ele>46</ele>
        <time>2020-09-26T11:33:34.000Z</time>
      </trkpt>
      <trkpt lat="43.65115" lon="3.86586">
        <ele>46</ele>
        <time>2020-09-26T11:33:35.000Z</time>
      </trkpt>
      <trkpt lat="43.65111" lon="3.86587">
        <ele>46</ele>
        <time>2020-09-26T11:33:36.000Z</time>
      </trkpt>
      <trkpt lat="43.65108" lon="3.86586">
        <ele>46</ele>
        <time>2020-09-26T11:33:37.000Z</time>
      </trkpt>
      <trkpt lat="43.65104" lon="3.86584">
        <ele>46</ele>
        <time>2020-09-26T11:33:38.000Z</time>
      </trkpt>
      <trkpt lat="43.65101" lon="3.86583">
        <ele>45.90499968</ele>
        <time>2020-09-26T11:33:39.000Z</time>
      </trkpt>
      <trkpt lat="43.65097" lon="3.86583">
        <ele>45.80499968</ele>
        <time>2020-09-26T11:33:40.000Z</time>
      </trkpt>
      <trkpt lat="43.65093" lon="3.86584">
        <ele>45.70499968</ele>
        <time>2020-09-26T11:33:41.000Z</time>
      </trkpt>
      <trkpt lat="43.6509" lon="3.86584">
        <ele>45.60499968</ele>
        <time>2020-09-26T11:33:42.000Z</time>
      </trkpt>
      <trkpt lat="43.65085" lon="3.86583">
        <ele>45.50499968</ele>
        <time>2020-09-26T11:33:43.000Z</time>
      </trkpt>
      <trkpt lat="43.65081" lon="3.86583">
        <ele>45.40499968</ele>
        <time>2020-09-26T11:33:44.000Z</time>
      </trkpt>
      <trkpt lat="43.65077" lon="3.86583">
        <ele>45.30499968</ele>
        <time>2020-09-26T11:33:45.000Z</time>
      </trkpt>
      <trkpt lat="43.65073" lon="3.86584">
        <ele>45.20499968</ele>
        <time>2020-09-26T11:33:46.000Z</time>
      </trkpt>
      <trkpt lat="43.65069" lon="3.86583">
        <ele>45.10499968</ele>
        <time>2020-09-26T11:33:47.000Z</time>
      </trkpt>
      <trkpt lat="43.65066" lon="3.8658">
        <ele>45.00499968</ele>
        <time>2020-09-26T11:33:48.000Z</time>
      </trkpt>
      <trkpt lat="43.65064" lon="3.86575">
        <ele>45</ele>
        <time>2020-09-26T11:33:49.000Z</time>
      </trkpt>
      <trkpt lat="43.65064" lon="3.86569">
        <ele>45</ele>
        <time>2020-09-26T11:33:50.000Z</time>
      </trkpt>
      <trkpt lat="43.65064" lon="3.86563">
        <ele>45</ele>
        <time>2020-09-26T11:33:51.000Z</time>
      </trkpt>
      <trkpt lat="43.65065" lon="3.86558">
        <ele>45</ele>
        <time>2020-09-26T11:33:52.000Z</time>
      </trkpt>
      <trkpt lat="43.65065" lon="3.86553">
        <ele>45</ele>
        <time>2020-09-26T11:33:53.000Z</time>
      </trkpt>
      <trkpt lat="43.65065" lon="3.86548">
        <ele>45</ele>
        <time>2020-09-26T11:33:54.000Z</time>
      </trkpt>
      <trkpt lat="43.65064" lon="3.86543">
        <ele>45</ele>
        <time>2020-09-26T11:33:55.000Z</time>
      </trkpt>
      <trkpt lat="43.65064" lon="3.86539">
        <ele>45</ele>
        <time>2020-09-26T11:33:56.000Z</time>
      </trkpt>
      <trkpt lat="43.65063" lon="3.86534">
        <ele>45</ele>
        <time>2020-09-26T11:33:57.000Z</time>
      </trkpt>
      <trkpt lat="43.65063" lon="3.86529">
        <ele>45</ele>
        <time>2020-09-26T11:33:58.000Z</time>
      </trkpt>
      <trkpt lat="43.65063" lon="3.86524">
        <ele>45</ele>
        <time>2020-09-26T11:33:59.000Z</time>
      </trkpt>
      <trkpt lat="43.65063" lon="3.8652">
        <ele>45</ele>
        <time>2020-09-26T11:34:00.000Z</time>
      </trkpt>
      <trkpt lat="43.65062" lon="3.86515">
        <ele>45</ele>
        <time>2020-09-26T11:34:01.000Z</time>
      </trkpt>
      <trkpt lat="43.65062" lon="3.8651">
        <ele>45</ele>
        <time>2020-09-26T11:34:02.000Z</time>
      </trkpt>
      <trkpt lat="43.65062" lon="3.86505">
        <ele>45</ele>
        <time>2020-09-26T11:34:03.000Z</time>
      </trkpt>
      <trkpt lat="43.65061" lon="3.865">
        <ele>45</ele>
        <time>2020-09-26T11:34:04.000Z</time>
      </trkpt>
      <trkpt lat="43.65061" lon="3.86495">
        <ele>45</ele>
        <time>2020-09-26T11:34:05.000Z</time>
      </trkpt>
      <trkpt lat="43.65061" lon="3.8649">
        <ele>45</ele>
        <time>2020-09-26T11:34:06.000Z</time>
      </trkpt>
      <trkpt lat="43.6506" lon="3.86485">
        <ele>45</ele>
        <time>2020-09-26T11:34:07.000Z</time>
      </trkpt>
      <trkpt lat="43.65059" lon="3.8648">
        <ele>45</ele>
        <time>2020-09-26T11:34:08.000Z</time>
      </trkpt>
      <trkpt lat="43.65059" lon="3.86475">
        <ele>44.90499968</ele>
        <time>2020-09-26T11:34:09.000Z</time>
      </trkpt>
      <trkpt lat="43.65058" lon="3.8647">
        <ele>44.80499968</ele>
        <time>2020-09-26T11:34:10.000Z</time>
      </trkpt>
      <trkpt lat="43.65058" lon="3.86465">
        <ele>44.70499968</ele>
        <time>2020-09-26T11:34:11.000Z</time>
      </trkpt>
      <trkpt lat="43.65057" lon="3.86459">
        <ele>44.60499968</ele>
        <time>2020-09-26T11:34:12.000Z</time>
      </trkpt>
      <trkpt lat="43.65057" lon="3.86454">
        <ele>44.50499968</ele>
        <time>2020-09-26T11:34:13.000Z</time>
      </trkpt>
      <trkpt lat="43.65057" lon="3.86449">
        <ele>44.40499968</ele>
        <time>2020-09-26T11:34:14.000Z</time>
      </trkpt>
      <trkpt lat="43.65056" lon="3.86444">
        <ele>44.30499968</ele>
        <time>2020-09-26T11:34:15.000Z</time>
      </trkpt>
      <trkpt lat="43.65056" lon="3.86438">
        <ele>44.20499968</ele>
        <time>2020-09-26T11:34:16.000Z</time>
      </trkpt>
      <trkpt lat="43.65055" lon="3.86433">
        <ele>44.10499968</ele>
        <time>2020-09-26T11:34:17.000Z</time>
      </trkpt>
      <trkpt lat="43.65055" lon="3.86427">
        <ele>44.00499968</ele>
        <time>2020-09-26T11:34:18.000Z</time>
      </trkpt>
      <trkpt lat="43.65055" lon="3.86422">
        <ele>44</ele>
        <time>2020-09-26T11:34:19.000Z</time>
      </trkpt>
      <trkpt lat="43.65054" lon="3.86417">
        <ele>44</ele>
        <time>2020-09-26T11:34:20.000Z</time>
      </trkpt>
      <trkpt lat="43.65053" lon="3.86412">
        <ele>44</ele>
        <time>2020-09-26T11:34:21.000Z</time>
      </trkpt>
      <trkpt lat="43.65053" lon="3.86407">
        <ele>44</ele>
        <time>2020-09-26T11:34:22.000Z</time>
      </trkpt>
      <trkpt lat="43.65052" lon="3.86401">
        <ele>44</ele>
        <time>2020-09-26T11:34:23.000Z</time>
      </trkpt>
      <trkpt lat="43.65052" lon="3.86396">
        <ele>44</ele>
        <time>2020-09-26T11:34:24.000Z</time>
      </trkpt>
      <trkpt lat="43.65051" lon="3.8639">
        <ele>44</ele>
        <time>2020-09-26T11:34:25.000Z</time>
      </trkpt>
      <trkpt lat="43.65051" lon="3.86385">
        <ele>44</ele>
        <time>2020-09-26T11:34:26.000Z</time>
      </trkpt>
      <trkpt lat="43.65051" lon="3.8638">
        <ele>44</ele>
        <time>2020-09-26T11:34:27.000Z</time>
      </trkpt>
      <trkpt lat="43.6505" lon="3.86374">
        <ele>44</ele>
        <time>2020-09-26T11:34:28.000Z</time>
      </trkpt>
      <trkpt lat="43.6505" lon="3.86369">
        <ele>44</ele>
        <time>2020-09-26T11:34:29.000Z</time>
      </trkpt>
      <trkpt lat="43.65049" lon="3.86364">
        <ele>44</ele>
        <time>2020-09-26T11:34:30.000Z</time>
      </trkpt>
      <trkpt lat="43.65049" lon="3.86358">
        <ele>44</ele>
        <time>2020-09-26T11:34:31.000Z</time>
      </trkpt>
      <trkpt lat="43.65048" lon="3.86353">
        <ele>44</ele>
        <time>2020-09-26T11:34:32.000Z</time>
      </trkpt>
      <trkpt lat="43.65048" lon="3.86347">
        <ele>44</ele>
        <time>2020-09-26T11:34:33.000Z</time>
      </trkpt>
      <trkpt lat="43.65047" lon="3.86342">
        <ele>44</ele>
        <time>2020-09-26T11:34:34.000Z</time>
      </trkpt>
      <trkpt lat="43.65047" lon="3.86337">
        <ele>44</ele>
        <time>2020-09-26T11:34:35.000Z</time>
      </trkpt>
      <trkpt lat="43.65047" lon="3.86331">
        <ele>44</ele>
        <time>2020-09-26T11:34:36.000Z</time>
      </trkpt>
      <trkpt lat="43.65046" lon="3.86326">
        <ele>44</ele>
        <time>2020-09-26T11:34:37.000Z</time>
      </trkpt>
      <trkpt lat="43.65046" lon="3.86321">
        <ele>44</ele>
        <time>2020-09-26T11:34:38.000Z</time>
      </trkpt>
      <trkpt lat="43.65045" lon="3.86316">
        <ele>44.04836951255</ele>
        <time>2020-09-26T11:34:39.000Z</time>
      </trkpt>
      <trkpt lat="43.65045" lon="3.8631">
        <ele>44.15352208978</ele>
        <time>2020-09-26T11:34:40.000Z</time>
      </trkpt>
      <trkpt lat="43.65045" lon="3.86305">
        <ele>44.258674667011</ele>
        <time>2020-09-26T11:34:41.000Z</time>
      </trkpt>
      <trkpt lat="43.65044" lon="3.863">
        <ele>44.363827244242</ele>
        <time>2020-09-26T11:34:42.000Z</time>
      </trkpt>
      <trkpt lat="43.65044" lon="3.86295">
        <ele>44.468979821473</ele>
        <time>2020-09-26T11:34:43.000Z</time>
      </trkpt>
      <trkpt lat="43.65043" lon="3.86289">
        <ele>44.574132398704</ele>
        <time>2020-09-26T11:34:44.000Z</time>
      </trkpt>
      <trkpt lat="43.65043" lon="3.86284">
        <ele>44.679284975934</ele>
        <time>2020-09-26T11:34:45.000Z</time>
      </trkpt>
      <trkpt lat="43.65042" lon="3.86279">
        <ele>44.784437553165</ele>
        <time>2020-09-26T11:34:46.000Z</time>
      </trkpt>
      <trkpt lat="43.65042" lon="3.86274">
        <ele>44.889590130396</ele>
        <time>2020-09-26T11:34:47.000Z</time>
      </trkpt>
      <trkpt lat="43.65042" lon="3.86269">
        <ele>44.994742707627</ele>
        <time>2020-09-26T11:34:48.000Z</time>
      </trkpt>
      <trkpt lat="43.65041" lon="3.86264">
        <ele>45</ele>
        <time>2020-09-26T11:34:49.000Z</time>
      </trkpt>
      <trkpt lat="43.65041" lon="3.86259">
        <ele>45</ele>
        <time>2020-09-26T11:34:50.000Z</time>
      </trkpt>
      <trkpt lat="43.65041" lon="3.86254">
        <ele>45</ele>
        <time>2020-09-26T11:34:51.000Z</time>
      </trkpt>
      <trkpt lat="43.6504" lon="3.86248">
        <ele>45</ele>
        <time>2020-09-26T11:34:52.000Z</time>
      </trkpt>
      <trkpt lat="43.6504" lon="3.86243">
        <ele>45</ele>
        <time>2020-09-26T11:34:53.000Z</time>
      </trkpt>
      <trkpt lat="43.65039" lon="3.86238">
        <ele>45</ele>
        <time>2020-09-26T11:34:54.000Z</time>
      </trkpt>
      <trkpt lat="43.65039" lon="3.86233">
        <ele>45</ele>
        <time>2020-09-26T11:34:55.000Z</time>
      </trkpt>
      <trkpt lat="43.65038" lon="3.86228">
        <ele>45</ele>
        <time>2020-09-26T11:34:56.000Z</time>
      </trkpt>
      <trkpt lat="43.65038" lon="3.86223">
        <ele>45</ele>
        <time>2020-09-26T11:34:57.000Z</time>
      </trkpt>
      <trkpt lat="43.65038" lon="3.86218">
        <ele>45</ele>
        <time>2020-09-26T11:34:58.000Z</time>
      </trkpt>
      <trkpt lat="43.65037" lon="3.86213">
        <ele>45.09500032</ele>
        <time>2020-09-26T11:34:59.000Z</time>
      </trkpt>
      <trkpt lat="43.65037" lon="3.86208">
        <ele>45.19500032</ele>
        <time>2020-09-26T11:35:00.000Z</time>
      </trkpt>
      <trkpt lat="43.65036" lon="3.86202">
        <ele>45.29500032</ele>
        <time>2020-09-26T11:35:01.000Z</time>
      </trkpt>
      <trkpt lat="43.65035" lon="3.86197">
        <ele>45.39500032</ele>
        <time>2020-09-26T11:35:02.000Z</time>
      </trkpt>
      <trkpt lat="43.65035" lon="3.86192">
        <ele>45.49500032</ele>
        <time>2020-09-26T11:35:03.000Z</time>
      </trkpt>
      <trkpt lat="43.65034" lon="3.86187">
        <ele>45.59500032</ele>
        <time>2020-09-26T11:35:04.000Z</time>
      </trkpt>
      <trkpt lat="43.65034" lon="3.86182">
        <ele>45.69500032</ele>
        <time>2020-09-26T11:35:05.000Z</time>
      </trkpt>
      <trkpt lat="43.65033" lon="3.86176">
        <ele>45.79500032</ele>
        <time>2020-09-26T11:35:06.000Z</time>
      </trkpt>
      <trkpt lat="43.65033" lon="3.86171">
        <ele>45.89500032</ele>
        <time>2020-09-26T11:35:07.000Z</time>
      </trkpt>
      <trkpt lat="43.65033" lon="3.86166">
        <ele>45.99500032</ele>
        <time>2020-09-26T11:35:08.000Z</time>
      </trkpt>
      <trkpt lat="43.65032" lon="3.86161">
        <ele>46</ele>
        <time>2020-09-26T11:35:09.000Z</time>
      </trkpt>
      <trkpt lat="43.65032" lon="3.86155">
        <ele>46</ele>
        <time>2020-09-26T11:35:10.000Z</time>
      </trkpt>
      <trkpt lat="43.65031" lon="3.8615">
        <ele>46</ele>
        <time>2020-09-26T11:35:11.000Z</time>
      </trkpt>
      <trkpt lat="43.65031" lon="3.86145">
        <ele>46</ele>
        <time>2020-09-26T11:35:12.000Z</time>
      </trkpt>
      <trkpt lat="43.6503" lon="3.8614">
        <ele>46</ele>
        <time>2020-09-26T11:35:13.000Z</time>
      </trkpt>
      <trkpt lat="43.6503" lon="3.86135">
        <ele>46</ele>
        <time>2020-09-26T11:35:14.000Z</time>
      </trkpt>
      <trkpt lat="43.65029" lon="3.86131">
        <ele>46</ele>
        <time>2020-09-26T11:35:15.000Z</time>
      </trkpt>
      <trkpt lat="43.65029" lon="3.86126">
        <ele>46</ele>
        <time>2020-09-26T11:35:16.000Z</time>
      </trkpt>
      <trkpt lat="43.65028" lon="3.86121">
        <ele>46</ele>
        <time>2020-09-26T11:35:17.000Z</time>
      </trkpt>
      <trkpt lat="43.65028" lon="3.86117">
        <ele>46</ele>
        <time>2020-09-26T11:35:18.000Z</time>
      </trkpt>
      <trkpt lat="43.65027" lon="3.86112">
        <ele>46.094093543874</ele>
        <time>2020-09-26T11:35:19.000Z</time>
      </trkpt>
      <trkpt lat="43.65027" lon="3.86108">
        <ele>46.194193740166</ele>
        <time>2020-09-26T11:35:20.000Z</time>
      </trkpt>
      <trkpt lat="43.65026" lon="3.86104">
        <ele>46.294293936459</ele>
        <time>2020-09-26T11:35:21.000Z</time>
      </trkpt>
      <trkpt lat="43.65026" lon="3.86099">
        <ele>46.394394132751</ele>
        <time>2020-09-26T11:35:22.000Z</time>
      </trkpt>
      <trkpt lat="43.65025" lon="3.86095">
        <ele>46.494494329044</ele>
        <time>2020-09-26T11:35:23.000Z</time>
      </trkpt>
      <trkpt lat="43.65025" lon="3.8609">
        <ele>46.594594525336</ele>
        <time>2020-09-26T11:35:24.000Z</time>
      </trkpt>
      <trkpt lat="43.65024" lon="3.86086">
        <ele>46.694694721629</ele>
        <time>2020-09-26T11:35:25.000Z</time>
      </trkpt>
      <trkpt lat="43.65024" lon="3.86081">
        <ele>46.794794917921</ele>
        <time>2020-09-26T11:35:26.000Z</time>
      </trkpt>
      <trkpt lat="43.65024" lon="3.86076">
        <ele>46.894895114213</ele>
        <time>2020-09-26T11:35:27.000Z</time>
      </trkpt>
      <trkpt lat="43.65024" lon="3.86072">
        <ele>46.994995310506</ele>
        <time>2020-09-26T11:35:28.000Z</time>
      </trkpt>
      <trkpt lat="43.65023" lon="3.86067">
        <ele>47.09500032</ele>
        <time>2020-09-26T11:35:29.000Z</time>
      </trkpt>
      <trkpt lat="43.65023" lon="3.86063">
        <ele>47.19500032</ele>
        <time>2020-09-26T11:35:30.000Z</time>
      </trkpt>
      <trkpt lat="43.65022" lon="3.86058">
        <ele>47.29500032</ele>
        <time>2020-09-26T11:35:31.000Z</time>
      </trkpt>
      <trkpt lat="43.65022" lon="3.86054">
        <ele>47.39500032</ele>
        <time>2020-09-26T11:35:32.000Z</time>
      </trkpt>
      <trkpt lat="43.65021" lon="3.8605">
        <ele>47.49500032</ele>
        <time>2020-09-26T11:35:33.000Z</time>
      </trkpt>
      <trkpt lat="43.65021" lon="3.86046">
        <ele>47.59500032</ele>
        <time>2020-09-26T11:35:34.000Z</time>
      </trkpt>
      <trkpt lat="43.6502" lon="3.86041">
        <ele>47.69500032</ele>
        <time>2020-09-26T11:35:35.000Z</time>
      </trkpt>
      <trkpt lat="43.6502" lon="3.86037">
        <ele>47.79500032</ele>
        <time>2020-09-26T11:35:36.000Z</time>
      </trkpt>
      <trkpt lat="43.65019" lon="3.86033">
        <ele>47.89500032</ele>
        <time>2020-09-26T11:35:37.000Z</time>
      </trkpt>
      <trkpt lat="43.65019" lon="3.86029">
        <ele>47.99500032</ele>
        <time>2020-09-26T11:35:38.000Z</time>
      </trkpt>
      <trkpt lat="43.65019" lon="3.86025">
        <ele>48.09500032</ele>
        <time>2020-09-26T11:35:39.000Z</time>
      </trkpt>
      <trkpt lat="43.65018" lon="3.8602">
        <ele>48.19500032</ele>
        <time>2020-09-26T11:35:40.000Z</time>
      </trkpt>
      <trkpt lat="43.65018" lon="3.86016">
        <ele>48.29500032</ele>
        <time>2020-09-26T11:35:41.000Z</time>
      </trkpt>
      <trkpt lat="43.65017" lon="3.86012">
        <ele>48.39500032</ele>
        <time>2020-09-26T11:35:42.000Z</time>
      </trkpt>
      <trkpt lat="43.65017" lon="3.86007">
        <ele>48.49500032</ele>
        <time>2020-09-26T11:35:43.000Z</time>
      </trkpt>
      <trkpt lat="43.65017" lon="3.86003">
        <ele>48.59500032</ele>
        <time>2020-09-26T11:35:44.000Z</time>
      </trkpt>
      <trkpt lat="43.65016" lon="3.85998">
        <ele>48.69500032</ele>
        <time>2020-09-26T11:35:45.000Z</time>
      </trkpt>
      <trkpt lat="43.65016" lon="3.85994">
        <ele>48.79500032</ele>
        <time>2020-09-26T11:35:46.000Z</time>
      </trkpt>
      <trkpt lat="43.65015" lon="3.85989">
        <ele>48.89500032</ele>
        <time>2020-09-26T11:35:47.000Z</time>
      </trkpt>
      <trkpt lat="43.65014" lon="3.85985">
        <ele>48.99500032</ele>
        <time>2020-09-26T11:35:48.000Z</time>
      </trkpt>
      <trkpt lat="43.65014" lon="3.8598">
        <ele>49.19000064</ele>
        <time>2020-09-26T11:35:49.000Z</time>
      </trkpt>
      <trkpt lat="43.65013" lon="3.85976">
        <ele>49.39000064</ele>
        <time>2020-09-26T11:35:50.000Z</time>
      </trkpt>
      <trkpt lat="43.65012" lon="3.85971">
        <ele>49.59000064</ele>
        <time>2020-09-26T11:35:51.000Z</time>
      </trkpt>
      <trkpt lat="43.65012" lon="3.85967">
        <ele>49.79000064</ele>
        <time>2020-09-26T11:35:52.000Z</time>
      </trkpt>
      <trkpt lat="43.65011" lon="3.85963">
        <ele>49.99000064</ele>
        <time>2020-09-26T11:35:53.000Z</time>
      </trkpt>
      <trkpt lat="43.6501" lon="3.85959">
        <ele>50.19000064</ele>
        <time>2020-09-26T11:35:54.000Z</time>
      </trkpt>
      <trkpt lat="43.6501" lon="3.85954">
        <ele>50.39000064</ele>
        <time>2020-09-26T11:35:55.000Z</time>
      </trkpt>
      <trkpt lat="43.65009" lon="3.8595">
        <ele>50.59000064</ele>
        <time>2020-09-26T11:35:56.000Z</time>
      </trkpt>
      <trkpt lat="43.65008" lon="3.85946">
        <ele>50.79000064</ele>
        <time>2020-09-26T11:35:57.000Z</time>
      </trkpt>
      <trkpt lat="43.65007" lon="3.85941">
        <ele>50.99000064</ele>
        <time>2020-09-26T11:35:58.000Z</time>
      </trkpt>
      <trkpt lat="43.65007" lon="3.85937">
        <ele>51.09500032</ele>
        <time>2020-09-26T11:35:59.000Z</time>
      </trkpt>
      <trkpt lat="43.65006" lon="3.85933">
        <ele>51.19500032</ele>
        <time>2020-09-26T11:36:00.000Z</time>
      </trkpt>
      <trkpt lat="43.65005" lon="3.85928">
        <ele>51.29500032</ele>
        <time>2020-09-26T11:36:01.000Z</time>
      </trkpt>
      <trkpt lat="43.65004" lon="3.85924">
        <ele>51.39500032</ele>
        <time>2020-09-26T11:36:02.000Z</time>
      </trkpt>
      <trkpt lat="43.65003" lon="3.85919">
        <ele>51.49500032</ele>
        <time>2020-09-26T11:36:03.000Z</time>
      </trkpt>
      <trkpt lat="43.65002" lon="3.85915">
        <ele>51.59500032</ele>
        <time>2020-09-26T11:36:04.000Z</time>
      </trkpt>
      <trkpt lat="43.65001" lon="3.85911">
        <ele>51.69500032</ele>
        <time>2020-09-26T11:36:05.000Z</time>
      </trkpt>
      <trkpt lat="43.64999" lon="3.85907">
        <ele>51.79500032</ele>
        <time>2020-09-26T11:36:06.000Z</time>
      </trkpt>
      <trkpt lat="43.64998" lon="3.85903">
        <ele>51.89500032</ele>
        <time>2020-09-26T11:36:07.000Z</time>
      </trkpt>
      <trkpt lat="43.64998" lon="3.85899">
        <ele>51.99500032</ele>
        <time>2020-09-26T11:36:08.000Z</time>
      </trkpt>
      <trkpt lat="43.64997" lon="3.85895">
        <ele>52</ele>
        <time>2020-09-26T11:36:09.000Z</time>
      </trkpt>
      <trkpt lat="43.64996" lon="3.85891">
        <ele>52</ele>
        <time>2020-09-26T11:36:10.000Z</time>
      </trkpt>
      <trkpt lat="43.64995" lon="3.85886">
        <ele>52</ele>
        <time>2020-09-26T11:36:11.000Z</time>
      </trkpt>
      <trkpt lat="43.64994" lon="3.85882">
        <ele>52</ele>
        <time>2020-09-26T11:36:12.000Z</time>
      </trkpt>
      <trkpt lat="43.64993" lon="3.85878">
        <ele>52</ele>
        <time>2020-09-26T11:36:13.000Z</time>
      </trkpt>
      <trkpt lat="43.64992" lon="3.85873">
        <ele>52</ele>
        <time>2020-09-26T11:36:14.000Z</time>
      </trkpt>
      <trkpt lat="43.64991" lon="3.85869">
        <ele>52</ele>
        <time>2020-09-26T11:36:15.000Z</time>
      </trkpt>
      <trkpt lat="43.64989" lon="3.85865">
        <ele>52</ele>
        <time>2020-09-26T11:36:16.000Z</time>
      </trkpt>
      <trkpt lat="43.64988" lon="3.85861">
        <ele>52</ele>
        <time>2020-09-26T11:36:17.000Z</time>
      </trkpt>
      <trkpt lat="43.64987" lon="3.85857">
        <ele>52</ele>
        <time>2020-09-26T11:36:18.000Z</time>
      </trkpt>
      <trkpt lat="43.64986" lon="3.85854">
        <ele>52.037194776082</ele>
        <time>2020-09-26T11:36:19.000Z</time>
      </trkpt>
      <trkpt lat="43.64985" lon="3.85851">
        <ele>52.143464593277</ele>
        <time>2020-09-26T11:36:20.000Z</time>
      </trkpt>
      <trkpt lat="43.64984" lon="3.85848">
        <ele>52.249734410473</ele>
        <time>2020-09-26T11:36:21.000Z</time>
      </trkpt>
      <trkpt lat="43.64984" lon="3.85844">
        <ele>52.356004227668</ele>
        <time>2020-09-26T11:36:22.000Z</time>
      </trkpt>
      <trkpt lat="43.64984" lon="3.85841">
        <ele>52.462274044864</ele>
        <time>2020-09-26T11:36:23.000Z</time>
      </trkpt>
      <trkpt lat="43.64983" lon="3.85838">
        <ele>52.568543862059</ele>
        <time>2020-09-26T11:36:24.000Z</time>
      </trkpt>
      <trkpt lat="43.64982" lon="3.85835">
        <ele>52.674813679255</ele>
        <time>2020-09-26T11:36:25.000Z</time>
      </trkpt>
      <trkpt lat="43.64981" lon="3.85831">
        <ele>52.78108349645</ele>
        <time>2020-09-26T11:36:26.000Z</time>
      </trkpt>
      <trkpt lat="43.64981" lon="3.85828">
        <ele>52.887353313646</ele>
        <time>2020-09-26T11:36:27.000Z</time>
      </trkpt>
      <trkpt lat="43.6498" lon="3.85826">
        <ele>52.993623130841</ele>
        <time>2020-09-26T11:36:28.000Z</time>
      </trkpt>
      <trkpt lat="43.64979" lon="3.85823">
        <ele>53</ele>
        <time>2020-09-26T11:36:29.000Z</time>
      </trkpt>
      <trkpt lat="43.64978" lon="3.8582">
        <ele>53</ele>
        <time>2020-09-26T11:36:33.000Z</time>
      </trkpt>
      <trkpt lat="43.64977" lon="3.85819">
        <ele>53</ele>
        <time>2020-09-26T11:36:35.000Z</time>
      </trkpt>
      <trkpt lat="43.64976" lon="3.85814">
        <ele>53</ele>
        <time>2020-09-26T11:36:37.000Z</time>
      </trkpt>
      <trkpt lat="43.64976" lon="3.85812">
        <ele>53</ele>
        <time>2020-09-26T11:36:38.000Z</time>
      </trkpt>
      <trkpt lat="43.64975" lon="3.85809">
        <ele>53.09500032</ele>
        <time>2020-09-26T11:36:39.000Z</time>
      </trkpt>
      <trkpt lat="43.64974" lon="3.85806">
        <ele>53.19500032</ele>
        <time>2020-09-26T11:36:40.000Z</time>
      </trkpt>
      <trkpt lat="43.64974" lon="3.85803">
        <ele>53.29500032</ele>
        <time>2020-09-26T11:36:41.000Z</time>
      </trkpt>
      <trkpt lat="43.64974" lon="3.858">
        <ele>53.39500032</ele>
        <time>2020-09-26T11:36:42.000Z</time>
      </trkpt>
      <trkpt lat="43.64973" lon="3.85797">
        <ele>53.49500032</ele>
        <time>2020-09-26T11:36:43.000Z</time>
      </trkpt>
      <trkpt lat="43.64972" lon="3.85794">
        <ele>53.59500032</ele>
        <time>2020-09-26T11:36:44.000Z</time>
      </trkpt>
      <trkpt lat="43.64971" lon="3.85791">
        <ele>53.69500032</ele>
        <time>2020-09-26T11:36:45.000Z</time>
      </trkpt>
      <trkpt lat="43.6497" lon="3.85788">
        <ele>53.79500032</ele>
        <time>2020-09-26T11:36:46.000Z</time>
      </trkpt>
      <trkpt lat="43.64969" lon="3.85785">
        <ele>53.89500032</ele>
        <time>2020-09-26T11:36:47.000Z</time>
      </trkpt>
      <trkpt lat="43.64968" lon="3.85782">
        <ele>53.99500032</ele>
        <time>2020-09-26T11:36:48.000Z</time>
      </trkpt>
      <trkpt lat="43.64967" lon="3.85778">
        <ele>54.09500032</ele>
        <time>2020-09-26T11:36:49.000Z</time>
      </trkpt>
      <trkpt lat="43.64966" lon="3.85775">
        <ele>54.19500032</ele>
        <time>2020-09-26T11:36:50.000Z</time>
      </trkpt>
      <trkpt lat="43.64965" lon="3.85771">
        <ele>54.29500032</ele>
        <time>2020-09-26T11:36:51.000Z</time>
      </trkpt>
      <trkpt lat="43.64964" lon="3.85767">
        <ele>54.39500032</ele>
        <time>2020-09-26T11:36:52.000Z</time>
      </trkpt>
      <trkpt lat="43.64963" lon="3.85763">
        <ele>54.49500032</ele>
        <time>2020-09-26T11:36:53.000Z</time>
      </trkpt>
      <trkpt lat="43.64962" lon="3.85759">
        <ele>54.59500032</ele>
        <time>2020-09-26T11:36:54.000Z</time>
      </trkpt>
      <trkpt lat="43.6496" lon="3.85755">
        <ele>54.69500032</ele>
        <time>2020-09-26T11:36:55.000Z</time>
      </trkpt>
      <trkpt lat="43.64959" lon="3.85752">
        <ele>54.79500032</ele>
        <time>2020-09-26T11:36:56.000Z</time>
      </trkpt>
      <trkpt lat="43.64958" lon="3.85748">
        <ele>54.89500032</ele>
        <time>2020-09-26T11:36:57.000Z</time>
      </trkpt>
      <trkpt lat="43.64957" lon="3.85743">
        <ele>54.99500032</ele>
        <time>2020-09-26T11:36:58.000Z</time>
      </trkpt>
      <trkpt lat="43.64956" lon="3.85739">
        <ele>55</ele>
        <time>2020-09-26T11:36:59.000Z</time>
      </trkpt>
      <trkpt lat="43.64954" lon="3.85735">
        <ele>55</ele>
        <time>2020-09-26T11:37:00.000Z</time>
      </trkpt>
      <trkpt lat="43.64953" lon="3.85731">
        <ele>55</ele>
        <time>2020-09-26T11:37:01.000Z</time>
      </trkpt>
      <trkpt lat="43.64952" lon="3.85727">
        <ele>55</ele>
        <time>2020-09-26T11:37:02.000Z</time>
      </trkpt>
      <trkpt lat="43.6495" lon="3.85723">
        <ele>55</ele>
        <time>2020-09-26T11:37:03.000Z</time>
      </trkpt>
      <trkpt lat="43.64949" lon="3.85719">
        <ele>55</ele>
        <time>2020-09-26T11:37:04.000Z</time>
      </trkpt>
      <trkpt lat="43.64947" lon="3.85715">
        <ele>55</ele>
        <time>2020-09-26T11:37:05.000Z</time>
      </trkpt>
      <trkpt lat="43.64946" lon="3.85711">
        <ele>55</ele>
        <time>2020-09-26T11:37:06.000Z</time>
      </trkpt>
      <trkpt lat="43.64944" lon="3.85706">
        <ele>55</ele>
        <time>2020-09-26T11:37:07.000Z</time>
      </trkpt>
      <trkpt lat="43.64942" lon="3.85702">
        <ele>55</ele>
        <time>2020-09-26T11:37:08.000Z</time>
      </trkpt>
      <trkpt lat="43.64941" lon="3.85698">
        <ele>55</ele>
        <time>2020-09-26T11:37:09.000Z</time>
      </trkpt>
      <trkpt lat="43.64939" lon="3.85694">
        <ele>55</ele>
        <time>2020-09-26T11:37:10.000Z</time>
      </trkpt>
      <trkpt lat="43.64937" lon="3.8569">
        <ele>55</ele>
        <time>2020-09-26T11:37:11.000Z</time>
      </trkpt>
      <trkpt lat="43.64935" lon="3.85686">
        <ele>55</ele>
        <time>2020-09-26T11:37:12.000Z</time>
      </trkpt>
      <trkpt lat="43.64933" lon="3.85682">
        <ele>55</ele>
        <time>2020-09-26T11:37:13.000Z</time>
      </trkpt>
      <trkpt lat="43.64931" lon="3.85677">
        <ele>55</ele>
        <time>2020-09-26T11:37:14.000Z</time>
      </trkpt>
      <trkpt lat="43.64929" lon="3.85673">
        <ele>55</ele>
        <time>2020-09-26T11:37:15.000Z</time>
      </trkpt>
      <trkpt lat="43.64927" lon="3.85668">
        <ele>55</ele>
        <time>2020-09-26T11:37:16.000Z</time>
      </trkpt>
      <trkpt lat="43.64925" lon="3.85663">
        <ele>55</ele>
        <time>2020-09-26T11:37:17.000Z</time>
      </trkpt>
      <trkpt lat="43.64923" lon="3.85659">
        <ele>55</ele>
        <time>2020-09-26T11:37:18.000Z</time>
      </trkpt>
      <trkpt lat="43.6492" lon="3.85654">
        <ele>55.094905323567</ele>
        <time>2020-09-26T11:37:19.000Z</time>
      </trkpt>
      <trkpt lat="43.64918" lon="3.8565">
        <ele>55.194805327659</ele>
        <time>2020-09-26T11:37:20.000Z</time>
      </trkpt>
      <trkpt lat="43.64915" lon="3.85646">
        <ele>55.294705331751</ele>
        <time>2020-09-26T11:37:21.000Z</time>
      </trkpt>
      <trkpt lat="43.64913" lon="3.85642">
        <ele>55.394605335843</ele>
        <time>2020-09-26T11:37:22.000Z</time>
      </trkpt>
      <trkpt lat="43.64911" lon="3.85638">
        <ele>55.494505339935</ele>
        <time>2020-09-26T11:37:23.000Z</time>
      </trkpt>
      <trkpt lat="43.64908" lon="3.85634">
        <ele>55.594405344027</ele>
        <time>2020-09-26T11:37:24.000Z</time>
      </trkpt>
      <trkpt lat="43.64906" lon="3.85631">
        <ele>55.694305348119</ele>
        <time>2020-09-26T11:37:25.000Z</time>
      </trkpt>
      <trkpt lat="43.64903" lon="3.85627">
        <ele>55.794205352211</ele>
        <time>2020-09-26T11:37:26.000Z</time>
      </trkpt>
      <trkpt lat="43.64901" lon="3.85622">
        <ele>55.894105356303</ele>
        <time>2020-09-26T11:37:27.000Z</time>
      </trkpt>
      <trkpt lat="43.64898" lon="3.85618">
        <ele>55.994005360395</ele>
        <time>2020-09-26T11:37:28.000Z</time>
      </trkpt>
      <trkpt lat="43.64896" lon="3.85613">
        <ele>55.905906456126</ele>
        <time>2020-09-26T11:37:29.000Z</time>
      </trkpt>
      <trkpt lat="43.64893" lon="3.85609">
        <ele>55.805806259834</ele>
        <time>2020-09-26T11:37:30.000Z</time>
      </trkpt>
      <trkpt lat="43.64891" lon="3.85605">
        <ele>55.705706063541</ele>
        <time>2020-09-26T11:37:31.000Z</time>
      </trkpt>
      <trkpt lat="43.64888" lon="3.85601">
        <ele>55.605605867249</ele>
        <time>2020-09-26T11:37:32.000Z</time>
      </trkpt>
      <trkpt lat="43.64885" lon="3.85597">
        <ele>55.505505670956</ele>
        <time>2020-09-26T11:37:33.000Z</time>
      </trkpt>
      <trkpt lat="43.64882" lon="3.85593">
        <ele>55.405405474664</ele>
        <time>2020-09-26T11:37:34.000Z</time>
      </trkpt>
      <trkpt lat="43.64879" lon="3.8559">
        <ele>55.305305278371</ele>
        <time>2020-09-26T11:37:35.000Z</time>
      </trkpt>
      <trkpt lat="43.64876" lon="3.85586">
        <ele>55.205205082079</ele>
        <time>2020-09-26T11:37:36.000Z</time>
      </trkpt>
      <trkpt lat="43.64873" lon="3.85582">
        <ele>55.105104885787</ele>
        <time>2020-09-26T11:37:37.000Z</time>
      </trkpt>
      <trkpt lat="43.6487" lon="3.85578">
        <ele>55.005004689494</ele>
        <time>2020-09-26T11:37:38.000Z</time>
      </trkpt>
      <trkpt lat="43.64868" lon="3.85574">
        <ele>54.907316847781</ele>
        <time>2020-09-26T11:37:39.000Z</time>
      </trkpt>
      <trkpt lat="43.64865" lon="3.8557">
        <ele>54.809755963546</ele>
        <time>2020-09-26T11:37:40.000Z</time>
      </trkpt>
      <trkpt lat="43.64862" lon="3.85566">
        <ele>54.71219507931</ele>
        <time>2020-09-26T11:37:41.000Z</time>
      </trkpt>
      <trkpt lat="43.64859" lon="3.85562">
        <ele>54.614634195074</ele>
        <time>2020-09-26T11:37:42.000Z</time>
      </trkpt>
      <trkpt lat="43.64857" lon="3.85558">
        <ele>54.517073310839</ele>
        <time>2020-09-26T11:37:43.000Z</time>
      </trkpt>
      <trkpt lat="43.64854" lon="3.85555">
        <ele>54.419512426603</ele>
        <time>2020-09-26T11:37:44.000Z</time>
      </trkpt>
      <trkpt lat="43.64851" lon="3.85551">
        <ele>54.321951542367</ele>
        <time>2020-09-26T11:37:45.000Z</time>
      </trkpt>
      <trkpt lat="43.64848" lon="3.85547">
        <ele>54.224390658132</ele>
        <time>2020-09-26T11:37:46.000Z</time>
      </trkpt>
      <trkpt lat="43.64845" lon="3.85545">
        <ele>54.126829773896</ele>
        <time>2020-09-26T11:37:47.000Z</time>
      </trkpt>
      <trkpt lat="43.64841" lon="3.85543">
        <ele>54.02926888966</ele>
        <time>2020-09-26T11:37:48.000Z</time>
      </trkpt>
      <trkpt lat="43.64838" lon="3.8554">
        <ele>54.071794286074</ele>
        <time>2020-09-26T11:37:49.000Z</time>
      </trkpt>
      <trkpt lat="43.64835" lon="3.85537">
        <ele>54.174358489625</ele>
        <time>2020-09-26T11:37:50.000Z</time>
      </trkpt>
      <trkpt lat="43.64832" lon="3.85533">
        <ele>54.276922693175</ele>
        <time>2020-09-26T11:37:51.000Z</time>
      </trkpt>
      <trkpt lat="43.64829" lon="3.8553">
        <ele>54.379486896726</ele>
        <time>2020-09-26T11:37:52.000Z</time>
      </trkpt>
      <trkpt lat="43.64827" lon="3.85527">
        <ele>54.482051100276</ele>
        <time>2020-09-26T11:37:53.000Z</time>
      </trkpt>
      <trkpt lat="43.64824" lon="3.85524">
        <ele>54.584615303826</ele>
        <time>2020-09-26T11:37:54.000Z</time>
      </trkpt>
      <trkpt lat="43.64821" lon="3.85521">
        <ele>54.687179507377</ele>
        <time>2020-09-26T11:37:55.000Z</time>
      </trkpt>
      <trkpt lat="43.64818" lon="3.85519">
        <ele>54.789743710927</ele>
        <time>2020-09-26T11:37:56.000Z</time>
      </trkpt>
      <trkpt lat="43.64815" lon="3.85517">
        <ele>54.892307914477</ele>
        <time>2020-09-26T11:37:57.000Z</time>
      </trkpt>
      <trkpt lat="43.64813" lon="3.85514">
        <ele>54.994872118028</ele>
        <time>2020-09-26T11:37:58.000Z</time>
      </trkpt>
      <trkpt lat="43.6481" lon="3.85512">
        <ele>55.09500032</ele>
        <time>2020-09-26T11:37:59.000Z</time>
      </trkpt>
      <trkpt lat="43.64807" lon="3.8551">
        <ele>55.19500032</ele>
        <time>2020-09-26T11:38:00.000Z</time>
      </trkpt>
      <trkpt lat="43.64805" lon="3.85508">
        <ele>55.29500032</ele>
        <time>2020-09-26T11:38:01.000Z</time>
      </trkpt>
      <trkpt lat="43.64802" lon="3.85506">
        <ele>55.39500032</ele>
        <time>2020-09-26T11:38:02.000Z</time>
      </trkpt>
      <trkpt lat="43.64799" lon="3.85504">
        <ele>55.49500032</ele>
        <time>2020-09-26T11:38:03.000Z</time>
      </trkpt>
      <trkpt lat="43.64797" lon="3.85502">
        <ele>55.59500032</ele>
        <time>2020-09-26T11:38:04.000Z</time>
      </trkpt>
      <trkpt lat="43.64794" lon="3.855">
        <ele>55.69500032</ele>
        <time>2020-09-26T11:38:05.000Z</time>
      </trkpt>
      <trkpt lat="43.64791" lon="3.85498">
        <ele>55.79500032</ele>
        <time>2020-09-26T11:38:06.000Z</time>
      </trkpt>
      <trkpt lat="43.64789" lon="3.85496">
        <ele>55.89500032</ele>
        <time>2020-09-26T11:38:07.000Z</time>
      </trkpt>
      <trkpt lat="43.64786" lon="3.85494">
        <ele>55.99500032</ele>
        <time>2020-09-26T11:38:08.000Z</time>
      </trkpt>
      <trkpt lat="43.64783" lon="3.85492">
        <ele>56.09500032</ele>
        <time>2020-09-26T11:38:09.000Z</time>
      </trkpt>
      <trkpt lat="43.6478" lon="3.85491">
        <ele>56.19500032</ele>
        <time>2020-09-26T11:38:10.000Z</time>
      </trkpt>
      <trkpt lat="43.64777" lon="3.85489">
        <ele>56.29500032</ele>
        <time>2020-09-26T11:38:11.000Z</time>
      </trkpt>
      <trkpt lat="43.64775" lon="3.85487">
        <ele>56.39500032</ele>
        <time>2020-09-26T11:38:12.000Z</time>
      </trkpt>
      <trkpt lat="43.64772" lon="3.85485">
        <ele>56.49500032</ele>
        <time>2020-09-26T11:38:13.000Z</time>
      </trkpt>
      <trkpt lat="43.6477" lon="3.85484">
        <ele>56.59500032</ele>
        <time>2020-09-26T11:38:14.000Z</time>
      </trkpt>
      <trkpt lat="43.64767" lon="3.85482">
        <ele>56.69500032</ele>
        <time>2020-09-26T11:38:15.000Z</time>
      </trkpt>
      <trkpt lat="43.64765" lon="3.85481">
        <ele>56.79500032</ele>
        <time>2020-09-26T11:38:16.000Z</time>
      </trkpt>
      <trkpt lat="43.64762" lon="3.85479">
        <ele>56.89500032</ele>
        <time>2020-09-26T11:38:17.000Z</time>
      </trkpt>
      <trkpt lat="43.64759" lon="3.85478">
        <ele>56.99500032</ele>
        <time>2020-09-26T11:38:18.000Z</time>
      </trkpt>
      <trkpt lat="43.64757" lon="3.85476">
        <ele>57.184287663461</ele>
        <time>2020-09-26T11:38:19.000Z</time>
      </trkpt>
      <trkpt lat="43.64754" lon="3.85475">
        <ele>57.378274024202</ele>
        <time>2020-09-26T11:38:20.000Z</time>
      </trkpt>
      <trkpt lat="43.64751" lon="3.85473">
        <ele>57.572260384943</ele>
        <time>2020-09-26T11:38:21.000Z</time>
      </trkpt>
      <trkpt lat="43.64748" lon="3.85472">
        <ele>57.766246745685</ele>
        <time>2020-09-26T11:38:22.000Z</time>
      </trkpt>
      <trkpt lat="43.64746" lon="3.8547">
        <ele>57.960233106426</ele>
        <time>2020-09-26T11:38:23.000Z</time>
      </trkpt>
      <trkpt lat="43.64743" lon="3.85469">
        <ele>58.154219467168</ele>
        <time>2020-09-26T11:38:24.000Z</time>
      </trkpt>
      <trkpt lat="43.6474" lon="3.85468">
        <ele>58.348205827909</ele>
        <time>2020-09-26T11:38:25.000Z</time>
      </trkpt>
      <trkpt lat="43.64737" lon="3.85467">
        <ele>58.54219218865</ele>
        <time>2020-09-26T11:38:26.000Z</time>
      </trkpt>
      <trkpt lat="43.64734" lon="3.85466">
        <ele>58.736178549392</ele>
        <time>2020-09-26T11:38:27.000Z</time>
      </trkpt>
      <trkpt lat="43.64732" lon="3.85464">
        <ele>58.930164910133</ele>
        <time>2020-09-26T11:38:28.000Z</time>
      </trkpt>
      <trkpt lat="43.64729" lon="3.85463">
        <ele>59.132094986863</ele>
        <time>2020-09-26T11:38:29.000Z</time>
      </trkpt>
      <trkpt lat="43.64726" lon="3.85462">
        <ele>59.338493403837</ele>
        <time>2020-09-26T11:38:30.000Z</time>
      </trkpt>
      <trkpt lat="43.64723" lon="3.85461">
        <ele>59.54489182081</ele>
        <time>2020-09-26T11:38:31.000Z</time>
      </trkpt>
      <trkpt lat="43.6472" lon="3.85459">
        <ele>59.751290237784</ele>
        <time>2020-09-26T11:38:32.000Z</time>
      </trkpt>
      <trkpt lat="43.64717" lon="3.85458">
        <ele>59.957688654758</ele>
        <time>2020-09-26T11:38:33.000Z</time>
      </trkpt>
      <trkpt lat="43.64714" lon="3.85457">
        <ele>60.164087071732</ele>
        <time>2020-09-26T11:38:34.000Z</time>
      </trkpt>
      <trkpt lat="43.64711" lon="3.85456">
        <ele>60.370485488705</ele>
        <time>2020-09-26T11:38:35.000Z</time>
      </trkpt>
      <trkpt lat="43.64708" lon="3.85455">
        <ele>60.576883905679</ele>
        <time>2020-09-26T11:38:36.000Z</time>
      </trkpt>
      <trkpt lat="43.64705" lon="3.85453">
        <ele>60.783282322653</ele>
        <time>2020-09-26T11:38:37.000Z</time>
      </trkpt>
      <trkpt lat="43.64702" lon="3.85452">
        <ele>60.989680739626</ele>
        <time>2020-09-26T11:38:38.000Z</time>
      </trkpt>
      <trkpt lat="43.64699" lon="3.85451">
        <ele>61.09277375</ele>
        <time>2020-09-26T11:38:39.000Z</time>
      </trkpt>
      <trkpt lat="43.64696" lon="3.85449">
        <ele>61.19043</ele>
        <time>2020-09-26T11:38:40.000Z</time>
      </trkpt>
      <trkpt lat="43.64693" lon="3.85448">
        <ele>61.28808625</ele>
        <time>2020-09-26T11:38:41.000Z</time>
      </trkpt>
      <trkpt lat="43.6469" lon="3.85446">
        <ele>61.3857425</ele>
        <time>2020-09-26T11:38:42.000Z</time>
      </trkpt>
      <trkpt lat="43.64686" lon="3.85445">
        <ele>61.48339875</ele>
        <time>2020-09-26T11:38:43.000Z</time>
      </trkpt>
      <trkpt lat="43.64683" lon="3.85444">
        <ele>61.581055</ele>
        <time>2020-09-26T11:38:44.000Z</time>
      </trkpt>
      <trkpt lat="43.6468" lon="3.85442">
        <ele>61.67871125</ele>
        <time>2020-09-26T11:38:45.000Z</time>
      </trkpt>
      <trkpt lat="43.64677" lon="3.8544">
        <ele>61.7763675</ele>
        <time>2020-09-26T11:38:46.000Z</time>
      </trkpt>
      <trkpt lat="43.64673" lon="3.85438">
        <ele>61.87402375</ele>
        <time>2020-09-26T11:38:47.000Z</time>
      </trkpt>
      <trkpt lat="43.6467" lon="3.85437">
        <ele>61.97168</ele>
        <time>2020-09-26T11:38:48.000Z</time>
      </trkpt>
      <trkpt lat="43.64666" lon="3.85435">
        <ele>62.145492459016</ele>
        <time>2020-09-26T11:38:49.000Z</time>
      </trkpt>
      <trkpt lat="43.64662" lon="3.85433">
        <ele>62.350410491803</ele>
        <time>2020-09-26T11:38:50.000Z</time>
      </trkpt>
      <trkpt lat="43.64658" lon="3.85431">
        <ele>62.55532852459</ele>
        <time>2020-09-26T11:38:51.000Z</time>
      </trkpt>
      <trkpt lat="43.64654" lon="3.85428">
        <ele>62.760246557377</ele>
        <time>2020-09-26T11:38:52.000Z</time>
      </trkpt>
      <trkpt lat="43.6465" lon="3.85426">
        <ele>62.965164590164</ele>
        <time>2020-09-26T11:38:53.000Z</time>
      </trkpt>
      <trkpt lat="43.64646" lon="3.85424">
        <ele>63.170082622951</ele>
        <time>2020-09-26T11:38:54.000Z</time>
      </trkpt>
      <trkpt lat="43.64641" lon="3.85422">
        <ele>63.375000655738</ele>
        <time>2020-09-26T11:38:55.000Z</time>
      </trkpt>
      <trkpt lat="43.64637" lon="3.8542">
        <ele>63.579918688525</ele>
        <time>2020-09-26T11:38:56.000Z</time>
      </trkpt>
      <trkpt lat="43.64632" lon="3.85417">
        <ele>63.784836721311</ele>
        <time>2020-09-26T11:38:57.000Z</time>
      </trkpt>
      <trkpt lat="43.64628" lon="3.85415">
        <ele>63.989754754098</ele>
        <time>2020-09-26T11:38:58.000Z</time>
      </trkpt>
      <trkpt lat="43.64623" lon="3.85412">
        <ele>64.189810647135</ele>
        <time>2020-09-26T11:38:59.000Z</time>
      </trkpt>
      <trkpt lat="43.64619" lon="3.8541">
        <ele>64.389610655318</ele>
        <time>2020-09-26T11:39:00.000Z</time>
      </trkpt>
      <trkpt lat="43.64615" lon="3.85407">
        <ele>64.589410663502</ele>
        <time>2020-09-26T11:39:01.000Z</time>
      </trkpt>
      <trkpt lat="43.64611" lon="3.85405">
        <ele>64.789210671686</ele>
        <time>2020-09-26T11:39:02.000Z</time>
      </trkpt>
      <trkpt lat="43.64607" lon="3.85402">
        <ele>64.98901067987</ele>
        <time>2020-09-26T11:39:03.000Z</time>
      </trkpt>
      <trkpt lat="43.64603" lon="3.85399">
        <ele>65.188810688054</ele>
        <time>2020-09-26T11:39:04.000Z</time>
      </trkpt>
      <trkpt lat="43.64599" lon="3.85396">
        <ele>65.388610696238</ele>
        <time>2020-09-26T11:39:05.000Z</time>
      </trkpt>
      <trkpt lat="43.64596" lon="3.85394">
        <ele>65.588410704421</ele>
        <time>2020-09-26T11:39:06.000Z</time>
      </trkpt>
      <trkpt lat="43.64593" lon="3.85391">
        <ele>65.788210712605</ele>
        <time>2020-09-26T11:39:07.000Z</time>
      </trkpt>
      <trkpt lat="43.64589" lon="3.85388">
        <ele>65.988010720789</ele>
        <time>2020-09-26T11:39:08.000Z</time>
      </trkpt>
      <trkpt lat="43.64586" lon="3.85385">
        <ele>66.09399936</ele>
        <time>2020-09-26T11:39:09.000Z</time>
      </trkpt>
      <trkpt lat="43.64583" lon="3.85382">
        <ele>66.19399936</ele>
        <time>2020-09-26T11:39:10.000Z</time>
      </trkpt>
      <trkpt lat="43.6458" lon="3.85379">
        <ele>66.29399936</ele>
        <time>2020-09-26T11:39:11.000Z</time>
      </trkpt>
      <trkpt lat="43.64577" lon="3.85376">
        <ele>66.39399936</ele>
        <time>2020-09-26T11:39:12.000Z</time>
      </trkpt>
      <trkpt lat="43.64575" lon="3.85373">
        <ele>66.49399936</ele>
        <time>2020-09-26T11:39:13.000Z</time>
      </trkpt>
      <trkpt lat="43.64572" lon="3.85371">
        <ele>66.59399936</ele>
        <time>2020-09-26T11:39:14.000Z</time>
      </trkpt>
      <trkpt lat="43.64569" lon="3.85367">
        <ele>66.69399936</ele>
        <time>2020-09-26T11:39:15.000Z</time>
      </trkpt>
      <trkpt lat="43.64566" lon="3.85364">
        <ele>66.79399936</ele>
        <time>2020-09-26T11:39:16.000Z</time>
      </trkpt>
      <trkpt lat="43.64563" lon="3.8536">
        <ele>66.89399936</ele>
        <time>2020-09-26T11:39:17.000Z</time>
      </trkpt>
      <trkpt lat="43.6456" lon="3.85357">
        <ele>66.99399936</ele>
        <time>2020-09-26T11:39:18.000Z</time>
      </trkpt>
      <trkpt lat="43.64558" lon="3.85353">
        <ele>67.091439180002</ele>
        <time>2020-09-26T11:39:19.000Z</time>
      </trkpt>
      <trkpt lat="43.64555" lon="3.85349">
        <ele>67.188715565716</ele>
        <time>2020-09-26T11:39:20.000Z</time>
      </trkpt>
      <trkpt lat="43.64553" lon="3.85345">
        <ele>67.28599195143</ele>
        <time>2020-09-26T11:39:21.000Z</time>
      </trkpt>
      <trkpt lat="43.6455" lon="3.85341">
        <ele>67.383268337143</ele>
        <time>2020-09-26T11:39:22.000Z</time>
      </trkpt>
      <trkpt lat="43.64548" lon="3.85338">
        <ele>67.480544722857</ele>
        <time>2020-09-26T11:39:23.000Z</time>
      </trkpt>
      <trkpt lat="43.64545" lon="3.85334">
        <ele>67.577821108571</ele>
        <time>2020-09-26T11:39:24.000Z</time>
      </trkpt>
      <trkpt lat="43.64543" lon="3.8533">
        <ele>67.675097494285</ele>
        <time>2020-09-26T11:39:25.000Z</time>
      </trkpt>
      <trkpt lat="43.6454" lon="3.85326">
        <ele>67.772373879999</ele>
        <time>2020-09-26T11:39:26.000Z</time>
      </trkpt>
      <trkpt lat="43.64538" lon="3.85321">
        <ele>67.869650265712</ele>
        <time>2020-09-26T11:39:27.000Z</time>
      </trkpt>
      <trkpt lat="43.64535" lon="3.85317">
        <ele>67.966926651426</ele>
        <time>2020-09-26T11:39:28.000Z</time>
      </trkpt>
      <trkpt lat="43.64533" lon="3.85313">
        <ele>68.067971800462</ele>
        <time>2020-09-26T11:39:29.000Z</time>
      </trkpt>
      <trkpt lat="43.6453" lon="3.85309">
        <ele>68.170958378263</ele>
        <time>2020-09-26T11:39:30.000Z</time>
      </trkpt>
      <trkpt lat="43.64528" lon="3.85305">
        <ele>68.273944956064</ele>
        <time>2020-09-26T11:39:31.000Z</time>
      </trkpt>
      <trkpt lat="43.64525" lon="3.85302">
        <ele>68.376931533864</ele>
        <time>2020-09-26T11:39:32.000Z</time>
      </trkpt>
      <trkpt lat="43.64522" lon="3.85298">
        <ele>68.479918111665</ele>
        <time>2020-09-26T11:39:33.000Z</time>
      </trkpt>
      <trkpt lat="43.64519" lon="3.85296">
        <ele>68.582904689465</ele>
        <time>2020-09-26T11:39:34.000Z</time>
      </trkpt>
      <trkpt lat="43.64515" lon="3.85294">
        <ele>68.685891267266</ele>
        <time>2020-09-26T11:39:35.000Z</time>
      </trkpt>
      <trkpt lat="43.64511" lon="3.85294">
        <ele>68.788877845066</ele>
        <time>2020-09-26T11:39:36.000Z</time>
      </trkpt>
      <trkpt lat="43.64507" lon="3.85294">
        <ele>68.891864422867</ele>
        <time>2020-09-26T11:39:37.000Z</time>
      </trkpt>
      <trkpt lat="43.64504" lon="3.85295">
        <ele>68.994851000667</ele>
        <time>2020-09-26T11:39:38.000Z</time>
      </trkpt>
      <trkpt lat="43.645" lon="3.85297">
        <ele>69</ele>
        <time>2020-09-26T11:39:39.000Z</time>
      </trkpt>
      <trkpt lat="43.64497" lon="3.85299">
        <ele>69</ele>
        <time>2020-09-26T11:39:40.000Z</time>
      </trkpt>
      <trkpt lat="43.64493" lon="3.85298">
        <ele>69</ele>
        <time>2020-09-26T11:39:41.000Z</time>
      </trkpt>
      <trkpt lat="43.6449" lon="3.85296">
        <ele>69</ele>
        <time>2020-09-26T11:39:42.000Z</time>
      </trkpt>
      <trkpt lat="43.64487" lon="3.85293">
        <ele>69</ele>
        <time>2020-09-26T11:39:43.000Z</time>
      </trkpt>
      <trkpt lat="43.64485" lon="3.85289">
        <ele>69</ele>
        <time>2020-09-26T11:39:44.000Z</time>
      </trkpt>
      <trkpt lat="43.64483" lon="3.85285">
        <ele>69</ele>
        <time>2020-09-26T11:39:45.000Z</time>
      </trkpt>
      <trkpt lat="43.64482" lon="3.8528">
        <ele>69</ele>
        <time>2020-09-26T11:39:46.000Z</time>
      </trkpt>
      <trkpt lat="43.64483" lon="3.85275">
        <ele>69</ele>
        <time>2020-09-26T11:39:47.000Z</time>
      </trkpt>
      <trkpt lat="43.64483" lon="3.8527">
        <ele>69</ele>
        <time>2020-09-26T11:39:48.000Z</time>
      </trkpt>
      <trkpt lat="43.64483" lon="3.85266">
        <ele>69</ele>
        <time>2020-09-26T11:39:49.000Z</time>
      </trkpt>
      <trkpt lat="43.64482" lon="3.85262">
        <ele>69</ele>
        <time>2020-09-26T11:39:50.000Z</time>
      </trkpt>
      <trkpt lat="43.64481" lon="3.85258">
        <ele>69</ele>
        <time>2020-09-26T11:39:51.000Z</time>
      </trkpt>
      <trkpt lat="43.64481" lon="3.85254">
        <ele>69</ele>
        <time>2020-09-26T11:39:52.000Z</time>
      </trkpt>
      <trkpt lat="43.64481" lon="3.85249">
        <ele>69</ele>
        <time>2020-09-26T11:39:53.000Z</time>
      </trkpt>
      <trkpt lat="43.64481" lon="3.85246">
        <ele>69</ele>
        <time>2020-09-26T11:39:54.000Z</time>
      </trkpt>
      <trkpt lat="43.64481" lon="3.85242">
        <ele>69</ele>
        <time>2020-09-26T11:39:55.000Z</time>
      </trkpt>
      <trkpt lat="43.64481" lon="3.85238">
        <ele>69</ele>
        <time>2020-09-26T11:39:56.000Z</time>
      </trkpt>
      <trkpt lat="43.64481" lon="3.85235">
        <ele>69</ele>
        <time>2020-09-26T11:39:57.000Z</time>
      </trkpt>
      <trkpt lat="43.6448" lon="3.85232">
        <ele>69</ele>
        <time>2020-09-26T11:39:58.000Z</time>
      </trkpt>
      <trkpt lat="43.64479" lon="3.85229">
        <ele>69</ele>
        <time>2020-09-26T11:39:59.000Z</time>
      </trkpt>
      <trkpt lat="43.64477" lon="3.85226">
        <ele>69</ele>
        <time>2020-09-26T11:40:00.000Z</time>
      </trkpt>
      <trkpt lat="43.64476" lon="3.85223">
        <ele>69</ele>
        <time>2020-09-26T11:40:01.000Z</time>
      </trkpt>
      <trkpt lat="43.64475" lon="3.8522">
        <ele>69</ele>
        <time>2020-09-26T11:40:02.000Z</time>
      </trkpt>
      <trkpt lat="43.64474" lon="3.85217">
        <ele>69</ele>
        <time>2020-09-26T11:40:03.000Z</time>
      </trkpt>
      <trkpt lat="43.64473" lon="3.85214">
        <ele>69</ele>
        <time>2020-09-26T11:40:04.000Z</time>
      </trkpt>
      <trkpt lat="43.64471" lon="3.8521">
        <ele>69</ele>
        <time>2020-09-26T11:40:05.000Z</time>
      </trkpt>
      <trkpt lat="43.6447" lon="3.85207">
        <ele>69</ele>
        <time>2020-09-26T11:40:06.000Z</time>
      </trkpt>
      <trkpt lat="43.64469" lon="3.85204">
        <ele>69</ele>
        <time>2020-09-26T11:40:07.000Z</time>
      </trkpt>
      <trkpt lat="43.64468" lon="3.85201">
        <ele>69</ele>
        <time>2020-09-26T11:40:08.000Z</time>
      </trkpt>
      <trkpt lat="43.64466" lon="3.85198">
        <ele>69</ele>
        <time>2020-09-26T11:40:09.000Z</time>
      </trkpt>
      <trkpt lat="43.64465" lon="3.85195">
        <ele>69</ele>
        <time>2020-09-26T11:40:10.000Z</time>
      </trkpt>
      <trkpt lat="43.64464" lon="3.85192">
        <ele>69</ele>
        <time>2020-09-26T11:40:11.000Z</time>
      </trkpt>
      <trkpt lat="43.64462" lon="3.85189">
        <ele>69</ele>
        <time>2020-09-26T11:40:12.000Z</time>
      </trkpt>
      <trkpt lat="43.6446" lon="3.85186">
        <ele>69</ele>
        <time>2020-09-26T11:40:13.000Z</time>
      </trkpt>
      <trkpt lat="43.64458" lon="3.85183">
        <ele>69</ele>
        <time>2020-09-26T11:40:14.000Z</time>
      </trkpt>
      <trkpt lat="43.64456" lon="3.8518">
        <ele>69</ele>
        <time>2020-09-26T11:40:15.000Z</time>
      </trkpt>
      <trkpt lat="43.64454" lon="3.85177">
        <ele>69</ele>
        <time>2020-09-26T11:40:16.000Z</time>
      </trkpt>
      <trkpt lat="43.64452" lon="3.85174">
        <ele>69</ele>
        <time>2020-09-26T11:40:17.000Z</time>
      </trkpt>
      <trkpt lat="43.64451" lon="3.8517">
        <ele>69</ele>
        <time>2020-09-26T11:40:18.000Z</time>
      </trkpt>
      <trkpt lat="43.64449" lon="3.85167">
        <ele>69</ele>
        <time>2020-09-26T11:40:19.000Z</time>
      </trkpt>
      <trkpt lat="43.64448" lon="3.85163">
        <ele>69</ele>
        <time>2020-09-26T11:40:20.000Z</time>
      </trkpt>
      <trkpt lat="43.64446" lon="3.8516">
        <ele>69</ele>
        <time>2020-09-26T11:40:21.000Z</time>
      </trkpt>
      <trkpt lat="43.64444" lon="3.85156">
        <ele>69</ele>
        <time>2020-09-26T11:40:22.000Z</time>
      </trkpt>
      <trkpt lat="43.64442" lon="3.85153">
        <ele>69</ele>
        <time>2020-09-26T11:40:23.000Z</time>
      </trkpt>
      <trkpt lat="43.6444" lon="3.8515">
        <ele>69</ele>
        <time>2020-09-26T11:40:24.000Z</time>
      </trkpt>
      <trkpt lat="43.64438" lon="3.85147">
        <ele>69</ele>
        <time>2020-09-26T11:40:25.000Z</time>
      </trkpt>
      <trkpt lat="43.64436" lon="3.85144">
        <ele>69</ele>
        <time>2020-09-26T11:40:26.000Z</time>
      </trkpt>
      <trkpt lat="43.64434" lon="3.85141">
        <ele>69</ele>
        <time>2020-09-26T11:40:27.000Z</time>
      </trkpt>
      <trkpt lat="43.64432" lon="3.85138">
        <ele>69</ele>
        <time>2020-09-26T11:40:28.000Z</time>
      </trkpt>
      <trkpt lat="43.6443" lon="3.85134">
        <ele>69</ele>
        <time>2020-09-26T11:40:29.000Z</time>
      </trkpt>
      <trkpt lat="43.64428" lon="3.85131">
        <ele>69</ele>
        <time>2020-09-26T11:40:30.000Z</time>
      </trkpt>
      <trkpt lat="43.64426" lon="3.85128">
        <ele>69</ele>
        <time>2020-09-26T11:40:31.000Z</time>
      </trkpt>
      <trkpt lat="43.64424" lon="3.85124">
        <ele>69</ele>
        <time>2020-09-26T11:40:32.000Z</time>
      </trkpt>
      <trkpt lat="43.64422" lon="3.85121">
        <ele>69</ele>
        <time>2020-09-26T11:40:33.000Z</time>
      </trkpt>
      <trkpt lat="43.6442" lon="3.85117">
        <ele>69</ele>
        <time>2020-09-26T11:40:34.000Z</time>
      </trkpt>
      <trkpt lat="43.64418" lon="3.85113">
        <ele>69</ele>
        <time>2020-09-26T11:40:35.000Z</time>
      </trkpt>
      <trkpt lat="43.64416" lon="3.8511">
        <ele>69</ele>
        <time>2020-09-26T11:40:36.000Z</time>
      </trkpt>
      <trkpt lat="43.64414" lon="3.85106">
        <ele>69</ele>
        <time>2020-09-26T11:40:37.000Z</time>
      </trkpt>
      <trkpt lat="43.64412" lon="3.85103">
        <ele>69</ele>
        <time>2020-09-26T11:40:38.000Z</time>
      </trkpt>
      <trkpt lat="43.6441" lon="3.85099">
        <ele>69.09500032</ele>
        <time>2020-09-26T11:40:39.000Z</time>
      </trkpt>
      <trkpt lat="43.64408" lon="3.85095">
        <ele>69.19500032</ele>
        <time>2020-09-26T11:40:40.000Z</time>
      </trkpt>
      <trkpt lat="43.64406" lon="3.85092">
        <ele>69.29500032</ele>
        <time>2020-09-26T11:40:41.000Z</time>
      </trkpt>
      <trkpt lat="43.64404" lon="3.85088">
        <ele>69.39500032</ele>
        <time>2020-09-26T11:40:42.000Z</time>
      </trkpt>
      <trkpt lat="43.64402" lon="3.85085">
        <ele>69.49500032</ele>
        <time>2020-09-26T11:40:43.000Z</time>
      </trkpt>
      <trkpt lat="43.644" lon="3.85081">
        <ele>69.59500032</ele>
        <time>2020-09-26T11:40:44.000Z</time>
      </trkpt>
      <trkpt lat="43.64398" lon="3.85078">
        <ele>69.69500032</ele>
        <time>2020-09-26T11:40:45.000Z</time>
      </trkpt>
      <trkpt lat="43.64396" lon="3.85074">
        <ele>69.79500032</ele>
        <time>2020-09-26T11:40:46.000Z</time>
      </trkpt>
      <trkpt lat="43.64394" lon="3.85071">
        <ele>69.89500032</ele>
        <time>2020-09-26T11:40:47.000Z</time>
      </trkpt>
      <trkpt lat="43.64392" lon="3.85067">
        <ele>69.99500032</ele>
        <time>2020-09-26T11:40:48.000Z</time>
      </trkpt>
      <trkpt lat="43.6439" lon="3.85064">
        <ele>70.19000064</ele>
        <time>2020-09-26T11:40:49.000Z</time>
      </trkpt>
      <trkpt lat="43.64388" lon="3.8506">
        <ele>70.39000064</ele>
        <time>2020-09-26T11:40:50.000Z</time>
      </trkpt>
      <trkpt lat="43.64386" lon="3.85057">
        <ele>70.59000064</ele>
        <time>2020-09-26T11:40:51.000Z</time>
      </trkpt>
      <trkpt lat="43.64384" lon="3.85053">
        <ele>70.79000064</ele>
        <time>2020-09-26T11:40:52.000Z</time>
      </trkpt>
      <trkpt lat="43.64382" lon="3.8505">
        <ele>70.99000064</ele>
        <time>2020-09-26T11:40:53.000Z</time>
      </trkpt>
      <trkpt lat="43.6438" lon="3.85047">
        <ele>71.19000064</ele>
        <time>2020-09-26T11:40:54.000Z</time>
      </trkpt>
      <trkpt lat="43.64378" lon="3.85044">
        <ele>71.39000064</ele>
        <time>2020-09-26T11:40:55.000Z</time>
      </trkpt>
      <trkpt lat="43.64376" lon="3.8504">
        <ele>71.59000064</ele>
        <time>2020-09-26T11:40:56.000Z</time>
      </trkpt>
      <trkpt lat="43.64374" lon="3.85037">
        <ele>71.79000064</ele>
        <time>2020-09-26T11:40:57.000Z</time>
      </trkpt>
      <trkpt lat="43.64372" lon="3.85034">
        <ele>71.99000064</ele>
        <time>2020-09-26T11:40:58.000Z</time>
      </trkpt>
      <trkpt lat="43.64371" lon="3.8503">
        <ele>72.09500032</ele>
        <time>2020-09-26T11:40:59.000Z</time>
      </trkpt>
      <trkpt lat="43.64369" lon="3.85026">
        <ele>72.19500032</ele>
        <time>2020-09-26T11:41:00.000Z</time>
      </trkpt>
      <trkpt lat="43.64367" lon="3.85023">
        <ele>72.29500032</ele>
        <time>2020-09-26T11:41:01.000Z</time>
      </trkpt>
      <trkpt lat="43.64365" lon="3.85019">
        <ele>72.39500032</ele>
        <time>2020-09-26T11:41:02.000Z</time>
      </trkpt>
      <trkpt lat="43.64364" lon="3.85016">
        <ele>72.49500032</ele>
        <time>2020-09-26T11:41:03.000Z</time>
      </trkpt>
      <trkpt lat="43.64362" lon="3.85013">
        <ele>72.59500032</ele>
        <time>2020-09-26T11:41:04.000Z</time>
      </trkpt>
      <trkpt lat="43.6436" lon="3.85009">
        <ele>72.69500032</ele>
        <time>2020-09-26T11:41:05.000Z</time>
      </trkpt>
      <trkpt lat="43.64359" lon="3.85005">
        <ele>72.79500032</ele>
        <time>2020-09-26T11:41:06.000Z</time>
      </trkpt>
      <trkpt lat="43.64357" lon="3.85001">
        <ele>72.89500032</ele>
        <time>2020-09-26T11:41:07.000Z</time>
      </trkpt>
      <trkpt lat="43.64355" lon="3.84998">
        <ele>72.99500032</ele>
        <time>2020-09-26T11:41:08.000Z</time>
      </trkpt>
      <trkpt lat="43.64354" lon="3.84994">
        <ele>73.09500032</ele>
        <time>2020-09-26T11:41:09.000Z</time>
      </trkpt>
      <trkpt lat="43.64352" lon="3.8499">
        <ele>73.19500032</ele>
        <time>2020-09-26T11:41:10.000Z</time>
      </trkpt>
      <trkpt lat="43.6435" lon="3.84987">
        <ele>73.29500032</ele>
        <time>2020-09-26T11:41:11.000Z</time>
      </trkpt>
      <trkpt lat="43.64349" lon="3.84983">
        <ele>73.39500032</ele>
        <time>2020-09-26T11:41:12.000Z</time>
      </trkpt>
      <trkpt lat="43.64347" lon="3.84979">
        <ele>73.49500032</ele>
        <time>2020-09-26T11:41:13.000Z</time>
      </trkpt>
      <trkpt lat="43.64346" lon="3.84976">
        <ele>73.59500032</ele>
        <time>2020-09-26T11:41:14.000Z</time>
      </trkpt>
      <trkpt lat="43.64344" lon="3.84972">
        <ele>73.69500032</ele>
        <time>2020-09-26T11:41:15.000Z</time>
      </trkpt>
      <trkpt lat="43.64343" lon="3.84968">
        <ele>73.79500032</ele>
        <time>2020-09-26T11:41:16.000Z</time>
      </trkpt>
      <trkpt lat="43.64341" lon="3.84965">
        <ele>73.89500032</ele>
        <time>2020-09-26T11:41:17.000Z</time>
      </trkpt>
      <trkpt lat="43.6434" lon="3.84961">
        <ele>73.99500032</ele>
        <time>2020-09-26T11:41:18.000Z</time>
      </trkpt>
      <trkpt lat="43.64338" lon="3.84957">
        <ele>74</ele>
        <time>2020-09-26T11:41:19.000Z</time>
      </trkpt>
      <trkpt lat="43.64336" lon="3.84952">
        <ele>74</ele>
        <time>2020-09-26T11:41:20.000Z</time>
      </trkpt>
      <trkpt lat="43.64334" lon="3.84947">
        <ele>74</ele>
        <time>2020-09-26T11:41:21.000Z</time>
      </trkpt>
      <trkpt lat="43.64332" lon="3.84942">
        <ele>74</ele>
        <time>2020-09-26T11:41:22.000Z</time>
      </trkpt>
      <trkpt lat="43.6433" lon="3.84937">
        <ele>74</ele>
        <time>2020-09-26T11:41:23.000Z</time>
      </trkpt>
      <trkpt lat="43.64328" lon="3.84931">
        <ele>74</ele>
        <time>2020-09-26T11:41:24.000Z</time>
      </trkpt>
      <trkpt lat="43.64325" lon="3.84925">
        <ele>74</ele>
        <time>2020-09-26T11:41:25.000Z</time>
      </trkpt>
      <trkpt lat="43.64323" lon="3.8492">
        <ele>74</ele>
        <time>2020-09-26T11:41:26.000Z</time>
      </trkpt>
      <trkpt lat="43.64321" lon="3.84915">
        <ele>74</ele>
        <time>2020-09-26T11:41:27.000Z</time>
      </trkpt>
      <trkpt lat="43.64319" lon="3.84911">
        <ele>74</ele>
        <time>2020-09-26T11:41:28.000Z</time>
      </trkpt>
      <trkpt lat="43.64317" lon="3.84906">
        <ele>73.905094676433</ele>
        <time>2020-09-26T11:41:29.000Z</time>
      </trkpt>
      <trkpt lat="43.64315" lon="3.84901">
        <ele>73.805194672341</ele>
        <time>2020-09-26T11:41:30.000Z</time>
      </trkpt>
      <trkpt lat="43.64312" lon="3.84896">
        <ele>73.705294668249</ele>
        <time>2020-09-26T11:41:31.000Z</time>
      </trkpt>
      <trkpt lat="43.6431" lon="3.84892">
        <ele>73.605394664157</ele>
        <time>2020-09-26T11:41:32.000Z</time>
      </trkpt>
      <trkpt lat="43.64308" lon="3.84888">
        <ele>73.505494660065</ele>
        <time>2020-09-26T11:41:33.000Z</time>
      </trkpt>
      <trkpt lat="43.64305" lon="3.84883">
        <ele>73.405594655973</ele>
        <time>2020-09-26T11:41:34.000Z</time>
      </trkpt>
      <trkpt lat="43.64303" lon="3.84879">
        <ele>73.305694651881</ele>
        <time>2020-09-26T11:41:35.000Z</time>
      </trkpt>
      <trkpt lat="43.64301" lon="3.84875">
        <ele>73.205794647789</ele>
        <time>2020-09-26T11:41:36.000Z</time>
      </trkpt>
      <trkpt lat="43.64299" lon="3.8487">
        <ele>73.105894643697</ele>
        <time>2020-09-26T11:41:37.000Z</time>
      </trkpt>
      <trkpt lat="43.64296" lon="3.84867">
        <ele>73.005994639606</ele>
        <time>2020-09-26T11:41:38.000Z</time>
      </trkpt>
      <trkpt lat="43.64294" lon="3.84863">
        <ele>72.905906456126</ele>
        <time>2020-09-26T11:41:39.000Z</time>
      </trkpt>
      <trkpt lat="43.64291" lon="3.84859">
        <ele>72.805806259834</ele>
        <time>2020-09-26T11:41:40.000Z</time>
      </trkpt>
      <trkpt lat="43.64289" lon="3.84856">
        <ele>72.705706063541</ele>
        <time>2020-09-26T11:41:41.000Z</time>
      </trkpt>
      <trkpt lat="43.64286" lon="3.84852">
        <ele>72.605605867249</ele>
        <time>2020-09-26T11:41:42.000Z</time>
      </trkpt>
      <trkpt lat="43.64283" lon="3.84848">
        <ele>72.505505670956</ele>
        <time>2020-09-26T11:41:43.000Z</time>
      </trkpt>
      <trkpt lat="43.6428" lon="3.84845">
        <ele>72.405405474664</ele>
        <time>2020-09-26T11:41:44.000Z</time>
      </trkpt>
      <trkpt lat="43.64278" lon="3.84841">
        <ele>72.305305278371</ele>
        <time>2020-09-26T11:41:45.000Z</time>
      </trkpt>
      <trkpt lat="43.64275" lon="3.84838">
        <ele>72.205205082079</ele>
        <time>2020-09-26T11:41:46.000Z</time>
      </trkpt>
      <trkpt lat="43.64272" lon="3.84835">
        <ele>72.105104885787</ele>
        <time>2020-09-26T11:41:47.000Z</time>
      </trkpt>
      <trkpt lat="43.64269" lon="3.84832">
        <ele>72.005004689494</ele>
        <time>2020-09-26T11:41:48.000Z</time>
      </trkpt>
      <trkpt lat="43.64266" lon="3.84829">
        <ele>71.80999936</ele>
        <time>2020-09-26T11:41:49.000Z</time>
      </trkpt>
      <trkpt lat="43.64263" lon="3.84826">
        <ele>71.60999936</ele>
        <time>2020-09-26T11:41:50.000Z</time>
      </trkpt>
      <trkpt lat="43.6426" lon="3.84823">
        <ele>71.40999936</ele>
        <time>2020-09-26T11:41:51.000Z</time>
      </trkpt>
      <trkpt lat="43.64257" lon="3.8482">
        <ele>71.20999936</ele>
        <time>2020-09-26T11:41:52.000Z</time>
      </trkpt>
      <trkpt lat="43.64254" lon="3.84818">
        <ele>71.00999936</ele>
        <time>2020-09-26T11:41:53.000Z</time>
      </trkpt>
      <trkpt lat="43.64251" lon="3.84815">
        <ele>70.80999936</ele>
        <time>2020-09-26T11:41:54.000Z</time>
      </trkpt>
      <trkpt lat="43.64248" lon="3.84812">
        <ele>70.60999936</ele>
        <time>2020-09-26T11:41:55.000Z</time>
      </trkpt>
      <trkpt lat="43.64245" lon="3.8481">
        <ele>70.40999936</ele>
        <time>2020-09-26T11:41:56.000Z</time>
      </trkpt>
      <trkpt lat="43.64242" lon="3.84807">
        <ele>70.20999936</ele>
        <time>2020-09-26T11:41:57.000Z</time>
      </trkpt>
      <trkpt lat="43.64239" lon="3.84804">
        <ele>70.00999936</ele>
        <time>2020-09-26T11:41:58.000Z</time>
      </trkpt>
      <trkpt lat="43.64235" lon="3.84802">
        <ele>69.71499904</ele>
        <time>2020-09-26T11:41:59.000Z</time>
      </trkpt>
      <trkpt lat="43.64232" lon="3.84799">
        <ele>69.41499904</ele>
        <time>2020-09-26T11:42:00.000Z</time>
      </trkpt>
      <trkpt lat="43.64229" lon="3.84796">
        <ele>69.11499904</ele>
        <time>2020-09-26T11:42:01.000Z</time>
      </trkpt>
      <trkpt lat="43.64225" lon="3.84794">
        <ele>68.81499904</ele>
        <time>2020-09-26T11:42:02.000Z</time>
      </trkpt>
      <trkpt lat="43.64222" lon="3.84791">
        <ele>68.51499904</ele>
        <time>2020-09-26T11:42:03.000Z</time>
      </trkpt>
      <trkpt lat="43.64218" lon="3.84789">
        <ele>68.21499904</ele>
        <time>2020-09-26T11:42:04.000Z</time>
      </trkpt>
      <trkpt lat="43.64214" lon="3.84788">
        <ele>67.91499904</ele>
        <time>2020-09-26T11:42:05.000Z</time>
      </trkpt>
      <trkpt lat="43.6421" lon="3.84785">
        <ele>67.61499904</ele>
        <time>2020-09-26T11:42:06.000Z</time>
      </trkpt>
      <trkpt lat="43.64207" lon="3.84784">
        <ele>67.31499904</ele>
        <time>2020-09-26T11:42:07.000Z</time>
      </trkpt>
      <trkpt lat="43.64203" lon="3.84782">
        <ele>67.01499904</ele>
        <time>2020-09-26T11:42:08.000Z</time>
      </trkpt>
      <trkpt lat="43.64199" lon="3.8478">
        <ele>66.80999936</ele>
        <time>2020-09-26T11:42:09.000Z</time>
      </trkpt>
      <trkpt lat="43.64194" lon="3.84779">
        <ele>66.60999936</ele>
        <time>2020-09-26T11:42:10.000Z</time>
      </trkpt>
      <trkpt lat="43.64189" lon="3.84778">
        <ele>66.40999936</ele>
        <time>2020-09-26T11:42:11.000Z</time>
      </trkpt>
      <trkpt lat="43.64184" lon="3.84776">
        <ele>66.20999936</ele>
        <time>2020-09-26T11:42:12.000Z</time>
      </trkpt>
      <trkpt lat="43.64178" lon="3.84776">
        <ele>66.00999936</ele>
        <time>2020-09-26T11:42:13.000Z</time>
      </trkpt>
      <trkpt lat="43.64171" lon="3.84776">
        <ele>65.80999936</ele>
        <time>2020-09-26T11:42:14.000Z</time>
      </trkpt>
      <trkpt lat="43.64165" lon="3.84776">
        <ele>65.60999936</ele>
        <time>2020-09-26T11:42:15.000Z</time>
      </trkpt>
      <trkpt lat="43.64158" lon="3.84776">
        <ele>65.40999936</ele>
        <time>2020-09-26T11:42:16.000Z</time>
      </trkpt>
      <trkpt lat="43.64153" lon="3.84775">
        <ele>65.20999936</ele>
        <time>2020-09-26T11:42:17.000Z</time>
      </trkpt>
      <trkpt lat="43.64147" lon="3.84774">
        <ele>65.00999936</ele>
        <time>2020-09-26T11:42:18.000Z</time>
      </trkpt>
      <trkpt lat="43.64143" lon="3.84774">
        <ele>65</ele>
        <time>2020-09-26T11:42:19.000Z</time>
      </trkpt>
      <trkpt lat="43.64139" lon="3.84774">
        <ele>65</ele>
        <time>2020-09-26T11:42:20.000Z</time>
      </trkpt>
      <trkpt lat="43.64135" lon="3.84774">
        <ele>65</ele>
        <time>2020-09-26T11:42:21.000Z</time>
      </trkpt>
      <trkpt lat="43.64132" lon="3.84774">
        <ele>65</ele>
        <time>2020-09-26T11:42:22.000Z</time>
      </trkpt>
      <trkpt lat="43.64128" lon="3.84774">
        <ele>65</ele>
        <time>2020-09-26T11:42:23.000Z</time>
      </trkpt>
      <trkpt lat="43.64125" lon="3.84774">
        <ele>65</ele>
        <time>2020-09-26T11:42:24.000Z</time>
      </trkpt>
      <trkpt lat="43.64122" lon="3.84774">
        <ele>65</ele>
        <time>2020-09-26T11:42:25.000Z</time>
      </trkpt>
      <trkpt lat="43.64119" lon="3.84774">
        <ele>65</ele>
        <time>2020-09-26T11:42:26.000Z</time>
      </trkpt>
      <trkpt lat="43.64115" lon="3.84773">
        <ele>65</ele>
        <time>2020-09-26T11:42:27.000Z</time>
      </trkpt>
      <trkpt lat="43.64112" lon="3.84771">
        <ele>65</ele>
        <time>2020-09-26T11:42:28.000Z</time>
      </trkpt>
      <trkpt lat="43.64109" lon="3.84772">
        <ele>64.921182290859</ele>
        <time>2020-09-26T11:42:29.000Z</time>
      </trkpt>
      <trkpt lat="43.64106" lon="3.84773">
        <ele>64.822660154432</ele>
        <time>2020-09-26T11:42:30.000Z</time>
      </trkpt>
      <trkpt lat="43.64103" lon="3.84774">
        <ele>64.724138018006</ele>
        <time>2020-09-26T11:42:31.000Z</time>
      </trkpt>
      <trkpt lat="43.641" lon="3.84776">
        <ele>64.625615881579</ele>
        <time>2020-09-26T11:42:32.000Z</time>
      </trkpt>
      <trkpt lat="43.64097" lon="3.84778">
        <ele>64.527093745153</ele>
        <time>2020-09-26T11:42:33.000Z</time>
      </trkpt>
      <trkpt lat="43.64094" lon="3.8478">
        <ele>64.428571608726</ele>
        <time>2020-09-26T11:42:34.000Z</time>
      </trkpt>
      <trkpt lat="43.64091" lon="3.84781">
        <ele>64.3300494723</ele>
        <time>2020-09-26T11:42:35.000Z</time>
      </trkpt>
      <trkpt lat="43.64088" lon="3.84783">
        <ele>64.231527335873</ele>
        <time>2020-09-26T11:42:36.000Z</time>
      </trkpt>
      <trkpt lat="43.64085" lon="3.84785">
        <ele>64.133005199447</ele>
        <time>2020-09-26T11:42:37.000Z</time>
      </trkpt>
      <trkpt lat="43.64082" lon="3.84786">
        <ele>64.03448306302</ele>
        <time>2020-09-26T11:42:38.000Z</time>
      </trkpt>
      <trkpt lat="43.64078" lon="3.84787">
        <ele>63.932989976406</ele>
        <time>2020-09-26T11:42:39.000Z</time>
      </trkpt>
      <trkpt lat="43.64074" lon="3.84788">
        <ele>63.829897124881</ele>
        <time>2020-09-26T11:42:40.000Z</time>
      </trkpt>
      <trkpt lat="43.64071" lon="3.84787">
        <ele>63.726804273355</ele>
        <time>2020-09-26T11:42:41.000Z</time>
      </trkpt>
      <trkpt lat="43.64068" lon="3.84784">
        <ele>63.62371142183</ele>
        <time>2020-09-26T11:42:42.000Z</time>
      </trkpt>
      <trkpt lat="43.64066" lon="3.84781">
        <ele>63.520618570305</ele>
        <time>2020-09-26T11:42:43.000Z</time>
      </trkpt>
      <trkpt lat="43.64064" lon="3.84779">
        <ele>63.41752571878</ele>
        <time>2020-09-26T11:42:44.000Z</time>
      </trkpt>
      <trkpt lat="43.64061" lon="3.84777">
        <ele>63.314432867255</ele>
        <time>2020-09-26T11:42:45.000Z</time>
      </trkpt>
      <trkpt lat="43.64058" lon="3.84775">
        <ele>63.211340015729</ele>
        <time>2020-09-26T11:42:46.000Z</time>
      </trkpt>
      <trkpt lat="43.64055" lon="3.84773">
        <ele>63.108247164204</ele>
        <time>2020-09-26T11:42:47.000Z</time>
      </trkpt>
      <trkpt lat="43.64052" lon="3.84771">
        <ele>63.005154312679</ele>
        <time>2020-09-26T11:42:48.000Z</time>
      </trkpt>
      <trkpt lat="43.64049" lon="3.84768">
        <ele>62.80999936</ele>
        <time>2020-09-26T11:42:49.000Z</time>
      </trkpt>
      <trkpt lat="43.64046" lon="3.84765">
        <ele>62.60999936</ele>
        <time>2020-09-26T11:42:50.000Z</time>
      </trkpt>
      <trkpt lat="43.64043" lon="3.84763">
        <ele>62.40999936</ele>
        <time>2020-09-26T11:42:51.000Z</time>
      </trkpt>
      <trkpt lat="43.64039" lon="3.84762">
        <ele>62.20999936</ele>
        <time>2020-09-26T11:42:52.000Z</time>
      </trkpt>
      <trkpt lat="43.64035" lon="3.84762">
        <ele>62.00999936</ele>
        <time>2020-09-26T11:42:53.000Z</time>
      </trkpt>
      <trkpt lat="43.6403" lon="3.84762">
        <ele>61.80999936</ele>
        <time>2020-09-26T11:42:54.000Z</time>
      </trkpt>
      <trkpt lat="43.64026" lon="3.84762">
        <ele>61.60999936</ele>
        <time>2020-09-26T11:42:55.000Z</time>
      </trkpt>
      <trkpt lat="43.64021" lon="3.84762">
        <ele>61.40999936</ele>
        <time>2020-09-26T11:42:56.000Z</time>
      </trkpt>
      <trkpt lat="43.64016" lon="3.84762">
        <ele>61.20999936</ele>
        <time>2020-09-26T11:42:57.000Z</time>
      </trkpt>
      <trkpt lat="43.64011" lon="3.84762">
        <ele>61.00999936</ele>
        <time>2020-09-26T11:42:58.000Z</time>
      </trkpt>
      <trkpt lat="43.64006" lon="3.84762">
        <ele>60.80999936</ele>
        <time>2020-09-26T11:42:59.000Z</time>
      </trkpt>
      <trkpt lat="43.64001" lon="3.84762">
        <ele>60.60999936</ele>
        <time>2020-09-26T11:43:00.000Z</time>
      </trkpt>
      <trkpt lat="43.63995" lon="3.84762">
        <ele>60.40999936</ele>
        <time>2020-09-26T11:43:01.000Z</time>
      </trkpt>
      <trkpt lat="43.6399" lon="3.84763">
        <ele>60.20999936</ele>
        <time>2020-09-26T11:43:02.000Z</time>
      </trkpt>
      <trkpt lat="43.63984" lon="3.84763">
        <ele>60.00999936</ele>
        <time>2020-09-26T11:43:03.000Z</time>
      </trkpt>
      <trkpt lat="43.63979" lon="3.84762">
        <ele>59.80999936</ele>
        <time>2020-09-26T11:43:04.000Z</time>
      </trkpt>
      <trkpt lat="43.63973" lon="3.84761">
        <ele>59.60999936</ele>
        <time>2020-09-26T11:43:05.000Z</time>
      </trkpt>
      <trkpt lat="43.63968" lon="3.84761">
        <ele>59.40999936</ele>
        <time>2020-09-26T11:43:06.000Z</time>
      </trkpt>
      <trkpt lat="43.63962" lon="3.84761">
        <ele>59.20999936</ele>
        <time>2020-09-26T11:43:07.000Z</time>
      </trkpt>
      <trkpt lat="43.63956" lon="3.84761">
        <ele>59.00999936</ele>
        <time>2020-09-26T11:43:08.000Z</time>
      </trkpt>
      <trkpt lat="43.63951" lon="3.84761">
        <ele>58.90499968</ele>
        <time>2020-09-26T11:43:09.000Z</time>
      </trkpt>
      <trkpt lat="43.63945" lon="3.84761">
        <ele>58.80499968</ele>
        <time>2020-09-26T11:43:10.000Z</time>
      </trkpt>
      <trkpt lat="43.6394" lon="3.84761">
        <ele>58.70499968</ele>
        <time>2020-09-26T11:43:11.000Z</time>
      </trkpt>
      <trkpt lat="43.63934" lon="3.8476">
        <ele>58.60499968</ele>
        <time>2020-09-26T11:43:12.000Z</time>
      </trkpt>
      <trkpt lat="43.63928" lon="3.8476">
        <ele>58.50499968</ele>
        <time>2020-09-26T11:43:13.000Z</time>
      </trkpt>
      <trkpt lat="43.63923" lon="3.8476">
        <ele>58.40499968</ele>
        <time>2020-09-26T11:43:14.000Z</time>
      </trkpt>
      <trkpt lat="43.63917" lon="3.8476">
        <ele>58.30499968</ele>
        <time>2020-09-26T11:43:15.000Z</time>
      </trkpt>
      <trkpt lat="43.63911" lon="3.8476">
        <ele>58.20499968</ele>
        <time>2020-09-26T11:43:16.000Z</time>
      </trkpt>
      <trkpt lat="43.63905" lon="3.8476">
        <ele>58.10499968</ele>
        <time>2020-09-26T11:43:17.000Z</time>
      </trkpt>
      <trkpt lat="43.639" lon="3.8476">
        <ele>58.00499968</ele>
        <time>2020-09-26T11:43:18.000Z</time>
      </trkpt>
      <trkpt lat="43.63894" lon="3.84761">
        <ele>57.90499968</ele>
        <time>2020-09-26T11:43:19.000Z</time>
      </trkpt>
      <trkpt lat="43.63888" lon="3.84762">
        <ele>57.80499968</ele>
        <time>2020-09-26T11:43:20.000Z</time>
      </trkpt>
      <trkpt lat="43.63883" lon="3.84761">
        <ele>57.70499968</ele>
        <time>2020-09-26T11:43:21.000Z</time>
      </trkpt>
      <trkpt lat="43.63878" lon="3.8476">
        <ele>57.60499968</ele>
        <time>2020-09-26T11:43:22.000Z</time>
      </trkpt>
      <trkpt lat="43.63873" lon="3.8476">
        <ele>57.50499968</ele>
        <time>2020-09-26T11:43:23.000Z</time>
      </trkpt>
      <trkpt lat="43.63869" lon="3.84762">
        <ele>57.40499968</ele>
        <time>2020-09-26T11:43:24.000Z</time>
      </trkpt>
      <trkpt lat="43.63864" lon="3.84763">
        <ele>57.30499968</ele>
        <time>2020-09-26T11:43:25.000Z</time>
      </trkpt>
      <trkpt lat="43.6386" lon="3.84764">
        <ele>57.20499968</ele>
        <time>2020-09-26T11:43:26.000Z</time>
      </trkpt>
      <trkpt lat="43.63855" lon="3.84763">
        <ele>57.10499968</ele>
        <time>2020-09-26T11:43:27.000Z</time>
      </trkpt>
      <trkpt lat="43.63851" lon="3.84763">
        <ele>57.00499968</ele>
        <time>2020-09-26T11:43:28.000Z</time>
      </trkpt>
      <trkpt lat="43.63847" lon="3.84761">
        <ele>56.90499968</ele>
        <time>2020-09-26T11:43:29.000Z</time>
      </trkpt>
      <trkpt lat="43.63843" lon="3.84758">
        <ele>56.80499968</ele>
        <time>2020-09-26T11:43:30.000Z</time>
      </trkpt>
      <trkpt lat="43.63841" lon="3.84753">
        <ele>56.70499968</ele>
        <time>2020-09-26T11:43:31.000Z</time>
      </trkpt>
      <trkpt lat="43.63838" lon="3.84748">
        <ele>56.60499968</ele>
        <time>2020-09-26T11:43:32.000Z</time>
      </trkpt>
      <trkpt lat="43.63837" lon="3.84742">
        <ele>56.50499968</ele>
        <time>2020-09-26T11:43:33.000Z</time>
      </trkpt>
      <trkpt lat="43.63837" lon="3.84736">
        <ele>56.40499968</ele>
        <time>2020-09-26T11:43:34.000Z</time>
      </trkpt>
      <trkpt lat="43.63837" lon="3.84731">
        <ele>56.30499968</ele>
        <time>2020-09-26T11:43:35.000Z</time>
      </trkpt>
      <trkpt lat="43.63837" lon="3.84725">
        <ele>56.20499968</ele>
        <time>2020-09-26T11:43:36.000Z</time>
      </trkpt>
      <trkpt lat="43.63837" lon="3.84719">
        <ele>56.10499968</ele>
        <time>2020-09-26T11:43:37.000Z</time>
      </trkpt>
      <trkpt lat="43.63836" lon="3.84714">
        <ele>56.00499968</ele>
        <time>2020-09-26T11:43:38.000Z</time>
      </trkpt>
      <trkpt lat="43.63833" lon="3.8471">
        <ele>55.90499968</ele>
        <time>2020-09-26T11:43:39.000Z</time>
      </trkpt>
      <trkpt lat="43.6383" lon="3.84705">
        <ele>55.80499968</ele>
        <time>2020-09-26T11:43:40.000Z</time>
      </trkpt>
      <trkpt lat="43.63826" lon="3.84699">
        <ele>55.70499968</ele>
        <time>2020-09-26T11:43:41.000Z</time>
      </trkpt>
      <trkpt lat="43.63823" lon="3.84692">
        <ele>55.60499968</ele>
        <time>2020-09-26T11:43:42.000Z</time>
      </trkpt>
      <trkpt lat="43.6382" lon="3.84684">
        <ele>55.50499968</ele>
        <time>2020-09-26T11:43:43.000Z</time>
      </trkpt>
      <trkpt lat="43.63817" lon="3.84676">
        <ele>55.40499968</ele>
        <time>2020-09-26T11:43:44.000Z</time>
      </trkpt>
      <trkpt lat="43.63815" lon="3.84667">
        <ele>55.30499968</ele>
        <time>2020-09-26T11:43:45.000Z</time>
      </trkpt>
      <trkpt lat="43.63812" lon="3.84659">
        <ele>55.20499968</ele>
        <time>2020-09-26T11:43:46.000Z</time>
      </trkpt>
      <trkpt lat="43.6381" lon="3.84652">
        <ele>55.10499968</ele>
        <time>2020-09-26T11:43:47.000Z</time>
      </trkpt>
      <trkpt lat="43.63807" lon="3.84645">
        <ele>55.00499968</ele>
        <time>2020-09-26T11:43:48.000Z</time>
      </trkpt>
      <trkpt lat="43.63805" lon="3.84639">
        <ele>54.90499968</ele>
        <time>2020-09-26T11:43:49.000Z</time>
      </trkpt>
      <trkpt lat="43.63802" lon="3.84634">
        <ele>54.80499968</ele>
        <time>2020-09-26T11:43:50.000Z</time>
      </trkpt>
      <trkpt lat="43.63799" lon="3.84629">
        <ele>54.70499968</ele>
        <time>2020-09-26T11:43:51.000Z</time>
      </trkpt>
      <trkpt lat="43.63796" lon="3.84626">
        <ele>54.60499968</ele>
        <time>2020-09-26T11:43:52.000Z</time>
      </trkpt>
      <trkpt lat="43.63793" lon="3.84623">
        <ele>54.50499968</ele>
        <time>2020-09-26T11:43:53.000Z</time>
      </trkpt>
      <trkpt lat="43.63791" lon="3.84619">
        <ele>54.40499968</ele>
        <time>2020-09-26T11:43:54.000Z</time>
      </trkpt>
      <trkpt lat="43.63788" lon="3.84616">
        <ele>54.30499968</ele>
        <time>2020-09-26T11:43:55.000Z</time>
      </trkpt>
      <trkpt lat="43.63786" lon="3.84613">
        <ele>54.20499968</ele>
        <time>2020-09-26T11:43:56.000Z</time>
      </trkpt>
      <trkpt lat="43.63783" lon="3.84611">
        <ele>54.10499968</ele>
        <time>2020-09-26T11:43:57.000Z</time>
      </trkpt>
      <trkpt lat="43.6378" lon="3.84609">
        <ele>54.00499968</ele>
        <time>2020-09-26T11:43:58.000Z</time>
      </trkpt>
      <trkpt lat="43.63778" lon="3.84606">
        <ele>54</ele>
        <time>2020-09-26T11:43:59.000Z</time>
      </trkpt>
      <trkpt lat="43.63775" lon="3.84603">
        <ele>54</ele>
        <time>2020-09-26T11:44:00.000Z</time>
      </trkpt>
      <trkpt lat="43.63773" lon="3.84601">
        <ele>54</ele>
        <time>2020-09-26T11:44:01.000Z</time>
      </trkpt>
      <trkpt lat="43.6377" lon="3.84598">
        <ele>54</ele>
        <time>2020-09-26T11:44:02.000Z</time>
      </trkpt>
      <trkpt lat="43.63768" lon="3.84596">
        <ele>54</ele>
        <time>2020-09-26T11:44:03.000Z</time>
      </trkpt>
      <trkpt lat="43.63766" lon="3.84593">
        <ele>54</ele>
        <time>2020-09-26T11:44:04.000Z</time>
      </trkpt>
      <trkpt lat="43.63763" lon="3.8459">
        <ele>54</ele>
        <time>2020-09-26T11:44:05.000Z</time>
      </trkpt>
      <trkpt lat="43.63761" lon="3.84588">
        <ele>54</ele>
        <time>2020-09-26T11:44:06.000Z</time>
      </trkpt>
      <trkpt lat="43.63758" lon="3.84586">
        <ele>54</ele>
        <time>2020-09-26T11:44:07.000Z</time>
      </trkpt>
      <trkpt lat="43.63756" lon="3.84583">
        <ele>54</ele>
        <time>2020-09-26T11:44:08.000Z</time>
      </trkpt>
      <trkpt lat="43.63753" lon="3.84581">
        <ele>54</ele>
        <time>2020-09-26T11:44:09.000Z</time>
      </trkpt>
      <trkpt lat="43.63751" lon="3.84579">
        <ele>54</ele>
        <time>2020-09-26T11:44:10.000Z</time>
      </trkpt>
      <trkpt lat="43.63748" lon="3.84577">
        <ele>54</ele>
        <time>2020-09-26T11:44:11.000Z</time>
      </trkpt>
      <trkpt lat="43.63745" lon="3.84575">
        <ele>54</ele>
        <time>2020-09-26T11:44:12.000Z</time>
      </trkpt>
      <trkpt lat="43.63743" lon="3.84573">
        <ele>54</ele>
        <time>2020-09-26T11:44:13.000Z</time>
      </trkpt>
      <trkpt lat="43.6374" lon="3.84569">
        <ele>54</ele>
        <time>2020-09-26T11:44:14.000Z</time>
      </trkpt>
      <trkpt lat="43.63738" lon="3.84566">
        <ele>54</ele>
        <time>2020-09-26T11:44:15.000Z</time>
      </trkpt>
      <trkpt lat="43.63735" lon="3.84563">
        <ele>54</ele>
        <time>2020-09-26T11:44:16.000Z</time>
      </trkpt>
      <trkpt lat="43.63733" lon="3.84561">
        <ele>54</ele>
        <time>2020-09-26T11:44:17.000Z</time>
      </trkpt>
      <trkpt lat="43.6373" lon="3.84559">
        <ele>54</ele>
        <time>2020-09-26T11:44:18.000Z</time>
      </trkpt>
      <trkpt lat="43.63728" lon="3.84556">
        <ele>54.094810638045</ele>
        <time>2020-09-26T11:44:19.000Z</time>
      </trkpt>
      <trkpt lat="43.63726" lon="3.84553">
        <ele>54.194610973502</ele>
        <time>2020-09-26T11:44:20.000Z</time>
      </trkpt>
      <trkpt lat="43.63723" lon="3.84551">
        <ele>54.294411308959</ele>
        <time>2020-09-26T11:44:21.000Z</time>
      </trkpt>
      <trkpt lat="43.63721" lon="3.84548">
        <ele>54.394211644416</ele>
        <time>2020-09-26T11:44:22.000Z</time>
      </trkpt>
      <trkpt lat="43.63718" lon="3.84545">
        <ele>54.494011979873</ele>
        <time>2020-09-26T11:44:23.000Z</time>
      </trkpt>
      <trkpt lat="43.63716" lon="3.84542">
        <ele>54.59381231533</ele>
        <time>2020-09-26T11:44:24.000Z</time>
      </trkpt>
      <trkpt lat="43.63714" lon="3.84539">
        <ele>54.693612650786</ele>
        <time>2020-09-26T11:44:25.000Z</time>
      </trkpt>
      <trkpt lat="43.63711" lon="3.84536">
        <ele>54.793412986243</ele>
        <time>2020-09-26T11:44:26.000Z</time>
      </trkpt>
      <trkpt lat="43.63709" lon="3.84534">
        <ele>54.8932133217</ele>
        <time>2020-09-26T11:44:27.000Z</time>
      </trkpt>
      <trkpt lat="43.63706" lon="3.84533">
        <ele>54.993013657157</ele>
        <time>2020-09-26T11:44:28.000Z</time>
      </trkpt>
      <trkpt lat="43.63702" lon="3.84533">
        <ele>54.906813888137</ele>
        <time>2020-09-26T11:44:29.000Z</time>
      </trkpt>
      <trkpt lat="43.63699" lon="3.84531">
        <ele>54.806613423079</ele>
        <time>2020-09-26T11:44:30.000Z</time>
      </trkpt>
      <trkpt lat="43.63697" lon="3.84529">
        <ele>54.70641295802</ele>
        <time>2020-09-26T11:44:31.000Z</time>
      </trkpt>
      <trkpt lat="43.63695" lon="3.84526">
        <ele>54.606212492962</ele>
        <time>2020-09-26T11:44:32.000Z</time>
      </trkpt>
      <trkpt lat="43.63694" lon="3.84522">
        <ele>54.506012027904</ele>
        <time>2020-09-26T11:44:33.000Z</time>
      </trkpt>
      <trkpt lat="43.63692" lon="3.8452">
        <ele>54.405811562845</ele>
        <time>2020-09-26T11:44:34.000Z</time>
      </trkpt>
      <trkpt lat="43.63689" lon="3.84517">
        <ele>54.305611097787</ele>
        <time>2020-09-26T11:44:35.000Z</time>
      </trkpt>
      <trkpt lat="43.63687" lon="3.84514">
        <ele>54.205410632728</ele>
        <time>2020-09-26T11:44:36.000Z</time>
      </trkpt>
      <trkpt lat="43.63685" lon="3.84512">
        <ele>54.10521016767</ele>
        <time>2020-09-26T11:44:37.000Z</time>
      </trkpt>
      <trkpt lat="43.63683" lon="3.84511">
        <ele>54.005009702611</ele>
        <time>2020-09-26T11:44:38.000Z</time>
      </trkpt>
      <trkpt lat="43.6368" lon="3.84509">
        <ele>54</ele>
        <time>2020-09-26T11:44:39.000Z</time>
      </trkpt>
      <trkpt lat="43.63678" lon="3.84506">
        <ele>54</ele>
        <time>2020-09-26T11:44:40.000Z</time>
      </trkpt>
      <trkpt lat="43.63675" lon="3.84504">
        <ele>54</ele>
        <time>2020-09-26T11:44:41.000Z</time>
      </trkpt>
      <trkpt lat="43.63672" lon="3.84501">
        <ele>54</ele>
        <time>2020-09-26T11:44:42.000Z</time>
      </trkpt>
      <trkpt lat="43.6367" lon="3.84498">
        <ele>54</ele>
        <time>2020-09-26T11:44:43.000Z</time>
      </trkpt>
      <trkpt lat="43.63667" lon="3.84495">
        <ele>54</ele>
        <time>2020-09-26T11:44:44.000Z</time>
      </trkpt>
      <trkpt lat="43.63664" lon="3.84492">
        <ele>54</ele>
        <time>2020-09-26T11:44:45.000Z</time>
      </trkpt>
      <trkpt lat="43.6366" lon="3.8449">
        <ele>54</ele>
        <time>2020-09-26T11:44:46.000Z</time>
      </trkpt>
      <trkpt lat="43.63656" lon="3.84487">
        <ele>54</ele>
        <time>2020-09-26T11:44:47.000Z</time>
      </trkpt>
      <trkpt lat="43.63653" lon="3.84484">
        <ele>54</ele>
        <time>2020-09-26T11:44:48.000Z</time>
      </trkpt>
      <trkpt lat="43.63649" lon="3.84481">
        <ele>53.905378167331</ele>
        <time>2020-09-26T11:44:49.000Z</time>
      </trkpt>
      <trkpt lat="43.63644" lon="3.84479">
        <ele>53.805776573705</ele>
        <time>2020-09-26T11:44:50.000Z</time>
      </trkpt>
      <trkpt lat="43.6364" lon="3.84477">
        <ele>53.70617498008</ele>
        <time>2020-09-26T11:44:51.000Z</time>
      </trkpt>
      <trkpt lat="43.63635" lon="3.84474">
        <ele>53.606573386454</ele>
        <time>2020-09-26T11:44:52.000Z</time>
      </trkpt>
      <trkpt lat="43.6363" lon="3.84472">
        <ele>53.506971792829</ele>
        <time>2020-09-26T11:44:53.000Z</time>
      </trkpt>
      <trkpt lat="43.63625" lon="3.84469">
        <ele>53.407370199203</ele>
        <time>2020-09-26T11:44:54.000Z</time>
      </trkpt>
      <trkpt lat="43.6362" lon="3.84466">
        <ele>53.307768605578</ele>
        <time>2020-09-26T11:44:55.000Z</time>
      </trkpt>
      <trkpt lat="43.63615" lon="3.84463">
        <ele>53.208167011952</ele>
        <time>2020-09-26T11:44:56.000Z</time>
      </trkpt>
      <trkpt lat="43.6361" lon="3.84461">
        <ele>53.108565418327</ele>
        <time>2020-09-26T11:44:57.000Z</time>
      </trkpt>
      <trkpt lat="43.63606" lon="3.84458">
        <ele>53.008963824701</ele>
        <time>2020-09-26T11:44:58.000Z</time>
      </trkpt>
      <trkpt lat="43.63602" lon="3.84455">
        <ele>53</ele>
        <time>2020-09-26T11:44:59.000Z</time>
      </trkpt>
      <trkpt lat="43.63598" lon="3.84452">
        <ele>53</ele>
        <time>2020-09-26T11:45:00.000Z</time>
      </trkpt>
      <trkpt lat="43.63593" lon="3.8445">
        <ele>53</ele>
        <time>2020-09-26T11:45:01.000Z</time>
      </trkpt>
      <trkpt lat="43.63589" lon="3.84448">
        <ele>53</ele>
        <time>2020-09-26T11:45:02.000Z</time>
      </trkpt>
      <trkpt lat="43.63584" lon="3.84445">
        <ele>53</ele>
        <time>2020-09-26T11:45:03.000Z</time>
      </trkpt>
      <trkpt lat="43.6358" lon="3.84444">
        <ele>53</ele>
        <time>2020-09-26T11:45:04.000Z</time>
      </trkpt>
      <trkpt lat="43.63576" lon="3.84442">
        <ele>53</ele>
        <time>2020-09-26T11:45:05.000Z</time>
      </trkpt>
      <trkpt lat="43.63572" lon="3.8444">
        <ele>53</ele>
        <time>2020-09-26T11:45:06.000Z</time>
      </trkpt>
      <trkpt lat="43.63569" lon="3.84438">
        <ele>53</ele>
        <time>2020-09-26T11:45:07.000Z</time>
      </trkpt>
      <trkpt lat="43.63565" lon="3.84436">
        <ele>53</ele>
        <time>2020-09-26T11:45:08.000Z</time>
      </trkpt>
      <trkpt lat="43.63562" lon="3.84434">
        <ele>53</ele>
        <time>2020-09-26T11:45:09.000Z</time>
      </trkpt>
      <trkpt lat="43.63558" lon="3.84433">
        <ele>53</ele>
        <time>2020-09-26T11:45:10.000Z</time>
      </trkpt>
      <trkpt lat="43.63555" lon="3.84431">
        <ele>53</ele>
        <time>2020-09-26T11:45:11.000Z</time>
      </trkpt>
      <trkpt lat="43.63551" lon="3.84429">
        <ele>53</ele>
        <time>2020-09-26T11:45:12.000Z</time>
      </trkpt>
      <trkpt lat="43.63548" lon="3.84427">
        <ele>53</ele>
        <time>2020-09-26T11:45:13.000Z</time>
      </trkpt>
      <trkpt lat="43.63545" lon="3.84425">
        <ele>53</ele>
        <time>2020-09-26T11:45:14.000Z</time>
      </trkpt>
      <trkpt lat="43.63542" lon="3.84423">
        <ele>53</ele>
        <time>2020-09-26T11:45:15.000Z</time>
      </trkpt>
      <trkpt lat="43.63539" lon="3.84421">
        <ele>53</ele>
        <time>2020-09-26T11:45:16.000Z</time>
      </trkpt>
      <trkpt lat="43.63535" lon="3.84419">
        <ele>53</ele>
        <time>2020-09-26T11:45:17.000Z</time>
      </trkpt>
      <trkpt lat="43.63532" lon="3.84418">
        <ele>53</ele>
        <time>2020-09-26T11:45:18.000Z</time>
      </trkpt>
      <trkpt lat="43.63529" lon="3.84416">
        <ele>53</ele>
        <time>2020-09-26T11:45:19.000Z</time>
      </trkpt>
      <trkpt lat="43.63526" lon="3.84415">
        <ele>53</ele>
        <time>2020-09-26T11:45:20.000Z</time>
      </trkpt>
      <trkpt lat="43.63523" lon="3.84414">
        <ele>53</ele>
        <time>2020-09-26T11:45:21.000Z</time>
      </trkpt>
      <trkpt lat="43.6352" lon="3.84413">
        <ele>53</ele>
        <time>2020-09-26T11:45:22.000Z</time>
      </trkpt>
      <trkpt lat="43.63517" lon="3.84412">
        <ele>53</ele>
        <time>2020-09-26T11:45:23.000Z</time>
      </trkpt>
      <trkpt lat="43.63514" lon="3.8441">
        <ele>53</ele>
        <time>2020-09-26T11:45:24.000Z</time>
      </trkpt>
      <trkpt lat="43.63511" lon="3.84408">
        <ele>53</ele>
        <time>2020-09-26T11:45:25.000Z</time>
      </trkpt>
      <trkpt lat="43.63508" lon="3.84406">
        <ele>53</ele>
        <time>2020-09-26T11:45:26.000Z</time>
      </trkpt>
      <trkpt lat="43.63506" lon="3.84404">
        <ele>53</ele>
        <time>2020-09-26T11:45:27.000Z</time>
      </trkpt>
      <trkpt lat="43.63504" lon="3.84403">
        <ele>53</ele>
        <time>2020-09-26T11:45:28.000Z</time>
      </trkpt>
      <trkpt lat="43.63501" lon="3.84404">
        <ele>52.40499968</ele>
        <time>2020-09-26T11:45:34.000Z</time>
      </trkpt>
      <trkpt lat="43.63499" lon="3.84405">
        <ele>52.30499968</ele>
        <time>2020-09-26T11:45:35.000Z</time>
      </trkpt>
      <trkpt lat="43.63497" lon="3.84406">
        <ele>52.20499968</ele>
        <time>2020-09-26T11:45:36.000Z</time>
      </trkpt>
      <trkpt lat="43.63495" lon="3.84408">
        <ele>52.10499968</ele>
        <time>2020-09-26T11:45:37.000Z</time>
      </trkpt>
      <trkpt lat="43.63492" lon="3.84408">
        <ele>52.00499968</ele>
        <time>2020-09-26T11:45:38.000Z</time>
      </trkpt>
      <trkpt lat="43.63489" lon="3.84407">
        <ele>52.092322983035</ele>
        <time>2020-09-26T11:45:39.000Z</time>
      </trkpt>
      <trkpt lat="43.63486" lon="3.84405">
        <ele>52.189504743092</ele>
        <time>2020-09-26T11:45:40.000Z</time>
      </trkpt>
      <trkpt lat="43.63484" lon="3.84402">
        <ele>52.286686503148</ele>
        <time>2020-09-26T11:45:41.000Z</time>
      </trkpt>
      <trkpt lat="43.63482" lon="3.84399">
        <ele>52.383868263205</ele>
        <time>2020-09-26T11:45:42.000Z</time>
      </trkpt>
      <trkpt lat="43.6348" lon="3.84395">
        <ele>52.481050023261</ele>
        <time>2020-09-26T11:45:43.000Z</time>
      </trkpt>
      <trkpt lat="43.63477" lon="3.84393">
        <ele>52.578231783318</ele>
        <time>2020-09-26T11:45:44.000Z</time>
      </trkpt>
      <trkpt lat="43.63474" lon="3.8439">
        <ele>52.675413543375</ele>
        <time>2020-09-26T11:45:45.000Z</time>
      </trkpt>
      <trkpt lat="43.63472" lon="3.84388">
        <ele>52.772595303431</ele>
        <time>2020-09-26T11:45:46.000Z</time>
      </trkpt>
      <trkpt lat="43.63469" lon="3.84386">
        <ele>52.869777063487</ele>
        <time>2020-09-26T11:45:47.000Z</time>
      </trkpt>
      <trkpt lat="43.63466" lon="3.84384">
        <ele>52.966958823544</ele>
        <time>2020-09-26T11:45:48.000Z</time>
      </trkpt>
      <trkpt lat="43.63463" lon="3.84382">
        <ele>53</ele>
        <time>2020-09-26T11:45:49.000Z</time>
      </trkpt>
      <trkpt lat="43.6346" lon="3.84381">
        <ele>53</ele>
        <time>2020-09-26T11:45:50.000Z</time>
      </trkpt>
      <trkpt lat="43.63457" lon="3.84379">
        <ele>53</ele>
        <time>2020-09-26T11:45:51.000Z</time>
      </trkpt>
      <trkpt lat="43.63453" lon="3.84378">
        <ele>53</ele>
        <time>2020-09-26T11:45:52.000Z</time>
      </trkpt>
      <trkpt lat="43.6345" lon="3.84376">
        <ele>53</ele>
        <time>2020-09-26T11:45:53.000Z</time>
      </trkpt>
      <trkpt lat="43.63447" lon="3.84375">
        <ele>53</ele>
        <time>2020-09-26T11:45:54.000Z</time>
      </trkpt>
      <trkpt lat="43.63444" lon="3.84373">
        <ele>53</ele>
        <time>2020-09-26T11:45:55.000Z</time>
      </trkpt>
      <trkpt lat="43.63441" lon="3.84372">
        <ele>53</ele>
        <time>2020-09-26T11:45:56.000Z</time>
      </trkpt>
      <trkpt lat="43.63438" lon="3.8437">
        <ele>53</ele>
        <time>2020-09-26T11:45:57.000Z</time>
      </trkpt>
      <trkpt lat="43.63435" lon="3.84369">
        <ele>53</ele>
        <time>2020-09-26T11:45:58.000Z</time>
      </trkpt>
      <trkpt lat="43.63431" lon="3.84367">
        <ele>53.094093543874</ele>
        <time>2020-09-26T11:45:59.000Z</time>
      </trkpt>
      <trkpt lat="43.63428" lon="3.84366">
        <ele>53.194193740166</ele>
        <time>2020-09-26T11:46:00.000Z</time>
      </trkpt>
      <trkpt lat="43.63425" lon="3.84364">
        <ele>53.294293936459</ele>
        <time>2020-09-26T11:46:01.000Z</time>
      </trkpt>
      <trkpt lat="43.63422" lon="3.84363">
        <ele>53.394394132751</ele>
        <time>2020-09-26T11:46:02.000Z</time>
      </trkpt>
      <trkpt lat="43.63418" lon="3.84362">
        <ele>53.494494329044</ele>
        <time>2020-09-26T11:46:03.000Z</time>
      </trkpt>
      <trkpt lat="43.63415" lon="3.84361">
        <ele>53.594594525336</ele>
        <time>2020-09-26T11:46:04.000Z</time>
      </trkpt>
      <trkpt lat="43.63411" lon="3.8436">
        <ele>53.694694721629</ele>
        <time>2020-09-26T11:46:05.000Z</time>
      </trkpt>
      <trkpt lat="43.63407" lon="3.84358">
        <ele>53.794794917921</ele>
        <time>2020-09-26T11:46:06.000Z</time>
      </trkpt>
      <trkpt lat="43.63404" lon="3.84358">
        <ele>53.894895114213</ele>
        <time>2020-09-26T11:46:07.000Z</time>
      </trkpt>
      <trkpt lat="43.63401" lon="3.84357">
        <ele>53.994995310506</ele>
        <time>2020-09-26T11:46:08.000Z</time>
      </trkpt>
      <trkpt lat="43.63398" lon="3.84355">
        <ele>54</ele>
        <time>2020-09-26T11:46:09.000Z</time>
      </trkpt>
      <trkpt lat="43.63395" lon="3.84354">
        <ele>54</ele>
        <time>2020-09-26T11:46:10.000Z</time>
      </trkpt>
      <trkpt lat="43.63391" lon="3.84353">
        <ele>54</ele>
        <time>2020-09-26T11:46:11.000Z</time>
      </trkpt>
      <trkpt lat="43.63388" lon="3.84353">
        <ele>54</ele>
        <time>2020-09-26T11:46:12.000Z</time>
      </trkpt>
      <trkpt lat="43.63385" lon="3.84352">
        <ele>54</ele>
        <time>2020-09-26T11:46:13.000Z</time>
      </trkpt>
      <trkpt lat="43.63381" lon="3.84352">
        <ele>54</ele>
        <time>2020-09-26T11:46:14.000Z</time>
      </trkpt>
      <trkpt lat="43.63378" lon="3.84351">
        <ele>54</ele>
        <time>2020-09-26T11:46:15.000Z</time>
      </trkpt>
      <trkpt lat="43.63374" lon="3.84351">
        <ele>54</ele>
        <time>2020-09-26T11:46:16.000Z</time>
      </trkpt>
      <trkpt lat="43.63371" lon="3.8435">
        <ele>54</ele>
        <time>2020-09-26T11:46:17.000Z</time>
      </trkpt>
      <trkpt lat="43.63367" lon="3.8435">
        <ele>54</ele>
        <time>2020-09-26T11:46:18.000Z</time>
      </trkpt>
      <trkpt lat="43.63364" lon="3.84349">
        <ele>54</ele>
        <time>2020-09-26T11:46:19.000Z</time>
      </trkpt>
      <trkpt lat="43.6336" lon="3.84348">
        <ele>54</ele>
        <time>2020-09-26T11:46:20.000Z</time>
      </trkpt>
      <trkpt lat="43.63357" lon="3.84348">
        <ele>54</ele>
        <time>2020-09-26T11:46:21.000Z</time>
      </trkpt>
      <trkpt lat="43.63353" lon="3.84347">
        <ele>54</ele>
        <time>2020-09-26T11:46:22.000Z</time>
      </trkpt>
      <trkpt lat="43.6335" lon="3.84346">
        <ele>54</ele>
        <time>2020-09-26T11:46:23.000Z</time>
      </trkpt>
      <trkpt lat="43.63346" lon="3.84345">
        <ele>54</ele>
        <time>2020-09-26T11:46:24.000Z</time>
      </trkpt>
      <trkpt lat="43.63342" lon="3.84344">
        <ele>54</ele>
        <time>2020-09-26T11:46:25.000Z</time>
      </trkpt>
      <trkpt lat="43.63339" lon="3.84343">
        <ele>54</ele>
        <time>2020-09-26T11:46:26.000Z</time>
      </trkpt>
      <trkpt lat="43.63335" lon="3.84342">
        <ele>54</ele>
        <time>2020-09-26T11:46:27.000Z</time>
      </trkpt>
      <trkpt lat="43.6333" lon="3.84341">
        <ele>54</ele>
        <time>2020-09-26T11:46:28.000Z</time>
      </trkpt>
      <trkpt lat="43.63326" lon="3.8434">
        <ele>54</ele>
        <time>2020-09-26T11:46:29.000Z</time>
      </trkpt>
      <trkpt lat="43.63322" lon="3.84339">
        <ele>54</ele>
        <time>2020-09-26T11:46:30.000Z</time>
      </trkpt>
      <trkpt lat="43.63318" lon="3.84338">
        <ele>54</ele>
        <time>2020-09-26T11:46:31.000Z</time>
      </trkpt>
      <trkpt lat="43.63314" lon="3.84336">
        <ele>54</ele>
        <time>2020-09-26T11:46:32.000Z</time>
      </trkpt>
      <trkpt lat="43.6331" lon="3.84335">
        <ele>54</ele>
        <time>2020-09-26T11:46:33.000Z</time>
      </trkpt>
      <trkpt lat="43.63305" lon="3.84333">
        <ele>54</ele>
        <time>2020-09-26T11:46:34.000Z</time>
      </trkpt>
      <trkpt lat="43.63301" lon="3.84332">
        <ele>54</ele>
        <time>2020-09-26T11:46:35.000Z</time>
      </trkpt>
      <trkpt lat="43.63297" lon="3.8433">
        <ele>54</ele>
        <time>2020-09-26T11:46:36.000Z</time>
      </trkpt>
      <trkpt lat="43.63294" lon="3.84329">
        <ele>54</ele>
        <time>2020-09-26T11:46:37.000Z</time>
      </trkpt>
      <trkpt lat="43.6329" lon="3.84328">
        <ele>54</ele>
        <time>2020-09-26T11:46:38.000Z</time>
      </trkpt>
      <trkpt lat="43.63287" lon="3.84326">
        <ele>54.092322983035</ele>
        <time>2020-09-26T11:46:39.000Z</time>
      </trkpt>
      <trkpt lat="43.63283" lon="3.84325">
        <ele>54.189504743092</ele>
        <time>2020-09-26T11:46:40.000Z</time>
      </trkpt>
      <trkpt lat="43.6328" lon="3.84324">
        <ele>54.286686503148</ele>
        <time>2020-09-26T11:46:41.000Z</time>
      </trkpt>
      <trkpt lat="43.63276" lon="3.84323">
        <ele>54.383868263205</ele>
        <time>2020-09-26T11:46:42.000Z</time>
      </trkpt>
      <trkpt lat="43.63273" lon="3.84322">
        <ele>54.481050023261</ele>
        <time>2020-09-26T11:46:43.000Z</time>
      </trkpt>
      <trkpt lat="43.63269" lon="3.84321">
        <ele>54.578231783318</ele>
        <time>2020-09-26T11:46:44.000Z</time>
      </trkpt>
      <trkpt lat="43.63266" lon="3.84319">
        <ele>54.675413543375</ele>
        <time>2020-09-26T11:46:45.000Z</time>
      </trkpt>
      <trkpt lat="43.63262" lon="3.84318">
        <ele>54.772595303431</ele>
        <time>2020-09-26T11:46:46.000Z</time>
      </trkpt>
      <trkpt lat="43.63258" lon="3.84317">
        <ele>54.869777063487</ele>
        <time>2020-09-26T11:46:47.000Z</time>
      </trkpt>
      <trkpt lat="43.63254" lon="3.84315">
        <ele>54.966958823544</ele>
        <time>2020-09-26T11:46:48.000Z</time>
      </trkpt>
      <trkpt lat="43.6325" lon="3.84314">
        <ele>54.932028199538</ele>
        <time>2020-09-26T11:46:49.000Z</time>
      </trkpt>
      <trkpt lat="43.63246" lon="3.84313">
        <ele>54.829041621737</ele>
        <time>2020-09-26T11:46:50.000Z</time>
      </trkpt>
      <trkpt lat="43.63242" lon="3.84312">
        <ele>54.726055043936</ele>
        <time>2020-09-26T11:46:51.000Z</time>
      </trkpt>
      <trkpt lat="43.63238" lon="3.84311">
        <ele>54.623068466136</ele>
        <time>2020-09-26T11:46:52.000Z</time>
      </trkpt>
      <trkpt lat="43.63234" lon="3.8431">
        <ele>54.520081888335</ele>
        <time>2020-09-26T11:46:53.000Z</time>
      </trkpt>
      <trkpt lat="43.6323" lon="3.8431">
        <ele>54.417095310535</ele>
        <time>2020-09-26T11:46:54.000Z</time>
      </trkpt>
      <trkpt lat="43.63227" lon="3.84309">
        <ele>54.314108732735</ele>
        <time>2020-09-26T11:46:55.000Z</time>
      </trkpt>
      <trkpt lat="43.63223" lon="3.84309">
        <ele>54.211122154934</ele>
        <time>2020-09-26T11:46:56.000Z</time>
      </trkpt>
      <trkpt lat="43.63219" lon="3.84309">
        <ele>54.108135577134</ele>
        <time>2020-09-26T11:46:57.000Z</time>
      </trkpt>
      <trkpt lat="43.63215" lon="3.84309">
        <ele>54.005148999333</ele>
        <time>2020-09-26T11:46:58.000Z</time>
      </trkpt>
      <trkpt lat="43.63212" lon="3.84308">
        <ele>54</ele>
        <time>2020-09-26T11:46:59.000Z</time>
      </trkpt>
      <trkpt lat="43.63208" lon="3.84308">
        <ele>54</ele>
        <time>2020-09-26T11:47:00.000Z</time>
      </trkpt>
      <trkpt lat="43.63204" lon="3.84308">
        <ele>54</ele>
        <time>2020-09-26T11:47:01.000Z</time>
      </trkpt>
      <trkpt lat="43.632" lon="3.84308">
        <ele>54</ele>
        <time>2020-09-26T11:47:02.000Z</time>
      </trkpt>
      <trkpt lat="43.63196" lon="3.84309">
        <ele>54</ele>
        <time>2020-09-26T11:47:03.000Z</time>
      </trkpt>
      <trkpt lat="43.63193" lon="3.84309">
        <ele>54</ele>
        <time>2020-09-26T11:47:04.000Z</time>
      </trkpt>
      <trkpt lat="43.63188" lon="3.84309">
        <ele>54</ele>
        <time>2020-09-26T11:47:05.000Z</time>
      </trkpt>
      <trkpt lat="43.63184" lon="3.8431">
        <ele>54</ele>
        <time>2020-09-26T11:47:06.000Z</time>
      </trkpt>
      <trkpt lat="43.63179" lon="3.8431">
        <ele>54</ele>
        <time>2020-09-26T11:47:07.000Z</time>
      </trkpt>
      <trkpt lat="43.63175" lon="3.84311">
        <ele>54</ele>
        <time>2020-09-26T11:47:08.000Z</time>
      </trkpt>
      <trkpt lat="43.6317" lon="3.84311">
        <ele>54.09500032</ele>
        <time>2020-09-26T11:47:09.000Z</time>
      </trkpt>
      <trkpt lat="43.63166" lon="3.84312">
        <ele>54.19500032</ele>
        <time>2020-09-26T11:47:10.000Z</time>
      </trkpt>
      <trkpt lat="43.63162" lon="3.84312">
        <ele>54.29500032</ele>
        <time>2020-09-26T11:47:11.000Z</time>
      </trkpt>
      <trkpt lat="43.63157" lon="3.84313">
        <ele>54.39500032</ele>
        <time>2020-09-26T11:47:12.000Z</time>
      </trkpt>
      <trkpt lat="43.63153" lon="3.84313">
        <ele>54.49500032</ele>
        <time>2020-09-26T11:47:13.000Z</time>
      </trkpt>
      <trkpt lat="43.63149" lon="3.84314">
        <ele>54.59500032</ele>
        <time>2020-09-26T11:47:14.000Z</time>
      </trkpt>
      <trkpt lat="43.63145" lon="3.84315">
        <ele>54.69500032</ele>
        <time>2020-09-26T11:47:15.000Z</time>
      </trkpt>
      <trkpt lat="43.63141" lon="3.84315">
        <ele>54.79500032</ele>
        <time>2020-09-26T11:47:16.000Z</time>
      </trkpt>
      <trkpt lat="43.63137" lon="3.84316">
        <ele>54.89500032</ele>
        <time>2020-09-26T11:47:17.000Z</time>
      </trkpt>
      <trkpt lat="43.63133" lon="3.84316">
        <ele>54.99500032</ele>
        <time>2020-09-26T11:47:18.000Z</time>
      </trkpt>
      <trkpt lat="43.63129" lon="3.84317">
        <ele>55</ele>
        <time>2020-09-26T11:47:19.000Z</time>
      </trkpt>
      <trkpt lat="43.63125" lon="3.84318">
        <ele>55</ele>
        <time>2020-09-26T11:47:20.000Z</time>
      </trkpt>
      <trkpt lat="43.63122" lon="3.84319">
        <ele>55</ele>
        <time>2020-09-26T11:47:21.000Z</time>
      </trkpt>
      <trkpt lat="43.63118" lon="3.84319">
        <ele>55</ele>
        <time>2020-09-26T11:47:22.000Z</time>
      </trkpt>
      <trkpt lat="43.63114" lon="3.8432">
        <ele>55</ele>
        <time>2020-09-26T11:47:23.000Z</time>
      </trkpt>
      <trkpt lat="43.6311" lon="3.8432">
        <ele>55</ele>
        <time>2020-09-26T11:47:24.000Z</time>
      </trkpt>
      <trkpt lat="43.63106" lon="3.84321">
        <ele>55</ele>
        <time>2020-09-26T11:47:25.000Z</time>
      </trkpt>
      <trkpt lat="43.63102" lon="3.84322">
        <ele>55</ele>
        <time>2020-09-26T11:47:26.000Z</time>
      </trkpt>
      <trkpt lat="43.63099" lon="3.84322">
        <ele>55</ele>
        <time>2020-09-26T11:47:27.000Z</time>
      </trkpt>
      <trkpt lat="43.63095" lon="3.84322">
        <ele>55</ele>
        <time>2020-09-26T11:47:28.000Z</time>
      </trkpt>
      <trkpt lat="43.63092" lon="3.84322">
        <ele>55</ele>
        <time>2020-09-26T11:47:29.000Z</time>
      </trkpt>
      <trkpt lat="43.63089" lon="3.84321">
        <ele>55</ele>
        <time>2020-09-26T11:47:30.000Z</time>
      </trkpt>
      <trkpt lat="43.63085" lon="3.84321">
        <ele>55</ele>
        <time>2020-09-26T11:47:31.000Z</time>
      </trkpt>
      <trkpt lat="43.63082" lon="3.8432">
        <ele>55</ele>
        <time>2020-09-26T11:47:32.000Z</time>
      </trkpt>
      <trkpt lat="43.63079" lon="3.84318">
        <ele>55</ele>
        <time>2020-09-26T11:47:33.000Z</time>
      </trkpt>
      <trkpt lat="43.63077" lon="3.84317">
        <ele>55</ele>
        <time>2020-09-26T11:47:34.000Z</time>
      </trkpt>
      <trkpt lat="43.63074" lon="3.84315">
        <ele>55</ele>
        <time>2020-09-26T11:47:35.000Z</time>
      </trkpt>
      <trkpt lat="43.63071" lon="3.84312">
        <ele>55</ele>
        <time>2020-09-26T11:47:36.000Z</time>
      </trkpt>
      <trkpt lat="43.63068" lon="3.8431">
        <ele>55</ele>
        <time>2020-09-26T11:47:37.000Z</time>
      </trkpt>
      <trkpt lat="43.63065" lon="3.84307">
        <ele>55</ele>
        <time>2020-09-26T11:47:38.000Z</time>
      </trkpt>
      <trkpt lat="43.63063" lon="3.84305">
        <ele>55</ele>
        <time>2020-09-26T11:47:39.000Z</time>
      </trkpt>
      <trkpt lat="43.63061" lon="3.84302">
        <ele>55</ele>
        <time>2020-09-26T11:47:40.000Z</time>
      </trkpt>
      <trkpt lat="43.63059" lon="3.843">
        <ele>55</ele>
        <time>2020-09-26T11:47:41.000Z</time>
      </trkpt>
      <trkpt lat="43.63057" lon="3.84296">
        <ele>55</ele>
        <time>2020-09-26T11:47:42.000Z</time>
      </trkpt>
      <trkpt lat="43.63055" lon="3.84293">
        <ele>55</ele>
        <time>2020-09-26T11:47:43.000Z</time>
      </trkpt>
      <trkpt lat="43.63053" lon="3.84289">
        <ele>55</ele>
        <time>2020-09-26T11:47:44.000Z</time>
      </trkpt>
      <trkpt lat="43.63051" lon="3.84286">
        <ele>55</ele>
        <time>2020-09-26T11:47:45.000Z</time>
      </trkpt>
      <trkpt lat="43.63049" lon="3.84282">
        <ele>55</ele>
        <time>2020-09-26T11:47:46.000Z</time>
      </trkpt>
      <trkpt lat="43.63048" lon="3.84278">
        <ele>55</ele>
        <time>2020-09-26T11:47:47.000Z</time>
      </trkpt>
      <trkpt lat="43.63046" lon="3.84273">
        <ele>55</ele>
        <time>2020-09-26T11:47:48.000Z</time>
      </trkpt>
      <trkpt lat="43.63044" lon="3.84269">
        <ele>55</ele>
        <time>2020-09-26T11:47:49.000Z</time>
      </trkpt>
      <trkpt lat="43.63043" lon="3.84264">
        <ele>55</ele>
        <time>2020-09-26T11:47:50.000Z</time>
      </trkpt>
      <trkpt lat="43.63041" lon="3.84259">
        <ele>55</ele>
        <time>2020-09-26T11:47:51.000Z</time>
      </trkpt>
      <trkpt lat="43.6304" lon="3.84255">
        <ele>55</ele>
        <time>2020-09-26T11:47:52.000Z</time>
      </trkpt>
      <trkpt lat="43.63039" lon="3.8425">
        <ele>55</ele>
        <time>2020-09-26T11:47:53.000Z</time>
      </trkpt>
      <trkpt lat="43.63039" lon="3.84245">
        <ele>55</ele>
        <time>2020-09-26T11:47:54.000Z</time>
      </trkpt>
      <trkpt lat="43.63038" lon="3.84241">
        <ele>55</ele>
        <time>2020-09-26T11:47:55.000Z</time>
      </trkpt>
      <trkpt lat="43.63037" lon="3.84236">
        <ele>55</ele>
        <time>2020-09-26T11:47:56.000Z</time>
      </trkpt>
      <trkpt lat="43.63037" lon="3.84232">
        <ele>55</ele>
        <time>2020-09-26T11:47:57.000Z</time>
      </trkpt>
      <trkpt lat="43.63036" lon="3.84228">
        <ele>55</ele>
        <time>2020-09-26T11:47:58.000Z</time>
      </trkpt>
      <trkpt lat="43.63035" lon="3.84224">
        <ele>55.094810638045</ele>
        <time>2020-09-26T11:47:59.000Z</time>
      </trkpt>
      <trkpt lat="43.63034" lon="3.8422">
        <ele>55.194610973502</ele>
        <time>2020-09-26T11:48:00.000Z</time>
      </trkpt>
      <trkpt lat="43.63033" lon="3.84216">
        <ele>55.294411308959</ele>
        <time>2020-09-26T11:48:01.000Z</time>
      </trkpt>
      <trkpt lat="43.63033" lon="3.84213">
        <ele>55.394211644416</ele>
        <time>2020-09-26T11:48:02.000Z</time>
      </trkpt>
      <trkpt lat="43.63032" lon="3.84211">
        <ele>55.494011979873</ele>
        <time>2020-09-26T11:48:03.000Z</time>
      </trkpt>
      <trkpt lat="43.63031" lon="3.84208">
        <ele>55.59381231533</ele>
        <time>2020-09-26T11:48:04.000Z</time>
      </trkpt>
      <trkpt lat="43.63032" lon="3.84204">
        <ele>55.793412986243</ele>
        <time>2020-09-26T11:48:06.000Z</time>
      </trkpt>
      <trkpt lat="43.63033" lon="3.84201">
        <ele>55.8932133217</ele>
        <time>2020-09-26T11:48:07.000Z</time>
      </trkpt>
      <trkpt lat="43.63034" lon="3.84196">
        <ele>55.993013657157</ele>
        <time>2020-09-26T11:48:08.000Z</time>
      </trkpt>
      <trkpt lat="43.63035" lon="3.84191">
        <ele>55.906813888137</ele>
        <time>2020-09-26T11:48:09.000Z</time>
      </trkpt>
      <trkpt lat="43.63036" lon="3.84186">
        <ele>55.806613423079</ele>
        <time>2020-09-26T11:48:10.000Z</time>
      </trkpt>
      <trkpt lat="43.63036" lon="3.84181">
        <ele>55.70641295802</ele>
        <time>2020-09-26T11:48:11.000Z</time>
      </trkpt>
      <trkpt lat="43.63034" lon="3.84176">
        <ele>55.606212492962</ele>
        <time>2020-09-26T11:48:12.000Z</time>
      </trkpt>
      <trkpt lat="43.63032" lon="3.84173">
        <ele>55.506012027904</ele>
        <time>2020-09-26T11:48:13.000Z</time>
      </trkpt>
      <trkpt lat="43.63028" lon="3.8417">
        <ele>55.405811562845</ele>
        <time>2020-09-26T11:48:14.000Z</time>
      </trkpt>
      <trkpt lat="43.63024" lon="3.84168">
        <ele>55.305611097787</ele>
        <time>2020-09-26T11:48:15.000Z</time>
      </trkpt>
      <trkpt lat="43.63019" lon="3.84167">
        <ele>55.205410632728</ele>
        <time>2020-09-26T11:48:16.000Z</time>
      </trkpt>
      <trkpt lat="43.63015" lon="3.84166">
        <ele>55.10521016767</ele>
        <time>2020-09-26T11:48:17.000Z</time>
      </trkpt>
      <trkpt lat="43.6301" lon="3.84165">
        <ele>55.005009702611</ele>
        <time>2020-09-26T11:48:18.000Z</time>
      </trkpt>
      <trkpt lat="43.63006" lon="3.84163">
        <ele>54.90499968</ele>
        <time>2020-09-26T11:48:19.000Z</time>
      </trkpt>
      <trkpt lat="43.63001" lon="3.84162">
        <ele>54.80499968</ele>
        <time>2020-09-26T11:48:20.000Z</time>
      </trkpt>
      <trkpt lat="43.62997" lon="3.84161">
        <ele>54.70499968</ele>
        <time>2020-09-26T11:48:21.000Z</time>
      </trkpt>
      <trkpt lat="43.62992" lon="3.84161">
        <ele>54.60499968</ele>
        <time>2020-09-26T11:48:22.000Z</time>
      </trkpt>
      <trkpt lat="43.62988" lon="3.84161">
        <ele>54.50499968</ele>
        <time>2020-09-26T11:48:23.000Z</time>
      </trkpt>
      <trkpt lat="43.62984" lon="3.8416">
        <ele>54.40499968</ele>
        <time>2020-09-26T11:48:24.000Z</time>
      </trkpt>
      <trkpt lat="43.62979" lon="3.84159">
        <ele>54.30499968</ele>
        <time>2020-09-26T11:48:25.000Z</time>
      </trkpt>
      <trkpt lat="43.62975" lon="3.84159">
        <ele>54.20499968</ele>
        <time>2020-09-26T11:48:26.000Z</time>
      </trkpt>
      <trkpt lat="43.6297" lon="3.84158">
        <ele>54.10499968</ele>
        <time>2020-09-26T11:48:27.000Z</time>
      </trkpt>
      <trkpt lat="43.62966" lon="3.84156">
        <ele>54.00499968</ele>
        <time>2020-09-26T11:48:28.000Z</time>
      </trkpt>
      <trkpt lat="43.62961" lon="3.84155">
        <ele>54</ele>
        <time>2020-09-26T11:48:29.000Z</time>
      </trkpt>
      <trkpt lat="43.62957" lon="3.84154">
        <ele>54</ele>
        <time>2020-09-26T11:48:30.000Z</time>
      </trkpt>
      <trkpt lat="43.62953" lon="3.84152">
        <ele>54</ele>
        <time>2020-09-26T11:48:31.000Z</time>
      </trkpt>
      <trkpt lat="43.62948" lon="3.84151">
        <ele>54</ele>
        <time>2020-09-26T11:48:32.000Z</time>
      </trkpt>
      <trkpt lat="43.62944" lon="3.8415">
        <ele>54</ele>
        <time>2020-09-26T11:48:33.000Z</time>
      </trkpt>
      <trkpt lat="43.6294" lon="3.84148">
        <ele>54</ele>
        <time>2020-09-26T11:48:34.000Z</time>
      </trkpt>
      <trkpt lat="43.62937" lon="3.84146">
        <ele>54</ele>
        <time>2020-09-26T11:48:35.000Z</time>
      </trkpt>
      <trkpt lat="43.62933" lon="3.84145">
        <ele>54</ele>
        <time>2020-09-26T11:48:36.000Z</time>
      </trkpt>
      <trkpt lat="43.6293" lon="3.84143">
        <ele>54</ele>
        <time>2020-09-26T11:48:37.000Z</time>
      </trkpt>
      <trkpt lat="43.62927" lon="3.84142">
        <ele>54</ele>
        <time>2020-09-26T11:48:38.000Z</time>
      </trkpt>
      <trkpt lat="43.62924" lon="3.8414">
        <ele>54</ele>
        <time>2020-09-26T11:48:39.000Z</time>
      </trkpt>
      <trkpt lat="43.6292" lon="3.84139">
        <ele>54</ele>
        <time>2020-09-26T11:48:40.000Z</time>
      </trkpt>
      <trkpt lat="43.62917" lon="3.84137">
        <ele>54</ele>
        <time>2020-09-26T11:48:41.000Z</time>
      </trkpt>
      <trkpt lat="43.62913" lon="3.84135">
        <ele>54</ele>
        <time>2020-09-26T11:48:42.000Z</time>
      </trkpt>
      <trkpt lat="43.62909" lon="3.84132">
        <ele>54</ele>
        <time>2020-09-26T11:48:43.000Z</time>
      </trkpt>
      <trkpt lat="43.62906" lon="3.8413">
        <ele>54</ele>
        <time>2020-09-26T11:48:44.000Z</time>
      </trkpt>
      <trkpt lat="43.62902" lon="3.84127">
        <ele>54</ele>
        <time>2020-09-26T11:48:45.000Z</time>
      </trkpt>
      <trkpt lat="43.62898" lon="3.84125">
        <ele>54</ele>
        <time>2020-09-26T11:48:46.000Z</time>
      </trkpt>
      <trkpt lat="43.62894" lon="3.84122">
        <ele>54</ele>
        <time>2020-09-26T11:48:47.000Z</time>
      </trkpt>
      <trkpt lat="43.62891" lon="3.84119">
        <ele>54</ele>
        <time>2020-09-26T11:48:48.000Z</time>
      </trkpt>
      <trkpt lat="43.62887" lon="3.84116">
        <ele>54.06600064</ele>
        <time>2020-09-26T11:48:49.000Z</time>
      </trkpt>
      <trkpt lat="43.62884" lon="3.84113">
        <ele>54.16600064</ele>
        <time>2020-09-26T11:48:50.000Z</time>
      </trkpt>
      <trkpt lat="43.6288" lon="3.8411">
        <ele>54.26600064</ele>
        <time>2020-09-26T11:48:51.000Z</time>
      </trkpt>
      <trkpt lat="43.62877" lon="3.84107">
        <ele>54.36600064</ele>
        <time>2020-09-26T11:48:52.000Z</time>
      </trkpt>
      <trkpt lat="43.62873" lon="3.84104">
        <ele>54.46600064</ele>
        <time>2020-09-26T11:48:53.000Z</time>
      </trkpt>
      <trkpt lat="43.62869" lon="3.84101">
        <ele>54.56600064</ele>
        <time>2020-09-26T11:48:54.000Z</time>
      </trkpt>
      <trkpt lat="43.62866" lon="3.84098">
        <ele>54.66600064</ele>
        <time>2020-09-26T11:48:55.000Z</time>
      </trkpt>
      <trkpt lat="43.62862" lon="3.84095">
        <ele>54.76600064</ele>
        <time>2020-09-26T11:48:56.000Z</time>
      </trkpt>
      <trkpt lat="43.62859" lon="3.84091">
        <ele>54.86600064</ele>
        <time>2020-09-26T11:48:57.000Z</time>
      </trkpt>
      <trkpt lat="43.62855" lon="3.84088">
        <ele>54.96600064</ele>
        <time>2020-09-26T11:48:58.000Z</time>
      </trkpt>
      <trkpt lat="43.62852" lon="3.84085">
        <ele>55</ele>
        <time>2020-09-26T11:48:59.000Z</time>
      </trkpt>
      <trkpt lat="43.62848" lon="3.84082">
        <ele>55</ele>
        <time>2020-09-26T11:49:00.000Z</time>
      </trkpt>
      <trkpt lat="43.62844" lon="3.84079">
        <ele>55</ele>
        <time>2020-09-26T11:49:01.000Z</time>
      </trkpt>
      <trkpt lat="43.62841" lon="3.84075">
        <ele>55</ele>
        <time>2020-09-26T11:49:02.000Z</time>
      </trkpt>
      <trkpt lat="43.62837" lon="3.84072">
        <ele>55</ele>
        <time>2020-09-26T11:49:03.000Z</time>
      </trkpt>
      <trkpt lat="43.62834" lon="3.84068">
        <ele>55</ele>
        <time>2020-09-26T11:49:04.000Z</time>
      </trkpt>
      <trkpt lat="43.6283" lon="3.84065">
        <ele>55</ele>
        <time>2020-09-26T11:49:05.000Z</time>
      </trkpt>
      <trkpt lat="43.62827" lon="3.84061">
        <ele>55</ele>
        <time>2020-09-26T11:49:06.000Z</time>
      </trkpt>
      <trkpt lat="43.62824" lon="3.84058">
        <ele>55</ele>
        <time>2020-09-26T11:49:07.000Z</time>
      </trkpt>
      <trkpt lat="43.6282" lon="3.84054">
        <ele>55</ele>
        <time>2020-09-26T11:49:08.000Z</time>
      </trkpt>
      <trkpt lat="43.62817" lon="3.84051">
        <ele>55.09500032</ele>
        <time>2020-09-26T11:49:09.000Z</time>
      </trkpt>
      <trkpt lat="43.62813" lon="3.84047">
        <ele>55.19500032</ele>
        <time>2020-09-26T11:49:10.000Z</time>
      </trkpt>
      <trkpt lat="43.6281" lon="3.84043">
        <ele>55.29500032</ele>
        <time>2020-09-26T11:49:11.000Z</time>
      </trkpt>
      <trkpt lat="43.62806" lon="3.84039">
        <ele>55.39500032</ele>
        <time>2020-09-26T11:49:12.000Z</time>
      </trkpt>
      <trkpt lat="43.62803" lon="3.84036">
        <ele>55.49500032</ele>
        <time>2020-09-26T11:49:13.000Z</time>
      </trkpt>
      <trkpt lat="43.628" lon="3.84032">
        <ele>55.59500032</ele>
        <time>2020-09-26T11:49:14.000Z</time>
      </trkpt>
      <trkpt lat="43.62797" lon="3.84028">
        <ele>55.69500032</ele>
        <time>2020-09-26T11:49:15.000Z</time>
      </trkpt>
      <trkpt lat="43.62793" lon="3.84025">
        <ele>55.79500032</ele>
        <time>2020-09-26T11:49:16.000Z</time>
      </trkpt>
      <trkpt lat="43.6279" lon="3.84021">
        <ele>55.89500032</ele>
        <time>2020-09-26T11:49:17.000Z</time>
      </trkpt>
      <trkpt lat="43.62787" lon="3.84018">
        <ele>55.99500032</ele>
        <time>2020-09-26T11:49:18.000Z</time>
      </trkpt>
      <trkpt lat="43.62784" lon="3.84014">
        <ele>56.09500032</ele>
        <time>2020-09-26T11:49:19.000Z</time>
      </trkpt>
      <trkpt lat="43.62782" lon="3.84011">
        <ele>56.19500032</ele>
        <time>2020-09-26T11:49:20.000Z</time>
      </trkpt>
      <trkpt lat="43.62779" lon="3.84008">
        <ele>56.29500032</ele>
        <time>2020-09-26T11:49:21.000Z</time>
      </trkpt>
      <trkpt lat="43.62776" lon="3.84005">
        <ele>56.39500032</ele>
        <time>2020-09-26T11:49:22.000Z</time>
      </trkpt>
      <trkpt lat="43.62774" lon="3.84002">
        <ele>56.49500032</ele>
        <time>2020-09-26T11:49:23.000Z</time>
      </trkpt>
      <trkpt lat="43.62771" lon="3.83998">
        <ele>56.59500032</ele>
        <time>2020-09-26T11:49:24.000Z</time>
      </trkpt>
      <trkpt lat="43.62769" lon="3.83995">
        <ele>56.69500032</ele>
        <time>2020-09-26T11:49:25.000Z</time>
      </trkpt>
      <trkpt lat="43.62767" lon="3.8399">
        <ele>56.79500032</ele>
        <time>2020-09-26T11:49:26.000Z</time>
      </trkpt>
      <trkpt lat="43.62767" lon="3.83986">
        <ele>56.89500032</ele>
        <time>2020-09-26T11:49:27.000Z</time>
      </trkpt>
      <trkpt lat="43.62766" lon="3.83981">
        <ele>56.99500032</ele>
        <time>2020-09-26T11:49:28.000Z</time>
      </trkpt>
      <trkpt lat="43.62764" lon="3.83978">
        <ele>57.19000064</ele>
        <time>2020-09-26T11:49:29.000Z</time>
      </trkpt>
      <trkpt lat="43.62762" lon="3.83975">
        <ele>57.39000064</ele>
        <time>2020-09-26T11:49:30.000Z</time>
      </trkpt>
      <trkpt lat="43.62761" lon="3.83972">
        <ele>57.59000064</ele>
        <time>2020-09-26T11:49:31.000Z</time>
      </trkpt>
      <trkpt lat="43.62759" lon="3.83969">
        <ele>57.79000064</ele>
        <time>2020-09-26T11:49:32.000Z</time>
      </trkpt>
      <trkpt lat="43.62757" lon="3.83966">
        <ele>57.99000064</ele>
        <time>2020-09-26T11:49:33.000Z</time>
      </trkpt>
      <trkpt lat="43.62756" lon="3.83962">
        <ele>58.19000064</ele>
        <time>2020-09-26T11:49:34.000Z</time>
      </trkpt>
      <trkpt lat="43.62754" lon="3.83959">
        <ele>58.39000064</ele>
        <time>2020-09-26T11:49:35.000Z</time>
      </trkpt>
      <trkpt lat="43.62752" lon="3.83956">
        <ele>58.59000064</ele>
        <time>2020-09-26T11:49:36.000Z</time>
      </trkpt>
      <trkpt lat="43.6275" lon="3.83953">
        <ele>58.79000064</ele>
        <time>2020-09-26T11:49:37.000Z</time>
      </trkpt>
      <trkpt lat="43.62748" lon="3.8395">
        <ele>58.99000064</ele>
        <time>2020-09-26T11:49:38.000Z</time>
      </trkpt>
      <trkpt lat="43.62745" lon="3.83948">
        <ele>59.094810638045</ele>
        <time>2020-09-26T11:49:39.000Z</time>
      </trkpt>
      <trkpt lat="43.62742" lon="3.83946">
        <ele>59.194610973502</ele>
        <time>2020-09-26T11:49:40.000Z</time>
      </trkpt>
      <trkpt lat="43.62739" lon="3.83943">
        <ele>59.294411308959</ele>
        <time>2020-09-26T11:49:41.000Z</time>
      </trkpt>
      <trkpt lat="43.62737" lon="3.8394">
        <ele>59.394211644416</ele>
        <time>2020-09-26T11:49:42.000Z</time>
      </trkpt>
      <trkpt lat="43.62735" lon="3.83936">
        <ele>59.494011979873</ele>
        <time>2020-09-26T11:49:43.000Z</time>
      </trkpt>
      <trkpt lat="43.62732" lon="3.83933">
        <ele>59.59381231533</ele>
        <time>2020-09-26T11:49:44.000Z</time>
      </trkpt>
      <trkpt lat="43.6273" lon="3.83929">
        <ele>59.693612650786</ele>
        <time>2020-09-26T11:49:45.000Z</time>
      </trkpt>
      <trkpt lat="43.62727" lon="3.83925">
        <ele>59.793412986243</ele>
        <time>2020-09-26T11:49:46.000Z</time>
      </trkpt>
      <trkpt lat="43.62725" lon="3.83922">
        <ele>59.8932133217</ele>
        <time>2020-09-26T11:49:47.000Z</time>
      </trkpt>
      <trkpt lat="43.62722" lon="3.83918">
        <ele>59.993013657157</ele>
        <time>2020-09-26T11:49:48.000Z</time>
      </trkpt>
      <trkpt lat="43.6272" lon="3.83914">
        <ele>60.093186111863</ele>
        <time>2020-09-26T11:49:49.000Z</time>
      </trkpt>
      <trkpt lat="43.62718" lon="3.83909">
        <ele>60.193386576921</ele>
        <time>2020-09-26T11:49:50.000Z</time>
      </trkpt>
      <trkpt lat="43.62716" lon="3.83905">
        <ele>60.29358704198</ele>
        <time>2020-09-26T11:49:51.000Z</time>
      </trkpt>
      <trkpt lat="43.62713" lon="3.83901">
        <ele>60.393787507038</ele>
        <time>2020-09-26T11:49:52.000Z</time>
      </trkpt>
      <trkpt lat="43.62711" lon="3.83896">
        <ele>60.493987972096</ele>
        <time>2020-09-26T11:49:53.000Z</time>
      </trkpt>
      <trkpt lat="43.62709" lon="3.83892">
        <ele>60.594188437155</ele>
        <time>2020-09-26T11:49:54.000Z</time>
      </trkpt>
      <trkpt lat="43.62707" lon="3.83888">
        <ele>60.694388902213</ele>
        <time>2020-09-26T11:49:55.000Z</time>
      </trkpt>
      <trkpt lat="43.62705" lon="3.83885">
        <ele>60.794589367272</ele>
        <time>2020-09-26T11:49:56.000Z</time>
      </trkpt>
      <trkpt lat="43.62703" lon="3.83881">
        <ele>60.89478983233</ele>
        <time>2020-09-26T11:49:57.000Z</time>
      </trkpt>
      <trkpt lat="43.62701" lon="3.83877">
        <ele>60.994990297389</ele>
        <time>2020-09-26T11:49:58.000Z</time>
      </trkpt>
      <trkpt lat="43.627" lon="3.83873">
        <ele>61.09500032</ele>
        <time>2020-09-26T11:49:59.000Z</time>
      </trkpt>
      <trkpt lat="43.62698" lon="3.8387">
        <ele>61.19500032</ele>
        <time>2020-09-26T11:50:00.000Z</time>
      </trkpt>
      <trkpt lat="43.62697" lon="3.83866">
        <ele>61.29500032</ele>
        <time>2020-09-26T11:50:01.000Z</time>
      </trkpt>
      <trkpt lat="43.62696" lon="3.83863">
        <ele>61.39500032</ele>
        <time>2020-09-26T11:50:02.000Z</time>
      </trkpt>
      <trkpt lat="43.62694" lon="3.8386">
        <ele>61.49500032</ele>
        <time>2020-09-26T11:50:03.000Z</time>
      </trkpt>
      <trkpt lat="43.62693" lon="3.83856">
        <ele>61.59500032</ele>
        <time>2020-09-26T11:50:04.000Z</time>
      </trkpt>
      <trkpt lat="43.62692" lon="3.83853">
        <ele>61.69500032</ele>
        <time>2020-09-26T11:50:05.000Z</time>
      </trkpt>
      <trkpt lat="43.6269" lon="3.8385">
        <ele>61.79500032</ele>
        <time>2020-09-26T11:50:06.000Z</time>
      </trkpt>
      <trkpt lat="43.62689" lon="3.83847">
        <ele>61.89500032</ele>
        <time>2020-09-26T11:50:07.000Z</time>
      </trkpt>
      <trkpt lat="43.62688" lon="3.83844">
        <ele>61.99500032</ele>
        <time>2020-09-26T11:50:08.000Z</time>
      </trkpt>
      <trkpt lat="43.62686" lon="3.83841">
        <ele>62.09500032</ele>
        <time>2020-09-26T11:50:09.000Z</time>
      </trkpt>
      <trkpt lat="43.62685" lon="3.83838">
        <ele>62.19500032</ele>
        <time>2020-09-26T11:50:10.000Z</time>
      </trkpt>
      <trkpt lat="43.62683" lon="3.83836">
        <ele>62.29500032</ele>
        <time>2020-09-26T11:50:11.000Z</time>
      </trkpt>
      <trkpt lat="43.62682" lon="3.83833">
        <ele>62.39500032</ele>
        <time>2020-09-26T11:50:12.000Z</time>
      </trkpt>
      <trkpt lat="43.62681" lon="3.83831">
        <ele>62.49500032</ele>
        <time>2020-09-26T11:50:13.000Z</time>
      </trkpt>
      <trkpt lat="43.62679" lon="3.83828">
        <ele>62.59500032</ele>
        <time>2020-09-26T11:50:14.000Z</time>
      </trkpt>
      <trkpt lat="43.62678" lon="3.83826">
        <ele>62.69500032</ele>
        <time>2020-09-26T11:50:15.000Z</time>
      </trkpt>
      <trkpt lat="43.62677" lon="3.83823">
        <ele>62.79500032</ele>
        <time>2020-09-26T11:50:16.000Z</time>
      </trkpt>
      <trkpt lat="43.62676" lon="3.83821">
        <ele>62.89500032</ele>
        <time>2020-09-26T11:50:17.000Z</time>
      </trkpt>
      <trkpt lat="43.62674" lon="3.83818">
        <ele>62.99500032</ele>
        <time>2020-09-26T11:50:18.000Z</time>
      </trkpt>
      <trkpt lat="43.62673" lon="3.83815">
        <ele>63.19000064</ele>
        <time>2020-09-26T11:50:19.000Z</time>
      </trkpt>
      <trkpt lat="43.62672" lon="3.83813">
        <ele>63.39000064</ele>
        <time>2020-09-26T11:50:20.000Z</time>
      </trkpt>
      <trkpt lat="43.62671" lon="3.8381">
        <ele>63.59000064</ele>
        <time>2020-09-26T11:50:21.000Z</time>
      </trkpt>
      <trkpt lat="43.6267" lon="3.83807">
        <ele>63.79000064</ele>
        <time>2020-09-26T11:50:22.000Z</time>
      </trkpt>
      <trkpt lat="43.6267" lon="3.83804">
        <ele>63.99000064</ele>
        <time>2020-09-26T11:50:23.000Z</time>
      </trkpt>
      <trkpt lat="43.62669" lon="3.83802">
        <ele>64.19000064</ele>
        <time>2020-09-26T11:50:24.000Z</time>
      </trkpt>
      <trkpt lat="43.62668" lon="3.838">
        <ele>64.39000064</ele>
        <time>2020-09-26T11:50:25.000Z</time>
      </trkpt>
      <trkpt lat="43.62665" lon="3.83796">
        <ele>64.79000064</ele>
        <time>2020-09-26T11:50:27.000Z</time>
      </trkpt>
      <trkpt lat="43.62662" lon="3.83794">
        <ele>65.093596344876</ele>
        <time>2020-09-26T11:50:29.000Z</time>
      </trkpt>
      <trkpt lat="43.6266" lon="3.83792">
        <ele>65.192118481303</ele>
        <time>2020-09-26T11:50:30.000Z</time>
      </trkpt>
      <trkpt lat="43.62659" lon="3.8379">
        <ele>65.290640617729</ele>
        <time>2020-09-26T11:50:31.000Z</time>
      </trkpt>
      <trkpt lat="43.62657" lon="3.83789">
        <ele>65.389162754156</ele>
        <time>2020-09-26T11:50:32.000Z</time>
      </trkpt>
      <trkpt lat="43.62655" lon="3.83787">
        <ele>65.487684890582</ele>
        <time>2020-09-26T11:50:33.000Z</time>
      </trkpt>
      <trkpt lat="43.62654" lon="3.83784">
        <ele>65.586207027009</ele>
        <time>2020-09-26T11:50:34.000Z</time>
      </trkpt>
      <trkpt lat="43.62652" lon="3.83782">
        <ele>65.684729163435</ele>
        <time>2020-09-26T11:50:35.000Z</time>
      </trkpt>
      <trkpt lat="43.62651" lon="3.83779">
        <ele>65.783251299862</ele>
        <time>2020-09-26T11:50:36.000Z</time>
      </trkpt>
      <trkpt lat="43.62649" lon="3.83777">
        <ele>65.881773436288</ele>
        <time>2020-09-26T11:50:37.000Z</time>
      </trkpt>
      <trkpt lat="43.62648" lon="3.83775">
        <ele>65.980295572715</ele>
        <time>2020-09-26T11:50:38.000Z</time>
      </trkpt>
      <trkpt lat="43.62646" lon="3.83772">
        <ele>66.162271699945</ele>
        <time>2020-09-26T11:50:39.000Z</time>
      </trkpt>
      <trkpt lat="43.62645" lon="3.8377">
        <ele>66.365111324877</ele>
        <time>2020-09-26T11:50:40.000Z</time>
      </trkpt>
      <trkpt lat="43.62643" lon="3.83767">
        <ele>66.567950949809</ele>
        <time>2020-09-26T11:50:41.000Z</time>
      </trkpt>
      <trkpt lat="43.62641" lon="3.83765">
        <ele>66.77079057474</ele>
        <time>2020-09-26T11:50:42.000Z</time>
      </trkpt>
      <trkpt lat="43.62639" lon="3.83763">
        <ele>66.973630199672</ele>
        <time>2020-09-26T11:50:43.000Z</time>
      </trkpt>
      <trkpt lat="43.62638" lon="3.83761">
        <ele>67.176469824604</ele>
        <time>2020-09-26T11:50:44.000Z</time>
      </trkpt>
      <trkpt lat="43.62636" lon="3.83758">
        <ele>67.379309449535</ele>
        <time>2020-09-26T11:50:45.000Z</time>
      </trkpt>
      <trkpt lat="43.62634" lon="3.83756">
        <ele>67.582149074467</ele>
        <time>2020-09-26T11:50:46.000Z</time>
      </trkpt>
      <trkpt lat="43.62632" lon="3.83753">
        <ele>67.784988699399</ele>
        <time>2020-09-26T11:50:47.000Z</time>
      </trkpt>
      <trkpt lat="43.6263" lon="3.83751">
        <ele>67.98782832433</ele>
        <time>2020-09-26T11:50:48.000Z</time>
      </trkpt>
      <trkpt lat="43.62628" lon="3.83748">
        <ele>68.188187087747</ele>
        <time>2020-09-26T11:50:49.000Z</time>
      </trkpt>
      <trkpt lat="43.62627" lon="3.83746">
        <ele>68.388387480332</ele>
        <time>2020-09-26T11:50:50.000Z</time>
      </trkpt>
      <trkpt lat="43.62625" lon="3.83744">
        <ele>68.588587872917</ele>
        <time>2020-09-26T11:50:51.000Z</time>
      </trkpt>
      <trkpt lat="43.62623" lon="3.83741">
        <ele>68.788788265502</ele>
        <time>2020-09-26T11:50:52.000Z</time>
      </trkpt>
      <trkpt lat="43.62621" lon="3.83739">
        <ele>68.988988658087</ele>
        <time>2020-09-26T11:50:53.000Z</time>
      </trkpt>
      <trkpt lat="43.6262" lon="3.83737">
        <ele>69.189189050672</ele>
        <time>2020-09-26T11:50:54.000Z</time>
      </trkpt>
      <trkpt lat="43.62618" lon="3.83734">
        <ele>69.389389443257</ele>
        <time>2020-09-26T11:50:55.000Z</time>
      </trkpt>
      <trkpt lat="43.62616" lon="3.83732">
        <ele>69.589589835842</ele>
        <time>2020-09-26T11:50:56.000Z</time>
      </trkpt>
      <trkpt lat="43.62615" lon="3.83729">
        <ele>69.789790228427</ele>
        <time>2020-09-26T11:50:57.000Z</time>
      </trkpt>
      <trkpt lat="43.62613" lon="3.83727">
        <ele>69.989990621012</ele>
        <time>2020-09-26T11:50:58.000Z</time>
      </trkpt>
      <trkpt lat="43.62611" lon="3.83725">
        <ele>70.09500032</ele>
        <time>2020-09-26T11:50:59.000Z</time>
      </trkpt>
      <trkpt lat="43.6261" lon="3.83723">
        <ele>70.19500032</ele>
        <time>2020-09-26T11:51:00.000Z</time>
      </trkpt>
      <trkpt lat="43.62608" lon="3.83721">
        <ele>70.29500032</ele>
        <time>2020-09-26T11:51:01.000Z</time>
      </trkpt>
      <trkpt lat="43.62607" lon="3.83719">
        <ele>70.39500032</ele>
        <time>2020-09-26T11:51:02.000Z</time>
      </trkpt>
      <trkpt lat="43.62605" lon="3.83717">
        <ele>70.49500032</ele>
        <time>2020-09-26T11:51:03.000Z</time>
      </trkpt>
      <trkpt lat="43.62603" lon="3.83715">
        <ele>70.59500032</ele>
        <time>2020-09-26T11:51:04.000Z</time>
      </trkpt>
      <trkpt lat="43.62601" lon="3.83712">
        <ele>70.69500032</ele>
        <time>2020-09-26T11:51:05.000Z</time>
      </trkpt>
      <trkpt lat="43.626" lon="3.8371">
        <ele>70.79500032</ele>
        <time>2020-09-26T11:51:06.000Z</time>
      </trkpt>
      <trkpt lat="43.62598" lon="3.83708">
        <ele>70.89500032</ele>
        <time>2020-09-26T11:51:07.000Z</time>
      </trkpt>
      <trkpt lat="43.62596" lon="3.83705">
        <ele>70.99500032</ele>
        <time>2020-09-26T11:51:08.000Z</time>
      </trkpt>
      <trkpt lat="43.62595" lon="3.83703">
        <ele>71.092412762646</ele>
        <time>2020-09-26T11:51:09.000Z</time>
      </trkpt>
      <trkpt lat="43.62593" lon="3.83701">
        <ele>71.189689027237</ele>
        <time>2020-09-26T11:51:10.000Z</time>
      </trkpt>
      <trkpt lat="43.62592" lon="3.83699">
        <ele>71.286965291829</ele>
        <time>2020-09-26T11:51:11.000Z</time>
      </trkpt>
      <trkpt lat="43.6259" lon="3.83696">
        <ele>71.38424155642</ele>
        <time>2020-09-26T11:51:12.000Z</time>
      </trkpt>
      <trkpt lat="43.62588" lon="3.83694">
        <ele>71.481517821012</ele>
        <time>2020-09-26T11:51:13.000Z</time>
      </trkpt>
      <trkpt lat="43.62586" lon="3.83692">
        <ele>71.578794085603</ele>
        <time>2020-09-26T11:51:14.000Z</time>
      </trkpt>
      <trkpt lat="43.62584" lon="3.83689">
        <ele>71.676070350194</ele>
        <time>2020-09-26T11:51:15.000Z</time>
      </trkpt>
      <trkpt lat="43.62583" lon="3.83687">
        <ele>71.773346614786</ele>
        <time>2020-09-26T11:51:16.000Z</time>
      </trkpt>
      <trkpt lat="43.62581" lon="3.83684">
        <ele>71.870622879377</ele>
        <time>2020-09-26T11:51:17.000Z</time>
      </trkpt>
      <trkpt lat="43.6258" lon="3.83681">
        <ele>71.967899143969</ele>
        <time>2020-09-26T11:51:18.000Z</time>
      </trkpt>
      <trkpt lat="43.62579" lon="3.83678">
        <ele>72.06893037037</ele>
        <time>2020-09-26T11:51:19.000Z</time>
      </trkpt>
      <trkpt lat="43.62578" lon="3.83675">
        <ele>72.171811028807</ele>
        <time>2020-09-26T11:51:20.000Z</time>
      </trkpt>
      <trkpt lat="43.62577" lon="3.83671">
        <ele>72.274691687243</ele>
        <time>2020-09-26T11:51:21.000Z</time>
      </trkpt>
      <trkpt lat="43.62577" lon="3.83668">
        <ele>72.377572345679</ele>
        <time>2020-09-26T11:51:22.000Z</time>
      </trkpt>
      <trkpt lat="43.62577" lon="3.83664">
        <ele>72.480453004115</ele>
        <time>2020-09-26T11:51:23.000Z</time>
      </trkpt>
      <trkpt lat="43.62577" lon="3.83661">
        <ele>72.583333662551</ele>
        <time>2020-09-26T11:51:24.000Z</time>
      </trkpt>
      <trkpt lat="43.62577" lon="3.83658">
        <ele>72.686214320988</ele>
        <time>2020-09-26T11:51:25.000Z</time>
      </trkpt>
      <trkpt lat="43.62578" lon="3.83655">
        <ele>72.789094979424</ele>
        <time>2020-09-26T11:51:26.000Z</time>
      </trkpt>
      <trkpt lat="43.62578" lon="3.83651">
        <ele>72.89197563786</ele>
        <time>2020-09-26T11:51:27.000Z</time>
      </trkpt>
      <trkpt lat="43.62578" lon="3.83648">
        <ele>72.994856296296</ele>
        <time>2020-09-26T11:51:28.000Z</time>
      </trkpt>
      <trkpt lat="43.62578" lon="3.83645">
        <ele>73.09500032</ele>
        <time>2020-09-26T11:51:29.000Z</time>
      </trkpt>
      <trkpt lat="43.62577" lon="3.83641">
        <ele>73.19500032</ele>
        <time>2020-09-26T11:51:30.000Z</time>
      </trkpt>
      <trkpt lat="43.62577" lon="3.83638">
        <ele>73.29500032</ele>
        <time>2020-09-26T11:51:31.000Z</time>
      </trkpt>
      <trkpt lat="43.62577" lon="3.83635">
        <ele>73.39500032</ele>
        <time>2020-09-26T11:51:32.000Z</time>
      </trkpt>
      <trkpt lat="43.62577" lon="3.83631">
        <ele>73.49500032</ele>
        <time>2020-09-26T11:51:33.000Z</time>
      </trkpt>
      <trkpt lat="43.62577" lon="3.83628">
        <ele>73.59500032</ele>
        <time>2020-09-26T11:51:34.000Z</time>
      </trkpt>
      <trkpt lat="43.62577" lon="3.83625">
        <ele>73.69500032</ele>
        <time>2020-09-26T11:51:35.000Z</time>
      </trkpt>
      <trkpt lat="43.62577" lon="3.83621">
        <ele>73.79500032</ele>
        <time>2020-09-26T11:51:36.000Z</time>
      </trkpt>
      <trkpt lat="43.62577" lon="3.83618">
        <ele>73.89500032</ele>
        <time>2020-09-26T11:51:37.000Z</time>
      </trkpt>
      <trkpt lat="43.62577" lon="3.83615">
        <ele>73.99500032</ele>
        <time>2020-09-26T11:51:38.000Z</time>
      </trkpt>
      <trkpt lat="43.62576" lon="3.83613">
        <ele>74</ele>
        <time>2020-09-26T11:51:39.000Z</time>
      </trkpt>
      <trkpt lat="43.62576" lon="3.8361">
        <ele>74</ele>
        <time>2020-09-26T11:51:40.000Z</time>
      </trkpt>
      <trkpt lat="43.62575" lon="3.83607">
        <ele>74</ele>
        <time>2020-09-26T11:51:41.000Z</time>
      </trkpt>
      <trkpt lat="43.62574" lon="3.83604">
        <ele>74</ele>
        <time>2020-09-26T11:51:42.000Z</time>
      </trkpt>
      <trkpt lat="43.62573" lon="3.83602">
        <ele>74</ele>
        <time>2020-09-26T11:51:43.000Z</time>
      </trkpt>
      <trkpt lat="43.62571" lon="3.83599">
        <ele>74</ele>
        <time>2020-09-26T11:51:44.000Z</time>
      </trkpt>
      <trkpt lat="43.6257" lon="3.83596">
        <ele>74</ele>
        <time>2020-09-26T11:51:45.000Z</time>
      </trkpt>
      <trkpt lat="43.62568" lon="3.83593">
        <ele>74</ele>
        <time>2020-09-26T11:51:46.000Z</time>
      </trkpt>
      <trkpt lat="43.62567" lon="3.83591">
        <ele>74</ele>
        <time>2020-09-26T11:51:47.000Z</time>
      </trkpt>
      <trkpt lat="43.62565" lon="3.83588">
        <ele>74</ele>
        <time>2020-09-26T11:51:48.000Z</time>
      </trkpt>
      <trkpt lat="43.62563" lon="3.83586">
        <ele>74.092322983035</ele>
        <time>2020-09-26T11:51:49.000Z</time>
      </trkpt>
      <trkpt lat="43.62561" lon="3.83583">
        <ele>74.189504743092</ele>
        <time>2020-09-26T11:51:50.000Z</time>
      </trkpt>
      <trkpt lat="43.62559" lon="3.8358">
        <ele>74.286686503148</ele>
        <time>2020-09-26T11:51:51.000Z</time>
      </trkpt>
      <trkpt lat="43.62557" lon="3.83577">
        <ele>74.383868263205</ele>
        <time>2020-09-26T11:51:52.000Z</time>
      </trkpt>
      <trkpt lat="43.62555" lon="3.83575">
        <ele>74.481050023261</ele>
        <time>2020-09-26T11:51:53.000Z</time>
      </trkpt>
      <trkpt lat="43.62552" lon="3.83572">
        <ele>74.578231783318</ele>
        <time>2020-09-26T11:51:54.000Z</time>
      </trkpt>
      <trkpt lat="43.62549" lon="3.8357">
        <ele>74.675413543375</ele>
        <time>2020-09-26T11:51:55.000Z</time>
      </trkpt>
      <trkpt lat="43.62547" lon="3.83567">
        <ele>74.772595303431</ele>
        <time>2020-09-26T11:51:56.000Z</time>
      </trkpt>
      <trkpt lat="43.62544" lon="3.83565">
        <ele>74.869777063488</ele>
        <time>2020-09-26T11:51:57.000Z</time>
      </trkpt>
      <trkpt lat="43.62542" lon="3.83563">
        <ele>74.966958823544</ele>
        <time>2020-09-26T11:51:58.000Z</time>
      </trkpt>
      <trkpt lat="43.62539" lon="3.8356">
        <ele>75</ele>
        <time>2020-09-26T11:51:59.000Z</time>
      </trkpt>
      <trkpt lat="43.62536" lon="3.83558">
        <ele>75</ele>
        <time>2020-09-26T11:52:00.000Z</time>
      </trkpt>
      <trkpt lat="43.62534" lon="3.83555">
        <ele>75</ele>
        <time>2020-09-26T11:52:01.000Z</time>
      </trkpt>
      <trkpt lat="43.62532" lon="3.83552">
        <ele>75</ele>
        <time>2020-09-26T11:52:02.000Z</time>
      </trkpt>
      <trkpt lat="43.62529" lon="3.83549">
        <ele>75</ele>
        <time>2020-09-26T11:52:03.000Z</time>
      </trkpt>
      <trkpt lat="43.62527" lon="3.83546">
        <ele>75</ele>
        <time>2020-09-26T11:52:04.000Z</time>
      </trkpt>
      <trkpt lat="43.62525" lon="3.83543">
        <ele>75</ele>
        <time>2020-09-26T11:52:05.000Z</time>
      </trkpt>
      <trkpt lat="43.62523" lon="3.8354">
        <ele>75</ele>
        <time>2020-09-26T11:52:06.000Z</time>
      </trkpt>
      <trkpt lat="43.62521" lon="3.83536">
        <ele>75</ele>
        <time>2020-09-26T11:52:07.000Z</time>
      </trkpt>
      <trkpt lat="43.62519" lon="3.83531">
        <ele>75</ele>
        <time>2020-09-26T11:52:08.000Z</time>
      </trkpt>
      <trkpt lat="43.62518" lon="3.83527">
        <ele>74.93106962963</ele>
        <time>2020-09-26T11:52:09.000Z</time>
      </trkpt>
      <trkpt lat="43.62515" lon="3.83523">
        <ele>74.828188971193</ele>
        <time>2020-09-26T11:52:10.000Z</time>
      </trkpt>
      <trkpt lat="43.62513" lon="3.83519">
        <ele>74.725308312757</ele>
        <time>2020-09-26T11:52:11.000Z</time>
      </trkpt>
      <trkpt lat="43.62511" lon="3.83514">
        <ele>74.622427654321</ele>
        <time>2020-09-26T11:52:12.000Z</time>
      </trkpt>
      <trkpt lat="43.6251" lon="3.8351">
        <ele>74.519546995885</ele>
        <time>2020-09-26T11:52:13.000Z</time>
      </trkpt>
      <trkpt lat="43.62508" lon="3.83505">
        <ele>74.416666337449</ele>
        <time>2020-09-26T11:52:14.000Z</time>
      </trkpt>
      <trkpt lat="43.62506" lon="3.83501">
        <ele>74.313785679012</ele>
        <time>2020-09-26T11:52:15.000Z</time>
      </trkpt>
      <trkpt lat="43.62504" lon="3.83496">
        <ele>74.210905020576</ele>
        <time>2020-09-26T11:52:16.000Z</time>
      </trkpt>
      <trkpt lat="43.62502" lon="3.83491">
        <ele>74.10802436214</ele>
        <time>2020-09-26T11:52:17.000Z</time>
      </trkpt>
      <trkpt lat="43.625" lon="3.83487">
        <ele>74.005143703704</ele>
        <time>2020-09-26T11:52:18.000Z</time>
      </trkpt>
      <trkpt lat="43.62498" lon="3.83482">
        <ele>73.90499968</ele>
        <time>2020-09-26T11:52:19.000Z</time>
      </trkpt>
      <trkpt lat="43.62496" lon="3.83478">
        <ele>73.80499968</ele>
        <time>2020-09-26T11:52:20.000Z</time>
      </trkpt>
      <trkpt lat="43.62495" lon="3.83473">
        <ele>73.70499968</ele>
        <time>2020-09-26T11:52:21.000Z</time>
      </trkpt>
      <trkpt lat="43.62495" lon="3.83468">
        <ele>73.60499968</ele>
        <time>2020-09-26T11:52:22.000Z</time>
      </trkpt>
      <trkpt lat="43.62495" lon="3.83465">
        <ele>73.50499968</ele>
        <time>2020-09-26T11:52:23.000Z</time>
      </trkpt>
      <trkpt lat="43.62494" lon="3.83461">
        <ele>73.30499968</ele>
        <time>2020-09-26T11:52:25.000Z</time>
      </trkpt>
      <trkpt lat="43.62491" lon="3.83457">
        <ele>73.10499968</ele>
        <time>2020-09-26T11:52:27.000Z</time>
      </trkpt>
      <trkpt lat="43.62489" lon="3.83454">
        <ele>73.00499968</ele>
        <time>2020-09-26T11:52:28.000Z</time>
      </trkpt>
      <trkpt lat="43.62487" lon="3.83449">
        <ele>73</ele>
        <time>2020-09-26T11:52:29.000Z</time>
      </trkpt>
      <trkpt lat="43.62485" lon="3.83445">
        <ele>73</ele>
        <time>2020-09-26T11:52:30.000Z</time>
      </trkpt>
      <trkpt lat="43.62483" lon="3.83443">
        <ele>73</ele>
        <time>2020-09-26T11:52:31.000Z</time>
      </trkpt>
      <trkpt lat="43.62481" lon="3.83441">
        <ele>73</ele>
        <time>2020-09-26T11:52:32.000Z</time>
      </trkpt>
      <trkpt lat="43.6248" lon="3.83438">
        <ele>73</ele>
        <time>2020-09-26T11:52:33.000Z</time>
      </trkpt>
      <trkpt lat="43.62479" lon="3.83436">
        <ele>73</ele>
        <time>2020-09-26T11:52:34.000Z</time>
      </trkpt>
      <trkpt lat="43.62477" lon="3.83433">
        <ele>73</ele>
        <time>2020-09-26T11:52:35.000Z</time>
      </trkpt>
      <trkpt lat="43.62476" lon="3.83429">
        <ele>73</ele>
        <time>2020-09-26T11:52:36.000Z</time>
      </trkpt>
      <trkpt lat="43.62474" lon="3.83426">
        <ele>73</ele>
        <time>2020-09-26T11:52:37.000Z</time>
      </trkpt>
      <trkpt lat="43.62471" lon="3.83423">
        <ele>73</ele>
        <time>2020-09-26T11:52:38.000Z</time>
      </trkpt>
      <trkpt lat="43.62469" lon="3.83421">
        <ele>73</ele>
        <time>2020-09-26T11:52:39.000Z</time>
      </trkpt>
      <trkpt lat="43.62467" lon="3.83419">
        <ele>73</ele>
        <time>2020-09-26T11:52:40.000Z</time>
      </trkpt>
      <trkpt lat="43.62465" lon="3.83417">
        <ele>73</ele>
        <time>2020-09-26T11:52:41.000Z</time>
      </trkpt>
      <trkpt lat="43.62463" lon="3.83415">
        <ele>73</ele>
        <time>2020-09-26T11:52:42.000Z</time>
      </trkpt>
      <trkpt lat="43.6246" lon="3.83414">
        <ele>73</ele>
        <time>2020-09-26T11:52:43.000Z</time>
      </trkpt>
      <trkpt lat="43.62458" lon="3.83413">
        <ele>73</ele>
        <time>2020-09-26T11:52:44.000Z</time>
      </trkpt>
      <trkpt lat="43.62456" lon="3.83412">
        <ele>73</ele>
        <time>2020-09-26T11:52:45.000Z</time>
      </trkpt>
      <trkpt lat="43.62454" lon="3.83412">
        <ele>73</ele>
        <time>2020-09-26T11:52:46.000Z</time>
      </trkpt>
      <trkpt lat="43.62451" lon="3.83412">
        <ele>73</ele>
        <time>2020-09-26T11:52:47.000Z</time>
      </trkpt>
      <trkpt lat="43.62449" lon="3.83412">
        <ele>73</ele>
        <time>2020-09-26T11:52:48.000Z</time>
      </trkpt>
      <trkpt lat="43.62446" lon="3.83414">
        <ele>73.069886970569</ele>
        <time>2020-09-26T11:52:49.000Z</time>
      </trkpt>
      <trkpt lat="43.62444" lon="3.83416">
        <ele>73.172661927289</ele>
        <time>2020-09-26T11:52:50.000Z</time>
      </trkpt>
      <trkpt lat="43.62441" lon="3.83418">
        <ele>73.275436884008</ele>
        <time>2020-09-26T11:52:51.000Z</time>
      </trkpt>
      <trkpt lat="43.62439" lon="3.83421">
        <ele>73.378211840727</ele>
        <time>2020-09-26T11:52:52.000Z</time>
      </trkpt>
      <trkpt lat="43.62436" lon="3.83423">
        <ele>73.480986797447</ele>
        <time>2020-09-26T11:52:53.000Z</time>
      </trkpt>
      <trkpt lat="43.62434" lon="3.83425">
        <ele>73.583761754166</ele>
        <time>2020-09-26T11:52:54.000Z</time>
      </trkpt>
      <trkpt lat="43.62432" lon="3.83429">
        <ele>73.686536710886</ele>
        <time>2020-09-26T11:52:55.000Z</time>
      </trkpt>
      <trkpt lat="43.6243" lon="3.83432">
        <ele>73.789311667605</ele>
        <time>2020-09-26T11:52:56.000Z</time>
      </trkpt>
      <trkpt lat="43.62429" lon="3.83435">
        <ele>73.892086624325</ele>
        <time>2020-09-26T11:52:57.000Z</time>
      </trkpt>
      <trkpt lat="43.62427" lon="3.83438">
        <ele>73.994861581044</ele>
        <time>2020-09-26T11:52:58.000Z</time>
      </trkpt>
      <trkpt lat="43.62425" lon="3.83441">
        <ele>74</ele>
        <time>2020-09-26T11:52:59.000Z</time>
      </trkpt>
      <trkpt lat="43.62424" lon="3.83444">
        <ele>74</ele>
        <time>2020-09-26T11:53:00.000Z</time>
      </trkpt>
      <trkpt lat="43.62422" lon="3.83448">
        <ele>74</ele>
        <time>2020-09-26T11:53:01.000Z</time>
      </trkpt>
      <trkpt lat="43.6242" lon="3.83451">
        <ele>74</ele>
        <time>2020-09-26T11:53:02.000Z</time>
      </trkpt>
      <trkpt lat="43.62418" lon="3.83454">
        <ele>74</ele>
        <time>2020-09-26T11:53:03.000Z</time>
      </trkpt>
      <trkpt lat="43.62416" lon="3.83457">
        <ele>74</ele>
        <time>2020-09-26T11:53:04.000Z</time>
      </trkpt>
      <trkpt lat="43.62412" lon="3.83457">
        <ele>74</ele>
        <time>2020-09-26T11:53:05.000Z</time>
      </trkpt>
      <trkpt lat="43.62409" lon="3.83456">
        <ele>74</ele>
        <time>2020-09-26T11:53:06.000Z</time>
      </trkpt>
      <trkpt lat="43.62406" lon="3.83454">
        <ele>74</ele>
        <time>2020-09-26T11:53:07.000Z</time>
      </trkpt>
      <trkpt lat="43.62403" lon="3.83453">
        <ele>74</ele>
        <time>2020-09-26T11:53:08.000Z</time>
      </trkpt>
      <trkpt lat="43.624" lon="3.83451">
        <ele>74</ele>
        <time>2020-09-26T11:53:09.000Z</time>
      </trkpt>
      <trkpt lat="43.62397" lon="3.8345">
        <ele>74</ele>
        <time>2020-09-26T11:53:10.000Z</time>
      </trkpt>
      <trkpt lat="43.62394" lon="3.83449">
        <ele>74</ele>
        <time>2020-09-26T11:53:11.000Z</time>
      </trkpt>
      <trkpt lat="43.62391" lon="3.83448">
        <ele>74</ele>
        <time>2020-09-26T11:53:12.000Z</time>
      </trkpt>
      <trkpt lat="43.62388" lon="3.83447">
        <ele>74</ele>
        <time>2020-09-26T11:53:13.000Z</time>
      </trkpt>
      <trkpt lat="43.62384" lon="3.83446">
        <ele>74</ele>
        <time>2020-09-26T11:53:14.000Z</time>
      </trkpt>
      <trkpt lat="43.62382" lon="3.83445">
        <ele>74</ele>
        <time>2020-09-26T11:53:15.000Z</time>
      </trkpt>
      <trkpt lat="43.62379" lon="3.83444">
        <ele>74</ele>
        <time>2020-09-26T11:53:16.000Z</time>
      </trkpt>
      <trkpt lat="43.62376" lon="3.83443">
        <ele>74</ele>
        <time>2020-09-26T11:53:17.000Z</time>
      </trkpt>
      <trkpt lat="43.62373" lon="3.83442">
        <ele>74</ele>
        <time>2020-09-26T11:53:18.000Z</time>
      </trkpt>
      <trkpt lat="43.6237" lon="3.83441">
        <ele>74</ele>
        <time>2020-09-26T11:53:19.000Z</time>
      </trkpt>
      <trkpt lat="43.62368" lon="3.8344">
        <ele>74</ele>
        <time>2020-09-26T11:53:20.000Z</time>
      </trkpt>
      <trkpt lat="43.62365" lon="3.8344">
        <ele>74</ele>
        <time>2020-09-26T11:53:21.000Z</time>
      </trkpt>
      <trkpt lat="43.62363" lon="3.83439">
        <ele>74</ele>
        <time>2020-09-26T11:53:22.000Z</time>
      </trkpt>
      <trkpt lat="43.6236" lon="3.83439">
        <ele>74</ele>
        <time>2020-09-26T11:53:23.000Z</time>
      </trkpt>
      <trkpt lat="43.62358" lon="3.83439">
        <ele>74</ele>
        <time>2020-09-26T11:53:24.000Z</time>
      </trkpt>
      <trkpt lat="43.62356" lon="3.83439">
        <ele>74</ele>
        <time>2020-09-26T11:53:25.000Z</time>
      </trkpt>
      <trkpt lat="43.62353" lon="3.83439">
        <ele>74</ele>
        <time>2020-09-26T11:53:26.000Z</time>
      </trkpt>
      <trkpt lat="43.6235" lon="3.83439">
        <ele>74</ele>
        <time>2020-09-26T11:53:27.000Z</time>
      </trkpt>
      <trkpt lat="43.62348" lon="3.83439">
        <ele>74</ele>
        <time>2020-09-26T11:53:28.000Z</time>
      </trkpt>
      <trkpt lat="43.62345" lon="3.8344">
        <ele>74</ele>
        <time>2020-09-26T11:53:29.000Z</time>
      </trkpt>
      <trkpt lat="43.62342" lon="3.8344">
        <ele>74</ele>
        <time>2020-09-26T11:53:30.000Z</time>
      </trkpt>
      <trkpt lat="43.62339" lon="3.83441">
        <ele>74</ele>
        <time>2020-09-26T11:53:31.000Z</time>
      </trkpt>
      <trkpt lat="43.62335" lon="3.83442">
        <ele>74</ele>
        <time>2020-09-26T11:53:32.000Z</time>
      </trkpt>
      <trkpt lat="43.62332" lon="3.83443">
        <ele>74</ele>
        <time>2020-09-26T11:53:33.000Z</time>
      </trkpt>
      <trkpt lat="43.62329" lon="3.83445">
        <ele>74</ele>
        <time>2020-09-26T11:53:34.000Z</time>
      </trkpt>
      <trkpt lat="43.62326" lon="3.83447">
        <ele>74</ele>
        <time>2020-09-26T11:53:35.000Z</time>
      </trkpt>
      <trkpt lat="43.62323" lon="3.83449">
        <ele>74</ele>
        <time>2020-09-26T11:53:36.000Z</time>
      </trkpt>
      <trkpt lat="43.6232" lon="3.83451">
        <ele>74</ele>
        <time>2020-09-26T11:53:37.000Z</time>
      </trkpt>
      <trkpt lat="43.62317" lon="3.83453">
        <ele>74</ele>
        <time>2020-09-26T11:53:38.000Z</time>
      </trkpt>
      <trkpt lat="43.62314" lon="3.83455">
        <ele>74</ele>
        <time>2020-09-26T11:53:39.000Z</time>
      </trkpt>
      <trkpt lat="43.62311" lon="3.83458">
        <ele>74</ele>
        <time>2020-09-26T11:53:40.000Z</time>
      </trkpt>
      <trkpt lat="43.62309" lon="3.83461">
        <ele>74</ele>
        <time>2020-09-26T11:53:41.000Z</time>
      </trkpt>
      <trkpt lat="43.62306" lon="3.83464">
        <ele>74</ele>
        <time>2020-09-26T11:53:42.000Z</time>
      </trkpt>
      <trkpt lat="43.62304" lon="3.83467">
        <ele>74</ele>
        <time>2020-09-26T11:53:43.000Z</time>
      </trkpt>
      <trkpt lat="43.62302" lon="3.8347">
        <ele>74</ele>
        <time>2020-09-26T11:53:44.000Z</time>
      </trkpt>
      <trkpt lat="43.623" lon="3.83473">
        <ele>74</ele>
        <time>2020-09-26T11:53:45.000Z</time>
      </trkpt>
      <trkpt lat="43.62298" lon="3.83477">
        <ele>74</ele>
        <time>2020-09-26T11:53:46.000Z</time>
      </trkpt>
      <trkpt lat="43.62296" lon="3.8348">
        <ele>74</ele>
        <time>2020-09-26T11:53:47.000Z</time>
      </trkpt>
      <trkpt lat="43.62294" lon="3.83484">
        <ele>74</ele>
        <time>2020-09-26T11:53:48.000Z</time>
      </trkpt>
      <trkpt lat="43.62292" lon="3.83488">
        <ele>74</ele>
        <time>2020-09-26T11:53:49.000Z</time>
      </trkpt>
      <trkpt lat="43.6229" lon="3.83493">
        <ele>74</ele>
        <time>2020-09-26T11:53:50.000Z</time>
      </trkpt>
      <trkpt lat="43.62289" lon="3.83497">
        <ele>74</ele>
        <time>2020-09-26T11:53:51.000Z</time>
      </trkpt>
      <trkpt lat="43.62288" lon="3.83501">
        <ele>74</ele>
        <time>2020-09-26T11:53:52.000Z</time>
      </trkpt>
      <trkpt lat="43.62286" lon="3.83506">
        <ele>74</ele>
        <time>2020-09-26T11:53:53.000Z</time>
      </trkpt>
      <trkpt lat="43.62285" lon="3.8351">
        <ele>74</ele>
        <time>2020-09-26T11:53:54.000Z</time>
      </trkpt>
      <trkpt lat="43.62283" lon="3.83514">
        <ele>74</ele>
        <time>2020-09-26T11:53:55.000Z</time>
      </trkpt>
      <trkpt lat="43.6228" lon="3.83517">
        <ele>74</ele>
        <time>2020-09-26T11:53:56.000Z</time>
      </trkpt>
      <trkpt lat="43.62278" lon="3.8352">
        <ele>74</ele>
        <time>2020-09-26T11:53:57.000Z</time>
      </trkpt>
      <trkpt lat="43.62275" lon="3.83523">
        <ele>74</ele>
        <time>2020-09-26T11:53:58.000Z</time>
      </trkpt>
      <trkpt lat="43.62273" lon="3.83526">
        <ele>74</ele>
        <time>2020-09-26T11:53:59.000Z</time>
      </trkpt>
      <trkpt lat="43.62271" lon="3.83529">
        <ele>74</ele>
        <time>2020-09-26T11:54:00.000Z</time>
      </trkpt>
      <trkpt lat="43.62269" lon="3.83531">
        <ele>74</ele>
        <time>2020-09-26T11:54:01.000Z</time>
      </trkpt>
      <trkpt lat="43.62267" lon="3.83532">
        <ele>74</ele>
        <time>2020-09-26T11:54:02.000Z</time>
      </trkpt>
      <trkpt lat="43.62265" lon="3.83532">
        <ele>74</ele>
        <time>2020-09-26T11:54:04.000Z</time>
      </trkpt>
      <trkpt lat="43.62262" lon="3.8353">
        <ele>74</ele>
        <time>2020-09-26T11:54:06.000Z</time>
      </trkpt>
      <trkpt lat="43.6226" lon="3.83529">
        <ele>74</ele>
        <time>2020-09-26T11:54:07.000Z</time>
      </trkpt>
      <trkpt lat="43.62257" lon="3.83525">
        <ele>74</ele>
        <time>2020-09-26T11:54:08.000Z</time>
      </trkpt>
      <trkpt lat="43.62255" lon="3.83522">
        <ele>74</ele>
        <time>2020-09-26T11:54:09.000Z</time>
      </trkpt>
      <trkpt lat="43.62252" lon="3.83518">
        <ele>74</ele>
        <time>2020-09-26T11:54:10.000Z</time>
      </trkpt>
      <trkpt lat="43.62248" lon="3.83515">
        <ele>74</ele>
        <time>2020-09-26T11:54:11.000Z</time>
      </trkpt>
      <trkpt lat="43.62245" lon="3.83513">
        <ele>74</ele>
        <time>2020-09-26T11:54:12.000Z</time>
      </trkpt>
      <trkpt lat="43.62241" lon="3.83513">
        <ele>74</ele>
        <time>2020-09-26T11:54:13.000Z</time>
      </trkpt>
      <trkpt lat="43.62238" lon="3.83513">
        <ele>74</ele>
        <time>2020-09-26T11:54:14.000Z</time>
      </trkpt>
      <trkpt lat="43.62235" lon="3.83513">
        <ele>74</ele>
        <time>2020-09-26T11:54:15.000Z</time>
      </trkpt>
      <trkpt lat="43.62232" lon="3.83511">
        <ele>74</ele>
        <time>2020-09-26T11:54:16.000Z</time>
      </trkpt>
      <trkpt lat="43.62229" lon="3.83509">
        <ele>74</ele>
        <time>2020-09-26T11:54:17.000Z</time>
      </trkpt>
      <trkpt lat="43.62227" lon="3.83506">
        <ele>74</ele>
        <time>2020-09-26T11:54:18.000Z</time>
      </trkpt>
      <trkpt lat="43.62224" lon="3.83504">
        <ele>74.075587963036</ele>
        <time>2020-09-26T11:54:19.000Z</time>
      </trkpt>
      <trkpt lat="43.62222" lon="3.83501">
        <ele>74.177732975613</ele>
        <time>2020-09-26T11:54:20.000Z</time>
      </trkpt>
      <trkpt lat="43.62219" lon="3.83498">
        <ele>74.279877988191</ele>
        <time>2020-09-26T11:54:21.000Z</time>
      </trkpt>
      <trkpt lat="43.62216" lon="3.83495">
        <ele>74.382023000769</ele>
        <time>2020-09-26T11:54:22.000Z</time>
      </trkpt>
      <trkpt lat="43.62214" lon="3.83493">
        <ele>74.484168013347</ele>
        <time>2020-09-26T11:54:23.000Z</time>
      </trkpt>
      <trkpt lat="43.62211" lon="3.8349">
        <ele>74.586313025924</ele>
        <time>2020-09-26T11:54:24.000Z</time>
      </trkpt>
      <trkpt lat="43.62208" lon="3.83487">
        <ele>74.688458038502</ele>
        <time>2020-09-26T11:54:25.000Z</time>
      </trkpt>
      <trkpt lat="43.62205" lon="3.83485">
        <ele>74.79060305108</ele>
        <time>2020-09-26T11:54:26.000Z</time>
      </trkpt>
      <trkpt lat="43.62201" lon="3.83482">
        <ele>74.892748063657</ele>
        <time>2020-09-26T11:54:27.000Z</time>
      </trkpt>
      <trkpt lat="43.62199" lon="3.83478">
        <ele>74.994893076235</ele>
        <time>2020-09-26T11:54:28.000Z</time>
      </trkpt>
      <trkpt lat="43.62196" lon="3.83475">
        <ele>75.092412762646</ele>
        <time>2020-09-26T11:54:29.000Z</time>
      </trkpt>
      <trkpt lat="43.62193" lon="3.83471">
        <ele>75.189689027237</ele>
        <time>2020-09-26T11:54:30.000Z</time>
      </trkpt>
      <trkpt lat="43.62189" lon="3.83469">
        <ele>75.286965291829</ele>
        <time>2020-09-26T11:54:31.000Z</time>
      </trkpt>
      <trkpt lat="43.62186" lon="3.83466">
        <ele>75.38424155642</ele>
        <time>2020-09-26T11:54:32.000Z</time>
      </trkpt>
      <trkpt lat="43.62182" lon="3.83462">
        <ele>75.481517821012</ele>
        <time>2020-09-26T11:54:33.000Z</time>
      </trkpt>
      <trkpt lat="43.62179" lon="3.83459">
        <ele>75.578794085603</ele>
        <time>2020-09-26T11:54:34.000Z</time>
      </trkpt>
      <trkpt lat="43.62176" lon="3.83455">
        <ele>75.676070350194</ele>
        <time>2020-09-26T11:54:35.000Z</time>
      </trkpt>
      <trkpt lat="43.62172" lon="3.83452">
        <ele>75.773346614786</ele>
        <time>2020-09-26T11:54:36.000Z</time>
      </trkpt>
      <trkpt lat="43.62169" lon="3.83449">
        <ele>75.870622879377</ele>
        <time>2020-09-26T11:54:37.000Z</time>
      </trkpt>
      <trkpt lat="43.62165" lon="3.83447">
        <ele>75.967899143969</ele>
        <time>2020-09-26T11:54:38.000Z</time>
      </trkpt>
      <trkpt lat="43.62162" lon="3.83445">
        <ele>76</ele>
        <time>2020-09-26T11:54:39.000Z</time>
      </trkpt>
      <trkpt lat="43.62158" lon="3.83443">
        <ele>76</ele>
        <time>2020-09-26T11:54:40.000Z</time>
      </trkpt>
      <trkpt lat="43.62154" lon="3.83441">
        <ele>76</ele>
        <time>2020-09-26T11:54:41.000Z</time>
      </trkpt>
      <trkpt lat="43.62151" lon="3.8344">
        <ele>76</ele>
        <time>2020-09-26T11:54:42.000Z</time>
      </trkpt>
      <trkpt lat="43.62147" lon="3.83438">
        <ele>76</ele>
        <time>2020-09-26T11:54:43.000Z</time>
      </trkpt>
      <trkpt lat="43.62143" lon="3.83435">
        <ele>76</ele>
        <time>2020-09-26T11:54:44.000Z</time>
      </trkpt>
      <trkpt lat="43.62139" lon="3.83431">
        <ele>76</ele>
        <time>2020-09-26T11:54:45.000Z</time>
      </trkpt>
      <trkpt lat="43.62136" lon="3.83427">
        <ele>76</ele>
        <time>2020-09-26T11:54:46.000Z</time>
      </trkpt>
      <trkpt lat="43.62133" lon="3.83422">
        <ele>76</ele>
        <time>2020-09-26T11:54:47.000Z</time>
      </trkpt>
      <trkpt lat="43.62129" lon="3.83419">
        <ele>76</ele>
        <time>2020-09-26T11:54:48.000Z</time>
      </trkpt>
      <trkpt lat="43.62126" lon="3.83414">
        <ele>76</ele>
        <time>2020-09-26T11:54:49.000Z</time>
      </trkpt>
      <trkpt lat="43.62122" lon="3.8341">
        <ele>76</ele>
        <time>2020-09-26T11:54:50.000Z</time>
      </trkpt>
      <trkpt lat="43.62118" lon="3.83406">
        <ele>76</ele>
        <time>2020-09-26T11:54:51.000Z</time>
      </trkpt>
      <trkpt lat="43.62116" lon="3.834">
        <ele>76</ele>
        <time>2020-09-26T11:54:52.000Z</time>
      </trkpt>
      <trkpt lat="43.62113" lon="3.83395">
        <ele>76</ele>
        <time>2020-09-26T11:54:53.000Z</time>
      </trkpt>
      <trkpt lat="43.6211" lon="3.83391">
        <ele>76</ele>
        <time>2020-09-26T11:54:54.000Z</time>
      </trkpt>
      <trkpt lat="43.62106" lon="3.83386">
        <ele>76</ele>
        <time>2020-09-26T11:54:55.000Z</time>
      </trkpt>
      <trkpt lat="43.62103" lon="3.83382">
        <ele>76</ele>
        <time>2020-09-26T11:54:56.000Z</time>
      </trkpt>
      <trkpt lat="43.621" lon="3.83378">
        <ele>76</ele>
        <time>2020-09-26T11:54:57.000Z</time>
      </trkpt>
      <trkpt lat="43.62097" lon="3.83373">
        <ele>76</ele>
        <time>2020-09-26T11:54:58.000Z</time>
      </trkpt>
      <trkpt lat="43.62093" lon="3.83369">
        <ele>75.90499968</ele>
        <time>2020-09-26T11:54:59.000Z</time>
      </trkpt>
      <trkpt lat="43.6209" lon="3.83365">
        <ele>75.80499968</ele>
        <time>2020-09-26T11:55:00.000Z</time>
      </trkpt>
      <trkpt lat="43.62086" lon="3.83362">
        <ele>75.70499968</ele>
        <time>2020-09-26T11:55:01.000Z</time>
      </trkpt>
      <trkpt lat="43.62083" lon="3.83358">
        <ele>75.60499968</ele>
        <time>2020-09-26T11:55:02.000Z</time>
      </trkpt>
      <trkpt lat="43.62079" lon="3.83354">
        <ele>75.50499968</ele>
        <time>2020-09-26T11:55:03.000Z</time>
      </trkpt>
      <trkpt lat="43.62076" lon="3.8335">
        <ele>75.40499968</ele>
        <time>2020-09-26T11:55:04.000Z</time>
      </trkpt>
      <trkpt lat="43.62072" lon="3.83345">
        <ele>75.30499968</ele>
        <time>2020-09-26T11:55:05.000Z</time>
      </trkpt>
      <trkpt lat="43.62069" lon="3.83341">
        <ele>75.20499968</ele>
        <time>2020-09-26T11:55:06.000Z</time>
      </trkpt>
      <trkpt lat="43.62065" lon="3.83337">
        <ele>75.10499968</ele>
        <time>2020-09-26T11:55:07.000Z</time>
      </trkpt>
      <trkpt lat="43.62061" lon="3.83333">
        <ele>75.00499968</ele>
        <time>2020-09-26T11:55:08.000Z</time>
      </trkpt>
      <trkpt lat="43.62057" lon="3.83328">
        <ele>75</ele>
        <time>2020-09-26T11:55:09.000Z</time>
      </trkpt>
      <trkpt lat="43.62054" lon="3.83324">
        <ele>75</ele>
        <time>2020-09-26T11:55:10.000Z</time>
      </trkpt>
      <trkpt lat="43.6205" lon="3.83319">
        <ele>75</ele>
        <time>2020-09-26T11:55:11.000Z</time>
      </trkpt>
      <trkpt lat="43.62046" lon="3.83315">
        <ele>75</ele>
        <time>2020-09-26T11:55:12.000Z</time>
      </trkpt>
      <trkpt lat="43.62042" lon="3.8331">
        <ele>75</ele>
        <time>2020-09-26T11:55:13.000Z</time>
      </trkpt>
      <trkpt lat="43.62039" lon="3.83306">
        <ele>75</ele>
        <time>2020-09-26T11:55:14.000Z</time>
      </trkpt>
      <trkpt lat="43.62035" lon="3.83301">
        <ele>75</ele>
        <time>2020-09-26T11:55:15.000Z</time>
      </trkpt>
      <trkpt lat="43.62031" lon="3.83296">
        <ele>75</ele>
        <time>2020-09-26T11:55:16.000Z</time>
      </trkpt>
      <trkpt lat="43.62027" lon="3.83292">
        <ele>75</ele>
        <time>2020-09-26T11:55:17.000Z</time>
      </trkpt>
      <trkpt lat="43.62024" lon="3.83287">
        <ele>75</ele>
        <time>2020-09-26T11:55:18.000Z</time>
      </trkpt>
      <trkpt lat="43.6202" lon="3.83282">
        <ele>74.93106962963</ele>
        <time>2020-09-26T11:55:19.000Z</time>
      </trkpt>
      <trkpt lat="43.62017" lon="3.83277">
        <ele>74.828188971193</ele>
        <time>2020-09-26T11:55:20.000Z</time>
      </trkpt>
      <trkpt lat="43.62014" lon="3.83273">
        <ele>74.725308312757</ele>
        <time>2020-09-26T11:55:21.000Z</time>
      </trkpt>
      <trkpt lat="43.6201" lon="3.83268">
        <ele>74.622427654321</ele>
        <time>2020-09-26T11:55:22.000Z</time>
      </trkpt>
      <trkpt lat="43.62008" lon="3.83264">
        <ele>74.519546995885</ele>
        <time>2020-09-26T11:55:23.000Z</time>
      </trkpt>
      <trkpt lat="43.62006" lon="3.83258">
        <ele>74.416666337449</ele>
        <time>2020-09-26T11:55:24.000Z</time>
      </trkpt>
      <trkpt lat="43.62004" lon="3.83253">
        <ele>74.313785679012</ele>
        <time>2020-09-26T11:55:25.000Z</time>
      </trkpt>
      <trkpt lat="43.62001" lon="3.83249">
        <ele>74.210905020576</ele>
        <time>2020-09-26T11:55:26.000Z</time>
      </trkpt>
      <trkpt lat="43.61997" lon="3.83246">
        <ele>74.10802436214</ele>
        <time>2020-09-26T11:55:27.000Z</time>
      </trkpt>
      <trkpt lat="43.61993" lon="3.83244">
        <ele>74.005143703704</ele>
        <time>2020-09-26T11:55:28.000Z</time>
      </trkpt>
      <trkpt lat="43.61988" lon="3.83242">
        <ele>73.90499968</ele>
        <time>2020-09-26T11:55:29.000Z</time>
      </trkpt>
      <trkpt lat="43.61983" lon="3.83243">
        <ele>73.80499968</ele>
        <time>2020-09-26T11:55:30.000Z</time>
      </trkpt>
      <trkpt lat="43.61978" lon="3.83246">
        <ele>73.70499968</ele>
        <time>2020-09-26T11:55:31.000Z</time>
      </trkpt>
      <trkpt lat="43.61975" lon="3.8325">
        <ele>73.60499968</ele>
        <time>2020-09-26T11:55:32.000Z</time>
      </trkpt>
      <trkpt lat="43.6197" lon="3.83253">
        <ele>73.50499968</ele>
        <time>2020-09-26T11:55:33.000Z</time>
      </trkpt>
      <trkpt lat="43.61966" lon="3.83255">
        <ele>73.40499968</ele>
        <time>2020-09-26T11:55:34.000Z</time>
      </trkpt>
      <trkpt lat="43.61962" lon="3.83258">
        <ele>73.30499968</ele>
        <time>2020-09-26T11:55:35.000Z</time>
      </trkpt>
      <trkpt lat="43.61957" lon="3.8326">
        <ele>73.20499968</ele>
        <time>2020-09-26T11:55:36.000Z</time>
      </trkpt>
      <trkpt lat="43.61953" lon="3.83259">
        <ele>73.10499968</ele>
        <time>2020-09-26T11:55:37.000Z</time>
      </trkpt>
      <trkpt lat="43.61948" lon="3.83258">
        <ele>73.00499968</ele>
        <time>2020-09-26T11:55:38.000Z</time>
      </trkpt>
      <trkpt lat="43.61943" lon="3.83256">
        <ele>73</ele>
        <time>2020-09-26T11:55:39.000Z</time>
      </trkpt>
      <trkpt lat="43.61938" lon="3.83254">
        <ele>73</ele>
        <time>2020-09-26T11:55:40.000Z</time>
      </trkpt>
      <trkpt lat="43.61934" lon="3.83252">
        <ele>73</ele>
        <time>2020-09-26T11:55:41.000Z</time>
      </trkpt>
      <trkpt lat="43.61929" lon="3.83249">
        <ele>73</ele>
        <time>2020-09-26T11:55:42.000Z</time>
      </trkpt>
      <trkpt lat="43.61924" lon="3.83247">
        <ele>73</ele>
        <time>2020-09-26T11:55:43.000Z</time>
      </trkpt>
      <trkpt lat="43.61919" lon="3.83245">
        <ele>73</ele>
        <time>2020-09-26T11:55:44.000Z</time>
      </trkpt>
      <trkpt lat="43.61915" lon="3.83242">
        <ele>73</ele>
        <time>2020-09-26T11:55:45.000Z</time>
      </trkpt>
      <trkpt lat="43.6191" lon="3.8324">
        <ele>73</ele>
        <time>2020-09-26T11:55:46.000Z</time>
      </trkpt>
      <trkpt lat="43.61906" lon="3.83237">
        <ele>73</ele>
        <time>2020-09-26T11:55:47.000Z</time>
      </trkpt>
      <trkpt lat="43.61901" lon="3.83234">
        <ele>73</ele>
        <time>2020-09-26T11:55:48.000Z</time>
      </trkpt>
      <trkpt lat="43.61896" lon="3.83232">
        <ele>73</ele>
        <time>2020-09-26T11:55:49.000Z</time>
      </trkpt>
      <trkpt lat="43.61892" lon="3.83229">
        <ele>73</ele>
        <time>2020-09-26T11:55:50.000Z</time>
      </trkpt>
      <trkpt lat="43.61888" lon="3.83227">
        <ele>73</ele>
        <time>2020-09-26T11:55:51.000Z</time>
      </trkpt>
      <trkpt lat="43.61883" lon="3.83225">
        <ele>73</ele>
        <time>2020-09-26T11:55:52.000Z</time>
      </trkpt>
      <trkpt lat="43.61878" lon="3.83223">
        <ele>73</ele>
        <time>2020-09-26T11:55:53.000Z</time>
      </trkpt>
      <trkpt lat="43.61874" lon="3.8322">
        <ele>73</ele>
        <time>2020-09-26T11:55:54.000Z</time>
      </trkpt>
      <trkpt lat="43.6187" lon="3.83217">
        <ele>73</ele>
        <time>2020-09-26T11:55:55.000Z</time>
      </trkpt>
      <trkpt lat="43.61865" lon="3.83215">
        <ele>73</ele>
        <time>2020-09-26T11:55:56.000Z</time>
      </trkpt>
      <trkpt lat="43.61861" lon="3.83211">
        <ele>73</ele>
        <time>2020-09-26T11:55:57.000Z</time>
      </trkpt>
      <trkpt lat="43.61857" lon="3.83208">
        <ele>73</ele>
        <time>2020-09-26T11:55:58.000Z</time>
      </trkpt>
      <trkpt lat="43.61852" lon="3.83205">
        <ele>73</ele>
        <time>2020-09-26T11:55:59.000Z</time>
      </trkpt>
      <trkpt lat="43.61848" lon="3.83202">
        <ele>73</ele>
        <time>2020-09-26T11:56:00.000Z</time>
      </trkpt>
      <trkpt lat="43.61843" lon="3.83199">
        <ele>73</ele>
        <time>2020-09-26T11:56:01.000Z</time>
      </trkpt>
      <trkpt lat="43.61839" lon="3.83196">
        <ele>73</ele>
        <time>2020-09-26T11:56:02.000Z</time>
      </trkpt>
      <trkpt lat="43.61834" lon="3.83193">
        <ele>73</ele>
        <time>2020-09-26T11:56:03.000Z</time>
      </trkpt>
      <trkpt lat="43.61828" lon="3.83189">
        <ele>73</ele>
        <time>2020-09-26T11:56:04.000Z</time>
      </trkpt>
      <trkpt lat="43.61823" lon="3.83186">
        <ele>73</ele>
        <time>2020-09-26T11:56:05.000Z</time>
      </trkpt>
      <trkpt lat="43.61818" lon="3.83182">
        <ele>73</ele>
        <time>2020-09-26T11:56:06.000Z</time>
      </trkpt>
      <trkpt lat="43.61813" lon="3.83179">
        <ele>73</ele>
        <time>2020-09-26T11:56:07.000Z</time>
      </trkpt>
      <trkpt lat="43.61808" lon="3.83176">
        <ele>73</ele>
        <time>2020-09-26T11:56:08.000Z</time>
      </trkpt>
      <trkpt lat="43.61803" lon="3.83173">
        <ele>73</ele>
        <time>2020-09-26T11:56:09.000Z</time>
      </trkpt>
      <trkpt lat="43.61798" lon="3.83169">
        <ele>73</ele>
        <time>2020-09-26T11:56:10.000Z</time>
      </trkpt>
      <trkpt lat="43.61793" lon="3.83166">
        <ele>73</ele>
        <time>2020-09-26T11:56:11.000Z</time>
      </trkpt>
      <trkpt lat="43.61788" lon="3.83163">
        <ele>73</ele>
        <time>2020-09-26T11:56:12.000Z</time>
      </trkpt>
      <trkpt lat="43.61783" lon="3.8316">
        <ele>73</ele>
        <time>2020-09-26T11:56:13.000Z</time>
      </trkpt>
      <trkpt lat="43.61778" lon="3.83157">
        <ele>73</ele>
        <time>2020-09-26T11:56:14.000Z</time>
      </trkpt>
      <trkpt lat="43.61774" lon="3.83154">
        <ele>73</ele>
        <time>2020-09-26T11:56:15.000Z</time>
      </trkpt>
      <trkpt lat="43.61769" lon="3.8315">
        <ele>73</ele>
        <time>2020-09-26T11:56:16.000Z</time>
      </trkpt>
      <trkpt lat="43.61764" lon="3.83147">
        <ele>73</ele>
        <time>2020-09-26T11:56:17.000Z</time>
      </trkpt>
      <trkpt lat="43.6176" lon="3.83143">
        <ele>73</ele>
        <time>2020-09-26T11:56:18.000Z</time>
      </trkpt>
      <trkpt lat="43.61755" lon="3.8314">
        <ele>73</ele>
        <time>2020-09-26T11:56:19.000Z</time>
      </trkpt>
      <trkpt lat="43.61751" lon="3.83137">
        <ele>73</ele>
        <time>2020-09-26T11:56:20.000Z</time>
      </trkpt>
      <trkpt lat="43.61747" lon="3.83135">
        <ele>73</ele>
        <time>2020-09-26T11:56:21.000Z</time>
      </trkpt>
      <trkpt lat="43.61742" lon="3.83132">
        <ele>73</ele>
        <time>2020-09-26T11:56:22.000Z</time>
      </trkpt>
      <trkpt lat="43.61738" lon="3.83129">
        <ele>73</ele>
        <time>2020-09-26T11:56:23.000Z</time>
      </trkpt>
      <trkpt lat="43.61734" lon="3.83127">
        <ele>73</ele>
        <time>2020-09-26T11:56:24.000Z</time>
      </trkpt>
      <trkpt lat="43.61729" lon="3.83124">
        <ele>73</ele>
        <time>2020-09-26T11:56:25.000Z</time>
      </trkpt>
      <trkpt lat="43.61725" lon="3.83121">
        <ele>73</ele>
        <time>2020-09-26T11:56:26.000Z</time>
      </trkpt>
      <trkpt lat="43.61721" lon="3.83117">
        <ele>73</ele>
        <time>2020-09-26T11:56:27.000Z</time>
      </trkpt>
      <trkpt lat="43.61716" lon="3.83113">
        <ele>73</ele>
        <time>2020-09-26T11:56:28.000Z</time>
      </trkpt>
      <trkpt lat="43.61712" lon="3.8311">
        <ele>73.09500032</ele>
        <time>2020-09-26T11:56:29.000Z</time>
      </trkpt>
      <trkpt lat="43.61708" lon="3.83106">
        <ele>73.19500032</ele>
        <time>2020-09-26T11:56:30.000Z</time>
      </trkpt>
      <trkpt lat="43.61704" lon="3.83102">
        <ele>73.29500032</ele>
        <time>2020-09-26T11:56:31.000Z</time>
      </trkpt>
      <trkpt lat="43.617" lon="3.83099">
        <ele>73.39500032</ele>
        <time>2020-09-26T11:56:32.000Z</time>
      </trkpt>
      <trkpt lat="43.61696" lon="3.83094">
        <ele>73.49500032</ele>
        <time>2020-09-26T11:56:33.000Z</time>
      </trkpt>
      <trkpt lat="43.61691" lon="3.83091">
        <ele>73.59500032</ele>
        <time>2020-09-26T11:56:34.000Z</time>
      </trkpt>
      <trkpt lat="43.61687" lon="3.83087">
        <ele>73.69500032</ele>
        <time>2020-09-26T11:56:35.000Z</time>
      </trkpt>
      <trkpt lat="43.61683" lon="3.83083">
        <ele>73.79500032</ele>
        <time>2020-09-26T11:56:36.000Z</time>
      </trkpt>
      <trkpt lat="43.61679" lon="3.83079">
        <ele>73.89500032</ele>
        <time>2020-09-26T11:56:37.000Z</time>
      </trkpt>
      <trkpt lat="43.61675" lon="3.83075">
        <ele>73.99500032</ele>
        <time>2020-09-26T11:56:38.000Z</time>
      </trkpt>
      <trkpt lat="43.61671" lon="3.83071">
        <ele>73.80999936</ele>
        <time>2020-09-26T11:56:39.000Z</time>
      </trkpt>
      <trkpt lat="43.61667" lon="3.83067">
        <ele>73.60999936</ele>
        <time>2020-09-26T11:56:40.000Z</time>
      </trkpt>
      <trkpt lat="43.61663" lon="3.83063">
        <ele>73.40999936</ele>
        <time>2020-09-26T11:56:41.000Z</time>
      </trkpt>
      <trkpt lat="43.61659" lon="3.8306">
        <ele>73.20999936</ele>
        <time>2020-09-26T11:56:42.000Z</time>
      </trkpt>
      <trkpt lat="43.61655" lon="3.83056">
        <ele>73.00999936</ele>
        <time>2020-09-26T11:56:43.000Z</time>
      </trkpt>
      <trkpt lat="43.61651" lon="3.83052">
        <ele>72.80999936</ele>
        <time>2020-09-26T11:56:44.000Z</time>
      </trkpt>
      <trkpt lat="43.61647" lon="3.83049">
        <ele>72.60999936</ele>
        <time>2020-09-26T11:56:45.000Z</time>
      </trkpt>
      <trkpt lat="43.61644" lon="3.83045">
        <ele>72.40999936</ele>
        <time>2020-09-26T11:56:46.000Z</time>
      </trkpt>
      <trkpt lat="43.6164" lon="3.83043">
        <ele>72.20999936</ele>
        <time>2020-09-26T11:56:47.000Z</time>
      </trkpt>
      <trkpt lat="43.61636" lon="3.83041">
        <ele>72.00999936</ele>
        <time>2020-09-26T11:56:48.000Z</time>
      </trkpt>
      <trkpt lat="43.61632" lon="3.83038">
        <ele>71.90499968</ele>
        <time>2020-09-26T11:56:49.000Z</time>
      </trkpt>
      <trkpt lat="43.61628" lon="3.83036">
        <ele>71.80499968</ele>
        <time>2020-09-26T11:56:50.000Z</time>
      </trkpt>
      <trkpt lat="43.61624" lon="3.83034">
        <ele>71.70499968</ele>
        <time>2020-09-26T11:56:51.000Z</time>
      </trkpt>
      <trkpt lat="43.6162" lon="3.83032">
        <ele>71.60499968</ele>
        <time>2020-09-26T11:56:52.000Z</time>
      </trkpt>
      <trkpt lat="43.61616" lon="3.83029">
        <ele>71.50499968</ele>
        <time>2020-09-26T11:56:53.000Z</time>
      </trkpt>
      <trkpt lat="43.61612" lon="3.83027">
        <ele>71.40499968</ele>
        <time>2020-09-26T11:56:54.000Z</time>
      </trkpt>
      <trkpt lat="43.61608" lon="3.83025">
        <ele>71.30499968</ele>
        <time>2020-09-26T11:56:55.000Z</time>
      </trkpt>
      <trkpt lat="43.61605" lon="3.83022">
        <ele>71.20499968</ele>
        <time>2020-09-26T11:56:56.000Z</time>
      </trkpt>
      <trkpt lat="43.61601" lon="3.83019">
        <ele>71.10499968</ele>
        <time>2020-09-26T11:56:57.000Z</time>
      </trkpt>
      <trkpt lat="43.61597" lon="3.83016">
        <ele>71.00499968</ele>
        <time>2020-09-26T11:56:58.000Z</time>
      </trkpt>
      <trkpt lat="43.61593" lon="3.83014">
        <ele>70.80999936</ele>
        <time>2020-09-26T11:56:59.000Z</time>
      </trkpt>
      <trkpt lat="43.61589" lon="3.83011">
        <ele>70.60999936</ele>
        <time>2020-09-26T11:57:00.000Z</time>
      </trkpt>
      <trkpt lat="43.61584" lon="3.83007">
        <ele>70.40999936</ele>
        <time>2020-09-26T11:57:01.000Z</time>
      </trkpt>
      <trkpt lat="43.61579" lon="3.83003">
        <ele>70.20999936</ele>
        <time>2020-09-26T11:57:02.000Z</time>
      </trkpt>
      <trkpt lat="43.61575" lon="3.82999">
        <ele>70.00999936</ele>
        <time>2020-09-26T11:57:03.000Z</time>
      </trkpt>
      <trkpt lat="43.6157" lon="3.82995">
        <ele>69.80999936</ele>
        <time>2020-09-26T11:57:04.000Z</time>
      </trkpt>
      <trkpt lat="43.61566" lon="3.82991">
        <ele>69.60999936</ele>
        <time>2020-09-26T11:57:05.000Z</time>
      </trkpt>
      <trkpt lat="43.61561" lon="3.82988">
        <ele>69.40999936</ele>
        <time>2020-09-26T11:57:06.000Z</time>
      </trkpt>
      <trkpt lat="43.61556" lon="3.82984">
        <ele>69.20999936</ele>
        <time>2020-09-26T11:57:07.000Z</time>
      </trkpt>
      <trkpt lat="43.61551" lon="3.8298">
        <ele>69.00999936</ele>
        <time>2020-09-26T11:57:08.000Z</time>
      </trkpt>
      <trkpt lat="43.61547" lon="3.82976">
        <ele>68.90499968</ele>
        <time>2020-09-26T11:57:09.000Z</time>
      </trkpt>
      <trkpt lat="43.61542" lon="3.82973">
        <ele>68.80499968</ele>
        <time>2020-09-26T11:57:10.000Z</time>
      </trkpt>
      <trkpt lat="43.61537" lon="3.8297">
        <ele>68.70499968</ele>
        <time>2020-09-26T11:57:11.000Z</time>
      </trkpt>
      <trkpt lat="43.61533" lon="3.82966">
        <ele>68.60499968</ele>
        <time>2020-09-26T11:57:12.000Z</time>
      </trkpt>
      <trkpt lat="43.6153" lon="3.82962">
        <ele>68.50499968</ele>
        <time>2020-09-26T11:57:13.000Z</time>
      </trkpt>
      <trkpt lat="43.61526" lon="3.82958">
        <ele>68.40499968</ele>
        <time>2020-09-26T11:57:14.000Z</time>
      </trkpt>
      <trkpt lat="43.61521" lon="3.82954">
        <ele>68.30499968</ele>
        <time>2020-09-26T11:57:15.000Z</time>
      </trkpt>
      <trkpt lat="43.61517" lon="3.82951">
        <ele>68.20499968</ele>
        <time>2020-09-26T11:57:16.000Z</time>
      </trkpt>
      <trkpt lat="43.61512" lon="3.82947">
        <ele>68.10499968</ele>
        <time>2020-09-26T11:57:17.000Z</time>
      </trkpt>
      <trkpt lat="43.61508" lon="3.82943">
        <ele>68.00499968</ele>
        <time>2020-09-26T11:57:18.000Z</time>
      </trkpt>
      <trkpt lat="43.61503" lon="3.8294">
        <ele>68</ele>
        <time>2020-09-26T11:57:19.000Z</time>
      </trkpt>
      <trkpt lat="43.61499" lon="3.82937">
        <ele>68</ele>
        <time>2020-09-26T11:57:20.000Z</time>
      </trkpt>
      <trkpt lat="43.61495" lon="3.82933">
        <ele>68</ele>
        <time>2020-09-26T11:57:21.000Z</time>
      </trkpt>
      <trkpt lat="43.61491" lon="3.8293">
        <ele>68</ele>
        <time>2020-09-26T11:57:22.000Z</time>
      </trkpt>
      <trkpt lat="43.61487" lon="3.82927">
        <ele>68</ele>
        <time>2020-09-26T11:57:23.000Z</time>
      </trkpt>
      <trkpt lat="43.61483" lon="3.82925">
        <ele>68</ele>
        <time>2020-09-26T11:57:24.000Z</time>
      </trkpt>
      <trkpt lat="43.6148" lon="3.82922">
        <ele>68</ele>
        <time>2020-09-26T11:57:25.000Z</time>
      </trkpt>
      <trkpt lat="43.61476" lon="3.8292">
        <ele>68</ele>
        <time>2020-09-26T11:57:26.000Z</time>
      </trkpt>
      <trkpt lat="43.61473" lon="3.82917">
        <ele>68</ele>
        <time>2020-09-26T11:57:27.000Z</time>
      </trkpt>
      <trkpt lat="43.6147" lon="3.82916">
        <ele>68</ele>
        <time>2020-09-26T11:57:28.000Z</time>
      </trkpt>
      <trkpt lat="43.61467" lon="3.82915">
        <ele>68.19000064</ele>
        <time>2020-09-26T11:57:29.000Z</time>
      </trkpt>
      <trkpt lat="43.61466" lon="3.82914">
        <ele>68.39000064</ele>
        <time>2020-09-26T11:57:30.000Z</time>
      </trkpt>
      <trkpt lat="43.61464" lon="3.82913">
        <ele>68.79000064</ele>
        <time>2020-09-26T11:57:32.000Z</time>
      </trkpt>
      <trkpt lat="43.6146" lon="3.82911">
        <ele>69.59000064</ele>
        <time>2020-09-26T11:57:36.000Z</time>
      </trkpt>
      <trkpt lat="43.61459" lon="3.82909">
        <ele>69.79000064</ele>
        <time>2020-09-26T11:57:37.000Z</time>
      </trkpt>
      <trkpt lat="43.61458" lon="3.82906">
        <ele>69.99000064</ele>
        <time>2020-09-26T11:57:38.000Z</time>
      </trkpt>
      <trkpt lat="43.61457" lon="3.82903">
        <ele>70</ele>
        <time>2020-09-26T11:57:39.000Z</time>
      </trkpt>
      <trkpt lat="43.61455" lon="3.82901">
        <ele>70</ele>
        <time>2020-09-26T11:57:40.000Z</time>
      </trkpt>
      <trkpt lat="43.61454" lon="3.82899">
        <ele>70</ele>
        <time>2020-09-26T11:57:41.000Z</time>
      </trkpt>
      <trkpt lat="43.61453" lon="3.82897">
        <ele>70</ele>
        <time>2020-09-26T11:57:42.000Z</time>
      </trkpt>
      <trkpt lat="43.61451" lon="3.82896">
        <ele>70</ele>
        <time>2020-09-26T11:57:43.000Z</time>
      </trkpt>
      <trkpt lat="43.61448" lon="3.82894">
        <ele>70</ele>
        <time>2020-09-26T11:57:44.000Z</time>
      </trkpt>
      <trkpt lat="43.61446" lon="3.82892">
        <ele>70</ele>
        <time>2020-09-26T11:57:45.000Z</time>
      </trkpt>
      <trkpt lat="43.61445" lon="3.82889">
        <ele>70</ele>
        <time>2020-09-26T11:57:46.000Z</time>
      </trkpt>
      <trkpt lat="43.61444" lon="3.82885">
        <ele>70</ele>
        <time>2020-09-26T11:57:47.000Z</time>
      </trkpt>
      <trkpt lat="43.61443" lon="3.82883">
        <ele>70</ele>
        <time>2020-09-26T11:57:48.000Z</time>
      </trkpt>
      <trkpt lat="43.61442" lon="3.82881">
        <ele>69.90499968</ele>
        <time>2020-09-26T11:57:49.000Z</time>
      </trkpt>
      <trkpt lat="43.61441" lon="3.82877">
        <ele>69.70499968</ele>
        <time>2020-09-26T11:57:51.000Z</time>
      </trkpt>
      <trkpt lat="43.61439" lon="3.82875">
        <ele>69.50499968</ele>
        <time>2020-09-26T11:57:53.000Z</time>
      </trkpt>
      <trkpt lat="43.61437" lon="3.82876">
        <ele>69.40499968</ele>
        <time>2020-09-26T11:57:54.000Z</time>
      </trkpt>
      <trkpt lat="43.61434" lon="3.82878">
        <ele>69.30499968</ele>
        <time>2020-09-26T11:57:55.000Z</time>
      </trkpt>
      <trkpt lat="43.61432" lon="3.8288">
        <ele>69.20499968</ele>
        <time>2020-09-26T11:57:56.000Z</time>
      </trkpt>
      <trkpt lat="43.6143" lon="3.82881">
        <ele>69.10499968</ele>
        <time>2020-09-26T11:57:57.000Z</time>
      </trkpt>
      <trkpt lat="43.61427" lon="3.82882">
        <ele>69.00499968</ele>
        <time>2020-09-26T11:57:58.000Z</time>
      </trkpt>
      <trkpt lat="43.61425" lon="3.82883">
        <ele>69.19000064</ele>
        <time>2020-09-26T11:57:59.000Z</time>
      </trkpt>
      <trkpt lat="43.61423" lon="3.82884">
        <ele>69.39000064</ele>
        <time>2020-09-26T11:58:00.000Z</time>
      </trkpt>
      <trkpt lat="43.61423" lon="3.82886">
        <ele>70.477210489832</ele>
        <time>2020-09-26T11:58:10.000Z</time>
      </trkpt>
      <trkpt lat="43.61422" lon="3.82887">
        <ele>70</ele>
        <time>2020-09-26T11:58:12.000Z</time>
      </trkpt>
      <trkpt lat="43.61421" lon="3.82889">
        <ele>70</ele>
        <time>2020-09-26T11:58:16.000Z</time>
      </trkpt>
      <trkpt lat="43.61421" lon="3.8289">
        <ele>70</ele>
        <time>2020-09-26T11:58:17.000Z</time>
      </trkpt>
      <trkpt lat="43.61421" lon="3.8289">
        <ele>70</ele>
        <time>2020-09-26T11:58:20.000Z</time>
      </trkpt>
      <trkpt lat="43.61424" lon="3.82883">
        <ele>69.016441751155</ele>
        <time>2020-09-26T11:58:50.000Z</time>
      </trkpt>
      <trkpt lat="43.61426" lon="3.8288">
        <ele>69</ele>
        <time>2020-09-26T11:58:51.000Z</time>
      </trkpt>
      <trkpt lat="43.61413" lon="3.82886">
        <ele>69</ele>
        <time>2020-09-26T11:59:10.000Z</time>
      </trkpt>
      <trkpt lat="43.61392" lon="3.82798">
        <ele>68.617618632223</ele>
        <time>2020-09-26T12:00:04.000Z</time>
      </trkpt>
      <trkpt lat="43.61401" lon="3.82793">
        <ele>68.424007969944</ele>
        <time>2020-09-26T12:00:06.000Z</time>
      </trkpt>
      <trkpt lat="43.61414" lon="3.82797">
        <ele>66.910041193009</ele>
        <time>2020-09-26T12:00:11.000Z</time>
      </trkpt>
      <trkpt lat="43.61416" lon="3.8281">
        <ele>65.152024969952</ele>
        <time>2020-09-26T12:00:12.000Z</time>
      </trkpt>
      <trkpt lat="43.61421" lon="3.82823">
        <ele>59.877976300783</ele>
        <time>2020-09-26T12:00:15.000Z</time>
      </trkpt>
      <trkpt lat="43.61424" lon="3.82838">
        <ele>54.603927631614</ele>
        <time>2020-09-26T12:00:18.000Z</time>
      </trkpt>
      <trkpt lat="43.61425" lon="3.82851">
        <ele>50.80499968</ele>
        <time>2020-09-26T12:00:22.000Z</time>
      </trkpt>
      <trkpt lat="43.61424" lon="3.82856">
        <ele>50.10499968</ele>
        <time>2020-09-26T12:00:29.000Z</time>
      </trkpt>
      <trkpt lat="43.61424" lon="3.8286">
        <ele>50.95641798076</ele>
        <time>2020-09-26T12:00:34.000Z</time>
      </trkpt>
      <trkpt lat="43.61425" lon="3.82863">
        <ele>51</ele>
        <time>2020-09-26T12:00:37.000Z</time>
      </trkpt>
      <trkpt lat="43.61426" lon="3.82866">
        <ele>53.286579512195</ele>
        <time>2020-09-26T12:00:40.000Z</time>
      </trkpt>
      <trkpt lat="43.61426" lon="3.82871">
        <ele>55.115847804878</ele>
        <time>2020-09-26T12:00:42.000Z</time>
      </trkpt>
      <trkpt lat="43.61426" lon="3.82876">
        <ele>56.030481951219</ele>
        <time>2020-09-26T12:00:43.000Z</time>
      </trkpt>
      <trkpt lat="43.61426" lon="3.82879">
        <ele>56.945116097561</ele>
        <time>2020-09-26T12:00:44.000Z</time>
      </trkpt>
      <trkpt lat="43.61424" lon="3.82881">
        <ele>59.689018536585</ele>
        <time>2020-09-26T12:00:47.000Z</time>
      </trkpt>
      <trkpt lat="43.61424" lon="3.82883">
        <ele>63.918554814197</ele>
        <time>2020-09-26T12:00:56.000Z</time>
      </trkpt>
      <trkpt lat="43.61416" lon="3.82886">
        <ele>64.857913093525</ele>
        <time>2020-09-26T12:01:01.000Z</time>
      </trkpt>
      <trkpt lat="43.61413" lon="3.82888">
        <ele>65.128479745425</ele>
        <time>2020-09-26T12:01:03.000Z</time>
      </trkpt>
      <trkpt lat="43.61412" lon="3.8289">
        <ele>65.235546199946</ele>
        <time>2020-09-26T12:01:04.000Z</time>
      </trkpt>
      <trkpt lat="43.61409" lon="3.82892">
        <ele>65.342612654467</ele>
        <time>2020-09-26T12:01:05.000Z</time>
      </trkpt>
      <trkpt lat="43.61406" lon="3.82894">
        <ele>65.449679108988</ele>
        <time>2020-09-26T12:01:06.000Z</time>
      </trkpt>
      <trkpt lat="43.61404" lon="3.82896">
        <ele>65.556745563509</ele>
        <time>2020-09-26T12:01:07.000Z</time>
      </trkpt>
      <trkpt lat="43.614" lon="3.82896">
        <ele>65.66381201803</ele>
        <time>2020-09-26T12:01:08.000Z</time>
      </trkpt>
      <trkpt lat="43.61398" lon="3.82898">
        <ele>65.770878472551</ele>
        <time>2020-09-26T12:01:09.000Z</time>
      </trkpt>
      <trkpt lat="43.61395" lon="3.82899">
        <ele>65.877944927071</ele>
        <time>2020-09-26T12:01:10.000Z</time>
      </trkpt>
      <trkpt lat="43.61392" lon="3.829">
        <ele>65.985011381592</ele>
        <time>2020-09-26T12:01:11.000Z</time>
      </trkpt>
      <trkpt lat="43.61389" lon="3.82901">
        <ele>66.252942741405</ele>
        <time>2020-09-26T12:01:12.000Z</time>
      </trkpt>
      <trkpt lat="43.61386" lon="3.82902">
        <ele>66.547060019376</ele>
        <time>2020-09-26T12:01:13.000Z</time>
      </trkpt>
      <trkpt lat="43.61383" lon="3.82903">
        <ele>66.841177297346</ele>
        <time>2020-09-26T12:01:14.000Z</time>
      </trkpt>
      <trkpt lat="43.6138" lon="3.82905">
        <ele>67.135294575317</ele>
        <time>2020-09-26T12:01:15.000Z</time>
      </trkpt>
      <trkpt lat="43.61377" lon="3.82907">
        <ele>67.429411853287</ele>
        <time>2020-09-26T12:01:16.000Z</time>
      </trkpt>
      <trkpt lat="43.61374" lon="3.82909">
        <ele>67.723529131258</ele>
        <time>2020-09-26T12:01:17.000Z</time>
      </trkpt>
      <trkpt lat="43.61372" lon="3.82911">
        <ele>68.017646409228</ele>
        <time>2020-09-26T12:01:18.000Z</time>
      </trkpt>
      <trkpt lat="43.6137" lon="3.82913">
        <ele>68.311763687199</ele>
        <time>2020-09-26T12:01:19.000Z</time>
      </trkpt>
      <trkpt lat="43.61368" lon="3.82916">
        <ele>68.605880965169</ele>
        <time>2020-09-26T12:01:20.000Z</time>
      </trkpt>
      <trkpt lat="43.61367" lon="3.82919">
        <ele>68.89999824314</ele>
        <time>2020-09-26T12:01:21.000Z</time>
      </trkpt>
      <trkpt lat="43.61367" lon="3.82922">
        <ele>68.932029428165</ele>
        <time>2020-09-26T12:01:22.000Z</time>
      </trkpt>
      <trkpt lat="43.61366" lon="3.82925">
        <ele>68.829042714604</ele>
        <time>2020-09-26T12:01:23.000Z</time>
      </trkpt>
      <trkpt lat="43.61365" lon="3.82929">
        <ele>68.726056001044</ele>
        <time>2020-09-26T12:01:24.000Z</time>
      </trkpt>
      <trkpt lat="43.61365" lon="3.82932">
        <ele>68.623069287484</ele>
        <time>2020-09-26T12:01:25.000Z</time>
      </trkpt>
      <trkpt lat="43.61363" lon="3.82935">
        <ele>68.520082573923</ele>
        <time>2020-09-26T12:01:26.000Z</time>
      </trkpt>
      <trkpt lat="43.61361" lon="3.82937">
        <ele>68.417095860362</ele>
        <time>2020-09-26T12:01:27.000Z</time>
      </trkpt>
      <trkpt lat="43.61358" lon="3.82937">
        <ele>68.314109146802</ele>
        <time>2020-09-26T12:01:28.000Z</time>
      </trkpt>
      <trkpt lat="43.61355" lon="3.82936">
        <ele>68.211122433241</ele>
        <time>2020-09-26T12:01:29.000Z</time>
      </trkpt>
      <trkpt lat="43.61351" lon="3.82934">
        <ele>68.108135719681</ele>
        <time>2020-09-26T12:01:30.000Z</time>
      </trkpt>
      <trkpt lat="43.61347" lon="3.82932">
        <ele>68.005149006121</ele>
        <time>2020-09-26T12:01:31.000Z</time>
      </trkpt>
      <trkpt lat="43.61344" lon="3.8293">
        <ele>68</ele>
        <time>2020-09-26T12:01:32.000Z</time>
      </trkpt>
      <trkpt lat="43.6134" lon="3.82928">
        <ele>68</ele>
        <time>2020-09-26T12:01:33.000Z</time>
      </trkpt>
      <trkpt lat="43.61337" lon="3.82926">
        <ele>68</ele>
        <time>2020-09-26T12:01:34.000Z</time>
      </trkpt>
      <trkpt lat="43.61333" lon="3.82922">
        <ele>68</ele>
        <time>2020-09-26T12:01:35.000Z</time>
      </trkpt>
      <trkpt lat="43.61329" lon="3.8292">
        <ele>68</ele>
        <time>2020-09-26T12:01:36.000Z</time>
      </trkpt>
      <trkpt lat="43.61325" lon="3.82917">
        <ele>68</ele>
        <time>2020-09-26T12:01:37.000Z</time>
      </trkpt>
      <trkpt lat="43.61321" lon="3.82915">
        <ele>68</ele>
        <time>2020-09-26T12:01:38.000Z</time>
      </trkpt>
      <trkpt lat="43.61318" lon="3.82912">
        <ele>68</ele>
        <time>2020-09-26T12:01:39.000Z</time>
      </trkpt>
      <trkpt lat="43.61315" lon="3.8291">
        <ele>68</ele>
        <time>2020-09-26T12:01:40.000Z</time>
      </trkpt>
      <trkpt lat="43.61313" lon="3.8291">
        <ele>68</ele>
        <time>2020-09-26T12:01:41.000Z</time>
      </trkpt>
      <trkpt lat="43.6131" lon="3.82909">
        <ele>68.18800128</ele>
        <time>2020-09-26T12:01:42.000Z</time>
      </trkpt>
      <trkpt lat="43.61307" lon="3.82909">
        <ele>68.38800128</ele>
        <time>2020-09-26T12:01:43.000Z</time>
      </trkpt>
      <trkpt lat="43.61304" lon="3.82908">
        <ele>68.58800128</ele>
        <time>2020-09-26T12:01:44.000Z</time>
      </trkpt>
      <trkpt lat="43.61301" lon="3.82907">
        <ele>68.78800128</ele>
        <time>2020-09-26T12:01:45.000Z</time>
      </trkpt>
      <trkpt lat="43.61298" lon="3.82907">
        <ele>68.98800128</ele>
        <time>2020-09-26T12:01:46.000Z</time>
      </trkpt>
      <trkpt lat="43.61295" lon="3.82906">
        <ele>69.18800128</ele>
        <time>2020-09-26T12:01:47.000Z</time>
      </trkpt>
      <trkpt lat="43.61292" lon="3.82906">
        <ele>69.38800128</ele>
        <time>2020-09-26T12:01:48.000Z</time>
      </trkpt>
      <trkpt lat="43.61289" lon="3.82907">
        <ele>69.58800128</ele>
        <time>2020-09-26T12:01:49.000Z</time>
      </trkpt>
      <trkpt lat="43.61286" lon="3.82907">
        <ele>69.78800128</ele>
        <time>2020-09-26T12:01:50.000Z</time>
      </trkpt>
      <trkpt lat="43.61283" lon="3.82908">
        <ele>69.98800128</ele>
        <time>2020-09-26T12:01:51.000Z</time>
      </trkpt>
      <trkpt lat="43.61281" lon="3.8291">
        <ele>69.811810590811</ele>
        <time>2020-09-26T12:01:52.000Z</time>
      </trkpt>
      <trkpt lat="43.61278" lon="3.82911">
        <ele>69.611610454739</ele>
        <time>2020-09-26T12:01:53.000Z</time>
      </trkpt>
      <trkpt lat="43.61276" lon="3.82912">
        <ele>69.411410318667</ele>
        <time>2020-09-26T12:01:54.000Z</time>
      </trkpt>
      <trkpt lat="43.61273" lon="3.82915">
        <ele>69.211210182595</ele>
        <time>2020-09-26T12:01:55.000Z</time>
      </trkpt>
      <trkpt lat="43.61271" lon="3.82918">
        <ele>69.011010046523</ele>
        <time>2020-09-26T12:01:56.000Z</time>
      </trkpt>
      <trkpt lat="43.61268" lon="3.82922">
        <ele>68.810809910451</ele>
        <time>2020-09-26T12:01:57.000Z</time>
      </trkpt>
      <trkpt lat="43.61264" lon="3.82926">
        <ele>68.610609774379</ele>
        <time>2020-09-26T12:01:58.000Z</time>
      </trkpt>
      <trkpt lat="43.61261" lon="3.82931">
        <ele>68.410409638307</ele>
        <time>2020-09-26T12:01:59.000Z</time>
      </trkpt>
      <trkpt lat="43.61259" lon="3.82934">
        <ele>68.210209502235</ele>
        <time>2020-09-26T12:02:00.000Z</time>
      </trkpt>
      <trkpt lat="43.61256" lon="3.82937">
        <ele>68.010009366163</ele>
        <time>2020-09-26T12:02:01.000Z</time>
      </trkpt>
      <trkpt lat="43.61254" lon="3.82939">
        <ele>67.905094555075</ele>
        <time>2020-09-26T12:02:02.000Z</time>
      </trkpt>
      <trkpt lat="43.61251" lon="3.82942">
        <ele>67.805194423239</ele>
        <time>2020-09-26T12:02:03.000Z</time>
      </trkpt>
      <trkpt lat="43.61248" lon="3.82944">
        <ele>67.705294291403</ele>
        <time>2020-09-26T12:02:04.000Z</time>
      </trkpt>
      <trkpt lat="43.61246" lon="3.82945">
        <ele>67.605394159567</ele>
        <time>2020-09-26T12:02:05.000Z</time>
      </trkpt>
      <trkpt lat="43.61243" lon="3.82947">
        <ele>67.50549402773</ele>
        <time>2020-09-26T12:02:06.000Z</time>
      </trkpt>
      <trkpt lat="43.6124" lon="3.82948">
        <ele>67.405593895894</ele>
        <time>2020-09-26T12:02:07.000Z</time>
      </trkpt>
      <trkpt lat="43.61237" lon="3.82949">
        <ele>67.305693764058</ele>
        <time>2020-09-26T12:02:08.000Z</time>
      </trkpt>
      <trkpt lat="43.61233" lon="3.8295">
        <ele>67.205793632222</ele>
        <time>2020-09-26T12:02:09.000Z</time>
      </trkpt>
      <trkpt lat="43.61229" lon="3.82952">
        <ele>67.105893500386</ele>
        <time>2020-09-26T12:02:10.000Z</time>
      </trkpt>
      <trkpt lat="43.61225" lon="3.82953">
        <ele>67.005993368549</ele>
        <time>2020-09-26T12:02:11.000Z</time>
      </trkpt>
      <trkpt lat="43.61222" lon="3.82954">
        <ele>66.905905295406</ele>
        <time>2020-09-26T12:02:12.000Z</time>
      </trkpt>
      <trkpt lat="43.61218" lon="3.82955">
        <ele>66.80580522737</ele>
        <time>2020-09-26T12:02:13.000Z</time>
      </trkpt>
      <trkpt lat="43.61214" lon="3.82956">
        <ele>66.705705159334</ele>
        <time>2020-09-26T12:02:14.000Z</time>
      </trkpt>
      <trkpt lat="43.6121" lon="3.82958">
        <ele>66.605605091298</ele>
        <time>2020-09-26T12:02:15.000Z</time>
      </trkpt>
      <trkpt lat="43.61206" lon="3.82959">
        <ele>66.505505023262</ele>
        <time>2020-09-26T12:02:16.000Z</time>
      </trkpt>
      <trkpt lat="43.61203" lon="3.8296">
        <ele>66.405404955226</ele>
        <time>2020-09-26T12:02:17.000Z</time>
      </trkpt>
      <trkpt lat="43.61199" lon="3.82961">
        <ele>66.30530488719</ele>
        <time>2020-09-26T12:02:18.000Z</time>
      </trkpt>
      <trkpt lat="43.61196" lon="3.82961">
        <ele>66.205204819154</ele>
        <time>2020-09-26T12:02:19.000Z</time>
      </trkpt>
      <trkpt lat="43.61193" lon="3.82962">
        <ele>66.105104751118</ele>
        <time>2020-09-26T12:02:20.000Z</time>
      </trkpt>
      <trkpt lat="43.6119" lon="3.82961">
        <ele>66.005004683082</ele>
        <time>2020-09-26T12:02:21.000Z</time>
      </trkpt>
      <trkpt lat="43.61188" lon="3.82959">
        <ele>66</ele>
        <time>2020-09-26T12:02:22.000Z</time>
      </trkpt>
      <trkpt lat="43.61187" lon="3.82955">
        <ele>66</ele>
        <time>2020-09-26T12:02:23.000Z</time>
      </trkpt>
      <trkpt lat="43.61186" lon="3.8295">
        <ele>66</ele>
        <time>2020-09-26T12:02:24.000Z</time>
      </trkpt>
      <trkpt lat="43.61186" lon="3.82946">
        <ele>66</ele>
        <time>2020-09-26T12:02:25.000Z</time>
      </trkpt>
      <trkpt lat="43.61185" lon="3.82941">
        <ele>66</ele>
        <time>2020-09-26T12:02:26.000Z</time>
      </trkpt>
      <trkpt lat="43.61184" lon="3.82936">
        <ele>66</ele>
        <time>2020-09-26T12:02:27.000Z</time>
      </trkpt>
      <trkpt lat="43.61184" lon="3.8293">
        <ele>66</ele>
        <time>2020-09-26T12:02:28.000Z</time>
      </trkpt>
      <trkpt lat="43.61183" lon="3.82925">
        <ele>66</ele>
        <time>2020-09-26T12:02:29.000Z</time>
      </trkpt>
      <trkpt lat="43.61182" lon="3.8292">
        <ele>66</ele>
        <time>2020-09-26T12:02:30.000Z</time>
      </trkpt>
      <trkpt lat="43.61182" lon="3.82915">
        <ele>66</ele>
        <time>2020-09-26T12:02:31.000Z</time>
      </trkpt>
      <trkpt lat="43.6118" lon="3.82909">
        <ele>65.80999936</ele>
        <time>2020-09-26T12:02:32.000Z</time>
      </trkpt>
      <trkpt lat="43.61179" lon="3.82904">
        <ele>65.60999936</ele>
        <time>2020-09-26T12:02:33.000Z</time>
      </trkpt>
      <trkpt lat="43.61177" lon="3.829">
        <ele>65.40999936</ele>
        <time>2020-09-26T12:02:34.000Z</time>
      </trkpt>
      <trkpt lat="43.61174" lon="3.82896">
        <ele>65.20999936</ele>
        <time>2020-09-26T12:02:35.000Z</time>
      </trkpt>
      <trkpt lat="43.61171" lon="3.82893">
        <ele>65.00999936</ele>
        <time>2020-09-26T12:02:36.000Z</time>
      </trkpt>
      <trkpt lat="43.61168" lon="3.8289">
        <ele>64.80999936</ele>
        <time>2020-09-26T12:02:37.000Z</time>
      </trkpt>
      <trkpt lat="43.61165" lon="3.82887">
        <ele>64.60999936</ele>
        <time>2020-09-26T12:02:38.000Z</time>
      </trkpt>
      <trkpt lat="43.61162" lon="3.82885">
        <ele>64.40999936</ele>
        <time>2020-09-26T12:02:39.000Z</time>
      </trkpt>
      <trkpt lat="43.61159" lon="3.82884">
        <ele>64.20999936</ele>
        <time>2020-09-26T12:02:40.000Z</time>
      </trkpt>
      <trkpt lat="43.61156" lon="3.82883">
        <ele>64.00999936</ele>
        <time>2020-09-26T12:02:41.000Z</time>
      </trkpt>
      <trkpt lat="43.61154" lon="3.82881">
        <ele>63.90499968</ele>
        <time>2020-09-26T12:02:42.000Z</time>
      </trkpt>
      <trkpt lat="43.61152" lon="3.82879">
        <ele>63.80499968</ele>
        <time>2020-09-26T12:02:43.000Z</time>
      </trkpt>
      <trkpt lat="43.61151" lon="3.82878">
        <ele>63.70499968</ele>
        <time>2020-09-26T12:02:44.000Z</time>
      </trkpt>
      <trkpt lat="43.61148" lon="3.82875">
        <ele>63.50499968</ele>
        <time>2020-09-26T12:02:46.000Z</time>
      </trkpt>
      <trkpt lat="43.61146" lon="3.82873">
        <ele>63.30499968</ele>
        <time>2020-09-26T12:02:48.000Z</time>
      </trkpt>
      <trkpt lat="43.61145" lon="3.82873">
        <ele>63</ele>
        <time>2020-09-26T12:02:54.000Z</time>
      </trkpt>
      <trkpt lat="43.6114" lon="3.82871">
        <ele>62.008903687151</ele>
        <time>2020-09-26T12:03:51.000Z</time>
      </trkpt>
      <trkpt lat="43.61137" lon="3.82869">
        <ele>61.949632721807</ele>
        <time>2020-09-26T12:03:52.000Z</time>
      </trkpt>
      <trkpt lat="43.61135" lon="3.82867">
        <ele>61.84470089224</ele>
        <time>2020-09-26T12:03:53.000Z</time>
      </trkpt>
      <trkpt lat="43.61132" lon="3.82864">
        <ele>61.739769062672</ele>
        <time>2020-09-26T12:03:54.000Z</time>
      </trkpt>
      <trkpt lat="43.61129" lon="3.82862">
        <ele>61.634837233104</ele>
        <time>2020-09-26T12:03:55.000Z</time>
      </trkpt>
      <trkpt lat="43.61126" lon="3.82859">
        <ele>61.529905403536</ele>
        <time>2020-09-26T12:03:56.000Z</time>
      </trkpt>
      <trkpt lat="43.61123" lon="3.82857">
        <ele>61.424973573968</ele>
        <time>2020-09-26T12:03:57.000Z</time>
      </trkpt>
      <trkpt lat="43.6112" lon="3.82854">
        <ele>61.3200417444</ele>
        <time>2020-09-26T12:03:58.000Z</time>
      </trkpt>
      <trkpt lat="43.61117" lon="3.82851">
        <ele>61.215109914832</ele>
        <time>2020-09-26T12:03:59.000Z</time>
      </trkpt>
      <trkpt lat="43.61114" lon="3.82849">
        <ele>61.110178085264</ele>
        <time>2020-09-26T12:04:00.000Z</time>
      </trkpt>
      <trkpt lat="43.61111" lon="3.82846">
        <ele>61.005246255696</ele>
        <time>2020-09-26T12:04:01.000Z</time>
      </trkpt>
      <trkpt lat="43.61108" lon="3.82843">
        <ele>61</ele>
        <time>2020-09-26T12:04:02.000Z</time>
      </trkpt>
      <trkpt lat="43.61105" lon="3.82841">
        <ele>61</ele>
        <time>2020-09-26T12:04:03.000Z</time>
      </trkpt>
      <trkpt lat="43.61102" lon="3.82839">
        <ele>61</ele>
        <time>2020-09-26T12:04:04.000Z</time>
      </trkpt>
      <trkpt lat="43.611" lon="3.82837">
        <ele>61</ele>
        <time>2020-09-26T12:04:05.000Z</time>
      </trkpt>
      <trkpt lat="43.61097" lon="3.82836">
        <ele>61</ele>
        <time>2020-09-26T12:04:06.000Z</time>
      </trkpt>
      <trkpt lat="43.61093" lon="3.82834">
        <ele>61</ele>
        <time>2020-09-26T12:04:07.000Z</time>
      </trkpt>
      <trkpt lat="43.6109" lon="3.82833">
        <ele>61</ele>
        <time>2020-09-26T12:04:08.000Z</time>
      </trkpt>
      <trkpt lat="43.61087" lon="3.82831">
        <ele>61</ele>
        <time>2020-09-26T12:04:09.000Z</time>
      </trkpt>
      <trkpt lat="43.61083" lon="3.8283">
        <ele>61</ele>
        <time>2020-09-26T12:04:10.000Z</time>
      </trkpt>
      <trkpt lat="43.6108" lon="3.82829">
        <ele>61</ele>
        <time>2020-09-26T12:04:11.000Z</time>
      </trkpt>
      <trkpt lat="43.61076" lon="3.82827">
        <ele>61.067970571835</ele>
        <time>2020-09-26T12:04:12.000Z</time>
      </trkpt>
      <trkpt lat="43.61073" lon="3.82825">
        <ele>61.170957285396</ele>
        <time>2020-09-26T12:04:13.000Z</time>
      </trkpt>
      <trkpt lat="43.6107" lon="3.82823">
        <ele>61.273943998956</ele>
        <time>2020-09-26T12:04:14.000Z</time>
      </trkpt>
      <trkpt lat="43.61066" lon="3.82821">
        <ele>61.376930712516</ele>
        <time>2020-09-26T12:04:15.000Z</time>
      </trkpt>
      <trkpt lat="43.61063" lon="3.82819">
        <ele>61.479917426077</ele>
        <time>2020-09-26T12:04:16.000Z</time>
      </trkpt>
      <trkpt lat="43.6106" lon="3.82818">
        <ele>61.582904139637</ele>
        <time>2020-09-26T12:04:17.000Z</time>
      </trkpt>
      <trkpt lat="43.61057" lon="3.82816">
        <ele>61.685890853198</ele>
        <time>2020-09-26T12:04:18.000Z</time>
      </trkpt>
      <trkpt lat="43.61054" lon="3.82814">
        <ele>61.788877566759</ele>
        <time>2020-09-26T12:04:19.000Z</time>
      </trkpt>
      <trkpt lat="43.61051" lon="3.82812">
        <ele>61.891864280319</ele>
        <time>2020-09-26T12:04:20.000Z</time>
      </trkpt>
      <trkpt lat="43.61048" lon="3.82811">
        <ele>61.99485099388</ele>
        <time>2020-09-26T12:04:21.000Z</time>
      </trkpt>
      <trkpt lat="43.61045" lon="3.82809">
        <ele>62.09500032</ele>
        <time>2020-09-26T12:04:22.000Z</time>
      </trkpt>
      <trkpt lat="43.61041" lon="3.82808">
        <ele>62.19500032</ele>
        <time>2020-09-26T12:04:23.000Z</time>
      </trkpt>
      <trkpt lat="43.61038" lon="3.82806">
        <ele>62.29500032</ele>
        <time>2020-09-26T12:04:24.000Z</time>
      </trkpt>
      <trkpt lat="43.61035" lon="3.82805">
        <ele>62.39500032</ele>
        <time>2020-09-26T12:04:25.000Z</time>
      </trkpt>
      <trkpt lat="43.61032" lon="3.82803">
        <ele>62.49500032</ele>
        <time>2020-09-26T12:04:26.000Z</time>
      </trkpt>
      <trkpt lat="43.6103" lon="3.82801">
        <ele>62.59500032</ele>
        <time>2020-09-26T12:04:27.000Z</time>
      </trkpt>
      <trkpt lat="43.61027" lon="3.828">
        <ele>62.69500032</ele>
        <time>2020-09-26T12:04:28.000Z</time>
      </trkpt>
      <trkpt lat="43.61024" lon="3.82798">
        <ele>62.79500032</ele>
        <time>2020-09-26T12:04:29.000Z</time>
      </trkpt>
      <trkpt lat="43.61021" lon="3.82797">
        <ele>62.89500032</ele>
        <time>2020-09-26T12:04:30.000Z</time>
      </trkpt>
      <trkpt lat="43.61018" lon="3.82795">
        <ele>62.99500032</ele>
        <time>2020-09-26T12:04:31.000Z</time>
      </trkpt>
      <trkpt lat="43.61015" lon="3.82793">
        <ele>63.09214383173</ele>
        <time>2020-09-26T12:04:32.000Z</time>
      </trkpt>
      <trkpt lat="43.61013" lon="3.82792">
        <ele>63.189137012101</ele>
        <time>2020-09-26T12:04:33.000Z</time>
      </trkpt>
      <trkpt lat="43.61011" lon="3.8279">
        <ele>63.286130192472</ele>
        <time>2020-09-26T12:04:34.000Z</time>
      </trkpt>
      <trkpt lat="43.61008" lon="3.82788">
        <ele>63.383123372842</ele>
        <time>2020-09-26T12:04:35.000Z</time>
      </trkpt>
      <trkpt lat="43.61006" lon="3.82788">
        <ele>63.480116553213</ele>
        <time>2020-09-26T12:04:36.000Z</time>
      </trkpt>
      <trkpt lat="43.61003" lon="3.82787">
        <ele>63.577109733584</ele>
        <time>2020-09-26T12:04:37.000Z</time>
      </trkpt>
      <trkpt lat="43.61" lon="3.82785">
        <ele>63.674102913954</ele>
        <time>2020-09-26T12:04:38.000Z</time>
      </trkpt>
      <trkpt lat="43.60998" lon="3.82784">
        <ele>63.771096094325</ele>
        <time>2020-09-26T12:04:39.000Z</time>
      </trkpt>
      <trkpt lat="43.60995" lon="3.82782">
        <ele>63.868089274696</ele>
        <time>2020-09-26T12:04:40.000Z</time>
      </trkpt>
      <trkpt lat="43.60993" lon="3.82781">
        <ele>63.965082455067</ele>
        <time>2020-09-26T12:04:41.000Z</time>
      </trkpt>
      <trkpt lat="43.6099" lon="3.8278">
        <ele>64.066047493432</ele>
        <time>2020-09-26T12:04:42.000Z</time>
      </trkpt>
      <trkpt lat="43.60988" lon="3.82779">
        <ele>64.169246701918</ele>
        <time>2020-09-26T12:04:43.000Z</time>
      </trkpt>
      <trkpt lat="43.60985" lon="3.82778">
        <ele>64.272445910405</ele>
        <time>2020-09-26T12:04:44.000Z</time>
      </trkpt>
      <trkpt lat="43.60983" lon="3.82777">
        <ele>64.375645118892</ele>
        <time>2020-09-26T12:04:45.000Z</time>
      </trkpt>
      <trkpt lat="43.60981" lon="3.82775">
        <ele>64.478844327379</ele>
        <time>2020-09-26T12:04:46.000Z</time>
      </trkpt>
      <trkpt lat="43.60978" lon="3.82774">
        <ele>64.582043535866</ele>
        <time>2020-09-26T12:04:47.000Z</time>
      </trkpt>
      <trkpt lat="43.60976" lon="3.82773">
        <ele>64.685242744353</ele>
        <time>2020-09-26T12:04:48.000Z</time>
      </trkpt>
      <trkpt lat="43.60974" lon="3.82772">
        <ele>64.788441952839</ele>
        <time>2020-09-26T12:04:49.000Z</time>
      </trkpt>
      <trkpt lat="43.60971" lon="3.82771">
        <ele>64.891641161326</ele>
        <time>2020-09-26T12:04:50.000Z</time>
      </trkpt>
      <trkpt lat="43.60969" lon="3.8277">
        <ele>64.994840369813</ele>
        <time>2020-09-26T12:04:51.000Z</time>
      </trkpt>
      <trkpt lat="43.60966" lon="3.82769">
        <ele>65.184825525292</ele>
        <time>2020-09-26T12:04:52.000Z</time>
      </trkpt>
      <trkpt lat="43.60964" lon="3.82768">
        <ele>65.379378054475</ele>
        <time>2020-09-26T12:04:53.000Z</time>
      </trkpt>
      <trkpt lat="43.60961" lon="3.82767">
        <ele>65.573930583658</ele>
        <time>2020-09-26T12:04:54.000Z</time>
      </trkpt>
      <trkpt lat="43.60959" lon="3.82766">
        <ele>65.76848311284</ele>
        <time>2020-09-26T12:04:55.000Z</time>
      </trkpt>
      <trkpt lat="43.60957" lon="3.82765">
        <ele>65.963035642023</ele>
        <time>2020-09-26T12:04:56.000Z</time>
      </trkpt>
      <trkpt lat="43.60954" lon="3.82764">
        <ele>66.157588171206</ele>
        <time>2020-09-26T12:04:57.000Z</time>
      </trkpt>
      <trkpt lat="43.60952" lon="3.82763">
        <ele>66.352140700389</ele>
        <time>2020-09-26T12:04:58.000Z</time>
      </trkpt>
      <trkpt lat="43.60949" lon="3.82761">
        <ele>66.546693229572</ele>
        <time>2020-09-26T12:04:59.000Z</time>
      </trkpt>
      <trkpt lat="43.60947" lon="3.8276">
        <ele>66.741245758755</ele>
        <time>2020-09-26T12:05:00.000Z</time>
      </trkpt>
      <trkpt lat="43.60945" lon="3.82759">
        <ele>66.935798287938</ele>
        <time>2020-09-26T12:05:01.000Z</time>
      </trkpt>
      <trkpt lat="43.60942" lon="3.82758">
        <ele>67.137860740741</ele>
        <time>2020-09-26T12:05:02.000Z</time>
      </trkpt>
      <trkpt lat="43.6094" lon="3.82757">
        <ele>67.343622057613</ele>
        <time>2020-09-26T12:05:03.000Z</time>
      </trkpt>
      <trkpt lat="43.60937" lon="3.82756">
        <ele>67.549383374486</ele>
        <time>2020-09-26T12:05:04.000Z</time>
      </trkpt>
      <trkpt lat="43.60935" lon="3.82755">
        <ele>67.755144691358</ele>
        <time>2020-09-26T12:05:05.000Z</time>
      </trkpt>
      <trkpt lat="43.60933" lon="3.82754">
        <ele>67.96090600823</ele>
        <time>2020-09-26T12:05:06.000Z</time>
      </trkpt>
      <trkpt lat="43.6093" lon="3.82753">
        <ele>68.166667325103</ele>
        <time>2020-09-26T12:05:07.000Z</time>
      </trkpt>
      <trkpt lat="43.60928" lon="3.82753">
        <ele>68.372428641975</ele>
        <time>2020-09-26T12:05:08.000Z</time>
      </trkpt>
      <trkpt lat="43.60925" lon="3.82753">
        <ele>68.578189958848</ele>
        <time>2020-09-26T12:05:09.000Z</time>
      </trkpt>
      <trkpt lat="43.60923" lon="3.82752">
        <ele>68.78395127572</ele>
        <time>2020-09-26T12:05:10.000Z</time>
      </trkpt>
      <trkpt lat="43.6092" lon="3.82751">
        <ele>68.989712592593</ele>
        <time>2020-09-26T12:05:11.000Z</time>
      </trkpt>
      <trkpt lat="43.60917" lon="3.8275">
        <ele>69.09500032</ele>
        <time>2020-09-26T12:05:12.000Z</time>
      </trkpt>
      <trkpt lat="43.60914" lon="3.82749">
        <ele>69.19500032</ele>
        <time>2020-09-26T12:05:13.000Z</time>
      </trkpt>
      <trkpt lat="43.60911" lon="3.82748">
        <ele>69.29500032</ele>
        <time>2020-09-26T12:05:14.000Z</time>
      </trkpt>
      <trkpt lat="43.60908" lon="3.82747">
        <ele>69.39500032</ele>
        <time>2020-09-26T12:05:15.000Z</time>
      </trkpt>
      <trkpt lat="43.60905" lon="3.82746">
        <ele>69.49500032</ele>
        <time>2020-09-26T12:05:16.000Z</time>
      </trkpt>
      <trkpt lat="43.60901" lon="3.82746">
        <ele>69.59500032</ele>
        <time>2020-09-26T12:05:17.000Z</time>
      </trkpt>
      <trkpt lat="43.60897" lon="3.82747">
        <ele>69.69500032</ele>
        <time>2020-09-26T12:05:18.000Z</time>
      </trkpt>
      <trkpt lat="43.60893" lon="3.82748">
        <ele>69.79500032</ele>
        <time>2020-09-26T12:05:19.000Z</time>
      </trkpt>
      <trkpt lat="43.60889" lon="3.82749">
        <ele>69.89500032</ele>
        <time>2020-09-26T12:05:20.000Z</time>
      </trkpt>
      <trkpt lat="43.60885" lon="3.82751">
        <ele>69.99500032</ele>
        <time>2020-09-26T12:05:21.000Z</time>
      </trkpt>
      <trkpt lat="43.60881" lon="3.82754">
        <ele>69.90499968</ele>
        <time>2020-09-26T12:05:22.000Z</time>
      </trkpt>
      <trkpt lat="43.60876" lon="3.82756">
        <ele>69.80499968</ele>
        <time>2020-09-26T12:05:23.000Z</time>
      </trkpt>
      <trkpt lat="43.60872" lon="3.82758">
        <ele>69.70499968</ele>
        <time>2020-09-26T12:05:24.000Z</time>
      </trkpt>
      <trkpt lat="43.60867" lon="3.8276">
        <ele>69.60499968</ele>
        <time>2020-09-26T12:05:25.000Z</time>
      </trkpt>
      <trkpt lat="43.60862" lon="3.82761">
        <ele>69.50499968</ele>
        <time>2020-09-26T12:05:26.000Z</time>
      </trkpt>
      <trkpt lat="43.60856" lon="3.82763">
        <ele>69.40499968</ele>
        <time>2020-09-26T12:05:27.000Z</time>
      </trkpt>
      <trkpt lat="43.60851" lon="3.82765">
        <ele>69.30499968</ele>
        <time>2020-09-26T12:05:28.000Z</time>
      </trkpt>
      <trkpt lat="43.60845" lon="3.82767">
        <ele>69.20499968</ele>
        <time>2020-09-26T12:05:29.000Z</time>
      </trkpt>
      <trkpt lat="43.6084" lon="3.82768">
        <ele>69.10499968</ele>
        <time>2020-09-26T12:05:30.000Z</time>
      </trkpt>
      <trkpt lat="43.60834" lon="3.82769">
        <ele>69.00499968</ele>
        <time>2020-09-26T12:05:31.000Z</time>
      </trkpt>
      <trkpt lat="43.60828" lon="3.82771">
        <ele>69</ele>
        <time>2020-09-26T12:05:32.000Z</time>
      </trkpt>
      <trkpt lat="43.60822" lon="3.82773">
        <ele>69</ele>
        <time>2020-09-26T12:05:33.000Z</time>
      </trkpt>
      <trkpt lat="43.60816" lon="3.82775">
        <ele>69</ele>
        <time>2020-09-26T12:05:34.000Z</time>
      </trkpt>
      <trkpt lat="43.6081" lon="3.82777">
        <ele>69</ele>
        <time>2020-09-26T12:05:35.000Z</time>
      </trkpt>
      <trkpt lat="43.60804" lon="3.8278">
        <ele>69</ele>
        <time>2020-09-26T12:05:36.000Z</time>
      </trkpt>
      <trkpt lat="43.60798" lon="3.82782">
        <ele>69</ele>
        <time>2020-09-26T12:05:37.000Z</time>
      </trkpt>
      <trkpt lat="43.60791" lon="3.82784">
        <ele>69</ele>
        <time>2020-09-26T12:05:38.000Z</time>
      </trkpt>
      <trkpt lat="43.60785" lon="3.82787">
        <ele>69</ele>
        <time>2020-09-26T12:05:39.000Z</time>
      </trkpt>
      <trkpt lat="43.60779" lon="3.8279">
        <ele>69</ele>
        <time>2020-09-26T12:05:40.000Z</time>
      </trkpt>
      <trkpt lat="43.60773" lon="3.82793">
        <ele>69</ele>
        <time>2020-09-26T12:05:41.000Z</time>
      </trkpt>
      <trkpt lat="43.60767" lon="3.82797">
        <ele>68.80999936</ele>
        <time>2020-09-26T12:05:42.000Z</time>
      </trkpt>
      <trkpt lat="43.60761" lon="3.828">
        <ele>68.60999936</ele>
        <time>2020-09-26T12:05:43.000Z</time>
      </trkpt>
      <trkpt lat="43.60755" lon="3.82803">
        <ele>68.40999936</ele>
        <time>2020-09-26T12:05:44.000Z</time>
      </trkpt>
      <trkpt lat="43.60749" lon="3.82807">
        <ele>68.20999936</ele>
        <time>2020-09-26T12:05:45.000Z</time>
      </trkpt>
      <trkpt lat="43.60743" lon="3.8281">
        <ele>68.00999936</ele>
        <time>2020-09-26T12:05:46.000Z</time>
      </trkpt>
      <trkpt lat="43.60737" lon="3.82814">
        <ele>67.80999936</ele>
        <time>2020-09-26T12:05:47.000Z</time>
      </trkpt>
      <trkpt lat="43.60731" lon="3.82817">
        <ele>67.60999936</ele>
        <time>2020-09-26T12:05:48.000Z</time>
      </trkpt>
      <trkpt lat="43.60725" lon="3.82821">
        <ele>67.40999936</ele>
        <time>2020-09-26T12:05:49.000Z</time>
      </trkpt>
      <trkpt lat="43.60719" lon="3.82824">
        <ele>67.20999936</ele>
        <time>2020-09-26T12:05:50.000Z</time>
      </trkpt>
      <trkpt lat="43.60713" lon="3.82827">
        <ele>67.00999936</ele>
        <time>2020-09-26T12:05:51.000Z</time>
      </trkpt>
      <trkpt lat="43.60707" lon="3.8283">
        <ele>66.71499904</ele>
        <time>2020-09-26T12:05:52.000Z</time>
      </trkpt>
      <trkpt lat="43.60702" lon="3.82833">
        <ele>66.41499904</ele>
        <time>2020-09-26T12:05:53.000Z</time>
      </trkpt>
      <trkpt lat="43.60696" lon="3.82837">
        <ele>66.11499904</ele>
        <time>2020-09-26T12:05:54.000Z</time>
      </trkpt>
      <trkpt lat="43.6069" lon="3.8284">
        <ele>65.81499904</ele>
        <time>2020-09-26T12:05:55.000Z</time>
      </trkpt>
      <trkpt lat="43.60684" lon="3.82844">
        <ele>65.51499904</ele>
        <time>2020-09-26T12:05:56.000Z</time>
      </trkpt>
      <trkpt lat="43.60678" lon="3.82848">
        <ele>65.21499904</ele>
        <time>2020-09-26T12:05:57.000Z</time>
      </trkpt>
      <trkpt lat="43.60673" lon="3.82852">
        <ele>64.91499904</ele>
        <time>2020-09-26T12:05:58.000Z</time>
      </trkpt>
      <trkpt lat="43.60667" lon="3.82857">
        <ele>64.61499904</ele>
        <time>2020-09-26T12:05:59.000Z</time>
      </trkpt>
      <trkpt lat="43.60662" lon="3.82862">
        <ele>64.31499904</ele>
        <time>2020-09-26T12:06:00.000Z</time>
      </trkpt>
      <trkpt lat="43.60657" lon="3.82868">
        <ele>64.01499904</ele>
        <time>2020-09-26T12:06:01.000Z</time>
      </trkpt>
      <trkpt lat="43.60652" lon="3.82873">
        <ele>63.90499968</ele>
        <time>2020-09-26T12:06:02.000Z</time>
      </trkpt>
      <trkpt lat="43.60647" lon="3.82879">
        <ele>63.80499968</ele>
        <time>2020-09-26T12:06:03.000Z</time>
      </trkpt>
      <trkpt lat="43.60642" lon="3.82885">
        <ele>63.70499968</ele>
        <time>2020-09-26T12:06:04.000Z</time>
      </trkpt>
      <trkpt lat="43.60637" lon="3.82891">
        <ele>63.60499968</ele>
        <time>2020-09-26T12:06:05.000Z</time>
      </trkpt>
      <trkpt lat="43.60633" lon="3.82897">
        <ele>63.50499968</ele>
        <time>2020-09-26T12:06:06.000Z</time>
      </trkpt>
      <trkpt lat="43.60628" lon="3.82903">
        <ele>63.40499968</ele>
        <time>2020-09-26T12:06:07.000Z</time>
      </trkpt>
      <trkpt lat="43.60624" lon="3.8291">
        <ele>63.30499968</ele>
        <time>2020-09-26T12:06:08.000Z</time>
      </trkpt>
      <trkpt lat="43.60619" lon="3.82916">
        <ele>63.20499968</ele>
        <time>2020-09-26T12:06:09.000Z</time>
      </trkpt>
      <trkpt lat="43.60614" lon="3.82922">
        <ele>63.10499968</ele>
        <time>2020-09-26T12:06:10.000Z</time>
      </trkpt>
      <trkpt lat="43.60609" lon="3.82929">
        <ele>63.00499968</ele>
        <time>2020-09-26T12:06:11.000Z</time>
      </trkpt>
      <trkpt lat="43.60605" lon="3.82935">
        <ele>62.905094555075</ele>
        <time>2020-09-26T12:06:12.000Z</time>
      </trkpt>
      <trkpt lat="43.606" lon="3.82941">
        <ele>62.805194423239</ele>
        <time>2020-09-26T12:06:13.000Z</time>
      </trkpt>
      <trkpt lat="43.60596" lon="3.82947">
        <ele>62.705294291403</ele>
        <time>2020-09-26T12:06:14.000Z</time>
      </trkpt>
      <trkpt lat="43.60591" lon="3.82953">
        <ele>62.605394159567</ele>
        <time>2020-09-26T12:06:15.000Z</time>
      </trkpt>
      <trkpt lat="43.60587" lon="3.82959">
        <ele>62.50549402773</ele>
        <time>2020-09-26T12:06:16.000Z</time>
      </trkpt>
      <trkpt lat="43.60584" lon="3.82967">
        <ele>62.405593895894</ele>
        <time>2020-09-26T12:06:17.000Z</time>
      </trkpt>
      <trkpt lat="43.60583" lon="3.82975">
        <ele>62.305693764058</ele>
        <time>2020-09-26T12:06:18.000Z</time>
      </trkpt>
      <trkpt lat="43.60583" lon="3.82983">
        <ele>62.205793632222</ele>
        <time>2020-09-26T12:06:19.000Z</time>
      </trkpt>
      <trkpt lat="43.60585" lon="3.82991">
        <ele>62.105893500385</ele>
        <time>2020-09-26T12:06:20.000Z</time>
      </trkpt>
      <trkpt lat="43.60588" lon="3.82997">
        <ele>62.005993368549</ele>
        <time>2020-09-26T12:06:21.000Z</time>
      </trkpt>
      <trkpt lat="43.60593" lon="3.82999">
        <ele>61.905905295406</ele>
        <time>2020-09-26T12:06:22.000Z</time>
      </trkpt>
      <trkpt lat="43.60599" lon="3.83">
        <ele>61.80580522737</ele>
        <time>2020-09-26T12:06:23.000Z</time>
      </trkpt>
      <trkpt lat="43.60604" lon="3.83002">
        <ele>61.705705159334</ele>
        <time>2020-09-26T12:06:24.000Z</time>
      </trkpt>
      <trkpt lat="43.60608" lon="3.83006">
        <ele>61.605605091298</ele>
        <time>2020-09-26T12:06:25.000Z</time>
      </trkpt>
      <trkpt lat="43.60611" lon="3.8301">
        <ele>61.505505023262</ele>
        <time>2020-09-26T12:06:26.000Z</time>
      </trkpt>
      <trkpt lat="43.60614" lon="3.83014">
        <ele>61.405404955226</ele>
        <time>2020-09-26T12:06:27.000Z</time>
      </trkpt>
      <trkpt lat="43.60617" lon="3.83018">
        <ele>61.30530488719</ele>
        <time>2020-09-26T12:06:28.000Z</time>
      </trkpt>
      <trkpt lat="43.6062" lon="3.83021">
        <ele>61.205204819154</ele>
        <time>2020-09-26T12:06:29.000Z</time>
      </trkpt>
      <trkpt lat="43.60623" lon="3.83025">
        <ele>61.105104751118</ele>
        <time>2020-09-26T12:06:30.000Z</time>
      </trkpt>
      <trkpt lat="43.60626" lon="3.83029">
        <ele>61.005004683082</ele>
        <time>2020-09-26T12:06:31.000Z</time>
      </trkpt>
      <trkpt lat="43.60629" lon="3.83033">
        <ele>61</ele>
        <time>2020-09-26T12:06:32.000Z</time>
      </trkpt>
      <trkpt lat="43.60631" lon="3.83036">
        <ele>61</ele>
        <time>2020-09-26T12:06:33.000Z</time>
      </trkpt>
      <trkpt lat="43.60632" lon="3.8304">
        <ele>61</ele>
        <time>2020-09-26T12:06:34.000Z</time>
      </trkpt>
      <trkpt lat="43.60633" lon="3.83043">
        <ele>61</ele>
        <time>2020-09-26T12:06:35.000Z</time>
      </trkpt>
      <trkpt lat="43.60634" lon="3.83046">
        <ele>61</ele>
        <time>2020-09-26T12:06:36.000Z</time>
      </trkpt>
      <trkpt lat="43.60635" lon="3.83048">
        <ele>61</ele>
        <time>2020-09-26T12:06:37.000Z</time>
      </trkpt>
      <trkpt lat="43.60636" lon="3.83051">
        <ele>61</ele>
        <time>2020-09-26T12:06:38.000Z</time>
      </trkpt>
      <trkpt lat="43.60637" lon="3.83055">
        <ele>61</ele>
        <time>2020-09-26T12:06:40.000Z</time>
      </trkpt>
      <trkpt lat="43.60638" lon="3.83058">
        <ele>61.133240340304</ele>
        <time>2020-09-26T12:06:42.000Z</time>
      </trkpt>
      <trkpt lat="43.60639" lon="3.83059">
        <ele>61.97475544449</ele>
        <time>2020-09-26T12:06:48.000Z</time>
      </trkpt>
      <trkpt lat="43.60643" lon="3.83062">
        <ele>63.997988779294</ele>
        <time>2020-09-26T12:10:37.000Z</time>
      </trkpt>
      <trkpt lat="43.60643" lon="3.83061">
        <ele>64</ele>
        <time>2020-09-26T12:10:41.000Z</time>
      </trkpt>
      <trkpt lat="43.60643" lon="3.83061">
        <ele>64.000608079941</ele>
        <time>2020-09-26T12:10:43.000Z</time>
      </trkpt>
      <trkpt lat="43.60638" lon="3.83063">
        <ele>65.999312597928</ele>
        <time>2020-09-26T12:23:19.000Z</time>
      </trkpt>
      <trkpt lat="43.60638" lon="3.83066">
        <ele>65.44171808047</ele>
        <time>2020-09-26T12:23:22.000Z</time>
      </trkpt>
      <trkpt lat="43.60639" lon="3.83069">
        <ele>64.828220746484</ele>
        <time>2020-09-26T12:23:25.000Z</time>
      </trkpt>
      <trkpt lat="43.60641" lon="3.83071">
        <ele>64.214723412498</ele>
        <time>2020-09-26T12:23:28.000Z</time>
      </trkpt>
      <trkpt lat="43.60642" lon="3.83072">
        <ele>64</ele>
        <time>2020-09-26T12:23:34.000Z</time>
      </trkpt>
      <trkpt lat="43.60643" lon="3.83065">
        <ele>63.015635836163</ele>
        <time>2020-09-26T12:23:49.000Z</time>
      </trkpt>
      <trkpt lat="43.60643" lon="3.83064">
        <ele>63</ele>
        <time>2020-09-26T12:23:50.000Z</time>
      </trkpt>
      <trkpt lat="43.60643" lon="3.83064">
        <ele>63</ele>
        <time>2020-09-26T12:23:56.000Z</time>
      </trkpt>
      <trkpt lat="43.60642" lon="3.83067">
        <ele>63</ele>
        <time>2020-09-26T12:24:23.000Z</time>
      </trkpt>
      <trkpt lat="43.60643" lon="3.83064">
        <ele>63</ele>
        <time>2020-09-26T12:24:26.000Z</time>
      </trkpt>
      <trkpt lat="43.60643" lon="3.83062">
        <ele>63</ele>
        <time>2020-09-26T12:24:29.000Z</time>
      </trkpt>
      <trkpt lat="43.60642" lon="3.83063">
        <ele>63</ele>
        <time>2020-09-26T12:24:32.000Z</time>
      </trkpt>
      <trkpt lat="43.60642" lon="3.83064">
        <ele>63</ele>
        <time>2020-09-26T12:24:36.000Z</time>
      </trkpt>
      <trkpt lat="43.60643" lon="3.83069">
        <ele>63</ele>
        <time>2020-09-26T12:24:43.000Z</time>
      </trkpt>
      <trkpt lat="43.60644" lon="3.83071">
        <ele>62.055313860698</ele>
        <time>2020-09-26T12:24:50.000Z</time>
      </trkpt>
      <trkpt lat="43.60642" lon="3.83065">
        <ele>62</ele>
        <time>2020-09-26T12:25:19.000Z</time>
      </trkpt>
      <trkpt lat="43.60641" lon="3.83063">
        <ele>62</ele>
        <time>2020-09-26T12:25:22.000Z</time>
      </trkpt>
      <trkpt lat="43.60642" lon="3.83064">
        <ele>62</ele>
        <time>2020-09-26T12:25:26.000Z</time>
      </trkpt>
      <trkpt lat="43.60643" lon="3.83071">
        <ele>62</ele>
        <time>2020-09-26T12:25:33.000Z</time>
      </trkpt>
      <trkpt lat="43.60643" lon="3.83071">
        <ele>62</ele>
        <time>2020-09-26T12:25:38.000Z</time>
      </trkpt>
    </trkseg>
  </trk>
</gpx>